<?xml version="1.0" encoding="UTF-8" standalone="no" ?>
<gpx xmlns="http://www.topografix.com/GPX/1/1" xmlns:xsi="http://www.w3.org/2001/XMLSchema-instance" xsi:schemaLocation="http://www.topografix.com/GPX/1/1 http://www.topografix.com/GPX/1/1/gpx.xsd" version="1.1" creator="VisuGPX - https://www.visugpx.com">
  <metadata>
    <name>Mourre Nègre via la Bastide des Jourdans</name>
    <desc><![CDATA[Parcours exigeant à réserver aux VTTAE (sauf si vous êtes très fort en VTT musculaire). Sentiers diverses, du large DFCI au petit single, et quasiment pas de route. Des panoramas superbes tout le long. A faire par beau temps.
Après le Mourre Nègre, sur le retour via le sentier des crêtes, il y a quelques raidillons particulièrement costauds. On peut les éviter en reprenant le DFCI, comme à l'aller]]></desc>
  </metadata>
  <wpt lat="43.78664" lon="5.6334">
    <ele>408.2</ele>
    <name><![CDATA[Pause à 14/08 à 19:39]]></name>
    <desc><![CDATA[Pause de 5min 1s]]></desc>
  </wpt>
  <trk>
    <name><![CDATA[20220824 Mourre Negre ]]></name>
    <extensions>
      <line xmlns="http://www.topografix.com/GPX/gpx_style/0/2">
        <color>0000FF</color>
        <width>4</width>
      </line>
    </extensions>
    <trkseg>
      <trkpt lat="43.78662" lon="5.63339">
        <ele>408</ele>
        <time>2022-08-24T09:37:45Z</time>
      </trkpt>
      <trkpt lat="43.78667" lon="5.63333">
        <ele>408</ele>
        <time>2022-08-24T09:37:46Z</time>
      </trkpt>
      <trkpt lat="43.78673" lon="5.63325">
        <ele>407.8</ele>
        <time>2022-08-24T09:37:47Z</time>
      </trkpt>
      <trkpt lat="43.78678" lon="5.63316">
        <ele>407.6</ele>
        <time>2022-08-24T09:37:48Z</time>
      </trkpt>
      <trkpt lat="43.78682" lon="5.63309">
        <ele>407.3</ele>
        <time>2022-08-24T09:37:49Z</time>
      </trkpt>
      <trkpt lat="43.78686" lon="5.63301">
        <ele>407.3</ele>
        <time>2022-08-24T09:37:50Z</time>
      </trkpt>
      <trkpt lat="43.78689" lon="5.63293">
        <ele>407.3</ele>
        <time>2022-08-24T09:37:51Z</time>
      </trkpt>
      <trkpt lat="43.78693" lon="5.63287">
        <ele>407.3</ele>
        <time>2022-08-24T09:37:52Z</time>
      </trkpt>
      <trkpt lat="43.78696" lon="5.63277">
        <ele>407.1</ele>
        <time>2022-08-24T09:37:53Z</time>
      </trkpt>
      <trkpt lat="43.787" lon="5.63268">
        <ele>407</ele>
        <time>2022-08-24T09:37:54Z</time>
      </trkpt>
      <trkpt lat="43.78702" lon="5.6326">
        <ele>406.9</ele>
        <time>2022-08-24T09:37:55Z</time>
      </trkpt>
      <trkpt lat="43.78704" lon="5.63251">
        <ele>406.7</ele>
        <time>2022-08-24T09:37:56Z</time>
      </trkpt>
      <trkpt lat="43.78707" lon="5.63243">
        <ele>406.8</ele>
        <time>2022-08-24T09:37:57Z</time>
      </trkpt>
      <trkpt lat="43.78709" lon="5.63235">
        <ele>406.8</ele>
        <time>2022-08-24T09:37:58Z</time>
      </trkpt>
      <trkpt lat="43.78711" lon="5.63226">
        <ele>406.7</ele>
        <time>2022-08-24T09:37:59Z</time>
      </trkpt>
      <trkpt lat="43.78713" lon="5.63217">
        <ele>406.5</ele>
        <time>2022-08-24T09:38:00Z</time>
      </trkpt>
      <trkpt lat="43.78716" lon="5.63208">
        <ele>406.2</ele>
        <time>2022-08-24T09:38:01Z</time>
      </trkpt>
      <trkpt lat="43.78717" lon="5.63199">
        <ele>406</ele>
        <time>2022-08-24T09:38:02Z</time>
      </trkpt>
      <trkpt lat="43.78719" lon="5.6319">
        <ele>405.9</ele>
        <time>2022-08-24T09:38:03Z</time>
      </trkpt>
      <trkpt lat="43.78721" lon="5.63181">
        <ele>406</ele>
        <time>2022-08-24T09:38:04Z</time>
      </trkpt>
      <trkpt lat="43.78723" lon="5.63171">
        <ele>406</ele>
        <time>2022-08-24T09:38:05Z</time>
      </trkpt>
      <trkpt lat="43.78724" lon="5.63161">
        <ele>405.9</ele>
        <time>2022-08-24T09:38:06Z</time>
      </trkpt>
      <trkpt lat="43.78725" lon="5.63152">
        <ele>405.6</ele>
        <time>2022-08-24T09:38:07Z</time>
      </trkpt>
      <trkpt lat="43.78727" lon="5.63145">
        <ele>405.4</ele>
        <time>2022-08-24T09:38:08Z</time>
      </trkpt>
      <trkpt lat="43.78729" lon="5.63135">
        <ele>405.1</ele>
        <time>2022-08-24T09:38:09Z</time>
      </trkpt>
      <trkpt lat="43.78731" lon="5.63125">
        <ele>405</ele>
        <time>2022-08-24T09:38:10Z</time>
      </trkpt>
      <trkpt lat="43.78733" lon="5.63116">
        <ele>404.9</ele>
        <time>2022-08-24T09:38:11Z</time>
      </trkpt>
      <trkpt lat="43.78735" lon="5.63107">
        <ele>404.9</ele>
        <time>2022-08-24T09:38:12Z</time>
      </trkpt>
      <trkpt lat="43.78737" lon="5.63098">
        <ele>404.8</ele>
        <time>2022-08-24T09:38:13Z</time>
      </trkpt>
      <trkpt lat="43.78738" lon="5.63087">
        <ele>404.7</ele>
        <time>2022-08-24T09:38:14Z</time>
      </trkpt>
      <trkpt lat="43.7874" lon="5.63078">
        <ele>404.6</ele>
        <time>2022-08-24T09:38:15Z</time>
      </trkpt>
      <trkpt lat="43.78742" lon="5.63067">
        <ele>404.5</ele>
        <time>2022-08-24T09:38:16Z</time>
      </trkpt>
      <trkpt lat="43.78743" lon="5.63057">
        <ele>404.5</ele>
        <time>2022-08-24T09:38:17Z</time>
      </trkpt>
      <trkpt lat="43.78745" lon="5.63047">
        <ele>404.6</ele>
        <time>2022-08-24T09:38:18Z</time>
      </trkpt>
      <trkpt lat="43.78746" lon="5.63039">
        <ele>404.7</ele>
        <time>2022-08-24T09:38:19Z</time>
      </trkpt>
      <trkpt lat="43.78746" lon="5.63027">
        <ele>404.7</ele>
        <time>2022-08-24T09:38:20Z</time>
      </trkpt>
      <trkpt lat="43.78748" lon="5.63016">
        <ele>404.4</ele>
        <time>2022-08-24T09:38:21Z</time>
      </trkpt>
      <trkpt lat="43.78748" lon="5.63005">
        <ele>404</ele>
        <time>2022-08-24T09:38:22Z</time>
      </trkpt>
      <trkpt lat="43.78748" lon="5.62995">
        <ele>403.7</ele>
        <time>2022-08-24T09:38:23Z</time>
      </trkpt>
      <trkpt lat="43.78749" lon="5.62983">
        <ele>403.3</ele>
        <time>2022-08-24T09:38:24Z</time>
      </trkpt>
      <trkpt lat="43.78749" lon="5.62972">
        <ele>402.9</ele>
        <time>2022-08-24T09:38:25Z</time>
      </trkpt>
      <trkpt lat="43.7875" lon="5.62961">
        <ele>402.6</ele>
        <time>2022-08-24T09:38:26Z</time>
      </trkpt>
      <trkpt lat="43.7875" lon="5.62949">
        <ele>402.2</ele>
        <time>2022-08-24T09:38:27Z</time>
      </trkpt>
      <trkpt lat="43.7875" lon="5.62938">
        <ele>402</ele>
        <time>2022-08-24T09:38:28Z</time>
      </trkpt>
      <trkpt lat="43.78749" lon="5.62927">
        <ele>401.9</ele>
        <time>2022-08-24T09:38:29Z</time>
      </trkpt>
      <trkpt lat="43.78749" lon="5.62916">
        <ele>401.9</ele>
        <time>2022-08-24T09:38:30Z</time>
      </trkpt>
      <trkpt lat="43.7875" lon="5.62908">
        <ele>401.7</ele>
        <time>2022-08-24T09:38:31Z</time>
      </trkpt>
      <trkpt lat="43.78751" lon="5.62888">
        <ele>401</ele>
        <time>2022-08-24T09:38:33Z</time>
      </trkpt>
      <trkpt lat="43.78752" lon="5.62877">
        <ele>400.7</ele>
        <time>2022-08-24T09:38:34Z</time>
      </trkpt>
      <trkpt lat="43.78753" lon="5.62867">
        <ele>400.4</ele>
        <time>2022-08-24T09:38:35Z</time>
      </trkpt>
      <trkpt lat="43.78756" lon="5.6286">
        <ele>400.6</ele>
        <time>2022-08-24T09:38:36Z</time>
      </trkpt>
      <trkpt lat="43.78761" lon="5.62856">
        <ele>401</ele>
        <time>2022-08-24T09:38:37Z</time>
      </trkpt>
      <trkpt lat="43.78766" lon="5.62851">
        <ele>401.4</ele>
        <time>2022-08-24T09:38:38Z</time>
      </trkpt>
      <trkpt lat="43.7877" lon="5.62844">
        <ele>401.6</ele>
        <time>2022-08-24T09:38:39Z</time>
      </trkpt>
      <trkpt lat="43.78774" lon="5.62837">
        <ele>401.7</ele>
        <time>2022-08-24T09:38:40Z</time>
      </trkpt>
      <trkpt lat="43.78777" lon="5.62829">
        <ele>401.8</ele>
        <time>2022-08-24T09:38:41Z</time>
      </trkpt>
      <trkpt lat="43.78779" lon="5.62821">
        <ele>401.7</ele>
        <time>2022-08-24T09:38:42Z</time>
      </trkpt>
      <trkpt lat="43.7878" lon="5.62813">
        <ele>401.5</ele>
        <time>2022-08-24T09:38:43Z</time>
      </trkpt>
      <trkpt lat="43.78782" lon="5.62805">
        <ele>401.5</ele>
        <time>2022-08-24T09:38:44Z</time>
      </trkpt>
      <trkpt lat="43.78785" lon="5.62791">
        <ele>401.6</ele>
      </trkpt>
      <trkpt lat="43.78785" lon="5.62791">
        <ele>401.6</ele>
        <time>2022-08-24T06:05:11Z</time>
      </trkpt>
      <trkpt lat="43.78783" lon="5.62783">
        <ele>401.4</ele>
        <time>2022-08-24T06:05:12Z</time>
      </trkpt>
      <trkpt lat="43.78785" lon="5.62777">
        <ele>401.5</ele>
        <time>2022-08-24T06:05:13Z</time>
      </trkpt>
      <trkpt lat="43.78787" lon="5.62769">
        <ele>401.4</ele>
        <time>2022-08-24T06:05:14Z</time>
      </trkpt>
      <trkpt lat="43.78788" lon="5.62761">
        <ele>401.3</ele>
        <time>2022-08-24T06:05:15Z</time>
      </trkpt>
      <trkpt lat="43.78788" lon="5.62753">
        <ele>401.2</ele>
        <time>2022-08-24T06:05:16Z</time>
      </trkpt>
      <trkpt lat="43.7879" lon="5.62744">
        <ele>401.2</ele>
        <time>2022-08-24T06:05:17Z</time>
      </trkpt>
      <trkpt lat="43.78791" lon="5.62734">
        <ele>401.1</ele>
        <time>2022-08-24T06:05:18Z</time>
      </trkpt>
      <trkpt lat="43.78791" lon="5.62725">
        <ele>401</ele>
        <time>2022-08-24T06:05:19Z</time>
      </trkpt>
      <trkpt lat="43.78795" lon="5.62715">
        <ele>400.9</ele>
        <time>2022-08-24T06:05:20Z</time>
      </trkpt>
      <trkpt lat="43.78795" lon="5.62706">
        <ele>400.7</ele>
        <time>2022-08-24T06:05:21Z</time>
      </trkpt>
      <trkpt lat="43.78797" lon="5.62696">
        <ele>400.4</ele>
        <time>2022-08-24T06:05:22Z</time>
      </trkpt>
      <trkpt lat="43.788" lon="5.62686">
        <ele>400.3</ele>
        <time>2022-08-24T06:05:23Z</time>
      </trkpt>
      <trkpt lat="43.78801" lon="5.62676">
        <ele>400</ele>
        <time>2022-08-24T06:05:24Z</time>
      </trkpt>
      <trkpt lat="43.78803" lon="5.62666">
        <ele>399.8</ele>
        <time>2022-08-24T06:05:25Z</time>
      </trkpt>
      <trkpt lat="43.78804" lon="5.62656">
        <ele>399.5</ele>
        <time>2022-08-24T06:05:26Z</time>
      </trkpt>
      <trkpt lat="43.78806" lon="5.62646">
        <ele>399.2</ele>
        <time>2022-08-24T06:05:27Z</time>
      </trkpt>
      <trkpt lat="43.78808" lon="5.62636">
        <ele>398.9</ele>
        <time>2022-08-24T06:05:28Z</time>
      </trkpt>
      <trkpt lat="43.78809" lon="5.62625">
        <ele>398.6</ele>
        <time>2022-08-24T06:05:29Z</time>
      </trkpt>
      <trkpt lat="43.78811" lon="5.62614">
        <ele>398.3</ele>
        <time>2022-08-24T06:05:30Z</time>
      </trkpt>
      <trkpt lat="43.78813" lon="5.62604">
        <ele>398.1</ele>
        <time>2022-08-24T06:05:31Z</time>
      </trkpt>
      <trkpt lat="43.78815" lon="5.62594">
        <ele>397.9</ele>
        <time>2022-08-24T06:05:32Z</time>
      </trkpt>
      <trkpt lat="43.78817" lon="5.62583">
        <ele>397.8</ele>
        <time>2022-08-24T06:05:33Z</time>
      </trkpt>
      <trkpt lat="43.78818" lon="5.62573">
        <ele>397.7</ele>
        <time>2022-08-24T06:05:34Z</time>
      </trkpt>
      <trkpt lat="43.7882" lon="5.62562">
        <ele>397.6</ele>
        <time>2022-08-24T06:05:35Z</time>
      </trkpt>
      <trkpt lat="43.7882" lon="5.62551">
        <ele>397.4</ele>
        <time>2022-08-24T06:05:36Z</time>
      </trkpt>
      <trkpt lat="43.78822" lon="5.6254">
        <ele>397.1</ele>
        <time>2022-08-24T06:05:37Z</time>
      </trkpt>
      <trkpt lat="43.78824" lon="5.6253">
        <ele>397</ele>
        <time>2022-08-24T06:05:38Z</time>
      </trkpt>
      <trkpt lat="43.78825" lon="5.62519">
        <ele>396.8</ele>
        <time>2022-08-24T06:05:39Z</time>
      </trkpt>
      <trkpt lat="43.78826" lon="5.62508">
        <ele>396.5</ele>
        <time>2022-08-24T06:05:40Z</time>
      </trkpt>
      <trkpt lat="43.78828" lon="5.62497">
        <ele>396.3</ele>
        <time>2022-08-24T06:05:41Z</time>
      </trkpt>
      <trkpt lat="43.7883" lon="5.62485">
        <ele>396.1</ele>
        <time>2022-08-24T06:05:42Z</time>
      </trkpt>
      <trkpt lat="43.78831" lon="5.62475">
        <ele>395.9</ele>
        <time>2022-08-24T06:05:43Z</time>
      </trkpt>
      <trkpt lat="43.78833" lon="5.62464">
        <ele>396</ele>
        <time>2022-08-24T06:05:44Z</time>
      </trkpt>
      <trkpt lat="43.78835" lon="5.62452">
        <ele>396.1</ele>
        <time>2022-08-24T06:05:45Z</time>
      </trkpt>
      <trkpt lat="43.78835" lon="5.62442">
        <ele>396</ele>
        <time>2022-08-24T06:05:46Z</time>
      </trkpt>
      <trkpt lat="43.78834" lon="5.62431">
        <ele>395.6</ele>
        <time>2022-08-24T06:05:47Z</time>
      </trkpt>
      <trkpt lat="43.78833" lon="5.62421">
        <ele>395.1</ele>
        <time>2022-08-24T06:05:48Z</time>
      </trkpt>
      <trkpt lat="43.78833" lon="5.62412">
        <ele>395</ele>
        <time>2022-08-24T06:05:49Z</time>
      </trkpt>
      <trkpt lat="43.78831" lon="5.62401">
        <ele>394.9</ele>
        <time>2022-08-24T06:05:50Z</time>
      </trkpt>
      <trkpt lat="43.78831" lon="5.6239">
        <ele>394.8</ele>
        <time>2022-08-24T06:05:51Z</time>
      </trkpt>
      <trkpt lat="43.78831" lon="5.6238">
        <ele>394.8</ele>
        <time>2022-08-24T06:05:52Z</time>
      </trkpt>
      <trkpt lat="43.78832" lon="5.62371">
        <ele>394.9</ele>
        <time>2022-08-24T06:05:53Z</time>
      </trkpt>
      <trkpt lat="43.78834" lon="5.6236">
        <ele>395</ele>
        <time>2022-08-24T06:05:54Z</time>
      </trkpt>
      <trkpt lat="43.78836" lon="5.6235">
        <ele>394.7</ele>
        <time>2022-08-24T06:05:55Z</time>
      </trkpt>
      <trkpt lat="43.78839" lon="5.62341">
        <ele>394.6</ele>
        <time>2022-08-24T06:05:56Z</time>
      </trkpt>
      <trkpt lat="43.78842" lon="5.62333">
        <ele>394.6</ele>
        <time>2022-08-24T06:05:57Z</time>
      </trkpt>
      <trkpt lat="43.78846" lon="5.62325">
        <ele>394.7</ele>
        <time>2022-08-24T06:05:58Z</time>
      </trkpt>
      <trkpt lat="43.78849" lon="5.62316">
        <ele>394.9</ele>
        <time>2022-08-24T06:05:59Z</time>
      </trkpt>
      <trkpt lat="43.78852" lon="5.62307">
        <ele>395</ele>
        <time>2022-08-24T06:06:00Z</time>
      </trkpt>
      <trkpt lat="43.78856" lon="5.62299">
        <ele>395.2</ele>
        <time>2022-08-24T06:06:01Z</time>
      </trkpt>
      <trkpt lat="43.78859" lon="5.6229">
        <ele>395.2</ele>
        <time>2022-08-24T06:06:02Z</time>
      </trkpt>
      <trkpt lat="43.78862" lon="5.62283">
        <ele>395.2</ele>
        <time>2022-08-24T06:06:03Z</time>
      </trkpt>
      <trkpt lat="43.78865" lon="5.62275">
        <ele>395</ele>
        <time>2022-08-24T06:06:04Z</time>
      </trkpt>
      <trkpt lat="43.78869" lon="5.62268">
        <ele>394.8</ele>
        <time>2022-08-24T06:06:05Z</time>
      </trkpt>
      <trkpt lat="43.78872" lon="5.62262">
        <ele>394.7</ele>
        <time>2022-08-24T06:06:06Z</time>
      </trkpt>
      <trkpt lat="43.78875" lon="5.62254">
        <ele>394.6</ele>
        <time>2022-08-24T06:06:07Z</time>
      </trkpt>
      <trkpt lat="43.78878" lon="5.62246">
        <ele>394.9</ele>
        <time>2022-08-24T06:06:08Z</time>
      </trkpt>
      <trkpt lat="43.78881" lon="5.62239">
        <ele>395.1</ele>
        <time>2022-08-24T06:06:09Z</time>
      </trkpt>
      <trkpt lat="43.78884" lon="5.62233">
        <ele>395.5</ele>
        <time>2022-08-24T06:06:10Z</time>
      </trkpt>
      <trkpt lat="43.78886" lon="5.62225">
        <ele>395.7</ele>
        <time>2022-08-24T06:06:11Z</time>
      </trkpt>
      <trkpt lat="43.78888" lon="5.62218">
        <ele>395.8</ele>
        <time>2022-08-24T06:06:12Z</time>
      </trkpt>
      <trkpt lat="43.78891" lon="5.6221">
        <ele>395.7</ele>
        <time>2022-08-24T06:06:13Z</time>
      </trkpt>
      <trkpt lat="43.78894" lon="5.62204">
        <ele>395.7</ele>
        <time>2022-08-24T06:06:14Z</time>
      </trkpt>
      <trkpt lat="43.78897" lon="5.62198">
        <ele>395.7</ele>
        <time>2022-08-24T06:06:15Z</time>
      </trkpt>
      <trkpt lat="43.78901" lon="5.62193">
        <ele>395.9</ele>
        <time>2022-08-24T06:06:16Z</time>
      </trkpt>
      <trkpt lat="43.78903" lon="5.62186">
        <ele>396.2</ele>
        <time>2022-08-24T06:06:17Z</time>
      </trkpt>
      <trkpt lat="43.78904" lon="5.62178">
        <ele>396.4</ele>
        <time>2022-08-24T06:06:18Z</time>
      </trkpt>
      <trkpt lat="43.78907" lon="5.6217">
        <ele>396.8</ele>
        <time>2022-08-24T06:06:19Z</time>
      </trkpt>
      <trkpt lat="43.78908" lon="5.62163">
        <ele>397</ele>
        <time>2022-08-24T06:06:20Z</time>
      </trkpt>
      <trkpt lat="43.78909" lon="5.62155">
        <ele>396.9</ele>
        <time>2022-08-24T06:06:21Z</time>
      </trkpt>
      <trkpt lat="43.7891" lon="5.62147">
        <ele>396.8</ele>
        <time>2022-08-24T06:06:22Z</time>
      </trkpt>
      <trkpt lat="43.78912" lon="5.62139">
        <ele>396.7</ele>
        <time>2022-08-24T06:06:23Z</time>
      </trkpt>
      <trkpt lat="43.78914" lon="5.62133">
        <ele>396.8</ele>
        <time>2022-08-24T06:06:24Z</time>
      </trkpt>
      <trkpt lat="43.78916" lon="5.62126">
        <ele>396.9</ele>
        <time>2022-08-24T06:06:25Z</time>
      </trkpt>
      <trkpt lat="43.78918" lon="5.62119">
        <ele>397</ele>
        <time>2022-08-24T06:06:26Z</time>
      </trkpt>
      <trkpt lat="43.78919" lon="5.62112">
        <ele>397.1</ele>
        <time>2022-08-24T06:06:27Z</time>
      </trkpt>
      <trkpt lat="43.78921" lon="5.62105">
        <ele>396.8</ele>
        <time>2022-08-24T06:06:28Z</time>
      </trkpt>
      <trkpt lat="43.78923" lon="5.62098">
        <ele>396.5</ele>
        <time>2022-08-24T06:06:29Z</time>
      </trkpt>
      <trkpt lat="43.78924" lon="5.62091">
        <ele>396.2</ele>
        <time>2022-08-24T06:06:30Z</time>
      </trkpt>
      <trkpt lat="43.78927" lon="5.62086">
        <ele>396.2</ele>
        <time>2022-08-24T06:06:31Z</time>
      </trkpt>
      <trkpt lat="43.78931" lon="5.6208">
        <ele>396.4</ele>
        <time>2022-08-24T06:06:32Z</time>
      </trkpt>
      <trkpt lat="43.78933" lon="5.62073">
        <ele>396.4</ele>
        <time>2022-08-24T06:06:33Z</time>
      </trkpt>
      <trkpt lat="43.78936" lon="5.62066">
        <ele>396.4</ele>
        <time>2022-08-24T06:06:34Z</time>
      </trkpt>
      <trkpt lat="43.78937" lon="5.62059">
        <ele>396.3</ele>
        <time>2022-08-24T06:06:35Z</time>
      </trkpt>
      <trkpt lat="43.78939" lon="5.62052">
        <ele>396.3</ele>
        <time>2022-08-24T06:06:36Z</time>
      </trkpt>
      <trkpt lat="43.78942" lon="5.62045">
        <ele>396.3</ele>
        <time>2022-08-24T06:06:37Z</time>
      </trkpt>
      <trkpt lat="43.78945" lon="5.62037">
        <ele>396.3</ele>
        <time>2022-08-24T06:06:38Z</time>
      </trkpt>
      <trkpt lat="43.78947" lon="5.6203">
        <ele>396.3</ele>
        <time>2022-08-24T06:06:39Z</time>
      </trkpt>
      <trkpt lat="43.7895" lon="5.62022">
        <ele>396</ele>
        <time>2022-08-24T06:06:40Z</time>
      </trkpt>
      <trkpt lat="43.78952" lon="5.62015">
        <ele>395.7</ele>
        <time>2022-08-24T06:06:41Z</time>
      </trkpt>
      <trkpt lat="43.78954" lon="5.62007">
        <ele>395.4</ele>
        <time>2022-08-24T06:06:42Z</time>
      </trkpt>
      <trkpt lat="43.78956" lon="5.61999">
        <ele>395.3</ele>
        <time>2022-08-24T06:06:43Z</time>
      </trkpt>
      <trkpt lat="43.7896" lon="5.61992">
        <ele>395.6</ele>
        <time>2022-08-24T06:06:44Z</time>
      </trkpt>
      <trkpt lat="43.78963" lon="5.61983">
        <ele>395.8</ele>
        <time>2022-08-24T06:06:45Z</time>
      </trkpt>
      <trkpt lat="43.78965" lon="5.61975">
        <ele>395.9</ele>
        <time>2022-08-24T06:06:46Z</time>
      </trkpt>
      <trkpt lat="43.78967" lon="5.61967">
        <ele>395.9</ele>
        <time>2022-08-24T06:06:47Z</time>
      </trkpt>
      <trkpt lat="43.78969" lon="5.61958">
        <ele>395.6</ele>
        <time>2022-08-24T06:06:48Z</time>
      </trkpt>
      <trkpt lat="43.78971" lon="5.61949">
        <ele>395.2</ele>
        <time>2022-08-24T06:06:49Z</time>
      </trkpt>
      <trkpt lat="43.78973" lon="5.6194">
        <ele>394.9</ele>
        <time>2022-08-24T06:06:50Z</time>
      </trkpt>
      <trkpt lat="43.78975" lon="5.61931">
        <ele>394.8</ele>
        <time>2022-08-24T06:06:51Z</time>
      </trkpt>
      <trkpt lat="43.78977" lon="5.61923">
        <ele>394.7</ele>
        <time>2022-08-24T06:06:52Z</time>
      </trkpt>
      <trkpt lat="43.7898" lon="5.61915">
        <ele>394.8</ele>
        <time>2022-08-24T06:06:53Z</time>
      </trkpt>
      <trkpt lat="43.78982" lon="5.61906">
        <ele>394.7</ele>
        <time>2022-08-24T06:06:54Z</time>
      </trkpt>
      <trkpt lat="43.78985" lon="5.61897">
        <ele>394.6</ele>
        <time>2022-08-24T06:06:55Z</time>
      </trkpt>
      <trkpt lat="43.78987" lon="5.61888">
        <ele>394.6</ele>
        <time>2022-08-24T06:06:56Z</time>
      </trkpt>
      <trkpt lat="43.78989" lon="5.6188">
        <ele>394.5</ele>
        <time>2022-08-24T06:06:57Z</time>
      </trkpt>
      <trkpt lat="43.7899" lon="5.61871">
        <ele>394.3</ele>
        <time>2022-08-24T06:06:58Z</time>
      </trkpt>
      <trkpt lat="43.78993" lon="5.61862">
        <ele>394.3</ele>
        <time>2022-08-24T06:06:59Z</time>
      </trkpt>
      <trkpt lat="43.78995" lon="5.61853">
        <ele>393.9</ele>
        <time>2022-08-24T06:07:00Z</time>
      </trkpt>
      <trkpt lat="43.78998" lon="5.61844">
        <ele>393.6</ele>
        <time>2022-08-24T06:07:01Z</time>
      </trkpt>
      <trkpt lat="43.79001" lon="5.61834">
        <ele>393.1</ele>
        <time>2022-08-24T06:07:02Z</time>
      </trkpt>
      <trkpt lat="43.79002" lon="5.61825">
        <ele>392.9</ele>
        <time>2022-08-24T06:07:03Z</time>
      </trkpt>
      <trkpt lat="43.79005" lon="5.61816">
        <ele>392.8</ele>
        <time>2022-08-24T06:07:04Z</time>
      </trkpt>
      <trkpt lat="43.79007" lon="5.61808">
        <ele>392.6</ele>
        <time>2022-08-24T06:07:05Z</time>
      </trkpt>
      <trkpt lat="43.7901" lon="5.618">
        <ele>392.4</ele>
        <time>2022-08-24T06:07:06Z</time>
      </trkpt>
      <trkpt lat="43.79013" lon="5.61791">
        <ele>392.1</ele>
        <time>2022-08-24T06:07:07Z</time>
      </trkpt>
      <trkpt lat="43.79016" lon="5.6178">
        <ele>391.9</ele>
        <time>2022-08-24T06:07:08Z</time>
      </trkpt>
      <trkpt lat="43.7902" lon="5.61771">
        <ele>391.9</ele>
        <time>2022-08-24T06:07:09Z</time>
      </trkpt>
      <trkpt lat="43.79023" lon="5.61761">
        <ele>391.9</ele>
        <time>2022-08-24T06:07:10Z</time>
      </trkpt>
      <trkpt lat="43.79026" lon="5.61751">
        <ele>391.8</ele>
        <time>2022-08-24T06:07:11Z</time>
      </trkpt>
      <trkpt lat="43.79028" lon="5.61741">
        <ele>391.4</ele>
        <time>2022-08-24T06:07:12Z</time>
      </trkpt>
      <trkpt lat="43.79031" lon="5.61732">
        <ele>390.8</ele>
        <time>2022-08-24T06:07:13Z</time>
      </trkpt>
      <trkpt lat="43.79034" lon="5.61722">
        <ele>390.2</ele>
        <time>2022-08-24T06:07:14Z</time>
      </trkpt>
      <trkpt lat="43.79036" lon="5.61712">
        <ele>390.1</ele>
        <time>2022-08-24T06:07:15Z</time>
      </trkpt>
      <trkpt lat="43.79039" lon="5.61703">
        <ele>390</ele>
        <time>2022-08-24T06:07:16Z</time>
      </trkpt>
      <trkpt lat="43.79042" lon="5.61694">
        <ele>390</ele>
        <time>2022-08-24T06:07:17Z</time>
      </trkpt>
      <trkpt lat="43.79044" lon="5.61684">
        <ele>390.2</ele>
        <time>2022-08-24T06:07:18Z</time>
      </trkpt>
      <trkpt lat="43.79046" lon="5.61674">
        <ele>390.3</ele>
        <time>2022-08-24T06:07:19Z</time>
      </trkpt>
      <trkpt lat="43.79048" lon="5.61664">
        <ele>390.4</ele>
        <time>2022-08-24T06:07:20Z</time>
      </trkpt>
      <trkpt lat="43.7905" lon="5.61657">
        <ele>390.6</ele>
        <time>2022-08-24T06:07:21Z</time>
      </trkpt>
      <trkpt lat="43.79052" lon="5.61648">
        <ele>390.8</ele>
        <time>2022-08-24T06:07:22Z</time>
      </trkpt>
      <trkpt lat="43.79055" lon="5.61639">
        <ele>390.9</ele>
        <time>2022-08-24T06:07:23Z</time>
      </trkpt>
      <trkpt lat="43.79056" lon="5.61631">
        <ele>391</ele>
        <time>2022-08-24T06:07:24Z</time>
      </trkpt>
      <trkpt lat="43.79059" lon="5.61623">
        <ele>391.1</ele>
        <time>2022-08-24T06:07:25Z</time>
      </trkpt>
      <trkpt lat="43.79061" lon="5.61615">
        <ele>391.2</ele>
        <time>2022-08-24T06:07:26Z</time>
      </trkpt>
      <trkpt lat="43.79064" lon="5.61607">
        <ele>391.2</ele>
        <time>2022-08-24T06:07:27Z</time>
      </trkpt>
      <trkpt lat="43.79065" lon="5.61599">
        <ele>391.1</ele>
        <time>2022-08-24T06:07:28Z</time>
      </trkpt>
      <trkpt lat="43.79068" lon="5.61591">
        <ele>391.1</ele>
        <time>2022-08-24T06:07:29Z</time>
      </trkpt>
      <trkpt lat="43.79071" lon="5.61584">
        <ele>391.1</ele>
        <time>2022-08-24T06:07:30Z</time>
      </trkpt>
      <trkpt lat="43.79073" lon="5.61578">
        <ele>391.2</ele>
        <time>2022-08-24T06:07:31Z</time>
      </trkpt>
      <trkpt lat="43.79075" lon="5.61572">
        <ele>391.3</ele>
        <time>2022-08-24T06:07:32Z</time>
      </trkpt>
      <trkpt lat="43.79078" lon="5.61565">
        <ele>391.4</ele>
        <time>2022-08-24T06:07:33Z</time>
      </trkpt>
      <trkpt lat="43.7908" lon="5.61557">
        <ele>391.6</ele>
        <time>2022-08-24T06:07:34Z</time>
      </trkpt>
      <trkpt lat="43.79082" lon="5.61551">
        <ele>391.7</ele>
        <time>2022-08-24T06:07:35Z</time>
      </trkpt>
      <trkpt lat="43.79084" lon="5.61543">
        <ele>391.6</ele>
        <time>2022-08-24T06:07:36Z</time>
      </trkpt>
      <trkpt lat="43.79086" lon="5.61535">
        <ele>391.3</ele>
        <time>2022-08-24T06:07:37Z</time>
      </trkpt>
      <trkpt lat="43.79089" lon="5.61528">
        <ele>391.2</ele>
        <time>2022-08-24T06:07:38Z</time>
      </trkpt>
      <trkpt lat="43.79091" lon="5.61521">
        <ele>391.1</ele>
        <time>2022-08-24T06:07:39Z</time>
      </trkpt>
      <trkpt lat="43.79093" lon="5.61514">
        <ele>391</ele>
        <time>2022-08-24T06:07:40Z</time>
      </trkpt>
      <trkpt lat="43.79096" lon="5.61506">
        <ele>391</ele>
        <time>2022-08-24T06:07:41Z</time>
      </trkpt>
      <trkpt lat="43.79099" lon="5.615">
        <ele>391.2</ele>
        <time>2022-08-24T06:07:42Z</time>
      </trkpt>
      <trkpt lat="43.79102" lon="5.61493">
        <ele>391.4</ele>
        <time>2022-08-24T06:07:43Z</time>
      </trkpt>
      <trkpt lat="43.79104" lon="5.61486">
        <ele>391.6</ele>
        <time>2022-08-24T06:07:44Z</time>
      </trkpt>
      <trkpt lat="43.79106" lon="5.61479">
        <ele>391.8</ele>
        <time>2022-08-24T06:07:45Z</time>
      </trkpt>
      <trkpt lat="43.79109" lon="5.61473">
        <ele>391.9</ele>
        <time>2022-08-24T06:07:46Z</time>
      </trkpt>
      <trkpt lat="43.79112" lon="5.61465">
        <ele>392</ele>
        <time>2022-08-24T06:07:47Z</time>
      </trkpt>
      <trkpt lat="43.79113" lon="5.61458">
        <ele>392.1</ele>
        <time>2022-08-24T06:07:48Z</time>
      </trkpt>
      <trkpt lat="43.79116" lon="5.61453">
        <ele>392.2</ele>
        <time>2022-08-24T06:07:49Z</time>
      </trkpt>
      <trkpt lat="43.79118" lon="5.61445">
        <ele>392.2</ele>
        <time>2022-08-24T06:07:50Z</time>
      </trkpt>
      <trkpt lat="43.79121" lon="5.61439">
        <ele>392.3</ele>
        <time>2022-08-24T06:07:51Z</time>
      </trkpt>
      <trkpt lat="43.79123" lon="5.61433">
        <ele>392.4</ele>
        <time>2022-08-24T06:07:52Z</time>
      </trkpt>
      <trkpt lat="43.79126" lon="5.61426">
        <ele>392.5</ele>
        <time>2022-08-24T06:07:53Z</time>
      </trkpt>
      <trkpt lat="43.79128" lon="5.6142">
        <ele>392.6</ele>
        <time>2022-08-24T06:07:54Z</time>
      </trkpt>
      <trkpt lat="43.7913" lon="5.61414">
        <ele>392.8</ele>
        <time>2022-08-24T06:07:55Z</time>
      </trkpt>
      <trkpt lat="43.79134" lon="5.61403">
        <ele>393.3</ele>
        <time>2022-08-24T06:07:57Z</time>
      </trkpt>
      <trkpt lat="43.79138" lon="5.61393">
        <ele>393.8</ele>
        <time>2022-08-24T06:07:59Z</time>
      </trkpt>
      <trkpt lat="43.79142" lon="5.61383">
        <ele>394.2</ele>
        <time>2022-08-24T06:08:01Z</time>
      </trkpt>
      <trkpt lat="43.79146" lon="5.61372">
        <ele>394.6</ele>
        <time>2022-08-24T06:08:03Z</time>
      </trkpt>
      <trkpt lat="43.79148" lon="5.61367">
        <ele>394.8</ele>
        <time>2022-08-24T06:08:04Z</time>
      </trkpt>
      <trkpt lat="43.79152" lon="5.61358">
        <ele>395.2</ele>
        <time>2022-08-24T06:08:06Z</time>
      </trkpt>
      <trkpt lat="43.79156" lon="5.61348">
        <ele>395.8</ele>
        <time>2022-08-24T06:08:08Z</time>
      </trkpt>
      <trkpt lat="43.7916" lon="5.61338">
        <ele>396.5</ele>
        <time>2022-08-24T06:08:10Z</time>
      </trkpt>
      <trkpt lat="43.79165" lon="5.61329">
        <ele>397.1</ele>
        <time>2022-08-24T06:08:12Z</time>
      </trkpt>
      <trkpt lat="43.79169" lon="5.6132">
        <ele>397.5</ele>
        <time>2022-08-24T06:08:14Z</time>
      </trkpt>
      <trkpt lat="43.79173" lon="5.61311">
        <ele>397.8</ele>
        <time>2022-08-24T06:08:16Z</time>
      </trkpt>
      <trkpt lat="43.79178" lon="5.61301">
        <ele>398.1</ele>
        <time>2022-08-24T06:08:18Z</time>
      </trkpt>
      <trkpt lat="43.79182" lon="5.61292">
        <ele>398.3</ele>
        <time>2022-08-24T06:08:20Z</time>
      </trkpt>
      <trkpt lat="43.79188" lon="5.61283">
        <ele>398.6</ele>
        <time>2022-08-24T06:08:22Z</time>
      </trkpt>
      <trkpt lat="43.79193" lon="5.61275">
        <ele>398.9</ele>
        <time>2022-08-24T06:08:24Z</time>
      </trkpt>
      <trkpt lat="43.79198" lon="5.61266">
        <ele>399.1</ele>
        <time>2022-08-24T06:08:26Z</time>
      </trkpt>
      <trkpt lat="43.79204" lon="5.61258">
        <ele>399.2</ele>
        <time>2022-08-24T06:08:28Z</time>
      </trkpt>
      <trkpt lat="43.79212" lon="5.61246">
        <ele>399.6</ele>
        <time>2022-08-24T06:08:31Z</time>
      </trkpt>
      <trkpt lat="43.79219" lon="5.61238">
        <ele>399.9</ele>
        <time>2022-08-24T06:08:33Z</time>
      </trkpt>
      <trkpt lat="43.79224" lon="5.6123">
        <ele>400.1</ele>
        <time>2022-08-24T06:08:35Z</time>
      </trkpt>
      <trkpt lat="43.79224" lon="5.61218">
        <ele>400</ele>
        <time>2022-08-24T06:08:37Z</time>
      </trkpt>
      <trkpt lat="43.7922" lon="5.61207">
        <ele>399.9</ele>
        <time>2022-08-24T06:08:39Z</time>
      </trkpt>
      <trkpt lat="43.79218" lon="5.61202">
        <ele>399.8</ele>
        <time>2022-08-24T06:08:40Z</time>
      </trkpt>
      <trkpt lat="43.79215" lon="5.61195">
        <ele>399.7</ele>
        <time>2022-08-24T06:08:41Z</time>
      </trkpt>
      <trkpt lat="43.79213" lon="5.61182">
        <ele>399.7</ele>
        <time>2022-08-24T06:08:43Z</time>
      </trkpt>
      <trkpt lat="43.79212" lon="5.61175">
        <ele>399.6</ele>
        <time>2022-08-24T06:08:44Z</time>
      </trkpt>
      <trkpt lat="43.79213" lon="5.61168">
        <ele>399.7</ele>
        <time>2022-08-24T06:08:45Z</time>
      </trkpt>
      <trkpt lat="43.7921" lon="5.61162">
        <ele>399.6</ele>
        <time>2022-08-24T06:08:46Z</time>
      </trkpt>
      <trkpt lat="43.79208" lon="5.61157">
        <ele>399.5</ele>
        <time>2022-08-24T06:08:47Z</time>
      </trkpt>
      <trkpt lat="43.79206" lon="5.61149">
        <ele>399.4</ele>
        <time>2022-08-24T06:08:48Z</time>
      </trkpt>
      <trkpt lat="43.79205" lon="5.61142">
        <ele>399.4</ele>
        <time>2022-08-24T06:08:49Z</time>
      </trkpt>
      <trkpt lat="43.79203" lon="5.61135">
        <ele>399.3</ele>
        <time>2022-08-24T06:08:50Z</time>
      </trkpt>
      <trkpt lat="43.79202" lon="5.61129">
        <ele>399.2</ele>
        <time>2022-08-24T06:08:51Z</time>
      </trkpt>
      <trkpt lat="43.792" lon="5.61122">
        <ele>399.1</ele>
        <time>2022-08-24T06:08:52Z</time>
      </trkpt>
      <trkpt lat="43.79199" lon="5.61113">
        <ele>399</ele>
        <time>2022-08-24T06:08:53Z</time>
      </trkpt>
      <trkpt lat="43.79197" lon="5.61106">
        <ele>398.9</ele>
        <time>2022-08-24T06:08:54Z</time>
      </trkpt>
      <trkpt lat="43.79195" lon="5.61098">
        <ele>398.9</ele>
        <time>2022-08-24T06:08:55Z</time>
      </trkpt>
      <trkpt lat="43.79193" lon="5.6109">
        <ele>398.9</ele>
        <time>2022-08-24T06:08:56Z</time>
      </trkpt>
      <trkpt lat="43.79189" lon="5.61082">
        <ele>398.6</ele>
        <time>2022-08-24T06:08:57Z</time>
      </trkpt>
      <trkpt lat="43.79181" lon="5.61074">
        <ele>397.1</ele>
        <time>2022-08-24T06:08:59Z</time>
      </trkpt>
      <trkpt lat="43.79176" lon="5.61065">
        <ele>396.3</ele>
        <time>2022-08-24T06:09:00Z</time>
      </trkpt>
      <trkpt lat="43.79172" lon="5.61061">
        <ele>396.5</ele>
        <time>2022-08-24T06:09:01Z</time>
      </trkpt>
      <trkpt lat="43.79167" lon="5.61057">
        <ele>397</ele>
        <time>2022-08-24T06:09:02Z</time>
      </trkpt>
      <trkpt lat="43.7916" lon="5.61053">
        <ele>396.4</ele>
        <time>2022-08-24T06:09:03Z</time>
      </trkpt>
      <trkpt lat="43.79155" lon="5.61048">
        <ele>395.5</ele>
        <time>2022-08-24T06:09:04Z</time>
      </trkpt>
      <trkpt lat="43.7915" lon="5.61043">
        <ele>395</ele>
        <time>2022-08-24T06:09:05Z</time>
      </trkpt>
      <trkpt lat="43.79144" lon="5.61038">
        <ele>394.6</ele>
        <time>2022-08-24T06:09:06Z</time>
      </trkpt>
      <trkpt lat="43.79139" lon="5.61032">
        <ele>394.5</ele>
        <time>2022-08-24T06:09:07Z</time>
      </trkpt>
      <trkpt lat="43.79133" lon="5.61027">
        <ele>394.3</ele>
        <time>2022-08-24T06:09:08Z</time>
      </trkpt>
      <trkpt lat="43.79127" lon="5.61021">
        <ele>393.7</ele>
        <time>2022-08-24T06:09:09Z</time>
      </trkpt>
      <trkpt lat="43.79121" lon="5.61015">
        <ele>393.3</ele>
        <time>2022-08-24T06:09:10Z</time>
      </trkpt>
      <trkpt lat="43.79116" lon="5.61009">
        <ele>393.2</ele>
        <time>2022-08-24T06:09:11Z</time>
      </trkpt>
      <trkpt lat="43.7911" lon="5.61003">
        <ele>393.4</ele>
        <time>2022-08-24T06:09:12Z</time>
      </trkpt>
      <trkpt lat="43.79105" lon="5.60996">
        <ele>392.8</ele>
        <time>2022-08-24T06:09:13Z</time>
      </trkpt>
      <trkpt lat="43.791" lon="5.6099">
        <ele>392.4</ele>
        <time>2022-08-24T06:09:14Z</time>
      </trkpt>
      <trkpt lat="43.79097" lon="5.60982">
        <ele>392</ele>
        <time>2022-08-24T06:09:15Z</time>
      </trkpt>
      <trkpt lat="43.79094" lon="5.60973">
        <ele>391.5</ele>
        <time>2022-08-24T06:09:16Z</time>
      </trkpt>
      <trkpt lat="43.79091" lon="5.60967">
        <ele>391.5</ele>
        <time>2022-08-24T06:09:17Z</time>
      </trkpt>
      <trkpt lat="43.79087" lon="5.6096">
        <ele>391.4</ele>
        <time>2022-08-24T06:09:18Z</time>
      </trkpt>
      <trkpt lat="43.79083" lon="5.60955">
        <ele>391.7</ele>
        <time>2022-08-24T06:09:19Z</time>
      </trkpt>
      <trkpt lat="43.79077" lon="5.60953">
        <ele>391.4</ele>
        <time>2022-08-24T06:09:20Z</time>
      </trkpt>
      <trkpt lat="43.79071" lon="5.60953">
        <ele>391.2</ele>
        <time>2022-08-24T06:09:21Z</time>
      </trkpt>
      <trkpt lat="43.79065" lon="5.60953">
        <ele>390.9</ele>
        <time>2022-08-24T06:09:22Z</time>
      </trkpt>
      <trkpt lat="43.79059" lon="5.60952">
        <ele>390.7</ele>
        <time>2022-08-24T06:09:23Z</time>
      </trkpt>
      <trkpt lat="43.79052" lon="5.60952">
        <ele>390.5</ele>
        <time>2022-08-24T06:09:24Z</time>
      </trkpt>
      <trkpt lat="43.79045" lon="5.60949">
        <ele>390.3</ele>
        <time>2022-08-24T06:09:25Z</time>
      </trkpt>
      <trkpt lat="43.79038" lon="5.60947">
        <ele>390.2</ele>
        <time>2022-08-24T06:09:26Z</time>
      </trkpt>
      <trkpt lat="43.79033" lon="5.60944">
        <ele>390</ele>
        <time>2022-08-24T06:09:27Z</time>
      </trkpt>
      <trkpt lat="43.79027" lon="5.60941">
        <ele>389.9</ele>
        <time>2022-08-24T06:09:28Z</time>
      </trkpt>
      <trkpt lat="43.79021" lon="5.60937">
        <ele>389.9</ele>
        <time>2022-08-24T06:09:29Z</time>
      </trkpt>
      <trkpt lat="43.79015" lon="5.60933">
        <ele>389.9</ele>
        <time>2022-08-24T06:09:30Z</time>
      </trkpt>
      <trkpt lat="43.79008" lon="5.60931">
        <ele>389.9</ele>
        <time>2022-08-24T06:09:31Z</time>
      </trkpt>
      <trkpt lat="43.79002" lon="5.60928">
        <ele>389.8</ele>
        <time>2022-08-24T06:09:32Z</time>
      </trkpt>
      <trkpt lat="43.78996" lon="5.60924">
        <ele>389.6</ele>
        <time>2022-08-24T06:09:33Z</time>
      </trkpt>
      <trkpt lat="43.78989" lon="5.60922">
        <ele>389.4</ele>
        <time>2022-08-24T06:09:34Z</time>
      </trkpt>
      <trkpt lat="43.78983" lon="5.6092">
        <ele>389.3</ele>
        <time>2022-08-24T06:09:35Z</time>
      </trkpt>
      <trkpt lat="43.78977" lon="5.60917">
        <ele>389</ele>
        <time>2022-08-24T06:09:36Z</time>
      </trkpt>
      <trkpt lat="43.7897" lon="5.60915">
        <ele>388.8</ele>
        <time>2022-08-24T06:09:37Z</time>
      </trkpt>
      <trkpt lat="43.78964" lon="5.60912">
        <ele>388.3</ele>
        <time>2022-08-24T06:09:38Z</time>
      </trkpt>
      <trkpt lat="43.78957" lon="5.6091">
        <ele>387.9</ele>
        <time>2022-08-24T06:09:39Z</time>
      </trkpt>
      <trkpt lat="43.78951" lon="5.60907">
        <ele>387.7</ele>
        <time>2022-08-24T06:09:40Z</time>
      </trkpt>
      <trkpt lat="43.78945" lon="5.60901">
        <ele>387.6</ele>
        <time>2022-08-24T06:09:41Z</time>
      </trkpt>
      <trkpt lat="43.78939" lon="5.60894">
        <ele>387.4</ele>
        <time>2022-08-24T06:09:42Z</time>
      </trkpt>
      <trkpt lat="43.78936" lon="5.6089">
        <ele>387.3</ele>
        <time>2022-08-24T06:09:43Z</time>
      </trkpt>
      <trkpt lat="43.7893" lon="5.60885">
        <ele>387</ele>
        <time>2022-08-24T06:09:44Z</time>
      </trkpt>
      <trkpt lat="43.78926" lon="5.60878">
        <ele>386.8</ele>
        <time>2022-08-24T06:09:45Z</time>
      </trkpt>
      <trkpt lat="43.78922" lon="5.60874">
        <ele>386.7</ele>
        <time>2022-08-24T06:09:46Z</time>
      </trkpt>
      <trkpt lat="43.78916" lon="5.60869">
        <ele>386.7</ele>
        <time>2022-08-24T06:09:47Z</time>
      </trkpt>
      <trkpt lat="43.78912" lon="5.60864">
        <ele>386.4</ele>
        <time>2022-08-24T06:09:48Z</time>
      </trkpt>
      <trkpt lat="43.78907" lon="5.60858">
        <ele>386</ele>
        <time>2022-08-24T06:09:49Z</time>
      </trkpt>
      <trkpt lat="43.78902" lon="5.60851">
        <ele>385.4</ele>
        <time>2022-08-24T06:09:50Z</time>
      </trkpt>
      <trkpt lat="43.78897" lon="5.60844">
        <ele>385.1</ele>
        <time>2022-08-24T06:09:51Z</time>
      </trkpt>
      <trkpt lat="43.78892" lon="5.60835">
        <ele>385</ele>
        <time>2022-08-24T06:09:52Z</time>
      </trkpt>
      <trkpt lat="43.78888" lon="5.60828">
        <ele>384.9</ele>
        <time>2022-08-24T06:09:53Z</time>
      </trkpt>
      <trkpt lat="43.78883" lon="5.60821">
        <ele>384.4</ele>
        <time>2022-08-24T06:09:54Z</time>
      </trkpt>
      <trkpt lat="43.78878" lon="5.60814">
        <ele>383.9</ele>
        <time>2022-08-24T06:09:55Z</time>
      </trkpt>
      <trkpt lat="43.78874" lon="5.60808">
        <ele>383.4</ele>
        <time>2022-08-24T06:09:56Z</time>
      </trkpt>
      <trkpt lat="43.78869" lon="5.60802">
        <ele>382.9</ele>
        <time>2022-08-24T06:09:57Z</time>
      </trkpt>
      <trkpt lat="43.78864" lon="5.60795">
        <ele>382.6</ele>
        <time>2022-08-24T06:09:58Z</time>
      </trkpt>
      <trkpt lat="43.78858" lon="5.60793">
        <ele>382.4</ele>
        <time>2022-08-24T06:09:59Z</time>
      </trkpt>
      <trkpt lat="43.78852" lon="5.6079">
        <ele>382.4</ele>
        <time>2022-08-24T06:10:00Z</time>
      </trkpt>
      <trkpt lat="43.78845" lon="5.60787">
        <ele>382.3</ele>
        <time>2022-08-24T06:10:01Z</time>
      </trkpt>
      <trkpt lat="43.7884" lon="5.60784">
        <ele>382.2</ele>
        <time>2022-08-24T06:10:02Z</time>
      </trkpt>
      <trkpt lat="43.78835" lon="5.60781">
        <ele>382</ele>
        <time>2022-08-24T06:10:03Z</time>
      </trkpt>
      <trkpt lat="43.7883" lon="5.60777">
        <ele>381.9</ele>
        <time>2022-08-24T06:10:04Z</time>
      </trkpt>
      <trkpt lat="43.78825" lon="5.60772">
        <ele>381.7</ele>
        <time>2022-08-24T06:10:05Z</time>
      </trkpt>
      <trkpt lat="43.7882" lon="5.60767">
        <ele>381.5</ele>
        <time>2022-08-24T06:10:06Z</time>
      </trkpt>
      <trkpt lat="43.78819" lon="5.6076">
        <ele>381.5</ele>
        <time>2022-08-24T06:10:07Z</time>
      </trkpt>
      <trkpt lat="43.78819" lon="5.60753">
        <ele>381.5</ele>
        <time>2022-08-24T06:10:08Z</time>
      </trkpt>
      <trkpt lat="43.7882" lon="5.60744">
        <ele>381.5</ele>
        <time>2022-08-24T06:10:09Z</time>
      </trkpt>
      <trkpt lat="43.78821" lon="5.60735">
        <ele>381.6</ele>
        <time>2022-08-24T06:10:10Z</time>
      </trkpt>
      <trkpt lat="43.78823" lon="5.60727">
        <ele>381.6</ele>
        <time>2022-08-24T06:10:11Z</time>
      </trkpt>
      <trkpt lat="43.78825" lon="5.60718">
        <ele>381.6</ele>
        <time>2022-08-24T06:10:12Z</time>
      </trkpt>
      <trkpt lat="43.78827" lon="5.6071">
        <ele>381.6</ele>
        <time>2022-08-24T06:10:13Z</time>
      </trkpt>
      <trkpt lat="43.78828" lon="5.60702">
        <ele>381.7</ele>
        <time>2022-08-24T06:10:14Z</time>
      </trkpt>
      <trkpt lat="43.7883" lon="5.60694">
        <ele>381.7</ele>
        <time>2022-08-24T06:10:15Z</time>
      </trkpt>
      <trkpt lat="43.78832" lon="5.60685">
        <ele>381.2</ele>
        <time>2022-08-24T06:10:16Z</time>
      </trkpt>
      <trkpt lat="43.78835" lon="5.60678">
        <ele>380.9</ele>
        <time>2022-08-24T06:10:17Z</time>
      </trkpt>
      <trkpt lat="43.78837" lon="5.6067">
        <ele>380.5</ele>
        <time>2022-08-24T06:10:18Z</time>
      </trkpt>
      <trkpt lat="43.7884" lon="5.60662">
        <ele>380.5</ele>
        <time>2022-08-24T06:10:19Z</time>
      </trkpt>
      <trkpt lat="43.78844" lon="5.60654">
        <ele>380.7</ele>
        <time>2022-08-24T06:10:20Z</time>
      </trkpt>
      <trkpt lat="43.78848" lon="5.60646">
        <ele>380.6</ele>
        <time>2022-08-24T06:10:21Z</time>
      </trkpt>
      <trkpt lat="43.78853" lon="5.60638">
        <ele>380.2</ele>
        <time>2022-08-24T06:10:22Z</time>
      </trkpt>
      <trkpt lat="43.78857" lon="5.60632">
        <ele>379.7</ele>
        <time>2022-08-24T06:10:23Z</time>
      </trkpt>
      <trkpt lat="43.78863" lon="5.60625">
        <ele>379</ele>
        <time>2022-08-24T06:10:24Z</time>
      </trkpt>
      <trkpt lat="43.7887" lon="5.6062">
        <ele>378.7</ele>
        <time>2022-08-24T06:10:25Z</time>
      </trkpt>
      <trkpt lat="43.78877" lon="5.60615">
        <ele>378.3</ele>
        <time>2022-08-24T06:10:26Z</time>
      </trkpt>
      <trkpt lat="43.78883" lon="5.6061">
        <ele>377.8</ele>
        <time>2022-08-24T06:10:27Z</time>
      </trkpt>
      <trkpt lat="43.78891" lon="5.60605">
        <ele>377.4</ele>
        <time>2022-08-24T06:10:28Z</time>
      </trkpt>
      <trkpt lat="43.78898" lon="5.60602">
        <ele>377.2</ele>
        <time>2022-08-24T06:10:29Z</time>
      </trkpt>
      <trkpt lat="43.78906" lon="5.60598">
        <ele>376.9</ele>
        <time>2022-08-24T06:10:30Z</time>
      </trkpt>
      <trkpt lat="43.78913" lon="5.60595">
        <ele>376.6</ele>
        <time>2022-08-24T06:10:31Z</time>
      </trkpt>
      <trkpt lat="43.7892" lon="5.60592">
        <ele>376.3</ele>
        <time>2022-08-24T06:10:32Z</time>
      </trkpt>
      <trkpt lat="43.78928" lon="5.60589">
        <ele>376</ele>
        <time>2022-08-24T06:10:33Z</time>
      </trkpt>
      <trkpt lat="43.78936" lon="5.60587">
        <ele>375.6</ele>
        <time>2022-08-24T06:10:34Z</time>
      </trkpt>
      <trkpt lat="43.78943" lon="5.60584">
        <ele>375</ele>
        <time>2022-08-24T06:10:35Z</time>
      </trkpt>
      <trkpt lat="43.78951" lon="5.6058">
        <ele>374.2</ele>
        <time>2022-08-24T06:10:36Z</time>
      </trkpt>
      <trkpt lat="43.78959" lon="5.60578">
        <ele>373.4</ele>
        <time>2022-08-24T06:10:37Z</time>
      </trkpt>
      <trkpt lat="43.78967" lon="5.60575">
        <ele>372.7</ele>
        <time>2022-08-24T06:10:38Z</time>
      </trkpt>
      <trkpt lat="43.78975" lon="5.60572">
        <ele>371.9</ele>
        <time>2022-08-24T06:10:39Z</time>
      </trkpt>
      <trkpt lat="43.78983" lon="5.6057">
        <ele>371.1</ele>
        <time>2022-08-24T06:10:40Z</time>
      </trkpt>
      <trkpt lat="43.78991" lon="5.60567">
        <ele>370.3</ele>
        <time>2022-08-24T06:10:41Z</time>
      </trkpt>
      <trkpt lat="43.78998" lon="5.60565">
        <ele>369.8</ele>
        <time>2022-08-24T06:10:42Z</time>
      </trkpt>
      <trkpt lat="43.79005" lon="5.6056">
        <ele>370.3</ele>
        <time>2022-08-24T06:10:43Z</time>
      </trkpt>
      <trkpt lat="43.79012" lon="5.60556">
        <ele>371.2</ele>
        <time>2022-08-24T06:10:44Z</time>
      </trkpt>
      <trkpt lat="43.79018" lon="5.60551">
        <ele>371.8</ele>
        <time>2022-08-24T06:10:45Z</time>
      </trkpt>
      <trkpt lat="43.79025" lon="5.60545">
        <ele>372.3</ele>
        <time>2022-08-24T06:10:46Z</time>
      </trkpt>
      <trkpt lat="43.79031" lon="5.60538">
        <ele>372.4</ele>
        <time>2022-08-24T06:10:47Z</time>
      </trkpt>
      <trkpt lat="43.79036" lon="5.6053">
        <ele>372.3</ele>
        <time>2022-08-24T06:10:48Z</time>
      </trkpt>
      <trkpt lat="43.79041" lon="5.60522">
        <ele>372.4</ele>
        <time>2022-08-24T06:10:49Z</time>
      </trkpt>
      <trkpt lat="43.79044" lon="5.60514">
        <ele>372.4</ele>
        <time>2022-08-24T06:10:50Z</time>
      </trkpt>
      <trkpt lat="43.79047" lon="5.60506">
        <ele>372.5</ele>
        <time>2022-08-24T06:10:51Z</time>
      </trkpt>
      <trkpt lat="43.7905" lon="5.60496">
        <ele>372.6</ele>
        <time>2022-08-24T06:10:52Z</time>
      </trkpt>
      <trkpt lat="43.79053" lon="5.60487">
        <ele>372.8</ele>
        <time>2022-08-24T06:10:53Z</time>
      </trkpt>
      <trkpt lat="43.79055" lon="5.60479">
        <ele>373</ele>
        <time>2022-08-24T06:10:54Z</time>
      </trkpt>
      <trkpt lat="43.79057" lon="5.60471">
        <ele>373</ele>
        <time>2022-08-24T06:10:55Z</time>
      </trkpt>
      <trkpt lat="43.7906" lon="5.60463">
        <ele>372.7</ele>
        <time>2022-08-24T06:10:56Z</time>
      </trkpt>
      <trkpt lat="43.79062" lon="5.60454">
        <ele>372.5</ele>
        <time>2022-08-24T06:10:57Z</time>
      </trkpt>
      <trkpt lat="43.79065" lon="5.60445">
        <ele>372.3</ele>
        <time>2022-08-24T06:10:58Z</time>
      </trkpt>
      <trkpt lat="43.79067" lon="5.60437">
        <ele>372.4</ele>
        <time>2022-08-24T06:10:59Z</time>
      </trkpt>
      <trkpt lat="43.79069" lon="5.60429">
        <ele>372.5</ele>
        <time>2022-08-24T06:11:00Z</time>
      </trkpt>
      <trkpt lat="43.79071" lon="5.6042">
        <ele>372.6</ele>
        <time>2022-08-24T06:11:01Z</time>
      </trkpt>
      <trkpt lat="43.79073" lon="5.60412">
        <ele>372.6</ele>
        <time>2022-08-24T06:11:02Z</time>
      </trkpt>
      <trkpt lat="43.79074" lon="5.60404">
        <ele>372.7</ele>
        <time>2022-08-24T06:11:03Z</time>
      </trkpt>
      <trkpt lat="43.79076" lon="5.60396">
        <ele>372.7</ele>
        <time>2022-08-24T06:11:04Z</time>
      </trkpt>
      <trkpt lat="43.79079" lon="5.60388">
        <ele>372.9</ele>
        <time>2022-08-24T06:11:05Z</time>
      </trkpt>
      <trkpt lat="43.7908" lon="5.60381">
        <ele>373.2</ele>
        <time>2022-08-24T06:11:06Z</time>
      </trkpt>
      <trkpt lat="43.79083" lon="5.60373">
        <ele>373.5</ele>
        <time>2022-08-24T06:11:07Z</time>
      </trkpt>
      <trkpt lat="43.79084" lon="5.60364">
        <ele>373.9</ele>
        <time>2022-08-24T06:11:08Z</time>
      </trkpt>
      <trkpt lat="43.79086" lon="5.60357">
        <ele>373.9</ele>
        <time>2022-08-24T06:11:09Z</time>
      </trkpt>
      <trkpt lat="43.79087" lon="5.60349">
        <ele>373.7</ele>
        <time>2022-08-24T06:11:10Z</time>
      </trkpt>
      <trkpt lat="43.7909" lon="5.60342">
        <ele>373.7</ele>
        <time>2022-08-24T06:11:11Z</time>
      </trkpt>
      <trkpt lat="43.79092" lon="5.60334">
        <ele>373.6</ele>
        <time>2022-08-24T06:11:12Z</time>
      </trkpt>
      <trkpt lat="43.79094" lon="5.60327">
        <ele>373.7</ele>
        <time>2022-08-24T06:11:13Z</time>
      </trkpt>
      <trkpt lat="43.79096" lon="5.60319">
        <ele>373.9</ele>
        <time>2022-08-24T06:11:14Z</time>
      </trkpt>
      <trkpt lat="43.79099" lon="5.60312">
        <ele>374.1</ele>
        <time>2022-08-24T06:11:15Z</time>
      </trkpt>
      <trkpt lat="43.791" lon="5.60304">
        <ele>374.2</ele>
        <time>2022-08-24T06:11:16Z</time>
      </trkpt>
      <trkpt lat="43.79102" lon="5.60297">
        <ele>374.5</ele>
        <time>2022-08-24T06:11:17Z</time>
      </trkpt>
      <trkpt lat="43.79104" lon="5.6029">
        <ele>374.9</ele>
        <time>2022-08-24T06:11:18Z</time>
      </trkpt>
      <trkpt lat="43.79105" lon="5.60283">
        <ele>375.2</ele>
        <time>2022-08-24T06:11:19Z</time>
      </trkpt>
      <trkpt lat="43.79106" lon="5.60275">
        <ele>375.4</ele>
        <time>2022-08-24T06:11:20Z</time>
      </trkpt>
      <trkpt lat="43.79108" lon="5.60268">
        <ele>375.6</ele>
        <time>2022-08-24T06:11:21Z</time>
      </trkpt>
      <trkpt lat="43.7911" lon="5.60261">
        <ele>375.8</ele>
        <time>2022-08-24T06:11:22Z</time>
      </trkpt>
      <trkpt lat="43.79112" lon="5.60254">
        <ele>376</ele>
        <time>2022-08-24T06:11:23Z</time>
      </trkpt>
      <trkpt lat="43.79113" lon="5.60246">
        <ele>375.9</ele>
        <time>2022-08-24T06:11:24Z</time>
      </trkpt>
      <trkpt lat="43.79114" lon="5.60239">
        <ele>375.8</ele>
        <time>2022-08-24T06:11:25Z</time>
      </trkpt>
      <trkpt lat="43.79117" lon="5.60231">
        <ele>375.8</ele>
        <time>2022-08-24T06:11:26Z</time>
      </trkpt>
      <trkpt lat="43.79119" lon="5.60224">
        <ele>375.9</ele>
        <time>2022-08-24T06:11:27Z</time>
      </trkpt>
      <trkpt lat="43.7912" lon="5.60217">
        <ele>375.9</ele>
        <time>2022-08-24T06:11:28Z</time>
      </trkpt>
      <trkpt lat="43.79122" lon="5.60209">
        <ele>376</ele>
        <time>2022-08-24T06:11:29Z</time>
      </trkpt>
      <trkpt lat="43.79124" lon="5.60201">
        <ele>376</ele>
        <time>2022-08-24T06:11:30Z</time>
      </trkpt>
      <trkpt lat="43.79127" lon="5.60194">
        <ele>376.1</ele>
        <time>2022-08-24T06:11:31Z</time>
      </trkpt>
      <trkpt lat="43.79128" lon="5.60186">
        <ele>375.9</ele>
        <time>2022-08-24T06:11:32Z</time>
      </trkpt>
      <trkpt lat="43.79129" lon="5.60178">
        <ele>375.7</ele>
        <time>2022-08-24T06:11:33Z</time>
      </trkpt>
      <trkpt lat="43.79132" lon="5.60173">
        <ele>375.7</ele>
        <time>2022-08-24T06:11:34Z</time>
      </trkpt>
      <trkpt lat="43.79133" lon="5.60165">
        <ele>375.6</ele>
        <time>2022-08-24T06:11:35Z</time>
      </trkpt>
      <trkpt lat="43.79135" lon="5.60158">
        <ele>376</ele>
        <time>2022-08-24T06:11:36Z</time>
      </trkpt>
      <trkpt lat="43.79137" lon="5.6015">
        <ele>376.4</ele>
        <time>2022-08-24T06:11:37Z</time>
      </trkpt>
      <trkpt lat="43.79139" lon="5.60143">
        <ele>376.8</ele>
        <time>2022-08-24T06:11:38Z</time>
      </trkpt>
      <trkpt lat="43.79141" lon="5.60137">
        <ele>377.2</ele>
        <time>2022-08-24T06:11:39Z</time>
      </trkpt>
      <trkpt lat="43.79142" lon="5.60129">
        <ele>377.6</ele>
        <time>2022-08-24T06:11:40Z</time>
      </trkpt>
      <trkpt lat="43.79144" lon="5.60122">
        <ele>378</ele>
        <time>2022-08-24T06:11:41Z</time>
      </trkpt>
      <trkpt lat="43.79147" lon="5.60115">
        <ele>378.5</ele>
        <time>2022-08-24T06:11:43Z</time>
      </trkpt>
      <trkpt lat="43.79149" lon="5.60103">
        <ele>378.5</ele>
        <time>2022-08-24T06:11:45Z</time>
      </trkpt>
      <trkpt lat="43.79152" lon="5.6009">
        <ele>378.2</ele>
        <time>2022-08-24T06:11:47Z</time>
      </trkpt>
      <trkpt lat="43.79154" lon="5.60083">
        <ele>378</ele>
        <time>2022-08-24T06:11:48Z</time>
      </trkpt>
      <trkpt lat="43.79155" lon="5.60076">
        <ele>377.9</ele>
        <time>2022-08-24T06:11:49Z</time>
      </trkpt>
      <trkpt lat="43.79158" lon="5.60069">
        <ele>377.8</ele>
        <time>2022-08-24T06:11:50Z</time>
      </trkpt>
      <trkpt lat="43.7916" lon="5.60061">
        <ele>377.8</ele>
        <time>2022-08-24T06:11:51Z</time>
      </trkpt>
      <trkpt lat="43.79162" lon="5.60055">
        <ele>377.8</ele>
        <time>2022-08-24T06:11:52Z</time>
      </trkpt>
      <trkpt lat="43.79165" lon="5.60048">
        <ele>377.9</ele>
        <time>2022-08-24T06:11:53Z</time>
      </trkpt>
      <trkpt lat="43.79165" lon="5.60042">
        <ele>378</ele>
        <time>2022-08-24T06:11:54Z</time>
      </trkpt>
      <trkpt lat="43.79167" lon="5.60035">
        <ele>378</ele>
        <time>2022-08-24T06:11:55Z</time>
      </trkpt>
      <trkpt lat="43.79169" lon="5.60027">
        <ele>378.2</ele>
        <time>2022-08-24T06:11:56Z</time>
      </trkpt>
      <trkpt lat="43.79171" lon="5.60019">
        <ele>378.4</ele>
        <time>2022-08-24T06:11:57Z</time>
      </trkpt>
      <trkpt lat="43.79173" lon="5.60011">
        <ele>378.5</ele>
        <time>2022-08-24T06:11:58Z</time>
      </trkpt>
      <trkpt lat="43.79174" lon="5.60005">
        <ele>378.6</ele>
        <time>2022-08-24T06:11:59Z</time>
      </trkpt>
      <trkpt lat="43.79176" lon="5.59998">
        <ele>378.6</ele>
        <time>2022-08-24T06:12:00Z</time>
      </trkpt>
      <trkpt lat="43.79179" lon="5.59986">
        <ele>378.6</ele>
        <time>2022-08-24T06:12:02Z</time>
      </trkpt>
      <trkpt lat="43.79179" lon="5.59978">
        <ele>378.5</ele>
        <time>2022-08-24T06:12:03Z</time>
      </trkpt>
      <trkpt lat="43.79181" lon="5.59971">
        <ele>378.5</ele>
        <time>2022-08-24T06:12:04Z</time>
      </trkpt>
      <trkpt lat="43.79182" lon="5.59963">
        <ele>378.5</ele>
        <time>2022-08-24T06:12:05Z</time>
      </trkpt>
      <trkpt lat="43.79184" lon="5.59956">
        <ele>378.5</ele>
        <time>2022-08-24T06:12:06Z</time>
      </trkpt>
      <trkpt lat="43.79184" lon="5.59948">
        <ele>378.4</ele>
        <time>2022-08-24T06:12:07Z</time>
      </trkpt>
      <trkpt lat="43.79187" lon="5.59942">
        <ele>378.4</ele>
        <time>2022-08-24T06:12:08Z</time>
      </trkpt>
      <trkpt lat="43.79189" lon="5.59935">
        <ele>378.5</ele>
        <time>2022-08-24T06:12:09Z</time>
      </trkpt>
      <trkpt lat="43.7919" lon="5.59926">
        <ele>378.6</ele>
        <time>2022-08-24T06:12:10Z</time>
      </trkpt>
      <trkpt lat="43.79192" lon="5.5992">
        <ele>378.7</ele>
        <time>2022-08-24T06:12:11Z</time>
      </trkpt>
      <trkpt lat="43.79194" lon="5.59913">
        <ele>378.8</ele>
        <time>2022-08-24T06:12:12Z</time>
      </trkpt>
      <trkpt lat="43.79196" lon="5.59906">
        <ele>378.8</ele>
        <time>2022-08-24T06:12:13Z</time>
      </trkpt>
      <trkpt lat="43.79198" lon="5.59899">
        <ele>378.7</ele>
        <time>2022-08-24T06:12:14Z</time>
      </trkpt>
      <trkpt lat="43.79199" lon="5.59892">
        <ele>378.6</ele>
        <time>2022-08-24T06:12:15Z</time>
      </trkpt>
      <trkpt lat="43.79201" lon="5.59884">
        <ele>378.9</ele>
        <time>2022-08-24T06:12:16Z</time>
      </trkpt>
      <trkpt lat="43.79203" lon="5.59877">
        <ele>379.2</ele>
        <time>2022-08-24T06:12:17Z</time>
      </trkpt>
      <trkpt lat="43.79205" lon="5.59868">
        <ele>379.6</ele>
        <time>2022-08-24T06:12:18Z</time>
      </trkpt>
      <trkpt lat="43.79206" lon="5.5986">
        <ele>379.8</ele>
        <time>2022-08-24T06:12:19Z</time>
      </trkpt>
      <trkpt lat="43.79208" lon="5.59854">
        <ele>379.7</ele>
        <time>2022-08-24T06:12:20Z</time>
      </trkpt>
      <trkpt lat="43.79209" lon="5.59848">
        <ele>379.6</ele>
        <time>2022-08-24T06:12:21Z</time>
      </trkpt>
      <trkpt lat="43.7921" lon="5.5984">
        <ele>379.4</ele>
        <time>2022-08-24T06:12:22Z</time>
      </trkpt>
      <trkpt lat="43.79213" lon="5.59833">
        <ele>379.3</ele>
        <time>2022-08-24T06:12:23Z</time>
      </trkpt>
      <trkpt lat="43.79215" lon="5.59827">
        <ele>379.4</ele>
        <time>2022-08-24T06:12:24Z</time>
      </trkpt>
      <trkpt lat="43.79216" lon="5.59821">
        <ele>379.6</ele>
        <time>2022-08-24T06:12:25Z</time>
      </trkpt>
      <trkpt lat="43.79218" lon="5.59814">
        <ele>379.7</ele>
        <time>2022-08-24T06:12:26Z</time>
      </trkpt>
      <trkpt lat="43.79219" lon="5.59807">
        <ele>379.8</ele>
        <time>2022-08-24T06:12:27Z</time>
      </trkpt>
      <trkpt lat="43.79222" lon="5.59801">
        <ele>380</ele>
        <time>2022-08-24T06:12:28Z</time>
      </trkpt>
      <trkpt lat="43.79224" lon="5.59794">
        <ele>380.2</ele>
        <time>2022-08-24T06:12:29Z</time>
      </trkpt>
      <trkpt lat="43.79225" lon="5.59787">
        <ele>380.4</ele>
        <time>2022-08-24T06:12:30Z</time>
      </trkpt>
      <trkpt lat="43.79226" lon="5.59781">
        <ele>380.5</ele>
        <time>2022-08-24T06:12:31Z</time>
      </trkpt>
      <trkpt lat="43.79227" lon="5.59774">
        <ele>380.7</ele>
        <time>2022-08-24T06:12:32Z</time>
      </trkpt>
      <trkpt lat="43.79228" lon="5.59767">
        <ele>380.9</ele>
        <time>2022-08-24T06:12:33Z</time>
      </trkpt>
      <trkpt lat="43.79229" lon="5.5976">
        <ele>381</ele>
        <time>2022-08-24T06:12:34Z</time>
      </trkpt>
      <trkpt lat="43.79229" lon="5.59752">
        <ele>381</ele>
        <time>2022-08-24T06:12:35Z</time>
      </trkpt>
      <trkpt lat="43.79229" lon="5.59745">
        <ele>381</ele>
        <time>2022-08-24T06:12:36Z</time>
      </trkpt>
      <trkpt lat="43.7923" lon="5.59737">
        <ele>381.1</ele>
        <time>2022-08-24T06:12:37Z</time>
      </trkpt>
      <trkpt lat="43.79229" lon="5.5973">
        <ele>381</ele>
        <time>2022-08-24T06:12:38Z</time>
      </trkpt>
      <trkpt lat="43.79229" lon="5.59723">
        <ele>381</ele>
        <time>2022-08-24T06:12:39Z</time>
      </trkpt>
      <trkpt lat="43.79228" lon="5.59714">
        <ele>380.8</ele>
        <time>2022-08-24T06:12:40Z</time>
      </trkpt>
      <trkpt lat="43.79227" lon="5.59707">
        <ele>380.6</ele>
        <time>2022-08-24T06:12:41Z</time>
      </trkpt>
      <trkpt lat="43.79226" lon="5.597">
        <ele>380.4</ele>
        <time>2022-08-24T06:12:42Z</time>
      </trkpt>
      <trkpt lat="43.79225" lon="5.59692">
        <ele>380.3</ele>
        <time>2022-08-24T06:12:43Z</time>
      </trkpt>
      <trkpt lat="43.79224" lon="5.59684">
        <ele>380.1</ele>
        <time>2022-08-24T06:12:44Z</time>
      </trkpt>
      <trkpt lat="43.79223" lon="5.59676">
        <ele>380</ele>
        <time>2022-08-24T06:12:45Z</time>
      </trkpt>
      <trkpt lat="43.79221" lon="5.59669">
        <ele>379.9</ele>
        <time>2022-08-24T06:12:46Z</time>
      </trkpt>
      <trkpt lat="43.79219" lon="5.5966">
        <ele>379.9</ele>
        <time>2022-08-24T06:12:47Z</time>
      </trkpt>
      <trkpt lat="43.79219" lon="5.59652">
        <ele>380.1</ele>
        <time>2022-08-24T06:12:48Z</time>
      </trkpt>
      <trkpt lat="43.79219" lon="5.59645">
        <ele>380.3</ele>
        <time>2022-08-24T06:12:49Z</time>
      </trkpt>
      <trkpt lat="43.79218" lon="5.59638">
        <ele>380.3</ele>
        <time>2022-08-24T06:12:50Z</time>
      </trkpt>
      <trkpt lat="43.79216" lon="5.59629">
        <ele>379.9</ele>
        <time>2022-08-24T06:12:51Z</time>
      </trkpt>
      <trkpt lat="43.79215" lon="5.59622">
        <ele>379.5</ele>
        <time>2022-08-24T06:12:52Z</time>
      </trkpt>
      <trkpt lat="43.79213" lon="5.59613">
        <ele>379.1</ele>
        <time>2022-08-24T06:12:53Z</time>
      </trkpt>
      <trkpt lat="43.79212" lon="5.59606">
        <ele>378.9</ele>
        <time>2022-08-24T06:12:54Z</time>
      </trkpt>
      <trkpt lat="43.7921" lon="5.59598">
        <ele>378.7</ele>
        <time>2022-08-24T06:12:55Z</time>
      </trkpt>
      <trkpt lat="43.79209" lon="5.5959">
        <ele>378.6</ele>
        <time>2022-08-24T06:12:56Z</time>
      </trkpt>
      <trkpt lat="43.79208" lon="5.59583">
        <ele>378.4</ele>
        <time>2022-08-24T06:12:57Z</time>
      </trkpt>
      <trkpt lat="43.79206" lon="5.59574">
        <ele>378.6</ele>
        <time>2022-08-24T06:12:58Z</time>
      </trkpt>
      <trkpt lat="43.79205" lon="5.59566">
        <ele>378.7</ele>
        <time>2022-08-24T06:12:59Z</time>
      </trkpt>
      <trkpt lat="43.79204" lon="5.59558">
        <ele>378.9</ele>
        <time>2022-08-24T06:13:00Z</time>
      </trkpt>
      <trkpt lat="43.79202" lon="5.5955">
        <ele>379</ele>
        <time>2022-08-24T06:13:01Z</time>
      </trkpt>
      <trkpt lat="43.79201" lon="5.59541">
        <ele>379.1</ele>
        <time>2022-08-24T06:13:02Z</time>
      </trkpt>
      <trkpt lat="43.79197" lon="5.59516">
        <ele>379.2</ele>
        <time>2022-08-24T06:13:05Z</time>
      </trkpt>
      <trkpt lat="43.79196" lon="5.59509">
        <ele>379.1</ele>
        <time>2022-08-24T06:13:06Z</time>
      </trkpt>
      <trkpt lat="43.79194" lon="5.595">
        <ele>379</ele>
        <time>2022-08-24T06:13:07Z</time>
      </trkpt>
      <trkpt lat="43.79193" lon="5.59492">
        <ele>379.2</ele>
        <time>2022-08-24T06:13:08Z</time>
      </trkpt>
      <trkpt lat="43.79192" lon="5.59485">
        <ele>379.4</ele>
        <time>2022-08-24T06:13:09Z</time>
      </trkpt>
      <trkpt lat="43.7919" lon="5.59477">
        <ele>379.5</ele>
        <time>2022-08-24T06:13:10Z</time>
      </trkpt>
      <trkpt lat="43.79189" lon="5.59468">
        <ele>379.6</ele>
        <time>2022-08-24T06:13:11Z</time>
      </trkpt>
      <trkpt lat="43.79186" lon="5.5946">
        <ele>379.4</ele>
        <time>2022-08-24T06:13:12Z</time>
      </trkpt>
      <trkpt lat="43.79184" lon="5.59452">
        <ele>379.3</ele>
        <time>2022-08-24T06:13:13Z</time>
      </trkpt>
      <trkpt lat="43.79182" lon="5.59443">
        <ele>379.2</ele>
        <time>2022-08-24T06:13:14Z</time>
      </trkpt>
      <trkpt lat="43.79181" lon="5.59436">
        <ele>379.3</ele>
        <time>2022-08-24T06:13:15Z</time>
      </trkpt>
      <trkpt lat="43.79178" lon="5.59429">
        <ele>379.3</ele>
        <time>2022-08-24T06:13:16Z</time>
      </trkpt>
      <trkpt lat="43.79175" lon="5.59421">
        <ele>379.1</ele>
        <time>2022-08-24T06:13:17Z</time>
      </trkpt>
      <trkpt lat="43.79173" lon="5.59413">
        <ele>378.9</ele>
        <time>2022-08-24T06:13:18Z</time>
      </trkpt>
      <trkpt lat="43.7917" lon="5.59404">
        <ele>378.6</ele>
        <time>2022-08-24T06:13:19Z</time>
      </trkpt>
      <trkpt lat="43.79167" lon="5.59396">
        <ele>378</ele>
        <time>2022-08-24T06:13:20Z</time>
      </trkpt>
      <trkpt lat="43.79164" lon="5.59388">
        <ele>378.1</ele>
        <time>2022-08-24T06:13:21Z</time>
      </trkpt>
      <trkpt lat="43.79161" lon="5.59379">
        <ele>378.6</ele>
        <time>2022-08-24T06:13:22Z</time>
      </trkpt>
      <trkpt lat="43.79157" lon="5.59369">
        <ele>378.9</ele>
        <time>2022-08-24T06:13:23Z</time>
      </trkpt>
      <trkpt lat="43.79155" lon="5.59359">
        <ele>379.1</ele>
        <time>2022-08-24T06:13:24Z</time>
      </trkpt>
      <trkpt lat="43.79152" lon="5.5935">
        <ele>378.5</ele>
        <time>2022-08-24T06:13:25Z</time>
      </trkpt>
      <trkpt lat="43.79151" lon="5.59339">
        <ele>378</ele>
        <time>2022-08-24T06:13:26Z</time>
      </trkpt>
      <trkpt lat="43.7915" lon="5.59329">
        <ele>377.1</ele>
        <time>2022-08-24T06:13:27Z</time>
      </trkpt>
      <trkpt lat="43.7915" lon="5.59316">
        <ele>375.6</ele>
        <time>2022-08-24T06:13:28Z</time>
      </trkpt>
      <trkpt lat="43.7915" lon="5.59304">
        <ele>374.3</ele>
        <time>2022-08-24T06:13:29Z</time>
      </trkpt>
      <trkpt lat="43.79152" lon="5.59294">
        <ele>373.8</ele>
        <time>2022-08-24T06:13:30Z</time>
      </trkpt>
      <trkpt lat="43.79153" lon="5.59281">
        <ele>373.2</ele>
        <time>2022-08-24T06:13:31Z</time>
      </trkpt>
      <trkpt lat="43.79154" lon="5.5927">
        <ele>372</ele>
        <time>2022-08-24T06:13:32Z</time>
      </trkpt>
      <trkpt lat="43.79156" lon="5.59259">
        <ele>370.7</ele>
        <time>2022-08-24T06:13:33Z</time>
      </trkpt>
      <trkpt lat="43.79157" lon="5.59248">
        <ele>369.5</ele>
        <time>2022-08-24T06:13:34Z</time>
      </trkpt>
      <trkpt lat="43.79159" lon="5.59237">
        <ele>368.6</ele>
        <time>2022-08-24T06:13:35Z</time>
      </trkpt>
      <trkpt lat="43.79161" lon="5.59226">
        <ele>367.8</ele>
        <time>2022-08-24T06:13:36Z</time>
      </trkpt>
      <trkpt lat="43.79162" lon="5.59216">
        <ele>368.3</ele>
        <time>2022-08-24T06:13:37Z</time>
      </trkpt>
      <trkpt lat="43.79162" lon="5.59204">
        <ele>369.5</ele>
        <time>2022-08-24T06:13:38Z</time>
      </trkpt>
      <trkpt lat="43.79163" lon="5.59196">
        <ele>370.4</ele>
        <time>2022-08-24T06:13:39Z</time>
      </trkpt>
      <trkpt lat="43.79162" lon="5.59187">
        <ele>370.9</ele>
        <time>2022-08-24T06:13:40Z</time>
      </trkpt>
      <trkpt lat="43.79162" lon="5.59178">
        <ele>371.3</ele>
        <time>2022-08-24T06:13:41Z</time>
      </trkpt>
      <trkpt lat="43.79162" lon="5.59171">
        <ele>371.6</ele>
        <time>2022-08-24T06:13:42Z</time>
      </trkpt>
      <trkpt lat="43.79161" lon="5.59158">
        <ele>373.1</ele>
        <time>2022-08-24T06:13:44Z</time>
      </trkpt>
      <trkpt lat="43.7916" lon="5.59151">
        <ele>374.2</ele>
        <time>2022-08-24T06:13:45Z</time>
      </trkpt>
      <trkpt lat="43.7916" lon="5.59144">
        <ele>375.2</ele>
        <time>2022-08-24T06:13:46Z</time>
      </trkpt>
      <trkpt lat="43.79159" lon="5.59138">
        <ele>376.3</ele>
        <time>2022-08-24T06:13:47Z</time>
      </trkpt>
      <trkpt lat="43.79157" lon="5.59125">
        <ele>378.4</ele>
        <time>2022-08-24T06:13:49Z</time>
      </trkpt>
      <trkpt lat="43.79156" lon="5.59112">
        <ele>380.2</ele>
        <time>2022-08-24T06:13:51Z</time>
      </trkpt>
      <trkpt lat="43.79155" lon="5.59106">
        <ele>380.5</ele>
        <time>2022-08-24T06:13:52Z</time>
      </trkpt>
      <trkpt lat="43.79155" lon="5.59093">
        <ele>380.9</ele>
        <time>2022-08-24T06:13:54Z</time>
      </trkpt>
      <trkpt lat="43.79155" lon="5.59085">
        <ele>381</ele>
        <time>2022-08-24T06:13:55Z</time>
      </trkpt>
      <trkpt lat="43.79154" lon="5.59078">
        <ele>381.2</ele>
        <time>2022-08-24T06:13:56Z</time>
      </trkpt>
      <trkpt lat="43.79153" lon="5.59072">
        <ele>381.4</ele>
        <time>2022-08-24T06:13:57Z</time>
      </trkpt>
      <trkpt lat="43.79151" lon="5.59061">
        <ele>381.5</ele>
        <time>2022-08-24T06:13:59Z</time>
      </trkpt>
      <trkpt lat="43.79149" lon="5.59049">
        <ele>381.2</ele>
        <time>2022-08-24T06:14:01Z</time>
      </trkpt>
      <trkpt lat="43.79147" lon="5.59038">
        <ele>380.1</ele>
        <time>2022-08-24T06:14:03Z</time>
      </trkpt>
      <trkpt lat="43.79146" lon="5.5903">
        <ele>379.8</ele>
        <time>2022-08-24T06:14:04Z</time>
      </trkpt>
      <trkpt lat="43.79145" lon="5.59019">
        <ele>379.9</ele>
        <time>2022-08-24T06:14:06Z</time>
      </trkpt>
      <trkpt lat="43.79143" lon="5.59006">
        <ele>380</ele>
        <time>2022-08-24T06:14:08Z</time>
      </trkpt>
      <trkpt lat="43.79144" lon="5.58998">
        <ele>380.4</ele>
        <time>2022-08-24T06:14:10Z</time>
      </trkpt>
      <trkpt lat="43.79142" lon="5.58988">
        <ele>380.7</ele>
        <time>2022-08-24T06:14:12Z</time>
      </trkpt>
      <trkpt lat="43.79141" lon="5.58975">
        <ele>381.1</ele>
        <time>2022-08-24T06:14:14Z</time>
      </trkpt>
      <trkpt lat="43.79139" lon="5.58963">
        <ele>381.4</ele>
        <time>2022-08-24T06:14:16Z</time>
      </trkpt>
      <trkpt lat="43.79138" lon="5.58952">
        <ele>381.6</ele>
        <time>2022-08-24T06:14:18Z</time>
      </trkpt>
      <trkpt lat="43.79137" lon="5.5894">
        <ele>381.9</ele>
        <time>2022-08-24T06:14:20Z</time>
      </trkpt>
      <trkpt lat="43.79137" lon="5.58928">
        <ele>382.3</ele>
        <time>2022-08-24T06:14:22Z</time>
      </trkpt>
      <trkpt lat="43.79137" lon="5.58922">
        <ele>382.5</ele>
        <time>2022-08-24T06:14:23Z</time>
      </trkpt>
      <trkpt lat="43.79136" lon="5.58916">
        <ele>382.7</ele>
        <time>2022-08-24T06:14:24Z</time>
      </trkpt>
      <trkpt lat="43.79136" lon="5.5891">
        <ele>383</ele>
        <time>2022-08-24T06:14:25Z</time>
      </trkpt>
      <trkpt lat="43.79133" lon="5.58898">
        <ele>383.3</ele>
        <time>2022-08-24T06:14:27Z</time>
      </trkpt>
      <trkpt lat="43.79133" lon="5.58887">
        <ele>383.9</ele>
        <time>2022-08-24T06:14:29Z</time>
      </trkpt>
      <trkpt lat="43.79131" lon="5.58875">
        <ele>384.7</ele>
        <time>2022-08-24T06:14:31Z</time>
      </trkpt>
      <trkpt lat="43.79131" lon="5.58864">
        <ele>385.7</ele>
        <time>2022-08-24T06:14:33Z</time>
      </trkpt>
      <trkpt lat="43.79129" lon="5.58853">
        <ele>386.2</ele>
        <time>2022-08-24T06:14:35Z</time>
      </trkpt>
      <trkpt lat="43.79129" lon="5.58842">
        <ele>387.1</ele>
        <time>2022-08-24T06:14:37Z</time>
      </trkpt>
      <trkpt lat="43.79128" lon="5.5883">
        <ele>387.3</ele>
        <time>2022-08-24T06:14:39Z</time>
      </trkpt>
      <trkpt lat="43.79129" lon="5.5882">
        <ele>387.7</ele>
        <time>2022-08-24T06:14:41Z</time>
      </trkpt>
      <trkpt lat="43.79129" lon="5.58809">
        <ele>387.8</ele>
        <time>2022-08-24T06:14:43Z</time>
      </trkpt>
      <trkpt lat="43.79128" lon="5.58798">
        <ele>387.4</ele>
        <time>2022-08-24T06:14:45Z</time>
      </trkpt>
      <trkpt lat="43.79129" lon="5.58787">
        <ele>387.3</ele>
        <time>2022-08-24T06:14:47Z</time>
      </trkpt>
      <trkpt lat="43.79129" lon="5.58778">
        <ele>387.3</ele>
        <time>2022-08-24T06:14:49Z</time>
      </trkpt>
      <trkpt lat="43.79131" lon="5.58771">
        <ele>387.7</ele>
        <time>2022-08-24T06:14:51Z</time>
      </trkpt>
      <trkpt lat="43.79135" lon="5.58774">
        <ele>388.7</ele>
        <time>2022-08-24T06:14:54Z</time>
      </trkpt>
      <trkpt lat="43.79134" lon="5.58781">
        <ele>388.8</ele>
        <time>2022-08-24T06:14:56Z</time>
      </trkpt>
      <trkpt lat="43.79134" lon="5.58788">
        <ele>388.8</ele>
        <time>2022-08-24T06:14:58Z</time>
      </trkpt>
      <trkpt lat="43.79134" lon="5.58796">
        <ele>389</ele>
        <time>2022-08-24T06:15:01Z</time>
      </trkpt>
      <trkpt lat="43.79135" lon="5.58802">
        <ele>389.6</ele>
        <time>2022-08-24T06:15:03Z</time>
      </trkpt>
      <trkpt lat="43.79134" lon="5.58809">
        <ele>389.5</ele>
        <time>2022-08-24T06:15:06Z</time>
      </trkpt>
      <trkpt lat="43.79135" lon="5.58817">
        <ele>389.7</ele>
        <time>2022-08-24T06:15:09Z</time>
      </trkpt>
      <trkpt lat="43.79137" lon="5.58825">
        <ele>390.3</ele>
        <time>2022-08-24T06:15:12Z</time>
      </trkpt>
      <trkpt lat="43.7914" lon="5.58832">
        <ele>391.2</ele>
        <time>2022-08-24T06:15:15Z</time>
      </trkpt>
      <trkpt lat="43.79143" lon="5.58837">
        <ele>391.7</ele>
        <time>2022-08-24T06:15:17Z</time>
      </trkpt>
      <trkpt lat="43.79147" lon="5.5884">
        <ele>392.4</ele>
        <time>2022-08-24T06:15:19Z</time>
      </trkpt>
      <trkpt lat="43.79151" lon="5.58844">
        <ele>393.3</ele>
        <time>2022-08-24T06:15:21Z</time>
      </trkpt>
      <trkpt lat="43.79157" lon="5.58846">
        <ele>394.8</ele>
        <time>2022-08-24T06:15:24Z</time>
      </trkpt>
      <trkpt lat="43.79163" lon="5.58845">
        <ele>396.5</ele>
        <time>2022-08-24T06:15:27Z</time>
      </trkpt>
      <trkpt lat="43.79168" lon="5.58841">
        <ele>398</ele>
        <time>2022-08-24T06:15:30Z</time>
      </trkpt>
      <trkpt lat="43.79172" lon="5.58837">
        <ele>398.8</ele>
        <time>2022-08-24T06:15:32Z</time>
      </trkpt>
      <trkpt lat="43.79177" lon="5.58831">
        <ele>399.7</ele>
        <time>2022-08-24T06:15:35Z</time>
      </trkpt>
      <trkpt lat="43.79181" lon="5.58825">
        <ele>400.3</ele>
        <time>2022-08-24T06:15:38Z</time>
      </trkpt>
      <trkpt lat="43.79186" lon="5.58821">
        <ele>401.1</ele>
        <time>2022-08-24T06:15:41Z</time>
      </trkpt>
      <trkpt lat="43.7919" lon="5.58817">
        <ele>402</ele>
        <time>2022-08-24T06:15:44Z</time>
      </trkpt>
      <trkpt lat="43.79194" lon="5.5881">
        <ele>402.8</ele>
        <time>2022-08-24T06:15:47Z</time>
      </trkpt>
      <trkpt lat="43.79197" lon="5.58804">
        <ele>403.2</ele>
        <time>2022-08-24T06:15:50Z</time>
      </trkpt>
      <trkpt lat="43.79201" lon="5.58798">
        <ele>403.2</ele>
        <time>2022-08-24T06:15:53Z</time>
      </trkpt>
      <trkpt lat="43.79204" lon="5.58791">
        <ele>403.3</ele>
        <time>2022-08-24T06:15:56Z</time>
      </trkpt>
      <trkpt lat="43.79208" lon="5.58784">
        <ele>403.7</ele>
        <time>2022-08-24T06:15:59Z</time>
      </trkpt>
      <trkpt lat="43.79211" lon="5.58778">
        <ele>404.1</ele>
        <time>2022-08-24T06:16:02Z</time>
      </trkpt>
      <trkpt lat="43.79215" lon="5.58772">
        <ele>404.3</ele>
        <time>2022-08-24T06:16:04Z</time>
      </trkpt>
      <trkpt lat="43.79218" lon="5.58766">
        <ele>404.6</ele>
        <time>2022-08-24T06:16:06Z</time>
      </trkpt>
      <trkpt lat="43.79222" lon="5.5876">
        <ele>405.2</ele>
        <time>2022-08-24T06:16:08Z</time>
      </trkpt>
      <trkpt lat="43.79226" lon="5.58754">
        <ele>405.5</ele>
        <time>2022-08-24T06:16:10Z</time>
      </trkpt>
      <trkpt lat="43.7923" lon="5.5875">
        <ele>405.8</ele>
        <time>2022-08-24T06:16:12Z</time>
      </trkpt>
      <trkpt lat="43.79234" lon="5.58745">
        <ele>405.6</ele>
        <time>2022-08-24T06:16:14Z</time>
      </trkpt>
      <trkpt lat="43.79238" lon="5.58741">
        <ele>405.8</ele>
        <time>2022-08-24T06:16:16Z</time>
      </trkpt>
      <trkpt lat="43.79242" lon="5.58737">
        <ele>406.2</ele>
        <time>2022-08-24T06:16:18Z</time>
      </trkpt>
      <trkpt lat="43.79246" lon="5.58733">
        <ele>406.6</ele>
        <time>2022-08-24T06:16:20Z</time>
      </trkpt>
      <trkpt lat="43.79251" lon="5.58728">
        <ele>407.3</ele>
        <time>2022-08-24T06:16:22Z</time>
      </trkpt>
      <trkpt lat="43.79256" lon="5.58724">
        <ele>407.4</ele>
        <time>2022-08-24T06:16:24Z</time>
      </trkpt>
      <trkpt lat="43.7926" lon="5.58719">
        <ele>407.3</ele>
        <time>2022-08-24T06:16:26Z</time>
      </trkpt>
      <trkpt lat="43.79266" lon="5.58715">
        <ele>407.3</ele>
        <time>2022-08-24T06:16:28Z</time>
      </trkpt>
      <trkpt lat="43.79271" lon="5.58712">
        <ele>407.5</ele>
        <time>2022-08-24T06:16:30Z</time>
      </trkpt>
      <trkpt lat="43.79276" lon="5.58709">
        <ele>407.9</ele>
        <time>2022-08-24T06:16:32Z</time>
      </trkpt>
      <trkpt lat="43.79281" lon="5.58707">
        <ele>408.2</ele>
        <time>2022-08-24T06:16:34Z</time>
      </trkpt>
      <trkpt lat="43.79285" lon="5.58703">
        <ele>408.6</ele>
        <time>2022-08-24T06:16:36Z</time>
      </trkpt>
      <trkpt lat="43.7929" lon="5.587">
        <ele>409</ele>
        <time>2022-08-24T06:16:38Z</time>
      </trkpt>
      <trkpt lat="43.79295" lon="5.58697">
        <ele>409.5</ele>
        <time>2022-08-24T06:16:40Z</time>
      </trkpt>
      <trkpt lat="43.79299" lon="5.58694">
        <ele>410</ele>
        <time>2022-08-24T06:16:42Z</time>
      </trkpt>
      <trkpt lat="43.79304" lon="5.58691">
        <ele>410.5</ele>
        <time>2022-08-24T06:16:44Z</time>
      </trkpt>
      <trkpt lat="43.79309" lon="5.58688">
        <ele>410.8</ele>
        <time>2022-08-24T06:16:46Z</time>
      </trkpt>
      <trkpt lat="43.79314" lon="5.58685">
        <ele>411.1</ele>
        <time>2022-08-24T06:16:48Z</time>
      </trkpt>
      <trkpt lat="43.79319" lon="5.58682">
        <ele>411.4</ele>
        <time>2022-08-24T06:16:50Z</time>
      </trkpt>
      <trkpt lat="43.79323" lon="5.58678">
        <ele>411.8</ele>
        <time>2022-08-24T06:16:52Z</time>
      </trkpt>
      <trkpt lat="43.79329" lon="5.58676">
        <ele>412.4</ele>
        <time>2022-08-24T06:16:54Z</time>
      </trkpt>
      <trkpt lat="43.79334" lon="5.58675">
        <ele>413</ele>
        <time>2022-08-24T06:16:56Z</time>
      </trkpt>
      <trkpt lat="43.7934" lon="5.58675">
        <ele>413.2</ele>
        <time>2022-08-24T06:16:58Z</time>
      </trkpt>
      <trkpt lat="43.79345" lon="5.58676">
        <ele>413.3</ele>
        <time>2022-08-24T06:17:00Z</time>
      </trkpt>
      <trkpt lat="43.79351" lon="5.58676">
        <ele>413.4</ele>
        <time>2022-08-24T06:17:02Z</time>
      </trkpt>
      <trkpt lat="43.79356" lon="5.58675">
        <ele>413.6</ele>
        <time>2022-08-24T06:17:04Z</time>
      </trkpt>
      <trkpt lat="43.79362" lon="5.58675">
        <ele>413.7</ele>
        <time>2022-08-24T06:17:06Z</time>
      </trkpt>
      <trkpt lat="43.79367" lon="5.58672">
        <ele>414</ele>
        <time>2022-08-24T06:17:08Z</time>
      </trkpt>
      <trkpt lat="43.79373" lon="5.58668">
        <ele>414.4</ele>
        <time>2022-08-24T06:17:10Z</time>
      </trkpt>
      <trkpt lat="43.79378" lon="5.58664">
        <ele>414.6</ele>
        <time>2022-08-24T06:17:12Z</time>
      </trkpt>
      <trkpt lat="43.79382" lon="5.5866">
        <ele>414.7</ele>
        <time>2022-08-24T06:17:14Z</time>
      </trkpt>
      <trkpt lat="43.79386" lon="5.58655">
        <ele>414.8</ele>
        <time>2022-08-24T06:17:16Z</time>
      </trkpt>
      <trkpt lat="43.7939" lon="5.58652">
        <ele>415.1</ele>
        <time>2022-08-24T06:17:18Z</time>
      </trkpt>
      <trkpt lat="43.79394" lon="5.58648">
        <ele>415.3</ele>
        <time>2022-08-24T06:17:20Z</time>
      </trkpt>
      <trkpt lat="43.79398" lon="5.58643">
        <ele>415.6</ele>
        <time>2022-08-24T06:17:22Z</time>
      </trkpt>
      <trkpt lat="43.79402" lon="5.58638">
        <ele>415.9</ele>
        <time>2022-08-24T06:17:24Z</time>
      </trkpt>
      <trkpt lat="43.79406" lon="5.58633">
        <ele>416.1</ele>
        <time>2022-08-24T06:17:26Z</time>
      </trkpt>
      <trkpt lat="43.7941" lon="5.5863">
        <ele>416.3</ele>
        <time>2022-08-24T06:17:28Z</time>
      </trkpt>
      <trkpt lat="43.79414" lon="5.58626">
        <ele>416.7</ele>
        <time>2022-08-24T06:17:30Z</time>
      </trkpt>
      <trkpt lat="43.79418" lon="5.58623">
        <ele>417.1</ele>
        <time>2022-08-24T06:17:32Z</time>
      </trkpt>
      <trkpt lat="43.79422" lon="5.58621">
        <ele>417.3</ele>
        <time>2022-08-24T06:17:34Z</time>
      </trkpt>
      <trkpt lat="43.79427" lon="5.58618">
        <ele>417.7</ele>
        <time>2022-08-24T06:17:36Z</time>
      </trkpt>
      <trkpt lat="43.79431" lon="5.58614">
        <ele>418</ele>
        <time>2022-08-24T06:17:38Z</time>
      </trkpt>
      <trkpt lat="43.79435" lon="5.5861">
        <ele>418.3</ele>
        <time>2022-08-24T06:17:40Z</time>
      </trkpt>
      <trkpt lat="43.7944" lon="5.58607">
        <ele>418.6</ele>
        <time>2022-08-24T06:17:42Z</time>
      </trkpt>
      <trkpt lat="43.79445" lon="5.58603">
        <ele>419</ele>
        <time>2022-08-24T06:17:44Z</time>
      </trkpt>
      <trkpt lat="43.79449" lon="5.58598">
        <ele>419.2</ele>
        <time>2022-08-24T06:17:46Z</time>
      </trkpt>
      <trkpt lat="43.79454" lon="5.58594">
        <ele>419.5</ele>
        <time>2022-08-24T06:17:48Z</time>
      </trkpt>
      <trkpt lat="43.79458" lon="5.58591">
        <ele>419.9</ele>
        <time>2022-08-24T06:17:50Z</time>
      </trkpt>
      <trkpt lat="43.79463" lon="5.58587">
        <ele>420.2</ele>
        <time>2022-08-24T06:17:52Z</time>
      </trkpt>
      <trkpt lat="43.79468" lon="5.58584">
        <ele>420.7</ele>
        <time>2022-08-24T06:17:54Z</time>
      </trkpt>
      <trkpt lat="43.79473" lon="5.58581">
        <ele>420.9</ele>
        <time>2022-08-24T06:17:56Z</time>
      </trkpt>
      <trkpt lat="43.79478" lon="5.58577">
        <ele>421</ele>
        <time>2022-08-24T06:17:58Z</time>
      </trkpt>
      <trkpt lat="43.79483" lon="5.58573">
        <ele>421.1</ele>
        <time>2022-08-24T06:18:00Z</time>
      </trkpt>
      <trkpt lat="43.79487" lon="5.58569">
        <ele>421.3</ele>
        <time>2022-08-24T06:18:02Z</time>
      </trkpt>
      <trkpt lat="43.79492" lon="5.58565">
        <ele>421.5</ele>
        <time>2022-08-24T06:18:04Z</time>
      </trkpt>
      <trkpt lat="43.79497" lon="5.58562">
        <ele>421.8</ele>
        <time>2022-08-24T06:18:06Z</time>
      </trkpt>
      <trkpt lat="43.79501" lon="5.58558">
        <ele>422.1</ele>
        <time>2022-08-24T06:18:08Z</time>
      </trkpt>
      <trkpt lat="43.79506" lon="5.58555">
        <ele>422.4</ele>
        <time>2022-08-24T06:18:10Z</time>
      </trkpt>
      <trkpt lat="43.79511" lon="5.58551">
        <ele>422.7</ele>
        <time>2022-08-24T06:18:12Z</time>
      </trkpt>
      <trkpt lat="43.79516" lon="5.58548">
        <ele>423</ele>
        <time>2022-08-24T06:18:14Z</time>
      </trkpt>
      <trkpt lat="43.7952" lon="5.58543">
        <ele>423.3</ele>
        <time>2022-08-24T06:18:16Z</time>
      </trkpt>
      <trkpt lat="43.79525" lon="5.5854">
        <ele>423.7</ele>
        <time>2022-08-24T06:18:18Z</time>
      </trkpt>
      <trkpt lat="43.7953" lon="5.58536">
        <ele>424.1</ele>
        <time>2022-08-24T06:18:20Z</time>
      </trkpt>
      <trkpt lat="43.79535" lon="5.58533">
        <ele>424.3</ele>
        <time>2022-08-24T06:18:22Z</time>
      </trkpt>
      <trkpt lat="43.7954" lon="5.58529">
        <ele>424.4</ele>
        <time>2022-08-24T06:18:24Z</time>
      </trkpt>
      <trkpt lat="43.79545" lon="5.58526">
        <ele>424.6</ele>
        <time>2022-08-24T06:18:26Z</time>
      </trkpt>
      <trkpt lat="43.79549" lon="5.58521">
        <ele>424.6</ele>
        <time>2022-08-24T06:18:28Z</time>
      </trkpt>
      <trkpt lat="43.79553" lon="5.58516">
        <ele>424.8</ele>
        <time>2022-08-24T06:18:30Z</time>
      </trkpt>
      <trkpt lat="43.79557" lon="5.58512">
        <ele>425.1</ele>
        <time>2022-08-24T06:18:32Z</time>
      </trkpt>
      <trkpt lat="43.79561" lon="5.58508">
        <ele>425.3</ele>
        <time>2022-08-24T06:18:34Z</time>
      </trkpt>
      <trkpt lat="43.79566" lon="5.58504">
        <ele>425.7</ele>
        <time>2022-08-24T06:18:36Z</time>
      </trkpt>
      <trkpt lat="43.7957" lon="5.585">
        <ele>426</ele>
        <time>2022-08-24T06:18:38Z</time>
      </trkpt>
      <trkpt lat="43.79574" lon="5.58497">
        <ele>426.2</ele>
        <time>2022-08-24T06:18:40Z</time>
      </trkpt>
      <trkpt lat="43.79578" lon="5.58493">
        <ele>426.3</ele>
        <time>2022-08-24T06:18:42Z</time>
      </trkpt>
      <trkpt lat="43.79582" lon="5.5849">
        <ele>426.5</ele>
        <time>2022-08-24T06:18:44Z</time>
      </trkpt>
      <trkpt lat="43.79587" lon="5.58486">
        <ele>426.8</ele>
        <time>2022-08-24T06:18:46Z</time>
      </trkpt>
      <trkpt lat="43.79591" lon="5.58482">
        <ele>427.1</ele>
        <time>2022-08-24T06:18:48Z</time>
      </trkpt>
      <trkpt lat="43.79596" lon="5.58478">
        <ele>427.4</ele>
        <time>2022-08-24T06:18:50Z</time>
      </trkpt>
      <trkpt lat="43.79601" lon="5.58474">
        <ele>427.9</ele>
        <time>2022-08-24T06:18:52Z</time>
      </trkpt>
      <trkpt lat="43.79605" lon="5.5847">
        <ele>428.3</ele>
        <time>2022-08-24T06:18:54Z</time>
      </trkpt>
      <trkpt lat="43.7961" lon="5.58467">
        <ele>428.9</ele>
        <time>2022-08-24T06:18:56Z</time>
      </trkpt>
      <trkpt lat="43.79615" lon="5.58464">
        <ele>429.4</ele>
        <time>2022-08-24T06:18:58Z</time>
      </trkpt>
      <trkpt lat="43.79619" lon="5.58461">
        <ele>429.9</ele>
        <time>2022-08-24T06:19:00Z</time>
      </trkpt>
      <trkpt lat="43.79623" lon="5.58457">
        <ele>430.3</ele>
        <time>2022-08-24T06:19:02Z</time>
      </trkpt>
      <trkpt lat="43.79628" lon="5.58454">
        <ele>430.8</ele>
        <time>2022-08-24T06:19:04Z</time>
      </trkpt>
      <trkpt lat="43.79632" lon="5.5845">
        <ele>431.3</ele>
        <time>2022-08-24T06:19:06Z</time>
      </trkpt>
      <trkpt lat="43.79637" lon="5.58447">
        <ele>431.8</ele>
        <time>2022-08-24T06:19:08Z</time>
      </trkpt>
      <trkpt lat="43.79641" lon="5.58443">
        <ele>432.2</ele>
        <time>2022-08-24T06:19:10Z</time>
      </trkpt>
      <trkpt lat="43.79646" lon="5.5844">
        <ele>432.6</ele>
        <time>2022-08-24T06:19:12Z</time>
      </trkpt>
      <trkpt lat="43.7965" lon="5.58437">
        <ele>432.9</ele>
        <time>2022-08-24T06:19:14Z</time>
      </trkpt>
      <trkpt lat="43.79655" lon="5.58433">
        <ele>433.4</ele>
        <time>2022-08-24T06:19:16Z</time>
      </trkpt>
      <trkpt lat="43.7966" lon="5.5843">
        <ele>433.9</ele>
        <time>2022-08-24T06:19:18Z</time>
      </trkpt>
      <trkpt lat="43.79665" lon="5.58427">
        <ele>434.4</ele>
        <time>2022-08-24T06:19:20Z</time>
      </trkpt>
      <trkpt lat="43.79669" lon="5.58424">
        <ele>434.9</ele>
        <time>2022-08-24T06:19:22Z</time>
      </trkpt>
      <trkpt lat="43.79673" lon="5.5842">
        <ele>435.4</ele>
        <time>2022-08-24T06:19:24Z</time>
      </trkpt>
      <trkpt lat="43.79678" lon="5.58417">
        <ele>435.8</ele>
        <time>2022-08-24T06:19:26Z</time>
      </trkpt>
      <trkpt lat="43.79682" lon="5.58414">
        <ele>436.1</ele>
        <time>2022-08-24T06:19:28Z</time>
      </trkpt>
      <trkpt lat="43.79687" lon="5.5841">
        <ele>436.4</ele>
        <time>2022-08-24T06:19:30Z</time>
      </trkpt>
      <trkpt lat="43.79691" lon="5.58406">
        <ele>436.8</ele>
        <time>2022-08-24T06:19:32Z</time>
      </trkpt>
      <trkpt lat="43.79696" lon="5.58403">
        <ele>437.1</ele>
        <time>2022-08-24T06:19:34Z</time>
      </trkpt>
      <trkpt lat="43.79701" lon="5.584">
        <ele>437.6</ele>
        <time>2022-08-24T06:19:36Z</time>
      </trkpt>
      <trkpt lat="43.79705" lon="5.58398">
        <ele>438</ele>
        <time>2022-08-24T06:19:38Z</time>
      </trkpt>
      <trkpt lat="43.79711" lon="5.58393">
        <ele>438.7</ele>
        <time>2022-08-24T06:19:41Z</time>
      </trkpt>
      <trkpt lat="43.79715" lon="5.58389">
        <ele>439.2</ele>
        <time>2022-08-24T06:19:43Z</time>
      </trkpt>
      <trkpt lat="43.79719" lon="5.58385">
        <ele>439.7</ele>
        <time>2022-08-24T06:19:45Z</time>
      </trkpt>
      <trkpt lat="43.79724" lon="5.58381">
        <ele>440.1</ele>
        <time>2022-08-24T06:19:47Z</time>
      </trkpt>
      <trkpt lat="43.79729" lon="5.58377">
        <ele>440.5</ele>
        <time>2022-08-24T06:19:49Z</time>
      </trkpt>
      <trkpt lat="43.79733" lon="5.58373">
        <ele>440.8</ele>
        <time>2022-08-24T06:19:51Z</time>
      </trkpt>
      <trkpt lat="43.79738" lon="5.58369">
        <ele>441.1</ele>
        <time>2022-08-24T06:19:53Z</time>
      </trkpt>
      <trkpt lat="43.79743" lon="5.58365">
        <ele>441.5</ele>
        <time>2022-08-24T06:19:55Z</time>
      </trkpt>
      <trkpt lat="43.79747" lon="5.58361">
        <ele>441.8</ele>
        <time>2022-08-24T06:19:57Z</time>
      </trkpt>
      <trkpt lat="43.79752" lon="5.58359">
        <ele>442.2</ele>
        <time>2022-08-24T06:19:59Z</time>
      </trkpt>
      <trkpt lat="43.79756" lon="5.58356">
        <ele>442.6</ele>
        <time>2022-08-24T06:20:01Z</time>
      </trkpt>
      <trkpt lat="43.79761" lon="5.58353">
        <ele>443.1</ele>
        <time>2022-08-24T06:20:03Z</time>
      </trkpt>
      <trkpt lat="43.79765" lon="5.58351">
        <ele>443.5</ele>
        <time>2022-08-24T06:20:05Z</time>
      </trkpt>
      <trkpt lat="43.79769" lon="5.58348">
        <ele>443.9</ele>
        <time>2022-08-24T06:20:07Z</time>
      </trkpt>
      <trkpt lat="43.79773" lon="5.58344">
        <ele>444.3</ele>
        <time>2022-08-24T06:20:09Z</time>
      </trkpt>
      <trkpt lat="43.79778" lon="5.5834">
        <ele>444.7</ele>
        <time>2022-08-24T06:20:11Z</time>
      </trkpt>
      <trkpt lat="43.79782" lon="5.58337">
        <ele>445.2</ele>
        <time>2022-08-24T06:20:13Z</time>
      </trkpt>
      <trkpt lat="43.79786" lon="5.58332">
        <ele>445.6</ele>
        <time>2022-08-24T06:20:15Z</time>
      </trkpt>
      <trkpt lat="43.7979" lon="5.58328">
        <ele>445.9</ele>
        <time>2022-08-24T06:20:17Z</time>
      </trkpt>
      <trkpt lat="43.79795" lon="5.58322">
        <ele>446.2</ele>
        <time>2022-08-24T06:20:20Z</time>
      </trkpt>
      <trkpt lat="43.79799" lon="5.58318">
        <ele>446.5</ele>
        <time>2022-08-24T06:20:22Z</time>
      </trkpt>
      <trkpt lat="43.79803" lon="5.58313">
        <ele>446.8</ele>
        <time>2022-08-24T06:20:24Z</time>
      </trkpt>
      <trkpt lat="43.79807" lon="5.5831">
        <ele>447.1</ele>
        <time>2022-08-24T06:20:26Z</time>
      </trkpt>
      <trkpt lat="43.79812" lon="5.58307">
        <ele>447.4</ele>
        <time>2022-08-24T06:20:28Z</time>
      </trkpt>
      <trkpt lat="43.79816" lon="5.58303">
        <ele>447.8</ele>
        <time>2022-08-24T06:20:30Z</time>
      </trkpt>
      <trkpt lat="43.7982" lon="5.58299">
        <ele>448.1</ele>
        <time>2022-08-24T06:20:32Z</time>
      </trkpt>
      <trkpt lat="43.79825" lon="5.58294">
        <ele>448.4</ele>
        <time>2022-08-24T06:20:34Z</time>
      </trkpt>
      <trkpt lat="43.79829" lon="5.58289">
        <ele>448.7</ele>
        <time>2022-08-24T06:20:36Z</time>
      </trkpt>
      <trkpt lat="43.79832" lon="5.58283">
        <ele>448.9</ele>
        <time>2022-08-24T06:20:38Z</time>
      </trkpt>
      <trkpt lat="43.79834" lon="5.58277">
        <ele>449.1</ele>
        <time>2022-08-24T06:20:40Z</time>
      </trkpt>
      <trkpt lat="43.79836" lon="5.58268">
        <ele>449.2</ele>
        <time>2022-08-24T06:20:42Z</time>
      </trkpt>
      <trkpt lat="43.79832" lon="5.58259">
        <ele>448.9</ele>
        <time>2022-08-24T06:20:43Z</time>
      </trkpt>
      <trkpt lat="43.79831" lon="5.58251">
        <ele>448.8</ele>
        <time>2022-08-24T06:20:44Z</time>
      </trkpt>
      <trkpt lat="43.79829" lon="5.58243">
        <ele>447.9</ele>
        <time>2022-08-24T06:20:45Z</time>
      </trkpt>
      <trkpt lat="43.79828" lon="5.58233">
        <ele>447.2</ele>
        <time>2022-08-24T06:20:46Z</time>
      </trkpt>
      <trkpt lat="43.79828" lon="5.58224">
        <ele>446.3</ele>
        <time>2022-08-24T06:20:47Z</time>
      </trkpt>
      <trkpt lat="43.79827" lon="5.58214">
        <ele>445</ele>
        <time>2022-08-24T06:20:48Z</time>
      </trkpt>
      <trkpt lat="43.79827" lon="5.58204">
        <ele>443.7</ele>
        <time>2022-08-24T06:20:49Z</time>
      </trkpt>
      <trkpt lat="43.79826" lon="5.58194">
        <ele>442.4</ele>
        <time>2022-08-24T06:20:50Z</time>
      </trkpt>
      <trkpt lat="43.79825" lon="5.58184">
        <ele>441.7</ele>
        <time>2022-08-24T06:20:51Z</time>
      </trkpt>
      <trkpt lat="43.79824" lon="5.58176">
        <ele>441</ele>
        <time>2022-08-24T06:20:52Z</time>
      </trkpt>
      <trkpt lat="43.79824" lon="5.58167">
        <ele>440.3</ele>
        <time>2022-08-24T06:20:53Z</time>
      </trkpt>
      <trkpt lat="43.79825" lon="5.58158">
        <ele>441.2</ele>
        <time>2022-08-24T06:20:54Z</time>
      </trkpt>
      <trkpt lat="43.79827" lon="5.5815">
        <ele>442.2</ele>
        <time>2022-08-24T06:20:55Z</time>
      </trkpt>
      <trkpt lat="43.79831" lon="5.58145">
        <ele>443.2</ele>
        <time>2022-08-24T06:20:56Z</time>
      </trkpt>
      <trkpt lat="43.79837" lon="5.58139">
        <ele>443.7</ele>
        <time>2022-08-24T06:20:58Z</time>
      </trkpt>
      <trkpt lat="43.79841" lon="5.58131">
        <ele>444.5</ele>
        <time>2022-08-24T06:21:00Z</time>
      </trkpt>
      <trkpt lat="43.79846" lon="5.58121">
        <ele>445.3</ele>
        <time>2022-08-24T06:21:02Z</time>
      </trkpt>
      <trkpt lat="43.7985" lon="5.58111">
        <ele>446.2</ele>
        <time>2022-08-24T06:21:04Z</time>
      </trkpt>
      <trkpt lat="43.79851" lon="5.58099">
        <ele>446.1</ele>
        <time>2022-08-24T06:21:06Z</time>
      </trkpt>
      <trkpt lat="43.79851" lon="5.58092">
        <ele>446.1</ele>
        <time>2022-08-24T06:21:07Z</time>
      </trkpt>
      <trkpt lat="43.79853" lon="5.58079">
        <ele>445.6</ele>
        <time>2022-08-24T06:21:09Z</time>
      </trkpt>
      <trkpt lat="43.7986" lon="5.58076">
        <ele>444.9</ele>
        <time>2022-08-24T06:21:11Z</time>
      </trkpt>
      <trkpt lat="43.79866" lon="5.58079">
        <ele>445</ele>
        <time>2022-08-24T06:21:13Z</time>
      </trkpt>
      <trkpt lat="43.79873" lon="5.58081">
        <ele>445.4</ele>
        <time>2022-08-24T06:21:15Z</time>
      </trkpt>
      <trkpt lat="43.7988" lon="5.58084">
        <ele>445.7</ele>
        <time>2022-08-24T06:21:17Z</time>
      </trkpt>
      <trkpt lat="43.79887" lon="5.58086">
        <ele>445.9</ele>
        <time>2022-08-24T06:21:19Z</time>
      </trkpt>
      <trkpt lat="43.79894" lon="5.58088">
        <ele>446.2</ele>
        <time>2022-08-24T06:21:21Z</time>
      </trkpt>
      <trkpt lat="43.799" lon="5.58089">
        <ele>446.5</ele>
        <time>2022-08-24T06:21:23Z</time>
      </trkpt>
      <trkpt lat="43.79908" lon="5.5809">
        <ele>446.9</ele>
        <time>2022-08-24T06:21:25Z</time>
      </trkpt>
      <trkpt lat="43.79915" lon="5.58092">
        <ele>447.3</ele>
        <time>2022-08-24T06:21:27Z</time>
      </trkpt>
      <trkpt lat="43.79921" lon="5.58093">
        <ele>447.6</ele>
        <time>2022-08-24T06:21:29Z</time>
      </trkpt>
      <trkpt lat="43.79927" lon="5.58094">
        <ele>448.1</ele>
        <time>2022-08-24T06:21:31Z</time>
      </trkpt>
      <trkpt lat="43.79934" lon="5.58095">
        <ele>448.5</ele>
        <time>2022-08-24T06:21:33Z</time>
      </trkpt>
      <trkpt lat="43.7994" lon="5.58096">
        <ele>448.9</ele>
        <time>2022-08-24T06:21:35Z</time>
      </trkpt>
      <trkpt lat="43.79945" lon="5.58097">
        <ele>449.2</ele>
        <time>2022-08-24T06:21:37Z</time>
      </trkpt>
      <trkpt lat="43.79952" lon="5.58098">
        <ele>450</ele>
        <time>2022-08-24T06:21:39Z</time>
      </trkpt>
      <trkpt lat="43.79957" lon="5.58099">
        <ele>450.7</ele>
        <time>2022-08-24T06:21:41Z</time>
      </trkpt>
      <trkpt lat="43.79963" lon="5.581">
        <ele>451.4</ele>
        <time>2022-08-24T06:21:43Z</time>
      </trkpt>
      <trkpt lat="43.79968" lon="5.581">
        <ele>452.2</ele>
        <time>2022-08-24T06:21:45Z</time>
      </trkpt>
      <trkpt lat="43.79973" lon="5.58101">
        <ele>452.8</ele>
        <time>2022-08-24T06:21:47Z</time>
      </trkpt>
      <trkpt lat="43.79978" lon="5.58102">
        <ele>452.8</ele>
        <time>2022-08-24T06:21:49Z</time>
      </trkpt>
      <trkpt lat="43.79983" lon="5.58103">
        <ele>453</ele>
        <time>2022-08-24T06:21:51Z</time>
      </trkpt>
      <trkpt lat="43.79988" lon="5.58102">
        <ele>453.2</ele>
        <time>2022-08-24T06:21:53Z</time>
      </trkpt>
      <trkpt lat="43.79993" lon="5.58101">
        <ele>453.5</ele>
        <time>2022-08-24T06:21:55Z</time>
      </trkpt>
      <trkpt lat="43.79999" lon="5.58099">
        <ele>454.1</ele>
        <time>2022-08-24T06:21:57Z</time>
      </trkpt>
      <trkpt lat="43.80004" lon="5.58098">
        <ele>454.7</ele>
        <time>2022-08-24T06:21:59Z</time>
      </trkpt>
      <trkpt lat="43.8001" lon="5.58097">
        <ele>455.2</ele>
        <time>2022-08-24T06:22:01Z</time>
      </trkpt>
      <trkpt lat="43.80016" lon="5.58098">
        <ele>455.6</ele>
        <time>2022-08-24T06:22:03Z</time>
      </trkpt>
      <trkpt lat="43.80022" lon="5.58101">
        <ele>455.6</ele>
        <time>2022-08-24T06:22:05Z</time>
      </trkpt>
      <trkpt lat="43.80027" lon="5.58103">
        <ele>455.8</ele>
        <time>2022-08-24T06:22:07Z</time>
      </trkpt>
      <trkpt lat="43.80032" lon="5.58105">
        <ele>455.7</ele>
        <time>2022-08-24T06:22:09Z</time>
      </trkpt>
      <trkpt lat="43.80038" lon="5.58105">
        <ele>455.6</ele>
        <time>2022-08-24T06:22:11Z</time>
      </trkpt>
      <trkpt lat="43.80043" lon="5.58104">
        <ele>455.8</ele>
        <time>2022-08-24T06:22:13Z</time>
      </trkpt>
      <trkpt lat="43.80048" lon="5.58102">
        <ele>456</ele>
        <time>2022-08-24T06:22:15Z</time>
      </trkpt>
      <trkpt lat="43.80053" lon="5.581">
        <ele>456.2</ele>
        <time>2022-08-24T06:22:17Z</time>
      </trkpt>
      <trkpt lat="43.80058" lon="5.58098">
        <ele>456.5</ele>
        <time>2022-08-24T06:22:19Z</time>
      </trkpt>
      <trkpt lat="43.80064" lon="5.58096">
        <ele>457.1</ele>
        <time>2022-08-24T06:22:21Z</time>
      </trkpt>
      <trkpt lat="43.80069" lon="5.58095">
        <ele>457.5</ele>
        <time>2022-08-24T06:22:23Z</time>
      </trkpt>
      <trkpt lat="43.80074" lon="5.58094">
        <ele>457.9</ele>
        <time>2022-08-24T06:22:25Z</time>
      </trkpt>
      <trkpt lat="43.80079" lon="5.58092">
        <ele>458.4</ele>
        <time>2022-08-24T06:22:27Z</time>
      </trkpt>
      <trkpt lat="43.80085" lon="5.58089">
        <ele>459.2</ele>
        <time>2022-08-24T06:22:30Z</time>
      </trkpt>
      <trkpt lat="43.8009" lon="5.58085">
        <ele>460.2</ele>
        <time>2022-08-24T06:22:33Z</time>
      </trkpt>
      <trkpt lat="43.80094" lon="5.5808">
        <ele>461.1</ele>
        <time>2022-08-24T06:22:36Z</time>
      </trkpt>
      <trkpt lat="43.80096" lon="5.58073">
        <ele>461.9</ele>
        <time>2022-08-24T06:22:39Z</time>
      </trkpt>
      <trkpt lat="43.80095" lon="5.58063">
        <ele>462.7</ele>
        <time>2022-08-24T06:22:42Z</time>
      </trkpt>
      <trkpt lat="43.80093" lon="5.58057">
        <ele>463.2</ele>
        <time>2022-08-24T06:22:44Z</time>
      </trkpt>
      <trkpt lat="43.8009" lon="5.58049">
        <ele>463.7</ele>
        <time>2022-08-24T06:22:47Z</time>
      </trkpt>
      <trkpt lat="43.80087" lon="5.5804">
        <ele>464.2</ele>
        <time>2022-08-24T06:22:50Z</time>
      </trkpt>
      <trkpt lat="43.80086" lon="5.58032">
        <ele>464.8</ele>
        <time>2022-08-24T06:22:53Z</time>
      </trkpt>
      <trkpt lat="43.80085" lon="5.58024">
        <ele>465.5</ele>
        <time>2022-08-24T06:22:56Z</time>
      </trkpt>
      <trkpt lat="43.80085" lon="5.58016">
        <ele>466.4</ele>
        <time>2022-08-24T06:22:59Z</time>
      </trkpt>
      <trkpt lat="43.80086" lon="5.58009">
        <ele>467.1</ele>
        <time>2022-08-24T06:23:01Z</time>
      </trkpt>
      <trkpt lat="43.80088" lon="5.58001">
        <ele>468</ele>
        <time>2022-08-24T06:23:04Z</time>
      </trkpt>
      <trkpt lat="43.8009" lon="5.57993">
        <ele>469.1</ele>
        <time>2022-08-24T06:23:07Z</time>
      </trkpt>
      <trkpt lat="43.80092" lon="5.57986">
        <ele>470.1</ele>
        <time>2022-08-24T06:23:10Z</time>
      </trkpt>
      <trkpt lat="43.80094" lon="5.57979">
        <ele>471.3</ele>
        <time>2022-08-24T06:23:13Z</time>
      </trkpt>
      <trkpt lat="43.80096" lon="5.57972">
        <ele>472.3</ele>
        <time>2022-08-24T06:23:16Z</time>
      </trkpt>
      <trkpt lat="43.80098" lon="5.57966">
        <ele>472.9</ele>
        <time>2022-08-24T06:23:19Z</time>
      </trkpt>
      <trkpt lat="43.80101" lon="5.5796">
        <ele>473.5</ele>
        <time>2022-08-24T06:23:22Z</time>
      </trkpt>
      <trkpt lat="43.80102" lon="5.57952">
        <ele>473.9</ele>
        <time>2022-08-24T06:23:25Z</time>
      </trkpt>
      <trkpt lat="43.80103" lon="5.57946">
        <ele>474.3</ele>
        <time>2022-08-24T06:23:27Z</time>
      </trkpt>
      <trkpt lat="43.80103" lon="5.57937">
        <ele>474.8</ele>
        <time>2022-08-24T06:23:30Z</time>
      </trkpt>
      <trkpt lat="43.80103" lon="5.57931">
        <ele>475</ele>
        <time>2022-08-24T06:23:32Z</time>
      </trkpt>
      <trkpt lat="43.80103" lon="5.57925">
        <ele>475.4</ele>
        <time>2022-08-24T06:23:34Z</time>
      </trkpt>
      <trkpt lat="43.801" lon="5.57914">
        <ele>475.6</ele>
        <time>2022-08-24T06:23:38Z</time>
      </trkpt>
      <trkpt lat="43.80098" lon="5.57905">
        <ele>475.6</ele>
        <time>2022-08-24T06:23:41Z</time>
      </trkpt>
      <trkpt lat="43.80098" lon="5.57898">
        <ele>475.8</ele>
        <time>2022-08-24T06:23:43Z</time>
      </trkpt>
      <trkpt lat="43.80097" lon="5.57889">
        <ele>475.9</ele>
        <time>2022-08-24T06:23:46Z</time>
      </trkpt>
      <trkpt lat="43.80096" lon="5.5788">
        <ele>476.3</ele>
        <time>2022-08-24T06:23:49Z</time>
      </trkpt>
      <trkpt lat="43.80095" lon="5.57874">
        <ele>476.4</ele>
        <time>2022-08-24T06:23:51Z</time>
      </trkpt>
      <trkpt lat="43.80094" lon="5.57866">
        <ele>476.7</ele>
        <time>2022-08-24T06:23:54Z</time>
      </trkpt>
      <trkpt lat="43.80094" lon="5.57858">
        <ele>477.4</ele>
        <time>2022-08-24T06:23:57Z</time>
      </trkpt>
      <trkpt lat="43.80095" lon="5.57849">
        <ele>478.3</ele>
        <time>2022-08-24T06:24:00Z</time>
      </trkpt>
      <trkpt lat="43.80095" lon="5.5784">
        <ele>479.2</ele>
        <time>2022-08-24T06:24:03Z</time>
      </trkpt>
      <trkpt lat="43.80095" lon="5.57833">
        <ele>479.8</ele>
        <time>2022-08-24T06:24:05Z</time>
      </trkpt>
      <trkpt lat="43.80095" lon="5.57826">
        <ele>479.5</ele>
        <time>2022-08-24T06:24:07Z</time>
      </trkpt>
      <trkpt lat="43.80096" lon="5.57818">
        <ele>479.4</ele>
        <time>2022-08-24T06:24:10Z</time>
      </trkpt>
      <trkpt lat="43.801" lon="5.57812">
        <ele>480.2</ele>
        <time>2022-08-24T06:24:13Z</time>
      </trkpt>
      <trkpt lat="43.80105" lon="5.57807">
        <ele>481.4</ele>
        <time>2022-08-24T06:24:16Z</time>
      </trkpt>
      <trkpt lat="43.80109" lon="5.57805">
        <ele>482.5</ele>
        <time>2022-08-24T06:24:18Z</time>
      </trkpt>
      <trkpt lat="43.80116" lon="5.57805">
        <ele>484.1</ele>
        <time>2022-08-24T06:24:21Z</time>
      </trkpt>
      <trkpt lat="43.80122" lon="5.57801">
        <ele>485.2</ele>
        <time>2022-08-24T06:24:24Z</time>
      </trkpt>
      <trkpt lat="43.80124" lon="5.57796">
        <ele>485.8</ele>
        <time>2022-08-24T06:24:26Z</time>
      </trkpt>
      <trkpt lat="43.80126" lon="5.5779">
        <ele>486.2</ele>
        <time>2022-08-24T06:24:28Z</time>
      </trkpt>
      <trkpt lat="43.80127" lon="5.57782">
        <ele>486.6</ele>
        <time>2022-08-24T06:24:31Z</time>
      </trkpt>
      <trkpt lat="43.80129" lon="5.57772">
        <ele>487.2</ele>
        <time>2022-08-24T06:24:34Z</time>
      </trkpt>
      <trkpt lat="43.80129" lon="5.57766">
        <ele>487.2</ele>
        <time>2022-08-24T06:24:36Z</time>
      </trkpt>
      <trkpt lat="43.80129" lon="5.57759">
        <ele>487</ele>
        <time>2022-08-24T06:24:38Z</time>
      </trkpt>
      <trkpt lat="43.80128" lon="5.57751">
        <ele>486.9</ele>
        <time>2022-08-24T06:24:41Z</time>
      </trkpt>
      <trkpt lat="43.80129" lon="5.57742">
        <ele>487.4</ele>
        <time>2022-08-24T06:24:44Z</time>
      </trkpt>
      <trkpt lat="43.80129" lon="5.57734">
        <ele>487.6</ele>
        <time>2022-08-24T06:24:47Z</time>
      </trkpt>
      <trkpt lat="43.8013" lon="5.57726">
        <ele>488.2</ele>
        <time>2022-08-24T06:24:50Z</time>
      </trkpt>
      <trkpt lat="43.80131" lon="5.57717">
        <ele>488.8</ele>
        <time>2022-08-24T06:24:53Z</time>
      </trkpt>
      <trkpt lat="43.80133" lon="5.57709">
        <ele>489.8</ele>
        <time>2022-08-24T06:24:56Z</time>
      </trkpt>
      <trkpt lat="43.80135" lon="5.57702">
        <ele>490.7</ele>
        <time>2022-08-24T06:24:59Z</time>
      </trkpt>
      <trkpt lat="43.80137" lon="5.57693">
        <ele>491.5</ele>
        <time>2022-08-24T06:25:02Z</time>
      </trkpt>
      <trkpt lat="43.80138" lon="5.57687">
        <ele>491.9</ele>
        <time>2022-08-24T06:25:04Z</time>
      </trkpt>
      <trkpt lat="43.8014" lon="5.57679">
        <ele>492.2</ele>
        <time>2022-08-24T06:25:07Z</time>
      </trkpt>
      <trkpt lat="43.8014" lon="5.57669">
        <ele>492.2</ele>
        <time>2022-08-24T06:25:10Z</time>
      </trkpt>
      <trkpt lat="43.80137" lon="5.57664">
        <ele>492.5</ele>
        <time>2022-08-24T06:25:12Z</time>
      </trkpt>
      <trkpt lat="43.80131" lon="5.57659">
        <ele>493.5</ele>
        <time>2022-08-24T06:25:15Z</time>
      </trkpt>
      <trkpt lat="43.80126" lon="5.57659">
        <ele>493.9</ele>
        <time>2022-08-24T06:25:17Z</time>
      </trkpt>
      <trkpt lat="43.8012" lon="5.57659">
        <ele>494.1</ele>
        <time>2022-08-24T06:25:20Z</time>
      </trkpt>
      <trkpt lat="43.80114" lon="5.5766">
        <ele>494.4</ele>
        <time>2022-08-24T06:25:23Z</time>
      </trkpt>
      <trkpt lat="43.80108" lon="5.57659">
        <ele>494.7</ele>
        <time>2022-08-24T06:25:26Z</time>
      </trkpt>
      <trkpt lat="43.80101" lon="5.57659">
        <ele>495</ele>
        <time>2022-08-24T06:25:29Z</time>
      </trkpt>
      <trkpt lat="43.80095" lon="5.57658">
        <ele>495.3</ele>
        <time>2022-08-24T06:25:32Z</time>
      </trkpt>
      <trkpt lat="43.8009" lon="5.57658">
        <ele>495.5</ele>
        <time>2022-08-24T06:25:34Z</time>
      </trkpt>
      <trkpt lat="43.80085" lon="5.57656">
        <ele>495.8</ele>
        <time>2022-08-24T06:25:36Z</time>
      </trkpt>
      <trkpt lat="43.80079" lon="5.57654">
        <ele>496.5</ele>
        <time>2022-08-24T06:25:39Z</time>
      </trkpt>
      <trkpt lat="43.80073" lon="5.57653">
        <ele>497.3</ele>
        <time>2022-08-24T06:25:42Z</time>
      </trkpt>
      <trkpt lat="43.80067" lon="5.57652">
        <ele>497.8</ele>
        <time>2022-08-24T06:25:45Z</time>
      </trkpt>
      <trkpt lat="43.8006" lon="5.57653">
        <ele>498.2</ele>
        <time>2022-08-24T06:25:48Z</time>
      </trkpt>
      <trkpt lat="43.80056" lon="5.57654">
        <ele>498.1</ele>
        <time>2022-08-24T06:25:50Z</time>
      </trkpt>
      <trkpt lat="43.80051" lon="5.57656">
        <ele>498.4</ele>
        <time>2022-08-24T06:25:52Z</time>
      </trkpt>
      <trkpt lat="43.80046" lon="5.57657">
        <ele>499</ele>
        <time>2022-08-24T06:25:55Z</time>
      </trkpt>
      <trkpt lat="43.8004" lon="5.57659">
        <ele>499.4</ele>
        <time>2022-08-24T06:25:58Z</time>
      </trkpt>
      <trkpt lat="43.80034" lon="5.57661">
        <ele>499.8</ele>
        <time>2022-08-24T06:26:01Z</time>
      </trkpt>
      <trkpt lat="43.80028" lon="5.57663">
        <ele>500.1</ele>
        <time>2022-08-24T06:26:04Z</time>
      </trkpt>
      <trkpt lat="43.80022" lon="5.57665">
        <ele>500.2</ele>
        <time>2022-08-24T06:26:07Z</time>
      </trkpt>
      <trkpt lat="43.80016" lon="5.57667">
        <ele>500.5</ele>
        <time>2022-08-24T06:26:10Z</time>
      </trkpt>
      <trkpt lat="43.8001" lon="5.5767">
        <ele>500.7</ele>
        <time>2022-08-24T06:26:13Z</time>
      </trkpt>
      <trkpt lat="43.80004" lon="5.57672">
        <ele>500.9</ele>
        <time>2022-08-24T06:26:16Z</time>
      </trkpt>
      <trkpt lat="43.79999" lon="5.57672">
        <ele>501.4</ele>
        <time>2022-08-24T06:26:18Z</time>
      </trkpt>
      <trkpt lat="43.79995" lon="5.57671">
        <ele>501.2</ele>
        <time>2022-08-24T06:26:20Z</time>
      </trkpt>
      <trkpt lat="43.79989" lon="5.57668">
        <ele>501.1</ele>
        <time>2022-08-24T06:26:23Z</time>
      </trkpt>
      <trkpt lat="43.79983" lon="5.57663">
        <ele>501.3</ele>
        <time>2022-08-24T06:26:26Z</time>
      </trkpt>
      <trkpt lat="43.79979" lon="5.57656">
        <ele>502</ele>
        <time>2022-08-24T06:26:29Z</time>
      </trkpt>
      <trkpt lat="43.79975" lon="5.57649">
        <ele>502.8</ele>
        <time>2022-08-24T06:26:32Z</time>
      </trkpt>
      <trkpt lat="43.79972" lon="5.57641">
        <ele>503.7</ele>
        <time>2022-08-24T06:26:35Z</time>
      </trkpt>
      <trkpt lat="43.79969" lon="5.57634">
        <ele>504.8</ele>
        <time>2022-08-24T06:26:38Z</time>
      </trkpt>
      <trkpt lat="43.79963" lon="5.57629">
        <ele>505.2</ele>
        <time>2022-08-24T06:26:41Z</time>
      </trkpt>
      <trkpt lat="43.79958" lon="5.57624">
        <ele>505.5</ele>
        <time>2022-08-24T06:26:44Z</time>
      </trkpt>
      <trkpt lat="43.79953" lon="5.57619">
        <ele>505.8</ele>
        <time>2022-08-24T06:26:47Z</time>
      </trkpt>
      <trkpt lat="43.79948" lon="5.57614">
        <ele>505.9</ele>
        <time>2022-08-24T06:26:50Z</time>
      </trkpt>
      <trkpt lat="43.79942" lon="5.5761">
        <ele>505.8</ele>
        <time>2022-08-24T06:26:53Z</time>
      </trkpt>
      <trkpt lat="43.79937" lon="5.57605">
        <ele>505.7</ele>
        <time>2022-08-24T06:26:56Z</time>
      </trkpt>
      <trkpt lat="43.79933" lon="5.57598">
        <ele>506</ele>
        <time>2022-08-24T06:26:59Z</time>
      </trkpt>
      <trkpt lat="43.7993" lon="5.57591">
        <ele>506.7</ele>
        <time>2022-08-24T06:27:02Z</time>
      </trkpt>
      <trkpt lat="43.79928" lon="5.57583">
        <ele>507.8</ele>
        <time>2022-08-24T06:27:05Z</time>
      </trkpt>
      <trkpt lat="43.79926" lon="5.57575">
        <ele>509.2</ele>
        <time>2022-08-24T06:27:08Z</time>
      </trkpt>
      <trkpt lat="43.79924" lon="5.57567">
        <ele>510.7</ele>
        <time>2022-08-24T06:27:11Z</time>
      </trkpt>
      <trkpt lat="43.7992" lon="5.57561">
        <ele>511.3</ele>
        <time>2022-08-24T06:27:14Z</time>
      </trkpt>
      <trkpt lat="43.79915" lon="5.57557">
        <ele>511.1</ele>
        <time>2022-08-24T06:27:17Z</time>
      </trkpt>
      <trkpt lat="43.7991" lon="5.57552">
        <ele>511.2</ele>
        <time>2022-08-24T06:27:20Z</time>
      </trkpt>
      <trkpt lat="43.79905" lon="5.57546">
        <ele>511.6</ele>
        <time>2022-08-24T06:27:23Z</time>
      </trkpt>
      <trkpt lat="43.79901" lon="5.57539">
        <ele>511.9</ele>
        <time>2022-08-24T06:27:26Z</time>
      </trkpt>
      <trkpt lat="43.79897" lon="5.57532">
        <ele>512.3</ele>
        <time>2022-08-24T06:27:29Z</time>
      </trkpt>
      <trkpt lat="43.79895" lon="5.57524">
        <ele>513</ele>
        <time>2022-08-24T06:27:32Z</time>
      </trkpt>
      <trkpt lat="43.79893" lon="5.57516">
        <ele>513.7</ele>
        <time>2022-08-24T06:27:35Z</time>
      </trkpt>
      <trkpt lat="43.79892" lon="5.57507">
        <ele>514.6</ele>
        <time>2022-08-24T06:27:38Z</time>
      </trkpt>
      <trkpt lat="43.7989" lon="5.57499">
        <ele>515.3</ele>
        <time>2022-08-24T06:27:41Z</time>
      </trkpt>
      <trkpt lat="43.79889" lon="5.57493">
        <ele>515.6</ele>
        <time>2022-08-24T06:27:43Z</time>
      </trkpt>
      <trkpt lat="43.7989" lon="5.57484">
        <ele>516.4</ele>
        <time>2022-08-24T06:27:46Z</time>
      </trkpt>
      <trkpt lat="43.79892" lon="5.57477">
        <ele>517.1</ele>
        <time>2022-08-24T06:27:49Z</time>
      </trkpt>
      <trkpt lat="43.79895" lon="5.57471">
        <ele>518</ele>
        <time>2022-08-24T06:27:52Z</time>
      </trkpt>
      <trkpt lat="43.79899" lon="5.57466">
        <ele>518.5</ele>
        <time>2022-08-24T06:27:55Z</time>
      </trkpt>
      <trkpt lat="43.79904" lon="5.57461">
        <ele>519.1</ele>
        <time>2022-08-24T06:27:58Z</time>
      </trkpt>
      <trkpt lat="43.79908" lon="5.57457">
        <ele>519.8</ele>
        <time>2022-08-24T06:28:01Z</time>
      </trkpt>
      <trkpt lat="43.79911" lon="5.57452">
        <ele>520.1</ele>
        <time>2022-08-24T06:28:03Z</time>
      </trkpt>
      <trkpt lat="43.79914" lon="5.57446">
        <ele>520.5</ele>
        <time>2022-08-24T06:28:05Z</time>
      </trkpt>
      <trkpt lat="43.79916" lon="5.57441">
        <ele>520.7</ele>
        <time>2022-08-24T06:28:07Z</time>
      </trkpt>
      <trkpt lat="43.7992" lon="5.57436">
        <ele>521.2</ele>
        <time>2022-08-24T06:28:09Z</time>
      </trkpt>
      <trkpt lat="43.79924" lon="5.5743">
        <ele>521.9</ele>
        <time>2022-08-24T06:28:12Z</time>
      </trkpt>
      <trkpt lat="43.79927" lon="5.57424">
        <ele>522.2</ele>
        <time>2022-08-24T06:28:14Z</time>
      </trkpt>
      <trkpt lat="43.7993" lon="5.57419">
        <ele>522.5</ele>
        <time>2022-08-24T06:28:16Z</time>
      </trkpt>
      <trkpt lat="43.79934" lon="5.57413">
        <ele>523</ele>
        <time>2022-08-24T06:28:19Z</time>
      </trkpt>
      <trkpt lat="43.79939" lon="5.57407">
        <ele>523.5</ele>
        <time>2022-08-24T06:28:22Z</time>
      </trkpt>
      <trkpt lat="43.79943" lon="5.57401">
        <ele>523.9</ele>
        <time>2022-08-24T06:28:25Z</time>
      </trkpt>
      <trkpt lat="43.79948" lon="5.57396">
        <ele>525.2</ele>
        <time>2022-08-24T06:28:28Z</time>
      </trkpt>
      <trkpt lat="43.79952" lon="5.57392">
        <ele>526.2</ele>
        <time>2022-08-24T06:28:30Z</time>
      </trkpt>
      <trkpt lat="43.79956" lon="5.57384">
        <ele>526.3</ele>
        <time>2022-08-24T06:28:33Z</time>
      </trkpt>
      <trkpt lat="43.7996" lon="5.57378">
        <ele>526.1</ele>
        <time>2022-08-24T06:28:36Z</time>
      </trkpt>
      <trkpt lat="43.79963" lon="5.57373">
        <ele>526.1</ele>
        <time>2022-08-24T06:28:38Z</time>
      </trkpt>
      <trkpt lat="43.79966" lon="5.57366">
        <ele>526</ele>
        <time>2022-08-24T06:28:41Z</time>
      </trkpt>
      <trkpt lat="43.79971" lon="5.57362">
        <ele>526.8</ele>
        <time>2022-08-24T06:28:44Z</time>
      </trkpt>
      <trkpt lat="43.79976" lon="5.57358">
        <ele>527.7</ele>
        <time>2022-08-24T06:28:47Z</time>
      </trkpt>
      <trkpt lat="43.79981" lon="5.57353">
        <ele>528.4</ele>
        <time>2022-08-24T06:28:50Z</time>
      </trkpt>
      <trkpt lat="43.79985" lon="5.57349">
        <ele>529.3</ele>
        <time>2022-08-24T06:28:53Z</time>
      </trkpt>
      <trkpt lat="43.79989" lon="5.57344">
        <ele>529.8</ele>
        <time>2022-08-24T06:28:56Z</time>
      </trkpt>
      <trkpt lat="43.79994" lon="5.57338">
        <ele>530.5</ele>
        <time>2022-08-24T06:28:59Z</time>
      </trkpt>
      <trkpt lat="43.79998" lon="5.57333">
        <ele>531.1</ele>
        <time>2022-08-24T06:29:02Z</time>
      </trkpt>
      <trkpt lat="43.80004" lon="5.57328">
        <ele>531.6</ele>
        <time>2022-08-24T06:29:05Z</time>
      </trkpt>
      <trkpt lat="43.80009" lon="5.57325">
        <ele>532.1</ele>
        <time>2022-08-24T06:29:07Z</time>
      </trkpt>
      <trkpt lat="43.80014" lon="5.57321">
        <ele>532.7</ele>
        <time>2022-08-24T06:29:10Z</time>
      </trkpt>
      <trkpt lat="43.8002" lon="5.57317">
        <ele>533.4</ele>
        <time>2022-08-24T06:29:13Z</time>
      </trkpt>
      <trkpt lat="43.80024" lon="5.57314">
        <ele>533.9</ele>
        <time>2022-08-24T06:29:15Z</time>
      </trkpt>
      <trkpt lat="43.80029" lon="5.57309">
        <ele>534.3</ele>
        <time>2022-08-24T06:29:18Z</time>
      </trkpt>
      <trkpt lat="43.80033" lon="5.57303">
        <ele>534.2</ele>
        <time>2022-08-24T06:29:21Z</time>
      </trkpt>
      <trkpt lat="43.80037" lon="5.57297">
        <ele>534.6</ele>
        <time>2022-08-24T06:29:24Z</time>
      </trkpt>
      <trkpt lat="43.80042" lon="5.57293">
        <ele>535.2</ele>
        <time>2022-08-24T06:29:27Z</time>
      </trkpt>
      <trkpt lat="43.80048" lon="5.57288">
        <ele>535.7</ele>
        <time>2022-08-24T06:29:30Z</time>
      </trkpt>
      <trkpt lat="43.80053" lon="5.57285">
        <ele>536.3</ele>
        <time>2022-08-24T06:29:33Z</time>
      </trkpt>
      <trkpt lat="43.80059" lon="5.57283">
        <ele>536.9</ele>
        <time>2022-08-24T06:29:36Z</time>
      </trkpt>
      <trkpt lat="43.80065" lon="5.57282">
        <ele>537.7</ele>
        <time>2022-08-24T06:29:39Z</time>
      </trkpt>
      <trkpt lat="43.80071" lon="5.5728">
        <ele>538.4</ele>
        <time>2022-08-24T06:29:42Z</time>
      </trkpt>
      <trkpt lat="43.80077" lon="5.57277">
        <ele>538.7</ele>
        <time>2022-08-24T06:29:45Z</time>
      </trkpt>
      <trkpt lat="43.80084" lon="5.57274">
        <ele>538.9</ele>
        <time>2022-08-24T06:29:48Z</time>
      </trkpt>
      <trkpt lat="43.80089" lon="5.57271">
        <ele>539</ele>
        <time>2022-08-24T06:29:51Z</time>
      </trkpt>
      <trkpt lat="43.80095" lon="5.5727">
        <ele>539.9</ele>
        <time>2022-08-24T06:29:54Z</time>
      </trkpt>
      <trkpt lat="43.80101" lon="5.5727">
        <ele>540.8</ele>
        <time>2022-08-24T06:29:57Z</time>
      </trkpt>
      <trkpt lat="43.80106" lon="5.57269">
        <ele>541.5</ele>
        <time>2022-08-24T06:30:00Z</time>
      </trkpt>
      <trkpt lat="43.80111" lon="5.57267">
        <ele>541.9</ele>
        <time>2022-08-24T06:30:03Z</time>
      </trkpt>
      <trkpt lat="43.80116" lon="5.57266">
        <ele>542.1</ele>
        <time>2022-08-24T06:30:06Z</time>
      </trkpt>
      <trkpt lat="43.80122" lon="5.57264">
        <ele>542.2</ele>
        <time>2022-08-24T06:30:09Z</time>
      </trkpt>
      <trkpt lat="43.80128" lon="5.57263">
        <ele>542.6</ele>
        <time>2022-08-24T06:30:12Z</time>
      </trkpt>
      <trkpt lat="43.80134" lon="5.57263">
        <ele>543.2</ele>
        <time>2022-08-24T06:30:15Z</time>
      </trkpt>
      <trkpt lat="43.8014" lon="5.57263">
        <ele>543.8</ele>
        <time>2022-08-24T06:30:18Z</time>
      </trkpt>
      <trkpt lat="43.80146" lon="5.57264">
        <ele>544.4</ele>
        <time>2022-08-24T06:30:21Z</time>
      </trkpt>
      <trkpt lat="43.80152" lon="5.57266">
        <ele>544.9</ele>
        <time>2022-08-24T06:30:24Z</time>
      </trkpt>
      <trkpt lat="43.80157" lon="5.57267">
        <ele>545.5</ele>
        <time>2022-08-24T06:30:26Z</time>
      </trkpt>
      <trkpt lat="43.80163" lon="5.57267">
        <ele>545.7</ele>
        <time>2022-08-24T06:30:29Z</time>
      </trkpt>
      <trkpt lat="43.80169" lon="5.57267">
        <ele>545.9</ele>
        <time>2022-08-24T06:30:32Z</time>
      </trkpt>
      <trkpt lat="43.80174" lon="5.57267">
        <ele>546.2</ele>
        <time>2022-08-24T06:30:35Z</time>
      </trkpt>
      <trkpt lat="43.8018" lon="5.57268">
        <ele>546.7</ele>
        <time>2022-08-24T06:30:38Z</time>
      </trkpt>
      <trkpt lat="43.80186" lon="5.57269">
        <ele>547.1</ele>
        <time>2022-08-24T06:30:41Z</time>
      </trkpt>
      <trkpt lat="43.80192" lon="5.57269">
        <ele>547.5</ele>
        <time>2022-08-24T06:30:44Z</time>
      </trkpt>
      <trkpt lat="43.80198" lon="5.5727">
        <ele>548</ele>
        <time>2022-08-24T06:30:47Z</time>
      </trkpt>
      <trkpt lat="43.80204" lon="5.57272">
        <ele>548.7</ele>
        <time>2022-08-24T06:30:50Z</time>
      </trkpt>
      <trkpt lat="43.80209" lon="5.57274">
        <ele>549.5</ele>
        <time>2022-08-24T06:30:53Z</time>
      </trkpt>
      <trkpt lat="43.80216" lon="5.57276">
        <ele>550.3</ele>
        <time>2022-08-24T06:30:56Z</time>
      </trkpt>
      <trkpt lat="43.80221" lon="5.57278">
        <ele>551.1</ele>
        <time>2022-08-24T06:30:59Z</time>
      </trkpt>
      <trkpt lat="43.80227" lon="5.57282">
        <ele>552.2</ele>
        <time>2022-08-24T06:31:02Z</time>
      </trkpt>
      <trkpt lat="43.80233" lon="5.57285">
        <ele>553</ele>
        <time>2022-08-24T06:31:05Z</time>
      </trkpt>
      <trkpt lat="43.8024" lon="5.57288">
        <ele>553.4</ele>
        <time>2022-08-24T06:31:08Z</time>
      </trkpt>
      <trkpt lat="43.80244" lon="5.57288">
        <ele>553.4</ele>
        <time>2022-08-24T06:31:10Z</time>
      </trkpt>
      <trkpt lat="43.8025" lon="5.57286">
        <ele>553.3</ele>
        <time>2022-08-24T06:31:13Z</time>
      </trkpt>
      <trkpt lat="43.80256" lon="5.57282">
        <ele>554.5</ele>
        <time>2022-08-24T06:31:16Z</time>
      </trkpt>
      <trkpt lat="43.8026" lon="5.57276">
        <ele>555.2</ele>
        <time>2022-08-24T06:31:19Z</time>
      </trkpt>
      <trkpt lat="43.80264" lon="5.5727">
        <ele>555.5</ele>
        <time>2022-08-24T06:31:22Z</time>
      </trkpt>
      <trkpt lat="43.80269" lon="5.57265">
        <ele>555.8</ele>
        <time>2022-08-24T06:31:25Z</time>
      </trkpt>
      <trkpt lat="43.80274" lon="5.57262">
        <ele>556.4</ele>
        <time>2022-08-24T06:31:28Z</time>
      </trkpt>
      <trkpt lat="43.8028" lon="5.57258">
        <ele>556.9</ele>
        <time>2022-08-24T06:31:31Z</time>
      </trkpt>
      <trkpt lat="43.80285" lon="5.57254">
        <ele>557.4</ele>
        <time>2022-08-24T06:31:34Z</time>
      </trkpt>
      <trkpt lat="43.80291" lon="5.57251">
        <ele>557.9</ele>
        <time>2022-08-24T06:31:37Z</time>
      </trkpt>
      <trkpt lat="43.80296" lon="5.57248">
        <ele>558.7</ele>
        <time>2022-08-24T06:31:40Z</time>
      </trkpt>
      <trkpt lat="43.80302" lon="5.57246">
        <ele>559.6</ele>
        <time>2022-08-24T06:31:43Z</time>
      </trkpt>
      <trkpt lat="43.80307" lon="5.57242">
        <ele>560.2</ele>
        <time>2022-08-24T06:31:46Z</time>
      </trkpt>
      <trkpt lat="43.80314" lon="5.5724">
        <ele>561</ele>
        <time>2022-08-24T06:31:49Z</time>
      </trkpt>
      <trkpt lat="43.8032" lon="5.57236">
        <ele>561.6</ele>
        <time>2022-08-24T06:31:52Z</time>
      </trkpt>
      <trkpt lat="43.80324" lon="5.57233">
        <ele>561.9</ele>
        <time>2022-08-24T06:31:54Z</time>
      </trkpt>
      <trkpt lat="43.80329" lon="5.57228">
        <ele>562</ele>
        <time>2022-08-24T06:31:57Z</time>
      </trkpt>
      <trkpt lat="43.80332" lon="5.57223">
        <ele>561.9</ele>
        <time>2022-08-24T06:31:59Z</time>
      </trkpt>
      <trkpt lat="43.80335" lon="5.57216">
        <ele>562.6</ele>
        <time>2022-08-24T06:32:02Z</time>
      </trkpt>
      <trkpt lat="43.80337" lon="5.57209">
        <ele>563</ele>
        <time>2022-08-24T06:32:05Z</time>
      </trkpt>
      <trkpt lat="43.80338" lon="5.57199">
        <ele>563.2</ele>
        <time>2022-08-24T06:32:08Z</time>
      </trkpt>
      <trkpt lat="43.80341" lon="5.57192">
        <ele>563.6</ele>
        <time>2022-08-24T06:32:11Z</time>
      </trkpt>
      <trkpt lat="43.80346" lon="5.57187">
        <ele>564</ele>
        <time>2022-08-24T06:32:14Z</time>
      </trkpt>
      <trkpt lat="43.80351" lon="5.57182">
        <ele>564.3</ele>
        <time>2022-08-24T06:32:17Z</time>
      </trkpt>
      <trkpt lat="43.80356" lon="5.57179">
        <ele>564.5</ele>
        <time>2022-08-24T06:32:20Z</time>
      </trkpt>
      <trkpt lat="43.80362" lon="5.57177">
        <ele>564.9</ele>
        <time>2022-08-24T06:32:23Z</time>
      </trkpt>
      <trkpt lat="43.80368" lon="5.57178">
        <ele>565.9</ele>
        <time>2022-08-24T06:32:26Z</time>
      </trkpt>
      <trkpt lat="43.80373" lon="5.57181">
        <ele>567</ele>
        <time>2022-08-24T06:32:29Z</time>
      </trkpt>
      <trkpt lat="43.80379" lon="5.57184">
        <ele>568.1</ele>
        <time>2022-08-24T06:32:32Z</time>
      </trkpt>
      <trkpt lat="43.80383" lon="5.57184">
        <ele>568.6</ele>
        <time>2022-08-24T06:32:34Z</time>
      </trkpt>
      <trkpt lat="43.80388" lon="5.57183">
        <ele>569.1</ele>
        <time>2022-08-24T06:32:36Z</time>
      </trkpt>
      <trkpt lat="43.80394" lon="5.57178">
        <ele>570.4</ele>
        <time>2022-08-24T06:32:39Z</time>
      </trkpt>
      <trkpt lat="43.80396" lon="5.5717">
        <ele>570.9</ele>
        <time>2022-08-24T06:32:42Z</time>
      </trkpt>
      <trkpt lat="43.80395" lon="5.57161">
        <ele>570.1</ele>
        <time>2022-08-24T06:32:45Z</time>
      </trkpt>
      <trkpt lat="43.80395" lon="5.57152">
        <ele>569.6</ele>
        <time>2022-08-24T06:32:48Z</time>
      </trkpt>
      <trkpt lat="43.80397" lon="5.57145">
        <ele>569.8</ele>
        <time>2022-08-24T06:32:51Z</time>
      </trkpt>
      <trkpt lat="43.80401" lon="5.57138">
        <ele>570.8</ele>
        <time>2022-08-24T06:32:54Z</time>
      </trkpt>
      <trkpt lat="43.80405" lon="5.57133">
        <ele>570.4</ele>
        <time>2022-08-24T06:32:57Z</time>
      </trkpt>
      <trkpt lat="43.8041" lon="5.57129">
        <ele>570.7</ele>
        <time>2022-08-24T06:33:00Z</time>
      </trkpt>
      <trkpt lat="43.80416" lon="5.57127">
        <ele>571.5</ele>
        <time>2022-08-24T06:33:03Z</time>
      </trkpt>
      <trkpt lat="43.80422" lon="5.57125">
        <ele>571.1</ele>
        <time>2022-08-24T06:33:06Z</time>
      </trkpt>
      <trkpt lat="43.80429" lon="5.57125">
        <ele>571.2</ele>
        <time>2022-08-24T06:33:09Z</time>
      </trkpt>
      <trkpt lat="43.80435" lon="5.57126">
        <ele>571.9</ele>
        <time>2022-08-24T06:33:12Z</time>
      </trkpt>
      <trkpt lat="43.80441" lon="5.57128">
        <ele>572.8</ele>
        <time>2022-08-24T06:33:15Z</time>
      </trkpt>
      <trkpt lat="43.80446" lon="5.57131">
        <ele>573.9</ele>
        <time>2022-08-24T06:33:18Z</time>
      </trkpt>
      <trkpt lat="43.80451" lon="5.57136">
        <ele>575.6</ele>
        <time>2022-08-24T06:33:21Z</time>
      </trkpt>
      <trkpt lat="43.80456" lon="5.57141">
        <ele>577.1</ele>
        <time>2022-08-24T06:33:24Z</time>
      </trkpt>
      <trkpt lat="43.80462" lon="5.57146">
        <ele>578.4</ele>
        <time>2022-08-24T06:33:27Z</time>
      </trkpt>
      <trkpt lat="43.80468" lon="5.57148">
        <ele>578.5</ele>
        <time>2022-08-24T06:33:30Z</time>
      </trkpt>
      <trkpt lat="43.80472" lon="5.5715">
        <ele>578.7</ele>
        <time>2022-08-24T06:33:32Z</time>
      </trkpt>
      <trkpt lat="43.80477" lon="5.57151">
        <ele>580.7</ele>
        <time>2022-08-24T06:33:34Z</time>
      </trkpt>
      <trkpt lat="43.80482" lon="5.57148">
        <ele>581.3</ele>
        <time>2022-08-24T06:33:36Z</time>
      </trkpt>
      <trkpt lat="43.80486" lon="5.57142">
        <ele>580.7</ele>
        <time>2022-08-24T06:33:39Z</time>
      </trkpt>
      <trkpt lat="43.80491" lon="5.57137">
        <ele>580.2</ele>
        <time>2022-08-24T06:33:42Z</time>
      </trkpt>
      <trkpt lat="43.80495" lon="5.57133">
        <ele>580.4</ele>
        <time>2022-08-24T06:33:45Z</time>
      </trkpt>
      <trkpt lat="43.805" lon="5.57129">
        <ele>580.9</ele>
        <time>2022-08-24T06:33:48Z</time>
      </trkpt>
      <trkpt lat="43.80506" lon="5.57126">
        <ele>581.8</ele>
        <time>2022-08-24T06:33:51Z</time>
      </trkpt>
      <trkpt lat="43.80511" lon="5.57122">
        <ele>582.2</ele>
        <time>2022-08-24T06:33:54Z</time>
      </trkpt>
      <trkpt lat="43.80516" lon="5.57118">
        <ele>582.2</ele>
        <time>2022-08-24T06:33:57Z</time>
      </trkpt>
      <trkpt lat="43.8052" lon="5.57112">
        <ele>581.7</ele>
        <time>2022-08-24T06:34:00Z</time>
      </trkpt>
      <trkpt lat="43.80524" lon="5.57108">
        <ele>582.4</ele>
        <time>2022-08-24T06:34:03Z</time>
      </trkpt>
      <trkpt lat="43.80528" lon="5.57102">
        <ele>583.1</ele>
        <time>2022-08-24T06:34:06Z</time>
      </trkpt>
      <trkpt lat="43.80531" lon="5.57094">
        <ele>583.6</ele>
        <time>2022-08-24T06:34:09Z</time>
      </trkpt>
      <trkpt lat="43.80533" lon="5.57086">
        <ele>583.6</ele>
        <time>2022-08-24T06:34:12Z</time>
      </trkpt>
      <trkpt lat="43.80533" lon="5.57077">
        <ele>584.1</ele>
        <time>2022-08-24T06:34:15Z</time>
      </trkpt>
      <trkpt lat="43.80533" lon="5.57069">
        <ele>584.4</ele>
        <time>2022-08-24T06:34:18Z</time>
      </trkpt>
      <trkpt lat="43.80531" lon="5.57061">
        <ele>583.6</ele>
        <time>2022-08-24T06:34:21Z</time>
      </trkpt>
      <trkpt lat="43.80531" lon="5.57053">
        <ele>584.2</ele>
        <time>2022-08-24T06:34:24Z</time>
      </trkpt>
      <trkpt lat="43.8053" lon="5.57045">
        <ele>584.7</ele>
        <time>2022-08-24T06:34:27Z</time>
      </trkpt>
      <trkpt lat="43.8053" lon="5.57036">
        <ele>585.4</ele>
        <time>2022-08-24T06:34:30Z</time>
      </trkpt>
      <trkpt lat="43.80529" lon="5.57028">
        <ele>585.7</ele>
        <time>2022-08-24T06:34:33Z</time>
      </trkpt>
      <trkpt lat="43.80529" lon="5.57019">
        <ele>586.4</ele>
        <time>2022-08-24T06:34:36Z</time>
      </trkpt>
      <trkpt lat="43.80528" lon="5.57011">
        <ele>586.6</ele>
        <time>2022-08-24T06:34:39Z</time>
      </trkpt>
      <trkpt lat="43.80528" lon="5.57002">
        <ele>587.2</ele>
        <time>2022-08-24T06:34:42Z</time>
      </trkpt>
      <trkpt lat="43.80528" lon="5.56993">
        <ele>588</ele>
        <time>2022-08-24T06:34:45Z</time>
      </trkpt>
      <trkpt lat="43.80528" lon="5.56984">
        <ele>589</ele>
        <time>2022-08-24T06:34:48Z</time>
      </trkpt>
      <trkpt lat="43.80528" lon="5.56977">
        <ele>589.5</ele>
        <time>2022-08-24T06:34:51Z</time>
      </trkpt>
      <trkpt lat="43.80526" lon="5.56969">
        <ele>590.1</ele>
        <time>2022-08-24T06:34:54Z</time>
      </trkpt>
      <trkpt lat="43.80525" lon="5.5696">
        <ele>590.5</ele>
        <time>2022-08-24T06:34:57Z</time>
      </trkpt>
      <trkpt lat="43.80523" lon="5.56953">
        <ele>590.7</ele>
        <time>2022-08-24T06:35:00Z</time>
      </trkpt>
      <trkpt lat="43.80523" lon="5.56945">
        <ele>591.1</ele>
        <time>2022-08-24T06:35:03Z</time>
      </trkpt>
      <trkpt lat="43.80524" lon="5.56936">
        <ele>592</ele>
        <time>2022-08-24T06:35:06Z</time>
      </trkpt>
      <trkpt lat="43.80525" lon="5.56929">
        <ele>592.7</ele>
        <time>2022-08-24T06:35:08Z</time>
      </trkpt>
      <trkpt lat="43.80527" lon="5.5692">
        <ele>593.5</ele>
        <time>2022-08-24T06:35:11Z</time>
      </trkpt>
      <trkpt lat="43.80529" lon="5.56912">
        <ele>594.1</ele>
        <time>2022-08-24T06:35:14Z</time>
      </trkpt>
      <trkpt lat="43.80531" lon="5.56904">
        <ele>594.4</ele>
        <time>2022-08-24T06:35:17Z</time>
      </trkpt>
      <trkpt lat="43.80534" lon="5.56897">
        <ele>594.9</ele>
        <time>2022-08-24T06:35:20Z</time>
      </trkpt>
      <trkpt lat="43.80538" lon="5.5689">
        <ele>595.7</ele>
        <time>2022-08-24T06:35:23Z</time>
      </trkpt>
      <trkpt lat="43.80543" lon="5.56884">
        <ele>596.7</ele>
        <time>2022-08-24T06:35:26Z</time>
      </trkpt>
      <trkpt lat="43.80548" lon="5.56879">
        <ele>597.9</ele>
        <time>2022-08-24T06:35:29Z</time>
      </trkpt>
      <trkpt lat="43.80555" lon="5.56877">
        <ele>599.9</ele>
        <time>2022-08-24T06:35:32Z</time>
      </trkpt>
      <trkpt lat="43.80559" lon="5.56875">
        <ele>601.4</ele>
        <time>2022-08-24T06:35:34Z</time>
      </trkpt>
      <trkpt lat="43.80564" lon="5.56869">
        <ele>602.4</ele>
        <time>2022-08-24T06:35:37Z</time>
      </trkpt>
      <trkpt lat="43.80565" lon="5.5686">
        <ele>601.6</ele>
        <time>2022-08-24T06:35:40Z</time>
      </trkpt>
      <trkpt lat="43.80563" lon="5.56854">
        <ele>601.7</ele>
        <time>2022-08-24T06:35:42Z</time>
      </trkpt>
      <trkpt lat="43.8056" lon="5.56846">
        <ele>601.1</ele>
        <time>2022-08-24T06:35:45Z</time>
      </trkpt>
      <trkpt lat="43.80558" lon="5.56837">
        <ele>600.9</ele>
        <time>2022-08-24T06:35:48Z</time>
      </trkpt>
      <trkpt lat="43.8056" lon="5.56829">
        <ele>601.7</ele>
        <time>2022-08-24T06:35:51Z</time>
      </trkpt>
      <trkpt lat="43.80562" lon="5.56821">
        <ele>602.2</ele>
        <time>2022-08-24T06:35:54Z</time>
      </trkpt>
      <trkpt lat="43.80565" lon="5.56814">
        <ele>603</ele>
        <time>2022-08-24T06:35:57Z</time>
      </trkpt>
      <trkpt lat="43.80569" lon="5.56807">
        <ele>604</ele>
        <time>2022-08-24T06:36:00Z</time>
      </trkpt>
      <trkpt lat="43.80573" lon="5.56801">
        <ele>604.9</ele>
        <time>2022-08-24T06:36:03Z</time>
      </trkpt>
      <trkpt lat="43.80578" lon="5.56795">
        <ele>606</ele>
        <time>2022-08-24T06:36:06Z</time>
      </trkpt>
      <trkpt lat="43.80581" lon="5.5679">
        <ele>606.8</ele>
        <time>2022-08-24T06:36:08Z</time>
      </trkpt>
      <trkpt lat="43.80583" lon="5.56784">
        <ele>607.4</ele>
        <time>2022-08-24T06:36:10Z</time>
      </trkpt>
      <trkpt lat="43.80585" lon="5.56776">
        <ele>607.5</ele>
        <time>2022-08-24T06:36:13Z</time>
      </trkpt>
      <trkpt lat="43.80587" lon="5.56768">
        <ele>607.6</ele>
        <time>2022-08-24T06:36:16Z</time>
      </trkpt>
      <trkpt lat="43.80591" lon="5.5676">
        <ele>608.1</ele>
        <time>2022-08-24T06:36:19Z</time>
      </trkpt>
      <trkpt lat="43.80594" lon="5.56754">
        <ele>608.5</ele>
        <time>2022-08-24T06:36:22Z</time>
      </trkpt>
      <trkpt lat="43.80597" lon="5.56747">
        <ele>608.5</ele>
        <time>2022-08-24T06:36:25Z</time>
      </trkpt>
      <trkpt lat="43.80601" lon="5.5674">
        <ele>608.8</ele>
        <time>2022-08-24T06:36:28Z</time>
      </trkpt>
      <trkpt lat="43.80604" lon="5.56733">
        <ele>609</ele>
        <time>2022-08-24T06:36:31Z</time>
      </trkpt>
      <trkpt lat="43.80607" lon="5.56728">
        <ele>609.1</ele>
        <time>2022-08-24T06:36:33Z</time>
      </trkpt>
      <trkpt lat="43.80611" lon="5.56722">
        <ele>609.9</ele>
        <time>2022-08-24T06:36:36Z</time>
      </trkpt>
      <trkpt lat="43.80615" lon="5.56715">
        <ele>610.9</ele>
        <time>2022-08-24T06:36:39Z</time>
      </trkpt>
      <trkpt lat="43.80617" lon="5.56709">
        <ele>611.2</ele>
        <time>2022-08-24T06:36:42Z</time>
      </trkpt>
      <trkpt lat="43.8062" lon="5.56702">
        <ele>611.7</ele>
        <time>2022-08-24T06:36:45Z</time>
      </trkpt>
      <trkpt lat="43.80623" lon="5.56694">
        <ele>611.7</ele>
        <time>2022-08-24T06:36:48Z</time>
      </trkpt>
      <trkpt lat="43.80624" lon="5.56687">
        <ele>611.9</ele>
        <time>2022-08-24T06:36:51Z</time>
      </trkpt>
      <trkpt lat="43.80625" lon="5.56679">
        <ele>612.2</ele>
        <time>2022-08-24T06:36:54Z</time>
      </trkpt>
      <trkpt lat="43.80628" lon="5.56672">
        <ele>613</ele>
        <time>2022-08-24T06:36:57Z</time>
      </trkpt>
      <trkpt lat="43.80633" lon="5.56666">
        <ele>614.3</ele>
        <time>2022-08-24T06:37:00Z</time>
      </trkpt>
      <trkpt lat="43.80638" lon="5.56661">
        <ele>615.5</ele>
        <time>2022-08-24T06:37:03Z</time>
      </trkpt>
      <trkpt lat="43.80641" lon="5.56653">
        <ele>616.4</ele>
        <time>2022-08-24T06:37:06Z</time>
      </trkpt>
      <trkpt lat="43.80643" lon="5.56646">
        <ele>617</ele>
        <time>2022-08-24T06:37:09Z</time>
      </trkpt>
      <trkpt lat="43.80645" lon="5.56639">
        <ele>617.6</ele>
        <time>2022-08-24T06:37:12Z</time>
      </trkpt>
      <trkpt lat="43.80647" lon="5.56631">
        <ele>618.3</ele>
        <time>2022-08-24T06:37:15Z</time>
      </trkpt>
      <trkpt lat="43.80649" lon="5.56623">
        <ele>618.5</ele>
        <time>2022-08-24T06:37:18Z</time>
      </trkpt>
      <trkpt lat="43.80652" lon="5.56616">
        <ele>619</ele>
        <time>2022-08-24T06:37:21Z</time>
      </trkpt>
      <trkpt lat="43.80653" lon="5.56608">
        <ele>619.1</ele>
        <time>2022-08-24T06:37:24Z</time>
      </trkpt>
      <trkpt lat="43.80655" lon="5.56602">
        <ele>619.8</ele>
        <time>2022-08-24T06:37:27Z</time>
      </trkpt>
      <trkpt lat="43.80656" lon="5.56594">
        <ele>620.4</ele>
        <time>2022-08-24T06:37:30Z</time>
      </trkpt>
      <trkpt lat="43.80658" lon="5.56588">
        <ele>621.1</ele>
        <time>2022-08-24T06:37:32Z</time>
      </trkpt>
      <trkpt lat="43.8066" lon="5.56581">
        <ele>621.9</ele>
        <time>2022-08-24T06:37:35Z</time>
      </trkpt>
      <trkpt lat="43.80663" lon="5.56573">
        <ele>622.7</ele>
        <time>2022-08-24T06:37:38Z</time>
      </trkpt>
      <trkpt lat="43.80665" lon="5.56565">
        <ele>623.6</ele>
        <time>2022-08-24T06:37:41Z</time>
      </trkpt>
      <trkpt lat="43.80669" lon="5.56558">
        <ele>624.4</ele>
        <time>2022-08-24T06:37:44Z</time>
      </trkpt>
      <trkpt lat="43.80674" lon="5.56553">
        <ele>624.5</ele>
        <time>2022-08-24T06:37:47Z</time>
      </trkpt>
      <trkpt lat="43.8068" lon="5.5655">
        <ele>624.8</ele>
        <time>2022-08-24T06:37:50Z</time>
      </trkpt>
      <trkpt lat="43.80685" lon="5.56551">
        <ele>625.9</ele>
        <time>2022-08-24T06:37:52Z</time>
      </trkpt>
      <trkpt lat="43.80691" lon="5.56552">
        <ele>627.3</ele>
        <time>2022-08-24T06:37:55Z</time>
      </trkpt>
      <trkpt lat="43.80696" lon="5.56551">
        <ele>628.1</ele>
        <time>2022-08-24T06:37:58Z</time>
      </trkpt>
      <trkpt lat="43.80706" lon="5.56548">
        <ele>629.1</ele>
        <time>2022-08-24T06:38:03Z</time>
      </trkpt>
      <trkpt lat="43.80711" lon="5.56547">
        <ele>629.6</ele>
        <time>2022-08-24T06:38:05Z</time>
      </trkpt>
      <trkpt lat="43.80716" lon="5.56544">
        <ele>630.4</ele>
        <time>2022-08-24T06:38:08Z</time>
      </trkpt>
      <trkpt lat="43.80721" lon="5.56539">
        <ele>631</ele>
        <time>2022-08-24T06:38:11Z</time>
      </trkpt>
      <trkpt lat="43.80722" lon="5.56531">
        <ele>631</ele>
        <time>2022-08-24T06:38:14Z</time>
      </trkpt>
      <trkpt lat="43.80721" lon="5.56523">
        <ele>630.7</ele>
        <time>2022-08-24T06:38:17Z</time>
      </trkpt>
      <trkpt lat="43.80719" lon="5.56515">
        <ele>630.6</ele>
        <time>2022-08-24T06:38:20Z</time>
      </trkpt>
      <trkpt lat="43.8072" lon="5.56507">
        <ele>631.3</ele>
        <time>2022-08-24T06:38:23Z</time>
      </trkpt>
      <trkpt lat="43.80724" lon="5.56501">
        <ele>632.6</ele>
        <time>2022-08-24T06:38:26Z</time>
      </trkpt>
      <trkpt lat="43.8073" lon="5.56497">
        <ele>633.8</ele>
        <time>2022-08-24T06:38:29Z</time>
      </trkpt>
      <trkpt lat="43.80735" lon="5.56495">
        <ele>635.3</ele>
        <time>2022-08-24T06:38:32Z</time>
      </trkpt>
      <trkpt lat="43.8074" lon="5.56492">
        <ele>636.2</ele>
        <time>2022-08-24T06:38:35Z</time>
      </trkpt>
      <trkpt lat="43.80744" lon="5.56486">
        <ele>636.2</ele>
        <time>2022-08-24T06:38:37Z</time>
      </trkpt>
      <trkpt lat="43.80746" lon="5.56478">
        <ele>634.9</ele>
        <time>2022-08-24T06:38:39Z</time>
      </trkpt>
      <trkpt lat="43.80745" lon="5.56468">
        <ele>634.2</ele>
        <time>2022-08-24T06:38:41Z</time>
      </trkpt>
      <trkpt lat="43.80742" lon="5.56461">
        <ele>634.8</ele>
        <time>2022-08-24T06:38:43Z</time>
      </trkpt>
      <trkpt lat="43.80739" lon="5.56454">
        <ele>635.1</ele>
        <time>2022-08-24T06:38:45Z</time>
      </trkpt>
      <trkpt lat="43.80735" lon="5.56447">
        <ele>635.3</ele>
        <time>2022-08-24T06:38:47Z</time>
      </trkpt>
      <trkpt lat="43.80733" lon="5.56441">
        <ele>635.6</ele>
        <time>2022-08-24T06:38:49Z</time>
      </trkpt>
      <trkpt lat="43.8073" lon="5.56436">
        <ele>635.7</ele>
        <time>2022-08-24T06:38:51Z</time>
      </trkpt>
      <trkpt lat="43.80726" lon="5.5643">
        <ele>635.7</ele>
        <time>2022-08-24T06:38:54Z</time>
      </trkpt>
      <trkpt lat="43.80723" lon="5.56422">
        <ele>636.2</ele>
        <time>2022-08-24T06:38:57Z</time>
      </trkpt>
      <trkpt lat="43.80721" lon="5.56415">
        <ele>636.9</ele>
        <time>2022-08-24T06:39:00Z</time>
      </trkpt>
      <trkpt lat="43.80719" lon="5.56406">
        <ele>637.6</ele>
        <time>2022-08-24T06:39:03Z</time>
      </trkpt>
      <trkpt lat="43.80717" lon="5.56399">
        <ele>638.2</ele>
        <time>2022-08-24T06:39:06Z</time>
      </trkpt>
      <trkpt lat="43.80715" lon="5.56391">
        <ele>638.9</ele>
        <time>2022-08-24T06:39:09Z</time>
      </trkpt>
      <trkpt lat="43.80714" lon="5.56383">
        <ele>639.8</ele>
        <time>2022-08-24T06:39:12Z</time>
      </trkpt>
      <trkpt lat="43.80713" lon="5.56375">
        <ele>640.4</ele>
        <time>2022-08-24T06:39:15Z</time>
      </trkpt>
      <trkpt lat="43.80711" lon="5.56367">
        <ele>641</ele>
        <time>2022-08-24T06:39:18Z</time>
      </trkpt>
      <trkpt lat="43.8071" lon="5.56359">
        <ele>641.8</ele>
        <time>2022-08-24T06:39:21Z</time>
      </trkpt>
      <trkpt lat="43.80709" lon="5.5635">
        <ele>642.5</ele>
        <time>2022-08-24T06:39:24Z</time>
      </trkpt>
      <trkpt lat="43.80708" lon="5.56342">
        <ele>643.4</ele>
        <time>2022-08-24T06:39:27Z</time>
      </trkpt>
      <trkpt lat="43.80708" lon="5.56333">
        <ele>644.3</ele>
        <time>2022-08-24T06:39:30Z</time>
      </trkpt>
      <trkpt lat="43.80708" lon="5.56324">
        <ele>644.6</ele>
        <time>2022-08-24T06:39:33Z</time>
      </trkpt>
      <trkpt lat="43.80708" lon="5.56317">
        <ele>645.1</ele>
        <time>2022-08-24T06:39:36Z</time>
      </trkpt>
      <trkpt lat="43.8071" lon="5.56309">
        <ele>645.8</ele>
        <time>2022-08-24T06:39:39Z</time>
      </trkpt>
      <trkpt lat="43.80711" lon="5.56301">
        <ele>646.7</ele>
        <time>2022-08-24T06:39:42Z</time>
      </trkpt>
      <trkpt lat="43.80714" lon="5.56293">
        <ele>647.5</ele>
        <time>2022-08-24T06:39:45Z</time>
      </trkpt>
      <trkpt lat="43.80716" lon="5.56285">
        <ele>648.1</ele>
        <time>2022-08-24T06:39:48Z</time>
      </trkpt>
      <trkpt lat="43.80717" lon="5.56278">
        <ele>648.3</ele>
        <time>2022-08-24T06:39:51Z</time>
      </trkpt>
      <trkpt lat="43.80719" lon="5.56271">
        <ele>648.2</ele>
        <time>2022-08-24T06:39:54Z</time>
      </trkpt>
      <trkpt lat="43.80722" lon="5.56264">
        <ele>648.6</ele>
        <time>2022-08-24T06:39:57Z</time>
      </trkpt>
      <trkpt lat="43.80727" lon="5.56261">
        <ele>649.1</ele>
        <time>2022-08-24T06:40:00Z</time>
      </trkpt>
      <trkpt lat="43.80734" lon="5.5626">
        <ele>650</ele>
        <time>2022-08-24T06:40:03Z</time>
      </trkpt>
      <trkpt lat="43.8074" lon="5.56261">
        <ele>651.3</ele>
        <time>2022-08-24T06:40:06Z</time>
      </trkpt>
      <trkpt lat="43.80747" lon="5.56262">
        <ele>652.9</ele>
        <time>2022-08-24T06:40:09Z</time>
      </trkpt>
      <trkpt lat="43.80751" lon="5.56263">
        <ele>653.8</ele>
        <time>2022-08-24T06:40:11Z</time>
      </trkpt>
      <trkpt lat="43.80755" lon="5.56262">
        <ele>654.5</ele>
        <time>2022-08-24T06:40:13Z</time>
      </trkpt>
      <trkpt lat="43.80761" lon="5.56258">
        <ele>655.1</ele>
        <time>2022-08-24T06:40:16Z</time>
      </trkpt>
      <trkpt lat="43.80765" lon="5.56252">
        <ele>655.5</ele>
        <time>2022-08-24T06:40:19Z</time>
      </trkpt>
      <trkpt lat="43.80767" lon="5.56245">
        <ele>657.3</ele>
        <time>2022-08-24T06:40:22Z</time>
      </trkpt>
      <trkpt lat="43.80766" lon="5.56237">
        <ele>658.4</ele>
        <time>2022-08-24T06:40:25Z</time>
      </trkpt>
      <trkpt lat="43.80762" lon="5.5623">
        <ele>657.9</ele>
        <time>2022-08-24T06:40:28Z</time>
      </trkpt>
      <trkpt lat="43.80759" lon="5.56223">
        <ele>657.7</ele>
        <time>2022-08-24T06:40:31Z</time>
      </trkpt>
      <trkpt lat="43.80755" lon="5.56216">
        <ele>656.7</ele>
        <time>2022-08-24T06:40:34Z</time>
      </trkpt>
      <trkpt lat="43.80753" lon="5.5621">
        <ele>656.4</ele>
        <time>2022-08-24T06:40:36Z</time>
      </trkpt>
      <trkpt lat="43.80751" lon="5.56203">
        <ele>656.8</ele>
        <time>2022-08-24T06:40:39Z</time>
      </trkpt>
      <trkpt lat="43.80751" lon="5.56194">
        <ele>658.3</ele>
        <time>2022-08-24T06:40:42Z</time>
      </trkpt>
      <trkpt lat="43.80754" lon="5.56186">
        <ele>659.5</ele>
        <time>2022-08-24T06:40:45Z</time>
      </trkpt>
      <trkpt lat="43.80756" lon="5.56179">
        <ele>660.5</ele>
        <time>2022-08-24T06:40:48Z</time>
      </trkpt>
      <trkpt lat="43.80759" lon="5.56173">
        <ele>661.8</ele>
        <time>2022-08-24T06:40:51Z</time>
      </trkpt>
      <trkpt lat="43.80761" lon="5.56165">
        <ele>663.1</ele>
        <time>2022-08-24T06:40:54Z</time>
      </trkpt>
      <trkpt lat="43.80761" lon="5.56158">
        <ele>664.1</ele>
        <time>2022-08-24T06:40:56Z</time>
      </trkpt>
      <trkpt lat="43.80759" lon="5.56152">
        <ele>664.5</ele>
        <time>2022-08-24T06:40:58Z</time>
      </trkpt>
      <trkpt lat="43.80755" lon="5.56147">
        <ele>664.4</ele>
        <time>2022-08-24T06:41:01Z</time>
      </trkpt>
      <trkpt lat="43.80748" lon="5.56145">
        <ele>664.1</ele>
        <time>2022-08-24T06:41:04Z</time>
      </trkpt>
      <trkpt lat="43.80744" lon="5.56144">
        <ele>663.5</ele>
        <time>2022-08-24T06:41:06Z</time>
      </trkpt>
      <trkpt lat="43.80738" lon="5.56142">
        <ele>663.1</ele>
        <time>2022-08-24T06:41:09Z</time>
      </trkpt>
      <trkpt lat="43.80732" lon="5.56138">
        <ele>663.1</ele>
        <time>2022-08-24T06:41:12Z</time>
      </trkpt>
      <trkpt lat="43.80727" lon="5.56132">
        <ele>663.8</ele>
        <time>2022-08-24T06:41:15Z</time>
      </trkpt>
      <trkpt lat="43.80723" lon="5.56127">
        <ele>664.1</ele>
        <time>2022-08-24T06:41:17Z</time>
      </trkpt>
      <trkpt lat="43.8072" lon="5.56123">
        <ele>664.4</ele>
        <time>2022-08-24T06:41:19Z</time>
      </trkpt>
      <trkpt lat="43.80715" lon="5.56117">
        <ele>664.5</ele>
        <time>2022-08-24T06:41:22Z</time>
      </trkpt>
      <trkpt lat="43.80711" lon="5.56111">
        <ele>664.9</ele>
        <time>2022-08-24T06:41:25Z</time>
      </trkpt>
      <trkpt lat="43.80708" lon="5.56105">
        <ele>665.2</ele>
        <time>2022-08-24T06:41:28Z</time>
      </trkpt>
      <trkpt lat="43.80705" lon="5.56098">
        <ele>665.7</ele>
        <time>2022-08-24T06:41:31Z</time>
      </trkpt>
      <trkpt lat="43.80703" lon="5.5609">
        <ele>666.6</ele>
        <time>2022-08-24T06:41:34Z</time>
      </trkpt>
      <trkpt lat="43.80702" lon="5.56081">
        <ele>667.7</ele>
        <time>2022-08-24T06:41:37Z</time>
      </trkpt>
      <trkpt lat="43.80701" lon="5.56073">
        <ele>668.1</ele>
        <time>2022-08-24T06:41:40Z</time>
      </trkpt>
      <trkpt lat="43.807" lon="5.56064">
        <ele>669</ele>
        <time>2022-08-24T06:41:43Z</time>
      </trkpt>
      <trkpt lat="43.80701" lon="5.56057">
        <ele>669.9</ele>
        <time>2022-08-24T06:41:46Z</time>
      </trkpt>
      <trkpt lat="43.80701" lon="5.56051">
        <ele>670.7</ele>
        <time>2022-08-24T06:41:48Z</time>
      </trkpt>
      <trkpt lat="43.80701" lon="5.56042">
        <ele>671.2</ele>
        <time>2022-08-24T06:41:51Z</time>
      </trkpt>
      <trkpt lat="43.80701" lon="5.56034">
        <ele>671.7</ele>
        <time>2022-08-24T06:41:54Z</time>
      </trkpt>
      <trkpt lat="43.80701" lon="5.56026">
        <ele>672.4</ele>
        <time>2022-08-24T06:41:57Z</time>
      </trkpt>
      <trkpt lat="43.80701" lon="5.5602">
        <ele>672.8</ele>
        <time>2022-08-24T06:41:59Z</time>
      </trkpt>
      <trkpt lat="43.80703" lon="5.56012">
        <ele>673.8</ele>
        <time>2022-08-24T06:42:02Z</time>
      </trkpt>
      <trkpt lat="43.80704" lon="5.56004">
        <ele>674.3</ele>
        <time>2022-08-24T06:42:05Z</time>
      </trkpt>
      <trkpt lat="43.80704" lon="5.55996">
        <ele>674.7</ele>
        <time>2022-08-24T06:42:08Z</time>
      </trkpt>
      <trkpt lat="43.80703" lon="5.55988">
        <ele>675.4</ele>
        <time>2022-08-24T06:42:11Z</time>
      </trkpt>
      <trkpt lat="43.80704" lon="5.55981">
        <ele>676.2</ele>
        <time>2022-08-24T06:42:14Z</time>
      </trkpt>
      <trkpt lat="43.80703" lon="5.55973">
        <ele>676.7</ele>
        <time>2022-08-24T06:42:17Z</time>
      </trkpt>
      <trkpt lat="43.80703" lon="5.55965">
        <ele>677.1</ele>
        <time>2022-08-24T06:42:20Z</time>
      </trkpt>
      <trkpt lat="43.80702" lon="5.55956">
        <ele>677.5</ele>
        <time>2022-08-24T06:42:23Z</time>
      </trkpt>
      <trkpt lat="43.80703" lon="5.5595">
        <ele>678</ele>
        <time>2022-08-24T06:42:25Z</time>
      </trkpt>
      <trkpt lat="43.80704" lon="5.55941">
        <ele>678.6</ele>
        <time>2022-08-24T06:42:28Z</time>
      </trkpt>
      <trkpt lat="43.80705" lon="5.55935">
        <ele>678.7</ele>
        <time>2022-08-24T06:42:30Z</time>
      </trkpt>
      <trkpt lat="43.80706" lon="5.55928">
        <ele>678.9</ele>
        <time>2022-08-24T06:42:33Z</time>
      </trkpt>
      <trkpt lat="43.8071" lon="5.55921">
        <ele>679.5</ele>
        <time>2022-08-24T06:42:36Z</time>
      </trkpt>
      <trkpt lat="43.80715" lon="5.55916">
        <ele>679.8</ele>
        <time>2022-08-24T06:42:39Z</time>
      </trkpt>
      <trkpt lat="43.8072" lon="5.55911">
        <ele>679.9</ele>
        <time>2022-08-24T06:42:42Z</time>
      </trkpt>
      <trkpt lat="43.80726" lon="5.55909">
        <ele>680.9</ele>
        <time>2022-08-24T06:42:45Z</time>
      </trkpt>
      <trkpt lat="43.8073" lon="5.55903">
        <ele>681.2</ele>
        <time>2022-08-24T06:42:48Z</time>
      </trkpt>
      <trkpt lat="43.80736" lon="5.55899">
        <ele>682</ele>
        <time>2022-08-24T06:42:51Z</time>
      </trkpt>
      <trkpt lat="43.80742" lon="5.55896">
        <ele>683</ele>
        <time>2022-08-24T06:42:54Z</time>
      </trkpt>
      <trkpt lat="43.80747" lon="5.55892">
        <ele>683.8</ele>
        <time>2022-08-24T06:42:57Z</time>
      </trkpt>
      <trkpt lat="43.80751" lon="5.55887">
        <ele>684.1</ele>
        <time>2022-08-24T06:43:00Z</time>
      </trkpt>
      <trkpt lat="43.80756" lon="5.55883">
        <ele>684.5</ele>
        <time>2022-08-24T06:43:03Z</time>
      </trkpt>
      <trkpt lat="43.8076" lon="5.55879">
        <ele>684.7</ele>
        <time>2022-08-24T06:43:05Z</time>
      </trkpt>
      <trkpt lat="43.80764" lon="5.55875">
        <ele>684.9</ele>
        <time>2022-08-24T06:43:08Z</time>
      </trkpt>
      <trkpt lat="43.80769" lon="5.55871">
        <ele>685.2</ele>
        <time>2022-08-24T06:43:11Z</time>
      </trkpt>
      <trkpt lat="43.80775" lon="5.55867">
        <ele>685.9</ele>
        <time>2022-08-24T06:43:14Z</time>
      </trkpt>
      <trkpt lat="43.80781" lon="5.55865">
        <ele>687.1</ele>
        <time>2022-08-24T06:43:17Z</time>
      </trkpt>
      <trkpt lat="43.80787" lon="5.55863">
        <ele>688.4</ele>
        <time>2022-08-24T06:43:20Z</time>
      </trkpt>
      <trkpt lat="43.80793" lon="5.5586">
        <ele>689.5</ele>
        <time>2022-08-24T06:43:23Z</time>
      </trkpt>
      <trkpt lat="43.80795" lon="5.55852">
        <ele>690.3</ele>
        <time>2022-08-24T06:43:26Z</time>
      </trkpt>
      <trkpt lat="43.80795" lon="5.55845">
        <ele>690.3</ele>
        <time>2022-08-24T06:43:28Z</time>
      </trkpt>
      <trkpt lat="43.80795" lon="5.55839">
        <ele>690.3</ele>
        <time>2022-08-24T06:43:30Z</time>
      </trkpt>
      <trkpt lat="43.80794" lon="5.55832">
        <ele>690.2</ele>
        <time>2022-08-24T06:43:32Z</time>
      </trkpt>
      <trkpt lat="43.80794" lon="5.55825">
        <ele>690.5</ele>
        <time>2022-08-24T06:43:34Z</time>
      </trkpt>
      <trkpt lat="43.80793" lon="5.55818">
        <ele>690.7</ele>
        <time>2022-08-24T06:43:36Z</time>
      </trkpt>
      <trkpt lat="43.80792" lon="5.5581">
        <ele>690.6</ele>
        <time>2022-08-24T06:43:38Z</time>
      </trkpt>
      <trkpt lat="43.80792" lon="5.55801">
        <ele>690.7</ele>
        <time>2022-08-24T06:43:40Z</time>
      </trkpt>
      <trkpt lat="43.80792" lon="5.55793">
        <ele>691.1</ele>
        <time>2022-08-24T06:43:42Z</time>
      </trkpt>
      <trkpt lat="43.80791" lon="5.55785">
        <ele>691.3</ele>
        <time>2022-08-24T06:43:45Z</time>
      </trkpt>
      <trkpt lat="43.80788" lon="5.55777">
        <ele>691.1</ele>
        <time>2022-08-24T06:43:48Z</time>
      </trkpt>
      <trkpt lat="43.80787" lon="5.55769">
        <ele>691.8</ele>
        <time>2022-08-24T06:43:51Z</time>
      </trkpt>
      <trkpt lat="43.80786" lon="5.55761">
        <ele>692.8</ele>
        <time>2022-08-24T06:43:54Z</time>
      </trkpt>
      <trkpt lat="43.80785" lon="5.55754">
        <ele>693.4</ele>
        <time>2022-08-24T06:43:56Z</time>
      </trkpt>
      <trkpt lat="43.8078" lon="5.55748">
        <ele>693</ele>
        <time>2022-08-24T06:43:59Z</time>
      </trkpt>
      <trkpt lat="43.80776" lon="5.55743">
        <ele>693.2</ele>
        <time>2022-08-24T06:44:02Z</time>
      </trkpt>
      <trkpt lat="43.80771" lon="5.55737">
        <ele>693.3</ele>
        <time>2022-08-24T06:44:05Z</time>
      </trkpt>
      <trkpt lat="43.80769" lon="5.5573">
        <ele>693.7</ele>
        <time>2022-08-24T06:44:08Z</time>
      </trkpt>
      <trkpt lat="43.80769" lon="5.55722">
        <ele>694.9</ele>
        <time>2022-08-24T06:44:11Z</time>
      </trkpt>
      <trkpt lat="43.80768" lon="5.55714">
        <ele>694.9</ele>
        <time>2022-08-24T06:44:14Z</time>
      </trkpt>
      <trkpt lat="43.80767" lon="5.55705">
        <ele>694.9</ele>
        <time>2022-08-24T06:44:17Z</time>
      </trkpt>
      <trkpt lat="43.80767" lon="5.55697">
        <ele>695.3</ele>
        <time>2022-08-24T06:44:20Z</time>
      </trkpt>
      <trkpt lat="43.80767" lon="5.5569">
        <ele>696</ele>
        <time>2022-08-24T06:44:22Z</time>
      </trkpt>
      <trkpt lat="43.80765" lon="5.55682">
        <ele>696.9</ele>
        <time>2022-08-24T06:44:25Z</time>
      </trkpt>
      <trkpt lat="43.80762" lon="5.55675">
        <ele>697.3</ele>
        <time>2022-08-24T06:44:28Z</time>
      </trkpt>
      <trkpt lat="43.8076" lon="5.55669">
        <ele>697.9</ele>
        <time>2022-08-24T06:44:30Z</time>
      </trkpt>
      <trkpt lat="43.80757" lon="5.55664">
        <ele>698</ele>
        <time>2022-08-24T06:44:32Z</time>
      </trkpt>
      <trkpt lat="43.80754" lon="5.5566">
        <ele>697.8</ele>
        <time>2022-08-24T06:44:34Z</time>
      </trkpt>
      <trkpt lat="43.80751" lon="5.55654">
        <ele>697.7</ele>
        <time>2022-08-24T06:44:36Z</time>
      </trkpt>
      <trkpt lat="43.8075" lon="5.55646">
        <ele>698.3</ele>
        <time>2022-08-24T06:44:39Z</time>
      </trkpt>
      <trkpt lat="43.80749" lon="5.55636">
        <ele>698.6</ele>
        <time>2022-08-24T06:44:42Z</time>
      </trkpt>
      <trkpt lat="43.80749" lon="5.5563">
        <ele>698.2</ele>
        <time>2022-08-24T06:44:44Z</time>
      </trkpt>
      <trkpt lat="43.8075" lon="5.55623">
        <ele>698.2</ele>
        <time>2022-08-24T06:44:46Z</time>
      </trkpt>
      <trkpt lat="43.80751" lon="5.55616">
        <ele>698.6</ele>
        <time>2022-08-24T06:44:48Z</time>
      </trkpt>
      <trkpt lat="43.80753" lon="5.5561">
        <ele>698.9</ele>
        <time>2022-08-24T06:44:50Z</time>
      </trkpt>
      <trkpt lat="43.80755" lon="5.55602">
        <ele>698.8</ele>
        <time>2022-08-24T06:44:52Z</time>
      </trkpt>
      <trkpt lat="43.80756" lon="5.55596">
        <ele>698.8</ele>
        <time>2022-08-24T06:44:54Z</time>
      </trkpt>
      <trkpt lat="43.80757" lon="5.5559">
        <ele>698.5</ele>
        <time>2022-08-24T06:44:57Z</time>
      </trkpt>
      <trkpt lat="43.80759" lon="5.55585">
        <ele>698.9</ele>
        <time>2022-08-24T06:51:13Z</time>
      </trkpt>
      <trkpt lat="43.80762" lon="5.55579">
        <ele>698.9</ele>
        <time>2022-08-24T06:51:15Z</time>
      </trkpt>
      <trkpt lat="43.80765" lon="5.55574">
        <ele>699</ele>
        <time>2022-08-24T06:51:17Z</time>
      </trkpt>
      <trkpt lat="43.80768" lon="5.55567">
        <ele>699.1</ele>
        <time>2022-08-24T06:51:19Z</time>
      </trkpt>
      <trkpt lat="43.80772" lon="5.5556">
        <ele>699.2</ele>
        <time>2022-08-24T06:51:21Z</time>
      </trkpt>
      <trkpt lat="43.80776" lon="5.55553">
        <ele>699.7</ele>
        <time>2022-08-24T06:51:23Z</time>
      </trkpt>
      <trkpt lat="43.80781" lon="5.55546">
        <ele>699.8</ele>
        <time>2022-08-24T06:51:25Z</time>
      </trkpt>
      <trkpt lat="43.80787" lon="5.55538">
        <ele>700.2</ele>
        <time>2022-08-24T06:51:27Z</time>
      </trkpt>
      <trkpt lat="43.80793" lon="5.5553">
        <ele>700</ele>
        <time>2022-08-24T06:51:29Z</time>
      </trkpt>
      <trkpt lat="43.80797" lon="5.55527">
        <ele>700.8</ele>
        <time>2022-08-24T06:51:30Z</time>
      </trkpt>
      <trkpt lat="43.80801" lon="5.55523">
        <ele>700.8</ele>
        <time>2022-08-24T06:51:31Z</time>
      </trkpt>
      <trkpt lat="43.80804" lon="5.55519">
        <ele>701.1</ele>
        <time>2022-08-24T06:51:32Z</time>
      </trkpt>
      <trkpt lat="43.80808" lon="5.55515">
        <ele>700.7</ele>
        <time>2022-08-24T06:51:33Z</time>
      </trkpt>
      <trkpt lat="43.80813" lon="5.55512">
        <ele>700.7</ele>
        <time>2022-08-24T06:51:34Z</time>
      </trkpt>
      <trkpt lat="43.80817" lon="5.55509">
        <ele>700.7</ele>
        <time>2022-08-24T06:51:35Z</time>
      </trkpt>
      <trkpt lat="43.80822" lon="5.55506">
        <ele>700.7</ele>
        <time>2022-08-24T06:51:36Z</time>
      </trkpt>
      <trkpt lat="43.80827" lon="5.55503">
        <ele>700.6</ele>
        <time>2022-08-24T06:51:37Z</time>
      </trkpt>
      <trkpt lat="43.80832" lon="5.55502">
        <ele>701.2</ele>
        <time>2022-08-24T06:51:38Z</time>
      </trkpt>
      <trkpt lat="43.80837" lon="5.55498">
        <ele>700.8</ele>
        <time>2022-08-24T06:51:39Z</time>
      </trkpt>
      <trkpt lat="43.80844" lon="5.55497">
        <ele>700.9</ele>
        <time>2022-08-24T06:51:40Z</time>
      </trkpt>
      <trkpt lat="43.80849" lon="5.55495">
        <ele>700.8</ele>
        <time>2022-08-24T06:51:41Z</time>
      </trkpt>
      <trkpt lat="43.80855" lon="5.55494">
        <ele>700.9</ele>
        <time>2022-08-24T06:51:42Z</time>
      </trkpt>
      <trkpt lat="43.80861" lon="5.55494">
        <ele>701.1</ele>
        <time>2022-08-24T06:51:43Z</time>
      </trkpt>
      <trkpt lat="43.80865" lon="5.55492">
        <ele>700.8</ele>
        <time>2022-08-24T06:51:44Z</time>
      </trkpt>
      <trkpt lat="43.8087" lon="5.55492">
        <ele>700.9</ele>
        <time>2022-08-24T06:51:45Z</time>
      </trkpt>
      <trkpt lat="43.80876" lon="5.55491">
        <ele>700.8</ele>
        <time>2022-08-24T06:51:46Z</time>
      </trkpt>
      <trkpt lat="43.8088" lon="5.55489">
        <ele>700.7</ele>
        <time>2022-08-24T06:51:47Z</time>
      </trkpt>
      <trkpt lat="43.80885" lon="5.55486">
        <ele>700.7</ele>
        <time>2022-08-24T06:51:48Z</time>
      </trkpt>
      <trkpt lat="43.80887" lon="5.5548">
        <ele>700.4</ele>
        <time>2022-08-24T06:51:49Z</time>
      </trkpt>
      <trkpt lat="43.80887" lon="5.55472">
        <ele>699.6</ele>
        <time>2022-08-24T06:51:50Z</time>
      </trkpt>
      <trkpt lat="43.80885" lon="5.55465">
        <ele>699.7</ele>
        <time>2022-08-24T06:51:51Z</time>
      </trkpt>
      <trkpt lat="43.80882" lon="5.55458">
        <ele>699.4</ele>
        <time>2022-08-24T06:51:52Z</time>
      </trkpt>
      <trkpt lat="43.8088" lon="5.55448">
        <ele>698.6</ele>
        <time>2022-08-24T06:51:53Z</time>
      </trkpt>
      <trkpt lat="43.80877" lon="5.55439">
        <ele>697.3</ele>
        <time>2022-08-24T06:51:54Z</time>
      </trkpt>
      <trkpt lat="43.80874" lon="5.5543">
        <ele>696.5</ele>
        <time>2022-08-24T06:51:55Z</time>
      </trkpt>
      <trkpt lat="43.80873" lon="5.5542">
        <ele>696.1</ele>
        <time>2022-08-24T06:51:56Z</time>
      </trkpt>
      <trkpt lat="43.80872" lon="5.55408">
        <ele>695.5</ele>
        <time>2022-08-24T06:51:57Z</time>
      </trkpt>
      <trkpt lat="43.80873" lon="5.55394">
        <ele>695.2</ele>
        <time>2022-08-24T06:51:58Z</time>
      </trkpt>
      <trkpt lat="43.80873" lon="5.55381">
        <ele>694.5</ele>
        <time>2022-08-24T06:51:59Z</time>
      </trkpt>
      <trkpt lat="43.80875" lon="5.55369">
        <ele>694.1</ele>
        <time>2022-08-24T06:52:00Z</time>
      </trkpt>
      <trkpt lat="43.80876" lon="5.55358">
        <ele>693.5</ele>
        <time>2022-08-24T06:52:01Z</time>
      </trkpt>
      <trkpt lat="43.80879" lon="5.55346">
        <ele>693</ele>
        <time>2022-08-24T06:52:02Z</time>
      </trkpt>
      <trkpt lat="43.80882" lon="5.55334">
        <ele>692.2</ele>
        <time>2022-08-24T06:52:03Z</time>
      </trkpt>
      <trkpt lat="43.80885" lon="5.55321">
        <ele>692</ele>
        <time>2022-08-24T06:52:04Z</time>
      </trkpt>
      <trkpt lat="43.80887" lon="5.5531">
        <ele>691.8</ele>
        <time>2022-08-24T06:52:05Z</time>
      </trkpt>
      <trkpt lat="43.8089" lon="5.55299">
        <ele>691.1</ele>
        <time>2022-08-24T06:52:06Z</time>
      </trkpt>
      <trkpt lat="43.80893" lon="5.55288">
        <ele>690.2</ele>
        <time>2022-08-24T06:52:07Z</time>
      </trkpt>
      <trkpt lat="43.80895" lon="5.55274">
        <ele>688.4</ele>
        <time>2022-08-24T06:52:08Z</time>
      </trkpt>
      <trkpt lat="43.80899" lon="5.55263">
        <ele>687.7</ele>
        <time>2022-08-24T06:52:09Z</time>
      </trkpt>
      <trkpt lat="43.80903" lon="5.55249">
        <ele>686.5</ele>
        <time>2022-08-24T06:52:10Z</time>
      </trkpt>
      <trkpt lat="43.80907" lon="5.55236">
        <ele>686.5</ele>
        <time>2022-08-24T06:52:11Z</time>
      </trkpt>
      <trkpt lat="43.80911" lon="5.55224">
        <ele>686.5</ele>
        <time>2022-08-24T06:52:12Z</time>
      </trkpt>
      <trkpt lat="43.80914" lon="5.55212">
        <ele>686.5</ele>
        <time>2022-08-24T06:52:13Z</time>
      </trkpt>
      <trkpt lat="43.80917" lon="5.55201">
        <ele>686.7</ele>
        <time>2022-08-24T06:52:14Z</time>
      </trkpt>
      <trkpt lat="43.8092" lon="5.55191">
        <ele>687.3</ele>
        <time>2022-08-24T06:52:15Z</time>
      </trkpt>
      <trkpt lat="43.80923" lon="5.55181">
        <ele>688.2</ele>
        <time>2022-08-24T06:52:16Z</time>
      </trkpt>
      <trkpt lat="43.80925" lon="5.55171">
        <ele>688.9</ele>
        <time>2022-08-24T06:52:17Z</time>
      </trkpt>
      <trkpt lat="43.80926" lon="5.55162">
        <ele>688.8</ele>
        <time>2022-08-24T06:52:18Z</time>
      </trkpt>
      <trkpt lat="43.80927" lon="5.55154">
        <ele>689</ele>
        <time>2022-08-24T06:52:19Z</time>
      </trkpt>
      <trkpt lat="43.80928" lon="5.55147">
        <ele>689</ele>
        <time>2022-08-24T06:52:20Z</time>
      </trkpt>
      <trkpt lat="43.80932" lon="5.55135">
        <ele>689.9</ele>
        <time>2022-08-24T06:52:22Z</time>
      </trkpt>
      <trkpt lat="43.80936" lon="5.55127">
        <ele>690.9</ele>
        <time>2022-08-24T06:52:24Z</time>
      </trkpt>
      <trkpt lat="43.80939" lon="5.55117">
        <ele>691.5</ele>
        <time>2022-08-24T06:52:26Z</time>
      </trkpt>
      <trkpt lat="43.8094" lon="5.55108">
        <ele>691.9</ele>
        <time>2022-08-24T06:52:28Z</time>
      </trkpt>
      <trkpt lat="43.80943" lon="5.551">
        <ele>693</ele>
        <time>2022-08-24T06:52:30Z</time>
      </trkpt>
      <trkpt lat="43.80945" lon="5.55091">
        <ele>693.9</ele>
        <time>2022-08-24T06:52:32Z</time>
      </trkpt>
      <trkpt lat="43.80948" lon="5.55083">
        <ele>694.9</ele>
        <time>2022-08-24T06:52:34Z</time>
      </trkpt>
      <trkpt lat="43.8095" lon="5.55075">
        <ele>695.5</ele>
        <time>2022-08-24T06:52:36Z</time>
      </trkpt>
      <trkpt lat="43.80952" lon="5.55067">
        <ele>696</ele>
        <time>2022-08-24T06:52:38Z</time>
      </trkpt>
      <trkpt lat="43.80955" lon="5.55059">
        <ele>696.6</ele>
        <time>2022-08-24T06:52:40Z</time>
      </trkpt>
      <trkpt lat="43.80957" lon="5.55053">
        <ele>697.3</ele>
        <time>2022-08-24T06:52:42Z</time>
      </trkpt>
      <trkpt lat="43.80963" lon="5.55047">
        <ele>698.6</ele>
        <time>2022-08-24T06:52:45Z</time>
      </trkpt>
      <trkpt lat="43.80966" lon="5.55041">
        <ele>699.4</ele>
        <time>2022-08-24T06:52:47Z</time>
      </trkpt>
      <trkpt lat="43.80969" lon="5.55036">
        <ele>700.2</ele>
        <time>2022-08-24T06:52:49Z</time>
      </trkpt>
      <trkpt lat="43.80972" lon="5.5503">
        <ele>700.9</ele>
        <time>2022-08-24T06:52:51Z</time>
      </trkpt>
      <trkpt lat="43.80977" lon="5.55023">
        <ele>702.4</ele>
        <time>2022-08-24T06:52:54Z</time>
      </trkpt>
      <trkpt lat="43.80981" lon="5.55018">
        <ele>703.5</ele>
        <time>2022-08-24T06:52:56Z</time>
      </trkpt>
      <trkpt lat="43.80984" lon="5.5501">
        <ele>704.1</ele>
        <time>2022-08-24T06:52:58Z</time>
      </trkpt>
      <trkpt lat="43.80986" lon="5.55002">
        <ele>704.6</ele>
        <time>2022-08-24T06:53:00Z</time>
      </trkpt>
      <trkpt lat="43.80989" lon="5.54993">
        <ele>705</ele>
        <time>2022-08-24T06:53:02Z</time>
      </trkpt>
      <trkpt lat="43.80993" lon="5.54985">
        <ele>705.6</ele>
        <time>2022-08-24T06:53:04Z</time>
      </trkpt>
      <trkpt lat="43.80996" lon="5.54977">
        <ele>706.1</ele>
        <time>2022-08-24T06:53:06Z</time>
      </trkpt>
      <trkpt lat="43.80999" lon="5.54971">
        <ele>706.7</ele>
        <time>2022-08-24T06:53:08Z</time>
      </trkpt>
      <trkpt lat="43.81003" lon="5.54964">
        <ele>707.5</ele>
        <time>2022-08-24T06:53:10Z</time>
      </trkpt>
      <trkpt lat="43.81007" lon="5.54958">
        <ele>708.4</ele>
        <time>2022-08-24T06:53:12Z</time>
      </trkpt>
      <trkpt lat="43.81011" lon="5.54952">
        <ele>709.2</ele>
        <time>2022-08-24T06:53:14Z</time>
      </trkpt>
      <trkpt lat="43.81016" lon="5.54948">
        <ele>710.2</ele>
        <time>2022-08-24T06:53:16Z</time>
      </trkpt>
      <trkpt lat="43.81021" lon="5.54942">
        <ele>711.1</ele>
        <time>2022-08-24T06:53:18Z</time>
      </trkpt>
      <trkpt lat="43.81025" lon="5.54937">
        <ele>711.8</ele>
        <time>2022-08-24T06:53:20Z</time>
      </trkpt>
      <trkpt lat="43.8103" lon="5.54931">
        <ele>712.6</ele>
        <time>2022-08-24T06:53:22Z</time>
      </trkpt>
      <trkpt lat="43.81034" lon="5.54925">
        <ele>713.1</ele>
        <time>2022-08-24T06:53:24Z</time>
      </trkpt>
      <trkpt lat="43.81037" lon="5.54918">
        <ele>713.4</ele>
        <time>2022-08-24T06:53:26Z</time>
      </trkpt>
      <trkpt lat="43.81039" lon="5.54909">
        <ele>713.9</ele>
        <time>2022-08-24T06:53:28Z</time>
      </trkpt>
      <trkpt lat="43.81039" lon="5.54901">
        <ele>714</ele>
        <time>2022-08-24T06:53:30Z</time>
      </trkpt>
      <trkpt lat="43.81039" lon="5.54892">
        <ele>714.2</ele>
        <time>2022-08-24T06:53:32Z</time>
      </trkpt>
      <trkpt lat="43.8104" lon="5.54884">
        <ele>714.8</ele>
        <time>2022-08-24T06:53:34Z</time>
      </trkpt>
      <trkpt lat="43.81042" lon="5.54876">
        <ele>715.8</ele>
        <time>2022-08-24T06:53:36Z</time>
      </trkpt>
      <trkpt lat="43.81045" lon="5.54869">
        <ele>716.9</ele>
        <time>2022-08-24T06:53:38Z</time>
      </trkpt>
      <trkpt lat="43.81049" lon="5.54863">
        <ele>718.1</ele>
        <time>2022-08-24T06:53:40Z</time>
      </trkpt>
      <trkpt lat="43.81052" lon="5.54858">
        <ele>719</ele>
        <time>2022-08-24T06:53:42Z</time>
      </trkpt>
      <trkpt lat="43.81055" lon="5.54853">
        <ele>719.8</ele>
        <time>2022-08-24T06:53:44Z</time>
      </trkpt>
      <trkpt lat="43.81059" lon="5.54848">
        <ele>720.7</ele>
        <time>2022-08-24T06:53:46Z</time>
      </trkpt>
      <trkpt lat="43.81063" lon="5.54844">
        <ele>721.7</ele>
        <time>2022-08-24T06:53:48Z</time>
      </trkpt>
      <trkpt lat="43.81068" lon="5.5484">
        <ele>722.7</ele>
        <time>2022-08-24T06:53:50Z</time>
      </trkpt>
      <trkpt lat="43.81071" lon="5.54835">
        <ele>723.4</ele>
        <time>2022-08-24T06:53:52Z</time>
      </trkpt>
      <trkpt lat="43.81074" lon="5.54829">
        <ele>723.5</ele>
        <time>2022-08-24T06:53:54Z</time>
      </trkpt>
      <trkpt lat="43.81078" lon="5.54825">
        <ele>724.1</ele>
        <time>2022-08-24T06:53:56Z</time>
      </trkpt>
      <trkpt lat="43.81084" lon="5.54825">
        <ele>725.7</ele>
        <time>2022-08-24T06:53:59Z</time>
      </trkpt>
      <trkpt lat="43.81088" lon="5.54831">
        <ele>727.4</ele>
        <time>2022-08-24T06:54:01Z</time>
      </trkpt>
      <trkpt lat="43.81089" lon="5.54837">
        <ele>728.1</ele>
        <time>2022-08-24T06:54:03Z</time>
      </trkpt>
      <trkpt lat="43.81091" lon="5.54844">
        <ele>728.6</ele>
        <time>2022-08-24T06:54:05Z</time>
      </trkpt>
      <trkpt lat="43.81092" lon="5.5485">
        <ele>729.2</ele>
        <time>2022-08-24T06:54:07Z</time>
      </trkpt>
      <trkpt lat="43.81094" lon="5.54859">
        <ele>730</ele>
        <time>2022-08-24T06:54:10Z</time>
      </trkpt>
      <trkpt lat="43.81096" lon="5.54865">
        <ele>730.6</ele>
        <time>2022-08-24T06:54:12Z</time>
      </trkpt>
      <trkpt lat="43.81098" lon="5.54871">
        <ele>731</ele>
        <time>2022-08-24T06:54:14Z</time>
      </trkpt>
      <trkpt lat="43.811" lon="5.54877">
        <ele>731.5</ele>
        <time>2022-08-24T06:54:16Z</time>
      </trkpt>
      <trkpt lat="43.81102" lon="5.54883">
        <ele>732.1</ele>
        <time>2022-08-24T06:54:18Z</time>
      </trkpt>
      <trkpt lat="43.81104" lon="5.54888">
        <ele>732.8</ele>
        <time>2022-08-24T06:54:20Z</time>
      </trkpt>
      <trkpt lat="43.81108" lon="5.54894">
        <ele>733.9</ele>
        <time>2022-08-24T06:54:23Z</time>
      </trkpt>
      <trkpt lat="43.8111" lon="5.549">
        <ele>734.8</ele>
        <time>2022-08-24T06:54:25Z</time>
      </trkpt>
      <trkpt lat="43.81112" lon="5.54906">
        <ele>735.5</ele>
        <time>2022-08-24T06:54:27Z</time>
      </trkpt>
      <trkpt lat="43.81114" lon="5.54912">
        <ele>736.2</ele>
        <time>2022-08-24T06:54:29Z</time>
      </trkpt>
      <trkpt lat="43.81116" lon="5.54919">
        <ele>737.1</ele>
        <time>2022-08-24T06:54:32Z</time>
      </trkpt>
      <trkpt lat="43.81119" lon="5.54926">
        <ele>738</ele>
        <time>2022-08-24T06:54:35Z</time>
      </trkpt>
      <trkpt lat="43.81121" lon="5.54933">
        <ele>738.8</ele>
        <time>2022-08-24T06:54:38Z</time>
      </trkpt>
      <trkpt lat="43.81126" lon="5.54938">
        <ele>740.2</ele>
        <time>2022-08-24T06:54:41Z</time>
      </trkpt>
      <trkpt lat="43.81131" lon="5.54942">
        <ele>741.6</ele>
        <time>2022-08-24T06:54:44Z</time>
      </trkpt>
      <trkpt lat="43.81134" lon="5.54946">
        <ele>742.7</ele>
        <time>2022-08-24T06:54:46Z</time>
      </trkpt>
      <trkpt lat="43.81137" lon="5.54954">
        <ele>744.4</ele>
        <time>2022-08-24T06:54:49Z</time>
      </trkpt>
      <trkpt lat="43.81134" lon="5.54962">
        <ele>744.8</ele>
        <time>2022-08-24T06:54:52Z</time>
      </trkpt>
      <trkpt lat="43.81128" lon="5.54967">
        <ele>744.2</ele>
        <time>2022-08-24T06:54:55Z</time>
      </trkpt>
      <trkpt lat="43.81124" lon="5.5497">
        <ele>743.9</ele>
        <time>2022-08-24T06:54:57Z</time>
      </trkpt>
      <trkpt lat="43.8112" lon="5.54976">
        <ele>744.3</ele>
        <time>2022-08-24T06:55:00Z</time>
      </trkpt>
      <trkpt lat="43.81116" lon="5.54982">
        <ele>744.7</ele>
        <time>2022-08-24T06:55:03Z</time>
      </trkpt>
      <trkpt lat="43.81113" lon="5.54989">
        <ele>745.4</ele>
        <time>2022-08-24T06:55:06Z</time>
      </trkpt>
      <trkpt lat="43.81111" lon="5.54998">
        <ele>746.4</ele>
        <time>2022-08-24T06:55:09Z</time>
      </trkpt>
      <trkpt lat="43.81109" lon="5.55003">
        <ele>747</ele>
        <time>2022-08-24T06:55:11Z</time>
      </trkpt>
      <trkpt lat="43.81106" lon="5.5501">
        <ele>747.1</ele>
        <time>2022-08-24T06:55:14Z</time>
      </trkpt>
      <trkpt lat="43.81104" lon="5.55018">
        <ele>747.8</ele>
        <time>2022-08-24T06:55:17Z</time>
      </trkpt>
      <trkpt lat="43.81102" lon="5.55026">
        <ele>748.6</ele>
        <time>2022-08-24T06:55:20Z</time>
      </trkpt>
      <trkpt lat="43.811" lon="5.55035">
        <ele>749.3</ele>
        <time>2022-08-24T06:55:23Z</time>
      </trkpt>
      <trkpt lat="43.811" lon="5.55044">
        <ele>750.5</ele>
        <time>2022-08-24T06:55:26Z</time>
      </trkpt>
      <trkpt lat="43.811" lon="5.55053">
        <ele>751.8</ele>
        <time>2022-08-24T06:55:29Z</time>
      </trkpt>
      <trkpt lat="43.81099" lon="5.5506">
        <ele>752.5</ele>
        <time>2022-08-24T06:55:32Z</time>
      </trkpt>
      <trkpt lat="43.81099" lon="5.55068">
        <ele>753.2</ele>
        <time>2022-08-24T06:55:35Z</time>
      </trkpt>
      <trkpt lat="43.81099" lon="5.55077">
        <ele>754</ele>
        <time>2022-08-24T06:55:38Z</time>
      </trkpt>
      <trkpt lat="43.81099" lon="5.55085">
        <ele>754.9</ele>
        <time>2022-08-24T06:55:41Z</time>
      </trkpt>
      <trkpt lat="43.81099" lon="5.55095">
        <ele>756.5</ele>
        <time>2022-08-24T06:55:44Z</time>
      </trkpt>
      <trkpt lat="43.81098" lon="5.55103">
        <ele>757.2</ele>
        <time>2022-08-24T06:55:47Z</time>
      </trkpt>
      <trkpt lat="43.81097" lon="5.55112">
        <ele>758</ele>
        <time>2022-08-24T06:55:50Z</time>
      </trkpt>
      <trkpt lat="43.81096" lon="5.5512">
        <ele>758.1</ele>
        <time>2022-08-24T06:55:53Z</time>
      </trkpt>
      <trkpt lat="43.81094" lon="5.55128">
        <ele>758.2</ele>
        <time>2022-08-24T06:55:56Z</time>
      </trkpt>
      <trkpt lat="43.81093" lon="5.55137">
        <ele>758.8</ele>
        <time>2022-08-24T06:55:59Z</time>
      </trkpt>
      <trkpt lat="43.81094" lon="5.55143">
        <ele>760</ele>
        <time>2022-08-24T06:56:01Z</time>
      </trkpt>
      <trkpt lat="43.81095" lon="5.55152">
        <ele>760.9</ele>
        <time>2022-08-24T06:56:04Z</time>
      </trkpt>
      <trkpt lat="43.81095" lon="5.5516">
        <ele>761.8</ele>
        <time>2022-08-24T06:56:07Z</time>
      </trkpt>
      <trkpt lat="43.81094" lon="5.55169">
        <ele>762</ele>
        <time>2022-08-24T06:56:10Z</time>
      </trkpt>
      <trkpt lat="43.81094" lon="5.55175">
        <ele>762.6</ele>
        <time>2022-08-24T06:56:12Z</time>
      </trkpt>
      <trkpt lat="43.81093" lon="5.55183">
        <ele>763.2</ele>
        <time>2022-08-24T06:56:15Z</time>
      </trkpt>
      <trkpt lat="43.81092" lon="5.55192">
        <ele>763.5</ele>
        <time>2022-08-24T06:56:18Z</time>
      </trkpt>
      <trkpt lat="43.81092" lon="5.552">
        <ele>764.4</ele>
        <time>2022-08-24T06:56:21Z</time>
      </trkpt>
      <trkpt lat="43.81092" lon="5.55209">
        <ele>765.1</ele>
        <time>2022-08-24T06:56:24Z</time>
      </trkpt>
      <trkpt lat="43.81091" lon="5.55218">
        <ele>765.6</ele>
        <time>2022-08-24T06:56:27Z</time>
      </trkpt>
      <trkpt lat="43.81091" lon="5.55224">
        <ele>766.2</ele>
        <time>2022-08-24T06:56:29Z</time>
      </trkpt>
      <trkpt lat="43.81091" lon="5.55231">
        <ele>766.6</ele>
        <time>2022-08-24T06:56:31Z</time>
      </trkpt>
      <trkpt lat="43.81092" lon="5.55239">
        <ele>767.2</ele>
        <time>2022-08-24T06:56:34Z</time>
      </trkpt>
      <trkpt lat="43.81093" lon="5.55248">
        <ele>768.1</ele>
        <time>2022-08-24T06:56:37Z</time>
      </trkpt>
      <trkpt lat="43.81094" lon="5.55255">
        <ele>768.5</ele>
        <time>2022-08-24T06:56:40Z</time>
      </trkpt>
      <trkpt lat="43.81095" lon="5.55261">
        <ele>769.2</ele>
        <time>2022-08-24T06:56:42Z</time>
      </trkpt>
      <trkpt lat="43.81096" lon="5.5527">
        <ele>769.9</ele>
        <time>2022-08-24T06:56:45Z</time>
      </trkpt>
      <trkpt lat="43.81099" lon="5.55277">
        <ele>771.1</ele>
        <time>2022-08-24T06:56:48Z</time>
      </trkpt>
      <trkpt lat="43.811" lon="5.55286">
        <ele>771.9</ele>
        <time>2022-08-24T06:56:51Z</time>
      </trkpt>
      <trkpt lat="43.81102" lon="5.55294">
        <ele>772.7</ele>
        <time>2022-08-24T06:56:54Z</time>
      </trkpt>
      <trkpt lat="43.81104" lon="5.55302">
        <ele>774.1</ele>
        <time>2022-08-24T06:56:57Z</time>
      </trkpt>
      <trkpt lat="43.81104" lon="5.5531">
        <ele>774.6</ele>
        <time>2022-08-24T06:57:00Z</time>
      </trkpt>
      <trkpt lat="43.81104" lon="5.55317">
        <ele>775</ele>
        <time>2022-08-24T06:57:02Z</time>
      </trkpt>
      <trkpt lat="43.81105" lon="5.55323">
        <ele>775.6</ele>
        <time>2022-08-24T06:57:04Z</time>
      </trkpt>
      <trkpt lat="43.81104" lon="5.5533">
        <ele>775.5</ele>
        <time>2022-08-24T06:57:06Z</time>
      </trkpt>
      <trkpt lat="43.81102" lon="5.55336">
        <ele>775.7</ele>
        <time>2022-08-24T06:57:08Z</time>
      </trkpt>
      <trkpt lat="43.81101" lon="5.55343">
        <ele>776.3</ele>
        <time>2022-08-24T06:57:10Z</time>
      </trkpt>
      <trkpt lat="43.81098" lon="5.5535">
        <ele>776.8</ele>
        <time>2022-08-24T06:57:13Z</time>
      </trkpt>
      <trkpt lat="43.81097" lon="5.55359">
        <ele>778</ele>
        <time>2022-08-24T06:57:16Z</time>
      </trkpt>
      <trkpt lat="43.81097" lon="5.55366">
        <ele>779.1</ele>
        <time>2022-08-24T06:57:18Z</time>
      </trkpt>
      <trkpt lat="43.81097" lon="5.55373">
        <ele>780.3</ele>
        <time>2022-08-24T06:57:20Z</time>
      </trkpt>
      <trkpt lat="43.81097" lon="5.5538">
        <ele>781.4</ele>
        <time>2022-08-24T06:57:22Z</time>
      </trkpt>
      <trkpt lat="43.81097" lon="5.55387">
        <ele>782.4</ele>
        <time>2022-08-24T06:57:24Z</time>
      </trkpt>
      <trkpt lat="43.81097" lon="5.55394">
        <ele>783.3</ele>
        <time>2022-08-24T06:57:26Z</time>
      </trkpt>
      <trkpt lat="43.81096" lon="5.554">
        <ele>783.9</ele>
        <time>2022-08-24T06:57:28Z</time>
      </trkpt>
      <trkpt lat="43.81093" lon="5.55409">
        <ele>784</ele>
        <time>2022-08-24T06:57:31Z</time>
      </trkpt>
      <trkpt lat="43.8109" lon="5.55415">
        <ele>783.7</ele>
        <time>2022-08-24T06:57:33Z</time>
      </trkpt>
      <trkpt lat="43.81088" lon="5.55421">
        <ele>784</ele>
        <time>2022-08-24T06:57:35Z</time>
      </trkpt>
      <trkpt lat="43.81086" lon="5.55428">
        <ele>784.1</ele>
        <time>2022-08-24T06:57:37Z</time>
      </trkpt>
      <trkpt lat="43.81085" lon="5.55436">
        <ele>784.8</ele>
        <time>2022-08-24T06:57:39Z</time>
      </trkpt>
      <trkpt lat="43.81085" lon="5.55443">
        <ele>785.7</ele>
        <time>2022-08-24T06:57:41Z</time>
      </trkpt>
      <trkpt lat="43.81083" lon="5.55449">
        <ele>785.8</ele>
        <time>2022-08-24T06:57:43Z</time>
      </trkpt>
      <trkpt lat="43.81082" lon="5.55455">
        <ele>786.2</ele>
        <time>2022-08-24T06:57:45Z</time>
      </trkpt>
      <trkpt lat="43.81081" lon="5.55464">
        <ele>787.2</ele>
        <time>2022-08-24T06:57:48Z</time>
      </trkpt>
      <trkpt lat="43.8108" lon="5.5547">
        <ele>787.9</ele>
        <time>2022-08-24T06:57:50Z</time>
      </trkpt>
      <trkpt lat="43.81079" lon="5.55477">
        <ele>788.6</ele>
        <time>2022-08-24T06:57:52Z</time>
      </trkpt>
      <trkpt lat="43.81078" lon="5.55484">
        <ele>789.8</ele>
        <time>2022-08-24T06:57:54Z</time>
      </trkpt>
      <trkpt lat="43.81076" lon="5.5549">
        <ele>790.5</ele>
        <time>2022-08-24T06:57:56Z</time>
      </trkpt>
      <trkpt lat="43.81075" lon="5.55496">
        <ele>790.9</ele>
        <time>2022-08-24T06:57:58Z</time>
      </trkpt>
      <trkpt lat="43.81072" lon="5.55503">
        <ele>790.8</ele>
        <time>2022-08-24T06:58:01Z</time>
      </trkpt>
      <trkpt lat="43.8107" lon="5.55509">
        <ele>790.9</ele>
        <time>2022-08-24T06:58:03Z</time>
      </trkpt>
      <trkpt lat="43.81068" lon="5.55515">
        <ele>791</ele>
        <time>2022-08-24T06:58:05Z</time>
      </trkpt>
      <trkpt lat="43.81067" lon="5.55522">
        <ele>792.1</ele>
        <time>2022-08-24T06:58:07Z</time>
      </trkpt>
      <trkpt lat="43.81067" lon="5.55532">
        <ele>793.9</ele>
        <time>2022-08-24T06:58:10Z</time>
      </trkpt>
      <trkpt lat="43.81066" lon="5.55538">
        <ele>794.9</ele>
        <time>2022-08-24T06:58:12Z</time>
      </trkpt>
      <trkpt lat="43.81065" lon="5.55544">
        <ele>795.7</ele>
        <time>2022-08-24T06:58:14Z</time>
      </trkpt>
      <trkpt lat="43.81064" lon="5.55551">
        <ele>796.7</ele>
        <time>2022-08-24T06:58:16Z</time>
      </trkpt>
      <trkpt lat="43.81062" lon="5.55556">
        <ele>797.1</ele>
        <time>2022-08-24T06:58:18Z</time>
      </trkpt>
      <trkpt lat="43.81059" lon="5.55565">
        <ele>797.6</ele>
        <time>2022-08-24T06:58:21Z</time>
      </trkpt>
      <trkpt lat="43.81056" lon="5.5557">
        <ele>797.4</ele>
        <time>2022-08-24T06:58:23Z</time>
      </trkpt>
      <trkpt lat="43.81054" lon="5.55578">
        <ele>798.6</ele>
        <time>2022-08-24T06:58:26Z</time>
      </trkpt>
      <trkpt lat="43.81052" lon="5.55584">
        <ele>798.7</ele>
        <time>2022-08-24T06:58:28Z</time>
      </trkpt>
      <trkpt lat="43.8105" lon="5.5559">
        <ele>799.1</ele>
        <time>2022-08-24T06:58:30Z</time>
      </trkpt>
      <trkpt lat="43.81047" lon="5.55598">
        <ele>799.3</ele>
        <time>2022-08-24T06:58:33Z</time>
      </trkpt>
      <trkpt lat="43.81046" lon="5.55606">
        <ele>800.3</ele>
        <time>2022-08-24T06:58:35Z</time>
      </trkpt>
      <trkpt lat="43.81045" lon="5.55612">
        <ele>800.9</ele>
        <time>2022-08-24T06:58:37Z</time>
      </trkpt>
      <trkpt lat="43.81043" lon="5.55618">
        <ele>800.9</ele>
        <time>2022-08-24T06:58:39Z</time>
      </trkpt>
      <trkpt lat="43.81041" lon="5.55623">
        <ele>801.3</ele>
        <time>2022-08-24T06:58:41Z</time>
      </trkpt>
      <trkpt lat="43.81039" lon="5.5563">
        <ele>802</ele>
        <time>2022-08-24T06:58:43Z</time>
      </trkpt>
      <trkpt lat="43.81038" lon="5.55636">
        <ele>803.2</ele>
        <time>2022-08-24T06:58:45Z</time>
      </trkpt>
      <trkpt lat="43.81035" lon="5.55642">
        <ele>803.4</ele>
        <time>2022-08-24T06:58:47Z</time>
      </trkpt>
      <trkpt lat="43.81033" lon="5.55649">
        <ele>804</ele>
        <time>2022-08-24T06:58:49Z</time>
      </trkpt>
      <trkpt lat="43.81031" lon="5.55655">
        <ele>804.8</ele>
        <time>2022-08-24T06:58:51Z</time>
      </trkpt>
      <trkpt lat="43.81029" lon="5.55661">
        <ele>804.9</ele>
        <time>2022-08-24T06:58:53Z</time>
      </trkpt>
      <trkpt lat="43.81026" lon="5.55667">
        <ele>804.9</ele>
        <time>2022-08-24T06:58:55Z</time>
      </trkpt>
      <trkpt lat="43.81024" lon="5.55672">
        <ele>805.2</ele>
        <time>2022-08-24T06:58:57Z</time>
      </trkpt>
      <trkpt lat="43.81021" lon="5.55678">
        <ele>805.2</ele>
        <time>2022-08-24T06:58:59Z</time>
      </trkpt>
      <trkpt lat="43.81019" lon="5.55684">
        <ele>805.8</ele>
        <time>2022-08-24T06:59:01Z</time>
      </trkpt>
      <trkpt lat="43.81017" lon="5.5569">
        <ele>806.4</ele>
        <time>2022-08-24T06:59:03Z</time>
      </trkpt>
      <trkpt lat="43.81016" lon="5.55696">
        <ele>807.3</ele>
        <time>2022-08-24T06:59:05Z</time>
      </trkpt>
      <trkpt lat="43.81015" lon="5.55703">
        <ele>808.5</ele>
        <time>2022-08-24T06:59:07Z</time>
      </trkpt>
      <trkpt lat="43.81014" lon="5.5571">
        <ele>809.3</ele>
        <time>2022-08-24T06:59:09Z</time>
      </trkpt>
      <trkpt lat="43.81013" lon="5.55716">
        <ele>809.9</ele>
        <time>2022-08-24T06:59:11Z</time>
      </trkpt>
      <trkpt lat="43.81012" lon="5.55723">
        <ele>810.6</ele>
        <time>2022-08-24T06:59:13Z</time>
      </trkpt>
      <trkpt lat="43.8101" lon="5.55731">
        <ele>811.1</ele>
        <time>2022-08-24T06:59:16Z</time>
      </trkpt>
      <trkpt lat="43.81008" lon="5.5574">
        <ele>811.6</ele>
        <time>2022-08-24T06:59:19Z</time>
      </trkpt>
      <trkpt lat="43.81006" lon="5.55749">
        <ele>812.1</ele>
        <time>2022-08-24T06:59:22Z</time>
      </trkpt>
      <trkpt lat="43.81004" lon="5.55759">
        <ele>812.2</ele>
        <time>2022-08-24T06:59:25Z</time>
      </trkpt>
      <trkpt lat="43.81004" lon="5.55765">
        <ele>813.1</ele>
        <time>2022-08-24T06:59:27Z</time>
      </trkpt>
      <trkpt lat="43.81004" lon="5.55771">
        <ele>813.9</ele>
        <time>2022-08-24T06:59:29Z</time>
      </trkpt>
      <trkpt lat="43.81004" lon="5.55778">
        <ele>814.9</ele>
        <time>2022-08-24T06:59:31Z</time>
      </trkpt>
      <trkpt lat="43.81004" lon="5.55785">
        <ele>815.9</ele>
        <time>2022-08-24T06:59:33Z</time>
      </trkpt>
      <trkpt lat="43.81004" lon="5.55791">
        <ele>816.5</ele>
        <time>2022-08-24T06:59:35Z</time>
      </trkpt>
      <trkpt lat="43.81004" lon="5.55798">
        <ele>817.3</ele>
        <time>2022-08-24T06:59:37Z</time>
      </trkpt>
      <trkpt lat="43.81004" lon="5.55805">
        <ele>817.7</ele>
        <time>2022-08-24T06:59:39Z</time>
      </trkpt>
      <trkpt lat="43.81004" lon="5.55814">
        <ele>818.4</ele>
        <time>2022-08-24T06:59:42Z</time>
      </trkpt>
      <trkpt lat="43.81004" lon="5.55821">
        <ele>818.9</ele>
        <time>2022-08-24T06:59:44Z</time>
      </trkpt>
      <trkpt lat="43.81003" lon="5.55829">
        <ele>818.9</ele>
        <time>2022-08-24T06:59:46Z</time>
      </trkpt>
      <trkpt lat="43.81002" lon="5.55835">
        <ele>819.1</ele>
        <time>2022-08-24T06:59:48Z</time>
      </trkpt>
      <trkpt lat="43.81002" lon="5.55842">
        <ele>819.5</ele>
        <time>2022-08-24T06:59:50Z</time>
      </trkpt>
      <trkpt lat="43.81001" lon="5.55849">
        <ele>819.7</ele>
        <time>2022-08-24T06:59:52Z</time>
      </trkpt>
      <trkpt lat="43.81001" lon="5.55855">
        <ele>820.1</ele>
        <time>2022-08-24T06:59:54Z</time>
      </trkpt>
      <trkpt lat="43.81001" lon="5.55862">
        <ele>820.8</ele>
        <time>2022-08-24T06:59:56Z</time>
      </trkpt>
      <trkpt lat="43.81001" lon="5.55868">
        <ele>820.8</ele>
        <time>2022-08-24T06:59:58Z</time>
      </trkpt>
      <trkpt lat="43.81002" lon="5.55875">
        <ele>821.5</ele>
        <time>2022-08-24T07:00:00Z</time>
      </trkpt>
      <trkpt lat="43.81004" lon="5.55882">
        <ele>822.8</ele>
        <time>2022-08-24T07:00:02Z</time>
      </trkpt>
      <trkpt lat="43.81005" lon="5.55889">
        <ele>823.7</ele>
        <time>2022-08-24T07:00:04Z</time>
      </trkpt>
      <trkpt lat="43.81006" lon="5.55895">
        <ele>824</ele>
        <time>2022-08-24T07:00:06Z</time>
      </trkpt>
      <trkpt lat="43.81007" lon="5.55901">
        <ele>824.4</ele>
        <time>2022-08-24T07:00:08Z</time>
      </trkpt>
      <trkpt lat="43.81008" lon="5.55908">
        <ele>824.8</ele>
        <time>2022-08-24T07:00:10Z</time>
      </trkpt>
      <trkpt lat="43.8101" lon="5.55916">
        <ele>825.3</ele>
        <time>2022-08-24T07:00:13Z</time>
      </trkpt>
      <trkpt lat="43.81014" lon="5.55921">
        <ele>825.1</ele>
        <time>2022-08-24T07:00:15Z</time>
      </trkpt>
      <trkpt lat="43.81018" lon="5.55927">
        <ele>825.2</ele>
        <time>2022-08-24T07:00:18Z</time>
      </trkpt>
      <trkpt lat="43.81023" lon="5.55932">
        <ele>825.9</ele>
        <time>2022-08-24T07:00:21Z</time>
      </trkpt>
      <trkpt lat="43.81028" lon="5.55935">
        <ele>826.8</ele>
        <time>2022-08-24T07:00:23Z</time>
      </trkpt>
      <trkpt lat="43.81033" lon="5.55939">
        <ele>828</ele>
        <time>2022-08-24T07:00:26Z</time>
      </trkpt>
      <trkpt lat="43.81037" lon="5.55942">
        <ele>828.4</ele>
        <time>2022-08-24T07:00:28Z</time>
      </trkpt>
      <trkpt lat="43.81041" lon="5.55946">
        <ele>828.9</ele>
        <time>2022-08-24T07:00:30Z</time>
      </trkpt>
      <trkpt lat="43.81045" lon="5.55951">
        <ele>829.6</ele>
        <time>2022-08-24T07:00:32Z</time>
      </trkpt>
      <trkpt lat="43.81048" lon="5.55955">
        <ele>830</ele>
        <time>2022-08-24T07:00:34Z</time>
      </trkpt>
      <trkpt lat="43.81052" lon="5.5596">
        <ele>830.2</ele>
        <time>2022-08-24T07:00:36Z</time>
      </trkpt>
      <trkpt lat="43.81055" lon="5.55964">
        <ele>830.3</ele>
        <time>2022-08-24T07:00:38Z</time>
      </trkpt>
      <trkpt lat="43.81058" lon="5.55969">
        <ele>830.5</ele>
        <time>2022-08-24T07:00:40Z</time>
      </trkpt>
      <trkpt lat="43.81064" lon="5.55975">
        <ele>832.4</ele>
        <time>2022-08-24T07:00:43Z</time>
      </trkpt>
      <trkpt lat="43.81067" lon="5.55979">
        <ele>833.4</ele>
        <time>2022-08-24T07:00:45Z</time>
      </trkpt>
      <trkpt lat="43.8107" lon="5.55985">
        <ele>833.9</ele>
        <time>2022-08-24T07:00:47Z</time>
      </trkpt>
      <trkpt lat="43.81073" lon="5.5599">
        <ele>834.4</ele>
        <time>2022-08-24T07:00:49Z</time>
      </trkpt>
      <trkpt lat="43.81076" lon="5.55995">
        <ele>834.7</ele>
        <time>2022-08-24T07:00:51Z</time>
      </trkpt>
      <trkpt lat="43.81079" lon="5.56">
        <ele>834.8</ele>
        <time>2022-08-24T07:00:53Z</time>
      </trkpt>
      <trkpt lat="43.81082" lon="5.56005">
        <ele>835.2</ele>
        <time>2022-08-24T07:00:55Z</time>
      </trkpt>
      <trkpt lat="43.81085" lon="5.56011">
        <ele>835.9</ele>
        <time>2022-08-24T07:00:57Z</time>
      </trkpt>
      <trkpt lat="43.81089" lon="5.56017">
        <ele>837</ele>
        <time>2022-08-24T07:00:59Z</time>
      </trkpt>
      <trkpt lat="43.81091" lon="5.56023">
        <ele>837.6</ele>
        <time>2022-08-24T07:01:01Z</time>
      </trkpt>
      <trkpt lat="43.81094" lon="5.56028">
        <ele>838.3</ele>
        <time>2022-08-24T07:01:03Z</time>
      </trkpt>
      <trkpt lat="43.81096" lon="5.56037">
        <ele>838.7</ele>
        <time>2022-08-24T07:01:06Z</time>
      </trkpt>
      <trkpt lat="43.81098" lon="5.56043">
        <ele>838.8</ele>
        <time>2022-08-24T07:01:08Z</time>
      </trkpt>
      <trkpt lat="43.81101" lon="5.56049">
        <ele>840</ele>
        <time>2022-08-24T07:01:10Z</time>
      </trkpt>
      <trkpt lat="43.81103" lon="5.56054">
        <ele>840.4</ele>
        <time>2022-08-24T07:01:12Z</time>
      </trkpt>
      <trkpt lat="43.81105" lon="5.5606">
        <ele>840.9</ele>
        <time>2022-08-24T07:01:14Z</time>
      </trkpt>
      <trkpt lat="43.81107" lon="5.56066">
        <ele>841.5</ele>
        <time>2022-08-24T07:01:16Z</time>
      </trkpt>
      <trkpt lat="43.81109" lon="5.56072">
        <ele>841.7</ele>
        <time>2022-08-24T07:01:18Z</time>
      </trkpt>
      <trkpt lat="43.8111" lon="5.56079">
        <ele>841.9</ele>
        <time>2022-08-24T07:01:20Z</time>
      </trkpt>
      <trkpt lat="43.81111" lon="5.56085">
        <ele>841.7</ele>
        <time>2022-08-24T07:01:22Z</time>
      </trkpt>
      <trkpt lat="43.81113" lon="5.56091">
        <ele>841.8</ele>
        <time>2022-08-24T07:01:24Z</time>
      </trkpt>
      <trkpt lat="43.81116" lon="5.561">
        <ele>842.4</ele>
        <time>2022-08-24T07:01:27Z</time>
      </trkpt>
      <trkpt lat="43.81118" lon="5.56105">
        <ele>842.9</ele>
        <time>2022-08-24T07:01:29Z</time>
      </trkpt>
      <trkpt lat="43.8112" lon="5.56112">
        <ele>843.2</ele>
        <time>2022-08-24T07:01:31Z</time>
      </trkpt>
      <trkpt lat="43.81122" lon="5.56118">
        <ele>844.1</ele>
        <time>2022-08-24T07:01:33Z</time>
      </trkpt>
      <trkpt lat="43.81123" lon="5.56125">
        <ele>844.3</ele>
        <time>2022-08-24T07:01:35Z</time>
      </trkpt>
      <trkpt lat="43.81123" lon="5.56131">
        <ele>844.2</ele>
        <time>2022-08-24T07:01:37Z</time>
      </trkpt>
      <trkpt lat="43.81123" lon="5.56138">
        <ele>844.1</ele>
        <time>2022-08-24T07:01:39Z</time>
      </trkpt>
      <trkpt lat="43.81124" lon="5.56145">
        <ele>844.2</ele>
        <time>2022-08-24T07:01:41Z</time>
      </trkpt>
      <trkpt lat="43.81126" lon="5.56151">
        <ele>844.5</ele>
        <time>2022-08-24T07:01:43Z</time>
      </trkpt>
      <trkpt lat="43.81129" lon="5.56156">
        <ele>845.1</ele>
        <time>2022-08-24T07:01:45Z</time>
      </trkpt>
      <trkpt lat="43.81133" lon="5.5616">
        <ele>846.4</ele>
        <time>2022-08-24T07:01:47Z</time>
      </trkpt>
      <trkpt lat="43.81137" lon="5.56163">
        <ele>847.5</ele>
        <time>2022-08-24T07:01:49Z</time>
      </trkpt>
      <trkpt lat="43.81141" lon="5.56166">
        <ele>848.3</ele>
        <time>2022-08-24T07:01:51Z</time>
      </trkpt>
      <trkpt lat="43.81145" lon="5.56169">
        <ele>848.7</ele>
        <time>2022-08-24T07:01:53Z</time>
      </trkpt>
      <trkpt lat="43.8115" lon="5.56172">
        <ele>849.2</ele>
        <time>2022-08-24T07:01:55Z</time>
      </trkpt>
      <trkpt lat="43.81154" lon="5.56175">
        <ele>849.8</ele>
        <time>2022-08-24T07:01:57Z</time>
      </trkpt>
      <trkpt lat="43.81158" lon="5.56179">
        <ele>850.4</ele>
        <time>2022-08-24T07:01:59Z</time>
      </trkpt>
      <trkpt lat="43.81161" lon="5.56186">
        <ele>850.8</ele>
        <time>2022-08-24T07:02:01Z</time>
      </trkpt>
      <trkpt lat="43.81162" lon="5.56193">
        <ele>850.9</ele>
        <time>2022-08-24T07:02:03Z</time>
      </trkpt>
      <trkpt lat="43.81162" lon="5.56201">
        <ele>851</ele>
        <time>2022-08-24T07:02:05Z</time>
      </trkpt>
      <trkpt lat="43.81163" lon="5.56208">
        <ele>851.1</ele>
        <time>2022-08-24T07:02:07Z</time>
      </trkpt>
      <trkpt lat="43.81162" lon="5.56217">
        <ele>851.2</ele>
        <time>2022-08-24T07:02:09Z</time>
      </trkpt>
      <trkpt lat="43.81163" lon="5.56226">
        <ele>851.3</ele>
        <time>2022-08-24T07:02:11Z</time>
      </trkpt>
      <trkpt lat="43.81163" lon="5.56235">
        <ele>851.5</ele>
        <time>2022-08-24T07:02:13Z</time>
      </trkpt>
      <trkpt lat="43.81165" lon="5.56244">
        <ele>851.7</ele>
        <time>2022-08-24T07:02:15Z</time>
      </trkpt>
      <trkpt lat="43.81167" lon="5.56252">
        <ele>852.1</ele>
        <time>2022-08-24T07:02:17Z</time>
      </trkpt>
      <trkpt lat="43.8117" lon="5.5626">
        <ele>852.7</ele>
        <time>2022-08-24T07:02:19Z</time>
      </trkpt>
      <trkpt lat="43.81174" lon="5.56267">
        <ele>853.3</ele>
        <time>2022-08-24T07:02:21Z</time>
      </trkpt>
      <trkpt lat="43.81177" lon="5.56274">
        <ele>853.8</ele>
        <time>2022-08-24T07:02:23Z</time>
      </trkpt>
      <trkpt lat="43.8118" lon="5.56281">
        <ele>854.3</ele>
        <time>2022-08-24T07:02:25Z</time>
      </trkpt>
      <trkpt lat="43.81183" lon="5.56287">
        <ele>854.8</ele>
        <time>2022-08-24T07:02:27Z</time>
      </trkpt>
      <trkpt lat="43.81187" lon="5.56294">
        <ele>855.2</ele>
        <time>2022-08-24T07:02:29Z</time>
      </trkpt>
      <trkpt lat="43.81192" lon="5.563">
        <ele>855.8</ele>
        <time>2022-08-24T07:02:31Z</time>
      </trkpt>
      <trkpt lat="43.81197" lon="5.56305">
        <ele>856.3</ele>
        <time>2022-08-24T07:02:33Z</time>
      </trkpt>
      <trkpt lat="43.81202" lon="5.56311">
        <ele>856.5</ele>
        <time>2022-08-24T07:02:35Z</time>
      </trkpt>
      <trkpt lat="43.81206" lon="5.56316">
        <ele>856.5</ele>
        <time>2022-08-24T07:02:37Z</time>
      </trkpt>
      <trkpt lat="43.81211" lon="5.5632">
        <ele>856.7</ele>
        <time>2022-08-24T07:02:39Z</time>
      </trkpt>
      <trkpt lat="43.81216" lon="5.56321">
        <ele>857.3</ele>
        <time>2022-08-24T07:02:41Z</time>
      </trkpt>
      <trkpt lat="43.81223" lon="5.5632">
        <ele>858</ele>
        <time>2022-08-24T07:02:43Z</time>
      </trkpt>
      <trkpt lat="43.81229" lon="5.56317">
        <ele>858.6</ele>
        <time>2022-08-24T07:02:45Z</time>
      </trkpt>
      <trkpt lat="43.81234" lon="5.56314">
        <ele>859.2</ele>
        <time>2022-08-24T07:02:47Z</time>
      </trkpt>
      <trkpt lat="43.8124" lon="5.5631">
        <ele>859.8</ele>
        <time>2022-08-24T07:02:49Z</time>
      </trkpt>
      <trkpt lat="43.81244" lon="5.56306">
        <ele>860.6</ele>
        <time>2022-08-24T07:02:51Z</time>
      </trkpt>
      <trkpt lat="43.81249" lon="5.56301">
        <ele>861.2</ele>
        <time>2022-08-24T07:02:53Z</time>
      </trkpt>
      <trkpt lat="43.81254" lon="5.56297">
        <ele>861.7</ele>
        <time>2022-08-24T07:02:55Z</time>
      </trkpt>
      <trkpt lat="43.81258" lon="5.56292">
        <ele>862.1</ele>
        <time>2022-08-24T07:02:57Z</time>
      </trkpt>
      <trkpt lat="43.81262" lon="5.56288">
        <ele>862.6</ele>
        <time>2022-08-24T07:02:59Z</time>
      </trkpt>
      <trkpt lat="43.81265" lon="5.56282">
        <ele>863.2</ele>
        <time>2022-08-24T07:03:01Z</time>
      </trkpt>
      <trkpt lat="43.81267" lon="5.56276">
        <ele>863.8</ele>
        <time>2022-08-24T07:03:03Z</time>
      </trkpt>
      <trkpt lat="43.8127" lon="5.56271">
        <ele>864.4</ele>
        <time>2022-08-24T07:03:05Z</time>
      </trkpt>
      <trkpt lat="43.81273" lon="5.56265">
        <ele>865.1</ele>
        <time>2022-08-24T07:03:07Z</time>
      </trkpt>
      <trkpt lat="43.81276" lon="5.56259">
        <ele>865.9</ele>
        <time>2022-08-24T07:03:09Z</time>
      </trkpt>
      <trkpt lat="43.81278" lon="5.56253">
        <ele>866.7</ele>
        <time>2022-08-24T07:03:11Z</time>
      </trkpt>
      <trkpt lat="43.81282" lon="5.56248">
        <ele>867.3</ele>
        <time>2022-08-24T07:03:13Z</time>
      </trkpt>
      <trkpt lat="43.81284" lon="5.56242">
        <ele>867.8</ele>
        <time>2022-08-24T07:03:15Z</time>
      </trkpt>
      <trkpt lat="43.81287" lon="5.56236">
        <ele>868.4</ele>
        <time>2022-08-24T07:03:17Z</time>
      </trkpt>
      <trkpt lat="43.81291" lon="5.56229">
        <ele>869</ele>
        <time>2022-08-24T07:03:19Z</time>
      </trkpt>
      <trkpt lat="43.81294" lon="5.56223">
        <ele>869.5</ele>
        <time>2022-08-24T07:03:21Z</time>
      </trkpt>
      <trkpt lat="43.81298" lon="5.56217">
        <ele>870.2</ele>
        <time>2022-08-24T07:03:23Z</time>
      </trkpt>
      <trkpt lat="43.813" lon="5.56211">
        <ele>870.9</ele>
        <time>2022-08-24T07:03:25Z</time>
      </trkpt>
      <trkpt lat="43.81304" lon="5.56205">
        <ele>871.8</ele>
        <time>2022-08-24T07:03:28Z</time>
      </trkpt>
      <trkpt lat="43.81307" lon="5.56199">
        <ele>872.5</ele>
        <time>2022-08-24T07:03:30Z</time>
      </trkpt>
      <trkpt lat="43.81312" lon="5.56192">
        <ele>873.4</ele>
        <time>2022-08-24T07:03:33Z</time>
      </trkpt>
      <trkpt lat="43.81315" lon="5.56188">
        <ele>873.9</ele>
        <time>2022-08-24T07:03:35Z</time>
      </trkpt>
      <trkpt lat="43.8132" lon="5.56182">
        <ele>874.6</ele>
        <time>2022-08-24T07:03:38Z</time>
      </trkpt>
      <trkpt lat="43.81324" lon="5.56176">
        <ele>875.5</ele>
        <time>2022-08-24T07:03:41Z</time>
      </trkpt>
      <trkpt lat="43.81329" lon="5.5617">
        <ele>876.4</ele>
        <time>2022-08-24T07:03:44Z</time>
      </trkpt>
      <trkpt lat="43.81332" lon="5.56165">
        <ele>877</ele>
        <time>2022-08-24T07:03:46Z</time>
      </trkpt>
      <trkpt lat="43.81335" lon="5.5616">
        <ele>877.5</ele>
        <time>2022-08-24T07:03:48Z</time>
      </trkpt>
      <trkpt lat="43.81338" lon="5.56155">
        <ele>877.9</ele>
        <time>2022-08-24T07:03:50Z</time>
      </trkpt>
      <trkpt lat="43.8134" lon="5.5615">
        <ele>878.4</ele>
        <time>2022-08-24T07:03:52Z</time>
      </trkpt>
      <trkpt lat="43.81343" lon="5.56144">
        <ele>878.9</ele>
        <time>2022-08-24T07:03:54Z</time>
      </trkpt>
      <trkpt lat="43.81346" lon="5.56138">
        <ele>879.5</ele>
        <time>2022-08-24T07:03:56Z</time>
      </trkpt>
      <trkpt lat="43.81348" lon="5.56132">
        <ele>879.9</ele>
        <time>2022-08-24T07:03:58Z</time>
      </trkpt>
      <trkpt lat="43.8135" lon="5.56126">
        <ele>880.3</ele>
        <time>2022-08-24T07:04:00Z</time>
      </trkpt>
      <trkpt lat="43.81352" lon="5.56119">
        <ele>880.8</ele>
        <time>2022-08-24T07:04:02Z</time>
      </trkpt>
      <trkpt lat="43.81353" lon="5.56112">
        <ele>881.3</ele>
        <time>2022-08-24T07:04:04Z</time>
      </trkpt>
      <trkpt lat="43.81355" lon="5.56104">
        <ele>881.6</ele>
        <time>2022-08-24T07:04:06Z</time>
      </trkpt>
      <trkpt lat="43.81357" lon="5.56096">
        <ele>881.7</ele>
        <time>2022-08-24T07:04:08Z</time>
      </trkpt>
      <trkpt lat="43.8136" lon="5.56087">
        <ele>881.9</ele>
        <time>2022-08-24T07:04:10Z</time>
      </trkpt>
      <trkpt lat="43.81364" lon="5.56079">
        <ele>881.8</ele>
        <time>2022-08-24T07:04:12Z</time>
      </trkpt>
      <trkpt lat="43.81368" lon="5.56071">
        <ele>881.4</ele>
        <time>2022-08-24T07:04:14Z</time>
      </trkpt>
      <trkpt lat="43.81373" lon="5.56063">
        <ele>881.1</ele>
        <time>2022-08-24T07:04:16Z</time>
      </trkpt>
      <trkpt lat="43.81377" lon="5.56055">
        <ele>881</ele>
        <time>2022-08-24T07:04:18Z</time>
      </trkpt>
      <trkpt lat="43.81382" lon="5.56046">
        <ele>881.2</ele>
        <time>2022-08-24T07:04:20Z</time>
      </trkpt>
      <trkpt lat="43.81388" lon="5.56037">
        <ele>881.6</ele>
        <time>2022-08-24T07:04:22Z</time>
      </trkpt>
      <trkpt lat="43.81391" lon="5.5603">
        <ele>881.8</ele>
        <time>2022-08-24T07:04:23Z</time>
      </trkpt>
      <trkpt lat="43.81397" lon="5.56024">
        <ele>881.5</ele>
        <time>2022-08-24T07:04:25Z</time>
      </trkpt>
      <trkpt lat="43.81402" lon="5.56016">
        <ele>881.3</ele>
        <time>2022-08-24T07:04:27Z</time>
      </trkpt>
      <trkpt lat="43.81408" lon="5.56009">
        <ele>881.1</ele>
        <time>2022-08-24T07:04:29Z</time>
      </trkpt>
      <trkpt lat="43.81413" lon="5.56001">
        <ele>881.1</ele>
        <time>2022-08-24T07:04:31Z</time>
      </trkpt>
      <trkpt lat="43.81418" lon="5.55991">
        <ele>881.6</ele>
        <time>2022-08-24T07:04:33Z</time>
      </trkpt>
      <trkpt lat="43.81421" lon="5.55986">
        <ele>881.8</ele>
        <time>2022-08-24T07:04:34Z</time>
      </trkpt>
      <trkpt lat="43.81427" lon="5.55977">
        <ele>882.3</ele>
        <time>2022-08-24T07:04:36Z</time>
      </trkpt>
      <trkpt lat="43.81432" lon="5.55967">
        <ele>882.8</ele>
        <time>2022-08-24T07:04:38Z</time>
      </trkpt>
      <trkpt lat="43.81438" lon="5.55959">
        <ele>883.2</ele>
        <time>2022-08-24T07:04:40Z</time>
      </trkpt>
      <trkpt lat="43.81445" lon="5.55952">
        <ele>883.5</ele>
        <time>2022-08-24T07:04:42Z</time>
      </trkpt>
      <trkpt lat="43.81448" lon="5.55947">
        <ele>883.9</ele>
        <time>2022-08-24T07:04:43Z</time>
      </trkpt>
      <trkpt lat="43.81453" lon="5.55941">
        <ele>884.6</ele>
        <time>2022-08-24T07:04:45Z</time>
      </trkpt>
      <trkpt lat="43.81456" lon="5.55936">
        <ele>884.9</ele>
        <time>2022-08-24T07:04:46Z</time>
      </trkpt>
      <trkpt lat="43.81461" lon="5.55929">
        <ele>885.4</ele>
        <time>2022-08-24T07:04:48Z</time>
      </trkpt>
      <trkpt lat="43.81466" lon="5.55921">
        <ele>885.8</ele>
        <time>2022-08-24T07:04:50Z</time>
      </trkpt>
      <trkpt lat="43.8147" lon="5.55914">
        <ele>886.2</ele>
        <time>2022-08-24T07:04:52Z</time>
      </trkpt>
      <trkpt lat="43.81474" lon="5.55907">
        <ele>886.7</ele>
        <time>2022-08-24T07:04:54Z</time>
      </trkpt>
      <trkpt lat="43.81478" lon="5.559">
        <ele>887.3</ele>
        <time>2022-08-24T07:04:56Z</time>
      </trkpt>
      <trkpt lat="43.81482" lon="5.55892">
        <ele>887.8</ele>
        <time>2022-08-24T07:04:58Z</time>
      </trkpt>
      <trkpt lat="43.81484" lon="5.55885">
        <ele>888.4</ele>
        <time>2022-08-24T07:05:00Z</time>
      </trkpt>
      <trkpt lat="43.81487" lon="5.55878">
        <ele>889</ele>
        <time>2022-08-24T07:05:02Z</time>
      </trkpt>
      <trkpt lat="43.81489" lon="5.55871">
        <ele>889.6</ele>
        <time>2022-08-24T07:05:04Z</time>
      </trkpt>
      <trkpt lat="43.81492" lon="5.55862">
        <ele>890.2</ele>
        <time>2022-08-24T07:05:06Z</time>
      </trkpt>
      <trkpt lat="43.81494" lon="5.55854">
        <ele>891</ele>
        <time>2022-08-24T07:05:08Z</time>
      </trkpt>
      <trkpt lat="43.81497" lon="5.55846">
        <ele>891.7</ele>
        <time>2022-08-24T07:05:10Z</time>
      </trkpt>
      <trkpt lat="43.815" lon="5.55839">
        <ele>892.4</ele>
        <time>2022-08-24T07:05:12Z</time>
      </trkpt>
      <trkpt lat="43.81503" lon="5.5583">
        <ele>893.2</ele>
        <time>2022-08-24T07:05:14Z</time>
      </trkpt>
      <trkpt lat="43.81506" lon="5.55823">
        <ele>893.8</ele>
        <time>2022-08-24T07:05:16Z</time>
      </trkpt>
      <trkpt lat="43.81509" lon="5.55816">
        <ele>894.4</ele>
        <time>2022-08-24T07:05:18Z</time>
      </trkpt>
      <trkpt lat="43.81513" lon="5.55808">
        <ele>894.9</ele>
        <time>2022-08-24T07:05:20Z</time>
      </trkpt>
      <trkpt lat="43.81516" lon="5.55801">
        <ele>895.4</ele>
        <time>2022-08-24T07:05:22Z</time>
      </trkpt>
      <trkpt lat="43.81519" lon="5.55794">
        <ele>895.9</ele>
        <time>2022-08-24T07:05:24Z</time>
      </trkpt>
      <trkpt lat="43.81522" lon="5.55787">
        <ele>896.5</ele>
        <time>2022-08-24T07:05:26Z</time>
      </trkpt>
      <trkpt lat="43.81525" lon="5.5578">
        <ele>897</ele>
        <time>2022-08-24T07:05:28Z</time>
      </trkpt>
      <trkpt lat="43.81528" lon="5.55773">
        <ele>897.8</ele>
        <time>2022-08-24T07:05:30Z</time>
      </trkpt>
      <trkpt lat="43.8153" lon="5.55766">
        <ele>898.5</ele>
        <time>2022-08-24T07:05:32Z</time>
      </trkpt>
      <trkpt lat="43.81533" lon="5.5576">
        <ele>899.1</ele>
        <time>2022-08-24T07:05:34Z</time>
      </trkpt>
      <trkpt lat="43.81536" lon="5.55754">
        <ele>899.7</ele>
        <time>2022-08-24T07:05:36Z</time>
      </trkpt>
      <trkpt lat="43.81539" lon="5.55748">
        <ele>900.1</ele>
        <time>2022-08-24T07:05:38Z</time>
      </trkpt>
      <trkpt lat="43.81541" lon="5.55742">
        <ele>900.7</ele>
        <time>2022-08-24T07:05:40Z</time>
      </trkpt>
      <trkpt lat="43.81544" lon="5.55735">
        <ele>901.4</ele>
        <time>2022-08-24T07:05:42Z</time>
      </trkpt>
      <trkpt lat="43.81546" lon="5.55729">
        <ele>902.1</ele>
        <time>2022-08-24T07:05:44Z</time>
      </trkpt>
      <trkpt lat="43.81548" lon="5.55722">
        <ele>902.8</ele>
        <time>2022-08-24T07:05:46Z</time>
      </trkpt>
      <trkpt lat="43.81551" lon="5.55716">
        <ele>903.4</ele>
        <time>2022-08-24T07:05:48Z</time>
      </trkpt>
      <trkpt lat="43.81553" lon="5.5571">
        <ele>904</ele>
        <time>2022-08-24T07:05:50Z</time>
      </trkpt>
      <trkpt lat="43.81556" lon="5.55704">
        <ele>904.6</ele>
        <time>2022-08-24T07:05:52Z</time>
      </trkpt>
      <trkpt lat="43.81558" lon="5.55697">
        <ele>905.4</ele>
        <time>2022-08-24T07:05:54Z</time>
      </trkpt>
      <trkpt lat="43.8156" lon="5.55691">
        <ele>906.1</ele>
        <time>2022-08-24T07:05:56Z</time>
      </trkpt>
      <trkpt lat="43.81563" lon="5.55685">
        <ele>906.8</ele>
        <time>2022-08-24T07:05:58Z</time>
      </trkpt>
      <trkpt lat="43.81566" lon="5.55679">
        <ele>907.4</ele>
        <time>2022-08-24T07:06:00Z</time>
      </trkpt>
      <trkpt lat="43.81569" lon="5.55673">
        <ele>908.1</ele>
        <time>2022-08-24T07:06:02Z</time>
      </trkpt>
      <trkpt lat="43.81572" lon="5.55666">
        <ele>908.8</ele>
        <time>2022-08-24T07:06:04Z</time>
      </trkpt>
      <trkpt lat="43.81574" lon="5.55659">
        <ele>909.4</ele>
        <time>2022-08-24T07:06:06Z</time>
      </trkpt>
      <trkpt lat="43.81576" lon="5.55652">
        <ele>910.2</ele>
        <time>2022-08-24T07:06:08Z</time>
      </trkpt>
      <trkpt lat="43.81578" lon="5.55646">
        <ele>910.7</ele>
        <time>2022-08-24T07:06:10Z</time>
      </trkpt>
      <trkpt lat="43.8158" lon="5.5564">
        <ele>911.3</ele>
        <time>2022-08-24T07:06:12Z</time>
      </trkpt>
      <trkpt lat="43.81583" lon="5.55634">
        <ele>911.7</ele>
        <time>2022-08-24T07:06:14Z</time>
      </trkpt>
      <trkpt lat="43.81585" lon="5.55627">
        <ele>911.8</ele>
        <time>2022-08-24T07:06:16Z</time>
      </trkpt>
      <trkpt lat="43.81588" lon="5.55623">
        <ele>911.6</ele>
        <time>2022-08-24T07:06:18Z</time>
      </trkpt>
      <trkpt lat="43.81589" lon="5.55616">
        <ele>912.4</ele>
        <time>2022-08-24T07:06:21Z</time>
      </trkpt>
      <trkpt lat="43.81582" lon="5.55614">
        <ele>913.8</ele>
        <time>2022-08-24T07:06:24Z</time>
      </trkpt>
      <trkpt lat="43.81578" lon="5.55618">
        <ele>914.1</ele>
        <time>2022-08-24T07:06:26Z</time>
      </trkpt>
      <trkpt lat="43.81574" lon="5.55621">
        <ele>914.3</ele>
        <time>2022-08-24T07:06:28Z</time>
      </trkpt>
      <trkpt lat="43.81568" lon="5.55623">
        <ele>914.9</ele>
        <time>2022-08-24T07:06:30Z</time>
      </trkpt>
      <trkpt lat="43.81563" lon="5.55625">
        <ele>915.4</ele>
        <time>2022-08-24T07:06:32Z</time>
      </trkpt>
      <trkpt lat="43.81558" lon="5.55626">
        <ele>916</ele>
        <time>2022-08-24T07:06:34Z</time>
      </trkpt>
      <trkpt lat="43.81553" lon="5.55625">
        <ele>916.8</ele>
        <time>2022-08-24T07:06:36Z</time>
      </trkpt>
      <trkpt lat="43.81548" lon="5.55623">
        <ele>917.5</ele>
        <time>2022-08-24T07:06:38Z</time>
      </trkpt>
      <trkpt lat="43.81543" lon="5.55621">
        <ele>918.2</ele>
        <time>2022-08-24T07:06:41Z</time>
      </trkpt>
      <trkpt lat="43.81536" lon="5.55619">
        <ele>919.1</ele>
        <time>2022-08-24T07:06:44Z</time>
      </trkpt>
      <trkpt lat="43.8153" lon="5.55619">
        <ele>919.7</ele>
        <time>2022-08-24T07:06:47Z</time>
      </trkpt>
      <trkpt lat="43.81524" lon="5.5562">
        <ele>920.1</ele>
        <time>2022-08-24T07:06:50Z</time>
      </trkpt>
      <trkpt lat="43.81519" lon="5.55622">
        <ele>920.4</ele>
        <time>2022-08-24T07:06:52Z</time>
      </trkpt>
      <trkpt lat="43.81512" lon="5.55622">
        <ele>921</ele>
        <time>2022-08-24T07:06:55Z</time>
      </trkpt>
      <trkpt lat="43.81507" lon="5.55622">
        <ele>921.4</ele>
        <time>2022-08-24T07:06:57Z</time>
      </trkpt>
      <trkpt lat="43.81501" lon="5.55623">
        <ele>921.9</ele>
        <time>2022-08-24T07:06:59Z</time>
      </trkpt>
      <trkpt lat="43.81496" lon="5.55622">
        <ele>922.4</ele>
        <time>2022-08-24T07:07:01Z</time>
      </trkpt>
      <trkpt lat="43.81491" lon="5.55622">
        <ele>922.9</ele>
        <time>2022-08-24T07:07:03Z</time>
      </trkpt>
      <trkpt lat="43.81486" lon="5.55622">
        <ele>923.4</ele>
        <time>2022-08-24T07:07:05Z</time>
      </trkpt>
      <trkpt lat="43.81481" lon="5.55621">
        <ele>923.9</ele>
        <time>2022-08-24T07:07:07Z</time>
      </trkpt>
      <trkpt lat="43.81476" lon="5.5562">
        <ele>924.4</ele>
        <time>2022-08-24T07:07:09Z</time>
      </trkpt>
      <trkpt lat="43.81471" lon="5.55619">
        <ele>924.9</ele>
        <time>2022-08-24T07:07:11Z</time>
      </trkpt>
      <trkpt lat="43.81466" lon="5.55618">
        <ele>925.2</ele>
        <time>2022-08-24T07:07:14Z</time>
      </trkpt>
      <trkpt lat="43.8146" lon="5.55619">
        <ele>925.3</ele>
        <time>2022-08-24T07:07:16Z</time>
      </trkpt>
      <trkpt lat="43.81453" lon="5.55618">
        <ele>925.6</ele>
        <time>2022-08-24T07:07:19Z</time>
      </trkpt>
      <trkpt lat="43.81448" lon="5.55617">
        <ele>926</ele>
        <time>2022-08-24T07:07:21Z</time>
      </trkpt>
      <trkpt lat="43.81443" lon="5.55616">
        <ele>926.4</ele>
        <time>2022-08-24T07:07:23Z</time>
      </trkpt>
      <trkpt lat="43.81437" lon="5.55613">
        <ele>927.3</ele>
        <time>2022-08-24T07:07:26Z</time>
      </trkpt>
      <trkpt lat="43.81432" lon="5.55611">
        <ele>927.9</ele>
        <time>2022-08-24T07:07:28Z</time>
      </trkpt>
      <trkpt lat="43.81427" lon="5.5561">
        <ele>928.5</ele>
        <time>2022-08-24T07:07:30Z</time>
      </trkpt>
      <trkpt lat="43.81422" lon="5.55607">
        <ele>929.2</ele>
        <time>2022-08-24T07:07:32Z</time>
      </trkpt>
      <trkpt lat="43.81418" lon="5.55604">
        <ele>929.9</ele>
        <time>2022-08-24T07:07:34Z</time>
      </trkpt>
      <trkpt lat="43.81411" lon="5.556">
        <ele>930.5</ele>
        <time>2022-08-24T07:07:37Z</time>
      </trkpt>
      <trkpt lat="43.81407" lon="5.55599">
        <ele>930.6</ele>
        <time>2022-08-24T07:07:39Z</time>
      </trkpt>
      <trkpt lat="43.81403" lon="5.55596">
        <ele>930.9</ele>
        <time>2022-08-24T07:07:41Z</time>
      </trkpt>
      <trkpt lat="43.81398" lon="5.55594">
        <ele>931.1</ele>
        <time>2022-08-24T07:07:43Z</time>
      </trkpt>
      <trkpt lat="43.81394" lon="5.5559">
        <ele>931.4</ele>
        <time>2022-08-24T07:07:45Z</time>
      </trkpt>
      <trkpt lat="43.8139" lon="5.55586">
        <ele>931.8</ele>
        <time>2022-08-24T07:07:47Z</time>
      </trkpt>
      <trkpt lat="43.81387" lon="5.5558">
        <ele>932.3</ele>
        <time>2022-08-24T07:07:49Z</time>
      </trkpt>
      <trkpt lat="43.81384" lon="5.55575">
        <ele>932.9</ele>
        <time>2022-08-24T07:07:51Z</time>
      </trkpt>
      <trkpt lat="43.81381" lon="5.5557">
        <ele>933.3</ele>
        <time>2022-08-24T07:07:53Z</time>
      </trkpt>
      <trkpt lat="43.81377" lon="5.55563">
        <ele>933.9</ele>
        <time>2022-08-24T07:07:56Z</time>
      </trkpt>
      <trkpt lat="43.81374" lon="5.55558">
        <ele>934.3</ele>
        <time>2022-08-24T07:07:58Z</time>
      </trkpt>
      <trkpt lat="43.81372" lon="5.55551">
        <ele>934.8</ele>
        <time>2022-08-24T07:08:00Z</time>
      </trkpt>
      <trkpt lat="43.81371" lon="5.55545">
        <ele>935.2</ele>
        <time>2022-08-24T07:08:02Z</time>
      </trkpt>
      <trkpt lat="43.8137" lon="5.55539">
        <ele>935.7</ele>
        <time>2022-08-24T07:08:04Z</time>
      </trkpt>
      <trkpt lat="43.81369" lon="5.55532">
        <ele>936.2</ele>
        <time>2022-08-24T07:08:06Z</time>
      </trkpt>
      <trkpt lat="43.81369" lon="5.55525">
        <ele>936.7</ele>
        <time>2022-08-24T07:08:08Z</time>
      </trkpt>
      <trkpt lat="43.81369" lon="5.55518">
        <ele>937</ele>
        <time>2022-08-24T07:08:10Z</time>
      </trkpt>
      <trkpt lat="43.8137" lon="5.5551">
        <ele>937.3</ele>
        <time>2022-08-24T07:08:12Z</time>
      </trkpt>
      <trkpt lat="43.8137" lon="5.55502">
        <ele>937.6</ele>
        <time>2022-08-24T07:08:14Z</time>
      </trkpt>
      <trkpt lat="43.8137" lon="5.55494">
        <ele>937.8</ele>
        <time>2022-08-24T07:08:16Z</time>
      </trkpt>
      <trkpt lat="43.81371" lon="5.55485">
        <ele>938.1</ele>
        <time>2022-08-24T07:08:18Z</time>
      </trkpt>
      <trkpt lat="43.81372" lon="5.55476">
        <ele>938.4</ele>
        <time>2022-08-24T07:08:20Z</time>
      </trkpt>
      <trkpt lat="43.81373" lon="5.55467">
        <ele>939</ele>
        <time>2022-08-24T07:08:22Z</time>
      </trkpt>
      <trkpt lat="43.81374" lon="5.55458">
        <ele>939.7</ele>
        <time>2022-08-24T07:08:24Z</time>
      </trkpt>
      <trkpt lat="43.81375" lon="5.55449">
        <ele>940.2</ele>
        <time>2022-08-24T07:08:26Z</time>
      </trkpt>
      <trkpt lat="43.81375" lon="5.5544">
        <ele>940.4</ele>
        <time>2022-08-24T07:08:28Z</time>
      </trkpt>
      <trkpt lat="43.81377" lon="5.55431">
        <ele>940.7</ele>
        <time>2022-08-24T07:08:30Z</time>
      </trkpt>
      <trkpt lat="43.81379" lon="5.55423">
        <ele>941.2</ele>
        <time>2022-08-24T07:08:32Z</time>
      </trkpt>
      <trkpt lat="43.81382" lon="5.55415">
        <ele>941.9</ele>
        <time>2022-08-24T07:08:34Z</time>
      </trkpt>
      <trkpt lat="43.81386" lon="5.55408">
        <ele>942.4</ele>
        <time>2022-08-24T07:08:36Z</time>
      </trkpt>
      <trkpt lat="43.81391" lon="5.55401">
        <ele>943.2</ele>
        <time>2022-08-24T07:08:38Z</time>
      </trkpt>
      <trkpt lat="43.81395" lon="5.55394">
        <ele>943.5</ele>
        <time>2022-08-24T07:08:40Z</time>
      </trkpt>
      <trkpt lat="43.814" lon="5.55386">
        <ele>943.8</ele>
        <time>2022-08-24T07:08:42Z</time>
      </trkpt>
      <trkpt lat="43.81406" lon="5.55378">
        <ele>944.2</ele>
        <time>2022-08-24T07:08:44Z</time>
      </trkpt>
      <trkpt lat="43.81412" lon="5.5537">
        <ele>944.6</ele>
        <time>2022-08-24T07:08:46Z</time>
      </trkpt>
      <trkpt lat="43.81417" lon="5.55361">
        <ele>945</ele>
        <time>2022-08-24T07:08:48Z</time>
      </trkpt>
      <trkpt lat="43.81422" lon="5.55353">
        <ele>945.2</ele>
        <time>2022-08-24T07:08:50Z</time>
      </trkpt>
      <trkpt lat="43.81429" lon="5.55346">
        <ele>945.6</ele>
        <time>2022-08-24T07:08:52Z</time>
      </trkpt>
      <trkpt lat="43.81435" lon="5.55339">
        <ele>946</ele>
        <time>2022-08-24T07:08:54Z</time>
      </trkpt>
      <trkpt lat="43.81442" lon="5.55332">
        <ele>946.4</ele>
        <time>2022-08-24T07:08:56Z</time>
      </trkpt>
      <trkpt lat="43.81448" lon="5.55326">
        <ele>946.5</ele>
        <time>2022-08-24T07:08:58Z</time>
      </trkpt>
      <trkpt lat="43.81454" lon="5.5532">
        <ele>946.4</ele>
        <time>2022-08-24T07:09:00Z</time>
      </trkpt>
      <trkpt lat="43.81461" lon="5.55314">
        <ele>946.5</ele>
        <time>2022-08-24T07:09:02Z</time>
      </trkpt>
      <trkpt lat="43.81467" lon="5.55307">
        <ele>946.6</ele>
        <time>2022-08-24T07:09:04Z</time>
      </trkpt>
      <trkpt lat="43.81474" lon="5.55301">
        <ele>946.9</ele>
        <time>2022-08-24T07:09:06Z</time>
      </trkpt>
      <trkpt lat="43.8148" lon="5.55296">
        <ele>947.1</ele>
        <time>2022-08-24T07:09:08Z</time>
      </trkpt>
      <trkpt lat="43.81487" lon="5.55288">
        <ele>947.5</ele>
        <time>2022-08-24T07:09:10Z</time>
      </trkpt>
      <trkpt lat="43.81491" lon="5.55281">
        <ele>948</ele>
        <time>2022-08-24T07:09:12Z</time>
      </trkpt>
      <trkpt lat="43.81495" lon="5.55272">
        <ele>948.9</ele>
        <time>2022-08-24T07:09:14Z</time>
      </trkpt>
      <trkpt lat="43.81497" lon="5.55262">
        <ele>949.8</ele>
        <time>2022-08-24T07:09:16Z</time>
      </trkpt>
      <trkpt lat="43.81498" lon="5.55252">
        <ele>950.5</ele>
        <time>2022-08-24T07:09:18Z</time>
      </trkpt>
      <trkpt lat="43.81497" lon="5.55242">
        <ele>950.6</ele>
        <time>2022-08-24T07:09:20Z</time>
      </trkpt>
      <trkpt lat="43.81496" lon="5.55231">
        <ele>950.4</ele>
        <time>2022-08-24T07:09:22Z</time>
      </trkpt>
      <trkpt lat="43.81495" lon="5.5522">
        <ele>950.3</ele>
        <time>2022-08-24T07:09:24Z</time>
      </trkpt>
      <trkpt lat="43.81493" lon="5.55209">
        <ele>950.7</ele>
        <time>2022-08-24T07:09:26Z</time>
      </trkpt>
      <trkpt lat="43.81491" lon="5.55197">
        <ele>950.9</ele>
        <time>2022-08-24T07:09:28Z</time>
      </trkpt>
      <trkpt lat="43.81488" lon="5.55185">
        <ele>950.6</ele>
        <time>2022-08-24T07:09:30Z</time>
      </trkpt>
      <trkpt lat="43.81488" lon="5.55179">
        <ele>950.6</ele>
        <time>2022-08-24T07:09:31Z</time>
      </trkpt>
      <trkpt lat="43.81487" lon="5.55173">
        <ele>950.6</ele>
        <time>2022-08-24T07:09:32Z</time>
      </trkpt>
      <trkpt lat="43.81487" lon="5.55166">
        <ele>950.6</ele>
        <time>2022-08-24T07:09:33Z</time>
      </trkpt>
      <trkpt lat="43.81487" lon="5.55155">
        <ele>950.4</ele>
        <time>2022-08-24T07:09:35Z</time>
      </trkpt>
      <trkpt lat="43.81487" lon="5.55148">
        <ele>950.3</ele>
        <time>2022-08-24T07:09:36Z</time>
      </trkpt>
      <trkpt lat="43.81487" lon="5.55142">
        <ele>950.2</ele>
        <time>2022-08-24T07:09:37Z</time>
      </trkpt>
      <trkpt lat="43.81487" lon="5.55135">
        <ele>949.9</ele>
        <time>2022-08-24T07:09:38Z</time>
      </trkpt>
      <trkpt lat="43.81488" lon="5.55128">
        <ele>949.8</ele>
        <time>2022-08-24T07:09:39Z</time>
      </trkpt>
      <trkpt lat="43.81489" lon="5.55121">
        <ele>949.4</ele>
        <time>2022-08-24T07:09:40Z</time>
      </trkpt>
      <trkpt lat="43.8149" lon="5.55115">
        <ele>949.4</ele>
        <time>2022-08-24T07:09:41Z</time>
      </trkpt>
      <trkpt lat="43.81493" lon="5.55104">
        <ele>949.6</ele>
        <time>2022-08-24T07:09:43Z</time>
      </trkpt>
      <trkpt lat="43.81496" lon="5.55094">
        <ele>950.6</ele>
        <time>2022-08-24T07:09:45Z</time>
      </trkpt>
      <trkpt lat="43.815" lon="5.55085">
        <ele>952.1</ele>
        <time>2022-08-24T07:09:47Z</time>
      </trkpt>
      <trkpt lat="43.81503" lon="5.55077">
        <ele>951.7</ele>
        <time>2022-08-24T07:09:49Z</time>
      </trkpt>
      <trkpt lat="43.81506" lon="5.5507">
        <ele>951</ele>
        <time>2022-08-24T07:09:51Z</time>
      </trkpt>
      <trkpt lat="43.81511" lon="5.5506">
        <ele>950.8</ele>
        <time>2022-08-24T07:09:53Z</time>
      </trkpt>
      <trkpt lat="43.81514" lon="5.55055">
        <ele>950.9</ele>
        <time>2022-08-24T07:09:54Z</time>
      </trkpt>
      <trkpt lat="43.81519" lon="5.55044">
        <ele>951.1</ele>
        <time>2022-08-24T07:09:56Z</time>
      </trkpt>
      <trkpt lat="43.81521" lon="5.55038">
        <ele>951.1</ele>
        <time>2022-08-24T07:09:57Z</time>
      </trkpt>
      <trkpt lat="43.81524" lon="5.55031">
        <ele>951.1</ele>
        <time>2022-08-24T07:09:58Z</time>
      </trkpt>
      <trkpt lat="43.81526" lon="5.55026">
        <ele>951.1</ele>
        <time>2022-08-24T07:09:59Z</time>
      </trkpt>
      <trkpt lat="43.81529" lon="5.55018">
        <ele>951.2</ele>
        <time>2022-08-24T07:10:00Z</time>
      </trkpt>
      <trkpt lat="43.81531" lon="5.55011">
        <ele>951.1</ele>
        <time>2022-08-24T07:10:01Z</time>
      </trkpt>
      <trkpt lat="43.81533" lon="5.55004">
        <ele>951.1</ele>
        <time>2022-08-24T07:10:02Z</time>
      </trkpt>
      <trkpt lat="43.81536" lon="5.54998">
        <ele>951.1</ele>
        <time>2022-08-24T07:10:03Z</time>
      </trkpt>
      <trkpt lat="43.81539" lon="5.5499">
        <ele>951.1</ele>
        <time>2022-08-24T07:10:04Z</time>
      </trkpt>
      <trkpt lat="43.81542" lon="5.54983">
        <ele>951.3</ele>
        <time>2022-08-24T07:10:05Z</time>
      </trkpt>
      <trkpt lat="43.81545" lon="5.54976">
        <ele>951.4</ele>
        <time>2022-08-24T07:10:06Z</time>
      </trkpt>
      <trkpt lat="43.81547" lon="5.54969">
        <ele>951.2</ele>
        <time>2022-08-24T07:10:07Z</time>
      </trkpt>
      <trkpt lat="43.81548" lon="5.54962">
        <ele>950.8</ele>
        <time>2022-08-24T07:10:08Z</time>
      </trkpt>
      <trkpt lat="43.8155" lon="5.54954">
        <ele>950.5</ele>
        <time>2022-08-24T07:10:09Z</time>
      </trkpt>
      <trkpt lat="43.81552" lon="5.54948">
        <ele>950.3</ele>
        <time>2022-08-24T07:10:10Z</time>
      </trkpt>
      <trkpt lat="43.81553" lon="5.54942">
        <ele>950.3</ele>
        <time>2022-08-24T07:10:11Z</time>
      </trkpt>
      <trkpt lat="43.81555" lon="5.54935">
        <ele>950.8</ele>
        <time>2022-08-24T07:10:12Z</time>
      </trkpt>
      <trkpt lat="43.81556" lon="5.54928">
        <ele>951.1</ele>
        <time>2022-08-24T07:10:13Z</time>
      </trkpt>
      <trkpt lat="43.81557" lon="5.54916">
        <ele>951.3</ele>
        <time>2022-08-24T07:10:15Z</time>
      </trkpt>
      <trkpt lat="43.81559" lon="5.54904">
        <ele>951.4</ele>
        <time>2022-08-24T07:10:17Z</time>
      </trkpt>
      <trkpt lat="43.8156" lon="5.54897">
        <ele>951.3</ele>
        <time>2022-08-24T07:10:18Z</time>
      </trkpt>
      <trkpt lat="43.81561" lon="5.54889">
        <ele>951.4</ele>
        <time>2022-08-24T07:10:19Z</time>
      </trkpt>
      <trkpt lat="43.81562" lon="5.54882">
        <ele>951.4</ele>
        <time>2022-08-24T07:10:20Z</time>
      </trkpt>
      <trkpt lat="43.81562" lon="5.54873">
        <ele>951.2</ele>
        <time>2022-08-24T07:10:21Z</time>
      </trkpt>
      <trkpt lat="43.81563" lon="5.54866">
        <ele>951.3</ele>
        <time>2022-08-24T07:10:22Z</time>
      </trkpt>
      <trkpt lat="43.81564" lon="5.54857">
        <ele>951.1</ele>
        <time>2022-08-24T07:10:23Z</time>
      </trkpt>
      <trkpt lat="43.81564" lon="5.54848">
        <ele>950.8</ele>
        <time>2022-08-24T07:10:24Z</time>
      </trkpt>
      <trkpt lat="43.81565" lon="5.54839">
        <ele>950.6</ele>
        <time>2022-08-24T07:10:25Z</time>
      </trkpt>
      <trkpt lat="43.81566" lon="5.54829">
        <ele>950.6</ele>
        <time>2022-08-24T07:10:26Z</time>
      </trkpt>
      <trkpt lat="43.81568" lon="5.54821">
        <ele>950.8</ele>
        <time>2022-08-24T07:10:27Z</time>
      </trkpt>
      <trkpt lat="43.81569" lon="5.54813">
        <ele>950.9</ele>
        <time>2022-08-24T07:10:28Z</time>
      </trkpt>
      <trkpt lat="43.81571" lon="5.54805">
        <ele>951</ele>
        <time>2022-08-24T07:10:29Z</time>
      </trkpt>
      <trkpt lat="43.81573" lon="5.54797">
        <ele>950.7</ele>
        <time>2022-08-24T07:10:30Z</time>
      </trkpt>
      <trkpt lat="43.81575" lon="5.5479">
        <ele>950.7</ele>
        <time>2022-08-24T07:10:31Z</time>
      </trkpt>
      <trkpt lat="43.81579" lon="5.54782">
        <ele>951.1</ele>
        <time>2022-08-24T07:10:32Z</time>
      </trkpt>
      <trkpt lat="43.81582" lon="5.54774">
        <ele>951.2</ele>
        <time>2022-08-24T07:10:33Z</time>
      </trkpt>
      <trkpt lat="43.81585" lon="5.54765">
        <ele>951</ele>
        <time>2022-08-24T07:10:34Z</time>
      </trkpt>
      <trkpt lat="43.81587" lon="5.54758">
        <ele>950.7</ele>
        <time>2022-08-24T07:10:35Z</time>
      </trkpt>
      <trkpt lat="43.81588" lon="5.54749">
        <ele>950.1</ele>
        <time>2022-08-24T07:10:36Z</time>
      </trkpt>
      <trkpt lat="43.81589" lon="5.5474">
        <ele>949.9</ele>
        <time>2022-08-24T07:10:37Z</time>
      </trkpt>
      <trkpt lat="43.8159" lon="5.54732">
        <ele>949.9</ele>
        <time>2022-08-24T07:10:38Z</time>
      </trkpt>
      <trkpt lat="43.8159" lon="5.54724">
        <ele>949.8</ele>
        <time>2022-08-24T07:10:39Z</time>
      </trkpt>
      <trkpt lat="43.8159" lon="5.54717">
        <ele>950</ele>
        <time>2022-08-24T07:10:40Z</time>
      </trkpt>
      <trkpt lat="43.8159" lon="5.54708">
        <ele>950.1</ele>
        <time>2022-08-24T07:10:41Z</time>
      </trkpt>
      <trkpt lat="43.81588" lon="5.547">
        <ele>950.1</ele>
        <time>2022-08-24T07:10:42Z</time>
      </trkpt>
      <trkpt lat="43.81586" lon="5.54693">
        <ele>949.7</ele>
        <time>2022-08-24T07:10:43Z</time>
      </trkpt>
      <trkpt lat="43.81585" lon="5.54684">
        <ele>949.9</ele>
        <time>2022-08-24T07:10:44Z</time>
      </trkpt>
      <trkpt lat="43.81583" lon="5.54676">
        <ele>949.4</ele>
        <time>2022-08-24T07:10:45Z</time>
      </trkpt>
      <trkpt lat="43.81581" lon="5.54668">
        <ele>948.7</ele>
        <time>2022-08-24T07:10:46Z</time>
      </trkpt>
      <trkpt lat="43.8158" lon="5.5466">
        <ele>948.4</ele>
        <time>2022-08-24T07:10:47Z</time>
      </trkpt>
      <trkpt lat="43.81579" lon="5.54651">
        <ele>947.9</ele>
        <time>2022-08-24T07:10:48Z</time>
      </trkpt>
      <trkpt lat="43.81579" lon="5.54643">
        <ele>947.7</ele>
        <time>2022-08-24T07:10:49Z</time>
      </trkpt>
      <trkpt lat="43.81578" lon="5.54635">
        <ele>947.2</ele>
        <time>2022-08-24T07:10:50Z</time>
      </trkpt>
      <trkpt lat="43.81578" lon="5.54626">
        <ele>946.7</ele>
        <time>2022-08-24T07:10:51Z</time>
      </trkpt>
      <trkpt lat="43.81579" lon="5.54618">
        <ele>947</ele>
        <time>2022-08-24T07:10:52Z</time>
      </trkpt>
      <trkpt lat="43.8158" lon="5.5461">
        <ele>947.3</ele>
        <time>2022-08-24T07:10:53Z</time>
      </trkpt>
      <trkpt lat="43.81583" lon="5.54603">
        <ele>947.7</ele>
        <time>2022-08-24T07:10:54Z</time>
      </trkpt>
      <trkpt lat="43.81585" lon="5.54594">
        <ele>947.8</ele>
        <time>2022-08-24T07:10:55Z</time>
      </trkpt>
      <trkpt lat="43.81588" lon="5.54586">
        <ele>947.8</ele>
        <time>2022-08-24T07:10:56Z</time>
      </trkpt>
      <trkpt lat="43.81591" lon="5.54577">
        <ele>947.4</ele>
        <time>2022-08-24T07:10:57Z</time>
      </trkpt>
      <trkpt lat="43.81594" lon="5.54569">
        <ele>947.1</ele>
        <time>2022-08-24T07:10:58Z</time>
      </trkpt>
      <trkpt lat="43.81598" lon="5.54562">
        <ele>947</ele>
        <time>2022-08-24T07:10:59Z</time>
      </trkpt>
      <trkpt lat="43.81603" lon="5.54554">
        <ele>947</ele>
        <time>2022-08-24T07:11:00Z</time>
      </trkpt>
      <trkpt lat="43.81608" lon="5.54547">
        <ele>947.3</ele>
        <time>2022-08-24T07:11:01Z</time>
      </trkpt>
      <trkpt lat="43.81613" lon="5.5454">
        <ele>946.9</ele>
        <time>2022-08-24T07:11:02Z</time>
      </trkpt>
      <trkpt lat="43.81619" lon="5.54534">
        <ele>946.5</ele>
        <time>2022-08-24T07:11:03Z</time>
      </trkpt>
      <trkpt lat="43.81625" lon="5.5453">
        <ele>946.2</ele>
        <time>2022-08-24T07:11:04Z</time>
      </trkpt>
      <trkpt lat="43.81631" lon="5.54528">
        <ele>946.1</ele>
        <time>2022-08-24T07:11:05Z</time>
      </trkpt>
      <trkpt lat="43.81638" lon="5.54526">
        <ele>946.3</ele>
        <time>2022-08-24T07:11:06Z</time>
      </trkpt>
      <trkpt lat="43.81644" lon="5.54523">
        <ele>945.9</ele>
        <time>2022-08-24T07:11:07Z</time>
      </trkpt>
      <trkpt lat="43.81652" lon="5.5452">
        <ele>945.5</ele>
        <time>2022-08-24T07:11:08Z</time>
      </trkpt>
      <trkpt lat="43.81659" lon="5.54517">
        <ele>945.2</ele>
        <time>2022-08-24T07:11:09Z</time>
      </trkpt>
      <trkpt lat="43.81665" lon="5.54515">
        <ele>945.2</ele>
        <time>2022-08-24T07:11:10Z</time>
      </trkpt>
      <trkpt lat="43.81673" lon="5.54513">
        <ele>944.6</ele>
        <time>2022-08-24T07:11:11Z</time>
      </trkpt>
      <trkpt lat="43.81681" lon="5.54511">
        <ele>943.9</ele>
        <time>2022-08-24T07:11:12Z</time>
      </trkpt>
      <trkpt lat="43.81689" lon="5.5451">
        <ele>943.4</ele>
        <time>2022-08-24T07:11:13Z</time>
      </trkpt>
      <trkpt lat="43.81697" lon="5.54509">
        <ele>942.8</ele>
        <time>2022-08-24T07:11:14Z</time>
      </trkpt>
      <trkpt lat="43.81704" lon="5.54507">
        <ele>942.2</ele>
        <time>2022-08-24T07:11:15Z</time>
      </trkpt>
      <trkpt lat="43.81712" lon="5.54505">
        <ele>941.4</ele>
        <time>2022-08-24T07:11:16Z</time>
      </trkpt>
      <trkpt lat="43.81719" lon="5.54504">
        <ele>941.1</ele>
        <time>2022-08-24T07:11:17Z</time>
      </trkpt>
      <trkpt lat="43.81726" lon="5.54502">
        <ele>940.5</ele>
        <time>2022-08-24T07:11:18Z</time>
      </trkpt>
      <trkpt lat="43.81733" lon="5.545">
        <ele>940</ele>
        <time>2022-08-24T07:11:19Z</time>
      </trkpt>
      <trkpt lat="43.81739" lon="5.54497">
        <ele>939.8</ele>
        <time>2022-08-24T07:11:20Z</time>
      </trkpt>
      <trkpt lat="43.81746" lon="5.54493">
        <ele>939.7</ele>
        <time>2022-08-24T07:11:21Z</time>
      </trkpt>
      <trkpt lat="43.81752" lon="5.54487">
        <ele>939.5</ele>
        <time>2022-08-24T07:11:22Z</time>
      </trkpt>
      <trkpt lat="43.81757" lon="5.54483">
        <ele>939.3</ele>
        <time>2022-08-24T07:11:23Z</time>
      </trkpt>
      <trkpt lat="43.81764" lon="5.54478">
        <ele>939.4</ele>
        <time>2022-08-24T07:11:24Z</time>
      </trkpt>
      <trkpt lat="43.81769" lon="5.54474">
        <ele>939.6</ele>
        <time>2022-08-24T07:11:25Z</time>
      </trkpt>
      <trkpt lat="43.81775" lon="5.54473">
        <ele>939.9</ele>
        <time>2022-08-24T07:11:26Z</time>
      </trkpt>
      <trkpt lat="43.8178" lon="5.54469">
        <ele>940.5</ele>
        <time>2022-08-24T07:11:27Z</time>
      </trkpt>
      <trkpt lat="43.81786" lon="5.54468">
        <ele>940.6</ele>
        <time>2022-08-24T07:11:28Z</time>
      </trkpt>
      <trkpt lat="43.81791" lon="5.54466">
        <ele>940.6</ele>
        <time>2022-08-24T07:11:29Z</time>
      </trkpt>
      <trkpt lat="43.81796" lon="5.54464">
        <ele>940.9</ele>
        <time>2022-08-24T07:11:30Z</time>
      </trkpt>
      <trkpt lat="43.818" lon="5.54462">
        <ele>941.1</ele>
        <time>2022-08-24T07:11:31Z</time>
      </trkpt>
      <trkpt lat="43.81805" lon="5.54461">
        <ele>941.1</ele>
        <time>2022-08-24T07:11:32Z</time>
      </trkpt>
      <trkpt lat="43.81814" lon="5.54455">
        <ele>941.6</ele>
        <time>2022-08-24T07:11:34Z</time>
      </trkpt>
      <trkpt lat="43.81818" lon="5.5445">
        <ele>942.1</ele>
        <time>2022-08-24T07:11:35Z</time>
      </trkpt>
      <trkpt lat="43.81824" lon="5.54447">
        <ele>942.3</ele>
        <time>2022-08-24T07:11:36Z</time>
      </trkpt>
      <trkpt lat="43.81828" lon="5.54441">
        <ele>942.8</ele>
        <time>2022-08-24T07:11:37Z</time>
      </trkpt>
      <trkpt lat="43.81831" lon="5.54436">
        <ele>943.1</ele>
        <time>2022-08-24T07:11:38Z</time>
      </trkpt>
      <trkpt lat="43.81834" lon="5.54431">
        <ele>943.4</ele>
        <time>2022-08-24T07:11:39Z</time>
      </trkpt>
      <trkpt lat="43.81836" lon="5.54423">
        <ele>943.9</ele>
        <time>2022-08-24T07:11:40Z</time>
      </trkpt>
      <trkpt lat="43.81838" lon="5.54412">
        <ele>944.6</ele>
        <time>2022-08-24T07:11:42Z</time>
      </trkpt>
      <trkpt lat="43.81838" lon="5.544">
        <ele>945.3</ele>
        <time>2022-08-24T07:11:44Z</time>
      </trkpt>
      <trkpt lat="43.81838" lon="5.54393">
        <ele>945.6</ele>
        <time>2022-08-24T07:11:45Z</time>
      </trkpt>
      <trkpt lat="43.81837" lon="5.5438">
        <ele>946.1</ele>
        <time>2022-08-24T07:11:47Z</time>
      </trkpt>
      <trkpt lat="43.81835" lon="5.54369">
        <ele>946.6</ele>
        <time>2022-08-24T07:11:49Z</time>
      </trkpt>
      <trkpt lat="43.81834" lon="5.54356">
        <ele>946.9</ele>
        <time>2022-08-24T07:11:51Z</time>
      </trkpt>
      <trkpt lat="43.81831" lon="5.5435">
        <ele>947.4</ele>
        <time>2022-08-24T07:11:52Z</time>
      </trkpt>
      <trkpt lat="43.81825" lon="5.54333">
        <ele>948.6</ele>
        <time>2022-08-24T07:11:55Z</time>
      </trkpt>
      <trkpt lat="43.81824" lon="5.54327">
        <ele>949</ele>
        <time>2022-08-24T07:11:56Z</time>
      </trkpt>
      <trkpt lat="43.81824" lon="5.5432">
        <ele>949.3</ele>
        <time>2022-08-24T07:11:57Z</time>
      </trkpt>
      <trkpt lat="43.81825" lon="5.54307">
        <ele>949.7</ele>
        <time>2022-08-24T07:11:59Z</time>
      </trkpt>
      <trkpt lat="43.81827" lon="5.54301">
        <ele>949.8</ele>
        <time>2022-08-24T07:12:00Z</time>
      </trkpt>
      <trkpt lat="43.81829" lon="5.54296">
        <ele>949.9</ele>
        <time>2022-08-24T07:12:01Z</time>
      </trkpt>
      <trkpt lat="43.81834" lon="5.54287">
        <ele>950</ele>
        <time>2022-08-24T07:12:03Z</time>
      </trkpt>
      <trkpt lat="43.81842" lon="5.54281">
        <ele>950.6</ele>
        <time>2022-08-24T07:12:05Z</time>
      </trkpt>
      <trkpt lat="43.81849" lon="5.54277">
        <ele>951.1</ele>
        <time>2022-08-24T07:12:07Z</time>
      </trkpt>
      <trkpt lat="43.81855" lon="5.5427">
        <ele>952.5</ele>
        <time>2022-08-24T07:12:09Z</time>
      </trkpt>
      <trkpt lat="43.81862" lon="5.54264">
        <ele>953.5</ele>
        <time>2022-08-24T07:12:11Z</time>
      </trkpt>
      <trkpt lat="43.8187" lon="5.54258">
        <ele>954.2</ele>
        <time>2022-08-24T07:12:13Z</time>
      </trkpt>
      <trkpt lat="43.81876" lon="5.54253">
        <ele>954.8</ele>
        <time>2022-08-24T07:12:15Z</time>
      </trkpt>
      <trkpt lat="43.8188" lon="5.54251">
        <ele>955.2</ele>
        <time>2022-08-24T07:12:16Z</time>
      </trkpt>
      <trkpt lat="43.81888" lon="5.54246">
        <ele>955.7</ele>
        <time>2022-08-24T07:12:18Z</time>
      </trkpt>
      <trkpt lat="43.81895" lon="5.54242">
        <ele>955.8</ele>
        <time>2022-08-24T07:12:20Z</time>
      </trkpt>
      <trkpt lat="43.81902" lon="5.54237">
        <ele>956</ele>
        <time>2022-08-24T07:12:22Z</time>
      </trkpt>
      <trkpt lat="43.8191" lon="5.54233">
        <ele>956.3</ele>
        <time>2022-08-24T07:12:24Z</time>
      </trkpt>
      <trkpt lat="43.81917" lon="5.54228">
        <ele>956.7</ele>
        <time>2022-08-24T07:12:26Z</time>
      </trkpt>
      <trkpt lat="43.81925" lon="5.54224">
        <ele>957</ele>
        <time>2022-08-24T07:12:28Z</time>
      </trkpt>
      <trkpt lat="43.81933" lon="5.5422">
        <ele>957.4</ele>
        <time>2022-08-24T07:12:30Z</time>
      </trkpt>
      <trkpt lat="43.81941" lon="5.54215">
        <ele>958</ele>
        <time>2022-08-24T07:12:32Z</time>
      </trkpt>
      <trkpt lat="43.81948" lon="5.5421">
        <ele>958.7</ele>
        <time>2022-08-24T07:12:34Z</time>
      </trkpt>
      <trkpt lat="43.81955" lon="5.54205">
        <ele>958.8</ele>
        <time>2022-08-24T07:12:36Z</time>
      </trkpt>
      <trkpt lat="43.81962" lon="5.54202">
        <ele>958.8</ele>
        <time>2022-08-24T07:12:38Z</time>
      </trkpt>
      <trkpt lat="43.81969" lon="5.54198">
        <ele>958.7</ele>
        <time>2022-08-24T07:12:40Z</time>
      </trkpt>
      <trkpt lat="43.81976" lon="5.54192">
        <ele>958.8</ele>
        <time>2022-08-24T07:12:42Z</time>
      </trkpt>
      <trkpt lat="43.81982" lon="5.54186">
        <ele>959.2</ele>
        <time>2022-08-24T07:12:44Z</time>
      </trkpt>
      <trkpt lat="43.81987" lon="5.54179">
        <ele>959.8</ele>
        <time>2022-08-24T07:12:46Z</time>
      </trkpt>
      <trkpt lat="43.81992" lon="5.54172">
        <ele>960.4</ele>
        <time>2022-08-24T07:12:48Z</time>
      </trkpt>
      <trkpt lat="43.81997" lon="5.54165">
        <ele>961.1</ele>
        <time>2022-08-24T07:12:50Z</time>
      </trkpt>
      <trkpt lat="43.82" lon="5.54157">
        <ele>961.7</ele>
        <time>2022-08-24T07:12:52Z</time>
      </trkpt>
      <trkpt lat="43.82004" lon="5.54149">
        <ele>962.2</ele>
        <time>2022-08-24T07:12:54Z</time>
      </trkpt>
      <trkpt lat="43.82007" lon="5.5414">
        <ele>962.8</ele>
        <time>2022-08-24T07:12:56Z</time>
      </trkpt>
      <trkpt lat="43.82011" lon="5.54131">
        <ele>963.1</ele>
        <time>2022-08-24T07:12:58Z</time>
      </trkpt>
      <trkpt lat="43.82015" lon="5.54123">
        <ele>963.4</ele>
        <time>2022-08-24T07:13:00Z</time>
      </trkpt>
      <trkpt lat="43.82018" lon="5.54113">
        <ele>964</ele>
        <time>2022-08-24T07:13:02Z</time>
      </trkpt>
      <trkpt lat="43.8202" lon="5.54104">
        <ele>964.5</ele>
        <time>2022-08-24T07:13:04Z</time>
      </trkpt>
      <trkpt lat="43.82023" lon="5.54094">
        <ele>965</ele>
        <time>2022-08-24T07:13:06Z</time>
      </trkpt>
      <trkpt lat="43.82026" lon="5.54084">
        <ele>965.6</ele>
        <time>2022-08-24T07:13:08Z</time>
      </trkpt>
      <trkpt lat="43.82027" lon="5.54074">
        <ele>966.2</ele>
        <time>2022-08-24T07:13:10Z</time>
      </trkpt>
      <trkpt lat="43.82029" lon="5.54064">
        <ele>966.5</ele>
        <time>2022-08-24T07:13:12Z</time>
      </trkpt>
      <trkpt lat="43.82032" lon="5.54055">
        <ele>966.6</ele>
        <time>2022-08-24T07:13:14Z</time>
      </trkpt>
      <trkpt lat="43.82033" lon="5.54045">
        <ele>967</ele>
        <time>2022-08-24T07:13:16Z</time>
      </trkpt>
      <trkpt lat="43.82034" lon="5.54036">
        <ele>967.6</ele>
        <time>2022-08-24T07:13:18Z</time>
      </trkpt>
      <trkpt lat="43.82034" lon="5.54026">
        <ele>968.1</ele>
        <time>2022-08-24T07:13:20Z</time>
      </trkpt>
      <trkpt lat="43.82035" lon="5.54016">
        <ele>968.6</ele>
        <time>2022-08-24T07:13:22Z</time>
      </trkpt>
      <trkpt lat="43.82035" lon="5.54006">
        <ele>969</ele>
        <time>2022-08-24T07:13:24Z</time>
      </trkpt>
      <trkpt lat="43.82035" lon="5.53996">
        <ele>969.6</ele>
        <time>2022-08-24T07:13:26Z</time>
      </trkpt>
      <trkpt lat="43.82035" lon="5.53986">
        <ele>970.3</ele>
        <time>2022-08-24T07:13:28Z</time>
      </trkpt>
      <trkpt lat="43.82034" lon="5.53976">
        <ele>971</ele>
        <time>2022-08-24T07:13:30Z</time>
      </trkpt>
      <trkpt lat="43.82034" lon="5.53966">
        <ele>971.5</ele>
        <time>2022-08-24T07:13:32Z</time>
      </trkpt>
      <trkpt lat="43.82033" lon="5.53956">
        <ele>972.1</ele>
        <time>2022-08-24T07:13:34Z</time>
      </trkpt>
      <trkpt lat="43.82032" lon="5.53945">
        <ele>972.8</ele>
        <time>2022-08-24T07:13:36Z</time>
      </trkpt>
      <trkpt lat="43.8203" lon="5.53937">
        <ele>974.1</ele>
        <time>2022-08-24T07:13:38Z</time>
      </trkpt>
      <trkpt lat="43.82028" lon="5.53929">
        <ele>975.3</ele>
        <time>2022-08-24T07:13:40Z</time>
      </trkpt>
      <trkpt lat="43.82028" lon="5.53921">
        <ele>975.7</ele>
        <time>2022-08-24T07:13:42Z</time>
      </trkpt>
      <trkpt lat="43.82027" lon="5.53911">
        <ele>976.4</ele>
        <time>2022-08-24T07:13:44Z</time>
      </trkpt>
      <trkpt lat="43.82028" lon="5.53903">
        <ele>976.4</ele>
        <time>2022-08-24T07:13:46Z</time>
      </trkpt>
      <trkpt lat="43.8203" lon="5.53893">
        <ele>975.9</ele>
        <time>2022-08-24T07:13:48Z</time>
      </trkpt>
      <trkpt lat="43.82033" lon="5.53882">
        <ele>975.6</ele>
        <time>2022-08-24T07:13:50Z</time>
      </trkpt>
      <trkpt lat="43.82037" lon="5.53872">
        <ele>975.4</ele>
        <time>2022-08-24T07:13:52Z</time>
      </trkpt>
      <trkpt lat="43.8204" lon="5.53863">
        <ele>975.7</ele>
        <time>2022-08-24T07:13:54Z</time>
      </trkpt>
      <trkpt lat="43.82043" lon="5.53853">
        <ele>976.3</ele>
        <time>2022-08-24T07:13:56Z</time>
      </trkpt>
      <trkpt lat="43.82047" lon="5.53843">
        <ele>976.6</ele>
        <time>2022-08-24T07:13:58Z</time>
      </trkpt>
      <trkpt lat="43.8205" lon="5.53834">
        <ele>976.9</ele>
        <time>2022-08-24T07:14:00Z</time>
      </trkpt>
      <trkpt lat="43.82054" lon="5.53826">
        <ele>977.3</ele>
        <time>2022-08-24T07:14:02Z</time>
      </trkpt>
      <trkpt lat="43.82058" lon="5.53817">
        <ele>977.6</ele>
        <time>2022-08-24T07:14:04Z</time>
      </trkpt>
      <trkpt lat="43.82062" lon="5.53807">
        <ele>978.3</ele>
        <time>2022-08-24T07:14:06Z</time>
      </trkpt>
      <trkpt lat="43.82066" lon="5.53798">
        <ele>978.8</ele>
        <time>2022-08-24T07:14:08Z</time>
      </trkpt>
      <trkpt lat="43.8207" lon="5.53791">
        <ele>978.8</ele>
        <time>2022-08-24T07:14:10Z</time>
      </trkpt>
      <trkpt lat="43.82073" lon="5.53783">
        <ele>979.4</ele>
        <time>2022-08-24T07:14:12Z</time>
      </trkpt>
      <trkpt lat="43.82076" lon="5.53774">
        <ele>980.3</ele>
        <time>2022-08-24T07:14:14Z</time>
      </trkpt>
      <trkpt lat="43.82078" lon="5.53764">
        <ele>981.4</ele>
        <time>2022-08-24T07:14:16Z</time>
      </trkpt>
      <trkpt lat="43.82081" lon="5.53754">
        <ele>982.3</ele>
        <time>2022-08-24T07:14:18Z</time>
      </trkpt>
      <trkpt lat="43.82082" lon="5.53744">
        <ele>983</ele>
        <time>2022-08-24T07:14:20Z</time>
      </trkpt>
      <trkpt lat="43.82085" lon="5.53735">
        <ele>983.1</ele>
        <time>2022-08-24T07:14:22Z</time>
      </trkpt>
      <trkpt lat="43.82085" lon="5.53724">
        <ele>983.9</ele>
        <time>2022-08-24T07:14:24Z</time>
      </trkpt>
      <trkpt lat="43.82084" lon="5.53714">
        <ele>984.4</ele>
        <time>2022-08-24T07:14:26Z</time>
      </trkpt>
      <trkpt lat="43.82083" lon="5.53704">
        <ele>984.6</ele>
        <time>2022-08-24T07:14:28Z</time>
      </trkpt>
      <trkpt lat="43.8208" lon="5.53694">
        <ele>985.3</ele>
        <time>2022-08-24T07:14:30Z</time>
      </trkpt>
      <trkpt lat="43.82076" lon="5.53684">
        <ele>985.3</ele>
        <time>2022-08-24T07:14:32Z</time>
      </trkpt>
      <trkpt lat="43.82071" lon="5.53675">
        <ele>986</ele>
        <time>2022-08-24T07:14:34Z</time>
      </trkpt>
      <trkpt lat="43.82066" lon="5.53669">
        <ele>987</ele>
        <time>2022-08-24T07:14:36Z</time>
      </trkpt>
      <trkpt lat="43.8206" lon="5.53663">
        <ele>988</ele>
        <time>2022-08-24T07:14:38Z</time>
      </trkpt>
      <trkpt lat="43.82054" lon="5.53656">
        <ele>988.6</ele>
        <time>2022-08-24T07:14:40Z</time>
      </trkpt>
      <trkpt lat="43.82048" lon="5.53647">
        <ele>989.1</ele>
        <time>2022-08-24T07:14:42Z</time>
      </trkpt>
      <trkpt lat="43.82044" lon="5.53639">
        <ele>989.4</ele>
        <time>2022-08-24T07:14:44Z</time>
      </trkpt>
      <trkpt lat="43.82038" lon="5.53632">
        <ele>990.3</ele>
        <time>2022-08-24T07:14:46Z</time>
      </trkpt>
      <trkpt lat="43.82033" lon="5.53624">
        <ele>991</ele>
        <time>2022-08-24T07:14:48Z</time>
      </trkpt>
      <trkpt lat="43.82028" lon="5.53617">
        <ele>991.7</ele>
        <time>2022-08-24T07:14:50Z</time>
      </trkpt>
      <trkpt lat="43.82023" lon="5.53611">
        <ele>992.7</ele>
        <time>2022-08-24T07:14:52Z</time>
      </trkpt>
      <trkpt lat="43.82017" lon="5.53604">
        <ele>993.3</ele>
        <time>2022-08-24T07:14:54Z</time>
      </trkpt>
      <trkpt lat="43.82011" lon="5.53597">
        <ele>993.7</ele>
        <time>2022-08-24T07:14:56Z</time>
      </trkpt>
      <trkpt lat="43.82001" lon="5.53582">
        <ele>994.5</ele>
        <time>2022-08-24T07:15:00Z</time>
      </trkpt>
      <trkpt lat="43.81997" lon="5.53575">
        <ele>994.4</ele>
        <time>2022-08-24T07:15:02Z</time>
      </trkpt>
      <trkpt lat="43.81993" lon="5.53567">
        <ele>994.5</ele>
        <time>2022-08-24T07:15:04Z</time>
      </trkpt>
      <trkpt lat="43.81988" lon="5.53559">
        <ele>994.6</ele>
        <time>2022-08-24T07:15:06Z</time>
      </trkpt>
      <trkpt lat="43.81982" lon="5.53553">
        <ele>995.4</ele>
        <time>2022-08-24T07:15:08Z</time>
      </trkpt>
      <trkpt lat="43.81976" lon="5.53547">
        <ele>997</ele>
        <time>2022-08-24T07:15:10Z</time>
      </trkpt>
      <trkpt lat="43.81972" lon="5.53538">
        <ele>997.3</ele>
        <time>2022-08-24T07:15:12Z</time>
      </trkpt>
      <trkpt lat="43.81969" lon="5.53529">
        <ele>997.4</ele>
        <time>2022-08-24T07:15:14Z</time>
      </trkpt>
      <trkpt lat="43.81964" lon="5.53522">
        <ele>997.9</ele>
        <time>2022-08-24T07:15:16Z</time>
      </trkpt>
      <trkpt lat="43.81958" lon="5.53515">
        <ele>998.3</ele>
        <time>2022-08-24T07:15:18Z</time>
      </trkpt>
      <trkpt lat="43.81953" lon="5.53509">
        <ele>998.8</ele>
        <time>2022-08-24T07:15:20Z</time>
      </trkpt>
      <trkpt lat="43.81948" lon="5.53503">
        <ele>999.4</ele>
        <time>2022-08-24T07:15:22Z</time>
      </trkpt>
      <trkpt lat="43.81942" lon="5.53496">
        <ele>999.7</ele>
        <time>2022-08-24T07:15:24Z</time>
      </trkpt>
      <trkpt lat="43.81937" lon="5.53489">
        <ele>999.9</ele>
        <time>2022-08-24T07:15:26Z</time>
      </trkpt>
      <trkpt lat="43.81931" lon="5.53483">
        <ele>1000.3</ele>
        <time>2022-08-24T07:15:28Z</time>
      </trkpt>
      <trkpt lat="43.81925" lon="5.53476">
        <ele>1000.3</ele>
        <time>2022-08-24T07:15:30Z</time>
      </trkpt>
      <trkpt lat="43.81919" lon="5.53469">
        <ele>1000.9</ele>
        <time>2022-08-24T07:15:32Z</time>
      </trkpt>
      <trkpt lat="43.81912" lon="5.53464">
        <ele>1001.6</ele>
        <time>2022-08-24T07:15:34Z</time>
      </trkpt>
      <trkpt lat="43.81906" lon="5.53458">
        <ele>1002.1</ele>
        <time>2022-08-24T07:15:36Z</time>
      </trkpt>
      <trkpt lat="43.81901" lon="5.53453">
        <ele>1002.5</ele>
        <time>2022-08-24T07:15:38Z</time>
      </trkpt>
      <trkpt lat="43.81895" lon="5.53448">
        <ele>1003.1</ele>
        <time>2022-08-24T07:15:40Z</time>
      </trkpt>
      <trkpt lat="43.81889" lon="5.53443">
        <ele>1003.8</ele>
        <time>2022-08-24T07:15:42Z</time>
      </trkpt>
      <trkpt lat="43.81884" lon="5.53437">
        <ele>1004.1</ele>
        <time>2022-08-24T07:15:44Z</time>
      </trkpt>
      <trkpt lat="43.81878" lon="5.53433">
        <ele>1004.5</ele>
        <time>2022-08-24T07:15:46Z</time>
      </trkpt>
      <trkpt lat="43.81873" lon="5.5343">
        <ele>1005.1</ele>
        <time>2022-08-24T07:15:48Z</time>
      </trkpt>
      <trkpt lat="43.81867" lon="5.53428">
        <ele>1005.8</ele>
        <time>2022-08-24T07:15:50Z</time>
      </trkpt>
      <trkpt lat="43.81861" lon="5.53426">
        <ele>1006.3</ele>
        <time>2022-08-24T07:15:52Z</time>
      </trkpt>
      <trkpt lat="43.81855" lon="5.53423">
        <ele>1006.2</ele>
        <time>2022-08-24T07:15:54Z</time>
      </trkpt>
      <trkpt lat="43.81849" lon="5.53419">
        <ele>1006.2</ele>
        <time>2022-08-24T07:15:56Z</time>
      </trkpt>
      <trkpt lat="43.81844" lon="5.53415">
        <ele>1006.3</ele>
        <time>2022-08-24T07:15:58Z</time>
      </trkpt>
      <trkpt lat="43.81838" lon="5.53411">
        <ele>1006.7</ele>
        <time>2022-08-24T07:16:00Z</time>
      </trkpt>
      <trkpt lat="43.81832" lon="5.53407">
        <ele>1007</ele>
        <time>2022-08-24T07:16:02Z</time>
      </trkpt>
      <trkpt lat="43.81828" lon="5.534">
        <ele>1007</ele>
        <time>2022-08-24T07:16:04Z</time>
      </trkpt>
      <trkpt lat="43.81826" lon="5.53391">
        <ele>1007</ele>
        <time>2022-08-24T07:16:06Z</time>
      </trkpt>
      <trkpt lat="43.81827" lon="5.53382">
        <ele>1007.6</ele>
        <time>2022-08-24T07:16:08Z</time>
      </trkpt>
      <trkpt lat="43.81833" lon="5.53377">
        <ele>1008.3</ele>
        <time>2022-08-24T07:16:10Z</time>
      </trkpt>
      <trkpt lat="43.81841" lon="5.53373">
        <ele>1008.6</ele>
        <time>2022-08-24T07:16:12Z</time>
      </trkpt>
      <trkpt lat="43.81847" lon="5.53369">
        <ele>1009</ele>
        <time>2022-08-24T07:16:14Z</time>
      </trkpt>
      <trkpt lat="43.81855" lon="5.53367">
        <ele>1009.2</ele>
        <time>2022-08-24T07:16:16Z</time>
      </trkpt>
      <trkpt lat="43.81862" lon="5.53365">
        <ele>1009.4</ele>
        <time>2022-08-24T07:16:18Z</time>
      </trkpt>
      <trkpt lat="43.8187" lon="5.53364">
        <ele>1009.5</ele>
        <time>2022-08-24T07:16:20Z</time>
      </trkpt>
      <trkpt lat="43.81878" lon="5.53363">
        <ele>1009.7</ele>
        <time>2022-08-24T07:16:22Z</time>
      </trkpt>
      <trkpt lat="43.81886" lon="5.53361">
        <ele>1009.9</ele>
        <time>2022-08-24T07:16:24Z</time>
      </trkpt>
      <trkpt lat="43.81894" lon="5.5336">
        <ele>1010.1</ele>
        <time>2022-08-24T07:16:26Z</time>
      </trkpt>
      <trkpt lat="43.81902" lon="5.53358">
        <ele>1010.3</ele>
        <time>2022-08-24T07:16:28Z</time>
      </trkpt>
      <trkpt lat="43.8191" lon="5.53355">
        <ele>1010.6</ele>
        <time>2022-08-24T07:16:30Z</time>
      </trkpt>
      <trkpt lat="43.81919" lon="5.53353">
        <ele>1010.9</ele>
        <time>2022-08-24T07:16:32Z</time>
      </trkpt>
      <trkpt lat="43.81927" lon="5.53351">
        <ele>1010.6</ele>
        <time>2022-08-24T07:16:34Z</time>
      </trkpt>
      <trkpt lat="43.81932" lon="5.5335">
        <ele>1010.5</ele>
        <time>2022-08-24T07:16:35Z</time>
      </trkpt>
      <trkpt lat="43.81937" lon="5.53347">
        <ele>1010.7</ele>
        <time>2022-08-24T07:16:36Z</time>
      </trkpt>
      <trkpt lat="43.81942" lon="5.53344">
        <ele>1011.2</ele>
        <time>2022-08-24T07:16:37Z</time>
      </trkpt>
      <trkpt lat="43.81948" lon="5.53342">
        <ele>1011.3</ele>
        <time>2022-08-24T07:16:38Z</time>
      </trkpt>
      <trkpt lat="43.81952" lon="5.53339">
        <ele>1011.4</ele>
        <time>2022-08-24T07:16:39Z</time>
      </trkpt>
      <trkpt lat="43.81958" lon="5.53338">
        <ele>1011.1</ele>
        <time>2022-08-24T07:16:40Z</time>
      </trkpt>
      <trkpt lat="43.81964" lon="5.53336">
        <ele>1011</ele>
        <time>2022-08-24T07:16:41Z</time>
      </trkpt>
      <trkpt lat="43.81969" lon="5.53335">
        <ele>1011</ele>
        <time>2022-08-24T07:16:42Z</time>
      </trkpt>
      <trkpt lat="43.81974" lon="5.53332">
        <ele>1011.2</ele>
        <time>2022-08-24T07:16:43Z</time>
      </trkpt>
      <trkpt lat="43.81979" lon="5.53329">
        <ele>1011.7</ele>
        <time>2022-08-24T07:16:44Z</time>
      </trkpt>
      <trkpt lat="43.81984" lon="5.53327">
        <ele>1011.8</ele>
        <time>2022-08-24T07:16:45Z</time>
      </trkpt>
      <trkpt lat="43.81989" lon="5.53322">
        <ele>1012.6</ele>
        <time>2022-08-24T07:16:46Z</time>
      </trkpt>
      <trkpt lat="43.81994" lon="5.5332">
        <ele>1012.7</ele>
        <time>2022-08-24T07:16:47Z</time>
      </trkpt>
      <trkpt lat="43.81999" lon="5.53318">
        <ele>1012.7</ele>
        <time>2022-08-24T07:16:48Z</time>
      </trkpt>
      <trkpt lat="43.82004" lon="5.53314">
        <ele>1012.7</ele>
        <time>2022-08-24T07:16:49Z</time>
      </trkpt>
      <trkpt lat="43.82009" lon="5.5331">
        <ele>1012.9</ele>
        <time>2022-08-24T07:16:50Z</time>
      </trkpt>
      <trkpt lat="43.82014" lon="5.53305">
        <ele>1013.1</ele>
        <time>2022-08-24T07:16:51Z</time>
      </trkpt>
      <trkpt lat="43.82019" lon="5.53301">
        <ele>1013.2</ele>
        <time>2022-08-24T07:16:52Z</time>
      </trkpt>
      <trkpt lat="43.82024" lon="5.53298">
        <ele>1013.2</ele>
        <time>2022-08-24T07:16:53Z</time>
      </trkpt>
      <trkpt lat="43.82029" lon="5.53293">
        <ele>1013.4</ele>
        <time>2022-08-24T07:16:54Z</time>
      </trkpt>
      <trkpt lat="43.82034" lon="5.53288">
        <ele>1013.2</ele>
        <time>2022-08-24T07:16:55Z</time>
      </trkpt>
      <trkpt lat="43.82039" lon="5.53284">
        <ele>1013.3</ele>
        <time>2022-08-24T07:16:56Z</time>
      </trkpt>
      <trkpt lat="43.82044" lon="5.5328">
        <ele>1013.3</ele>
        <time>2022-08-24T07:16:57Z</time>
      </trkpt>
      <trkpt lat="43.82049" lon="5.53275">
        <ele>1013.3</ele>
        <time>2022-08-24T07:16:58Z</time>
      </trkpt>
      <trkpt lat="43.82055" lon="5.5327">
        <ele>1012.9</ele>
        <time>2022-08-24T07:16:59Z</time>
      </trkpt>
      <trkpt lat="43.8206" lon="5.53265">
        <ele>1012.2</ele>
        <time>2022-08-24T07:17:00Z</time>
      </trkpt>
      <trkpt lat="43.82065" lon="5.53259">
        <ele>1011.9</ele>
        <time>2022-08-24T07:17:01Z</time>
      </trkpt>
      <trkpt lat="43.82069" lon="5.53254">
        <ele>1011.7</ele>
        <time>2022-08-24T07:17:02Z</time>
      </trkpt>
      <trkpt lat="43.82074" lon="5.53249">
        <ele>1011.5</ele>
        <time>2022-08-24T07:17:03Z</time>
      </trkpt>
      <trkpt lat="43.82077" lon="5.53243">
        <ele>1011.6</ele>
        <time>2022-08-24T07:17:04Z</time>
      </trkpt>
      <trkpt lat="43.82081" lon="5.53236">
        <ele>1011.8</ele>
        <time>2022-08-24T07:17:05Z</time>
      </trkpt>
      <trkpt lat="43.82085" lon="5.5323">
        <ele>1011.7</ele>
        <time>2022-08-24T07:17:06Z</time>
      </trkpt>
      <trkpt lat="43.82089" lon="5.53223">
        <ele>1011.6</ele>
        <time>2022-08-24T07:17:07Z</time>
      </trkpt>
      <trkpt lat="43.82092" lon="5.53216">
        <ele>1011.5</ele>
        <time>2022-08-24T07:17:08Z</time>
      </trkpt>
      <trkpt lat="43.82094" lon="5.53207">
        <ele>1012</ele>
        <time>2022-08-24T07:17:09Z</time>
      </trkpt>
      <trkpt lat="43.82097" lon="5.532">
        <ele>1012.1</ele>
        <time>2022-08-24T07:17:10Z</time>
      </trkpt>
      <trkpt lat="43.82099" lon="5.53193">
        <ele>1012</ele>
        <time>2022-08-24T07:17:11Z</time>
      </trkpt>
      <trkpt lat="43.82101" lon="5.53185">
        <ele>1011.9</ele>
        <time>2022-08-24T07:17:12Z</time>
      </trkpt>
      <trkpt lat="43.82105" lon="5.53179">
        <ele>1011.4</ele>
        <time>2022-08-24T07:17:13Z</time>
      </trkpt>
      <trkpt lat="43.82108" lon="5.53171">
        <ele>1011.1</ele>
        <time>2022-08-24T07:17:14Z</time>
      </trkpt>
      <trkpt lat="43.82109" lon="5.53163">
        <ele>1011.1</ele>
        <time>2022-08-24T07:17:15Z</time>
      </trkpt>
      <trkpt lat="43.82111" lon="5.53155">
        <ele>1010.5</ele>
        <time>2022-08-24T07:17:16Z</time>
      </trkpt>
      <trkpt lat="43.82111" lon="5.53147">
        <ele>1010.6</ele>
        <time>2022-08-24T07:17:17Z</time>
      </trkpt>
      <trkpt lat="43.82112" lon="5.53137">
        <ele>1010.8</ele>
        <time>2022-08-24T07:17:18Z</time>
      </trkpt>
      <trkpt lat="43.82113" lon="5.53128">
        <ele>1010.4</ele>
        <time>2022-08-24T07:17:19Z</time>
      </trkpt>
      <trkpt lat="43.82114" lon="5.53119">
        <ele>1010.6</ele>
        <time>2022-08-24T07:17:20Z</time>
      </trkpt>
      <trkpt lat="43.82115" lon="5.53111">
        <ele>1010.4</ele>
        <time>2022-08-24T07:17:21Z</time>
      </trkpt>
      <trkpt lat="43.82116" lon="5.53104">
        <ele>1010.5</ele>
        <time>2022-08-24T07:17:22Z</time>
      </trkpt>
      <trkpt lat="43.82117" lon="5.53096">
        <ele>1010.4</ele>
        <time>2022-08-24T07:17:23Z</time>
      </trkpt>
      <trkpt lat="43.82118" lon="5.53089">
        <ele>1010.5</ele>
        <time>2022-08-24T07:17:24Z</time>
      </trkpt>
      <trkpt lat="43.82118" lon="5.5308">
        <ele>1010.8</ele>
        <time>2022-08-24T07:17:25Z</time>
      </trkpt>
      <trkpt lat="43.82119" lon="5.53071">
        <ele>1010.8</ele>
        <time>2022-08-24T07:17:26Z</time>
      </trkpt>
      <trkpt lat="43.82119" lon="5.53062">
        <ele>1011.6</ele>
        <time>2022-08-24T07:17:27Z</time>
      </trkpt>
      <trkpt lat="43.82118" lon="5.53053">
        <ele>1012.3</ele>
        <time>2022-08-24T07:17:28Z</time>
      </trkpt>
      <trkpt lat="43.82119" lon="5.53044">
        <ele>1011.9</ele>
        <time>2022-08-24T07:17:29Z</time>
      </trkpt>
      <trkpt lat="43.82119" lon="5.53035">
        <ele>1011.7</ele>
        <time>2022-08-24T07:17:30Z</time>
      </trkpt>
      <trkpt lat="43.8212" lon="5.53027">
        <ele>1011.6</ele>
        <time>2022-08-24T07:17:31Z</time>
      </trkpt>
      <trkpt lat="43.8212" lon="5.53019">
        <ele>1011.6</ele>
        <time>2022-08-24T07:17:32Z</time>
      </trkpt>
      <trkpt lat="43.82121" lon="5.53011">
        <ele>1011.1</ele>
        <time>2022-08-24T07:17:33Z</time>
      </trkpt>
      <trkpt lat="43.82122" lon="5.53003">
        <ele>1010.7</ele>
        <time>2022-08-24T07:17:34Z</time>
      </trkpt>
      <trkpt lat="43.82124" lon="5.52995">
        <ele>1010</ele>
        <time>2022-08-24T07:17:35Z</time>
      </trkpt>
      <trkpt lat="43.82123" lon="5.52988">
        <ele>1009.9</ele>
        <time>2022-08-24T07:17:36Z</time>
      </trkpt>
      <trkpt lat="43.82123" lon="5.52981">
        <ele>1009.6</ele>
        <time>2022-08-24T07:17:37Z</time>
      </trkpt>
      <trkpt lat="43.82122" lon="5.52973">
        <ele>1009.6</ele>
        <time>2022-08-24T07:17:38Z</time>
      </trkpt>
      <trkpt lat="43.8212" lon="5.52965">
        <ele>1010</ele>
        <time>2022-08-24T07:17:39Z</time>
      </trkpt>
      <trkpt lat="43.82119" lon="5.52959">
        <ele>1009.9</ele>
        <time>2022-08-24T07:17:40Z</time>
      </trkpt>
      <trkpt lat="43.82118" lon="5.52952">
        <ele>1010</ele>
        <time>2022-08-24T07:17:41Z</time>
      </trkpt>
      <trkpt lat="43.82114" lon="5.52944">
        <ele>1010.8</ele>
        <time>2022-08-24T07:17:42Z</time>
      </trkpt>
      <trkpt lat="43.82111" lon="5.52937">
        <ele>1010.6</ele>
        <time>2022-08-24T07:17:43Z</time>
      </trkpt>
      <trkpt lat="43.82108" lon="5.52932">
        <ele>1010.7</ele>
        <time>2022-08-24T07:17:44Z</time>
      </trkpt>
      <trkpt lat="43.82105" lon="5.52926">
        <ele>1010.6</ele>
        <time>2022-08-24T07:17:45Z</time>
      </trkpt>
      <trkpt lat="43.82103" lon="5.5292">
        <ele>1010.3</ele>
        <time>2022-08-24T07:17:46Z</time>
      </trkpt>
      <trkpt lat="43.82098" lon="5.52912">
        <ele>1010.2</ele>
        <time>2022-08-24T07:17:47Z</time>
      </trkpt>
      <trkpt lat="43.82097" lon="5.52904">
        <ele>1009.1</ele>
        <time>2022-08-24T07:17:48Z</time>
      </trkpt>
      <trkpt lat="43.82094" lon="5.52898">
        <ele>1008.9</ele>
        <time>2022-08-24T07:17:49Z</time>
      </trkpt>
      <trkpt lat="43.8209" lon="5.52891">
        <ele>1008.9</ele>
        <time>2022-08-24T07:17:50Z</time>
      </trkpt>
      <trkpt lat="43.82087" lon="5.52885">
        <ele>1009.5</ele>
        <time>2022-08-24T07:17:51Z</time>
      </trkpt>
      <trkpt lat="43.82084" lon="5.52878">
        <ele>1009.8</ele>
        <time>2022-08-24T07:17:52Z</time>
      </trkpt>
      <trkpt lat="43.82083" lon="5.52869">
        <ele>1009.8</ele>
        <time>2022-08-24T07:17:53Z</time>
      </trkpt>
      <trkpt lat="43.82082" lon="5.5286">
        <ele>1009.7</ele>
        <time>2022-08-24T07:17:54Z</time>
      </trkpt>
      <trkpt lat="43.82081" lon="5.52853">
        <ele>1009.9</ele>
        <time>2022-08-24T07:17:55Z</time>
      </trkpt>
      <trkpt lat="43.82081" lon="5.52846">
        <ele>1010</ele>
        <time>2022-08-24T07:17:56Z</time>
      </trkpt>
      <trkpt lat="43.8208" lon="5.52837">
        <ele>1010.4</ele>
        <time>2022-08-24T07:17:57Z</time>
      </trkpt>
      <trkpt lat="43.82082" lon="5.5283">
        <ele>1009.9</ele>
        <time>2022-08-24T07:17:58Z</time>
      </trkpt>
      <trkpt lat="43.82084" lon="5.52822">
        <ele>1009.3</ele>
        <time>2022-08-24T07:17:59Z</time>
      </trkpt>
      <trkpt lat="43.82087" lon="5.52814">
        <ele>1008</ele>
        <time>2022-08-24T07:18:00Z</time>
      </trkpt>
      <trkpt lat="43.82087" lon="5.52806">
        <ele>1008</ele>
        <time>2022-08-24T07:18:01Z</time>
      </trkpt>
      <trkpt lat="43.82089" lon="5.52799">
        <ele>1007.9</ele>
        <time>2022-08-24T07:18:02Z</time>
      </trkpt>
      <trkpt lat="43.8209" lon="5.52792">
        <ele>1008.7</ele>
        <time>2022-08-24T07:18:03Z</time>
      </trkpt>
      <trkpt lat="43.82091" lon="5.52785">
        <ele>1008.9</ele>
        <time>2022-08-24T07:18:04Z</time>
      </trkpt>
      <trkpt lat="43.82094" lon="5.52777">
        <ele>1008.3</ele>
        <time>2022-08-24T07:18:05Z</time>
      </trkpt>
      <trkpt lat="43.82096" lon="5.5277">
        <ele>1008.2</ele>
        <time>2022-08-24T07:18:06Z</time>
      </trkpt>
      <trkpt lat="43.82098" lon="5.52762">
        <ele>1007.9</ele>
        <time>2022-08-24T07:18:07Z</time>
      </trkpt>
      <trkpt lat="43.82101" lon="5.52754">
        <ele>1007.4</ele>
        <time>2022-08-24T07:18:08Z</time>
      </trkpt>
      <trkpt lat="43.82104" lon="5.52747">
        <ele>1007.1</ele>
        <time>2022-08-24T07:18:09Z</time>
      </trkpt>
      <trkpt lat="43.82106" lon="5.52739">
        <ele>1006.9</ele>
        <time>2022-08-24T07:18:10Z</time>
      </trkpt>
      <trkpt lat="43.82109" lon="5.52731">
        <ele>1006.9</ele>
        <time>2022-08-24T07:18:11Z</time>
      </trkpt>
      <trkpt lat="43.82111" lon="5.52722">
        <ele>1006.8</ele>
        <time>2022-08-24T07:18:12Z</time>
      </trkpt>
      <trkpt lat="43.82113" lon="5.52714">
        <ele>1007.1</ele>
        <time>2022-08-24T07:18:13Z</time>
      </trkpt>
      <trkpt lat="43.82114" lon="5.52707">
        <ele>1007.2</ele>
        <time>2022-08-24T07:18:14Z</time>
      </trkpt>
      <trkpt lat="43.82117" lon="5.527">
        <ele>1006.7</ele>
        <time>2022-08-24T07:18:15Z</time>
      </trkpt>
      <trkpt lat="43.82119" lon="5.52692">
        <ele>1006.6</ele>
        <time>2022-08-24T07:18:16Z</time>
      </trkpt>
      <trkpt lat="43.82122" lon="5.52684">
        <ele>1006.4</ele>
        <time>2022-08-24T07:18:17Z</time>
      </trkpt>
      <trkpt lat="43.82124" lon="5.52678">
        <ele>1006.6</ele>
        <time>2022-08-24T07:18:18Z</time>
      </trkpt>
      <trkpt lat="43.82126" lon="5.5267">
        <ele>1006.6</ele>
        <time>2022-08-24T07:18:19Z</time>
      </trkpt>
      <trkpt lat="43.8213" lon="5.52661">
        <ele>1005.8</ele>
        <time>2022-08-24T07:18:20Z</time>
      </trkpt>
      <trkpt lat="43.82133" lon="5.52652">
        <ele>1006</ele>
        <time>2022-08-24T07:18:21Z</time>
      </trkpt>
      <trkpt lat="43.82135" lon="5.52645">
        <ele>1006</ele>
        <time>2022-08-24T07:18:22Z</time>
      </trkpt>
      <trkpt lat="43.82136" lon="5.52637">
        <ele>1006.6</ele>
        <time>2022-08-24T07:18:23Z</time>
      </trkpt>
      <trkpt lat="43.82138" lon="5.52629">
        <ele>1007</ele>
        <time>2022-08-24T07:18:24Z</time>
      </trkpt>
      <trkpt lat="43.8214" lon="5.52621">
        <ele>1007.1</ele>
        <time>2022-08-24T07:18:25Z</time>
      </trkpt>
      <trkpt lat="43.82142" lon="5.52613">
        <ele>1007.1</ele>
        <time>2022-08-24T07:18:26Z</time>
      </trkpt>
      <trkpt lat="43.82145" lon="5.52605">
        <ele>1006.6</ele>
        <time>2022-08-24T07:18:27Z</time>
      </trkpt>
      <trkpt lat="43.82147" lon="5.52598">
        <ele>1006.2</ele>
        <time>2022-08-24T07:18:28Z</time>
      </trkpt>
      <trkpt lat="43.82149" lon="5.52591">
        <ele>1006.1</ele>
        <time>2022-08-24T07:18:29Z</time>
      </trkpt>
      <trkpt lat="43.82151" lon="5.52582">
        <ele>1005.9</ele>
        <time>2022-08-24T07:18:30Z</time>
      </trkpt>
      <trkpt lat="43.82154" lon="5.52575">
        <ele>1005.8</ele>
        <time>2022-08-24T07:18:31Z</time>
      </trkpt>
      <trkpt lat="43.82156" lon="5.52566">
        <ele>1005.9</ele>
        <time>2022-08-24T07:18:32Z</time>
      </trkpt>
      <trkpt lat="43.82158" lon="5.52559">
        <ele>1005.9</ele>
        <time>2022-08-24T07:18:33Z</time>
      </trkpt>
      <trkpt lat="43.82161" lon="5.52551">
        <ele>1006.1</ele>
        <time>2022-08-24T07:18:34Z</time>
      </trkpt>
      <trkpt lat="43.82163" lon="5.52543">
        <ele>1006</ele>
        <time>2022-08-24T07:18:35Z</time>
      </trkpt>
      <trkpt lat="43.82165" lon="5.52536">
        <ele>1006.3</ele>
        <time>2022-08-24T07:18:36Z</time>
      </trkpt>
      <trkpt lat="43.82168" lon="5.52529">
        <ele>1006</ele>
        <time>2022-08-24T07:18:37Z</time>
      </trkpt>
      <trkpt lat="43.8217" lon="5.52523">
        <ele>1006</ele>
        <time>2022-08-24T07:18:38Z</time>
      </trkpt>
      <trkpt lat="43.82175" lon="5.5251">
        <ele>1005.1</ele>
        <time>2022-08-24T07:18:40Z</time>
      </trkpt>
      <trkpt lat="43.82177" lon="5.52501">
        <ele>1005.5</ele>
        <time>2022-08-24T07:18:41Z</time>
      </trkpt>
      <trkpt lat="43.8218" lon="5.52494">
        <ele>1005.7</ele>
        <time>2022-08-24T07:18:42Z</time>
      </trkpt>
      <trkpt lat="43.82184" lon="5.52486">
        <ele>1005.6</ele>
        <time>2022-08-24T07:18:43Z</time>
      </trkpt>
      <trkpt lat="43.82187" lon="5.52479">
        <ele>1005.7</ele>
        <time>2022-08-24T07:18:44Z</time>
      </trkpt>
      <trkpt lat="43.8219" lon="5.5247">
        <ele>1006.1</ele>
        <time>2022-08-24T07:18:45Z</time>
      </trkpt>
      <trkpt lat="43.82193" lon="5.52464">
        <ele>1005.8</ele>
        <time>2022-08-24T07:18:46Z</time>
      </trkpt>
      <trkpt lat="43.82196" lon="5.52457">
        <ele>1005.5</ele>
        <time>2022-08-24T07:18:47Z</time>
      </trkpt>
      <trkpt lat="43.82199" lon="5.52451">
        <ele>1005.3</ele>
        <time>2022-08-24T07:18:48Z</time>
      </trkpt>
      <trkpt lat="43.82201" lon="5.52442">
        <ele>1005.5</ele>
        <time>2022-08-24T07:18:49Z</time>
      </trkpt>
      <trkpt lat="43.82203" lon="5.52433">
        <ele>1005.5</ele>
        <time>2022-08-24T07:18:50Z</time>
      </trkpt>
      <trkpt lat="43.82205" lon="5.52425">
        <ele>1005.7</ele>
        <time>2022-08-24T07:18:51Z</time>
      </trkpt>
      <trkpt lat="43.82208" lon="5.52417">
        <ele>1005.6</ele>
        <time>2022-08-24T07:18:52Z</time>
      </trkpt>
      <trkpt lat="43.82211" lon="5.52409">
        <ele>1005.4</ele>
        <time>2022-08-24T07:18:53Z</time>
      </trkpt>
      <trkpt lat="43.82212" lon="5.52401">
        <ele>1005.6</ele>
        <time>2022-08-24T07:18:54Z</time>
      </trkpt>
      <trkpt lat="43.82213" lon="5.52392">
        <ele>1005.9</ele>
        <time>2022-08-24T07:18:55Z</time>
      </trkpt>
      <trkpt lat="43.82213" lon="5.52383">
        <ele>1006.3</ele>
        <time>2022-08-24T07:18:56Z</time>
      </trkpt>
      <trkpt lat="43.82214" lon="5.52375">
        <ele>1005.9</ele>
        <time>2022-08-24T07:18:57Z</time>
      </trkpt>
      <trkpt lat="43.82214" lon="5.52366">
        <ele>1005.9</ele>
        <time>2022-08-24T07:18:58Z</time>
      </trkpt>
      <trkpt lat="43.82213" lon="5.52358">
        <ele>1005.8</ele>
        <time>2022-08-24T07:18:59Z</time>
      </trkpt>
      <trkpt lat="43.82212" lon="5.52348">
        <ele>1005.6</ele>
        <time>2022-08-24T07:19:00Z</time>
      </trkpt>
      <trkpt lat="43.82211" lon="5.52339">
        <ele>1005.4</ele>
        <time>2022-08-24T07:19:01Z</time>
      </trkpt>
      <trkpt lat="43.82209" lon="5.52331">
        <ele>1005.4</ele>
        <time>2022-08-24T07:19:02Z</time>
      </trkpt>
      <trkpt lat="43.82208" lon="5.52323">
        <ele>1004.8</ele>
        <time>2022-08-24T07:19:03Z</time>
      </trkpt>
      <trkpt lat="43.82204" lon="5.52315">
        <ele>1005</ele>
        <time>2022-08-24T07:19:04Z</time>
      </trkpt>
      <trkpt lat="43.822" lon="5.52307">
        <ele>1004.8</ele>
        <time>2022-08-24T07:19:05Z</time>
      </trkpt>
      <trkpt lat="43.82196" lon="5.52299">
        <ele>1004.7</ele>
        <time>2022-08-24T07:19:06Z</time>
      </trkpt>
      <trkpt lat="43.82193" lon="5.52293">
        <ele>1004.9</ele>
        <time>2022-08-24T07:19:07Z</time>
      </trkpt>
      <trkpt lat="43.82188" lon="5.52287">
        <ele>1004.8</ele>
        <time>2022-08-24T07:19:08Z</time>
      </trkpt>
      <trkpt lat="43.82184" lon="5.52282">
        <ele>1004.7</ele>
        <time>2022-08-24T07:19:09Z</time>
      </trkpt>
      <trkpt lat="43.82178" lon="5.52277">
        <ele>1004.5</ele>
        <time>2022-08-24T07:19:10Z</time>
      </trkpt>
      <trkpt lat="43.82173" lon="5.52274">
        <ele>1004.6</ele>
        <time>2022-08-24T07:19:11Z</time>
      </trkpt>
      <trkpt lat="43.82167" lon="5.52272">
        <ele>1004.7</ele>
        <time>2022-08-24T07:19:12Z</time>
      </trkpt>
      <trkpt lat="43.82161" lon="5.52269">
        <ele>1004.9</ele>
        <time>2022-08-24T07:19:13Z</time>
      </trkpt>
      <trkpt lat="43.82155" lon="5.52267">
        <ele>1005.2</ele>
        <time>2022-08-24T07:19:14Z</time>
      </trkpt>
      <trkpt lat="43.82149" lon="5.52264">
        <ele>1005.6</ele>
        <time>2022-08-24T07:19:15Z</time>
      </trkpt>
      <trkpt lat="43.82143" lon="5.52263">
        <ele>1006.1</ele>
        <time>2022-08-24T07:19:16Z</time>
      </trkpt>
      <trkpt lat="43.82138" lon="5.52261">
        <ele>1006.5</ele>
        <time>2022-08-24T07:19:17Z</time>
      </trkpt>
      <trkpt lat="43.82133" lon="5.52256">
        <ele>1006.3</ele>
        <time>2022-08-24T07:19:18Z</time>
      </trkpt>
      <trkpt lat="43.82128" lon="5.52252">
        <ele>1006.3</ele>
        <time>2022-08-24T07:19:19Z</time>
      </trkpt>
      <trkpt lat="43.82124" lon="5.52247">
        <ele>1006.1</ele>
        <time>2022-08-24T07:19:20Z</time>
      </trkpt>
      <trkpt lat="43.82119" lon="5.5224">
        <ele>1005.7</ele>
        <time>2022-08-24T07:19:21Z</time>
      </trkpt>
      <trkpt lat="43.82114" lon="5.52234">
        <ele>1005.4</ele>
        <time>2022-08-24T07:19:22Z</time>
      </trkpt>
      <trkpt lat="43.8211" lon="5.52228">
        <ele>1005.3</ele>
        <time>2022-08-24T07:19:23Z</time>
      </trkpt>
      <trkpt lat="43.82106" lon="5.52221">
        <ele>1005.3</ele>
        <time>2022-08-24T07:19:24Z</time>
      </trkpt>
      <trkpt lat="43.82102" lon="5.52214">
        <ele>1005.6</ele>
        <time>2022-08-24T07:19:25Z</time>
      </trkpt>
      <trkpt lat="43.821" lon="5.52208">
        <ele>1005.5</ele>
        <time>2022-08-24T07:19:26Z</time>
      </trkpt>
      <trkpt lat="43.82096" lon="5.522">
        <ele>1005.6</ele>
        <time>2022-08-24T07:19:27Z</time>
      </trkpt>
      <trkpt lat="43.82095" lon="5.52193">
        <ele>1004.9</ele>
        <time>2022-08-24T07:19:28Z</time>
      </trkpt>
      <trkpt lat="43.82092" lon="5.52185">
        <ele>1004.7</ele>
        <time>2022-08-24T07:19:29Z</time>
      </trkpt>
      <trkpt lat="43.82089" lon="5.52178">
        <ele>1004.6</ele>
        <time>2022-08-24T07:19:30Z</time>
      </trkpt>
      <trkpt lat="43.82084" lon="5.52172">
        <ele>1005.5</ele>
        <time>2022-08-24T07:19:31Z</time>
      </trkpt>
      <trkpt lat="43.82082" lon="5.52165">
        <ele>1005.3</ele>
        <time>2022-08-24T07:19:32Z</time>
      </trkpt>
      <trkpt lat="43.82079" lon="5.52157">
        <ele>1006</ele>
        <time>2022-08-24T07:19:33Z</time>
      </trkpt>
      <trkpt lat="43.82076" lon="5.52149">
        <ele>1006.1</ele>
        <time>2022-08-24T07:19:34Z</time>
      </trkpt>
      <trkpt lat="43.82074" lon="5.52142">
        <ele>1006.2</ele>
        <time>2022-08-24T07:19:35Z</time>
      </trkpt>
      <trkpt lat="43.82072" lon="5.52134">
        <ele>1006</ele>
        <time>2022-08-24T07:19:36Z</time>
      </trkpt>
      <trkpt lat="43.82071" lon="5.52127">
        <ele>1005.4</ele>
        <time>2022-08-24T07:19:37Z</time>
      </trkpt>
      <trkpt lat="43.82068" lon="5.52118">
        <ele>1005.3</ele>
        <time>2022-08-24T07:19:38Z</time>
      </trkpt>
      <trkpt lat="43.82066" lon="5.5211">
        <ele>1005.1</ele>
        <time>2022-08-24T07:19:39Z</time>
      </trkpt>
      <trkpt lat="43.82063" lon="5.52103">
        <ele>1005.2</ele>
        <time>2022-08-24T07:19:40Z</time>
      </trkpt>
      <trkpt lat="43.8206" lon="5.52096">
        <ele>1005.5</ele>
        <time>2022-08-24T07:19:41Z</time>
      </trkpt>
      <trkpt lat="43.82056" lon="5.5209">
        <ele>1005.8</ele>
        <time>2022-08-24T07:19:42Z</time>
      </trkpt>
      <trkpt lat="43.82052" lon="5.52083">
        <ele>1005.5</ele>
        <time>2022-08-24T07:19:43Z</time>
      </trkpt>
      <trkpt lat="43.82048" lon="5.52077">
        <ele>1005.3</ele>
        <time>2022-08-24T07:19:44Z</time>
      </trkpt>
      <trkpt lat="43.82043" lon="5.52072">
        <ele>1005.4</ele>
        <time>2022-08-24T07:19:45Z</time>
      </trkpt>
      <trkpt lat="43.82039" lon="5.52068">
        <ele>1005.4</ele>
        <time>2022-08-24T07:19:46Z</time>
      </trkpt>
      <trkpt lat="43.82033" lon="5.52065">
        <ele>1005.7</ele>
        <time>2022-08-24T07:19:47Z</time>
      </trkpt>
      <trkpt lat="43.82027" lon="5.52063">
        <ele>1006.1</ele>
        <time>2022-08-24T07:19:48Z</time>
      </trkpt>
      <trkpt lat="43.82022" lon="5.52062">
        <ele>1005.9</ele>
        <time>2022-08-24T07:19:49Z</time>
      </trkpt>
      <trkpt lat="43.82016" lon="5.52059">
        <ele>1005.4</ele>
        <time>2022-08-24T07:19:50Z</time>
      </trkpt>
      <trkpt lat="43.82014" lon="5.52052">
        <ele>1005.1</ele>
        <time>2022-08-24T07:19:51Z</time>
      </trkpt>
      <trkpt lat="43.82013" lon="5.52044">
        <ele>1005.4</ele>
        <time>2022-08-24T07:19:52Z</time>
      </trkpt>
      <trkpt lat="43.82014" lon="5.52037">
        <ele>1005.7</ele>
        <time>2022-08-24T07:19:53Z</time>
      </trkpt>
      <trkpt lat="43.82017" lon="5.52032">
        <ele>1005.9</ele>
        <time>2022-08-24T07:19:54Z</time>
      </trkpt>
      <trkpt lat="43.82021" lon="5.52028">
        <ele>1006</ele>
        <time>2022-08-24T07:19:55Z</time>
      </trkpt>
      <trkpt lat="43.82025" lon="5.52023">
        <ele>1006.8</ele>
        <time>2022-08-24T07:19:56Z</time>
      </trkpt>
      <trkpt lat="43.82031" lon="5.52021">
        <ele>1007.1</ele>
        <time>2022-08-24T07:19:57Z</time>
      </trkpt>
      <trkpt lat="43.82036" lon="5.52018">
        <ele>1007.3</ele>
        <time>2022-08-24T07:19:58Z</time>
      </trkpt>
      <trkpt lat="43.8204" lon="5.52014">
        <ele>1007.9</ele>
        <time>2022-08-24T07:19:59Z</time>
      </trkpt>
      <trkpt lat="43.82044" lon="5.5201">
        <ele>1008.3</ele>
        <time>2022-08-24T07:20:00Z</time>
      </trkpt>
      <trkpt lat="43.82048" lon="5.52007">
        <ele>1008.8</ele>
        <time>2022-08-24T07:20:01Z</time>
      </trkpt>
      <trkpt lat="43.82056" lon="5.52001">
        <ele>1009.8</ele>
        <time>2022-08-24T07:20:03Z</time>
      </trkpt>
      <trkpt lat="43.82059" lon="5.51995">
        <ele>1010.3</ele>
        <time>2022-08-24T07:20:04Z</time>
      </trkpt>
      <trkpt lat="43.82066" lon="5.5199">
        <ele>1010.1</ele>
        <time>2022-08-24T07:20:06Z</time>
      </trkpt>
      <trkpt lat="43.82072" lon="5.51981">
        <ele>1010.9</ele>
        <time>2022-08-24T07:20:08Z</time>
      </trkpt>
      <trkpt lat="43.82076" lon="5.51977">
        <ele>1011.2</ele>
        <time>2022-08-24T07:20:09Z</time>
      </trkpt>
      <trkpt lat="43.82079" lon="5.51972">
        <ele>1011.6</ele>
        <time>2022-08-24T07:20:10Z</time>
      </trkpt>
      <trkpt lat="43.82082" lon="5.51968">
        <ele>1012.2</ele>
        <time>2022-08-24T07:20:11Z</time>
      </trkpt>
      <trkpt lat="43.82088" lon="5.51958">
        <ele>1013</ele>
        <time>2022-08-24T07:20:13Z</time>
      </trkpt>
      <trkpt lat="43.82093" lon="5.5195">
        <ele>1013.5</ele>
        <time>2022-08-24T07:20:15Z</time>
      </trkpt>
      <trkpt lat="43.82099" lon="5.51941">
        <ele>1013.7</ele>
        <time>2022-08-24T07:20:17Z</time>
      </trkpt>
      <trkpt lat="43.82102" lon="5.51936">
        <ele>1013.9</ele>
        <time>2022-08-24T07:20:18Z</time>
      </trkpt>
      <trkpt lat="43.82104" lon="5.51929">
        <ele>1014.6</ele>
        <time>2022-08-24T07:20:19Z</time>
      </trkpt>
      <trkpt lat="43.8211" lon="5.51919">
        <ele>1015</ele>
        <time>2022-08-24T07:20:21Z</time>
      </trkpt>
      <trkpt lat="43.82113" lon="5.51908">
        <ele>1015.8</ele>
        <time>2022-08-24T07:20:23Z</time>
      </trkpt>
      <trkpt lat="43.82116" lon="5.51897">
        <ele>1016</ele>
        <time>2022-08-24T07:20:25Z</time>
      </trkpt>
      <trkpt lat="43.82118" lon="5.51891">
        <ele>1016.2</ele>
        <time>2022-08-24T07:20:26Z</time>
      </trkpt>
      <trkpt lat="43.8212" lon="5.51885">
        <ele>1016.3</ele>
        <time>2022-08-24T07:20:27Z</time>
      </trkpt>
      <trkpt lat="43.82124" lon="5.51874">
        <ele>1016.2</ele>
        <time>2022-08-24T07:20:29Z</time>
      </trkpt>
      <trkpt lat="43.82126" lon="5.51866">
        <ele>1016.3</ele>
        <time>2022-08-24T07:20:30Z</time>
      </trkpt>
      <trkpt lat="43.82127" lon="5.5186">
        <ele>1016.4</ele>
        <time>2022-08-24T07:20:31Z</time>
      </trkpt>
      <trkpt lat="43.82129" lon="5.51854">
        <ele>1016.3</ele>
        <time>2022-08-24T07:20:32Z</time>
      </trkpt>
      <trkpt lat="43.82131" lon="5.51843">
        <ele>1016.3</ele>
        <time>2022-08-24T07:20:34Z</time>
      </trkpt>
      <trkpt lat="43.82132" lon="5.51831">
        <ele>1016.8</ele>
        <time>2022-08-24T07:20:36Z</time>
      </trkpt>
      <trkpt lat="43.82132" lon="5.51824">
        <ele>1016.9</ele>
        <time>2022-08-24T07:20:37Z</time>
      </trkpt>
      <trkpt lat="43.82132" lon="5.51818">
        <ele>1017.4</ele>
        <time>2022-08-24T07:20:38Z</time>
      </trkpt>
      <trkpt lat="43.82131" lon="5.51805">
        <ele>1018.1</ele>
        <time>2022-08-24T07:20:40Z</time>
      </trkpt>
      <trkpt lat="43.82131" lon="5.51798">
        <ele>1017.8</ele>
        <time>2022-08-24T07:20:41Z</time>
      </trkpt>
      <trkpt lat="43.8213" lon="5.51792">
        <ele>1018.2</ele>
        <time>2022-08-24T07:20:42Z</time>
      </trkpt>
      <trkpt lat="43.82128" lon="5.51779">
        <ele>1018.8</ele>
        <time>2022-08-24T07:20:44Z</time>
      </trkpt>
      <trkpt lat="43.82126" lon="5.51773">
        <ele>1019.1</ele>
        <time>2022-08-24T07:20:45Z</time>
      </trkpt>
      <trkpt lat="43.82124" lon="5.51768">
        <ele>1019.5</ele>
        <time>2022-08-24T07:20:46Z</time>
      </trkpt>
      <trkpt lat="43.82121" lon="5.51758">
        <ele>1019.8</ele>
        <time>2022-08-24T07:20:48Z</time>
      </trkpt>
      <trkpt lat="43.82117" lon="5.51748">
        <ele>1020.4</ele>
        <time>2022-08-24T07:20:50Z</time>
      </trkpt>
      <trkpt lat="43.82112" lon="5.51737">
        <ele>1020.5</ele>
        <time>2022-08-24T07:20:52Z</time>
      </trkpt>
      <trkpt lat="43.82107" lon="5.51728">
        <ele>1020.3</ele>
        <time>2022-08-24T07:20:54Z</time>
      </trkpt>
      <trkpt lat="43.82102" lon="5.5172">
        <ele>1020.4</ele>
        <time>2022-08-24T07:20:56Z</time>
      </trkpt>
      <trkpt lat="43.82095" lon="5.51712">
        <ele>1021.4</ele>
        <time>2022-08-24T07:20:58Z</time>
      </trkpt>
      <trkpt lat="43.82088" lon="5.51706">
        <ele>1022.1</ele>
        <time>2022-08-24T07:21:00Z</time>
      </trkpt>
      <trkpt lat="43.8208" lon="5.517">
        <ele>1023.1</ele>
        <time>2022-08-24T07:21:02Z</time>
      </trkpt>
      <trkpt lat="43.82072" lon="5.51694">
        <ele>1023.9</ele>
        <time>2022-08-24T07:21:04Z</time>
      </trkpt>
      <trkpt lat="43.82069" lon="5.5169">
        <ele>1024.3</ele>
        <time>2022-08-24T07:21:05Z</time>
      </trkpt>
      <trkpt lat="43.82061" lon="5.51683">
        <ele>1024.8</ele>
        <time>2022-08-24T07:21:07Z</time>
      </trkpt>
      <trkpt lat="43.82054" lon="5.51675">
        <ele>1025.1</ele>
        <time>2022-08-24T07:21:09Z</time>
      </trkpt>
      <trkpt lat="43.82048" lon="5.51669">
        <ele>1024.8</ele>
        <time>2022-08-24T07:21:11Z</time>
      </trkpt>
      <trkpt lat="43.8204" lon="5.51662">
        <ele>1025</ele>
        <time>2022-08-24T07:21:13Z</time>
      </trkpt>
      <trkpt lat="43.82034" lon="5.51653">
        <ele>1025.6</ele>
        <time>2022-08-24T07:21:15Z</time>
      </trkpt>
      <trkpt lat="43.8203" lon="5.51649">
        <ele>1026.1</ele>
        <time>2022-08-24T07:21:16Z</time>
      </trkpt>
      <trkpt lat="43.82029" lon="5.51637">
        <ele>1025.7</ele>
        <time>2022-08-24T07:21:18Z</time>
      </trkpt>
      <trkpt lat="43.82031" lon="5.51625">
        <ele>1025.7</ele>
        <time>2022-08-24T07:21:20Z</time>
      </trkpt>
      <trkpt lat="43.82032" lon="5.51619">
        <ele>1025.5</ele>
        <time>2022-08-24T07:21:21Z</time>
      </trkpt>
      <trkpt lat="43.82035" lon="5.51608">
        <ele>1025.4</ele>
        <time>2022-08-24T07:21:23Z</time>
      </trkpt>
      <trkpt lat="43.82037" lon="5.51602">
        <ele>1025.7</ele>
        <time>2022-08-24T07:21:24Z</time>
      </trkpt>
      <trkpt lat="43.8204" lon="5.5159">
        <ele>1026.3</ele>
        <time>2022-08-24T07:21:26Z</time>
      </trkpt>
      <trkpt lat="43.82042" lon="5.51583">
        <ele>1026.5</ele>
        <time>2022-08-24T07:21:27Z</time>
      </trkpt>
      <trkpt lat="43.82045" lon="5.51573">
        <ele>1026.6</ele>
        <time>2022-08-24T07:21:29Z</time>
      </trkpt>
      <trkpt lat="43.82047" lon="5.51567">
        <ele>1026.8</ele>
        <time>2022-08-24T07:21:30Z</time>
      </trkpt>
      <trkpt lat="43.82048" lon="5.51557">
        <ele>1027.2</ele>
        <time>2022-08-24T07:21:32Z</time>
      </trkpt>
      <trkpt lat="43.8205" lon="5.51543">
        <ele>1027.6</ele>
        <time>2022-08-24T07:21:34Z</time>
      </trkpt>
      <trkpt lat="43.82052" lon="5.5153">
        <ele>1028.2</ele>
        <time>2022-08-24T07:21:36Z</time>
      </trkpt>
      <trkpt lat="43.82052" lon="5.51519">
        <ele>1028.4</ele>
        <time>2022-08-24T07:21:38Z</time>
      </trkpt>
      <trkpt lat="43.82052" lon="5.51512">
        <ele>1028.5</ele>
        <time>2022-08-24T07:21:39Z</time>
      </trkpt>
      <trkpt lat="43.8205" lon="5.515">
        <ele>1029.4</ele>
        <time>2022-08-24T07:21:41Z</time>
      </trkpt>
      <trkpt lat="43.82048" lon="5.51489">
        <ele>1029.1</ele>
        <time>2022-08-24T07:21:43Z</time>
      </trkpt>
      <trkpt lat="43.82044" lon="5.5148">
        <ele>1029.3</ele>
        <time>2022-08-24T07:21:45Z</time>
      </trkpt>
      <trkpt lat="43.82037" lon="5.51473">
        <ele>1030</ele>
        <time>2022-08-24T07:21:47Z</time>
      </trkpt>
      <trkpt lat="43.82034" lon="5.51469">
        <ele>1030.3</ele>
        <time>2022-08-24T07:21:48Z</time>
      </trkpt>
      <trkpt lat="43.8203" lon="5.51464">
        <ele>1030.4</ele>
        <time>2022-08-24T07:21:49Z</time>
      </trkpt>
      <trkpt lat="43.82026" lon="5.5146">
        <ele>1030.5</ele>
        <time>2022-08-24T07:21:50Z</time>
      </trkpt>
      <trkpt lat="43.8202" lon="5.51453">
        <ele>1031</ele>
        <time>2022-08-24T07:21:52Z</time>
      </trkpt>
      <trkpt lat="43.82013" lon="5.51447">
        <ele>1031.5</ele>
        <time>2022-08-24T07:21:54Z</time>
      </trkpt>
      <trkpt lat="43.82005" lon="5.51443">
        <ele>1032.5</ele>
        <time>2022-08-24T07:21:56Z</time>
      </trkpt>
      <trkpt lat="43.81998" lon="5.51437">
        <ele>1032.7</ele>
        <time>2022-08-24T07:21:58Z</time>
      </trkpt>
      <trkpt lat="43.8199" lon="5.51432">
        <ele>1032.9</ele>
        <time>2022-08-24T07:22:00Z</time>
      </trkpt>
      <trkpt lat="43.81982" lon="5.51427">
        <ele>1033.2</ele>
        <time>2022-08-24T07:22:02Z</time>
      </trkpt>
      <trkpt lat="43.81975" lon="5.51423">
        <ele>1033.7</ele>
        <time>2022-08-24T07:22:04Z</time>
      </trkpt>
      <trkpt lat="43.81967" lon="5.51418">
        <ele>1033.9</ele>
        <time>2022-08-24T07:22:06Z</time>
      </trkpt>
      <trkpt lat="43.8196" lon="5.51413">
        <ele>1034.3</ele>
        <time>2022-08-24T07:22:08Z</time>
      </trkpt>
      <trkpt lat="43.8195" lon="5.5141">
        <ele>1035.2</ele>
        <time>2022-08-24T07:22:10Z</time>
      </trkpt>
      <trkpt lat="43.81946" lon="5.51409">
        <ele>1035.7</ele>
        <time>2022-08-24T07:22:11Z</time>
      </trkpt>
      <trkpt lat="43.81941" lon="5.51408">
        <ele>1035.9</ele>
        <time>2022-08-24T07:22:12Z</time>
      </trkpt>
      <trkpt lat="43.81932" lon="5.51409">
        <ele>1036.1</ele>
        <time>2022-08-24T07:22:14Z</time>
      </trkpt>
      <trkpt lat="43.81928" lon="5.51409">
        <ele>1036.3</ele>
        <time>2022-08-24T07:22:15Z</time>
      </trkpt>
      <trkpt lat="43.8192" lon="5.5141">
        <ele>1036.5</ele>
        <time>2022-08-24T07:22:17Z</time>
      </trkpt>
      <trkpt lat="43.81912" lon="5.51409">
        <ele>1036.5</ele>
        <time>2022-08-24T07:22:19Z</time>
      </trkpt>
      <trkpt lat="43.81905" lon="5.51404">
        <ele>1036.5</ele>
        <time>2022-08-24T07:22:21Z</time>
      </trkpt>
      <trkpt lat="43.81899" lon="5.51397">
        <ele>1036.5</ele>
        <time>2022-08-24T07:22:23Z</time>
      </trkpt>
      <trkpt lat="43.81897" lon="5.51385">
        <ele>1036.8</ele>
        <time>2022-08-24T07:22:25Z</time>
      </trkpt>
      <trkpt lat="43.81902" lon="5.51377">
        <ele>1036.8</ele>
        <time>2022-08-24T07:22:26Z</time>
      </trkpt>
      <trkpt lat="43.81904" lon="5.51366">
        <ele>1037</ele>
        <time>2022-08-24T07:22:28Z</time>
      </trkpt>
      <trkpt lat="43.81907" lon="5.51355">
        <ele>1037.1</ele>
        <time>2022-08-24T07:22:30Z</time>
      </trkpt>
      <trkpt lat="43.81911" lon="5.51345">
        <ele>1037.2</ele>
        <time>2022-08-24T07:22:32Z</time>
      </trkpt>
      <trkpt lat="43.81914" lon="5.51334">
        <ele>1037.4</ele>
        <time>2022-08-24T07:22:34Z</time>
      </trkpt>
      <trkpt lat="43.81915" lon="5.51327">
        <ele>1037.5</ele>
        <time>2022-08-24T07:22:35Z</time>
      </trkpt>
      <trkpt lat="43.81916" lon="5.51321">
        <ele>1037.6</ele>
        <time>2022-08-24T07:22:36Z</time>
      </trkpt>
      <trkpt lat="43.81916" lon="5.51313">
        <ele>1037.9</ele>
        <time>2022-08-24T07:22:37Z</time>
      </trkpt>
      <trkpt lat="43.81916" lon="5.51303">
        <ele>1038</ele>
        <time>2022-08-24T07:22:39Z</time>
      </trkpt>
      <trkpt lat="43.81916" lon="5.51291">
        <ele>1038</ele>
        <time>2022-08-24T07:22:41Z</time>
      </trkpt>
      <trkpt lat="43.81916" lon="5.51285">
        <ele>1038.1</ele>
        <time>2022-08-24T07:22:42Z</time>
      </trkpt>
      <trkpt lat="43.81915" lon="5.51278">
        <ele>1038.2</ele>
        <time>2022-08-24T07:22:43Z</time>
      </trkpt>
      <trkpt lat="43.81915" lon="5.51272">
        <ele>1038.4</ele>
        <time>2022-08-24T07:22:44Z</time>
      </trkpt>
      <trkpt lat="43.81913" lon="5.51259">
        <ele>1038.7</ele>
        <time>2022-08-24T07:22:46Z</time>
      </trkpt>
      <trkpt lat="43.81913" lon="5.51253">
        <ele>1038.9</ele>
        <time>2022-08-24T07:22:47Z</time>
      </trkpt>
      <trkpt lat="43.81912" lon="5.51246">
        <ele>1039.1</ele>
        <time>2022-08-24T07:22:48Z</time>
      </trkpt>
      <trkpt lat="43.8191" lon="5.5124">
        <ele>1039.3</ele>
        <time>2022-08-24T07:22:49Z</time>
      </trkpt>
      <trkpt lat="43.81909" lon="5.51234">
        <ele>1039.5</ele>
        <time>2022-08-24T07:22:50Z</time>
      </trkpt>
      <trkpt lat="43.81907" lon="5.51228">
        <ele>1039.8</ele>
        <time>2022-08-24T07:22:51Z</time>
      </trkpt>
      <trkpt lat="43.81907" lon="5.51221">
        <ele>1039.8</ele>
        <time>2022-08-24T07:22:52Z</time>
      </trkpt>
      <trkpt lat="43.81908" lon="5.51215">
        <ele>1039.9</ele>
        <time>2022-08-24T07:22:53Z</time>
      </trkpt>
      <trkpt lat="43.8191" lon="5.51208">
        <ele>1040</ele>
        <time>2022-08-24T07:22:54Z</time>
      </trkpt>
      <trkpt lat="43.81913" lon="5.51202">
        <ele>1040</ele>
        <time>2022-08-24T07:22:55Z</time>
      </trkpt>
      <trkpt lat="43.81915" lon="5.51197">
        <ele>1040</ele>
        <time>2022-08-24T07:22:56Z</time>
      </trkpt>
      <trkpt lat="43.81918" lon="5.51192">
        <ele>1040.3</ele>
        <time>2022-08-24T07:22:57Z</time>
      </trkpt>
      <trkpt lat="43.81923" lon="5.51191">
        <ele>1040</ele>
        <time>2022-08-24T07:22:58Z</time>
      </trkpt>
      <trkpt lat="43.81928" lon="5.51189">
        <ele>1039.8</ele>
        <time>2022-08-24T07:22:59Z</time>
      </trkpt>
      <trkpt lat="43.81933" lon="5.51188">
        <ele>1039.5</ele>
        <time>2022-08-24T07:23:00Z</time>
      </trkpt>
      <trkpt lat="43.81938" lon="5.51183">
        <ele>1039.8</ele>
        <time>2022-08-24T07:23:01Z</time>
      </trkpt>
      <trkpt lat="43.81943" lon="5.51181">
        <ele>1039.7</ele>
        <time>2022-08-24T07:23:02Z</time>
      </trkpt>
      <trkpt lat="43.81949" lon="5.5118">
        <ele>1039</ele>
        <time>2022-08-24T07:23:03Z</time>
      </trkpt>
      <trkpt lat="43.81954" lon="5.51178">
        <ele>1038.7</ele>
        <time>2022-08-24T07:23:04Z</time>
      </trkpt>
      <trkpt lat="43.8196" lon="5.51176">
        <ele>1038.2</ele>
        <time>2022-08-24T07:23:05Z</time>
      </trkpt>
      <trkpt lat="43.81966" lon="5.51172">
        <ele>1038.5</ele>
        <time>2022-08-24T07:23:06Z</time>
      </trkpt>
      <trkpt lat="43.81971" lon="5.51171">
        <ele>1038</ele>
        <time>2022-08-24T07:23:07Z</time>
      </trkpt>
      <trkpt lat="43.81977" lon="5.51167">
        <ele>1038.2</ele>
        <time>2022-08-24T07:23:08Z</time>
      </trkpt>
      <trkpt lat="43.81983" lon="5.51164">
        <ele>1038.3</ele>
        <time>2022-08-24T07:23:09Z</time>
      </trkpt>
      <trkpt lat="43.81989" lon="5.51161">
        <ele>1038.2</ele>
        <time>2022-08-24T07:23:10Z</time>
      </trkpt>
      <trkpt lat="43.81995" lon="5.51158">
        <ele>1038.2</ele>
        <time>2022-08-24T07:23:11Z</time>
      </trkpt>
      <trkpt lat="43.82" lon="5.51154">
        <ele>1038.5</ele>
        <time>2022-08-24T07:23:12Z</time>
      </trkpt>
      <trkpt lat="43.82006" lon="5.51153">
        <ele>1037.8</ele>
        <time>2022-08-24T07:23:13Z</time>
      </trkpt>
      <trkpt lat="43.82011" lon="5.51148">
        <ele>1038.1</ele>
        <time>2022-08-24T07:23:14Z</time>
      </trkpt>
      <trkpt lat="43.82017" lon="5.51144">
        <ele>1038.4</ele>
        <time>2022-08-24T07:23:15Z</time>
      </trkpt>
      <trkpt lat="43.82023" lon="5.51142">
        <ele>1037.8</ele>
        <time>2022-08-24T07:23:16Z</time>
      </trkpt>
      <trkpt lat="43.82028" lon="5.51139">
        <ele>1037.9</ele>
        <time>2022-08-24T07:23:17Z</time>
      </trkpt>
      <trkpt lat="43.82033" lon="5.51135">
        <ele>1037.8</ele>
        <time>2022-08-24T07:23:18Z</time>
      </trkpt>
      <trkpt lat="43.82038" lon="5.51131">
        <ele>1037.6</ele>
        <time>2022-08-24T07:23:19Z</time>
      </trkpt>
      <trkpt lat="43.82044" lon="5.51129">
        <ele>1036.9</ele>
        <time>2022-08-24T07:23:20Z</time>
      </trkpt>
      <trkpt lat="43.82048" lon="5.51123">
        <ele>1037.8</ele>
        <time>2022-08-24T07:23:21Z</time>
      </trkpt>
      <trkpt lat="43.82053" lon="5.51118">
        <ele>1038.4</ele>
        <time>2022-08-24T07:23:22Z</time>
      </trkpt>
      <trkpt lat="43.82058" lon="5.51113">
        <ele>1038.6</ele>
        <time>2022-08-24T07:23:23Z</time>
      </trkpt>
      <trkpt lat="43.82064" lon="5.51109">
        <ele>1038.6</ele>
        <time>2022-08-24T07:23:24Z</time>
      </trkpt>
      <trkpt lat="43.82069" lon="5.51104">
        <ele>1038.5</ele>
        <time>2022-08-24T07:23:25Z</time>
      </trkpt>
      <trkpt lat="43.82074" lon="5.511">
        <ele>1038.4</ele>
        <time>2022-08-24T07:23:26Z</time>
      </trkpt>
      <trkpt lat="43.82081" lon="5.51096">
        <ele>1038</ele>
        <time>2022-08-24T07:23:27Z</time>
      </trkpt>
      <trkpt lat="43.82086" lon="5.51092">
        <ele>1037.6</ele>
        <time>2022-08-24T07:23:28Z</time>
      </trkpt>
      <trkpt lat="43.82092" lon="5.51087">
        <ele>1037.1</ele>
        <time>2022-08-24T07:23:29Z</time>
      </trkpt>
      <trkpt lat="43.82098" lon="5.51081">
        <ele>1037</ele>
        <time>2022-08-24T07:23:30Z</time>
      </trkpt>
      <trkpt lat="43.82103" lon="5.51076">
        <ele>1036.6</ele>
        <time>2022-08-24T07:23:31Z</time>
      </trkpt>
      <trkpt lat="43.82107" lon="5.51071">
        <ele>1036.6</ele>
        <time>2022-08-24T07:23:32Z</time>
      </trkpt>
      <trkpt lat="43.82113" lon="5.51067">
        <ele>1035.7</ele>
        <time>2022-08-24T07:23:33Z</time>
      </trkpt>
      <trkpt lat="43.82116" lon="5.51061">
        <ele>1036.1</ele>
        <time>2022-08-24T07:23:34Z</time>
      </trkpt>
      <trkpt lat="43.82121" lon="5.51055">
        <ele>1036.3</ele>
        <time>2022-08-24T07:23:35Z</time>
      </trkpt>
      <trkpt lat="43.82126" lon="5.51048">
        <ele>1036.5</ele>
        <time>2022-08-24T07:23:36Z</time>
      </trkpt>
      <trkpt lat="43.8213" lon="5.51043">
        <ele>1036.1</ele>
        <time>2022-08-24T07:23:37Z</time>
      </trkpt>
      <trkpt lat="43.82134" lon="5.51037">
        <ele>1036.4</ele>
        <time>2022-08-24T07:23:38Z</time>
      </trkpt>
      <trkpt lat="43.82138" lon="5.51031">
        <ele>1036.5</ele>
        <time>2022-08-24T07:23:39Z</time>
      </trkpt>
      <trkpt lat="43.82142" lon="5.51023">
        <ele>1036.6</ele>
        <time>2022-08-24T07:23:40Z</time>
      </trkpt>
      <trkpt lat="43.82145" lon="5.51016">
        <ele>1036.1</ele>
        <time>2022-08-24T07:23:41Z</time>
      </trkpt>
      <trkpt lat="43.82149" lon="5.51009">
        <ele>1035.7</ele>
        <time>2022-08-24T07:23:42Z</time>
      </trkpt>
      <trkpt lat="43.82152" lon="5.51003">
        <ele>1035.5</ele>
        <time>2022-08-24T07:23:43Z</time>
      </trkpt>
      <trkpt lat="43.82153" lon="5.50994">
        <ele>1035.6</ele>
        <time>2022-08-24T07:23:44Z</time>
      </trkpt>
      <trkpt lat="43.82154" lon="5.50986">
        <ele>1035.7</ele>
        <time>2022-08-24T07:23:45Z</time>
      </trkpt>
      <trkpt lat="43.82155" lon="5.50977">
        <ele>1035.8</ele>
        <time>2022-08-24T07:23:46Z</time>
      </trkpt>
      <trkpt lat="43.82153" lon="5.50969">
        <ele>1036.2</ele>
        <time>2022-08-24T07:23:47Z</time>
      </trkpt>
      <trkpt lat="43.8215" lon="5.50962">
        <ele>1036.3</ele>
        <time>2022-08-24T07:23:48Z</time>
      </trkpt>
      <trkpt lat="43.82147" lon="5.50954">
        <ele>1036.5</ele>
        <time>2022-08-24T07:23:49Z</time>
      </trkpt>
      <trkpt lat="43.82142" lon="5.50948">
        <ele>1036.9</ele>
        <time>2022-08-24T07:23:50Z</time>
      </trkpt>
      <trkpt lat="43.82137" lon="5.50943">
        <ele>1036.8</ele>
        <time>2022-08-24T07:23:51Z</time>
      </trkpt>
      <trkpt lat="43.82131" lon="5.50939">
        <ele>1036.7</ele>
        <time>2022-08-24T07:23:52Z</time>
      </trkpt>
      <trkpt lat="43.82125" lon="5.50936">
        <ele>1036.7</ele>
        <time>2022-08-24T07:23:53Z</time>
      </trkpt>
      <trkpt lat="43.82114" lon="5.5093">
        <ele>1036.4</ele>
        <time>2022-08-24T07:23:55Z</time>
      </trkpt>
      <trkpt lat="43.82108" lon="5.50927">
        <ele>1036.3</ele>
        <time>2022-08-24T07:23:56Z</time>
      </trkpt>
      <trkpt lat="43.82096" lon="5.50921">
        <ele>1035.9</ele>
        <time>2022-08-24T07:23:58Z</time>
      </trkpt>
      <trkpt lat="43.8209" lon="5.50918">
        <ele>1035.7</ele>
        <time>2022-08-24T07:23:59Z</time>
      </trkpt>
      <trkpt lat="43.82084" lon="5.50916">
        <ele>1035.7</ele>
        <time>2022-08-24T07:24:00Z</time>
      </trkpt>
      <trkpt lat="43.82077" lon="5.50914">
        <ele>1036.4</ele>
        <time>2022-08-24T07:24:01Z</time>
      </trkpt>
      <trkpt lat="43.82071" lon="5.50911">
        <ele>1036.7</ele>
        <time>2022-08-24T07:24:02Z</time>
      </trkpt>
      <trkpt lat="43.82066" lon="5.50907">
        <ele>1036.8</ele>
        <time>2022-08-24T07:24:03Z</time>
      </trkpt>
      <trkpt lat="43.8206" lon="5.50904">
        <ele>1037</ele>
        <time>2022-08-24T07:24:04Z</time>
      </trkpt>
      <trkpt lat="43.82055" lon="5.509">
        <ele>1036.9</ele>
        <time>2022-08-24T07:24:05Z</time>
      </trkpt>
      <trkpt lat="43.8205" lon="5.50896">
        <ele>1036.7</ele>
        <time>2022-08-24T07:24:06Z</time>
      </trkpt>
      <trkpt lat="43.82044" lon="5.50896">
        <ele>1037.8</ele>
        <time>2022-08-24T07:24:07Z</time>
      </trkpt>
      <trkpt lat="43.82039" lon="5.5089">
        <ele>1037.2</ele>
        <time>2022-08-24T07:24:08Z</time>
      </trkpt>
      <trkpt lat="43.82034" lon="5.50885">
        <ele>1036.9</ele>
        <time>2022-08-24T07:24:09Z</time>
      </trkpt>
      <trkpt lat="43.82029" lon="5.5088">
        <ele>1036.7</ele>
        <time>2022-08-24T07:24:10Z</time>
      </trkpt>
      <trkpt lat="43.82023" lon="5.50875">
        <ele>1036.3</ele>
        <time>2022-08-24T07:24:11Z</time>
      </trkpt>
      <trkpt lat="43.82018" lon="5.50871">
        <ele>1036.1</ele>
        <time>2022-08-24T07:24:12Z</time>
      </trkpt>
      <trkpt lat="43.82012" lon="5.50867">
        <ele>1036.3</ele>
        <time>2022-08-24T07:24:13Z</time>
      </trkpt>
      <trkpt lat="43.82007" lon="5.50864">
        <ele>1036.4</ele>
        <time>2022-08-24T07:24:14Z</time>
      </trkpt>
      <trkpt lat="43.82001" lon="5.5086">
        <ele>1036.6</ele>
        <time>2022-08-24T07:24:15Z</time>
      </trkpt>
      <trkpt lat="43.81995" lon="5.50856">
        <ele>1036.6</ele>
        <time>2022-08-24T07:24:16Z</time>
      </trkpt>
      <trkpt lat="43.8199" lon="5.50851">
        <ele>1036.3</ele>
        <time>2022-08-24T07:24:17Z</time>
      </trkpt>
      <trkpt lat="43.81985" lon="5.50847">
        <ele>1036.1</ele>
        <time>2022-08-24T07:24:18Z</time>
      </trkpt>
      <trkpt lat="43.81979" lon="5.50843">
        <ele>1036.1</ele>
        <time>2022-08-24T07:24:19Z</time>
      </trkpt>
      <trkpt lat="43.81974" lon="5.5084">
        <ele>1036.2</ele>
        <time>2022-08-24T07:24:20Z</time>
      </trkpt>
      <trkpt lat="43.81969" lon="5.50837">
        <ele>1035.9</ele>
        <time>2022-08-24T07:24:21Z</time>
      </trkpt>
      <trkpt lat="43.81963" lon="5.50834">
        <ele>1035.5</ele>
        <time>2022-08-24T07:24:22Z</time>
      </trkpt>
      <trkpt lat="43.81958" lon="5.50831">
        <ele>1035.1</ele>
        <time>2022-08-24T07:24:23Z</time>
      </trkpt>
      <trkpt lat="43.81952" lon="5.50829">
        <ele>1035.2</ele>
        <time>2022-08-24T07:24:24Z</time>
      </trkpt>
      <trkpt lat="43.81946" lon="5.50828">
        <ele>1035.4</ele>
        <time>2022-08-24T07:24:25Z</time>
      </trkpt>
      <trkpt lat="43.8194" lon="5.50827">
        <ele>1035.3</ele>
        <time>2022-08-24T07:24:26Z</time>
      </trkpt>
      <trkpt lat="43.81934" lon="5.50827">
        <ele>1035.3</ele>
        <time>2022-08-24T07:24:27Z</time>
      </trkpt>
      <trkpt lat="43.81928" lon="5.50825">
        <ele>1035.2</ele>
        <time>2022-08-24T07:24:28Z</time>
      </trkpt>
      <trkpt lat="43.81922" lon="5.50823">
        <ele>1035.3</ele>
        <time>2022-08-24T07:24:29Z</time>
      </trkpt>
      <trkpt lat="43.81916" lon="5.50821">
        <ele>1035.4</ele>
        <time>2022-08-24T07:24:30Z</time>
      </trkpt>
      <trkpt lat="43.8191" lon="5.50822">
        <ele>1035</ele>
        <time>2022-08-24T07:24:31Z</time>
      </trkpt>
      <trkpt lat="43.81905" lon="5.5082">
        <ele>1034.8</ele>
        <time>2022-08-24T07:24:32Z</time>
      </trkpt>
      <trkpt lat="43.81898" lon="5.50817">
        <ele>1034.6</ele>
        <time>2022-08-24T07:24:33Z</time>
      </trkpt>
      <trkpt lat="43.81892" lon="5.50814">
        <ele>1034.5</ele>
        <time>2022-08-24T07:24:34Z</time>
      </trkpt>
      <trkpt lat="43.81887" lon="5.5081">
        <ele>1034.3</ele>
        <time>2022-08-24T07:24:35Z</time>
      </trkpt>
      <trkpt lat="43.81882" lon="5.50804">
        <ele>1033.6</ele>
        <time>2022-08-24T07:24:36Z</time>
      </trkpt>
      <trkpt lat="43.81879" lon="5.50798">
        <ele>1033.3</ele>
        <time>2022-08-24T07:24:37Z</time>
      </trkpt>
      <trkpt lat="43.81877" lon="5.50789">
        <ele>1033.1</ele>
        <time>2022-08-24T07:24:39Z</time>
      </trkpt>
      <trkpt lat="43.81875" lon="5.50781">
        <ele>1032.9</ele>
        <time>2022-08-24T07:24:41Z</time>
      </trkpt>
      <trkpt lat="43.81873" lon="5.50768">
        <ele>1032.7</ele>
        <time>2022-08-24T07:24:43Z</time>
      </trkpt>
      <trkpt lat="43.81873" lon="5.50761">
        <ele>1032.7</ele>
        <time>2022-08-24T07:24:44Z</time>
      </trkpt>
      <trkpt lat="43.81872" lon="5.50755">
        <ele>1032.6</ele>
        <time>2022-08-24T07:24:45Z</time>
      </trkpt>
      <trkpt lat="43.81871" lon="5.50746">
        <ele>1032.3</ele>
        <time>2022-08-24T07:24:47Z</time>
      </trkpt>
      <trkpt lat="43.8187" lon="5.50746">
        <ele>1032.1</ele>
        <time>2022-08-24T07:25:07Z</time>
      </trkpt>
      <trkpt lat="43.81871" lon="5.50739">
        <ele>1032.8</ele>
        <time>2022-08-24T07:25:15Z</time>
      </trkpt>
      <trkpt lat="43.81871" lon="5.50731">
        <ele>1033.1</ele>
        <time>2022-08-24T07:25:17Z</time>
      </trkpt>
      <trkpt lat="43.8187" lon="5.50721">
        <ele>1033.1</ele>
        <time>2022-08-24T07:25:19Z</time>
      </trkpt>
      <trkpt lat="43.8187" lon="5.50715">
        <ele>1032.8</ele>
        <time>2022-08-24T07:25:20Z</time>
      </trkpt>
      <trkpt lat="43.81868" lon="5.50704">
        <ele>1032.2</ele>
        <time>2022-08-24T07:25:22Z</time>
      </trkpt>
      <trkpt lat="43.81868" lon="5.50691">
        <ele>1032.2</ele>
        <time>2022-08-24T07:25:24Z</time>
      </trkpt>
      <trkpt lat="43.81867" lon="5.50678">
        <ele>1031.4</ele>
        <time>2022-08-24T07:25:26Z</time>
      </trkpt>
      <trkpt lat="43.81865" lon="5.5067">
        <ele>1030.9</ele>
        <time>2022-08-24T07:25:27Z</time>
      </trkpt>
      <trkpt lat="43.81864" lon="5.50662">
        <ele>1030.3</ele>
        <time>2022-08-24T07:25:28Z</time>
      </trkpt>
      <trkpt lat="43.81862" lon="5.50654">
        <ele>1029.6</ele>
        <time>2022-08-24T07:25:29Z</time>
      </trkpt>
      <trkpt lat="43.81861" lon="5.50646">
        <ele>1028.9</ele>
        <time>2022-08-24T07:25:30Z</time>
      </trkpt>
      <trkpt lat="43.81859" lon="5.50638">
        <ele>1028</ele>
        <time>2022-08-24T07:25:31Z</time>
      </trkpt>
      <trkpt lat="43.81858" lon="5.50629">
        <ele>1027.5</ele>
        <time>2022-08-24T07:25:32Z</time>
      </trkpt>
      <trkpt lat="43.81856" lon="5.50622">
        <ele>1026.8</ele>
        <time>2022-08-24T07:25:33Z</time>
      </trkpt>
      <trkpt lat="43.81856" lon="5.50613">
        <ele>1027.1</ele>
        <time>2022-08-24T07:25:34Z</time>
      </trkpt>
      <trkpt lat="43.81855" lon="5.50604">
        <ele>1026.9</ele>
        <time>2022-08-24T07:25:35Z</time>
      </trkpt>
      <trkpt lat="43.81854" lon="5.50598">
        <ele>1026.3</ele>
        <time>2022-08-24T07:25:36Z</time>
      </trkpt>
      <trkpt lat="43.81852" lon="5.50588">
        <ele>1025.1</ele>
        <time>2022-08-24T07:25:37Z</time>
      </trkpt>
      <trkpt lat="43.81851" lon="5.5058">
        <ele>1024.4</ele>
        <time>2022-08-24T07:25:38Z</time>
      </trkpt>
      <trkpt lat="43.8185" lon="5.5057">
        <ele>1023.6</ele>
        <time>2022-08-24T07:25:39Z</time>
      </trkpt>
      <trkpt lat="43.8185" lon="5.50559">
        <ele>1023.1</ele>
        <time>2022-08-24T07:25:40Z</time>
      </trkpt>
      <trkpt lat="43.81851" lon="5.50549">
        <ele>1022.7</ele>
        <time>2022-08-24T07:25:41Z</time>
      </trkpt>
      <trkpt lat="43.81852" lon="5.50539">
        <ele>1022.2</ele>
        <time>2022-08-24T07:25:42Z</time>
      </trkpt>
      <trkpt lat="43.81852" lon="5.50529">
        <ele>1021.5</ele>
        <time>2022-08-24T07:25:43Z</time>
      </trkpt>
      <trkpt lat="43.81853" lon="5.50519">
        <ele>1020.5</ele>
        <time>2022-08-24T07:25:44Z</time>
      </trkpt>
      <trkpt lat="43.81854" lon="5.50507">
        <ele>1019.6</ele>
        <time>2022-08-24T07:25:45Z</time>
      </trkpt>
      <trkpt lat="43.81857" lon="5.50495">
        <ele>1019</ele>
        <time>2022-08-24T07:25:46Z</time>
      </trkpt>
      <trkpt lat="43.8186" lon="5.50485">
        <ele>1018.5</ele>
        <time>2022-08-24T07:25:47Z</time>
      </trkpt>
      <trkpt lat="43.81863" lon="5.50473">
        <ele>1017.5</ele>
        <time>2022-08-24T07:25:48Z</time>
      </trkpt>
      <trkpt lat="43.81868" lon="5.50462">
        <ele>1016.3</ele>
        <time>2022-08-24T07:25:49Z</time>
      </trkpt>
      <trkpt lat="43.81873" lon="5.50452">
        <ele>1015.5</ele>
        <time>2022-08-24T07:25:50Z</time>
      </trkpt>
      <trkpt lat="43.81877" lon="5.50441">
        <ele>1014.2</ele>
        <time>2022-08-24T07:25:51Z</time>
      </trkpt>
      <trkpt lat="43.81879" lon="5.50429">
        <ele>1013.1</ele>
        <time>2022-08-24T07:25:52Z</time>
      </trkpt>
      <trkpt lat="43.81883" lon="5.50417">
        <ele>1011.8</ele>
        <time>2022-08-24T07:25:53Z</time>
      </trkpt>
      <trkpt lat="43.81885" lon="5.50405">
        <ele>1012.7</ele>
        <time>2022-08-24T07:25:54Z</time>
      </trkpt>
      <trkpt lat="43.81887" lon="5.50395">
        <ele>1013.6</ele>
        <time>2022-08-24T07:25:55Z</time>
      </trkpt>
      <trkpt lat="43.8189" lon="5.50385">
        <ele>1014.2</ele>
        <time>2022-08-24T07:25:56Z</time>
      </trkpt>
      <trkpt lat="43.81893" lon="5.50378">
        <ele>1014.4</ele>
        <time>2022-08-24T07:25:57Z</time>
      </trkpt>
      <trkpt lat="43.81896" lon="5.50373">
        <ele>1014.5</ele>
        <time>2022-08-24T07:25:58Z</time>
      </trkpt>
      <trkpt lat="43.81899" lon="5.50367">
        <ele>1014.8</ele>
        <time>2022-08-24T07:25:59Z</time>
      </trkpt>
      <trkpt lat="43.81904" lon="5.50365">
        <ele>1014.6</ele>
        <time>2022-08-24T07:26:00Z</time>
      </trkpt>
      <trkpt lat="43.81909" lon="5.50357">
        <ele>1015.2</ele>
        <time>2022-08-24T07:26:02Z</time>
      </trkpt>
      <trkpt lat="43.81913" lon="5.5035">
        <ele>1016</ele>
        <time>2022-08-24T07:26:04Z</time>
      </trkpt>
      <trkpt lat="43.81917" lon="5.50344">
        <ele>1016.4</ele>
        <time>2022-08-24T07:26:06Z</time>
      </trkpt>
      <trkpt lat="43.81921" lon="5.50337">
        <ele>1016.9</ele>
        <time>2022-08-24T07:26:08Z</time>
      </trkpt>
      <trkpt lat="43.81927" lon="5.5033">
        <ele>1017.6</ele>
        <time>2022-08-24T07:26:10Z</time>
      </trkpt>
      <trkpt lat="43.81934" lon="5.50323">
        <ele>1018.6</ele>
        <time>2022-08-24T07:26:12Z</time>
      </trkpt>
      <trkpt lat="43.8194" lon="5.50317">
        <ele>1019.1</ele>
        <time>2022-08-24T07:26:14Z</time>
      </trkpt>
      <trkpt lat="43.81947" lon="5.50311">
        <ele>1019.4</ele>
        <time>2022-08-24T07:26:16Z</time>
      </trkpt>
      <trkpt lat="43.81953" lon="5.50304">
        <ele>1019.4</ele>
        <time>2022-08-24T07:26:18Z</time>
      </trkpt>
      <trkpt lat="43.81955" lon="5.50297">
        <ele>1020.3</ele>
        <time>2022-08-24T07:26:19Z</time>
      </trkpt>
      <trkpt lat="43.81958" lon="5.50293">
        <ele>1020.5</ele>
        <time>2022-08-24T07:26:20Z</time>
      </trkpt>
      <trkpt lat="43.81965" lon="5.50286">
        <ele>1020.6</ele>
        <time>2022-08-24T07:26:22Z</time>
      </trkpt>
      <trkpt lat="43.8197" lon="5.50278">
        <ele>1021.4</ele>
        <time>2022-08-24T07:26:24Z</time>
      </trkpt>
      <trkpt lat="43.81975" lon="5.5027">
        <ele>1021.7</ele>
        <time>2022-08-24T07:26:26Z</time>
      </trkpt>
      <trkpt lat="43.81981" lon="5.50262">
        <ele>1022</ele>
        <time>2022-08-24T07:26:28Z</time>
      </trkpt>
      <trkpt lat="43.81986" lon="5.50254">
        <ele>1022.4</ele>
        <time>2022-08-24T07:26:30Z</time>
      </trkpt>
      <trkpt lat="43.8199" lon="5.50244">
        <ele>1022.4</ele>
        <time>2022-08-24T07:26:32Z</time>
      </trkpt>
      <trkpt lat="43.81993" lon="5.50239">
        <ele>1022.3</ele>
        <time>2022-08-24T07:26:33Z</time>
      </trkpt>
      <trkpt lat="43.81994" lon="5.50231">
        <ele>1022.6</ele>
        <time>2022-08-24T07:26:34Z</time>
      </trkpt>
      <trkpt lat="43.81993" lon="5.50225">
        <ele>1023.1</ele>
        <time>2022-08-24T07:26:35Z</time>
      </trkpt>
      <trkpt lat="43.81992" lon="5.50217">
        <ele>1022.9</ele>
        <time>2022-08-24T07:26:36Z</time>
      </trkpt>
      <trkpt lat="43.81991" lon="5.5021">
        <ele>1022.4</ele>
        <time>2022-08-24T07:26:37Z</time>
      </trkpt>
      <trkpt lat="43.81989" lon="5.50203">
        <ele>1022.1</ele>
        <time>2022-08-24T07:26:38Z</time>
      </trkpt>
      <trkpt lat="43.81987" lon="5.50197">
        <ele>1022</ele>
        <time>2022-08-24T07:26:39Z</time>
      </trkpt>
      <trkpt lat="43.81984" lon="5.5019">
        <ele>1021.8</ele>
        <time>2022-08-24T07:26:40Z</time>
      </trkpt>
      <trkpt lat="43.81981" lon="5.50184">
        <ele>1021.5</ele>
        <time>2022-08-24T07:26:41Z</time>
      </trkpt>
      <trkpt lat="43.81977" lon="5.50177">
        <ele>1021.2</ele>
        <time>2022-08-24T07:26:42Z</time>
      </trkpt>
      <trkpt lat="43.81974" lon="5.5017">
        <ele>1021.1</ele>
        <time>2022-08-24T07:26:43Z</time>
      </trkpt>
      <trkpt lat="43.8197" lon="5.50164">
        <ele>1020.8</ele>
        <time>2022-08-24T07:26:44Z</time>
      </trkpt>
      <trkpt lat="43.81965" lon="5.50157">
        <ele>1020.6</ele>
        <time>2022-08-24T07:26:45Z</time>
      </trkpt>
      <trkpt lat="43.8196" lon="5.5015">
        <ele>1020.5</ele>
        <time>2022-08-24T07:26:46Z</time>
      </trkpt>
      <trkpt lat="43.81956" lon="5.50145">
        <ele>1020.4</ele>
        <time>2022-08-24T07:26:47Z</time>
      </trkpt>
      <trkpt lat="43.81951" lon="5.5014">
        <ele>1020.5</ele>
        <time>2022-08-24T07:26:48Z</time>
      </trkpt>
      <trkpt lat="43.81946" lon="5.50134">
        <ele>1020.8</ele>
        <time>2022-08-24T07:26:49Z</time>
      </trkpt>
      <trkpt lat="43.81942" lon="5.50128">
        <ele>1020.7</ele>
        <time>2022-08-24T07:26:50Z</time>
      </trkpt>
      <trkpt lat="43.81936" lon="5.50122">
        <ele>1021.1</ele>
        <time>2022-08-24T07:26:51Z</time>
      </trkpt>
      <trkpt lat="43.81933" lon="5.50117">
        <ele>1021</ele>
        <time>2022-08-24T07:26:52Z</time>
      </trkpt>
      <trkpt lat="43.81929" lon="5.50111">
        <ele>1020.7</ele>
        <time>2022-08-24T07:26:53Z</time>
      </trkpt>
      <trkpt lat="43.81926" lon="5.50105">
        <ele>1020.5</ele>
        <time>2022-08-24T07:26:54Z</time>
      </trkpt>
      <trkpt lat="43.81921" lon="5.50099">
        <ele>1020.6</ele>
        <time>2022-08-24T07:26:55Z</time>
      </trkpt>
      <trkpt lat="43.81917" lon="5.50093">
        <ele>1020.7</ele>
        <time>2022-08-24T07:26:56Z</time>
      </trkpt>
      <trkpt lat="43.81912" lon="5.50087">
        <ele>1020.6</ele>
        <time>2022-08-24T07:26:57Z</time>
      </trkpt>
      <trkpt lat="43.81908" lon="5.50082">
        <ele>1020.6</ele>
        <time>2022-08-24T07:26:58Z</time>
      </trkpt>
      <trkpt lat="43.81903" lon="5.50076">
        <ele>1020.5</ele>
        <time>2022-08-24T07:26:59Z</time>
      </trkpt>
      <trkpt lat="43.81899" lon="5.5007">
        <ele>1020.3</ele>
        <time>2022-08-24T07:27:00Z</time>
      </trkpt>
      <trkpt lat="43.81894" lon="5.50065">
        <ele>1020.5</ele>
        <time>2022-08-24T07:27:01Z</time>
      </trkpt>
      <trkpt lat="43.81889" lon="5.50059">
        <ele>1020.4</ele>
        <time>2022-08-24T07:27:02Z</time>
      </trkpt>
      <trkpt lat="43.81885" lon="5.50053">
        <ele>1020.5</ele>
        <time>2022-08-24T07:27:03Z</time>
      </trkpt>
      <trkpt lat="43.8188" lon="5.50047">
        <ele>1020.8</ele>
        <time>2022-08-24T07:27:04Z</time>
      </trkpt>
      <trkpt lat="43.81875" lon="5.50041">
        <ele>1020.9</ele>
        <time>2022-08-24T07:27:05Z</time>
      </trkpt>
      <trkpt lat="43.81871" lon="5.50035">
        <ele>1020.9</ele>
        <time>2022-08-24T07:27:06Z</time>
      </trkpt>
      <trkpt lat="43.81867" lon="5.50029">
        <ele>1020.7</ele>
        <time>2022-08-24T07:27:07Z</time>
      </trkpt>
      <trkpt lat="43.81863" lon="5.50023">
        <ele>1020.9</ele>
        <time>2022-08-24T07:27:08Z</time>
      </trkpt>
      <trkpt lat="43.81859" lon="5.50016">
        <ele>1020.8</ele>
        <time>2022-08-24T07:27:09Z</time>
      </trkpt>
      <trkpt lat="43.81855" lon="5.50009">
        <ele>1020.5</ele>
        <time>2022-08-24T07:27:10Z</time>
      </trkpt>
      <trkpt lat="43.81851" lon="5.50001">
        <ele>1020.3</ele>
        <time>2022-08-24T07:27:11Z</time>
      </trkpt>
      <trkpt lat="43.81849" lon="5.49994">
        <ele>1020</ele>
        <time>2022-08-24T07:27:12Z</time>
      </trkpt>
      <trkpt lat="43.81847" lon="5.49985">
        <ele>1019.4</ele>
        <time>2022-08-24T07:27:13Z</time>
      </trkpt>
      <trkpt lat="43.81846" lon="5.49977">
        <ele>1018.8</ele>
        <time>2022-08-24T07:27:14Z</time>
      </trkpt>
      <trkpt lat="43.81845" lon="5.49969">
        <ele>1018.5</ele>
        <time>2022-08-24T07:27:15Z</time>
      </trkpt>
      <trkpt lat="43.81844" lon="5.49961">
        <ele>1018.6</ele>
        <time>2022-08-24T07:27:16Z</time>
      </trkpt>
      <trkpt lat="43.81841" lon="5.49954">
        <ele>1019.1</ele>
        <time>2022-08-24T07:27:17Z</time>
      </trkpt>
      <trkpt lat="43.81841" lon="5.49946">
        <ele>1019.2</ele>
        <time>2022-08-24T07:27:18Z</time>
      </trkpt>
      <trkpt lat="43.81839" lon="5.49939">
        <ele>1019.5</ele>
        <time>2022-08-24T07:27:19Z</time>
      </trkpt>
      <trkpt lat="43.81839" lon="5.49931">
        <ele>1019.7</ele>
        <time>2022-08-24T07:27:20Z</time>
      </trkpt>
      <trkpt lat="43.81838" lon="5.49922">
        <ele>1019.8</ele>
        <time>2022-08-24T07:27:21Z</time>
      </trkpt>
      <trkpt lat="43.81837" lon="5.49915">
        <ele>1020.1</ele>
        <time>2022-08-24T07:27:22Z</time>
      </trkpt>
      <trkpt lat="43.81836" lon="5.49906">
        <ele>1020.2</ele>
        <time>2022-08-24T07:27:23Z</time>
      </trkpt>
      <trkpt lat="43.81836" lon="5.49898">
        <ele>1020.4</ele>
        <time>2022-08-24T07:27:24Z</time>
      </trkpt>
      <trkpt lat="43.81834" lon="5.49891">
        <ele>1020.8</ele>
        <time>2022-08-24T07:27:25Z</time>
      </trkpt>
      <trkpt lat="43.81832" lon="5.49884">
        <ele>1021</ele>
        <time>2022-08-24T07:27:26Z</time>
      </trkpt>
      <trkpt lat="43.8183" lon="5.49876">
        <ele>1021</ele>
        <time>2022-08-24T07:27:27Z</time>
      </trkpt>
      <trkpt lat="43.81828" lon="5.49868">
        <ele>1020.9</ele>
        <time>2022-08-24T07:27:28Z</time>
      </trkpt>
      <trkpt lat="43.81826" lon="5.49859">
        <ele>1020.7</ele>
        <time>2022-08-24T07:27:29Z</time>
      </trkpt>
      <trkpt lat="43.81824" lon="5.49852">
        <ele>1020.2</ele>
        <time>2022-08-24T07:27:30Z</time>
      </trkpt>
      <trkpt lat="43.81823" lon="5.49844">
        <ele>1019.7</ele>
        <time>2022-08-24T07:27:31Z</time>
      </trkpt>
      <trkpt lat="43.81822" lon="5.49836">
        <ele>1019</ele>
        <time>2022-08-24T07:27:32Z</time>
      </trkpt>
      <trkpt lat="43.81822" lon="5.49827">
        <ele>1018.6</ele>
        <time>2022-08-24T07:27:33Z</time>
      </trkpt>
      <trkpt lat="43.81821" lon="5.49819">
        <ele>1018.3</ele>
        <time>2022-08-24T07:27:34Z</time>
      </trkpt>
      <trkpt lat="43.81821" lon="5.49811">
        <ele>1018.1</ele>
        <time>2022-08-24T07:27:35Z</time>
      </trkpt>
      <trkpt lat="43.8182" lon="5.49803">
        <ele>1018.1</ele>
        <time>2022-08-24T07:27:36Z</time>
      </trkpt>
      <trkpt lat="43.81821" lon="5.49795">
        <ele>1018.6</ele>
        <time>2022-08-24T07:27:37Z</time>
      </trkpt>
      <trkpt lat="43.81824" lon="5.49785">
        <ele>1019.2</ele>
        <time>2022-08-24T07:27:38Z</time>
      </trkpt>
      <trkpt lat="43.81826" lon="5.49778">
        <ele>1019.5</ele>
        <time>2022-08-24T07:27:39Z</time>
      </trkpt>
      <trkpt lat="43.8183" lon="5.49771">
        <ele>1020</ele>
        <time>2022-08-24T07:27:40Z</time>
      </trkpt>
      <trkpt lat="43.81834" lon="5.49765">
        <ele>1020.3</ele>
        <time>2022-08-24T07:27:41Z</time>
      </trkpt>
      <trkpt lat="43.81838" lon="5.49759">
        <ele>1020.1</ele>
        <time>2022-08-24T07:27:42Z</time>
      </trkpt>
      <trkpt lat="43.81841" lon="5.49752">
        <ele>1020.1</ele>
        <time>2022-08-24T07:27:43Z</time>
      </trkpt>
      <trkpt lat="43.81844" lon="5.49745">
        <ele>1020.3</ele>
        <time>2022-08-24T07:27:44Z</time>
      </trkpt>
      <trkpt lat="43.81847" lon="5.49738">
        <ele>1020.3</ele>
        <time>2022-08-24T07:27:45Z</time>
      </trkpt>
      <trkpt lat="43.8185" lon="5.4973">
        <ele>1020.6</ele>
        <time>2022-08-24T07:27:46Z</time>
      </trkpt>
      <trkpt lat="43.81853" lon="5.49722">
        <ele>1020.8</ele>
        <time>2022-08-24T07:27:47Z</time>
      </trkpt>
      <trkpt lat="43.81855" lon="5.49714">
        <ele>1021</ele>
        <time>2022-08-24T07:27:48Z</time>
      </trkpt>
      <trkpt lat="43.81857" lon="5.49706">
        <ele>1021.1</ele>
        <time>2022-08-24T07:27:49Z</time>
      </trkpt>
      <trkpt lat="43.8186" lon="5.49698">
        <ele>1021.1</ele>
        <time>2022-08-24T07:27:50Z</time>
      </trkpt>
      <trkpt lat="43.81863" lon="5.4969">
        <ele>1021.2</ele>
        <time>2022-08-24T07:27:51Z</time>
      </trkpt>
      <trkpt lat="43.81865" lon="5.49683">
        <ele>1021.3</ele>
        <time>2022-08-24T07:27:52Z</time>
      </trkpt>
      <trkpt lat="43.81868" lon="5.49675">
        <ele>1021.7</ele>
        <time>2022-08-24T07:27:53Z</time>
      </trkpt>
      <trkpt lat="43.81872" lon="5.49667">
        <ele>1021.7</ele>
        <time>2022-08-24T07:27:54Z</time>
      </trkpt>
      <trkpt lat="43.81876" lon="5.49661">
        <ele>1021.5</ele>
        <time>2022-08-24T07:27:55Z</time>
      </trkpt>
      <trkpt lat="43.81879" lon="5.49655">
        <ele>1021.6</ele>
        <time>2022-08-24T07:27:56Z</time>
      </trkpt>
      <trkpt lat="43.81883" lon="5.49648">
        <ele>1021.6</ele>
        <time>2022-08-24T07:27:57Z</time>
      </trkpt>
      <trkpt lat="43.81887" lon="5.49643">
        <ele>1021.7</ele>
        <time>2022-08-24T07:27:58Z</time>
      </trkpt>
      <trkpt lat="43.81892" lon="5.49639">
        <ele>1022</ele>
        <time>2022-08-24T07:27:59Z</time>
      </trkpt>
      <trkpt lat="43.81897" lon="5.49636">
        <ele>1022.6</ele>
        <time>2022-08-24T07:28:00Z</time>
      </trkpt>
      <trkpt lat="43.81904" lon="5.49635">
        <ele>1022.8</ele>
        <time>2022-08-24T07:28:01Z</time>
      </trkpt>
      <trkpt lat="43.8191" lon="5.49635">
        <ele>1022.8</ele>
        <time>2022-08-24T07:28:02Z</time>
      </trkpt>
      <trkpt lat="43.81916" lon="5.49635">
        <ele>1022.8</ele>
        <time>2022-08-24T07:28:03Z</time>
      </trkpt>
      <trkpt lat="43.81922" lon="5.49635">
        <ele>1022.6</ele>
        <time>2022-08-24T07:28:04Z</time>
      </trkpt>
      <trkpt lat="43.81928" lon="5.49634">
        <ele>1022.4</ele>
        <time>2022-08-24T07:28:05Z</time>
      </trkpt>
      <trkpt lat="43.81934" lon="5.49633">
        <ele>1022.4</ele>
        <time>2022-08-24T07:28:06Z</time>
      </trkpt>
      <trkpt lat="43.8194" lon="5.49632">
        <ele>1022.5</ele>
        <time>2022-08-24T07:28:07Z</time>
      </trkpt>
      <trkpt lat="43.81946" lon="5.49632">
        <ele>1022.3</ele>
        <time>2022-08-24T07:28:08Z</time>
      </trkpt>
      <trkpt lat="43.81952" lon="5.49634">
        <ele>1022</ele>
        <time>2022-08-24T07:28:09Z</time>
      </trkpt>
      <trkpt lat="43.81958" lon="5.49635">
        <ele>1022</ele>
        <time>2022-08-24T07:28:10Z</time>
      </trkpt>
      <trkpt lat="43.81964" lon="5.49635">
        <ele>1022.2</ele>
        <time>2022-08-24T07:28:11Z</time>
      </trkpt>
      <trkpt lat="43.81969" lon="5.49637">
        <ele>1022.1</ele>
        <time>2022-08-24T07:28:12Z</time>
      </trkpt>
      <trkpt lat="43.81976" lon="5.49638">
        <ele>1022.2</ele>
        <time>2022-08-24T07:28:13Z</time>
      </trkpt>
      <trkpt lat="43.81981" lon="5.49639">
        <ele>1022.4</ele>
        <time>2022-08-24T07:28:14Z</time>
      </trkpt>
      <trkpt lat="43.81987" lon="5.4964">
        <ele>1022.2</ele>
        <time>2022-08-24T07:28:15Z</time>
      </trkpt>
      <trkpt lat="43.81992" lon="5.49644">
        <ele>1021.8</ele>
        <time>2022-08-24T07:28:16Z</time>
      </trkpt>
      <trkpt lat="43.81998" lon="5.49646">
        <ele>1021.8</ele>
        <time>2022-08-24T07:28:17Z</time>
      </trkpt>
      <trkpt lat="43.82003" lon="5.49649">
        <ele>1021.5</ele>
        <time>2022-08-24T07:28:18Z</time>
      </trkpt>
      <trkpt lat="43.82009" lon="5.49652">
        <ele>1021.1</ele>
        <time>2022-08-24T07:28:19Z</time>
      </trkpt>
      <trkpt lat="43.82016" lon="5.49654">
        <ele>1020.8</ele>
        <time>2022-08-24T07:28:20Z</time>
      </trkpt>
      <trkpt lat="43.82021" lon="5.49654">
        <ele>1020.9</ele>
        <time>2022-08-24T07:28:21Z</time>
      </trkpt>
      <trkpt lat="43.82027" lon="5.49652">
        <ele>1021</ele>
        <time>2022-08-24T07:28:22Z</time>
      </trkpt>
      <trkpt lat="43.82031" lon="5.49649">
        <ele>1021</ele>
        <time>2022-08-24T07:28:23Z</time>
      </trkpt>
      <trkpt lat="43.82035" lon="5.49643">
        <ele>1021</ele>
        <time>2022-08-24T07:28:24Z</time>
      </trkpt>
      <trkpt lat="43.8204" lon="5.49622">
        <ele>1021</ele>
        <time>2022-08-24T07:28:27Z</time>
      </trkpt>
      <trkpt lat="43.8204" lon="5.49614">
        <ele>1021.2</ele>
        <time>2022-08-24T07:28:28Z</time>
      </trkpt>
      <trkpt lat="43.82037" lon="5.49605">
        <ele>1021.4</ele>
        <time>2022-08-24T07:28:29Z</time>
      </trkpt>
      <trkpt lat="43.82035" lon="5.49597">
        <ele>1021.3</ele>
        <time>2022-08-24T07:28:30Z</time>
      </trkpt>
      <trkpt lat="43.82032" lon="5.49589">
        <ele>1021.4</ele>
        <time>2022-08-24T07:28:31Z</time>
      </trkpt>
      <trkpt lat="43.8203" lon="5.49582">
        <ele>1021.5</ele>
        <time>2022-08-24T07:28:32Z</time>
      </trkpt>
      <trkpt lat="43.82027" lon="5.49575">
        <ele>1021.5</ele>
        <time>2022-08-24T07:28:33Z</time>
      </trkpt>
      <trkpt lat="43.82024" lon="5.49567">
        <ele>1021.3</ele>
        <time>2022-08-24T07:28:34Z</time>
      </trkpt>
      <trkpt lat="43.82022" lon="5.49561">
        <ele>1021.2</ele>
        <time>2022-08-24T07:28:35Z</time>
      </trkpt>
      <trkpt lat="43.8202" lon="5.49554">
        <ele>1021.1</ele>
        <time>2022-08-24T07:28:36Z</time>
      </trkpt>
      <trkpt lat="43.82017" lon="5.49547">
        <ele>1021.2</ele>
        <time>2022-08-24T07:28:37Z</time>
      </trkpt>
      <trkpt lat="43.82015" lon="5.4954">
        <ele>1021.3</ele>
        <time>2022-08-24T07:28:38Z</time>
      </trkpt>
      <trkpt lat="43.82011" lon="5.49532">
        <ele>1021.7</ele>
        <time>2022-08-24T07:28:39Z</time>
      </trkpt>
      <trkpt lat="43.82008" lon="5.49526">
        <ele>1022.1</ele>
        <time>2022-08-24T07:28:40Z</time>
      </trkpt>
      <trkpt lat="43.82006" lon="5.49519">
        <ele>1022.4</ele>
        <time>2022-08-24T07:28:41Z</time>
      </trkpt>
      <trkpt lat="43.82003" lon="5.49512">
        <ele>1022.6</ele>
        <time>2022-08-24T07:28:42Z</time>
      </trkpt>
      <trkpt lat="43.82" lon="5.49505">
        <ele>1023.1</ele>
        <time>2022-08-24T07:28:43Z</time>
      </trkpt>
      <trkpt lat="43.81998" lon="5.49499">
        <ele>1023.4</ele>
        <time>2022-08-24T07:28:44Z</time>
      </trkpt>
      <trkpt lat="43.81995" lon="5.49492">
        <ele>1023.5</ele>
        <time>2022-08-24T07:28:45Z</time>
      </trkpt>
      <trkpt lat="43.81993" lon="5.49486">
        <ele>1023.5</ele>
        <time>2022-08-24T07:28:46Z</time>
      </trkpt>
      <trkpt lat="43.8199" lon="5.4948">
        <ele>1023.7</ele>
        <time>2022-08-24T07:28:47Z</time>
      </trkpt>
      <trkpt lat="43.81987" lon="5.49475">
        <ele>1024</ele>
        <time>2022-08-24T07:28:48Z</time>
      </trkpt>
      <trkpt lat="43.81985" lon="5.49469">
        <ele>1023.9</ele>
        <time>2022-08-24T07:28:49Z</time>
      </trkpt>
      <trkpt lat="43.81982" lon="5.49463">
        <ele>1024.1</ele>
        <time>2022-08-24T07:28:50Z</time>
      </trkpt>
      <trkpt lat="43.8198" lon="5.49457">
        <ele>1024.1</ele>
        <time>2022-08-24T07:28:51Z</time>
      </trkpt>
      <trkpt lat="43.81976" lon="5.49446">
        <ele>1024.3</ele>
        <time>2022-08-24T07:28:53Z</time>
      </trkpt>
      <trkpt lat="43.8197" lon="5.49436">
        <ele>1024.7</ele>
        <time>2022-08-24T07:28:55Z</time>
      </trkpt>
      <trkpt lat="43.81966" lon="5.49428">
        <ele>1024.5</ele>
        <time>2022-08-24T07:28:56Z</time>
      </trkpt>
      <trkpt lat="43.81963" lon="5.49424">
        <ele>1024.7</ele>
        <time>2022-08-24T07:28:57Z</time>
      </trkpt>
      <trkpt lat="43.81956" lon="5.49415">
        <ele>1025.2</ele>
        <time>2022-08-24T07:28:59Z</time>
      </trkpt>
      <trkpt lat="43.8195" lon="5.49406">
        <ele>1025.2</ele>
        <time>2022-08-24T07:29:01Z</time>
      </trkpt>
      <trkpt lat="43.81943" lon="5.49398">
        <ele>1025.5</ele>
        <time>2022-08-24T07:29:03Z</time>
      </trkpt>
      <trkpt lat="43.81939" lon="5.49393">
        <ele>1025.5</ele>
        <time>2022-08-24T07:29:04Z</time>
      </trkpt>
      <trkpt lat="43.81935" lon="5.49388">
        <ele>1025.7</ele>
        <time>2022-08-24T07:29:05Z</time>
      </trkpt>
      <trkpt lat="43.81927" lon="5.49382">
        <ele>1026.1</ele>
        <time>2022-08-24T07:29:07Z</time>
      </trkpt>
      <trkpt lat="43.81919" lon="5.49375">
        <ele>1026.6</ele>
        <time>2022-08-24T07:29:09Z</time>
      </trkpt>
      <trkpt lat="43.81915" lon="5.49372">
        <ele>1026.9</ele>
        <time>2022-08-24T07:29:10Z</time>
      </trkpt>
      <trkpt lat="43.81911" lon="5.49368">
        <ele>1026.9</ele>
        <time>2022-08-24T07:29:11Z</time>
      </trkpt>
      <trkpt lat="43.81906" lon="5.49365">
        <ele>1027.1</ele>
        <time>2022-08-24T07:29:12Z</time>
      </trkpt>
      <trkpt lat="43.81902" lon="5.49361">
        <ele>1027.1</ele>
        <time>2022-08-24T07:29:13Z</time>
      </trkpt>
      <trkpt lat="43.81898" lon="5.49358">
        <ele>1027.2</ele>
        <time>2022-08-24T07:29:14Z</time>
      </trkpt>
      <trkpt lat="43.81894" lon="5.49354">
        <ele>1027.3</ele>
        <time>2022-08-24T07:29:15Z</time>
      </trkpt>
      <trkpt lat="43.81889" lon="5.49352">
        <ele>1027.6</ele>
        <time>2022-08-24T07:29:16Z</time>
      </trkpt>
      <trkpt lat="43.81885" lon="5.49348">
        <ele>1027.5</ele>
        <time>2022-08-24T07:29:17Z</time>
      </trkpt>
      <trkpt lat="43.81881" lon="5.49345">
        <ele>1027.3</ele>
        <time>2022-08-24T07:29:18Z</time>
      </trkpt>
      <trkpt lat="43.81876" lon="5.49342">
        <ele>1027.2</ele>
        <time>2022-08-24T07:29:19Z</time>
      </trkpt>
      <trkpt lat="43.81872" lon="5.49339">
        <ele>1027.2</ele>
        <time>2022-08-24T07:29:20Z</time>
      </trkpt>
      <trkpt lat="43.81867" lon="5.49335">
        <ele>1026.9</ele>
        <time>2022-08-24T07:29:21Z</time>
      </trkpt>
      <trkpt lat="43.81864" lon="5.49331">
        <ele>1026.8</ele>
        <time>2022-08-24T07:29:22Z</time>
      </trkpt>
      <trkpt lat="43.81861" lon="5.49326">
        <ele>1027</ele>
        <time>2022-08-24T07:29:23Z</time>
      </trkpt>
      <trkpt lat="43.81859" lon="5.49319">
        <ele>1027</ele>
        <time>2022-08-24T07:29:24Z</time>
      </trkpt>
      <trkpt lat="43.81859" lon="5.49312">
        <ele>1027</ele>
        <time>2022-08-24T07:29:25Z</time>
      </trkpt>
      <trkpt lat="43.8186" lon="5.49305">
        <ele>1027.1</ele>
        <time>2022-08-24T07:29:26Z</time>
      </trkpt>
      <trkpt lat="43.81863" lon="5.49298">
        <ele>1027.7</ele>
        <time>2022-08-24T07:29:27Z</time>
      </trkpt>
      <trkpt lat="43.81867" lon="5.49292">
        <ele>1027.9</ele>
        <time>2022-08-24T07:29:28Z</time>
      </trkpt>
      <trkpt lat="43.81871" lon="5.49287">
        <ele>1028.2</ele>
        <time>2022-08-24T07:29:29Z</time>
      </trkpt>
      <trkpt lat="43.81875" lon="5.49283">
        <ele>1028.3</ele>
        <time>2022-08-24T07:29:30Z</time>
      </trkpt>
      <trkpt lat="43.81879" lon="5.4928">
        <ele>1028.4</ele>
        <time>2022-08-24T07:29:31Z</time>
      </trkpt>
      <trkpt lat="43.81883" lon="5.49275">
        <ele>1028.9</ele>
        <time>2022-08-24T07:29:32Z</time>
      </trkpt>
      <trkpt lat="43.81886" lon="5.4927">
        <ele>1029.3</ele>
        <time>2022-08-24T07:29:33Z</time>
      </trkpt>
      <trkpt lat="43.81891" lon="5.49266">
        <ele>1029.4</ele>
        <time>2022-08-24T07:29:34Z</time>
      </trkpt>
      <trkpt lat="43.81894" lon="5.49261">
        <ele>1029.6</ele>
        <time>2022-08-24T07:29:35Z</time>
      </trkpt>
      <trkpt lat="43.81898" lon="5.49256">
        <ele>1029.9</ele>
        <time>2022-08-24T07:29:36Z</time>
      </trkpt>
      <trkpt lat="43.81902" lon="5.49252">
        <ele>1029.7</ele>
        <time>2022-08-24T07:29:37Z</time>
      </trkpt>
      <trkpt lat="43.81906" lon="5.49248">
        <ele>1029.9</ele>
        <time>2022-08-24T07:29:38Z</time>
      </trkpt>
      <trkpt lat="43.8191" lon="5.49243">
        <ele>1030</ele>
        <time>2022-08-24T07:29:39Z</time>
      </trkpt>
      <trkpt lat="43.81914" lon="5.49239">
        <ele>1030</ele>
        <time>2022-08-24T07:29:40Z</time>
      </trkpt>
      <trkpt lat="43.81918" lon="5.49234">
        <ele>1030.1</ele>
        <time>2022-08-24T07:29:41Z</time>
      </trkpt>
      <trkpt lat="43.81921" lon="5.49229">
        <ele>1030.5</ele>
        <time>2022-08-24T07:29:42Z</time>
      </trkpt>
      <trkpt lat="43.81924" lon="5.49224">
        <ele>1030.7</ele>
        <time>2022-08-24T07:29:43Z</time>
      </trkpt>
      <trkpt lat="43.81928" lon="5.49219">
        <ele>1030.9</ele>
        <time>2022-08-24T07:29:44Z</time>
      </trkpt>
      <trkpt lat="43.81932" lon="5.49214">
        <ele>1031</ele>
        <time>2022-08-24T07:29:45Z</time>
      </trkpt>
      <trkpt lat="43.81936" lon="5.49209">
        <ele>1031.2</ele>
        <time>2022-08-24T07:29:46Z</time>
      </trkpt>
      <trkpt lat="43.8194" lon="5.49204">
        <ele>1031.2</ele>
        <time>2022-08-24T07:29:47Z</time>
      </trkpt>
      <trkpt lat="43.81944" lon="5.49199">
        <ele>1031.4</ele>
        <time>2022-08-24T07:29:48Z</time>
      </trkpt>
      <trkpt lat="43.81947" lon="5.49195">
        <ele>1031.5</ele>
        <time>2022-08-24T07:29:49Z</time>
      </trkpt>
      <trkpt lat="43.81951" lon="5.4919">
        <ele>1031.4</ele>
        <time>2022-08-24T07:29:50Z</time>
      </trkpt>
      <trkpt lat="43.81953" lon="5.49184">
        <ele>1031.3</ele>
        <time>2022-08-24T07:29:51Z</time>
      </trkpt>
      <trkpt lat="43.81957" lon="5.49174">
        <ele>1031.3</ele>
        <time>2022-08-24T07:29:53Z</time>
      </trkpt>
      <trkpt lat="43.81958" lon="5.49166">
        <ele>1031.6</ele>
        <time>2022-08-24T07:29:54Z</time>
      </trkpt>
      <trkpt lat="43.81957" lon="5.49159">
        <ele>1031.7</ele>
        <time>2022-08-24T07:29:55Z</time>
      </trkpt>
      <trkpt lat="43.81957" lon="5.49152">
        <ele>1031.7</ele>
        <time>2022-08-24T07:29:56Z</time>
      </trkpt>
      <trkpt lat="43.81955" lon="5.49145">
        <ele>1032</ele>
        <time>2022-08-24T07:29:57Z</time>
      </trkpt>
      <trkpt lat="43.81955" lon="5.49138">
        <ele>1032.1</ele>
        <time>2022-08-24T07:29:58Z</time>
      </trkpt>
      <trkpt lat="43.81954" lon="5.49131">
        <ele>1032</ele>
        <time>2022-08-24T07:29:59Z</time>
      </trkpt>
      <trkpt lat="43.81953" lon="5.49123">
        <ele>1031.9</ele>
        <time>2022-08-24T07:30:00Z</time>
      </trkpt>
      <trkpt lat="43.81952" lon="5.49116">
        <ele>1031.8</ele>
        <time>2022-08-24T07:30:01Z</time>
      </trkpt>
      <trkpt lat="43.81953" lon="5.49108">
        <ele>1031.6</ele>
        <time>2022-08-24T07:30:02Z</time>
      </trkpt>
      <trkpt lat="43.81955" lon="5.49101">
        <ele>1031.5</ele>
        <time>2022-08-24T07:30:03Z</time>
      </trkpt>
      <trkpt lat="43.81956" lon="5.49093">
        <ele>1031.6</ele>
        <time>2022-08-24T07:30:04Z</time>
      </trkpt>
      <trkpt lat="43.81958" lon="5.49086">
        <ele>1031.4</ele>
        <time>2022-08-24T07:30:05Z</time>
      </trkpt>
      <trkpt lat="43.81961" lon="5.4908">
        <ele>1031.4</ele>
        <time>2022-08-24T07:30:06Z</time>
      </trkpt>
      <trkpt lat="43.81965" lon="5.49074">
        <ele>1031.3</ele>
        <time>2022-08-24T07:30:07Z</time>
      </trkpt>
      <trkpt lat="43.81969" lon="5.49068">
        <ele>1031.4</ele>
        <time>2022-08-24T07:30:08Z</time>
      </trkpt>
      <trkpt lat="43.81973" lon="5.49062">
        <ele>1031.1</ele>
        <time>2022-08-24T07:30:09Z</time>
      </trkpt>
      <trkpt lat="43.81977" lon="5.49056">
        <ele>1031</ele>
        <time>2022-08-24T07:30:10Z</time>
      </trkpt>
      <trkpt lat="43.8198" lon="5.4905">
        <ele>1031.3</ele>
        <time>2022-08-24T07:30:11Z</time>
      </trkpt>
      <trkpt lat="43.81984" lon="5.49045">
        <ele>1031.4</ele>
        <time>2022-08-24T07:30:12Z</time>
      </trkpt>
      <trkpt lat="43.81989" lon="5.49039">
        <ele>1031.5</ele>
        <time>2022-08-24T07:30:13Z</time>
      </trkpt>
      <trkpt lat="43.81993" lon="5.49033">
        <ele>1031.6</ele>
        <time>2022-08-24T07:30:14Z</time>
      </trkpt>
      <trkpt lat="43.81997" lon="5.49027">
        <ele>1031.7</ele>
        <time>2022-08-24T07:30:15Z</time>
      </trkpt>
      <trkpt lat="43.81999" lon="5.49021">
        <ele>1032.1</ele>
        <time>2022-08-24T07:30:16Z</time>
      </trkpt>
      <trkpt lat="43.82002" lon="5.49014">
        <ele>1032.5</ele>
        <time>2022-08-24T07:30:17Z</time>
      </trkpt>
      <trkpt lat="43.82008" lon="5.4901">
        <ele>1032</ele>
        <time>2022-08-24T07:30:18Z</time>
      </trkpt>
      <trkpt lat="43.82012" lon="5.49003">
        <ele>1032.4</ele>
        <time>2022-08-24T07:30:19Z</time>
      </trkpt>
      <trkpt lat="43.82016" lon="5.48998">
        <ele>1032.3</ele>
        <time>2022-08-24T07:30:20Z</time>
      </trkpt>
      <trkpt lat="43.8202" lon="5.48993">
        <ele>1032.3</ele>
        <time>2022-08-24T07:30:21Z</time>
      </trkpt>
      <trkpt lat="43.82024" lon="5.48988">
        <ele>1032.1</ele>
        <time>2022-08-24T07:30:22Z</time>
      </trkpt>
      <trkpt lat="43.82029" lon="5.48982">
        <ele>1031.7</ele>
        <time>2022-08-24T07:30:23Z</time>
      </trkpt>
      <trkpt lat="43.82033" lon="5.48976">
        <ele>1031.5</ele>
        <time>2022-08-24T07:30:24Z</time>
      </trkpt>
      <trkpt lat="43.82037" lon="5.4897">
        <ele>1031.1</ele>
        <time>2022-08-24T07:30:25Z</time>
      </trkpt>
      <trkpt lat="43.82041" lon="5.48963">
        <ele>1031.2</ele>
        <time>2022-08-24T07:30:26Z</time>
      </trkpt>
      <trkpt lat="43.82045" lon="5.48956">
        <ele>1030.9</ele>
        <time>2022-08-24T07:30:27Z</time>
      </trkpt>
      <trkpt lat="43.82048" lon="5.4895">
        <ele>1031</ele>
        <time>2022-08-24T07:30:28Z</time>
      </trkpt>
      <trkpt lat="43.82051" lon="5.48944">
        <ele>1031.1</ele>
        <time>2022-08-24T07:30:29Z</time>
      </trkpt>
      <trkpt lat="43.82054" lon="5.48936">
        <ele>1030.4</ele>
        <time>2022-08-24T07:30:30Z</time>
      </trkpt>
      <trkpt lat="43.82055" lon="5.48929">
        <ele>1030.1</ele>
        <time>2022-08-24T07:30:31Z</time>
      </trkpt>
      <trkpt lat="43.82057" lon="5.4892">
        <ele>1029.7</ele>
        <time>2022-08-24T07:30:32Z</time>
      </trkpt>
      <trkpt lat="43.82058" lon="5.4891">
        <ele>1029.6</ele>
        <time>2022-08-24T07:30:33Z</time>
      </trkpt>
      <trkpt lat="43.8206" lon="5.48901">
        <ele>1029.5</ele>
        <time>2022-08-24T07:30:34Z</time>
      </trkpt>
      <trkpt lat="43.82061" lon="5.48891">
        <ele>1029.6</ele>
        <time>2022-08-24T07:30:35Z</time>
      </trkpt>
      <trkpt lat="43.82061" lon="5.48881">
        <ele>1029.6</ele>
        <time>2022-08-24T07:30:36Z</time>
      </trkpt>
      <trkpt lat="43.82061" lon="5.48871">
        <ele>1029.7</ele>
        <time>2022-08-24T07:30:37Z</time>
      </trkpt>
      <trkpt lat="43.8206" lon="5.48862">
        <ele>1029.9</ele>
        <time>2022-08-24T07:30:38Z</time>
      </trkpt>
      <trkpt lat="43.82058" lon="5.48854">
        <ele>1030</ele>
        <time>2022-08-24T07:30:39Z</time>
      </trkpt>
      <trkpt lat="43.82057" lon="5.48846">
        <ele>1030.1</ele>
        <time>2022-08-24T07:30:40Z</time>
      </trkpt>
      <trkpt lat="43.8205" lon="5.48822">
        <ele>1030.1</ele>
        <time>2022-08-24T07:30:43Z</time>
      </trkpt>
      <trkpt lat="43.82049" lon="5.48815">
        <ele>1029.7</ele>
        <time>2022-08-24T07:30:44Z</time>
      </trkpt>
      <trkpt lat="43.82045" lon="5.48808">
        <ele>1029.9</ele>
        <time>2022-08-24T07:30:45Z</time>
      </trkpt>
      <trkpt lat="43.82043" lon="5.488">
        <ele>1029.4</ele>
        <time>2022-08-24T07:30:46Z</time>
      </trkpt>
      <trkpt lat="43.8204" lon="5.48793">
        <ele>1029</ele>
        <time>2022-08-24T07:30:47Z</time>
      </trkpt>
      <trkpt lat="43.82034" lon="5.48788">
        <ele>1029.3</ele>
        <time>2022-08-24T07:30:48Z</time>
      </trkpt>
      <trkpt lat="43.8203" lon="5.48783">
        <ele>1029.5</ele>
        <time>2022-08-24T07:30:49Z</time>
      </trkpt>
      <trkpt lat="43.82025" lon="5.48777">
        <ele>1029.3</ele>
        <time>2022-08-24T07:30:50Z</time>
      </trkpt>
      <trkpt lat="43.8202" lon="5.48773">
        <ele>1029.3</ele>
        <time>2022-08-24T07:30:51Z</time>
      </trkpt>
      <trkpt lat="43.82015" lon="5.48769">
        <ele>1029.3</ele>
        <time>2022-08-24T07:30:52Z</time>
      </trkpt>
      <trkpt lat="43.82009" lon="5.48765">
        <ele>1029.3</ele>
        <time>2022-08-24T07:30:53Z</time>
      </trkpt>
      <trkpt lat="43.82003" lon="5.48762">
        <ele>1029.4</ele>
        <time>2022-08-24T07:30:54Z</time>
      </trkpt>
      <trkpt lat="43.81998" lon="5.48758">
        <ele>1029.3</ele>
        <time>2022-08-24T07:30:55Z</time>
      </trkpt>
      <trkpt lat="43.81992" lon="5.48755">
        <ele>1029.2</ele>
        <time>2022-08-24T07:30:56Z</time>
      </trkpt>
      <trkpt lat="43.81987" lon="5.48753">
        <ele>1029.3</ele>
        <time>2022-08-24T07:30:57Z</time>
      </trkpt>
      <trkpt lat="43.81981" lon="5.48751">
        <ele>1029.2</ele>
        <time>2022-08-24T07:30:58Z</time>
      </trkpt>
      <trkpt lat="43.81975" lon="5.48748">
        <ele>1029.2</ele>
        <time>2022-08-24T07:30:59Z</time>
      </trkpt>
      <trkpt lat="43.81969" lon="5.48746">
        <ele>1029.1</ele>
        <time>2022-08-24T07:31:00Z</time>
      </trkpt>
      <trkpt lat="43.81963" lon="5.48743">
        <ele>1028.9</ele>
        <time>2022-08-24T07:31:01Z</time>
      </trkpt>
      <trkpt lat="43.81958" lon="5.48741">
        <ele>1029.1</ele>
        <time>2022-08-24T07:31:02Z</time>
      </trkpt>
      <trkpt lat="43.81952" lon="5.48738">
        <ele>1029</ele>
        <time>2022-08-24T07:31:03Z</time>
      </trkpt>
      <trkpt lat="43.81946" lon="5.48734">
        <ele>1028.8</ele>
        <time>2022-08-24T07:31:04Z</time>
      </trkpt>
      <trkpt lat="43.81941" lon="5.48732">
        <ele>1028.9</ele>
        <time>2022-08-24T07:31:05Z</time>
      </trkpt>
      <trkpt lat="43.81934" lon="5.48731">
        <ele>1029.4</ele>
        <time>2022-08-24T07:31:06Z</time>
      </trkpt>
      <trkpt lat="43.81928" lon="5.48728">
        <ele>1029.2</ele>
        <time>2022-08-24T07:31:07Z</time>
      </trkpt>
      <trkpt lat="43.81923" lon="5.48725">
        <ele>1029.1</ele>
        <time>2022-08-24T07:31:08Z</time>
      </trkpt>
      <trkpt lat="43.81917" lon="5.48723">
        <ele>1029.3</ele>
        <time>2022-08-24T07:31:09Z</time>
      </trkpt>
      <trkpt lat="43.81913" lon="5.48721">
        <ele>1029.6</ele>
        <time>2022-08-24T07:31:10Z</time>
      </trkpt>
      <trkpt lat="43.81907" lon="5.48716">
        <ele>1029.8</ele>
        <time>2022-08-24T07:31:11Z</time>
      </trkpt>
      <trkpt lat="43.81902" lon="5.48712">
        <ele>1030.4</ele>
        <time>2022-08-24T07:31:12Z</time>
      </trkpt>
      <trkpt lat="43.81898" lon="5.48705">
        <ele>1030.1</ele>
        <time>2022-08-24T07:31:13Z</time>
      </trkpt>
      <trkpt lat="43.81895" lon="5.48697">
        <ele>1029.7</ele>
        <time>2022-08-24T07:31:14Z</time>
      </trkpt>
      <trkpt lat="43.81894" lon="5.48689">
        <ele>1029.5</ele>
        <time>2022-08-24T07:31:15Z</time>
      </trkpt>
      <trkpt lat="43.81893" lon="5.48681">
        <ele>1029.7</ele>
        <time>2022-08-24T07:31:16Z</time>
      </trkpt>
      <trkpt lat="43.81894" lon="5.48673">
        <ele>1029.2</ele>
        <time>2022-08-24T07:31:17Z</time>
      </trkpt>
      <trkpt lat="43.81895" lon="5.48665">
        <ele>1029.1</ele>
        <time>2022-08-24T07:31:18Z</time>
      </trkpt>
      <trkpt lat="43.81897" lon="5.48656">
        <ele>1029.1</ele>
        <time>2022-08-24T07:31:19Z</time>
      </trkpt>
      <trkpt lat="43.81899" lon="5.48648">
        <ele>1029</ele>
        <time>2022-08-24T07:31:20Z</time>
      </trkpt>
      <trkpt lat="43.819" lon="5.4864">
        <ele>1029.5</ele>
        <time>2022-08-24T07:31:21Z</time>
      </trkpt>
      <trkpt lat="43.81904" lon="5.48633">
        <ele>1028.9</ele>
        <time>2022-08-24T07:31:22Z</time>
      </trkpt>
      <trkpt lat="43.81905" lon="5.48625">
        <ele>1029.3</ele>
        <time>2022-08-24T07:31:23Z</time>
      </trkpt>
      <trkpt lat="43.81907" lon="5.48619">
        <ele>1028.9</ele>
        <time>2022-08-24T07:31:24Z</time>
      </trkpt>
      <trkpt lat="43.8191" lon="5.48612">
        <ele>1028.5</ele>
        <time>2022-08-24T07:31:25Z</time>
      </trkpt>
      <trkpt lat="43.81914" lon="5.48605">
        <ele>1027.9</ele>
        <time>2022-08-24T07:31:26Z</time>
      </trkpt>
      <trkpt lat="43.81918" lon="5.48601">
        <ele>1027</ele>
        <time>2022-08-24T07:31:27Z</time>
      </trkpt>
      <trkpt lat="43.81918" lon="5.48591">
        <ele>1028.3</ele>
        <time>2022-08-24T07:31:28Z</time>
      </trkpt>
      <trkpt lat="43.81921" lon="5.48584">
        <ele>1028.3</ele>
        <time>2022-08-24T07:31:29Z</time>
      </trkpt>
      <trkpt lat="43.81922" lon="5.48576">
        <ele>1028.6</ele>
        <time>2022-08-24T07:31:30Z</time>
      </trkpt>
      <trkpt lat="43.81924" lon="5.48569">
        <ele>1028.4</ele>
        <time>2022-08-24T07:31:31Z</time>
      </trkpt>
      <trkpt lat="43.81926" lon="5.48563">
        <ele>1028.5</ele>
        <time>2022-08-24T07:31:32Z</time>
      </trkpt>
      <trkpt lat="43.81928" lon="5.48557">
        <ele>1028.6</ele>
        <time>2022-08-24T07:31:33Z</time>
      </trkpt>
      <trkpt lat="43.81931" lon="5.48548">
        <ele>1028.7</ele>
        <time>2022-08-24T07:31:34Z</time>
      </trkpt>
      <trkpt lat="43.81934" lon="5.48541">
        <ele>1028.7</ele>
        <time>2022-08-24T07:31:35Z</time>
      </trkpt>
      <trkpt lat="43.81936" lon="5.48534">
        <ele>1028.8</ele>
        <time>2022-08-24T07:31:36Z</time>
      </trkpt>
      <trkpt lat="43.81939" lon="5.48527">
        <ele>1028.7</ele>
        <time>2022-08-24T07:31:37Z</time>
      </trkpt>
      <trkpt lat="43.81941" lon="5.48519">
        <ele>1028.7</ele>
        <time>2022-08-24T07:31:38Z</time>
      </trkpt>
      <trkpt lat="43.81942" lon="5.48511">
        <ele>1028.8</ele>
        <time>2022-08-24T07:31:39Z</time>
      </trkpt>
      <trkpt lat="43.81944" lon="5.48503">
        <ele>1029</ele>
        <time>2022-08-24T07:31:40Z</time>
      </trkpt>
      <trkpt lat="43.81943" lon="5.48493">
        <ele>1028.9</ele>
        <time>2022-08-24T07:31:41Z</time>
      </trkpt>
      <trkpt lat="43.81944" lon="5.48487">
        <ele>1028.1</ele>
        <time>2022-08-24T07:31:42Z</time>
      </trkpt>
      <trkpt lat="43.81942" lon="5.48479">
        <ele>1028.2</ele>
        <time>2022-08-24T07:31:43Z</time>
      </trkpt>
      <trkpt lat="43.81939" lon="5.48474">
        <ele>1028.5</ele>
        <time>2022-08-24T07:31:44Z</time>
      </trkpt>
      <trkpt lat="43.81935" lon="5.48469">
        <ele>1028.9</ele>
        <time>2022-08-24T07:31:45Z</time>
      </trkpt>
      <trkpt lat="43.81932" lon="5.48463">
        <ele>1028.8</ele>
        <time>2022-08-24T07:31:46Z</time>
      </trkpt>
      <trkpt lat="43.81928" lon="5.48457">
        <ele>1029</ele>
        <time>2022-08-24T07:31:47Z</time>
      </trkpt>
      <trkpt lat="43.81924" lon="5.48451">
        <ele>1029.1</ele>
        <time>2022-08-24T07:31:48Z</time>
      </trkpt>
      <trkpt lat="43.81922" lon="5.48444">
        <ele>1028.6</ele>
        <time>2022-08-24T07:31:49Z</time>
      </trkpt>
      <trkpt lat="43.81917" lon="5.48439">
        <ele>1028.7</ele>
        <time>2022-08-24T07:31:50Z</time>
      </trkpt>
      <trkpt lat="43.81911" lon="5.48435">
        <ele>1029.1</ele>
        <time>2022-08-24T07:31:51Z</time>
      </trkpt>
      <trkpt lat="43.81908" lon="5.48428">
        <ele>1028.4</ele>
        <time>2022-08-24T07:31:52Z</time>
      </trkpt>
      <trkpt lat="43.81904" lon="5.48422">
        <ele>1028.3</ele>
        <time>2022-08-24T07:31:53Z</time>
      </trkpt>
      <trkpt lat="43.819" lon="5.48417">
        <ele>1028.3</ele>
        <time>2022-08-24T07:31:54Z</time>
      </trkpt>
      <trkpt lat="43.81895" lon="5.48411">
        <ele>1028.5</ele>
        <time>2022-08-24T07:31:55Z</time>
      </trkpt>
      <trkpt lat="43.81891" lon="5.48406">
        <ele>1028.5</ele>
        <time>2022-08-24T07:31:56Z</time>
      </trkpt>
      <trkpt lat="43.81887" lon="5.48401">
        <ele>1028.7</ele>
        <time>2022-08-24T07:31:57Z</time>
      </trkpt>
      <trkpt lat="43.81882" lon="5.48395">
        <ele>1028.7</ele>
        <time>2022-08-24T07:31:58Z</time>
      </trkpt>
      <trkpt lat="43.81878" lon="5.4839">
        <ele>1028.7</ele>
        <time>2022-08-24T07:31:59Z</time>
      </trkpt>
      <trkpt lat="43.81873" lon="5.48384">
        <ele>1028.8</ele>
        <time>2022-08-24T07:32:00Z</time>
      </trkpt>
      <trkpt lat="43.81869" lon="5.48379">
        <ele>1029.1</ele>
        <time>2022-08-24T07:32:01Z</time>
      </trkpt>
      <trkpt lat="43.81867" lon="5.48372">
        <ele>1028.9</ele>
        <time>2022-08-24T07:32:02Z</time>
      </trkpt>
      <trkpt lat="43.81865" lon="5.48364">
        <ele>1028.4</ele>
        <time>2022-08-24T07:32:03Z</time>
      </trkpt>
      <trkpt lat="43.81864" lon="5.48356">
        <ele>1028.3</ele>
        <time>2022-08-24T07:32:04Z</time>
      </trkpt>
      <trkpt lat="43.81864" lon="5.48348">
        <ele>1028.3</ele>
        <time>2022-08-24T07:32:05Z</time>
      </trkpt>
      <trkpt lat="43.81865" lon="5.48341">
        <ele>1027.9</ele>
        <time>2022-08-24T07:32:06Z</time>
      </trkpt>
      <trkpt lat="43.81867" lon="5.48333">
        <ele>1027.5</ele>
        <time>2022-08-24T07:32:07Z</time>
      </trkpt>
      <trkpt lat="43.81869" lon="5.48326">
        <ele>1027.8</ele>
        <time>2022-08-24T07:32:08Z</time>
      </trkpt>
      <trkpt lat="43.81872" lon="5.48318">
        <ele>1028</ele>
        <time>2022-08-24T07:32:09Z</time>
      </trkpt>
      <trkpt lat="43.81875" lon="5.48311">
        <ele>1028</ele>
        <time>2022-08-24T07:32:10Z</time>
      </trkpt>
      <trkpt lat="43.81878" lon="5.48303">
        <ele>1027.9</ele>
        <time>2022-08-24T07:32:11Z</time>
      </trkpt>
      <trkpt lat="43.81882" lon="5.48297">
        <ele>1027.7</ele>
        <time>2022-08-24T07:32:12Z</time>
      </trkpt>
      <trkpt lat="43.81884" lon="5.4829">
        <ele>1027.8</ele>
        <time>2022-08-24T07:32:13Z</time>
      </trkpt>
      <trkpt lat="43.81887" lon="5.48283">
        <ele>1027.9</ele>
        <time>2022-08-24T07:32:14Z</time>
      </trkpt>
      <trkpt lat="43.81893" lon="5.48278">
        <ele>1026.8</ele>
        <time>2022-08-24T07:32:15Z</time>
      </trkpt>
      <trkpt lat="43.81895" lon="5.48269">
        <ele>1027.3</ele>
        <time>2022-08-24T07:32:16Z</time>
      </trkpt>
      <trkpt lat="43.81899" lon="5.48263">
        <ele>1026.9</ele>
        <time>2022-08-24T07:32:17Z</time>
      </trkpt>
      <trkpt lat="43.81902" lon="5.48257">
        <ele>1026.7</ele>
        <time>2022-08-24T07:32:18Z</time>
      </trkpt>
      <trkpt lat="43.81905" lon="5.4825">
        <ele>1026.9</ele>
        <time>2022-08-24T07:32:19Z</time>
      </trkpt>
      <trkpt lat="43.81907" lon="5.48243">
        <ele>1026.5</ele>
        <time>2022-08-24T07:32:20Z</time>
      </trkpt>
      <trkpt lat="43.81907" lon="5.48234">
        <ele>1026.6</ele>
        <time>2022-08-24T07:32:21Z</time>
      </trkpt>
      <trkpt lat="43.81905" lon="5.48226">
        <ele>1027</ele>
        <time>2022-08-24T07:32:22Z</time>
      </trkpt>
      <trkpt lat="43.81904" lon="5.48219">
        <ele>1026.6</ele>
        <time>2022-08-24T07:32:23Z</time>
      </trkpt>
      <trkpt lat="43.819" lon="5.48214">
        <ele>1026.6</ele>
        <time>2022-08-24T07:32:24Z</time>
      </trkpt>
      <trkpt lat="43.81895" lon="5.48208">
        <ele>1026.3</ele>
        <time>2022-08-24T07:32:25Z</time>
      </trkpt>
      <trkpt lat="43.81891" lon="5.48203">
        <ele>1026.2</ele>
        <time>2022-08-24T07:32:26Z</time>
      </trkpt>
      <trkpt lat="43.81886" lon="5.48197">
        <ele>1026.2</ele>
        <time>2022-08-24T07:32:27Z</time>
      </trkpt>
      <trkpt lat="43.81881" lon="5.48191">
        <ele>1026.1</ele>
        <time>2022-08-24T07:32:28Z</time>
      </trkpt>
      <trkpt lat="43.81875" lon="5.48187">
        <ele>1026.6</ele>
        <time>2022-08-24T07:32:29Z</time>
      </trkpt>
      <trkpt lat="43.8187" lon="5.48183">
        <ele>1026.8</ele>
        <time>2022-08-24T07:32:30Z</time>
      </trkpt>
      <trkpt lat="43.81865" lon="5.48178">
        <ele>1026.9</ele>
        <time>2022-08-24T07:32:31Z</time>
      </trkpt>
      <trkpt lat="43.8186" lon="5.48174">
        <ele>1027.1</ele>
        <time>2022-08-24T07:32:32Z</time>
      </trkpt>
      <trkpt lat="43.81855" lon="5.48169">
        <ele>1026.8</ele>
        <time>2022-08-24T07:32:33Z</time>
      </trkpt>
      <trkpt lat="43.81849" lon="5.48166">
        <ele>1026.9</ele>
        <time>2022-08-24T07:32:34Z</time>
      </trkpt>
      <trkpt lat="43.81845" lon="5.48162">
        <ele>1026.5</ele>
        <time>2022-08-24T07:32:35Z</time>
      </trkpt>
      <trkpt lat="43.81839" lon="5.48158">
        <ele>1026.4</ele>
        <time>2022-08-24T07:32:36Z</time>
      </trkpt>
      <trkpt lat="43.81834" lon="5.48154">
        <ele>1026.2</ele>
        <time>2022-08-24T07:32:37Z</time>
      </trkpt>
      <trkpt lat="43.81828" lon="5.48148">
        <ele>1025.6</ele>
        <time>2022-08-24T07:32:38Z</time>
      </trkpt>
      <trkpt lat="43.81822" lon="5.4815">
        <ele>1027</ele>
        <time>2022-08-24T07:32:39Z</time>
      </trkpt>
      <trkpt lat="43.81819" lon="5.48145">
        <ele>1026.4</ele>
        <time>2022-08-24T07:32:40Z</time>
      </trkpt>
      <trkpt lat="43.81813" lon="5.48141">
        <ele>1026.2</ele>
        <time>2022-08-24T07:32:41Z</time>
      </trkpt>
      <trkpt lat="43.81808" lon="5.48137">
        <ele>1026.3</ele>
        <time>2022-08-24T07:32:42Z</time>
      </trkpt>
      <trkpt lat="43.81803" lon="5.48132">
        <ele>1026.2</ele>
        <time>2022-08-24T07:32:43Z</time>
      </trkpt>
      <trkpt lat="43.81798" lon="5.48128">
        <ele>1026.3</ele>
        <time>2022-08-24T07:32:44Z</time>
      </trkpt>
      <trkpt lat="43.81794" lon="5.48124">
        <ele>1026.2</ele>
        <time>2022-08-24T07:32:45Z</time>
      </trkpt>
      <trkpt lat="43.81789" lon="5.48118">
        <ele>1026.2</ele>
        <time>2022-08-24T07:32:46Z</time>
      </trkpt>
      <trkpt lat="43.81784" lon="5.48113">
        <ele>1026.2</ele>
        <time>2022-08-24T07:32:47Z</time>
      </trkpt>
      <trkpt lat="43.8178" lon="5.48108">
        <ele>1026.4</ele>
        <time>2022-08-24T07:32:48Z</time>
      </trkpt>
      <trkpt lat="43.81775" lon="5.48103">
        <ele>1026.3</ele>
        <time>2022-08-24T07:32:49Z</time>
      </trkpt>
      <trkpt lat="43.81771" lon="5.48098">
        <ele>1026.2</ele>
        <time>2022-08-24T07:32:50Z</time>
      </trkpt>
      <trkpt lat="43.81767" lon="5.48094">
        <ele>1026.2</ele>
        <time>2022-08-24T07:32:51Z</time>
      </trkpt>
      <trkpt lat="43.81764" lon="5.48087">
        <ele>1025.8</ele>
        <time>2022-08-24T07:32:52Z</time>
      </trkpt>
      <trkpt lat="43.81759" lon="5.48081">
        <ele>1025.9</ele>
        <time>2022-08-24T07:32:53Z</time>
      </trkpt>
      <trkpt lat="43.81755" lon="5.48075">
        <ele>1026.3</ele>
        <time>2022-08-24T07:32:54Z</time>
      </trkpt>
      <trkpt lat="43.81754" lon="5.48067">
        <ele>1026.5</ele>
        <time>2022-08-24T07:32:55Z</time>
      </trkpt>
      <trkpt lat="43.81754" lon="5.4806">
        <ele>1026.4</ele>
        <time>2022-08-24T07:32:56Z</time>
      </trkpt>
      <trkpt lat="43.81753" lon="5.48053">
        <ele>1026.5</ele>
        <time>2022-08-24T07:32:57Z</time>
      </trkpt>
      <trkpt lat="43.81752" lon="5.48045">
        <ele>1026.9</ele>
        <time>2022-08-24T07:32:58Z</time>
      </trkpt>
      <trkpt lat="43.81752" lon="5.48039">
        <ele>1027.1</ele>
        <time>2022-08-24T07:32:59Z</time>
      </trkpt>
      <trkpt lat="43.81752" lon="5.48032">
        <ele>1027.4</ele>
        <time>2022-08-24T07:33:00Z</time>
      </trkpt>
      <trkpt lat="43.81752" lon="5.4802">
        <ele>1027.7</ele>
        <time>2022-08-24T07:33:02Z</time>
      </trkpt>
      <trkpt lat="43.81752" lon="5.48008">
        <ele>1028.1</ele>
        <time>2022-08-24T07:33:04Z</time>
      </trkpt>
      <trkpt lat="43.8175" lon="5.47995">
        <ele>1029</ele>
        <time>2022-08-24T07:33:06Z</time>
      </trkpt>
      <trkpt lat="43.81749" lon="5.47989">
        <ele>1029.2</ele>
        <time>2022-08-24T07:33:07Z</time>
      </trkpt>
      <trkpt lat="43.81749" lon="5.47982">
        <ele>1029.3</ele>
        <time>2022-08-24T07:33:08Z</time>
      </trkpt>
      <trkpt lat="43.81746" lon="5.4797">
        <ele>1030.1</ele>
        <time>2022-08-24T07:33:10Z</time>
      </trkpt>
      <trkpt lat="43.81743" lon="5.47957">
        <ele>1030.9</ele>
        <time>2022-08-24T07:33:12Z</time>
      </trkpt>
      <trkpt lat="43.81741" lon="5.47951">
        <ele>1031.3</ele>
        <time>2022-08-24T07:33:13Z</time>
      </trkpt>
      <trkpt lat="43.81739" lon="5.47946">
        <ele>1031.8</ele>
        <time>2022-08-24T07:33:14Z</time>
      </trkpt>
      <trkpt lat="43.81735" lon="5.47935">
        <ele>1032.2</ele>
        <time>2022-08-24T07:33:16Z</time>
      </trkpt>
      <trkpt lat="43.81731" lon="5.47924">
        <ele>1032.7</ele>
        <time>2022-08-24T07:33:18Z</time>
      </trkpt>
      <trkpt lat="43.81728" lon="5.47913">
        <ele>1033.2</ele>
        <time>2022-08-24T07:33:20Z</time>
      </trkpt>
      <trkpt lat="43.81723" lon="5.47903">
        <ele>1034.2</ele>
        <time>2022-08-24T07:33:22Z</time>
      </trkpt>
      <trkpt lat="43.81721" lon="5.47898">
        <ele>1034.5</ele>
        <time>2022-08-24T07:33:23Z</time>
      </trkpt>
      <trkpt lat="43.81718" lon="5.47892">
        <ele>1034.8</ele>
        <time>2022-08-24T07:33:24Z</time>
      </trkpt>
      <trkpt lat="43.81715" lon="5.47883">
        <ele>1035.4</ele>
        <time>2022-08-24T07:33:26Z</time>
      </trkpt>
      <trkpt lat="43.81711" lon="5.47872">
        <ele>1036.2</ele>
        <time>2022-08-24T07:33:28Z</time>
      </trkpt>
      <trkpt lat="43.81711" lon="5.47861">
        <ele>1036.4</ele>
        <time>2022-08-24T07:33:30Z</time>
      </trkpt>
      <trkpt lat="43.81711" lon="5.47848">
        <ele>1036.9</ele>
        <time>2022-08-24T07:33:32Z</time>
      </trkpt>
      <trkpt lat="43.81712" lon="5.47837">
        <ele>1037.1</ele>
        <time>2022-08-24T07:33:34Z</time>
      </trkpt>
      <trkpt lat="43.81714" lon="5.47826">
        <ele>1037.4</ele>
        <time>2022-08-24T07:33:36Z</time>
      </trkpt>
      <trkpt lat="43.81717" lon="5.47821">
        <ele>1037.4</ele>
        <time>2022-08-24T07:33:37Z</time>
      </trkpt>
      <trkpt lat="43.81721" lon="5.47816">
        <ele>1037.2</ele>
        <time>2022-08-24T07:33:38Z</time>
      </trkpt>
      <trkpt lat="43.81728" lon="5.4781">
        <ele>1037.9</ele>
        <time>2022-08-24T07:33:40Z</time>
      </trkpt>
      <trkpt lat="43.81735" lon="5.47805">
        <ele>1039.1</ele>
        <time>2022-08-24T07:33:42Z</time>
      </trkpt>
      <trkpt lat="43.81741" lon="5.47801">
        <ele>1040.4</ele>
        <time>2022-08-24T07:33:44Z</time>
      </trkpt>
      <trkpt lat="43.81749" lon="5.47803">
        <ele>1040.5</ele>
        <time>2022-08-24T07:33:46Z</time>
      </trkpt>
      <trkpt lat="43.81757" lon="5.47802">
        <ele>1041.2</ele>
        <time>2022-08-24T07:33:48Z</time>
      </trkpt>
      <trkpt lat="43.81761" lon="5.47805">
        <ele>1040.9</ele>
        <time>2022-08-24T07:33:49Z</time>
      </trkpt>
      <trkpt lat="43.81767" lon="5.47807">
        <ele>1040.7</ele>
        <time>2022-08-24T07:33:51Z</time>
      </trkpt>
      <trkpt lat="43.81775" lon="5.47808">
        <ele>1041.1</ele>
        <time>2022-08-24T07:33:53Z</time>
      </trkpt>
      <trkpt lat="43.81782" lon="5.4781">
        <ele>1040.9</ele>
        <time>2022-08-24T07:33:55Z</time>
      </trkpt>
      <trkpt lat="43.8179" lon="5.47809">
        <ele>1041.4</ele>
        <time>2022-08-24T07:33:57Z</time>
      </trkpt>
      <trkpt lat="43.81798" lon="5.47809">
        <ele>1041.8</ele>
        <time>2022-08-24T07:33:59Z</time>
      </trkpt>
      <trkpt lat="43.81805" lon="5.47809">
        <ele>1042.2</ele>
        <time>2022-08-24T07:34:01Z</time>
      </trkpt>
      <trkpt lat="43.81813" lon="5.47808">
        <ele>1042.5</ele>
        <time>2022-08-24T07:34:03Z</time>
      </trkpt>
      <trkpt lat="43.81819" lon="5.47807">
        <ele>1043.1</ele>
        <time>2022-08-24T07:34:05Z</time>
      </trkpt>
      <trkpt lat="43.81825" lon="5.47805">
        <ele>1043.8</ele>
        <time>2022-08-24T07:34:07Z</time>
      </trkpt>
      <trkpt lat="43.8183" lon="5.47803">
        <ele>1044.3</ele>
        <time>2022-08-24T07:34:09Z</time>
      </trkpt>
      <trkpt lat="43.81837" lon="5.47801">
        <ele>1044.7</ele>
        <time>2022-08-24T07:34:11Z</time>
      </trkpt>
      <trkpt lat="43.81842" lon="5.47798">
        <ele>1044.9</ele>
        <time>2022-08-24T07:34:13Z</time>
      </trkpt>
      <trkpt lat="43.81848" lon="5.47795">
        <ele>1045.2</ele>
        <time>2022-08-24T07:34:15Z</time>
      </trkpt>
      <trkpt lat="43.81854" lon="5.47789">
        <ele>1045.8</ele>
        <time>2022-08-24T07:34:17Z</time>
      </trkpt>
      <trkpt lat="43.81858" lon="5.47784">
        <ele>1046.3</ele>
        <time>2022-08-24T07:34:19Z</time>
      </trkpt>
      <trkpt lat="43.81862" lon="5.47777">
        <ele>1046.9</ele>
        <time>2022-08-24T07:34:21Z</time>
      </trkpt>
      <trkpt lat="43.81865" lon="5.47768">
        <ele>1046.9</ele>
        <time>2022-08-24T07:34:23Z</time>
      </trkpt>
      <trkpt lat="43.81867" lon="5.4776">
        <ele>1047.1</ele>
        <time>2022-08-24T07:34:25Z</time>
      </trkpt>
      <trkpt lat="43.81866" lon="5.47751">
        <ele>1047.7</ele>
        <time>2022-08-24T07:34:27Z</time>
      </trkpt>
      <trkpt lat="43.81866" lon="5.47742">
        <ele>1048</ele>
        <time>2022-08-24T07:34:29Z</time>
      </trkpt>
      <trkpt lat="43.81866" lon="5.47734">
        <ele>1048.3</ele>
        <time>2022-08-24T07:34:31Z</time>
      </trkpt>
      <trkpt lat="43.81864" lon="5.47725">
        <ele>1049.1</ele>
        <time>2022-08-24T07:34:33Z</time>
      </trkpt>
      <trkpt lat="43.81862" lon="5.47716">
        <ele>1049.9</ele>
        <time>2022-08-24T07:34:35Z</time>
      </trkpt>
      <trkpt lat="43.81861" lon="5.47707">
        <ele>1050.6</ele>
        <time>2022-08-24T07:34:37Z</time>
      </trkpt>
      <trkpt lat="43.8186" lon="5.47698">
        <ele>1051</ele>
        <time>2022-08-24T07:34:39Z</time>
      </trkpt>
      <trkpt lat="43.8186" lon="5.47688">
        <ele>1051.6</ele>
        <time>2022-08-24T07:34:41Z</time>
      </trkpt>
      <trkpt lat="43.8186" lon="5.4768">
        <ele>1051.7</ele>
        <time>2022-08-24T07:34:43Z</time>
      </trkpt>
      <trkpt lat="43.81863" lon="5.47673">
        <ele>1051.3</ele>
        <time>2022-08-24T07:34:45Z</time>
      </trkpt>
      <trkpt lat="43.81863" lon="5.47664">
        <ele>1051.6</ele>
        <time>2022-08-24T07:34:47Z</time>
      </trkpt>
      <trkpt lat="43.81864" lon="5.47654">
        <ele>1052.2</ele>
        <time>2022-08-24T07:34:49Z</time>
      </trkpt>
      <trkpt lat="43.81865" lon="5.47646">
        <ele>1052.5</ele>
        <time>2022-08-24T07:34:51Z</time>
      </trkpt>
      <trkpt lat="43.81867" lon="5.47638">
        <ele>1052.7</ele>
        <time>2022-08-24T07:34:53Z</time>
      </trkpt>
      <trkpt lat="43.81869" lon="5.47629">
        <ele>1053.2</ele>
        <time>2022-08-24T07:34:55Z</time>
      </trkpt>
      <trkpt lat="43.81871" lon="5.47621">
        <ele>1053.7</ele>
        <time>2022-08-24T07:34:57Z</time>
      </trkpt>
      <trkpt lat="43.81873" lon="5.47613">
        <ele>1054.2</ele>
        <time>2022-08-24T07:34:59Z</time>
      </trkpt>
      <trkpt lat="43.81876" lon="5.47604">
        <ele>1054.9</ele>
        <time>2022-08-24T07:35:01Z</time>
      </trkpt>
      <trkpt lat="43.81878" lon="5.47596">
        <ele>1055.5</ele>
        <time>2022-08-24T07:35:03Z</time>
      </trkpt>
      <trkpt lat="43.81881" lon="5.47588">
        <ele>1056.1</ele>
        <time>2022-08-24T07:35:05Z</time>
      </trkpt>
      <trkpt lat="43.81884" lon="5.47579">
        <ele>1056.5</ele>
        <time>2022-08-24T07:35:07Z</time>
      </trkpt>
      <trkpt lat="43.81887" lon="5.47571">
        <ele>1056.8</ele>
        <time>2022-08-24T07:35:09Z</time>
      </trkpt>
      <trkpt lat="43.81889" lon="5.47563">
        <ele>1057.2</ele>
        <time>2022-08-24T07:35:11Z</time>
      </trkpt>
      <trkpt lat="43.81891" lon="5.47555">
        <ele>1057.4</ele>
        <time>2022-08-24T07:35:13Z</time>
      </trkpt>
      <trkpt lat="43.81894" lon="5.47548">
        <ele>1057.7</ele>
        <time>2022-08-24T07:35:15Z</time>
      </trkpt>
      <trkpt lat="43.81895" lon="5.4754">
        <ele>1058.2</ele>
        <time>2022-08-24T07:35:17Z</time>
      </trkpt>
      <trkpt lat="43.81897" lon="5.47532">
        <ele>1058.8</ele>
        <time>2022-08-24T07:35:19Z</time>
      </trkpt>
      <trkpt lat="43.81899" lon="5.47524">
        <ele>1059.1</ele>
        <time>2022-08-24T07:35:21Z</time>
      </trkpt>
      <trkpt lat="43.81901" lon="5.47515">
        <ele>1059.6</ele>
        <time>2022-08-24T07:35:23Z</time>
      </trkpt>
      <trkpt lat="43.81903" lon="5.47505">
        <ele>1060</ele>
        <time>2022-08-24T07:35:25Z</time>
      </trkpt>
      <trkpt lat="43.81905" lon="5.47496">
        <ele>1060.4</ele>
        <time>2022-08-24T07:35:27Z</time>
      </trkpt>
      <trkpt lat="43.81906" lon="5.47488">
        <ele>1060.9</ele>
        <time>2022-08-24T07:35:29Z</time>
      </trkpt>
      <trkpt lat="43.81907" lon="5.47478">
        <ele>1061.6</ele>
        <time>2022-08-24T07:35:31Z</time>
      </trkpt>
      <trkpt lat="43.81907" lon="5.4747">
        <ele>1062</ele>
        <time>2022-08-24T07:35:33Z</time>
      </trkpt>
      <trkpt lat="43.81908" lon="5.47461">
        <ele>1061.9</ele>
        <time>2022-08-24T07:35:35Z</time>
      </trkpt>
      <trkpt lat="43.81908" lon="5.47451">
        <ele>1061.9</ele>
        <time>2022-08-24T07:35:37Z</time>
      </trkpt>
      <trkpt lat="43.81907" lon="5.47443">
        <ele>1062.2</ele>
        <time>2022-08-24T07:35:39Z</time>
      </trkpt>
      <trkpt lat="43.81905" lon="5.47436">
        <ele>1062.4</ele>
        <time>2022-08-24T07:35:41Z</time>
      </trkpt>
      <trkpt lat="43.81902" lon="5.47427">
        <ele>1062.9</ele>
        <time>2022-08-24T07:35:43Z</time>
      </trkpt>
      <trkpt lat="43.81896" lon="5.4742">
        <ele>1063.8</ele>
        <time>2022-08-24T07:35:45Z</time>
      </trkpt>
      <trkpt lat="43.81889" lon="5.47415">
        <ele>1064.5</ele>
        <time>2022-08-24T07:35:47Z</time>
      </trkpt>
      <trkpt lat="43.81882" lon="5.47411">
        <ele>1064.5</ele>
        <time>2022-08-24T07:35:49Z</time>
      </trkpt>
      <trkpt lat="43.81874" lon="5.4741">
        <ele>1064.6</ele>
        <time>2022-08-24T07:35:51Z</time>
      </trkpt>
      <trkpt lat="43.81867" lon="5.4741">
        <ele>1064.9</ele>
        <time>2022-08-24T07:35:53Z</time>
      </trkpt>
      <trkpt lat="43.81859" lon="5.47409">
        <ele>1065.2</ele>
        <time>2022-08-24T07:35:55Z</time>
      </trkpt>
      <trkpt lat="43.81851" lon="5.47409">
        <ele>1065.4</ele>
        <time>2022-08-24T07:35:57Z</time>
      </trkpt>
      <trkpt lat="43.81843" lon="5.4741">
        <ele>1065.7</ele>
        <time>2022-08-24T07:35:59Z</time>
      </trkpt>
      <trkpt lat="43.81836" lon="5.4741">
        <ele>1066.1</ele>
        <time>2022-08-24T07:36:01Z</time>
      </trkpt>
      <trkpt lat="43.81828" lon="5.47411">
        <ele>1066.6</ele>
        <time>2022-08-24T07:36:03Z</time>
      </trkpt>
      <trkpt lat="43.8182" lon="5.47412">
        <ele>1067.5</ele>
        <time>2022-08-24T07:36:05Z</time>
      </trkpt>
      <trkpt lat="43.81813" lon="5.47413">
        <ele>1068.3</ele>
        <time>2022-08-24T07:36:07Z</time>
      </trkpt>
      <trkpt lat="43.81805" lon="5.47413">
        <ele>1068.8</ele>
        <time>2022-08-24T07:36:09Z</time>
      </trkpt>
      <trkpt lat="43.81798" lon="5.47413">
        <ele>1069.2</ele>
        <time>2022-08-24T07:36:11Z</time>
      </trkpt>
      <trkpt lat="43.81791" lon="5.47412">
        <ele>1069.6</ele>
        <time>2022-08-24T07:36:13Z</time>
      </trkpt>
      <trkpt lat="43.81782" lon="5.47412">
        <ele>1070</ele>
        <time>2022-08-24T07:36:15Z</time>
      </trkpt>
      <trkpt lat="43.81775" lon="5.47411">
        <ele>1070.5</ele>
        <time>2022-08-24T07:36:17Z</time>
      </trkpt>
      <trkpt lat="43.81767" lon="5.47411">
        <ele>1071.2</ele>
        <time>2022-08-24T07:36:19Z</time>
      </trkpt>
      <trkpt lat="43.81759" lon="5.4741">
        <ele>1071.5</ele>
        <time>2022-08-24T07:36:21Z</time>
      </trkpt>
      <trkpt lat="43.81752" lon="5.47408">
        <ele>1071.4</ele>
        <time>2022-08-24T07:36:23Z</time>
      </trkpt>
      <trkpt lat="43.81745" lon="5.47406">
        <ele>1071.6</ele>
        <time>2022-08-24T07:36:25Z</time>
      </trkpt>
      <trkpt lat="43.81738" lon="5.47404">
        <ele>1072</ele>
        <time>2022-08-24T07:36:27Z</time>
      </trkpt>
      <trkpt lat="43.8173" lon="5.47402">
        <ele>1072.4</ele>
        <time>2022-08-24T07:36:29Z</time>
      </trkpt>
      <trkpt lat="43.81722" lon="5.474">
        <ele>1072.8</ele>
        <time>2022-08-24T07:36:31Z</time>
      </trkpt>
      <trkpt lat="43.81715" lon="5.47397">
        <ele>1073.3</ele>
        <time>2022-08-24T07:36:33Z</time>
      </trkpt>
      <trkpt lat="43.81708" lon="5.47394">
        <ele>1073.6</ele>
        <time>2022-08-24T07:36:35Z</time>
      </trkpt>
      <trkpt lat="43.81701" lon="5.47389">
        <ele>1074</ele>
        <time>2022-08-24T07:36:37Z</time>
      </trkpt>
      <trkpt lat="43.81693" lon="5.47385">
        <ele>1074.2</ele>
        <time>2022-08-24T07:36:39Z</time>
      </trkpt>
      <trkpt lat="43.81686" lon="5.47381">
        <ele>1074.2</ele>
        <time>2022-08-24T07:36:41Z</time>
      </trkpt>
      <trkpt lat="43.81678" lon="5.47378">
        <ele>1074.5</ele>
        <time>2022-08-24T07:36:43Z</time>
      </trkpt>
      <trkpt lat="43.8167" lon="5.47374">
        <ele>1075</ele>
        <time>2022-08-24T07:36:45Z</time>
      </trkpt>
      <trkpt lat="43.81663" lon="5.47369">
        <ele>1075.3</ele>
        <time>2022-08-24T07:36:47Z</time>
      </trkpt>
      <trkpt lat="43.81656" lon="5.47364">
        <ele>1075.5</ele>
        <time>2022-08-24T07:36:49Z</time>
      </trkpt>
      <trkpt lat="43.81649" lon="5.4736">
        <ele>1075.8</ele>
        <time>2022-08-24T07:36:51Z</time>
      </trkpt>
      <trkpt lat="43.81642" lon="5.47356">
        <ele>1076.2</ele>
        <time>2022-08-24T07:36:53Z</time>
      </trkpt>
      <trkpt lat="43.81634" lon="5.47354">
        <ele>1077</ele>
        <time>2022-08-24T07:36:55Z</time>
      </trkpt>
      <trkpt lat="43.81627" lon="5.47351">
        <ele>1077.3</ele>
        <time>2022-08-24T07:36:57Z</time>
      </trkpt>
      <trkpt lat="43.8162" lon="5.47347">
        <ele>1077.4</ele>
        <time>2022-08-24T07:36:59Z</time>
      </trkpt>
      <trkpt lat="43.81612" lon="5.47344">
        <ele>1077.7</ele>
        <time>2022-08-24T07:37:01Z</time>
      </trkpt>
      <trkpt lat="43.81605" lon="5.47342">
        <ele>1078.2</ele>
        <time>2022-08-24T07:37:03Z</time>
      </trkpt>
      <trkpt lat="43.81597" lon="5.47339">
        <ele>1078.8</ele>
        <time>2022-08-24T07:37:05Z</time>
      </trkpt>
      <trkpt lat="43.8159" lon="5.47336">
        <ele>1079.4</ele>
        <time>2022-08-24T07:37:07Z</time>
      </trkpt>
      <trkpt lat="43.81583" lon="5.47333">
        <ele>1079.9</ele>
        <time>2022-08-24T07:37:09Z</time>
      </trkpt>
      <trkpt lat="43.81569" lon="5.47327">
        <ele>1080</ele>
        <time>2022-08-24T07:37:13Z</time>
      </trkpt>
      <trkpt lat="43.81554" lon="5.47321">
        <ele>1080.1</ele>
        <time>2022-08-24T07:37:17Z</time>
      </trkpt>
      <trkpt lat="43.81541" lon="5.47309">
        <ele>1080.2</ele>
        <time>2022-08-24T07:37:21Z</time>
      </trkpt>
      <trkpt lat="43.81534" lon="5.47291">
        <ele>1080.7</ele>
        <time>2022-08-24T07:37:25Z</time>
      </trkpt>
      <trkpt lat="43.81532" lon="5.47263">
        <ele>1080.9</ele>
        <time>2022-08-24T07:37:30Z</time>
      </trkpt>
      <trkpt lat="43.81532" lon="5.47252">
        <ele>1081</ele>
        <time>2022-08-24T07:37:32Z</time>
      </trkpt>
      <trkpt lat="43.81533" lon="5.47242">
        <ele>1081.4</ele>
        <time>2022-08-24T07:37:34Z</time>
      </trkpt>
      <trkpt lat="43.81533" lon="5.47232">
        <ele>1081.8</ele>
        <time>2022-08-24T07:37:36Z</time>
      </trkpt>
      <trkpt lat="43.81532" lon="5.47221">
        <ele>1082.2</ele>
        <time>2022-08-24T07:37:38Z</time>
      </trkpt>
      <trkpt lat="43.81532" lon="5.47211">
        <ele>1082.6</ele>
        <time>2022-08-24T07:37:40Z</time>
      </trkpt>
      <trkpt lat="43.81531" lon="5.472">
        <ele>1083</ele>
        <time>2022-08-24T07:37:42Z</time>
      </trkpt>
      <trkpt lat="43.81529" lon="5.47189">
        <ele>1083.3</ele>
        <time>2022-08-24T07:37:44Z</time>
      </trkpt>
      <trkpt lat="43.81527" lon="5.4718">
        <ele>1083.3</ele>
        <time>2022-08-24T07:37:46Z</time>
      </trkpt>
      <trkpt lat="43.81524" lon="5.47169">
        <ele>1083.3</ele>
        <time>2022-08-24T07:37:48Z</time>
      </trkpt>
      <trkpt lat="43.81521" lon="5.4716">
        <ele>1083.5</ele>
        <time>2022-08-24T07:37:50Z</time>
      </trkpt>
      <trkpt lat="43.81517" lon="5.47149">
        <ele>1083.8</ele>
        <time>2022-08-24T07:37:52Z</time>
      </trkpt>
      <trkpt lat="43.81514" lon="5.47138">
        <ele>1084.1</ele>
        <time>2022-08-24T07:37:54Z</time>
      </trkpt>
      <trkpt lat="43.81509" lon="5.47128">
        <ele>1084.3</ele>
        <time>2022-08-24T07:37:56Z</time>
      </trkpt>
      <trkpt lat="43.81506" lon="5.47117">
        <ele>1084.6</ele>
        <time>2022-08-24T07:37:58Z</time>
      </trkpt>
      <trkpt lat="43.81504" lon="5.47112">
        <ele>1084.6</ele>
        <time>2022-08-24T07:37:59Z</time>
      </trkpt>
      <trkpt lat="43.81501" lon="5.47106">
        <ele>1084.8</ele>
        <time>2022-08-24T07:38:00Z</time>
      </trkpt>
      <trkpt lat="43.81499" lon="5.47101">
        <ele>1084.9</ele>
        <time>2022-08-24T07:38:01Z</time>
      </trkpt>
      <trkpt lat="43.81496" lon="5.47091">
        <ele>1085.1</ele>
        <time>2022-08-24T07:38:03Z</time>
      </trkpt>
      <trkpt lat="43.81492" lon="5.47082">
        <ele>1085</ele>
        <time>2022-08-24T07:38:05Z</time>
      </trkpt>
      <trkpt lat="43.81487" lon="5.47071">
        <ele>1084.9</ele>
        <time>2022-08-24T07:38:07Z</time>
      </trkpt>
      <trkpt lat="43.81485" lon="5.4706">
        <ele>1085.3</ele>
        <time>2022-08-24T07:38:09Z</time>
      </trkpt>
      <trkpt lat="43.81484" lon="5.47049">
        <ele>1085.7</ele>
        <time>2022-08-24T07:38:11Z</time>
      </trkpt>
      <trkpt lat="43.81483" lon="5.47038">
        <ele>1086.3</ele>
        <time>2022-08-24T07:38:13Z</time>
      </trkpt>
      <trkpt lat="43.81484" lon="5.47027">
        <ele>1087.4</ele>
        <time>2022-08-24T07:38:15Z</time>
      </trkpt>
      <trkpt lat="43.81486" lon="5.47021">
        <ele>1087.6</ele>
        <time>2022-08-24T07:38:16Z</time>
      </trkpt>
      <trkpt lat="43.81489" lon="5.4701">
        <ele>1088</ele>
        <time>2022-08-24T07:38:18Z</time>
      </trkpt>
      <trkpt lat="43.81494" lon="5.47">
        <ele>1088.7</ele>
        <time>2022-08-24T07:38:20Z</time>
      </trkpt>
      <trkpt lat="43.81499" lon="5.4699">
        <ele>1089.4</ele>
        <time>2022-08-24T07:38:22Z</time>
      </trkpt>
      <trkpt lat="43.81505" lon="5.46982">
        <ele>1090</ele>
        <time>2022-08-24T07:38:24Z</time>
      </trkpt>
      <trkpt lat="43.81508" lon="5.46978">
        <ele>1090.2</ele>
        <time>2022-08-24T07:38:25Z</time>
      </trkpt>
      <trkpt lat="43.81514" lon="5.46971">
        <ele>1090.6</ele>
        <time>2022-08-24T07:38:27Z</time>
      </trkpt>
      <trkpt lat="43.81518" lon="5.46968">
        <ele>1090.9</ele>
        <time>2022-08-24T07:38:28Z</time>
      </trkpt>
      <trkpt lat="43.81524" lon="5.46963">
        <ele>1091.6</ele>
        <time>2022-08-24T07:38:30Z</time>
      </trkpt>
      <trkpt lat="43.81529" lon="5.4696">
        <ele>1092</ele>
        <time>2022-08-24T07:38:32Z</time>
      </trkpt>
      <trkpt lat="43.81535" lon="5.46957">
        <ele>1092</ele>
        <time>2022-08-24T07:38:34Z</time>
      </trkpt>
      <trkpt lat="43.8154" lon="5.46951">
        <ele>1091.8</ele>
        <time>2022-08-24T07:38:36Z</time>
      </trkpt>
      <trkpt lat="43.8154" lon="5.46943">
        <ele>1091.7</ele>
        <time>2022-08-24T07:38:38Z</time>
      </trkpt>
      <trkpt lat="43.81534" lon="5.46934">
        <ele>1092.9</ele>
        <time>2022-08-24T07:38:40Z</time>
      </trkpt>
      <trkpt lat="43.81531" lon="5.46928">
        <ele>1093.7</ele>
        <time>2022-08-24T07:38:42Z</time>
      </trkpt>
      <trkpt lat="43.81528" lon="5.46922">
        <ele>1094.4</ele>
        <time>2022-08-24T07:38:44Z</time>
      </trkpt>
      <trkpt lat="43.81524" lon="5.46917">
        <ele>1094.6</ele>
        <time>2022-08-24T07:38:46Z</time>
      </trkpt>
      <trkpt lat="43.81521" lon="5.46912">
        <ele>1095.1</ele>
        <time>2022-08-24T07:38:48Z</time>
      </trkpt>
      <trkpt lat="43.81517" lon="5.46907">
        <ele>1095.6</ele>
        <time>2022-08-24T07:38:50Z</time>
      </trkpt>
      <trkpt lat="43.81514" lon="5.46901">
        <ele>1096.3</ele>
        <time>2022-08-24T07:38:52Z</time>
      </trkpt>
      <trkpt lat="43.8151" lon="5.46896">
        <ele>1097</ele>
        <time>2022-08-24T07:38:54Z</time>
      </trkpt>
      <trkpt lat="43.81506" lon="5.46892">
        <ele>1097.6</ele>
        <time>2022-08-24T07:38:56Z</time>
      </trkpt>
      <trkpt lat="43.815" lon="5.46886">
        <ele>1098.5</ele>
        <time>2022-08-24T07:38:59Z</time>
      </trkpt>
      <trkpt lat="43.81496" lon="5.46881">
        <ele>1099.2</ele>
        <time>2022-08-24T07:39:01Z</time>
      </trkpt>
      <trkpt lat="43.81493" lon="5.46876">
        <ele>1099.9</ele>
        <time>2022-08-24T07:39:03Z</time>
      </trkpt>
      <trkpt lat="43.81489" lon="5.46872">
        <ele>1100.3</ele>
        <time>2022-08-24T07:39:05Z</time>
      </trkpt>
      <trkpt lat="43.81484" lon="5.46868">
        <ele>1100.6</ele>
        <time>2022-08-24T07:39:07Z</time>
      </trkpt>
      <trkpt lat="43.8148" lon="5.46865">
        <ele>1100.9</ele>
        <time>2022-08-24T07:39:09Z</time>
      </trkpt>
      <trkpt lat="43.81475" lon="5.46859">
        <ele>1101.9</ele>
        <time>2022-08-24T07:39:12Z</time>
      </trkpt>
      <trkpt lat="43.81471" lon="5.46854">
        <ele>1102.6</ele>
        <time>2022-08-24T07:39:14Z</time>
      </trkpt>
      <trkpt lat="43.81467" lon="5.4685">
        <ele>1102.8</ele>
        <time>2022-08-24T07:39:16Z</time>
      </trkpt>
      <trkpt lat="43.81463" lon="5.46845">
        <ele>1103.2</ele>
        <time>2022-08-24T07:39:18Z</time>
      </trkpt>
      <trkpt lat="43.81459" lon="5.46839">
        <ele>1104</ele>
        <time>2022-08-24T07:39:20Z</time>
      </trkpt>
      <trkpt lat="43.81457" lon="5.46832">
        <ele>1105</ele>
        <time>2022-08-24T07:39:22Z</time>
      </trkpt>
      <trkpt lat="43.81455" lon="5.46826">
        <ele>1105.8</ele>
        <time>2022-08-24T07:39:24Z</time>
      </trkpt>
      <trkpt lat="43.81452" lon="5.4682">
        <ele>1106.1</ele>
        <time>2022-08-24T07:39:26Z</time>
      </trkpt>
      <trkpt lat="43.8145" lon="5.46815">
        <ele>1106.6</ele>
        <time>2022-08-24T07:39:28Z</time>
      </trkpt>
      <trkpt lat="43.81448" lon="5.46808">
        <ele>1107.3</ele>
        <time>2022-08-24T07:39:30Z</time>
      </trkpt>
      <trkpt lat="43.81444" lon="5.46802">
        <ele>1107.3</ele>
        <time>2022-08-24T07:39:32Z</time>
      </trkpt>
      <trkpt lat="43.81442" lon="5.46796">
        <ele>1106.9</ele>
        <time>2022-08-24T07:39:34Z</time>
      </trkpt>
      <trkpt lat="43.8144" lon="5.4679">
        <ele>1106.9</ele>
        <time>2022-08-24T07:39:36Z</time>
      </trkpt>
      <trkpt lat="43.8144" lon="5.46783">
        <ele>1107.7</ele>
        <time>2022-08-24T07:39:38Z</time>
      </trkpt>
      <trkpt lat="43.8144" lon="5.46775">
        <ele>1108.3</ele>
        <time>2022-08-24T07:39:40Z</time>
      </trkpt>
      <trkpt lat="43.81441" lon="5.46764">
        <ele>1109</ele>
        <time>2022-08-24T07:39:43Z</time>
      </trkpt>
      <trkpt lat="43.81442" lon="5.46757">
        <ele>1109.9</ele>
        <time>2022-08-24T07:39:45Z</time>
      </trkpt>
      <trkpt lat="43.81444" lon="5.4675">
        <ele>1110.8</ele>
        <time>2022-08-24T07:39:47Z</time>
      </trkpt>
      <trkpt lat="43.81447" lon="5.46743">
        <ele>1111.3</ele>
        <time>2022-08-24T07:39:49Z</time>
      </trkpt>
      <trkpt lat="43.8145" lon="5.46737">
        <ele>1111.7</ele>
        <time>2022-08-24T07:39:51Z</time>
      </trkpt>
      <trkpt lat="43.81454" lon="5.46731">
        <ele>1112.3</ele>
        <time>2022-08-24T07:39:53Z</time>
      </trkpt>
      <trkpt lat="43.81458" lon="5.46725">
        <ele>1112.9</ele>
        <time>2022-08-24T07:39:55Z</time>
      </trkpt>
      <trkpt lat="43.81462" lon="5.46721">
        <ele>1113.6</ele>
        <time>2022-08-24T07:39:57Z</time>
      </trkpt>
      <trkpt lat="43.81466" lon="5.46716">
        <ele>1114.1</ele>
        <time>2022-08-24T07:39:59Z</time>
      </trkpt>
      <trkpt lat="43.8147" lon="5.46712">
        <ele>1114.5</ele>
        <time>2022-08-24T07:40:01Z</time>
      </trkpt>
      <trkpt lat="43.81475" lon="5.4671">
        <ele>1115.1</ele>
        <time>2022-08-24T07:40:03Z</time>
      </trkpt>
      <trkpt lat="43.8148" lon="5.46708">
        <ele>1115.5</ele>
        <time>2022-08-24T07:40:05Z</time>
      </trkpt>
      <trkpt lat="43.81485" lon="5.46706">
        <ele>1116</ele>
        <time>2022-08-24T07:40:07Z</time>
      </trkpt>
      <trkpt lat="43.8149" lon="5.46703">
        <ele>1116.5</ele>
        <time>2022-08-24T07:40:09Z</time>
      </trkpt>
      <trkpt lat="43.81496" lon="5.46701">
        <ele>1117.2</ele>
        <time>2022-08-24T07:40:11Z</time>
      </trkpt>
      <trkpt lat="43.81501" lon="5.46698">
        <ele>1117.6</ele>
        <time>2022-08-24T07:40:13Z</time>
      </trkpt>
      <trkpt lat="43.81507" lon="5.46697">
        <ele>1118.1</ele>
        <time>2022-08-24T07:40:15Z</time>
      </trkpt>
      <trkpt lat="43.81512" lon="5.46697">
        <ele>1118.6</ele>
        <time>2022-08-24T07:40:17Z</time>
      </trkpt>
      <trkpt lat="43.81518" lon="5.46696">
        <ele>1119.1</ele>
        <time>2022-08-24T07:40:19Z</time>
      </trkpt>
      <trkpt lat="43.81524" lon="5.46696">
        <ele>1119.7</ele>
        <time>2022-08-24T07:40:21Z</time>
      </trkpt>
      <trkpt lat="43.8153" lon="5.46696">
        <ele>1120.3</ele>
        <time>2022-08-24T07:40:23Z</time>
      </trkpt>
      <trkpt lat="43.81535" lon="5.46696">
        <ele>1120.5</ele>
        <time>2022-08-24T07:40:25Z</time>
      </trkpt>
      <trkpt lat="43.8154" lon="5.46697">
        <ele>1120.7</ele>
        <time>2022-08-24T07:40:27Z</time>
      </trkpt>
      <trkpt lat="43.81546" lon="5.46697">
        <ele>1121</ele>
        <time>2022-08-24T07:40:29Z</time>
      </trkpt>
      <trkpt lat="43.81551" lon="5.46699">
        <ele>1121.3</ele>
        <time>2022-08-24T07:40:31Z</time>
      </trkpt>
      <trkpt lat="43.81556" lon="5.46701">
        <ele>1121.6</ele>
        <time>2022-08-24T07:40:33Z</time>
      </trkpt>
      <trkpt lat="43.81561" lon="5.46769">
        <ele>1120.6</ele>
        <time>2022-08-24T07:40:53Z</time>
      </trkpt>
      <trkpt lat="43.81546" lon="5.4677">
        <ele>1121.6</ele>
        <time>2022-08-24T07:40:57Z</time>
      </trkpt>
      <trkpt lat="43.8154" lon="5.46768">
        <ele>1122.1</ele>
        <time>2022-08-24T07:40:59Z</time>
      </trkpt>
      <trkpt lat="43.81533" lon="5.46768">
        <ele>1122.5</ele>
        <time>2022-08-24T07:41:01Z</time>
      </trkpt>
      <trkpt lat="43.81528" lon="5.46767">
        <ele>1122.8</ele>
        <time>2022-08-24T07:41:03Z</time>
      </trkpt>
      <trkpt lat="43.81523" lon="5.46765">
        <ele>1122.7</ele>
        <time>2022-08-24T07:41:05Z</time>
      </trkpt>
      <trkpt lat="43.81518" lon="5.46764">
        <ele>1122.5</ele>
        <time>2022-08-24T07:41:08Z</time>
      </trkpt>
      <trkpt lat="43.81519" lon="5.46768">
        <ele>1122.3</ele>
        <time>2022-08-24T07:45:03Z</time>
      </trkpt>
      <trkpt lat="43.81523" lon="5.46773">
        <ele>1122.1</ele>
        <time>2022-08-24T07:45:06Z</time>
      </trkpt>
      <trkpt lat="43.81527" lon="5.46778">
        <ele>1121.9</ele>
        <time>2022-08-24T07:45:08Z</time>
      </trkpt>
      <trkpt lat="43.81532" lon="5.46784">
        <ele>1120.6</ele>
        <time>2022-08-24T07:45:10Z</time>
      </trkpt>
      <trkpt lat="43.81537" lon="5.46791">
        <ele>1119</ele>
        <time>2022-08-24T07:45:12Z</time>
      </trkpt>
      <trkpt lat="43.8154" lon="5.46797">
        <ele>1117.8</ele>
        <time>2022-08-24T07:45:14Z</time>
      </trkpt>
      <trkpt lat="43.81539" lon="5.46805">
        <ele>1116.3</ele>
        <time>2022-08-24T07:45:17Z</time>
      </trkpt>
      <trkpt lat="43.81538" lon="5.46812">
        <ele>1114.9</ele>
        <time>2022-08-24T07:45:19Z</time>
      </trkpt>
      <trkpt lat="43.8154" lon="5.4682">
        <ele>1113.1</ele>
        <time>2022-08-24T07:45:21Z</time>
      </trkpt>
      <trkpt lat="43.81539" lon="5.46827">
        <ele>1111.6</ele>
        <time>2022-08-24T07:45:22Z</time>
      </trkpt>
      <trkpt lat="43.81538" lon="5.46834">
        <ele>1110.2</ele>
        <time>2022-08-24T07:45:23Z</time>
      </trkpt>
      <trkpt lat="43.81538" lon="5.46843">
        <ele>1108.4</ele>
        <time>2022-08-24T07:45:24Z</time>
      </trkpt>
      <trkpt lat="43.81538" lon="5.46854">
        <ele>1106.2</ele>
        <time>2022-08-24T07:45:25Z</time>
      </trkpt>
      <trkpt lat="43.81538" lon="5.46867">
        <ele>1103.6</ele>
        <time>2022-08-24T07:45:26Z</time>
      </trkpt>
      <trkpt lat="43.81537" lon="5.4688">
        <ele>1100.8</ele>
        <time>2022-08-24T07:45:27Z</time>
      </trkpt>
      <trkpt lat="43.81535" lon="5.46893">
        <ele>1098.4</ele>
        <time>2022-08-24T07:45:28Z</time>
      </trkpt>
      <trkpt lat="43.81532" lon="5.46902">
        <ele>1097</ele>
        <time>2022-08-24T07:45:29Z</time>
      </trkpt>
      <trkpt lat="43.81529" lon="5.46912">
        <ele>1095.7</ele>
        <time>2022-08-24T07:45:30Z</time>
      </trkpt>
      <trkpt lat="43.81527" lon="5.46919">
        <ele>1094.6</ele>
        <time>2022-08-24T07:45:31Z</time>
      </trkpt>
      <trkpt lat="43.81525" lon="5.46926">
        <ele>1093.7</ele>
        <time>2022-08-24T07:45:32Z</time>
      </trkpt>
      <trkpt lat="43.81527" lon="5.46932">
        <ele>1093.3</ele>
        <time>2022-08-24T07:45:33Z</time>
      </trkpt>
      <trkpt lat="43.81533" lon="5.4694">
        <ele>1092.2</ele>
        <time>2022-08-24T07:45:35Z</time>
      </trkpt>
      <trkpt lat="43.81535" lon="5.46948">
        <ele>1091.8</ele>
        <time>2022-08-24T07:45:36Z</time>
      </trkpt>
      <trkpt lat="43.81537" lon="5.46955">
        <ele>1091.9</ele>
        <time>2022-08-24T07:45:37Z</time>
      </trkpt>
      <trkpt lat="43.81538" lon="5.46963">
        <ele>1092.1</ele>
        <time>2022-08-24T07:45:38Z</time>
      </trkpt>
      <trkpt lat="43.8154" lon="5.46972">
        <ele>1092.4</ele>
        <time>2022-08-24T07:45:40Z</time>
      </trkpt>
      <trkpt lat="43.81541" lon="5.46979">
        <ele>1093.4</ele>
        <time>2022-08-24T07:45:43Z</time>
      </trkpt>
      <trkpt lat="43.81543" lon="5.46987">
        <ele>1094.4</ele>
        <time>2022-08-24T07:45:46Z</time>
      </trkpt>
      <trkpt lat="43.81545" lon="5.46994">
        <ele>1095.5</ele>
        <time>2022-08-24T07:45:49Z</time>
      </trkpt>
      <trkpt lat="43.81546" lon="5.47002">
        <ele>1096.4</ele>
        <time>2022-08-24T07:45:52Z</time>
      </trkpt>
      <trkpt lat="43.81546" lon="5.47009">
        <ele>1097</ele>
        <time>2022-08-24T07:45:55Z</time>
      </trkpt>
      <trkpt lat="43.81546" lon="5.47017">
        <ele>1097.5</ele>
        <time>2022-08-24T07:45:58Z</time>
      </trkpt>
      <trkpt lat="43.81545" lon="5.47024">
        <ele>1098</ele>
        <time>2022-08-24T07:46:01Z</time>
      </trkpt>
      <trkpt lat="43.81544" lon="5.47032">
        <ele>1098</ele>
        <time>2022-08-24T07:46:04Z</time>
      </trkpt>
      <trkpt lat="43.81543" lon="5.4704">
        <ele>1097.7</ele>
        <time>2022-08-24T07:46:07Z</time>
      </trkpt>
      <trkpt lat="43.81544" lon="5.47046">
        <ele>1097.5</ele>
        <time>2022-08-24T07:46:09Z</time>
      </trkpt>
      <trkpt lat="43.81545" lon="5.47063">
        <ele>1096.3</ele>
        <time>2022-08-24T07:46:13Z</time>
      </trkpt>
      <trkpt lat="43.81545" lon="5.47076">
        <ele>1094.7</ele>
        <time>2022-08-24T07:46:15Z</time>
      </trkpt>
      <trkpt lat="43.81543" lon="5.47093">
        <ele>1092.6</ele>
        <time>2022-08-24T07:46:17Z</time>
      </trkpt>
      <trkpt lat="43.8154" lon="5.47111">
        <ele>1090.3</ele>
        <time>2022-08-24T07:46:19Z</time>
      </trkpt>
      <trkpt lat="43.81539" lon="5.47123">
        <ele>1089</ele>
        <time>2022-08-24T07:46:20Z</time>
      </trkpt>
      <trkpt lat="43.81538" lon="5.47135">
        <ele>1087.6</ele>
        <time>2022-08-24T07:46:21Z</time>
      </trkpt>
      <trkpt lat="43.81537" lon="5.47149">
        <ele>1086.3</ele>
        <time>2022-08-24T07:46:22Z</time>
      </trkpt>
      <trkpt lat="43.81535" lon="5.47162">
        <ele>1085.1</ele>
        <time>2022-08-24T07:46:23Z</time>
      </trkpt>
      <trkpt lat="43.81534" lon="5.47175">
        <ele>1084.3</ele>
        <time>2022-08-24T07:46:24Z</time>
      </trkpt>
      <trkpt lat="43.81533" lon="5.47188">
        <ele>1083.7</ele>
        <time>2022-08-24T07:46:25Z</time>
      </trkpt>
      <trkpt lat="43.81532" lon="5.47201">
        <ele>1083.1</ele>
        <time>2022-08-24T07:46:26Z</time>
      </trkpt>
      <trkpt lat="43.81532" lon="5.47215">
        <ele>1082.5</ele>
        <time>2022-08-24T07:46:27Z</time>
      </trkpt>
      <trkpt lat="43.81532" lon="5.47226">
        <ele>1082</ele>
        <time>2022-08-24T07:46:28Z</time>
      </trkpt>
      <trkpt lat="43.81532" lon="5.4724">
        <ele>1081.4</ele>
        <time>2022-08-24T07:46:29Z</time>
      </trkpt>
      <trkpt lat="43.81532" lon="5.47252">
        <ele>1081</ele>
        <time>2022-08-24T07:46:30Z</time>
      </trkpt>
      <trkpt lat="43.81532" lon="5.47265">
        <ele>1080.9</ele>
        <time>2022-08-24T07:46:31Z</time>
      </trkpt>
      <trkpt lat="43.81533" lon="5.47287">
        <ele>1080.8</ele>
        <time>2022-08-24T07:46:33Z</time>
      </trkpt>
      <trkpt lat="43.81537" lon="5.47307">
        <ele>1080.3</ele>
        <time>2022-08-24T07:46:35Z</time>
      </trkpt>
      <trkpt lat="43.8154" lon="5.47325">
        <ele>1080.7</ele>
        <time>2022-08-24T07:46:37Z</time>
      </trkpt>
      <trkpt lat="43.81543" lon="5.47342">
        <ele>1081.3</ele>
        <time>2022-08-24T07:46:39Z</time>
      </trkpt>
      <trkpt lat="43.81544" lon="5.47358">
        <ele>1082</ele>
        <time>2022-08-24T07:46:42Z</time>
      </trkpt>
      <trkpt lat="43.81545" lon="5.47365">
        <ele>1082.5</ele>
        <time>2022-08-24T07:46:44Z</time>
      </trkpt>
      <trkpt lat="43.81547" lon="5.47372">
        <ele>1083.2</ele>
        <time>2022-08-24T07:46:46Z</time>
      </trkpt>
      <trkpt lat="43.81554" lon="5.47387">
        <ele>1085.5</ele>
        <time>2022-08-24T07:46:51Z</time>
      </trkpt>
      <trkpt lat="43.81554" lon="5.47401">
        <ele>1086.2</ele>
        <time>2022-08-24T07:46:57Z</time>
      </trkpt>
      <trkpt lat="43.81556" lon="5.47415">
        <ele>1087</ele>
        <time>2022-08-24T07:47:03Z</time>
      </trkpt>
      <trkpt lat="43.81564" lon="5.47424">
        <ele>1087.9</ele>
        <time>2022-08-24T07:47:09Z</time>
      </trkpt>
      <trkpt lat="43.81574" lon="5.4743">
        <ele>1089.2</ele>
        <time>2022-08-24T07:47:15Z</time>
      </trkpt>
      <trkpt lat="43.81577" lon="5.47436">
        <ele>1089.9</ele>
        <time>2022-08-24T07:47:18Z</time>
      </trkpt>
      <trkpt lat="43.81581" lon="5.47442">
        <ele>1090.5</ele>
        <time>2022-08-24T07:47:21Z</time>
      </trkpt>
      <trkpt lat="43.81587" lon="5.47446">
        <ele>1091.3</ele>
        <time>2022-08-24T07:47:24Z</time>
      </trkpt>
      <trkpt lat="43.81591" lon="5.47448">
        <ele>1091.8</ele>
        <time>2022-08-24T07:47:27Z</time>
      </trkpt>
      <trkpt lat="43.81596" lon="5.47452">
        <ele>1092.3</ele>
        <time>2022-08-24T07:47:30Z</time>
      </trkpt>
      <trkpt lat="43.816" lon="5.47456">
        <ele>1092.6</ele>
        <time>2022-08-24T07:47:33Z</time>
      </trkpt>
      <trkpt lat="43.81605" lon="5.4746">
        <ele>1093.2</ele>
        <time>2022-08-24T07:47:36Z</time>
      </trkpt>
      <trkpt lat="43.8161" lon="5.47465">
        <ele>1093.9</ele>
        <time>2022-08-24T07:47:39Z</time>
      </trkpt>
      <trkpt lat="43.81615" lon="5.47471">
        <ele>1094.1</ele>
        <time>2022-08-24T07:47:42Z</time>
      </trkpt>
      <trkpt lat="43.81619" lon="5.47478">
        <ele>1094</ele>
        <time>2022-08-24T07:47:45Z</time>
      </trkpt>
      <trkpt lat="43.81624" lon="5.47484">
        <ele>1094</ele>
        <time>2022-08-24T07:47:48Z</time>
      </trkpt>
      <trkpt lat="43.81627" lon="5.47488">
        <ele>1094.1</ele>
        <time>2022-08-24T07:47:50Z</time>
      </trkpt>
      <trkpt lat="43.81633" lon="5.47494">
        <ele>1094.4</ele>
        <time>2022-08-24T07:47:53Z</time>
      </trkpt>
      <trkpt lat="43.81637" lon="5.47499">
        <ele>1094.8</ele>
        <time>2022-08-24T07:47:55Z</time>
      </trkpt>
      <trkpt lat="43.81641" lon="5.47504">
        <ele>1094.6</ele>
        <time>2022-08-24T07:47:57Z</time>
      </trkpt>
      <trkpt lat="43.81646" lon="5.47509">
        <ele>1094.1</ele>
        <time>2022-08-24T07:47:59Z</time>
      </trkpt>
      <trkpt lat="43.8165" lon="5.47512">
        <ele>1093.7</ele>
        <time>2022-08-24T07:48:01Z</time>
      </trkpt>
      <trkpt lat="43.81655" lon="5.47517">
        <ele>1093.2</ele>
        <time>2022-08-24T07:48:03Z</time>
      </trkpt>
      <trkpt lat="43.81661" lon="5.47524">
        <ele>1092.4</ele>
        <time>2022-08-24T07:48:05Z</time>
      </trkpt>
      <trkpt lat="43.81663" lon="5.4753">
        <ele>1091.7</ele>
        <time>2022-08-24T07:48:06Z</time>
      </trkpt>
      <trkpt lat="43.81664" lon="5.47537">
        <ele>1090.6</ele>
        <time>2022-08-24T07:48:07Z</time>
      </trkpt>
      <trkpt lat="43.81667" lon="5.47545">
        <ele>1089.5</ele>
        <time>2022-08-24T07:48:08Z</time>
      </trkpt>
      <trkpt lat="43.81667" lon="5.47553">
        <ele>1088.4</ele>
        <time>2022-08-24T07:48:09Z</time>
      </trkpt>
      <trkpt lat="43.81666" lon="5.47561">
        <ele>1087.1</ele>
        <time>2022-08-24T07:48:10Z</time>
      </trkpt>
      <trkpt lat="43.81665" lon="5.47569">
        <ele>1085.5</ele>
        <time>2022-08-24T07:48:11Z</time>
      </trkpt>
      <trkpt lat="43.81661" lon="5.4758">
        <ele>1083.6</ele>
        <time>2022-08-24T07:48:12Z</time>
      </trkpt>
      <trkpt lat="43.81657" lon="5.4759">
        <ele>1082</ele>
        <time>2022-08-24T07:48:13Z</time>
      </trkpt>
      <trkpt lat="43.81653" lon="5.47598">
        <ele>1080.6</ele>
        <time>2022-08-24T07:48:14Z</time>
      </trkpt>
      <trkpt lat="43.81647" lon="5.47609">
        <ele>1078.6</ele>
        <time>2022-08-24T07:48:15Z</time>
      </trkpt>
      <trkpt lat="43.81642" lon="5.4762">
        <ele>1076.5</ele>
        <time>2022-08-24T07:48:16Z</time>
      </trkpt>
      <trkpt lat="43.8164" lon="5.47631">
        <ele>1074.5</ele>
        <time>2022-08-24T07:48:17Z</time>
      </trkpt>
      <trkpt lat="43.81636" lon="5.47642">
        <ele>1072.2</ele>
        <time>2022-08-24T07:48:18Z</time>
      </trkpt>
      <trkpt lat="43.81634" lon="5.47653">
        <ele>1069.7</ele>
        <time>2022-08-24T07:48:19Z</time>
      </trkpt>
      <trkpt lat="43.8163" lon="5.47665">
        <ele>1067.1</ele>
        <time>2022-08-24T07:48:20Z</time>
      </trkpt>
      <trkpt lat="43.81628" lon="5.47675">
        <ele>1065.4</ele>
        <time>2022-08-24T07:48:21Z</time>
      </trkpt>
      <trkpt lat="43.81629" lon="5.47687">
        <ele>1063.5</ele>
        <time>2022-08-24T07:48:22Z</time>
      </trkpt>
      <trkpt lat="43.8163" lon="5.47699">
        <ele>1061.7</ele>
        <time>2022-08-24T07:48:23Z</time>
      </trkpt>
      <trkpt lat="43.81632" lon="5.47712">
        <ele>1059.7</ele>
        <time>2022-08-24T07:48:24Z</time>
      </trkpt>
      <trkpt lat="43.81636" lon="5.47728">
        <ele>1057.5</ele>
        <time>2022-08-24T07:48:25Z</time>
      </trkpt>
      <trkpt lat="43.81639" lon="5.47743">
        <ele>1055.7</ele>
        <time>2022-08-24T07:48:26Z</time>
      </trkpt>
      <trkpt lat="43.81643" lon="5.47757">
        <ele>1054</ele>
        <time>2022-08-24T07:48:27Z</time>
      </trkpt>
      <trkpt lat="43.81646" lon="5.47772">
        <ele>1052.1</ele>
        <time>2022-08-24T07:48:28Z</time>
      </trkpt>
      <trkpt lat="43.81651" lon="5.47782">
        <ele>1050.5</ele>
        <time>2022-08-24T07:48:29Z</time>
      </trkpt>
      <trkpt lat="43.81657" lon="5.47795">
        <ele>1048.4</ele>
        <time>2022-08-24T07:48:30Z</time>
      </trkpt>
      <trkpt lat="43.81663" lon="5.47809">
        <ele>1046.6</ele>
        <time>2022-08-24T07:48:31Z</time>
      </trkpt>
      <trkpt lat="43.81669" lon="5.47823">
        <ele>1044.9</ele>
        <time>2022-08-24T07:48:32Z</time>
      </trkpt>
      <trkpt lat="43.81674" lon="5.47838">
        <ele>1042.8</ele>
        <time>2022-08-24T07:48:33Z</time>
      </trkpt>
      <trkpt lat="43.81679" lon="5.47852">
        <ele>1041.2</ele>
        <time>2022-08-24T07:48:34Z</time>
      </trkpt>
      <trkpt lat="43.81683" lon="5.47868">
        <ele>1040</ele>
        <time>2022-08-24T07:48:35Z</time>
      </trkpt>
      <trkpt lat="43.81688" lon="5.47884">
        <ele>1039.2</ele>
        <time>2022-08-24T07:48:36Z</time>
      </trkpt>
      <trkpt lat="43.81693" lon="5.47899">
        <ele>1038.9</ele>
        <time>2022-08-24T07:48:37Z</time>
      </trkpt>
      <trkpt lat="43.81698" lon="5.47915">
        <ele>1038.6</ele>
        <time>2022-08-24T07:48:38Z</time>
      </trkpt>
      <trkpt lat="43.81702" lon="5.47929">
        <ele>1038.1</ele>
        <time>2022-08-24T07:48:39Z</time>
      </trkpt>
      <trkpt lat="43.81707" lon="5.47942">
        <ele>1037.6</ele>
        <time>2022-08-24T07:48:40Z</time>
      </trkpt>
      <trkpt lat="43.81713" lon="5.47953">
        <ele>1036.8</ele>
        <time>2022-08-24T07:48:41Z</time>
      </trkpt>
      <trkpt lat="43.81718" lon="5.47964">
        <ele>1036.3</ele>
        <time>2022-08-24T07:48:42Z</time>
      </trkpt>
      <trkpt lat="43.81723" lon="5.47975">
        <ele>1035.6</ele>
        <time>2022-08-24T07:48:43Z</time>
      </trkpt>
      <trkpt lat="43.81728" lon="5.47986">
        <ele>1034</ele>
        <time>2022-08-24T07:48:44Z</time>
      </trkpt>
      <trkpt lat="43.81734" lon="5.47998">
        <ele>1032.5</ele>
        <time>2022-08-24T07:48:45Z</time>
      </trkpt>
      <trkpt lat="43.81738" lon="5.4801">
        <ele>1030.6</ele>
        <time>2022-08-24T07:48:46Z</time>
      </trkpt>
      <trkpt lat="43.81741" lon="5.48024">
        <ele>1029</ele>
        <time>2022-08-24T07:48:47Z</time>
      </trkpt>
      <trkpt lat="43.81744" lon="5.48038">
        <ele>1027.8</ele>
        <time>2022-08-24T07:48:48Z</time>
      </trkpt>
      <trkpt lat="43.81746" lon="5.48054">
        <ele>1026.8</ele>
        <time>2022-08-24T07:48:49Z</time>
      </trkpt>
      <trkpt lat="43.81748" lon="5.48069">
        <ele>1026.9</ele>
        <time>2022-08-24T07:48:50Z</time>
      </trkpt>
      <trkpt lat="43.81748" lon="5.48084">
        <ele>1026.9</ele>
        <time>2022-08-24T07:48:51Z</time>
      </trkpt>
      <trkpt lat="43.8175" lon="5.48094">
        <ele>1027.8</ele>
        <time>2022-08-24T07:48:52Z</time>
      </trkpt>
      <trkpt lat="43.81752" lon="5.48104">
        <ele>1028.3</ele>
        <time>2022-08-24T07:48:53Z</time>
      </trkpt>
      <trkpt lat="43.81754" lon="5.48113">
        <ele>1029</ele>
        <time>2022-08-24T07:48:54Z</time>
      </trkpt>
      <trkpt lat="43.81755" lon="5.48119">
        <ele>1029.8</ele>
        <time>2022-08-24T07:48:55Z</time>
      </trkpt>
      <trkpt lat="43.81756" lon="5.48128">
        <ele>1030.9</ele>
        <time>2022-08-24T07:48:57Z</time>
      </trkpt>
      <trkpt lat="43.81757" lon="5.48135">
        <ele>1031.9</ele>
        <time>2022-08-24T07:48:59Z</time>
      </trkpt>
      <trkpt lat="43.81758" lon="5.48142">
        <ele>1032.9</ele>
        <time>2022-08-24T07:49:01Z</time>
      </trkpt>
      <trkpt lat="43.81758" lon="5.48151">
        <ele>1034.2</ele>
        <time>2022-08-24T07:49:04Z</time>
      </trkpt>
      <trkpt lat="43.81757" lon="5.48158">
        <ele>1035.1</ele>
        <time>2022-08-24T07:49:06Z</time>
      </trkpt>
      <trkpt lat="43.81759" lon="5.48166">
        <ele>1036.2</ele>
        <time>2022-08-24T07:49:08Z</time>
      </trkpt>
      <trkpt lat="43.81759" lon="5.48173">
        <ele>1037.3</ele>
        <time>2022-08-24T07:49:10Z</time>
      </trkpt>
      <trkpt lat="43.8176" lon="5.48179">
        <ele>1038.4</ele>
        <time>2022-08-24T07:49:12Z</time>
      </trkpt>
      <trkpt lat="43.8176" lon="5.48192">
        <ele>1040.7</ele>
        <time>2022-08-24T07:49:16Z</time>
      </trkpt>
      <trkpt lat="43.81762" lon="5.48198">
        <ele>1041.8</ele>
        <time>2022-08-24T07:49:18Z</time>
      </trkpt>
      <trkpt lat="43.81765" lon="5.48204">
        <ele>1043</ele>
        <time>2022-08-24T07:49:21Z</time>
      </trkpt>
      <trkpt lat="43.81766" lon="5.4821">
        <ele>1044</ele>
        <time>2022-08-24T07:49:23Z</time>
      </trkpt>
      <trkpt lat="43.81768" lon="5.48216">
        <ele>1045.1</ele>
        <time>2022-08-24T07:49:25Z</time>
      </trkpt>
      <trkpt lat="43.81769" lon="5.48225">
        <ele>1046.5</ele>
        <time>2022-08-24T07:49:28Z</time>
      </trkpt>
      <trkpt lat="43.81771" lon="5.48235">
        <ele>1048.1</ele>
        <time>2022-08-24T07:49:31Z</time>
      </trkpt>
      <trkpt lat="43.81773" lon="5.48242">
        <ele>1049.2</ele>
        <time>2022-08-24T07:49:33Z</time>
      </trkpt>
      <trkpt lat="43.81774" lon="5.4825">
        <ele>1050.6</ele>
        <time>2022-08-24T07:49:36Z</time>
      </trkpt>
      <trkpt lat="43.81773" lon="5.48257">
        <ele>1051.1</ele>
        <time>2022-08-24T07:49:38Z</time>
      </trkpt>
      <trkpt lat="43.81771" lon="5.48263">
        <ele>1051.5</ele>
        <time>2022-08-24T07:49:40Z</time>
      </trkpt>
      <trkpt lat="43.81768" lon="5.48272">
        <ele>1052.3</ele>
        <time>2022-08-24T07:49:43Z</time>
      </trkpt>
      <trkpt lat="43.81769" lon="5.48281">
        <ele>1052.9</ele>
        <time>2022-08-24T07:49:46Z</time>
      </trkpt>
      <trkpt lat="43.8177" lon="5.4829">
        <ele>1052.6</ele>
        <time>2022-08-24T07:49:49Z</time>
      </trkpt>
      <trkpt lat="43.81772" lon="5.48298">
        <ele>1052.3</ele>
        <time>2022-08-24T07:49:51Z</time>
      </trkpt>
      <trkpt lat="43.81773" lon="5.48306">
        <ele>1052</ele>
        <time>2022-08-24T07:49:53Z</time>
      </trkpt>
      <trkpt lat="43.81776" lon="5.48316">
        <ele>1051</ele>
        <time>2022-08-24T07:49:55Z</time>
      </trkpt>
      <trkpt lat="43.81777" lon="5.48323">
        <ele>1050.1</ele>
        <time>2022-08-24T07:49:56Z</time>
      </trkpt>
      <trkpt lat="43.81778" lon="5.48332">
        <ele>1049</ele>
        <time>2022-08-24T07:49:57Z</time>
      </trkpt>
      <trkpt lat="43.8178" lon="5.4834">
        <ele>1048.1</ele>
        <time>2022-08-24T07:49:58Z</time>
      </trkpt>
      <trkpt lat="43.81781" lon="5.4835">
        <ele>1047.1</ele>
        <time>2022-08-24T07:49:59Z</time>
      </trkpt>
      <trkpt lat="43.81783" lon="5.4836">
        <ele>1046.1</ele>
        <time>2022-08-24T07:50:00Z</time>
      </trkpt>
      <trkpt lat="43.81785" lon="5.4837">
        <ele>1045.5</ele>
        <time>2022-08-24T07:50:01Z</time>
      </trkpt>
      <trkpt lat="43.81787" lon="5.48379">
        <ele>1045.1</ele>
        <time>2022-08-24T07:50:02Z</time>
      </trkpt>
      <trkpt lat="43.8179" lon="5.4839">
        <ele>1044.7</ele>
        <time>2022-08-24T07:50:03Z</time>
      </trkpt>
      <trkpt lat="43.81792" lon="5.484">
        <ele>1044.9</ele>
        <time>2022-08-24T07:50:04Z</time>
      </trkpt>
      <trkpt lat="43.81794" lon="5.4841">
        <ele>1045.2</ele>
        <time>2022-08-24T07:50:05Z</time>
      </trkpt>
      <trkpt lat="43.81796" lon="5.48418">
        <ele>1045.5</ele>
        <time>2022-08-24T07:50:06Z</time>
      </trkpt>
      <trkpt lat="43.81798" lon="5.48427">
        <ele>1046.2</ele>
        <time>2022-08-24T07:50:08Z</time>
      </trkpt>
      <trkpt lat="43.81801" lon="5.48433">
        <ele>1047</ele>
        <time>2022-08-24T07:50:10Z</time>
      </trkpt>
      <trkpt lat="43.81802" lon="5.48441">
        <ele>1048.2</ele>
        <time>2022-08-24T07:50:13Z</time>
      </trkpt>
      <trkpt lat="43.81804" lon="5.4845">
        <ele>1049.3</ele>
        <time>2022-08-24T07:50:16Z</time>
      </trkpt>
      <trkpt lat="43.81806" lon="5.48458">
        <ele>1050.4</ele>
        <time>2022-08-24T07:50:19Z</time>
      </trkpt>
      <trkpt lat="43.81809" lon="5.48466">
        <ele>1051.2</ele>
        <time>2022-08-24T07:50:22Z</time>
      </trkpt>
      <trkpt lat="43.81812" lon="5.48474">
        <ele>1052.1</ele>
        <time>2022-08-24T07:50:25Z</time>
      </trkpt>
      <trkpt lat="43.81814" lon="5.48481">
        <ele>1052.5</ele>
        <time>2022-08-24T07:50:28Z</time>
      </trkpt>
      <trkpt lat="43.81817" lon="5.48489">
        <ele>1053.1</ele>
        <time>2022-08-24T07:50:31Z</time>
      </trkpt>
      <trkpt lat="43.81818" lon="5.48498">
        <ele>1053.8</ele>
        <time>2022-08-24T07:50:34Z</time>
      </trkpt>
      <trkpt lat="43.8182" lon="5.48506">
        <ele>1054.5</ele>
        <time>2022-08-24T07:50:37Z</time>
      </trkpt>
      <trkpt lat="43.81821" lon="5.48515">
        <ele>1055.2</ele>
        <time>2022-08-24T07:50:40Z</time>
      </trkpt>
      <trkpt lat="43.81823" lon="5.48523">
        <ele>1055.9</ele>
        <time>2022-08-24T07:50:43Z</time>
      </trkpt>
      <trkpt lat="43.81824" lon="5.48532">
        <ele>1056.4</ele>
        <time>2022-08-24T07:50:46Z</time>
      </trkpt>
      <trkpt lat="43.81825" lon="5.4854">
        <ele>1056.6</ele>
        <time>2022-08-24T07:50:49Z</time>
      </trkpt>
      <trkpt lat="43.81825" lon="5.48547">
        <ele>1056.6</ele>
        <time>2022-08-24T07:50:51Z</time>
      </trkpt>
      <trkpt lat="43.81825" lon="5.48554">
        <ele>1056.7</ele>
        <time>2022-08-24T07:50:53Z</time>
      </trkpt>
      <trkpt lat="43.81824" lon="5.48563">
        <ele>1056.7</ele>
        <time>2022-08-24T07:50:55Z</time>
      </trkpt>
      <trkpt lat="43.81823" lon="5.48575">
        <ele>1056.7</ele>
        <time>2022-08-24T07:50:57Z</time>
      </trkpt>
      <trkpt lat="43.81823" lon="5.48582">
        <ele>1056.8</ele>
        <time>2022-08-24T07:50:58Z</time>
      </trkpt>
      <trkpt lat="43.81821" lon="5.48593">
        <ele>1056.5</ele>
        <time>2022-08-24T07:51:00Z</time>
      </trkpt>
      <trkpt lat="43.81821" lon="5.486">
        <ele>1056.3</ele>
        <time>2022-08-24T07:51:01Z</time>
      </trkpt>
      <trkpt lat="43.8182" lon="5.48612">
        <ele>1055.9</ele>
        <time>2022-08-24T07:51:03Z</time>
      </trkpt>
      <trkpt lat="43.81821" lon="5.48618">
        <ele>1055.4</ele>
        <time>2022-08-24T07:51:04Z</time>
      </trkpt>
      <trkpt lat="43.8182" lon="5.48625">
        <ele>1055.3</ele>
        <time>2022-08-24T07:51:05Z</time>
      </trkpt>
      <trkpt lat="43.81818" lon="5.48635">
        <ele>1055</ele>
        <time>2022-08-24T07:51:07Z</time>
      </trkpt>
      <trkpt lat="43.81817" lon="5.48646">
        <ele>1054.7</ele>
        <time>2022-08-24T07:51:09Z</time>
      </trkpt>
      <trkpt lat="43.81816" lon="5.48652">
        <ele>1054.5</ele>
        <time>2022-08-24T07:51:10Z</time>
      </trkpt>
      <trkpt lat="43.81814" lon="5.48664">
        <ele>1054.3</ele>
        <time>2022-08-24T07:51:12Z</time>
      </trkpt>
      <trkpt lat="43.81813" lon="5.4867">
        <ele>1054.2</ele>
        <time>2022-08-24T07:51:13Z</time>
      </trkpt>
      <trkpt lat="43.81812" lon="5.48677">
        <ele>1054.1</ele>
        <time>2022-08-24T07:51:14Z</time>
      </trkpt>
      <trkpt lat="43.81812" lon="5.48685">
        <ele>1053.7</ele>
        <time>2022-08-24T07:51:15Z</time>
      </trkpt>
      <trkpt lat="43.81811" lon="5.48691">
        <ele>1053.8</ele>
        <time>2022-08-24T07:51:16Z</time>
      </trkpt>
      <trkpt lat="43.81811" lon="5.48698">
        <ele>1053.5</ele>
        <time>2022-08-24T07:51:17Z</time>
      </trkpt>
      <trkpt lat="43.81811" lon="5.48705">
        <ele>1053</ele>
        <time>2022-08-24T07:51:18Z</time>
      </trkpt>
      <trkpt lat="43.8181" lon="5.48713">
        <ele>1052.7</ele>
        <time>2022-08-24T07:51:19Z</time>
      </trkpt>
      <trkpt lat="43.8181" lon="5.4872">
        <ele>1052.4</ele>
        <time>2022-08-24T07:51:20Z</time>
      </trkpt>
      <trkpt lat="43.81809" lon="5.48728">
        <ele>1052.4</ele>
        <time>2022-08-24T07:51:21Z</time>
      </trkpt>
      <trkpt lat="43.8181" lon="5.48736">
        <ele>1052.3</ele>
        <time>2022-08-24T07:51:22Z</time>
      </trkpt>
      <trkpt lat="43.81811" lon="5.48744">
        <ele>1052.3</ele>
        <time>2022-08-24T07:51:23Z</time>
      </trkpt>
      <trkpt lat="43.81811" lon="5.48751">
        <ele>1052.5</ele>
        <time>2022-08-24T07:51:24Z</time>
      </trkpt>
      <trkpt lat="43.81812" lon="5.48758">
        <ele>1053</ele>
        <time>2022-08-24T07:51:25Z</time>
      </trkpt>
      <trkpt lat="43.81812" lon="5.48769">
        <ele>1053.8</ele>
        <time>2022-08-24T07:51:27Z</time>
      </trkpt>
      <trkpt lat="43.81812" lon="5.48779">
        <ele>1054.6</ele>
        <time>2022-08-24T07:51:29Z</time>
      </trkpt>
      <trkpt lat="43.81812" lon="5.48786">
        <ele>1055.8</ele>
        <time>2022-08-24T07:51:31Z</time>
      </trkpt>
      <trkpt lat="43.81813" lon="5.48795">
        <ele>1057.1</ele>
        <time>2022-08-24T07:51:33Z</time>
      </trkpt>
      <trkpt lat="43.81812" lon="5.48802">
        <ele>1058.2</ele>
        <time>2022-08-24T07:51:35Z</time>
      </trkpt>
      <trkpt lat="43.81813" lon="5.48809">
        <ele>1059.3</ele>
        <time>2022-08-24T07:51:37Z</time>
      </trkpt>
      <trkpt lat="43.81814" lon="5.48817">
        <ele>1060.3</ele>
        <time>2022-08-24T07:51:39Z</time>
      </trkpt>
      <trkpt lat="43.81815" lon="5.48824">
        <ele>1061.3</ele>
        <time>2022-08-24T07:51:41Z</time>
      </trkpt>
      <trkpt lat="43.81815" lon="5.48831">
        <ele>1062.3</ele>
        <time>2022-08-24T07:51:43Z</time>
      </trkpt>
      <trkpt lat="43.81815" lon="5.48838">
        <ele>1063.2</ele>
        <time>2022-08-24T07:51:45Z</time>
      </trkpt>
      <trkpt lat="43.81815" lon="5.48846">
        <ele>1064.2</ele>
        <time>2022-08-24T07:51:47Z</time>
      </trkpt>
      <trkpt lat="43.81815" lon="5.48853">
        <ele>1065</ele>
        <time>2022-08-24T07:51:49Z</time>
      </trkpt>
      <trkpt lat="43.81815" lon="5.4886">
        <ele>1065.9</ele>
        <time>2022-08-24T07:51:51Z</time>
      </trkpt>
      <trkpt lat="43.81815" lon="5.48868">
        <ele>1066.9</ele>
        <time>2022-08-24T07:51:53Z</time>
      </trkpt>
      <trkpt lat="43.81815" lon="5.48875">
        <ele>1067.9</ele>
        <time>2022-08-24T07:51:55Z</time>
      </trkpt>
      <trkpt lat="43.81815" lon="5.48883">
        <ele>1068.9</ele>
        <time>2022-08-24T07:51:57Z</time>
      </trkpt>
      <trkpt lat="43.81814" lon="5.48889">
        <ele>1069.7</ele>
        <time>2022-08-24T07:51:59Z</time>
      </trkpt>
      <trkpt lat="43.81813" lon="5.48896">
        <ele>1069.9</ele>
        <time>2022-08-24T07:52:01Z</time>
      </trkpt>
      <trkpt lat="43.81812" lon="5.48902">
        <ele>1070.2</ele>
        <time>2022-08-24T07:52:03Z</time>
      </trkpt>
      <trkpt lat="43.81813" lon="5.48908">
        <ele>1070.2</ele>
        <time>2022-08-24T07:52:22Z</time>
      </trkpt>
      <trkpt lat="43.81813" lon="5.48908">
        <ele>1070.3</ele>
        <time>2022-08-24T07:52:24Z</time>
      </trkpt>
      <trkpt lat="43.81814" lon="5.48909">
        <ele>1070.2</ele>
        <time>2022-08-24T07:56:13Z</time>
      </trkpt>
      <trkpt lat="43.81815" lon="5.4891">
        <ele>1070.2</ele>
        <time>2022-08-24T07:56:37Z</time>
      </trkpt>
      <trkpt lat="43.81815" lon="5.48915">
        <ele>1070.3</ele>
        <time>2022-08-24T07:57:07Z</time>
      </trkpt>
      <trkpt lat="43.81819" lon="5.48921">
        <ele>1069.7</ele>
        <time>2022-08-24T07:57:10Z</time>
      </trkpt>
      <trkpt lat="43.81822" lon="5.48928">
        <ele>1068.8</ele>
        <time>2022-08-24T07:57:11Z</time>
      </trkpt>
      <trkpt lat="43.81824" lon="5.48939">
        <ele>1067.8</ele>
        <time>2022-08-24T07:57:13Z</time>
      </trkpt>
      <trkpt lat="43.81825" lon="5.48947">
        <ele>1067</ele>
        <time>2022-08-24T07:57:14Z</time>
      </trkpt>
      <trkpt lat="43.81826" lon="5.48955">
        <ele>1065.8</ele>
        <time>2022-08-24T07:57:15Z</time>
      </trkpt>
      <trkpt lat="43.81828" lon="5.48964">
        <ele>1064.3</ele>
        <time>2022-08-24T07:57:16Z</time>
      </trkpt>
      <trkpt lat="43.81828" lon="5.48974">
        <ele>1063</ele>
        <time>2022-08-24T07:57:17Z</time>
      </trkpt>
      <trkpt lat="43.8183" lon="5.48984">
        <ele>1061.3</ele>
        <time>2022-08-24T07:57:18Z</time>
      </trkpt>
      <trkpt lat="43.81831" lon="5.48996">
        <ele>1059.6</ele>
        <time>2022-08-24T07:57:19Z</time>
      </trkpt>
      <trkpt lat="43.81831" lon="5.49008">
        <ele>1057.8</ele>
        <time>2022-08-24T07:57:20Z</time>
      </trkpt>
      <trkpt lat="43.81832" lon="5.49021">
        <ele>1056</ele>
        <time>2022-08-24T07:57:21Z</time>
      </trkpt>
      <trkpt lat="43.81833" lon="5.49036">
        <ele>1053.9</ele>
        <time>2022-08-24T07:57:22Z</time>
      </trkpt>
      <trkpt lat="43.81835" lon="5.49051">
        <ele>1051.5</ele>
        <time>2022-08-24T07:57:23Z</time>
      </trkpt>
      <trkpt lat="43.81837" lon="5.49068">
        <ele>1049.4</ele>
        <time>2022-08-24T07:57:24Z</time>
      </trkpt>
      <trkpt lat="43.81838" lon="5.49085">
        <ele>1047.6</ele>
        <time>2022-08-24T07:57:25Z</time>
      </trkpt>
      <trkpt lat="43.81838" lon="5.49102">
        <ele>1046.3</ele>
        <time>2022-08-24T07:57:26Z</time>
      </trkpt>
      <trkpt lat="43.8184" lon="5.49119">
        <ele>1045.6</ele>
        <time>2022-08-24T07:57:27Z</time>
      </trkpt>
      <trkpt lat="43.81841" lon="5.49132">
        <ele>1045.7</ele>
        <time>2022-08-24T07:57:28Z</time>
      </trkpt>
      <trkpt lat="43.81843" lon="5.49148">
        <ele>1045.7</ele>
        <time>2022-08-24T07:57:29Z</time>
      </trkpt>
      <trkpt lat="43.81844" lon="5.49161">
        <ele>1045.6</ele>
        <time>2022-08-24T07:57:30Z</time>
      </trkpt>
      <trkpt lat="43.81844" lon="5.49172">
        <ele>1045.2</ele>
        <time>2022-08-24T07:57:31Z</time>
      </trkpt>
      <trkpt lat="43.81846" lon="5.49184">
        <ele>1044.3</ele>
        <time>2022-08-24T07:57:32Z</time>
      </trkpt>
      <trkpt lat="43.81846" lon="5.49195">
        <ele>1043.5</ele>
        <time>2022-08-24T07:57:33Z</time>
      </trkpt>
      <trkpt lat="43.81849" lon="5.49207">
        <ele>1041.7</ele>
        <time>2022-08-24T07:57:34Z</time>
      </trkpt>
      <trkpt lat="43.8185" lon="5.49217">
        <ele>1040.1</ele>
        <time>2022-08-24T07:57:35Z</time>
      </trkpt>
      <trkpt lat="43.81851" lon="5.49227">
        <ele>1038.6</ele>
        <time>2022-08-24T07:57:36Z</time>
      </trkpt>
      <trkpt lat="43.8185" lon="5.49239">
        <ele>1036.8</ele>
        <time>2022-08-24T07:57:37Z</time>
      </trkpt>
      <trkpt lat="43.81851" lon="5.49251">
        <ele>1034.9</ele>
        <time>2022-08-24T07:57:38Z</time>
      </trkpt>
      <trkpt lat="43.81852" lon="5.49267">
        <ele>1032</ele>
        <time>2022-08-24T07:57:39Z</time>
      </trkpt>
      <trkpt lat="43.81853" lon="5.49282">
        <ele>1029.6</ele>
        <time>2022-08-24T07:57:40Z</time>
      </trkpt>
      <trkpt lat="43.81854" lon="5.49297">
        <ele>1027.9</ele>
        <time>2022-08-24T07:57:41Z</time>
      </trkpt>
      <trkpt lat="43.81854" lon="5.49313">
        <ele>1027</ele>
        <time>2022-08-24T07:57:42Z</time>
      </trkpt>
      <trkpt lat="43.81855" lon="5.49329">
        <ele>1027</ele>
        <time>2022-08-24T07:57:43Z</time>
      </trkpt>
      <trkpt lat="43.81855" lon="5.49344">
        <ele>1029</ele>
        <time>2022-08-24T07:57:44Z</time>
      </trkpt>
      <trkpt lat="43.81855" lon="5.49354">
        <ele>1030.6</ele>
        <time>2022-08-24T07:57:45Z</time>
      </trkpt>
      <trkpt lat="43.81856" lon="5.49362">
        <ele>1032.1</ele>
        <time>2022-08-24T07:57:47Z</time>
      </trkpt>
      <trkpt lat="43.81855" lon="5.49369">
        <ele>1033.2</ele>
        <time>2022-08-24T07:57:49Z</time>
      </trkpt>
      <trkpt lat="43.81854" lon="5.49376">
        <ele>1034.1</ele>
        <time>2022-08-24T07:57:51Z</time>
      </trkpt>
      <trkpt lat="43.81852" lon="5.49383">
        <ele>1035.1</ele>
        <time>2022-08-24T07:57:53Z</time>
      </trkpt>
      <trkpt lat="43.81851" lon="5.49389">
        <ele>1036</ele>
        <time>2022-08-24T07:57:55Z</time>
      </trkpt>
      <trkpt lat="43.8185" lon="5.49396">
        <ele>1036.9</ele>
        <time>2022-08-24T07:57:57Z</time>
      </trkpt>
      <trkpt lat="43.8185" lon="5.49402">
        <ele>1037.7</ele>
        <time>2022-08-24T07:57:59Z</time>
      </trkpt>
      <trkpt lat="43.81848" lon="5.49409">
        <ele>1038.6</ele>
        <time>2022-08-24T07:58:01Z</time>
      </trkpt>
      <trkpt lat="43.81848" lon="5.49416">
        <ele>1039.4</ele>
        <time>2022-08-24T07:58:03Z</time>
      </trkpt>
      <trkpt lat="43.81848" lon="5.49424">
        <ele>1039.9</ele>
        <time>2022-08-24T07:58:05Z</time>
      </trkpt>
      <trkpt lat="43.81849" lon="5.4943">
        <ele>1040.3</ele>
        <time>2022-08-24T07:58:07Z</time>
      </trkpt>
      <trkpt lat="43.81849" lon="5.49437">
        <ele>1040.6</ele>
        <time>2022-08-24T07:58:09Z</time>
      </trkpt>
      <trkpt lat="43.81849" lon="5.49444">
        <ele>1041</ele>
        <time>2022-08-24T07:58:11Z</time>
      </trkpt>
      <trkpt lat="43.81848" lon="5.49451">
        <ele>1040.9</ele>
        <time>2022-08-24T07:58:13Z</time>
      </trkpt>
      <trkpt lat="43.81847" lon="5.49459">
        <ele>1040.7</ele>
        <time>2022-08-24T07:58:15Z</time>
      </trkpt>
      <trkpt lat="43.81848" lon="5.49467">
        <ele>1040.6</ele>
        <time>2022-08-24T07:58:17Z</time>
      </trkpt>
      <trkpt lat="43.81848" lon="5.49477">
        <ele>1040.3</ele>
        <time>2022-08-24T07:58:19Z</time>
      </trkpt>
      <trkpt lat="43.81846" lon="5.4949">
        <ele>1039.5</ele>
        <time>2022-08-24T07:58:21Z</time>
      </trkpt>
      <trkpt lat="43.81844" lon="5.49503">
        <ele>1038.6</ele>
        <time>2022-08-24T07:58:23Z</time>
      </trkpt>
      <trkpt lat="43.81844" lon="5.4951">
        <ele>1038.1</ele>
        <time>2022-08-24T07:58:24Z</time>
      </trkpt>
      <trkpt lat="43.81842" lon="5.49518">
        <ele>1037.3</ele>
        <time>2022-08-24T07:58:25Z</time>
      </trkpt>
      <trkpt lat="43.8184" lon="5.49526">
        <ele>1036.6</ele>
        <time>2022-08-24T07:58:26Z</time>
      </trkpt>
      <trkpt lat="43.81839" lon="5.49534">
        <ele>1035.8</ele>
        <time>2022-08-24T07:58:27Z</time>
      </trkpt>
      <trkpt lat="43.81839" lon="5.49543">
        <ele>1034.8</ele>
        <time>2022-08-24T07:58:28Z</time>
      </trkpt>
      <trkpt lat="43.81837" lon="5.49551">
        <ele>1033.7</ele>
        <time>2022-08-24T07:58:29Z</time>
      </trkpt>
      <trkpt lat="43.81836" lon="5.49561">
        <ele>1032.7</ele>
        <time>2022-08-24T07:58:30Z</time>
      </trkpt>
      <trkpt lat="43.81833" lon="5.49571">
        <ele>1031.8</ele>
        <time>2022-08-24T07:58:31Z</time>
      </trkpt>
      <trkpt lat="43.8183" lon="5.49582">
        <ele>1030.7</ele>
        <time>2022-08-24T07:58:32Z</time>
      </trkpt>
      <trkpt lat="43.81828" lon="5.49593">
        <ele>1030.7</ele>
        <time>2022-08-24T07:58:33Z</time>
      </trkpt>
      <trkpt lat="43.81823" lon="5.49601">
        <ele>1030.8</ele>
        <time>2022-08-24T07:58:34Z</time>
      </trkpt>
      <trkpt lat="43.8182" lon="5.49608">
        <ele>1031.3</ele>
        <time>2022-08-24T07:58:35Z</time>
      </trkpt>
      <trkpt lat="43.81817" lon="5.49614">
        <ele>1031.8</ele>
        <time>2022-08-24T07:58:36Z</time>
      </trkpt>
      <trkpt lat="43.81813" lon="5.49623">
        <ele>1032.7</ele>
        <time>2022-08-24T07:58:38Z</time>
      </trkpt>
      <trkpt lat="43.8181" lon="5.4963">
        <ele>1033.7</ele>
        <time>2022-08-24T07:58:40Z</time>
      </trkpt>
      <trkpt lat="43.81808" lon="5.49639">
        <ele>1034.8</ele>
        <time>2022-08-24T07:58:42Z</time>
      </trkpt>
      <trkpt lat="43.81804" lon="5.49646">
        <ele>1034.8</ele>
        <time>2022-08-24T07:58:44Z</time>
      </trkpt>
      <trkpt lat="43.81801" lon="5.49653">
        <ele>1033.8</ele>
        <time>2022-08-24T07:58:46Z</time>
      </trkpt>
      <trkpt lat="43.81799" lon="5.49661">
        <ele>1033.2</ele>
        <time>2022-08-24T07:58:48Z</time>
      </trkpt>
      <trkpt lat="43.81801" lon="5.49672">
        <ele>1032.8</ele>
        <time>2022-08-24T07:58:50Z</time>
      </trkpt>
      <trkpt lat="43.81804" lon="5.49684">
        <ele>1032.5</ele>
        <time>2022-08-24T07:58:52Z</time>
      </trkpt>
      <trkpt lat="43.81805" lon="5.4969">
        <ele>1032.3</ele>
        <time>2022-08-24T07:58:53Z</time>
      </trkpt>
      <trkpt lat="43.81806" lon="5.49696">
        <ele>1031.8</ele>
        <time>2022-08-24T07:58:54Z</time>
      </trkpt>
      <trkpt lat="43.81807" lon="5.49709">
        <ele>1030.3</ele>
        <time>2022-08-24T07:58:56Z</time>
      </trkpt>
      <trkpt lat="43.81807" lon="5.49716">
        <ele>1029.5</ele>
        <time>2022-08-24T07:58:57Z</time>
      </trkpt>
      <trkpt lat="43.81808" lon="5.49722">
        <ele>1028.7</ele>
        <time>2022-08-24T07:58:58Z</time>
      </trkpt>
      <trkpt lat="43.81807" lon="5.4973">
        <ele>1027.7</ele>
        <time>2022-08-24T07:58:59Z</time>
      </trkpt>
      <trkpt lat="43.81806" lon="5.49738">
        <ele>1026.6</ele>
        <time>2022-08-24T07:59:00Z</time>
      </trkpt>
      <trkpt lat="43.81807" lon="5.49748">
        <ele>1025.1</ele>
        <time>2022-08-24T07:59:01Z</time>
      </trkpt>
      <trkpt lat="43.81807" lon="5.49759">
        <ele>1023.5</ele>
        <time>2022-08-24T07:59:02Z</time>
      </trkpt>
      <trkpt lat="43.81809" lon="5.49771">
        <ele>1021.7</ele>
        <time>2022-08-24T07:59:03Z</time>
      </trkpt>
      <trkpt lat="43.8181" lon="5.49785">
        <ele>1020.2</ele>
        <time>2022-08-24T07:59:04Z</time>
      </trkpt>
      <trkpt lat="43.81811" lon="5.49798">
        <ele>1019.2</ele>
        <time>2022-08-24T07:59:05Z</time>
      </trkpt>
      <trkpt lat="43.81811" lon="5.49811">
        <ele>1018.8</ele>
        <time>2022-08-24T07:59:06Z</time>
      </trkpt>
      <trkpt lat="43.81811" lon="5.49824">
        <ele>1019.3</ele>
        <time>2022-08-24T07:59:07Z</time>
      </trkpt>
      <trkpt lat="43.81811" lon="5.49836">
        <ele>1019.9</ele>
        <time>2022-08-24T07:59:08Z</time>
      </trkpt>
      <trkpt lat="43.8181" lon="5.49845">
        <ele>1020.8</ele>
        <time>2022-08-24T07:59:09Z</time>
      </trkpt>
      <trkpt lat="43.8181" lon="5.49852">
        <ele>1021.5</ele>
        <time>2022-08-24T07:59:10Z</time>
      </trkpt>
      <trkpt lat="43.8181" lon="5.49861">
        <ele>1022.6</ele>
        <time>2022-08-24T07:59:12Z</time>
      </trkpt>
      <trkpt lat="43.8181" lon="5.4987">
        <ele>1023</ele>
        <time>2022-08-24T07:59:14Z</time>
      </trkpt>
      <trkpt lat="43.81811" lon="5.49893">
        <ele>1024.2</ele>
        <time>2022-08-24T07:59:19Z</time>
      </trkpt>
      <trkpt lat="43.81812" lon="5.49902">
        <ele>1024.1</ele>
        <time>2022-08-24T07:59:21Z</time>
      </trkpt>
      <trkpt lat="43.81812" lon="5.49911">
        <ele>1024.1</ele>
        <time>2022-08-24T07:59:23Z</time>
      </trkpt>
      <trkpt lat="43.81812" lon="5.4992">
        <ele>1024.2</ele>
        <time>2022-08-24T07:59:25Z</time>
      </trkpt>
      <trkpt lat="43.81813" lon="5.4993">
        <ele>1024.3</ele>
        <time>2022-08-24T07:59:27Z</time>
      </trkpt>
      <trkpt lat="43.81813" lon="5.4994">
        <ele>1024.5</ele>
        <time>2022-08-24T07:59:29Z</time>
      </trkpt>
      <trkpt lat="43.81814" lon="5.49951">
        <ele>1024.6</ele>
        <time>2022-08-24T07:59:31Z</time>
      </trkpt>
      <trkpt lat="43.81814" lon="5.49962">
        <ele>1024.9</ele>
        <time>2022-08-24T07:59:33Z</time>
      </trkpt>
      <trkpt lat="43.81815" lon="5.49974">
        <ele>1025.1</ele>
        <time>2022-08-24T07:59:35Z</time>
      </trkpt>
      <trkpt lat="43.81815" lon="5.49983">
        <ele>1025.6</ele>
        <time>2022-08-24T07:59:37Z</time>
      </trkpt>
      <trkpt lat="43.81812" lon="5.4999">
        <ele>1026.5</ele>
        <time>2022-08-24T07:59:38Z</time>
      </trkpt>
      <trkpt lat="43.81815" lon="5.5">
        <ele>1026.6</ele>
        <time>2022-08-24T07:59:40Z</time>
      </trkpt>
      <trkpt lat="43.81816" lon="5.5001">
        <ele>1027.4</ele>
        <time>2022-08-24T07:59:42Z</time>
      </trkpt>
      <trkpt lat="43.81819" lon="5.50019">
        <ele>1027.8</ele>
        <time>2022-08-24T07:59:44Z</time>
      </trkpt>
      <trkpt lat="43.81818" lon="5.50028">
        <ele>1028.7</ele>
        <time>2022-08-24T07:59:46Z</time>
      </trkpt>
      <trkpt lat="43.81817" lon="5.50035">
        <ele>1029.7</ele>
        <time>2022-08-24T07:59:48Z</time>
      </trkpt>
      <trkpt lat="43.81817" lon="5.50041">
        <ele>1030.7</ele>
        <time>2022-08-24T07:59:50Z</time>
      </trkpt>
      <trkpt lat="43.81817" lon="5.5005">
        <ele>1031.8</ele>
        <time>2022-08-24T07:59:53Z</time>
      </trkpt>
      <trkpt lat="43.81817" lon="5.50059">
        <ele>1032.8</ele>
        <time>2022-08-24T07:59:56Z</time>
      </trkpt>
      <trkpt lat="43.81819" lon="5.50067">
        <ele>1033.5</ele>
        <time>2022-08-24T07:59:59Z</time>
      </trkpt>
      <trkpt lat="43.81821" lon="5.50075">
        <ele>1034.3</ele>
        <time>2022-08-24T08:00:02Z</time>
      </trkpt>
      <trkpt lat="43.81823" lon="5.50084">
        <ele>1035.2</ele>
        <time>2022-08-24T08:00:05Z</time>
      </trkpt>
      <trkpt lat="43.81823" lon="5.50091">
        <ele>1036.2</ele>
        <time>2022-08-24T08:00:08Z</time>
      </trkpt>
      <trkpt lat="43.81824" lon="5.50099">
        <ele>1037.2</ele>
        <time>2022-08-24T08:00:11Z</time>
      </trkpt>
      <trkpt lat="43.81825" lon="5.50107">
        <ele>1038.3</ele>
        <time>2022-08-24T08:00:14Z</time>
      </trkpt>
      <trkpt lat="43.81826" lon="5.50116">
        <ele>1039.6</ele>
        <time>2022-08-24T08:00:17Z</time>
      </trkpt>
      <trkpt lat="43.81826" lon="5.50124">
        <ele>1040.6</ele>
        <time>2022-08-24T08:00:20Z</time>
      </trkpt>
      <trkpt lat="43.81827" lon="5.50132">
        <ele>1041.9</ele>
        <time>2022-08-24T08:00:23Z</time>
      </trkpt>
      <trkpt lat="43.81828" lon="5.50141">
        <ele>1043.3</ele>
        <time>2022-08-24T08:00:26Z</time>
      </trkpt>
      <trkpt lat="43.81829" lon="5.50149">
        <ele>1044.8</ele>
        <time>2022-08-24T08:00:29Z</time>
      </trkpt>
      <trkpt lat="43.8183" lon="5.50158">
        <ele>1046.2</ele>
        <time>2022-08-24T08:00:32Z</time>
      </trkpt>
      <trkpt lat="43.81831" lon="5.50167">
        <ele>1047.6</ele>
        <time>2022-08-24T08:00:35Z</time>
      </trkpt>
      <trkpt lat="43.81831" lon="5.50175">
        <ele>1048.4</ele>
        <time>2022-08-24T08:00:38Z</time>
      </trkpt>
      <trkpt lat="43.81831" lon="5.50184">
        <ele>1049.4</ele>
        <time>2022-08-24T08:00:41Z</time>
      </trkpt>
      <trkpt lat="43.81832" lon="5.50191">
        <ele>1050.2</ele>
        <time>2022-08-24T08:00:44Z</time>
      </trkpt>
      <trkpt lat="43.81833" lon="5.502">
        <ele>1050.5</ele>
        <time>2022-08-24T08:00:47Z</time>
      </trkpt>
      <trkpt lat="43.81834" lon="5.50208">
        <ele>1050.5</ele>
        <time>2022-08-24T08:00:50Z</time>
      </trkpt>
      <trkpt lat="43.81835" lon="5.50217">
        <ele>1050</ele>
        <time>2022-08-24T08:00:53Z</time>
      </trkpt>
      <trkpt lat="43.81835" lon="5.50224">
        <ele>1049.6</ele>
        <time>2022-08-24T08:00:55Z</time>
      </trkpt>
      <trkpt lat="43.81837" lon="5.50232">
        <ele>1048.2</ele>
        <time>2022-08-24T08:00:57Z</time>
      </trkpt>
      <trkpt lat="43.81842" lon="5.50236">
        <ele>1047.2</ele>
        <time>2022-08-24T08:00:58Z</time>
      </trkpt>
      <trkpt lat="43.81847" lon="5.5024">
        <ele>1046.4</ele>
        <time>2022-08-24T08:00:59Z</time>
      </trkpt>
      <trkpt lat="43.81849" lon="5.50245">
        <ele>1045.4</ele>
        <time>2022-08-24T08:01:00Z</time>
      </trkpt>
      <trkpt lat="43.81852" lon="5.5025">
        <ele>1044.6</ele>
        <time>2022-08-24T08:01:01Z</time>
      </trkpt>
      <trkpt lat="43.8186" lon="5.50257">
        <ele>1042.8</ele>
        <time>2022-08-24T08:01:03Z</time>
      </trkpt>
      <trkpt lat="43.81865" lon="5.50259">
        <ele>1042.1</ele>
        <time>2022-08-24T08:01:04Z</time>
      </trkpt>
      <trkpt lat="43.81868" lon="5.50267">
        <ele>1040.3</ele>
        <time>2022-08-24T08:01:05Z</time>
      </trkpt>
      <trkpt lat="43.8187" lon="5.50273">
        <ele>1038.9</ele>
        <time>2022-08-24T08:01:06Z</time>
      </trkpt>
      <trkpt lat="43.81875" lon="5.50279">
        <ele>1037.3</ele>
        <time>2022-08-24T08:01:08Z</time>
      </trkpt>
      <trkpt lat="43.81878" lon="5.50288">
        <ele>1034.8</ele>
        <time>2022-08-24T08:01:11Z</time>
      </trkpt>
      <trkpt lat="43.81884" lon="5.50294">
        <ele>1032.5</ele>
        <time>2022-08-24T08:01:14Z</time>
      </trkpt>
      <trkpt lat="43.81886" lon="5.50301">
        <ele>1030.7</ele>
        <time>2022-08-24T08:01:15Z</time>
      </trkpt>
      <trkpt lat="43.81887" lon="5.50307">
        <ele>1028.9</ele>
        <time>2022-08-24T08:01:17Z</time>
      </trkpt>
      <trkpt lat="43.81885" lon="5.50316">
        <ele>1027</ele>
        <time>2022-08-24T08:01:18Z</time>
      </trkpt>
      <trkpt lat="43.81884" lon="5.50322">
        <ele>1025.6</ele>
        <time>2022-08-24T08:01:19Z</time>
      </trkpt>
      <trkpt lat="43.81883" lon="5.50329">
        <ele>1024.1</ele>
        <time>2022-08-24T08:01:21Z</time>
      </trkpt>
      <trkpt lat="43.81883" lon="5.50336">
        <ele>1022.3</ele>
        <time>2022-08-24T08:01:24Z</time>
      </trkpt>
      <trkpt lat="43.81886" lon="5.50341">
        <ele>1020.7</ele>
        <time>2022-08-24T08:01:26Z</time>
      </trkpt>
      <trkpt lat="43.81891" lon="5.50346">
        <ele>1019.1</ele>
        <time>2022-08-24T08:01:29Z</time>
      </trkpt>
      <trkpt lat="43.81891" lon="5.50358">
        <ele>1016.4</ele>
        <time>2022-08-24T08:01:32Z</time>
      </trkpt>
      <trkpt lat="43.81891" lon="5.50365">
        <ele>1015.5</ele>
        <time>2022-08-24T08:01:33Z</time>
      </trkpt>
      <trkpt lat="43.81892" lon="5.50375">
        <ele>1014.8</ele>
        <time>2022-08-24T08:01:34Z</time>
      </trkpt>
      <trkpt lat="43.81889" lon="5.50381">
        <ele>1014.6</ele>
        <time>2022-08-24T08:01:35Z</time>
      </trkpt>
      <trkpt lat="43.81886" lon="5.50388">
        <ele>1014</ele>
        <time>2022-08-24T08:01:36Z</time>
      </trkpt>
      <trkpt lat="43.81883" lon="5.50396">
        <ele>1013.4</ele>
        <time>2022-08-24T08:01:37Z</time>
      </trkpt>
      <trkpt lat="43.8188" lon="5.50404">
        <ele>1012.7</ele>
        <time>2022-08-24T08:01:38Z</time>
      </trkpt>
      <trkpt lat="43.81878" lon="5.50412">
        <ele>1012</ele>
        <time>2022-08-24T08:01:39Z</time>
      </trkpt>
      <trkpt lat="43.81878" lon="5.5042">
        <ele>1012</ele>
        <time>2022-08-24T08:01:40Z</time>
      </trkpt>
      <trkpt lat="43.81877" lon="5.50427">
        <ele>1012.7</ele>
        <time>2022-08-24T08:01:41Z</time>
      </trkpt>
      <trkpt lat="43.81873" lon="5.50439">
        <ele>1013.7</ele>
        <time>2022-08-24T08:01:43Z</time>
      </trkpt>
      <trkpt lat="43.8187" lon="5.50446">
        <ele>1014.2</ele>
        <time>2022-08-24T08:01:45Z</time>
      </trkpt>
      <trkpt lat="43.81867" lon="5.50453">
        <ele>1014.9</ele>
        <time>2022-08-24T08:01:47Z</time>
      </trkpt>
      <trkpt lat="43.81864" lon="5.50459">
        <ele>1015.5</ele>
        <time>2022-08-24T08:01:49Z</time>
      </trkpt>
      <trkpt lat="43.81862" lon="5.50466">
        <ele>1016.2</ele>
        <time>2022-08-24T08:01:51Z</time>
      </trkpt>
      <trkpt lat="43.81859" lon="5.50473">
        <ele>1016.6</ele>
        <time>2022-08-24T08:01:53Z</time>
      </trkpt>
      <trkpt lat="43.81857" lon="5.50479">
        <ele>1016.8</ele>
        <time>2022-08-24T08:01:55Z</time>
      </trkpt>
      <trkpt lat="43.81855" lon="5.50486">
        <ele>1017.3</ele>
        <time>2022-08-24T08:01:57Z</time>
      </trkpt>
      <trkpt lat="43.81854" lon="5.50492">
        <ele>1017.7</ele>
        <time>2022-08-24T08:01:59Z</time>
      </trkpt>
      <trkpt lat="43.81852" lon="5.50499">
        <ele>1017.8</ele>
        <time>2022-08-24T08:02:01Z</time>
      </trkpt>
      <trkpt lat="43.8185" lon="5.50507">
        <ele>1018.2</ele>
        <time>2022-08-24T08:02:03Z</time>
      </trkpt>
      <trkpt lat="43.81849" lon="5.50514">
        <ele>1018.6</ele>
        <time>2022-08-24T08:02:05Z</time>
      </trkpt>
      <trkpt lat="43.81849" lon="5.50521">
        <ele>1019.4</ele>
        <time>2022-08-24T08:02:07Z</time>
      </trkpt>
      <trkpt lat="43.81848" lon="5.50528">
        <ele>1019.8</ele>
        <time>2022-08-24T08:02:09Z</time>
      </trkpt>
      <trkpt lat="43.81848" lon="5.50534">
        <ele>1020.3</ele>
        <time>2022-08-24T08:02:11Z</time>
      </trkpt>
      <trkpt lat="43.81849" lon="5.50541">
        <ele>1021.2</ele>
        <time>2022-08-24T08:02:13Z</time>
      </trkpt>
      <trkpt lat="43.81849" lon="5.50549">
        <ele>1021.9</ele>
        <time>2022-08-24T08:02:15Z</time>
      </trkpt>
      <trkpt lat="43.81849" lon="5.50556">
        <ele>1022.5</ele>
        <time>2022-08-24T08:02:17Z</time>
      </trkpt>
      <trkpt lat="43.81849" lon="5.50563">
        <ele>1022.8</ele>
        <time>2022-08-24T08:02:19Z</time>
      </trkpt>
      <trkpt lat="43.81849" lon="5.5057">
        <ele>1023.1</ele>
        <time>2022-08-24T08:02:21Z</time>
      </trkpt>
      <trkpt lat="43.8185" lon="5.50578">
        <ele>1023.6</ele>
        <time>2022-08-24T08:02:23Z</time>
      </trkpt>
      <trkpt lat="43.8185" lon="5.50584">
        <ele>1023.8</ele>
        <time>2022-08-24T08:02:25Z</time>
      </trkpt>
      <trkpt lat="43.8185" lon="5.50592">
        <ele>1024</ele>
        <time>2022-08-24T08:02:27Z</time>
      </trkpt>
      <trkpt lat="43.81851" lon="5.50599">
        <ele>1024.5</ele>
        <time>2022-08-24T08:02:29Z</time>
      </trkpt>
      <trkpt lat="43.81851" lon="5.50606">
        <ele>1024.6</ele>
        <time>2022-08-24T08:02:31Z</time>
      </trkpt>
      <trkpt lat="43.81852" lon="5.50613">
        <ele>1025</ele>
        <time>2022-08-24T08:02:33Z</time>
      </trkpt>
      <trkpt lat="43.81853" lon="5.5062">
        <ele>1025.2</ele>
        <time>2022-08-24T08:02:35Z</time>
      </trkpt>
      <trkpt lat="43.81854" lon="5.50627">
        <ele>1025.7</ele>
        <time>2022-08-24T08:02:37Z</time>
      </trkpt>
      <trkpt lat="43.81857" lon="5.50634">
        <ele>1026.7</ele>
        <time>2022-08-24T08:02:39Z</time>
      </trkpt>
      <trkpt lat="43.81859" lon="5.50641">
        <ele>1027.8</ele>
        <time>2022-08-24T08:02:41Z</time>
      </trkpt>
      <trkpt lat="43.81861" lon="5.50648">
        <ele>1028.9</ele>
        <time>2022-08-24T08:02:43Z</time>
      </trkpt>
      <trkpt lat="43.81862" lon="5.50656">
        <ele>1029.4</ele>
        <time>2022-08-24T08:02:45Z</time>
      </trkpt>
      <trkpt lat="43.81863" lon="5.50664">
        <ele>1030.1</ele>
        <time>2022-08-24T08:02:47Z</time>
      </trkpt>
      <trkpt lat="43.81865" lon="5.50673">
        <ele>1030.8</ele>
        <time>2022-08-24T08:02:49Z</time>
      </trkpt>
      <trkpt lat="43.81866" lon="5.50681">
        <ele>1031.2</ele>
        <time>2022-08-24T08:02:51Z</time>
      </trkpt>
      <trkpt lat="43.81867" lon="5.5069">
        <ele>1031.7</ele>
        <time>2022-08-24T08:02:53Z</time>
      </trkpt>
      <trkpt lat="43.81868" lon="5.50699">
        <ele>1032</ele>
        <time>2022-08-24T08:02:55Z</time>
      </trkpt>
      <trkpt lat="43.81869" lon="5.50708">
        <ele>1032.4</ele>
        <time>2022-08-24T08:02:57Z</time>
      </trkpt>
      <trkpt lat="43.8187" lon="5.50717">
        <ele>1032.9</ele>
        <time>2022-08-24T08:02:59Z</time>
      </trkpt>
      <trkpt lat="43.8187" lon="5.50726">
        <ele>1033.1</ele>
        <time>2022-08-24T08:03:01Z</time>
      </trkpt>
      <trkpt lat="43.81871" lon="5.50735">
        <ele>1032.9</ele>
        <time>2022-08-24T08:03:03Z</time>
      </trkpt>
      <trkpt lat="43.81871" lon="5.50744">
        <ele>1032.8</ele>
        <time>2022-08-24T08:03:05Z</time>
      </trkpt>
      <trkpt lat="43.81873" lon="5.50752">
        <ele>1032.9</ele>
        <time>2022-08-24T08:03:07Z</time>
      </trkpt>
      <trkpt lat="43.81873" lon="5.5076">
        <ele>1032.9</ele>
        <time>2022-08-24T08:03:09Z</time>
      </trkpt>
      <trkpt lat="43.81874" lon="5.50769">
        <ele>1032.9</ele>
        <time>2022-08-24T08:03:11Z</time>
      </trkpt>
      <trkpt lat="43.81875" lon="5.50777">
        <ele>1033</ele>
        <time>2022-08-24T08:03:13Z</time>
      </trkpt>
      <trkpt lat="43.81877" lon="5.50785">
        <ele>1033.2</ele>
        <time>2022-08-24T08:03:15Z</time>
      </trkpt>
      <trkpt lat="43.81879" lon="5.50793">
        <ele>1033.5</ele>
        <time>2022-08-24T08:03:17Z</time>
      </trkpt>
      <trkpt lat="43.81881" lon="5.508">
        <ele>1033.7</ele>
        <time>2022-08-24T08:03:19Z</time>
      </trkpt>
      <trkpt lat="43.81885" lon="5.50807">
        <ele>1034.1</ele>
        <time>2022-08-24T08:03:21Z</time>
      </trkpt>
      <trkpt lat="43.8189" lon="5.50813">
        <ele>1034.5</ele>
        <time>2022-08-24T08:03:23Z</time>
      </trkpt>
      <trkpt lat="43.81895" lon="5.50816">
        <ele>1034.6</ele>
        <time>2022-08-24T08:03:25Z</time>
      </trkpt>
      <trkpt lat="43.81903" lon="5.50819">
        <ele>1034.8</ele>
        <time>2022-08-24T08:03:27Z</time>
      </trkpt>
      <trkpt lat="43.81909" lon="5.50821">
        <ele>1035</ele>
        <time>2022-08-24T08:03:29Z</time>
      </trkpt>
      <trkpt lat="43.81916" lon="5.50822">
        <ele>1035.4</ele>
        <time>2022-08-24T08:03:31Z</time>
      </trkpt>
      <trkpt lat="43.81922" lon="5.50823">
        <ele>1035.3</ele>
        <time>2022-08-24T08:03:33Z</time>
      </trkpt>
      <trkpt lat="43.81928" lon="5.50824">
        <ele>1035.2</ele>
        <time>2022-08-24T08:03:35Z</time>
      </trkpt>
      <trkpt lat="43.81932" lon="5.50826">
        <ele>1035.2</ele>
        <time>2022-08-24T08:03:37Z</time>
      </trkpt>
      <trkpt lat="43.81938" lon="5.50831">
        <ele>1035.6</ele>
        <time>2022-08-24T08:03:40Z</time>
      </trkpt>
      <trkpt lat="43.81942" lon="5.50834">
        <ele>1036</ele>
        <time>2022-08-24T08:03:42Z</time>
      </trkpt>
      <trkpt lat="43.81946" lon="5.50841">
        <ele>1037.2</ele>
        <time>2022-08-24T08:03:45Z</time>
      </trkpt>
      <trkpt lat="43.81947" lon="5.50848">
        <ele>1038.7</ele>
        <time>2022-08-24T08:03:48Z</time>
      </trkpt>
      <trkpt lat="43.81948" lon="5.50856">
        <ele>1040</ele>
        <time>2022-08-24T08:03:51Z</time>
      </trkpt>
      <trkpt lat="43.81949" lon="5.50863">
        <ele>1041.4</ele>
        <time>2022-08-24T08:03:54Z</time>
      </trkpt>
      <trkpt lat="43.8195" lon="5.50871">
        <ele>1043</ele>
        <time>2022-08-24T08:03:57Z</time>
      </trkpt>
      <trkpt lat="43.81952" lon="5.50878">
        <ele>1044.5</ele>
        <time>2022-08-24T08:04:00Z</time>
      </trkpt>
      <trkpt lat="43.81953" lon="5.50886">
        <ele>1046.4</ele>
        <time>2022-08-24T08:04:03Z</time>
      </trkpt>
      <trkpt lat="43.81954" lon="5.50895">
        <ele>1048.1</ele>
        <time>2022-08-24T08:04:06Z</time>
      </trkpt>
      <trkpt lat="43.81954" lon="5.50902">
        <ele>1049.6</ele>
        <time>2022-08-24T08:04:09Z</time>
      </trkpt>
      <trkpt lat="43.81953" lon="5.5091">
        <ele>1051.2</ele>
        <time>2022-08-24T08:04:12Z</time>
      </trkpt>
      <trkpt lat="43.81951" lon="5.50917">
        <ele>1052.9</ele>
        <time>2022-08-24T08:04:15Z</time>
      </trkpt>
      <trkpt lat="43.81949" lon="5.50926">
        <ele>1054.5</ele>
        <time>2022-08-24T08:04:18Z</time>
      </trkpt>
      <trkpt lat="43.81947" lon="5.50934">
        <ele>1055.9</ele>
        <time>2022-08-24T08:04:21Z</time>
      </trkpt>
      <trkpt lat="43.81943" lon="5.5094">
        <ele>1057</ele>
        <time>2022-08-24T08:04:24Z</time>
      </trkpt>
      <trkpt lat="43.81941" lon="5.50948">
        <ele>1058.3</ele>
        <time>2022-08-24T08:04:27Z</time>
      </trkpt>
      <trkpt lat="43.8194" lon="5.50956">
        <ele>1059.7</ele>
        <time>2022-08-24T08:04:30Z</time>
      </trkpt>
      <trkpt lat="43.81939" lon="5.50964">
        <ele>1061.1</ele>
        <time>2022-08-24T08:04:33Z</time>
      </trkpt>
      <trkpt lat="43.81939" lon="5.50972">
        <ele>1062.5</ele>
        <time>2022-08-24T08:04:36Z</time>
      </trkpt>
      <trkpt lat="43.81936" lon="5.50979">
        <ele>1063.3</ele>
        <time>2022-08-24T08:04:39Z</time>
      </trkpt>
      <trkpt lat="43.81934" lon="5.50989">
        <ele>1064.7</ele>
        <time>2022-08-24T08:04:43Z</time>
      </trkpt>
      <trkpt lat="43.81934" lon="5.50998">
        <ele>1066</ele>
        <time>2022-08-24T08:04:46Z</time>
      </trkpt>
      <trkpt lat="43.81933" lon="5.51006">
        <ele>1066.4</ele>
        <time>2022-08-24T08:04:49Z</time>
      </trkpt>
      <trkpt lat="43.81931" lon="5.51013">
        <ele>1066.5</ele>
        <time>2022-08-24T08:04:52Z</time>
      </trkpt>
      <trkpt lat="43.81929" lon="5.51021">
        <ele>1066.6</ele>
        <time>2022-08-24T08:04:55Z</time>
      </trkpt>
      <trkpt lat="43.81926" lon="5.51028">
        <ele>1066.7</ele>
        <time>2022-08-24T08:04:58Z</time>
      </trkpt>
      <trkpt lat="43.81925" lon="5.51036">
        <ele>1066.2</ele>
        <time>2022-08-24T08:05:01Z</time>
      </trkpt>
      <trkpt lat="43.81923" lon="5.51046">
        <ele>1065.6</ele>
        <time>2022-08-24T08:05:04Z</time>
      </trkpt>
      <trkpt lat="43.81923" lon="5.51056">
        <ele>1065.2</ele>
        <time>2022-08-24T08:05:06Z</time>
      </trkpt>
      <trkpt lat="43.81925" lon="5.51063">
        <ele>1064.3</ele>
        <time>2022-08-24T08:05:07Z</time>
      </trkpt>
      <trkpt lat="43.81929" lon="5.51073">
        <ele>1062.9</ele>
        <time>2022-08-24T08:05:09Z</time>
      </trkpt>
      <trkpt lat="43.8193" lon="5.51083">
        <ele>1061.5</ele>
        <time>2022-08-24T08:05:11Z</time>
      </trkpt>
      <trkpt lat="43.81927" lon="5.51095">
        <ele>1059.1</ele>
        <time>2022-08-24T08:05:13Z</time>
      </trkpt>
      <trkpt lat="43.81924" lon="5.51103">
        <ele>1057.6</ele>
        <time>2022-08-24T08:05:14Z</time>
      </trkpt>
      <trkpt lat="43.81923" lon="5.5111">
        <ele>1056.3</ele>
        <time>2022-08-24T08:05:15Z</time>
      </trkpt>
      <trkpt lat="43.81921" lon="5.51116">
        <ele>1054.9</ele>
        <time>2022-08-24T08:05:16Z</time>
      </trkpt>
      <trkpt lat="43.81921" lon="5.51124">
        <ele>1053.2</ele>
        <time>2022-08-24T08:05:17Z</time>
      </trkpt>
      <trkpt lat="43.81919" lon="5.51132">
        <ele>1051.3</ele>
        <time>2022-08-24T08:05:18Z</time>
      </trkpt>
      <trkpt lat="43.81916" lon="5.51141">
        <ele>1049.6</ele>
        <time>2022-08-24T08:05:19Z</time>
      </trkpt>
      <trkpt lat="43.81913" lon="5.51149">
        <ele>1048.2</ele>
        <time>2022-08-24T08:05:20Z</time>
      </trkpt>
      <trkpt lat="43.81908" lon="5.5116">
        <ele>1046.4</ele>
        <time>2022-08-24T08:05:21Z</time>
      </trkpt>
      <trkpt lat="43.81904" lon="5.5117">
        <ele>1044.9</ele>
        <time>2022-08-24T08:05:22Z</time>
      </trkpt>
      <trkpt lat="43.81899" lon="5.51182">
        <ele>1043.6</ele>
        <time>2022-08-24T08:05:23Z</time>
      </trkpt>
      <trkpt lat="43.81894" lon="5.51194">
        <ele>1042.6</ele>
        <time>2022-08-24T08:05:24Z</time>
      </trkpt>
      <trkpt lat="43.81889" lon="5.51203">
        <ele>1042.9</ele>
        <time>2022-08-24T08:05:25Z</time>
      </trkpt>
      <trkpt lat="43.81886" lon="5.51214">
        <ele>1042.9</ele>
        <time>2022-08-24T08:05:26Z</time>
      </trkpt>
      <trkpt lat="43.81884" lon="5.51224">
        <ele>1043.1</ele>
        <time>2022-08-24T08:05:27Z</time>
      </trkpt>
      <trkpt lat="43.81883" lon="5.51232">
        <ele>1043.6</ele>
        <time>2022-08-24T08:05:28Z</time>
      </trkpt>
      <trkpt lat="43.81883" lon="5.51239">
        <ele>1044</ele>
        <time>2022-08-24T08:05:29Z</time>
      </trkpt>
      <trkpt lat="43.81882" lon="5.51249">
        <ele>1044.7</ele>
        <time>2022-08-24T08:05:31Z</time>
      </trkpt>
      <trkpt lat="43.81883" lon="5.51257">
        <ele>1044.3</ele>
        <time>2022-08-24T08:05:33Z</time>
      </trkpt>
      <trkpt lat="43.81883" lon="5.51266">
        <ele>1043.9</ele>
        <time>2022-08-24T08:05:35Z</time>
      </trkpt>
      <trkpt lat="43.81882" lon="5.51277">
        <ele>1043.6</ele>
        <time>2022-08-24T08:05:37Z</time>
      </trkpt>
      <trkpt lat="43.81881" lon="5.51288">
        <ele>1043.2</ele>
        <time>2022-08-24T08:05:39Z</time>
      </trkpt>
      <trkpt lat="43.81881" lon="5.51295">
        <ele>1043.1</ele>
        <time>2022-08-24T08:05:40Z</time>
      </trkpt>
      <trkpt lat="43.81881" lon="5.51301">
        <ele>1042.9</ele>
        <time>2022-08-24T08:05:41Z</time>
      </trkpt>
      <trkpt lat="43.8188" lon="5.51308">
        <ele>1042.6</ele>
        <time>2022-08-24T08:05:42Z</time>
      </trkpt>
      <trkpt lat="43.8188" lon="5.5132">
        <ele>1042.3</ele>
        <time>2022-08-24T08:05:44Z</time>
      </trkpt>
      <trkpt lat="43.81879" lon="5.51329">
        <ele>1042.1</ele>
        <time>2022-08-24T08:05:46Z</time>
      </trkpt>
      <trkpt lat="43.81879" lon="5.51339">
        <ele>1041.6</ele>
        <time>2022-08-24T08:05:48Z</time>
      </trkpt>
      <trkpt lat="43.8188" lon="5.51351">
        <ele>1040.9</ele>
        <time>2022-08-24T08:05:50Z</time>
      </trkpt>
      <trkpt lat="43.81881" lon="5.51358">
        <ele>1040.5</ele>
        <time>2022-08-24T08:05:51Z</time>
      </trkpt>
      <trkpt lat="43.81881" lon="5.51366">
        <ele>1039.7</ele>
        <time>2022-08-24T08:05:52Z</time>
      </trkpt>
      <trkpt lat="43.81884" lon="5.51373">
        <ele>1038.8</ele>
        <time>2022-08-24T08:05:53Z</time>
      </trkpt>
      <trkpt lat="43.81886" lon="5.51383">
        <ele>1037.6</ele>
        <time>2022-08-24T08:05:54Z</time>
      </trkpt>
      <trkpt lat="43.81886" lon="5.51395">
        <ele>1037</ele>
        <time>2022-08-24T08:05:55Z</time>
      </trkpt>
      <trkpt lat="43.81887" lon="5.51406">
        <ele>1036.9</ele>
        <time>2022-08-24T08:05:56Z</time>
      </trkpt>
      <trkpt lat="43.81889" lon="5.51418">
        <ele>1037.1</ele>
        <time>2022-08-24T08:05:57Z</time>
      </trkpt>
      <trkpt lat="43.81892" lon="5.51427">
        <ele>1038.2</ele>
        <time>2022-08-24T08:05:58Z</time>
      </trkpt>
      <trkpt lat="43.81891" lon="5.51436">
        <ele>1039.2</ele>
        <time>2022-08-24T08:06:00Z</time>
      </trkpt>
      <trkpt lat="43.81894" lon="5.51441">
        <ele>1040</ele>
        <time>2022-08-24T08:06:02Z</time>
      </trkpt>
      <trkpt lat="43.81896" lon="5.51447">
        <ele>1040.7</ele>
        <time>2022-08-24T08:06:04Z</time>
      </trkpt>
      <trkpt lat="43.81898" lon="5.51457">
        <ele>1041.7</ele>
        <time>2022-08-24T08:06:08Z</time>
      </trkpt>
      <trkpt lat="43.81899" lon="5.51463">
        <ele>1042.3</ele>
        <time>2022-08-24T08:06:10Z</time>
      </trkpt>
      <trkpt lat="43.819" lon="5.51472">
        <ele>1043.1</ele>
        <time>2022-08-24T08:06:13Z</time>
      </trkpt>
      <trkpt lat="43.81902" lon="5.51481">
        <ele>1044.1</ele>
        <time>2022-08-24T08:06:16Z</time>
      </trkpt>
      <trkpt lat="43.81902" lon="5.51489">
        <ele>1044.9</ele>
        <time>2022-08-24T08:06:19Z</time>
      </trkpt>
      <trkpt lat="43.81904" lon="5.51496">
        <ele>1045.8</ele>
        <time>2022-08-24T08:06:22Z</time>
      </trkpt>
      <trkpt lat="43.81904" lon="5.51505">
        <ele>1046.7</ele>
        <time>2022-08-24T08:06:25Z</time>
      </trkpt>
      <trkpt lat="43.81906" lon="5.51513">
        <ele>1047.8</ele>
        <time>2022-08-24T08:06:28Z</time>
      </trkpt>
      <trkpt lat="43.81909" lon="5.5152">
        <ele>1049</ele>
        <time>2022-08-24T08:06:31Z</time>
      </trkpt>
      <trkpt lat="43.81912" lon="5.51527">
        <ele>1050.3</ele>
        <time>2022-08-24T08:06:34Z</time>
      </trkpt>
      <trkpt lat="43.81915" lon="5.51534">
        <ele>1051.1</ele>
        <time>2022-08-24T08:06:37Z</time>
      </trkpt>
      <trkpt lat="43.81918" lon="5.5154">
        <ele>1051.9</ele>
        <time>2022-08-24T08:06:40Z</time>
      </trkpt>
      <trkpt lat="43.8192" lon="5.51548">
        <ele>1052.4</ele>
        <time>2022-08-24T08:06:43Z</time>
      </trkpt>
      <trkpt lat="43.8192" lon="5.51554">
        <ele>1052.8</ele>
        <time>2022-08-24T08:06:45Z</time>
      </trkpt>
      <trkpt lat="43.81918" lon="5.51562">
        <ele>1052.9</ele>
        <time>2022-08-24T08:06:47Z</time>
      </trkpt>
      <trkpt lat="43.81917" lon="5.5157">
        <ele>1053</ele>
        <time>2022-08-24T08:06:49Z</time>
      </trkpt>
      <trkpt lat="43.81916" lon="5.51577">
        <ele>1052.9</ele>
        <time>2022-08-24T08:06:51Z</time>
      </trkpt>
      <trkpt lat="43.81915" lon="5.51585">
        <ele>1052.8</ele>
        <time>2022-08-24T08:06:53Z</time>
      </trkpt>
      <trkpt lat="43.81913" lon="5.51593">
        <ele>1052.6</ele>
        <time>2022-08-24T08:06:55Z</time>
      </trkpt>
      <trkpt lat="43.81911" lon="5.51601">
        <ele>1052.5</ele>
        <time>2022-08-24T08:06:57Z</time>
      </trkpt>
      <trkpt lat="43.81909" lon="5.5161">
        <ele>1052.4</ele>
        <time>2022-08-24T08:06:59Z</time>
      </trkpt>
      <trkpt lat="43.81907" lon="5.5162">
        <ele>1052.1</ele>
        <time>2022-08-24T08:07:01Z</time>
      </trkpt>
      <trkpt lat="43.81906" lon="5.5163">
        <ele>1051.8</ele>
        <time>2022-08-24T08:07:03Z</time>
      </trkpt>
      <trkpt lat="43.81904" lon="5.51639">
        <ele>1051.6</ele>
        <time>2022-08-24T08:07:05Z</time>
      </trkpt>
      <trkpt lat="43.81904" lon="5.51649">
        <ele>1051</ele>
        <time>2022-08-24T08:07:07Z</time>
      </trkpt>
      <trkpt lat="43.81902" lon="5.51656">
        <ele>1050.5</ele>
        <time>2022-08-24T08:07:08Z</time>
      </trkpt>
      <trkpt lat="43.819" lon="5.51663">
        <ele>1050.2</ele>
        <time>2022-08-24T08:07:09Z</time>
      </trkpt>
      <trkpt lat="43.819" lon="5.51669">
        <ele>1050</ele>
        <time>2022-08-24T08:07:10Z</time>
      </trkpt>
      <trkpt lat="43.81898" lon="5.51681">
        <ele>1050.2</ele>
        <time>2022-08-24T08:07:12Z</time>
      </trkpt>
      <trkpt lat="43.81896" lon="5.5169">
        <ele>1050.2</ele>
        <time>2022-08-24T08:07:14Z</time>
      </trkpt>
      <trkpt lat="43.81895" lon="5.517">
        <ele>1050.8</ele>
        <time>2022-08-24T08:07:16Z</time>
      </trkpt>
      <trkpt lat="43.81894" lon="5.5171">
        <ele>1051.8</ele>
        <time>2022-08-24T08:07:18Z</time>
      </trkpt>
      <trkpt lat="43.81892" lon="5.51718">
        <ele>1052.6</ele>
        <time>2022-08-24T08:07:20Z</time>
      </trkpt>
      <trkpt lat="43.81892" lon="5.51727">
        <ele>1053.6</ele>
        <time>2022-08-24T08:07:22Z</time>
      </trkpt>
      <trkpt lat="43.81892" lon="5.51736">
        <ele>1054.5</ele>
        <time>2022-08-24T08:07:24Z</time>
      </trkpt>
      <trkpt lat="43.81891" lon="5.51744">
        <ele>1055.3</ele>
        <time>2022-08-24T08:07:26Z</time>
      </trkpt>
      <trkpt lat="43.81892" lon="5.51752">
        <ele>1055.6</ele>
        <time>2022-08-24T08:07:29Z</time>
      </trkpt>
      <trkpt lat="43.81897" lon="5.51757">
        <ele>1054.7</ele>
        <time>2022-08-24T08:07:31Z</time>
      </trkpt>
      <trkpt lat="43.81905" lon="5.51758">
        <ele>1054.2</ele>
        <time>2022-08-24T08:07:32Z</time>
      </trkpt>
      <trkpt lat="43.8191" lon="5.51759">
        <ele>1053.6</ele>
        <time>2022-08-24T08:07:33Z</time>
      </trkpt>
      <trkpt lat="43.81916" lon="5.51762">
        <ele>1052.8</ele>
        <time>2022-08-24T08:07:34Z</time>
      </trkpt>
      <trkpt lat="43.81921" lon="5.51766">
        <ele>1051.9</ele>
        <time>2022-08-24T08:07:35Z</time>
      </trkpt>
      <trkpt lat="43.81927" lon="5.5177">
        <ele>1051</ele>
        <time>2022-08-24T08:07:36Z</time>
      </trkpt>
      <trkpt lat="43.81933" lon="5.51774">
        <ele>1050.5</ele>
        <time>2022-08-24T08:07:37Z</time>
      </trkpt>
      <trkpt lat="43.8194" lon="5.51779">
        <ele>1049.8</ele>
        <time>2022-08-24T08:07:38Z</time>
      </trkpt>
      <trkpt lat="43.81947" lon="5.51784">
        <ele>1049.1</ele>
        <time>2022-08-24T08:07:39Z</time>
      </trkpt>
      <trkpt lat="43.81955" lon="5.51788">
        <ele>1048.3</ele>
        <time>2022-08-24T08:07:40Z</time>
      </trkpt>
      <trkpt lat="43.81962" lon="5.51793">
        <ele>1047.9</ele>
        <time>2022-08-24T08:07:41Z</time>
      </trkpt>
      <trkpt lat="43.81968" lon="5.51796">
        <ele>1047.9</ele>
        <time>2022-08-24T08:07:42Z</time>
      </trkpt>
      <trkpt lat="43.81974" lon="5.518">
        <ele>1048.1</ele>
        <time>2022-08-24T08:07:43Z</time>
      </trkpt>
      <trkpt lat="43.81981" lon="5.51803">
        <ele>1048.6</ele>
        <time>2022-08-24T08:07:44Z</time>
      </trkpt>
      <trkpt lat="43.81986" lon="5.51805">
        <ele>1049</ele>
        <time>2022-08-24T08:07:45Z</time>
      </trkpt>
      <trkpt lat="43.81991" lon="5.51807">
        <ele>1049.3</ele>
        <time>2022-08-24T08:07:46Z</time>
      </trkpt>
      <trkpt lat="43.81999" lon="5.51811">
        <ele>1049.7</ele>
        <time>2022-08-24T08:07:48Z</time>
      </trkpt>
      <trkpt lat="43.82006" lon="5.51815">
        <ele>1049.4</ele>
        <time>2022-08-24T08:07:50Z</time>
      </trkpt>
      <trkpt lat="43.82012" lon="5.51817">
        <ele>1049</ele>
        <time>2022-08-24T08:07:52Z</time>
      </trkpt>
      <trkpt lat="43.82019" lon="5.5182">
        <ele>1048.5</ele>
        <time>2022-08-24T08:07:54Z</time>
      </trkpt>
      <trkpt lat="43.82024" lon="5.51828">
        <ele>1047.6</ele>
        <time>2022-08-24T08:07:56Z</time>
      </trkpt>
      <trkpt lat="43.82025" lon="5.51835">
        <ele>1047</ele>
        <time>2022-08-24T08:07:57Z</time>
      </trkpt>
      <trkpt lat="43.82025" lon="5.51841">
        <ele>1045.8</ele>
        <time>2022-08-24T08:07:58Z</time>
      </trkpt>
      <trkpt lat="43.82025" lon="5.51848">
        <ele>1044.7</ele>
        <time>2022-08-24T08:07:59Z</time>
      </trkpt>
      <trkpt lat="43.82026" lon="5.51859">
        <ele>1042.6</ele>
        <time>2022-08-24T08:08:01Z</time>
      </trkpt>
      <trkpt lat="43.82025" lon="5.51866">
        <ele>1041.5</ele>
        <time>2022-08-24T08:08:02Z</time>
      </trkpt>
      <trkpt lat="43.82026" lon="5.51873">
        <ele>1040.1</ele>
        <time>2022-08-24T08:08:03Z</time>
      </trkpt>
      <trkpt lat="43.82027" lon="5.51884">
        <ele>1038</ele>
        <time>2022-08-24T08:08:05Z</time>
      </trkpt>
      <trkpt lat="43.82028" lon="5.5189">
        <ele>1036.6</ele>
        <time>2022-08-24T08:08:06Z</time>
      </trkpt>
      <trkpt lat="43.82032" lon="5.51901">
        <ele>1033.5</ele>
        <time>2022-08-24T08:08:08Z</time>
      </trkpt>
      <trkpt lat="43.82037" lon="5.51911">
        <ele>1030.7</ele>
        <time>2022-08-24T08:08:10Z</time>
      </trkpt>
      <trkpt lat="43.82039" lon="5.5192">
        <ele>1028.5</ele>
        <time>2022-08-24T08:08:12Z</time>
      </trkpt>
      <trkpt lat="43.82039" lon="5.51929">
        <ele>1026</ele>
        <time>2022-08-24T08:08:14Z</time>
      </trkpt>
      <trkpt lat="43.82037" lon="5.51939">
        <ele>1023.7</ele>
        <time>2022-08-24T08:08:16Z</time>
      </trkpt>
      <trkpt lat="43.82034" lon="5.51948">
        <ele>1021.7</ele>
        <time>2022-08-24T08:08:18Z</time>
      </trkpt>
      <trkpt lat="43.8203" lon="5.51957">
        <ele>1019.7</ele>
        <time>2022-08-24T08:08:20Z</time>
      </trkpt>
      <trkpt lat="43.82027" lon="5.51966">
        <ele>1017.6</ele>
        <time>2022-08-24T08:08:22Z</time>
      </trkpt>
      <trkpt lat="43.82024" lon="5.51974">
        <ele>1015.6</ele>
        <time>2022-08-24T08:08:23Z</time>
      </trkpt>
      <trkpt lat="43.82022" lon="5.51982">
        <ele>1014.3</ele>
        <time>2022-08-24T08:08:24Z</time>
      </trkpt>
      <trkpt lat="43.82019" lon="5.51988">
        <ele>1013.1</ele>
        <time>2022-08-24T08:08:25Z</time>
      </trkpt>
      <trkpt lat="43.82017" lon="5.51995">
        <ele>1012</ele>
        <time>2022-08-24T08:08:26Z</time>
      </trkpt>
      <trkpt lat="43.82015" lon="5.52003">
        <ele>1010.5</ele>
        <time>2022-08-24T08:08:27Z</time>
      </trkpt>
      <trkpt lat="43.82013" lon="5.52009">
        <ele>1009.4</ele>
        <time>2022-08-24T08:08:28Z</time>
      </trkpt>
      <trkpt lat="43.82015" lon="5.5202">
        <ele>1007.4</ele>
        <time>2022-08-24T08:08:30Z</time>
      </trkpt>
      <trkpt lat="43.82016" lon="5.52029">
        <ele>1006</ele>
        <time>2022-08-24T08:08:31Z</time>
      </trkpt>
      <trkpt lat="43.82013" lon="5.52037">
        <ele>1005.7</ele>
        <time>2022-08-24T08:08:32Z</time>
      </trkpt>
      <trkpt lat="43.82009" lon="5.52044">
        <ele>1005.4</ele>
        <time>2022-08-24T08:08:33Z</time>
      </trkpt>
      <trkpt lat="43.82013" lon="5.52051">
        <ele>1005.1</ele>
        <time>2022-08-24T08:08:34Z</time>
      </trkpt>
      <trkpt lat="43.82015" lon="5.52059">
        <ele>1005.4</ele>
        <time>2022-08-24T08:08:35Z</time>
      </trkpt>
      <trkpt lat="43.82016" lon="5.52065">
        <ele>1006.3</ele>
        <time>2022-08-24T08:08:36Z</time>
      </trkpt>
      <trkpt lat="43.82018" lon="5.52075">
        <ele>1007.5</ele>
        <time>2022-08-24T08:08:39Z</time>
      </trkpt>
      <trkpt lat="43.82017" lon="5.52083">
        <ele>1008.6</ele>
        <time>2022-08-24T08:08:42Z</time>
      </trkpt>
      <trkpt lat="43.82015" lon="5.52091">
        <ele>1009.7</ele>
        <time>2022-08-24T08:08:45Z</time>
      </trkpt>
      <trkpt lat="43.82014" lon="5.52098">
        <ele>1010.9</ele>
        <time>2022-08-24T08:08:48Z</time>
      </trkpt>
      <trkpt lat="43.82013" lon="5.52106">
        <ele>1012.2</ele>
        <time>2022-08-24T08:08:51Z</time>
      </trkpt>
      <trkpt lat="43.82013" lon="5.52114">
        <ele>1013.5</ele>
        <time>2022-08-24T08:08:54Z</time>
      </trkpt>
      <trkpt lat="43.82012" lon="5.52122">
        <ele>1014.9</ele>
        <time>2022-08-24T08:08:57Z</time>
      </trkpt>
      <trkpt lat="43.82011" lon="5.52129">
        <ele>1016.3</ele>
        <time>2022-08-24T08:09:00Z</time>
      </trkpt>
      <trkpt lat="43.82011" lon="5.52136">
        <ele>1017.6</ele>
        <time>2022-08-24T08:09:03Z</time>
      </trkpt>
      <trkpt lat="43.8201" lon="5.52144">
        <ele>1018.9</ele>
        <time>2022-08-24T08:09:06Z</time>
      </trkpt>
      <trkpt lat="43.8201" lon="5.52152">
        <ele>1020.2</ele>
        <time>2022-08-24T08:09:09Z</time>
      </trkpt>
      <trkpt lat="43.8201" lon="5.5216">
        <ele>1021.5</ele>
        <time>2022-08-24T08:09:12Z</time>
      </trkpt>
      <trkpt lat="43.82008" lon="5.52168">
        <ele>1022.8</ele>
        <time>2022-08-24T08:09:15Z</time>
      </trkpt>
      <trkpt lat="43.82006" lon="5.52176">
        <ele>1024.3</ele>
        <time>2022-08-24T08:09:18Z</time>
      </trkpt>
      <trkpt lat="43.82004" lon="5.52183">
        <ele>1025.6</ele>
        <time>2022-08-24T08:09:21Z</time>
      </trkpt>
      <trkpt lat="43.82003" lon="5.52191">
        <ele>1027.1</ele>
        <time>2022-08-24T08:09:24Z</time>
      </trkpt>
      <trkpt lat="43.82001" lon="5.52198">
        <ele>1028.6</ele>
        <time>2022-08-24T08:09:27Z</time>
      </trkpt>
      <trkpt lat="43.81999" lon="5.52206">
        <ele>1030</ele>
        <time>2022-08-24T08:09:30Z</time>
      </trkpt>
      <trkpt lat="43.81997" lon="5.52214">
        <ele>1031.3</ele>
        <time>2022-08-24T08:09:33Z</time>
      </trkpt>
      <trkpt lat="43.81997" lon="5.52221">
        <ele>1032.7</ele>
        <time>2022-08-24T08:09:36Z</time>
      </trkpt>
      <trkpt lat="43.81997" lon="5.52228">
        <ele>1033.7</ele>
        <time>2022-08-24T08:09:39Z</time>
      </trkpt>
      <trkpt lat="43.81996" lon="5.52235">
        <ele>1034.6</ele>
        <time>2022-08-24T08:09:42Z</time>
      </trkpt>
      <trkpt lat="43.81996" lon="5.52242">
        <ele>1035.6</ele>
        <time>2022-08-24T08:09:45Z</time>
      </trkpt>
      <trkpt lat="43.81995" lon="5.5225">
        <ele>1036.5</ele>
        <time>2022-08-24T08:09:48Z</time>
      </trkpt>
      <trkpt lat="43.81993" lon="5.52258">
        <ele>1037.1</ele>
        <time>2022-08-24T08:09:51Z</time>
      </trkpt>
      <trkpt lat="43.81992" lon="5.52266">
        <ele>1037.7</ele>
        <time>2022-08-24T08:09:54Z</time>
      </trkpt>
      <trkpt lat="43.81991" lon="5.52273">
        <ele>1038.1</ele>
        <time>2022-08-24T08:09:57Z</time>
      </trkpt>
      <trkpt lat="43.81993" lon="5.52282">
        <ele>1038.6</ele>
        <time>2022-08-24T08:10:00Z</time>
      </trkpt>
      <trkpt lat="43.81996" lon="5.52288">
        <ele>1038.8</ele>
        <time>2022-08-24T08:10:02Z</time>
      </trkpt>
      <trkpt lat="43.82002" lon="5.52299">
        <ele>1038.9</ele>
        <time>2022-08-24T08:10:04Z</time>
      </trkpt>
      <trkpt lat="43.82004" lon="5.52305">
        <ele>1038.5</ele>
        <time>2022-08-24T08:10:05Z</time>
      </trkpt>
      <trkpt lat="43.82007" lon="5.52313">
        <ele>1037.4</ele>
        <time>2022-08-24T08:10:06Z</time>
      </trkpt>
      <trkpt lat="43.8201" lon="5.52321">
        <ele>1036.3</ele>
        <time>2022-08-24T08:10:07Z</time>
      </trkpt>
      <trkpt lat="43.82013" lon="5.52331">
        <ele>1035.2</ele>
        <time>2022-08-24T08:10:08Z</time>
      </trkpt>
      <trkpt lat="43.82016" lon="5.52341">
        <ele>1034.5</ele>
        <time>2022-08-24T08:10:09Z</time>
      </trkpt>
      <trkpt lat="43.82019" lon="5.52352">
        <ele>1033.7</ele>
        <time>2022-08-24T08:10:10Z</time>
      </trkpt>
      <trkpt lat="43.82028" lon="5.52372">
        <ele>1032.6</ele>
        <time>2022-08-24T08:10:12Z</time>
      </trkpt>
      <trkpt lat="43.82031" lon="5.52382">
        <ele>1032.3</ele>
        <time>2022-08-24T08:10:13Z</time>
      </trkpt>
      <trkpt lat="43.82035" lon="5.52391">
        <ele>1032.4</ele>
        <time>2022-08-24T08:10:14Z</time>
      </trkpt>
      <trkpt lat="43.82038" lon="5.524">
        <ele>1033</ele>
        <time>2022-08-24T08:10:15Z</time>
      </trkpt>
      <trkpt lat="43.82042" lon="5.52406">
        <ele>1033.7</ele>
        <time>2022-08-24T08:10:16Z</time>
      </trkpt>
      <trkpt lat="43.82044" lon="5.52412">
        <ele>1034.4</ele>
        <time>2022-08-24T08:10:17Z</time>
      </trkpt>
      <trkpt lat="43.82047" lon="5.5242">
        <ele>1035.3</ele>
        <time>2022-08-24T08:10:19Z</time>
      </trkpt>
      <trkpt lat="43.82049" lon="5.52427">
        <ele>1036.2</ele>
        <time>2022-08-24T08:10:21Z</time>
      </trkpt>
      <trkpt lat="43.82052" lon="5.52434">
        <ele>1037.3</ele>
        <time>2022-08-24T08:10:24Z</time>
      </trkpt>
      <trkpt lat="43.82053" lon="5.52442">
        <ele>1038.2</ele>
        <time>2022-08-24T08:10:27Z</time>
      </trkpt>
      <trkpt lat="43.82055" lon="5.5245">
        <ele>1039.5</ele>
        <time>2022-08-24T08:10:30Z</time>
      </trkpt>
      <trkpt lat="43.82056" lon="5.52458">
        <ele>1040.4</ele>
        <time>2022-08-24T08:10:33Z</time>
      </trkpt>
      <trkpt lat="43.82057" lon="5.52466">
        <ele>1041.3</ele>
        <time>2022-08-24T08:10:36Z</time>
      </trkpt>
      <trkpt lat="43.82056" lon="5.52475">
        <ele>1042.1</ele>
        <time>2022-08-24T08:10:39Z</time>
      </trkpt>
      <trkpt lat="43.82055" lon="5.52483">
        <ele>1042.2</ele>
        <time>2022-08-24T08:10:42Z</time>
      </trkpt>
      <trkpt lat="43.82053" lon="5.5249">
        <ele>1042.3</ele>
        <time>2022-08-24T08:10:44Z</time>
      </trkpt>
      <trkpt lat="43.82052" lon="5.52497">
        <ele>1042.4</ele>
        <time>2022-08-24T08:10:46Z</time>
      </trkpt>
      <trkpt lat="43.8205" lon="5.52504">
        <ele>1042.4</ele>
        <time>2022-08-24T08:10:48Z</time>
      </trkpt>
      <trkpt lat="43.82049" lon="5.5251">
        <ele>1042.6</ele>
        <time>2022-08-24T08:10:50Z</time>
      </trkpt>
      <trkpt lat="43.82049" lon="5.52518">
        <ele>1043</ele>
        <time>2022-08-24T08:10:52Z</time>
      </trkpt>
      <trkpt lat="43.82048" lon="5.52525">
        <ele>1043.3</ele>
        <time>2022-08-24T08:10:54Z</time>
      </trkpt>
      <trkpt lat="43.82047" lon="5.52532">
        <ele>1043.6</ele>
        <time>2022-08-24T08:10:56Z</time>
      </trkpt>
      <trkpt lat="43.82044" lon="5.5254">
        <ele>1043.8</ele>
        <time>2022-08-24T08:10:58Z</time>
      </trkpt>
      <trkpt lat="43.82043" lon="5.52547">
        <ele>1044.1</ele>
        <time>2022-08-24T08:11:00Z</time>
      </trkpt>
      <trkpt lat="43.82042" lon="5.52554">
        <ele>1044.4</ele>
        <time>2022-08-24T08:11:02Z</time>
      </trkpt>
      <trkpt lat="43.82039" lon="5.52561">
        <ele>1044.7</ele>
        <time>2022-08-24T08:11:04Z</time>
      </trkpt>
      <trkpt lat="43.82036" lon="5.52567">
        <ele>1045</ele>
        <time>2022-08-24T08:11:06Z</time>
      </trkpt>
      <trkpt lat="43.82033" lon="5.52575">
        <ele>1045.8</ele>
        <time>2022-08-24T08:11:09Z</time>
      </trkpt>
      <trkpt lat="43.82031" lon="5.52582">
        <ele>1046.5</ele>
        <time>2022-08-24T08:11:11Z</time>
      </trkpt>
      <trkpt lat="43.82029" lon="5.5259">
        <ele>1047.4</ele>
        <time>2022-08-24T08:11:14Z</time>
      </trkpt>
      <trkpt lat="43.82027" lon="5.52597">
        <ele>1047.9</ele>
        <time>2022-08-24T08:11:16Z</time>
      </trkpt>
      <trkpt lat="43.82026" lon="5.52603">
        <ele>1048.2</ele>
        <time>2022-08-24T08:11:18Z</time>
      </trkpt>
      <trkpt lat="43.82024" lon="5.52612">
        <ele>1048.6</ele>
        <time>2022-08-24T08:11:21Z</time>
      </trkpt>
      <trkpt lat="43.82022" lon="5.52618">
        <ele>1048.6</ele>
        <time>2022-08-24T08:11:23Z</time>
      </trkpt>
      <trkpt lat="43.8202" lon="5.52624">
        <ele>1048.7</ele>
        <time>2022-08-24T08:11:25Z</time>
      </trkpt>
      <trkpt lat="43.82018" lon="5.5263">
        <ele>1048.9</ele>
        <time>2022-08-24T08:11:27Z</time>
      </trkpt>
      <trkpt lat="43.82016" lon="5.52636">
        <ele>1049.2</ele>
        <time>2022-08-24T08:11:29Z</time>
      </trkpt>
      <trkpt lat="43.82013" lon="5.5264">
        <ele>1049.6</ele>
        <time>2022-08-24T08:11:31Z</time>
      </trkpt>
      <trkpt lat="43.8201" lon="5.52646">
        <ele>1050.1</ele>
        <time>2022-08-24T08:11:33Z</time>
      </trkpt>
      <trkpt lat="43.82007" lon="5.52652">
        <ele>1050.7</ele>
        <time>2022-08-24T08:11:35Z</time>
      </trkpt>
      <trkpt lat="43.82006" lon="5.52659">
        <ele>1051.3</ele>
        <time>2022-08-24T08:11:37Z</time>
      </trkpt>
      <trkpt lat="43.82005" lon="5.52665">
        <ele>1051.9</ele>
        <time>2022-08-24T08:11:39Z</time>
      </trkpt>
      <trkpt lat="43.82003" lon="5.52671">
        <ele>1052.3</ele>
        <time>2022-08-24T08:11:41Z</time>
      </trkpt>
      <trkpt lat="43.82002" lon="5.52677">
        <ele>1052.7</ele>
        <time>2022-08-24T08:11:43Z</time>
      </trkpt>
      <trkpt lat="43.82" lon="5.52684">
        <ele>1052.9</ele>
        <time>2022-08-24T08:11:45Z</time>
      </trkpt>
      <trkpt lat="43.81998" lon="5.52692">
        <ele>1052.8</ele>
        <time>2022-08-24T08:11:47Z</time>
      </trkpt>
      <trkpt lat="43.81997" lon="5.52701">
        <ele>1052.1</ele>
        <time>2022-08-24T08:11:49Z</time>
      </trkpt>
      <trkpt lat="43.81997" lon="5.52713">
        <ele>1050.9</ele>
        <time>2022-08-24T08:11:51Z</time>
      </trkpt>
      <trkpt lat="43.81996" lon="5.5272">
        <ele>1050.2</ele>
        <time>2022-08-24T08:11:52Z</time>
      </trkpt>
      <trkpt lat="43.81995" lon="5.52727">
        <ele>1049.6</ele>
        <time>2022-08-24T08:11:53Z</time>
      </trkpt>
      <trkpt lat="43.81994" lon="5.52735">
        <ele>1049</ele>
        <time>2022-08-24T08:11:54Z</time>
      </trkpt>
      <trkpt lat="43.81992" lon="5.52742">
        <ele>1048.5</ele>
        <time>2022-08-24T08:11:55Z</time>
      </trkpt>
      <trkpt lat="43.8199" lon="5.5275">
        <ele>1048.1</ele>
        <time>2022-08-24T08:11:56Z</time>
      </trkpt>
      <trkpt lat="43.81991" lon="5.52758">
        <ele>1047.6</ele>
        <time>2022-08-24T08:11:57Z</time>
      </trkpt>
      <trkpt lat="43.81989" lon="5.52765">
        <ele>1047.5</ele>
        <time>2022-08-24T08:11:58Z</time>
      </trkpt>
      <trkpt lat="43.81988" lon="5.52772">
        <ele>1047.4</ele>
        <time>2022-08-24T08:11:59Z</time>
      </trkpt>
      <trkpt lat="43.81987" lon="5.52778">
        <ele>1047.4</ele>
        <time>2022-08-24T08:12:00Z</time>
      </trkpt>
      <trkpt lat="43.81986" lon="5.52784">
        <ele>1046.8</ele>
        <time>2022-08-24T08:12:01Z</time>
      </trkpt>
      <trkpt lat="43.81984" lon="5.52792">
        <ele>1046.3</ele>
        <time>2022-08-24T08:12:02Z</time>
      </trkpt>
      <trkpt lat="43.81983" lon="5.52798">
        <ele>1045.9</ele>
        <time>2022-08-24T08:12:03Z</time>
      </trkpt>
      <trkpt lat="43.81981" lon="5.52806">
        <ele>1045.4</ele>
        <time>2022-08-24T08:12:04Z</time>
      </trkpt>
      <trkpt lat="43.81979" lon="5.52812">
        <ele>1045</ele>
        <time>2022-08-24T08:12:05Z</time>
      </trkpt>
      <trkpt lat="43.81978" lon="5.52821">
        <ele>1044.3</ele>
        <time>2022-08-24T08:12:06Z</time>
      </trkpt>
      <trkpt lat="43.81977" lon="5.5283">
        <ele>1043.6</ele>
        <time>2022-08-24T08:12:07Z</time>
      </trkpt>
      <trkpt lat="43.81975" lon="5.52838">
        <ele>1042.9</ele>
        <time>2022-08-24T08:12:08Z</time>
      </trkpt>
      <trkpt lat="43.81974" lon="5.52848">
        <ele>1041.7</ele>
        <time>2022-08-24T08:12:09Z</time>
      </trkpt>
      <trkpt lat="43.81973" lon="5.52858">
        <ele>1040.3</ele>
        <time>2022-08-24T08:12:10Z</time>
      </trkpt>
      <trkpt lat="43.81972" lon="5.5287">
        <ele>1039.4</ele>
        <time>2022-08-24T08:12:11Z</time>
      </trkpt>
      <trkpt lat="43.81973" lon="5.52882">
        <ele>1038.5</ele>
        <time>2022-08-24T08:12:12Z</time>
      </trkpt>
      <trkpt lat="43.81972" lon="5.52893">
        <ele>1038</ele>
        <time>2022-08-24T08:12:13Z</time>
      </trkpt>
      <trkpt lat="43.81971" lon="5.52904">
        <ele>1038</ele>
        <time>2022-08-24T08:12:14Z</time>
      </trkpt>
      <trkpt lat="43.81971" lon="5.52914">
        <ele>1038</ele>
        <time>2022-08-24T08:12:15Z</time>
      </trkpt>
      <trkpt lat="43.81972" lon="5.52922">
        <ele>1039</ele>
        <time>2022-08-24T08:12:16Z</time>
      </trkpt>
      <trkpt lat="43.81973" lon="5.52931">
        <ele>1040.6</ele>
        <time>2022-08-24T08:12:18Z</time>
      </trkpt>
      <trkpt lat="43.81972" lon="5.52938">
        <ele>1041.8</ele>
        <time>2022-08-24T08:12:20Z</time>
      </trkpt>
      <trkpt lat="43.81973" lon="5.52946">
        <ele>1043.3</ele>
        <time>2022-08-24T08:12:23Z</time>
      </trkpt>
      <trkpt lat="43.81976" lon="5.52953">
        <ele>1044.4</ele>
        <time>2022-08-24T08:12:26Z</time>
      </trkpt>
      <trkpt lat="43.81977" lon="5.52962">
        <ele>1045.9</ele>
        <time>2022-08-24T08:12:29Z</time>
      </trkpt>
      <trkpt lat="43.81977" lon="5.52969">
        <ele>1047.3</ele>
        <time>2022-08-24T08:12:32Z</time>
      </trkpt>
      <trkpt lat="43.81978" lon="5.52977">
        <ele>1048.7</ele>
        <time>2022-08-24T08:12:35Z</time>
      </trkpt>
      <trkpt lat="43.81979" lon="5.52985">
        <ele>1050.4</ele>
        <time>2022-08-24T08:12:38Z</time>
      </trkpt>
      <trkpt lat="43.81979" lon="5.52992">
        <ele>1052.1</ele>
        <time>2022-08-24T08:12:41Z</time>
      </trkpt>
      <trkpt lat="43.81979" lon="5.52999">
        <ele>1053.5</ele>
        <time>2022-08-24T08:12:44Z</time>
      </trkpt>
      <trkpt lat="43.8198" lon="5.53006">
        <ele>1054.5</ele>
        <time>2022-08-24T08:12:47Z</time>
      </trkpt>
      <trkpt lat="43.81979" lon="5.53013">
        <ele>1055.6</ele>
        <time>2022-08-24T08:12:50Z</time>
      </trkpt>
      <trkpt lat="43.81978" lon="5.53021">
        <ele>1056.8</ele>
        <time>2022-08-24T08:12:53Z</time>
      </trkpt>
      <trkpt lat="43.81975" lon="5.53028">
        <ele>1058</ele>
        <time>2022-08-24T08:12:56Z</time>
      </trkpt>
      <trkpt lat="43.81974" lon="5.53036">
        <ele>1059</ele>
        <time>2022-08-24T08:12:59Z</time>
      </trkpt>
      <trkpt lat="43.81974" lon="5.53043">
        <ele>1060</ele>
        <time>2022-08-24T08:13:02Z</time>
      </trkpt>
      <trkpt lat="43.81975" lon="5.5305">
        <ele>1060.9</ele>
        <time>2022-08-24T08:13:05Z</time>
      </trkpt>
      <trkpt lat="43.81976" lon="5.53057">
        <ele>1061.7</ele>
        <time>2022-08-24T08:13:08Z</time>
      </trkpt>
      <trkpt lat="43.81977" lon="5.53065">
        <ele>1062.2</ele>
        <time>2022-08-24T08:13:11Z</time>
      </trkpt>
      <trkpt lat="43.81976" lon="5.53073">
        <ele>1062.8</ele>
        <time>2022-08-24T08:13:14Z</time>
      </trkpt>
      <trkpt lat="43.81975" lon="5.5308">
        <ele>1063.4</ele>
        <time>2022-08-24T08:13:17Z</time>
      </trkpt>
      <trkpt lat="43.81973" lon="5.53087">
        <ele>1063.5</ele>
        <time>2022-08-24T08:13:21Z</time>
      </trkpt>
      <trkpt lat="43.8197" lon="5.53093">
        <ele>1062.7</ele>
        <time>2022-08-24T08:13:24Z</time>
      </trkpt>
      <trkpt lat="43.81966" lon="5.531">
        <ele>1061.6</ele>
        <time>2022-08-24T08:13:26Z</time>
      </trkpt>
      <trkpt lat="43.8196" lon="5.5311">
        <ele>1060.2</ele>
        <time>2022-08-24T08:13:28Z</time>
      </trkpt>
      <trkpt lat="43.81957" lon="5.53116">
        <ele>1059.3</ele>
        <time>2022-08-24T08:13:29Z</time>
      </trkpt>
      <trkpt lat="43.81955" lon="5.53122">
        <ele>1058.5</ele>
        <time>2022-08-24T08:13:30Z</time>
      </trkpt>
      <trkpt lat="43.81952" lon="5.53127">
        <ele>1057.7</ele>
        <time>2022-08-24T08:13:31Z</time>
      </trkpt>
      <trkpt lat="43.8195" lon="5.53139">
        <ele>1056.1</ele>
        <time>2022-08-24T08:13:33Z</time>
      </trkpt>
      <trkpt lat="43.81947" lon="5.53147">
        <ele>1054.9</ele>
        <time>2022-08-24T08:13:34Z</time>
      </trkpt>
      <trkpt lat="43.81943" lon="5.53155">
        <ele>1053.4</ele>
        <time>2022-08-24T08:13:35Z</time>
      </trkpt>
      <trkpt lat="43.81939" lon="5.53166">
        <ele>1051.3</ele>
        <time>2022-08-24T08:13:36Z</time>
      </trkpt>
      <trkpt lat="43.81935" lon="5.53177">
        <ele>1048.9</ele>
        <time>2022-08-24T08:13:37Z</time>
      </trkpt>
      <trkpt lat="43.81931" lon="5.53189">
        <ele>1046.5</ele>
        <time>2022-08-24T08:13:38Z</time>
      </trkpt>
      <trkpt lat="43.81928" lon="5.532">
        <ele>1044.3</ele>
        <time>2022-08-24T08:13:39Z</time>
      </trkpt>
      <trkpt lat="43.81926" lon="5.53208">
        <ele>1042.9</ele>
        <time>2022-08-24T08:13:40Z</time>
      </trkpt>
      <trkpt lat="43.81924" lon="5.53214">
        <ele>1041.8</ele>
        <time>2022-08-24T08:13:41Z</time>
      </trkpt>
      <trkpt lat="43.81921" lon="5.53219">
        <ele>1040.8</ele>
        <time>2022-08-24T08:13:42Z</time>
      </trkpt>
      <trkpt lat="43.81916" lon="5.53227">
        <ele>1039.1</ele>
        <time>2022-08-24T08:13:44Z</time>
      </trkpt>
      <trkpt lat="43.8191" lon="5.53233">
        <ele>1037.5</ele>
        <time>2022-08-24T08:13:46Z</time>
      </trkpt>
      <trkpt lat="43.81904" lon="5.53239">
        <ele>1035.8</ele>
        <time>2022-08-24T08:13:48Z</time>
      </trkpt>
      <trkpt lat="43.819" lon="5.53243">
        <ele>1034.9</ele>
        <time>2022-08-24T08:13:49Z</time>
      </trkpt>
      <trkpt lat="43.81895" lon="5.53249">
        <ele>1033.7</ele>
        <time>2022-08-24T08:13:51Z</time>
      </trkpt>
      <trkpt lat="43.81892" lon="5.53255">
        <ele>1032.3</ele>
        <time>2022-08-24T08:13:53Z</time>
      </trkpt>
      <trkpt lat="43.8189" lon="5.53263">
        <ele>1030.7</ele>
        <time>2022-08-24T08:13:56Z</time>
      </trkpt>
      <trkpt lat="43.81884" lon="5.53266">
        <ele>1029.5</ele>
        <time>2022-08-24T08:13:58Z</time>
      </trkpt>
      <trkpt lat="43.8188" lon="5.53274">
        <ele>1027.7</ele>
        <time>2022-08-24T08:14:00Z</time>
      </trkpt>
      <trkpt lat="43.81873" lon="5.53276">
        <ele>1026.6</ele>
        <time>2022-08-24T08:14:02Z</time>
      </trkpt>
      <trkpt lat="43.81871" lon="5.53283">
        <ele>1025.2</ele>
        <time>2022-08-24T08:14:03Z</time>
      </trkpt>
      <trkpt lat="43.81869" lon="5.53292">
        <ele>1023.7</ele>
        <time>2022-08-24T08:14:04Z</time>
      </trkpt>
      <trkpt lat="43.81865" lon="5.533">
        <ele>1022.1</ele>
        <time>2022-08-24T08:14:05Z</time>
      </trkpt>
      <trkpt lat="43.8186" lon="5.53309">
        <ele>1020.2</ele>
        <time>2022-08-24T08:14:06Z</time>
      </trkpt>
      <trkpt lat="43.81855" lon="5.53317">
        <ele>1018.3</ele>
        <time>2022-08-24T08:14:07Z</time>
      </trkpt>
      <trkpt lat="43.81848" lon="5.53328">
        <ele>1015.9</ele>
        <time>2022-08-24T08:14:08Z</time>
      </trkpt>
      <trkpt lat="43.8184" lon="5.53339">
        <ele>1013.6</ele>
        <time>2022-08-24T08:14:09Z</time>
      </trkpt>
      <trkpt lat="43.81833" lon="5.53348">
        <ele>1011.8</ele>
        <time>2022-08-24T08:14:10Z</time>
      </trkpt>
      <trkpt lat="43.81828" lon="5.53359">
        <ele>1009.9</ele>
        <time>2022-08-24T08:14:11Z</time>
      </trkpt>
      <trkpt lat="43.81823" lon="5.53371">
        <ele>1008.5</ele>
        <time>2022-08-24T08:14:12Z</time>
      </trkpt>
      <trkpt lat="43.81821" lon="5.53385">
        <ele>1007.3</ele>
        <time>2022-08-24T08:14:13Z</time>
      </trkpt>
      <trkpt lat="43.81821" lon="5.53398">
        <ele>1007</ele>
        <time>2022-08-24T08:14:14Z</time>
      </trkpt>
      <trkpt lat="43.81821" lon="5.53411">
        <ele>1007</ele>
        <time>2022-08-24T08:14:15Z</time>
      </trkpt>
      <trkpt lat="43.81822" lon="5.53423">
        <ele>1007.6</ele>
        <time>2022-08-24T08:14:16Z</time>
      </trkpt>
      <trkpt lat="43.81823" lon="5.53432">
        <ele>1008.5</ele>
        <time>2022-08-24T08:14:17Z</time>
      </trkpt>
      <trkpt lat="43.81824" lon="5.5344">
        <ele>1009.2</ele>
        <time>2022-08-24T08:14:18Z</time>
      </trkpt>
      <trkpt lat="43.81824" lon="5.53449">
        <ele>1010.4</ele>
        <time>2022-08-24T08:14:20Z</time>
      </trkpt>
      <trkpt lat="43.81825" lon="5.53455">
        <ele>1011.6</ele>
        <time>2022-08-24T08:14:23Z</time>
      </trkpt>
      <trkpt lat="43.81823" lon="5.53463">
        <ele>1012.9</ele>
        <time>2022-08-24T08:14:26Z</time>
      </trkpt>
      <trkpt lat="43.81823" lon="5.53471">
        <ele>1014.4</ele>
        <time>2022-08-24T08:14:29Z</time>
      </trkpt>
      <trkpt lat="43.81824" lon="5.53478">
        <ele>1015.5</ele>
        <time>2022-08-24T08:14:32Z</time>
      </trkpt>
      <trkpt lat="43.81825" lon="5.53485">
        <ele>1016.5</ele>
        <time>2022-08-24T08:14:35Z</time>
      </trkpt>
      <trkpt lat="43.81825" lon="5.53493">
        <ele>1017.7</ele>
        <time>2022-08-24T08:14:38Z</time>
      </trkpt>
      <trkpt lat="43.81825" lon="5.53501">
        <ele>1018.8</ele>
        <time>2022-08-24T08:14:41Z</time>
      </trkpt>
      <trkpt lat="43.81825" lon="5.53508">
        <ele>1020.1</ele>
        <time>2022-08-24T08:14:44Z</time>
      </trkpt>
      <trkpt lat="43.81825" lon="5.53516">
        <ele>1021.4</ele>
        <time>2022-08-24T08:14:47Z</time>
      </trkpt>
      <trkpt lat="43.81825" lon="5.53523">
        <ele>1022.6</ele>
        <time>2022-08-24T08:14:50Z</time>
      </trkpt>
      <trkpt lat="43.81825" lon="5.53532">
        <ele>1024.2</ele>
        <time>2022-08-24T08:14:54Z</time>
      </trkpt>
      <trkpt lat="43.81825" lon="5.5354">
        <ele>1025.9</ele>
        <time>2022-08-24T08:14:57Z</time>
      </trkpt>
      <trkpt lat="43.81826" lon="5.53547">
        <ele>1027.4</ele>
        <time>2022-08-24T08:15:00Z</time>
      </trkpt>
      <trkpt lat="43.81825" lon="5.53555">
        <ele>1029</ele>
        <time>2022-08-24T08:15:03Z</time>
      </trkpt>
      <trkpt lat="43.81825" lon="5.53563">
        <ele>1030.6</ele>
        <time>2022-08-24T08:15:06Z</time>
      </trkpt>
      <trkpt lat="43.81826" lon="5.53569">
        <ele>1032.2</ele>
        <time>2022-08-24T08:15:09Z</time>
      </trkpt>
      <trkpt lat="43.81825" lon="5.53577">
        <ele>1033.7</ele>
        <time>2022-08-24T08:15:12Z</time>
      </trkpt>
      <trkpt lat="43.81823" lon="5.53584">
        <ele>1034.9</ele>
        <time>2022-08-24T08:15:15Z</time>
      </trkpt>
      <trkpt lat="43.81822" lon="5.53591">
        <ele>1035.4</ele>
        <time>2022-08-24T08:15:18Z</time>
      </trkpt>
      <trkpt lat="43.81822" lon="5.53599">
        <ele>1036</ele>
        <time>2022-08-24T08:15:21Z</time>
      </trkpt>
      <trkpt lat="43.81823" lon="5.53607">
        <ele>1036.7</ele>
        <time>2022-08-24T08:15:24Z</time>
      </trkpt>
      <trkpt lat="43.81824" lon="5.53617">
        <ele>1036.9</ele>
        <time>2022-08-24T08:15:27Z</time>
      </trkpt>
      <trkpt lat="43.81826" lon="5.53626">
        <ele>1036.6</ele>
        <time>2022-08-24T08:15:29Z</time>
      </trkpt>
      <trkpt lat="43.8183" lon="5.53635">
        <ele>1036.2</ele>
        <time>2022-08-24T08:15:31Z</time>
      </trkpt>
      <trkpt lat="43.81834" lon="5.53644">
        <ele>1036</ele>
        <time>2022-08-24T08:15:33Z</time>
      </trkpt>
      <trkpt lat="43.81836" lon="5.53651">
        <ele>1036</ele>
        <time>2022-08-24T08:15:35Z</time>
      </trkpt>
      <trkpt lat="43.81836" lon="5.5366">
        <ele>1036</ele>
        <time>2022-08-24T08:15:38Z</time>
      </trkpt>
      <trkpt lat="43.81836" lon="5.53667">
        <ele>1036</ele>
        <time>2022-08-24T08:15:40Z</time>
      </trkpt>
      <trkpt lat="43.81835" lon="5.53674">
        <ele>1035.7</ele>
        <time>2022-08-24T08:15:42Z</time>
      </trkpt>
      <trkpt lat="43.81834" lon="5.53682">
        <ele>1035.4</ele>
        <time>2022-08-24T08:15:45Z</time>
      </trkpt>
      <trkpt lat="43.81829" lon="5.53687">
        <ele>1035</ele>
        <time>2022-08-24T08:15:48Z</time>
      </trkpt>
      <trkpt lat="43.81824" lon="5.53692">
        <ele>1034.5</ele>
        <time>2022-08-24T08:15:51Z</time>
      </trkpt>
      <trkpt lat="43.81825" lon="5.53699">
        <ele>1034.2</ele>
        <time>2022-08-24T08:15:53Z</time>
      </trkpt>
      <trkpt lat="43.81828" lon="5.53706">
        <ele>1034.1</ele>
        <time>2022-08-24T08:15:55Z</time>
      </trkpt>
      <trkpt lat="43.81831" lon="5.53715">
        <ele>1034</ele>
        <time>2022-08-24T08:15:57Z</time>
      </trkpt>
      <trkpt lat="43.81834" lon="5.53723">
        <ele>1034</ele>
        <time>2022-08-24T08:15:59Z</time>
      </trkpt>
      <trkpt lat="43.81836" lon="5.53732">
        <ele>1033.6</ele>
        <time>2022-08-24T08:16:01Z</time>
      </trkpt>
      <trkpt lat="43.81838" lon="5.53741">
        <ele>1033.1</ele>
        <time>2022-08-24T08:16:03Z</time>
      </trkpt>
      <trkpt lat="43.81841" lon="5.53749">
        <ele>1032.9</ele>
        <time>2022-08-24T08:16:05Z</time>
      </trkpt>
      <trkpt lat="43.81844" lon="5.53759">
        <ele>1032.5</ele>
        <time>2022-08-24T08:16:07Z</time>
      </trkpt>
      <trkpt lat="43.81847" lon="5.53768">
        <ele>1032.2</ele>
        <time>2022-08-24T08:16:09Z</time>
      </trkpt>
      <trkpt lat="43.8185" lon="5.53778">
        <ele>1031.8</ele>
        <time>2022-08-24T08:16:11Z</time>
      </trkpt>
      <trkpt lat="43.81854" lon="5.53785">
        <ele>1031.4</ele>
        <time>2022-08-24T08:16:13Z</time>
      </trkpt>
      <trkpt lat="43.81857" lon="5.53792">
        <ele>1031</ele>
        <time>2022-08-24T08:16:15Z</time>
      </trkpt>
      <trkpt lat="43.8186" lon="5.53802">
        <ele>1030.4</ele>
        <time>2022-08-24T08:16:17Z</time>
      </trkpt>
      <trkpt lat="43.81862" lon="5.53808">
        <ele>1029.6</ele>
        <time>2022-08-24T08:16:18Z</time>
      </trkpt>
      <trkpt lat="43.81865" lon="5.53816">
        <ele>1028.3</ele>
        <time>2022-08-24T08:16:19Z</time>
      </trkpt>
      <trkpt lat="43.81868" lon="5.53824">
        <ele>1027.1</ele>
        <time>2022-08-24T08:16:20Z</time>
      </trkpt>
      <trkpt lat="43.81872" lon="5.53832">
        <ele>1025.7</ele>
        <time>2022-08-24T08:16:21Z</time>
      </trkpt>
      <trkpt lat="43.81875" lon="5.53843">
        <ele>1024.5</ele>
        <time>2022-08-24T08:16:22Z</time>
      </trkpt>
      <trkpt lat="43.81876" lon="5.53854">
        <ele>1023.3</ele>
        <time>2022-08-24T08:16:23Z</time>
      </trkpt>
      <trkpt lat="43.81876" lon="5.53865">
        <ele>1022</ele>
        <time>2022-08-24T08:16:24Z</time>
      </trkpt>
      <trkpt lat="43.81877" lon="5.53877">
        <ele>1020.6</ele>
        <time>2022-08-24T08:16:25Z</time>
      </trkpt>
      <trkpt lat="43.81876" lon="5.53889">
        <ele>1019.1</ele>
        <time>2022-08-24T08:16:26Z</time>
      </trkpt>
      <trkpt lat="43.81874" lon="5.53901">
        <ele>1017.8</ele>
        <time>2022-08-24T08:16:27Z</time>
      </trkpt>
      <trkpt lat="43.81871" lon="5.53912">
        <ele>1016.8</ele>
        <time>2022-08-24T08:16:28Z</time>
      </trkpt>
      <trkpt lat="43.81868" lon="5.5392">
        <ele>1015.9</ele>
        <time>2022-08-24T08:16:29Z</time>
      </trkpt>
      <trkpt lat="43.81865" lon="5.53926">
        <ele>1015.1</ele>
        <time>2022-08-24T08:16:30Z</time>
      </trkpt>
      <trkpt lat="43.81861" lon="5.5393">
        <ele>1014.5</ele>
        <time>2022-08-24T08:16:31Z</time>
      </trkpt>
      <trkpt lat="43.81855" lon="5.53936">
        <ele>1013.1</ele>
        <time>2022-08-24T08:16:33Z</time>
      </trkpt>
      <trkpt lat="43.8185" lon="5.53941">
        <ele>1011.8</ele>
        <time>2022-08-24T08:16:35Z</time>
      </trkpt>
      <trkpt lat="43.81849" lon="5.5395">
        <ele>1010.4</ele>
        <time>2022-08-24T08:16:37Z</time>
      </trkpt>
      <trkpt lat="43.81849" lon="5.53958">
        <ele>1009</ele>
        <time>2022-08-24T08:16:39Z</time>
      </trkpt>
      <trkpt lat="43.81848" lon="5.53964">
        <ele>1007.9</ele>
        <time>2022-08-24T08:16:40Z</time>
      </trkpt>
      <trkpt lat="43.81845" lon="5.5397">
        <ele>1006.6</ele>
        <time>2022-08-24T08:16:41Z</time>
      </trkpt>
      <trkpt lat="43.81844" lon="5.53976">
        <ele>1005.6</ele>
        <time>2022-08-24T08:16:42Z</time>
      </trkpt>
      <trkpt lat="43.81843" lon="5.53987">
        <ele>1004</ele>
        <time>2022-08-24T08:16:44Z</time>
      </trkpt>
      <trkpt lat="43.8184" lon="5.53992">
        <ele>1002.9</ele>
        <time>2022-08-24T08:16:45Z</time>
      </trkpt>
      <trkpt lat="43.81836" lon="5.53998">
        <ele>1001.6</ele>
        <time>2022-08-24T08:16:47Z</time>
      </trkpt>
      <trkpt lat="43.81835" lon="5.54009">
        <ele>999.8</ele>
        <time>2022-08-24T08:16:49Z</time>
      </trkpt>
      <trkpt lat="43.81834" lon="5.54017">
        <ele>998.6</ele>
        <time>2022-08-24T08:16:50Z</time>
      </trkpt>
      <trkpt lat="43.81833" lon="5.54027">
        <ele>997.1</ele>
        <time>2022-08-24T08:16:51Z</time>
      </trkpt>
      <trkpt lat="43.8183" lon="5.54031">
        <ele>995.9</ele>
        <time>2022-08-24T08:16:53Z</time>
      </trkpt>
      <trkpt lat="43.81828" lon="5.5404">
        <ele>994.1</ele>
        <time>2022-08-24T08:16:55Z</time>
      </trkpt>
      <trkpt lat="43.81825" lon="5.54048">
        <ele>992.4</ele>
        <time>2022-08-24T08:16:57Z</time>
      </trkpt>
      <trkpt lat="43.81826" lon="5.54058">
        <ele>990.8</ele>
        <time>2022-08-24T08:16:59Z</time>
      </trkpt>
      <trkpt lat="43.81823" lon="5.54064">
        <ele>989.7</ele>
        <time>2022-08-24T08:17:01Z</time>
      </trkpt>
      <trkpt lat="43.81818" lon="5.54076">
        <ele>987.4</ele>
        <time>2022-08-24T08:17:03Z</time>
      </trkpt>
      <trkpt lat="43.81817" lon="5.54087">
        <ele>985.7</ele>
        <time>2022-08-24T08:17:05Z</time>
      </trkpt>
      <trkpt lat="43.81814" lon="5.54095">
        <ele>984.6</ele>
        <time>2022-08-24T08:17:07Z</time>
      </trkpt>
      <trkpt lat="43.81813" lon="5.54101">
        <ele>983.7</ele>
        <time>2022-08-24T08:17:08Z</time>
      </trkpt>
      <trkpt lat="43.81811" lon="5.54111">
        <ele>982.4</ele>
        <time>2022-08-24T08:17:10Z</time>
      </trkpt>
      <trkpt lat="43.81807" lon="5.54116">
        <ele>981.5</ele>
        <time>2022-08-24T08:17:11Z</time>
      </trkpt>
      <trkpt lat="43.81802" lon="5.54124">
        <ele>979.9</ele>
        <time>2022-08-24T08:17:13Z</time>
      </trkpt>
      <trkpt lat="43.81796" lon="5.54131">
        <ele>978.4</ele>
        <time>2022-08-24T08:17:15Z</time>
      </trkpt>
      <trkpt lat="43.81789" lon="5.54138">
        <ele>976.9</ele>
        <time>2022-08-24T08:17:17Z</time>
      </trkpt>
      <trkpt lat="43.81781" lon="5.54142">
        <ele>976</ele>
        <time>2022-08-24T08:17:19Z</time>
      </trkpt>
      <trkpt lat="43.81778" lon="5.54154">
        <ele>974.4</ele>
        <time>2022-08-24T08:17:21Z</time>
      </trkpt>
      <trkpt lat="43.81774" lon="5.5416">
        <ele>973.6</ele>
        <time>2022-08-24T08:17:22Z</time>
      </trkpt>
      <trkpt lat="43.8177" lon="5.54166">
        <ele>973.1</ele>
        <time>2022-08-24T08:17:23Z</time>
      </trkpt>
      <trkpt lat="43.81767" lon="5.54172">
        <ele>972.7</ele>
        <time>2022-08-24T08:17:24Z</time>
      </trkpt>
      <trkpt lat="43.81765" lon="5.5418">
        <ele>972.3</ele>
        <time>2022-08-24T08:17:25Z</time>
      </trkpt>
      <trkpt lat="43.81764" lon="5.5419">
        <ele>971.7</ele>
        <time>2022-08-24T08:17:26Z</time>
      </trkpt>
      <trkpt lat="43.81765" lon="5.54199">
        <ele>971</ele>
        <time>2022-08-24T08:17:27Z</time>
      </trkpt>
      <trkpt lat="43.81765" lon="5.54208">
        <ele>970.2</ele>
        <time>2022-08-24T08:17:28Z</time>
      </trkpt>
      <trkpt lat="43.81766" lon="5.54216">
        <ele>969.3</ele>
        <time>2022-08-24T08:17:29Z</time>
      </trkpt>
      <trkpt lat="43.81766" lon="5.54224">
        <ele>968.7</ele>
        <time>2022-08-24T08:17:30Z</time>
      </trkpt>
      <trkpt lat="43.81765" lon="5.5423">
        <ele>968.4</ele>
        <time>2022-08-24T08:17:31Z</time>
      </trkpt>
      <trkpt lat="43.81766" lon="5.54241">
        <ele>967.6</ele>
        <time>2022-08-24T08:17:33Z</time>
      </trkpt>
      <trkpt lat="43.8177" lon="5.54247">
        <ele>966.6</ele>
        <time>2022-08-24T08:17:34Z</time>
      </trkpt>
      <trkpt lat="43.81773" lon="5.54254">
        <ele>965.4</ele>
        <time>2022-08-24T08:17:35Z</time>
      </trkpt>
      <trkpt lat="43.81775" lon="5.54261">
        <ele>964.2</ele>
        <time>2022-08-24T08:17:36Z</time>
      </trkpt>
      <trkpt lat="43.81775" lon="5.54269">
        <ele>963.5</ele>
        <time>2022-08-24T08:17:37Z</time>
      </trkpt>
      <trkpt lat="43.81773" lon="5.54277">
        <ele>962.9</ele>
        <time>2022-08-24T08:17:38Z</time>
      </trkpt>
      <trkpt lat="43.81773" lon="5.54283">
        <ele>962.3</ele>
        <time>2022-08-24T08:17:39Z</time>
      </trkpt>
      <trkpt lat="43.81778" lon="5.54297">
        <ele>959.9</ele>
        <time>2022-08-24T08:17:41Z</time>
      </trkpt>
      <trkpt lat="43.8178" lon="5.54304">
        <ele>958.8</ele>
        <time>2022-08-24T08:17:42Z</time>
      </trkpt>
      <trkpt lat="43.81784" lon="5.5431">
        <ele>957.5</ele>
        <time>2022-08-24T08:17:43Z</time>
      </trkpt>
      <trkpt lat="43.81784" lon="5.5432">
        <ele>956.5</ele>
        <time>2022-08-24T08:17:44Z</time>
      </trkpt>
      <trkpt lat="43.81784" lon="5.5433">
        <ele>955.5</ele>
        <time>2022-08-24T08:17:45Z</time>
      </trkpt>
      <trkpt lat="43.81783" lon="5.54339">
        <ele>955.1</ele>
        <time>2022-08-24T08:17:46Z</time>
      </trkpt>
      <trkpt lat="43.81783" lon="5.54347">
        <ele>954.7</ele>
        <time>2022-08-24T08:17:47Z</time>
      </trkpt>
      <trkpt lat="43.81784" lon="5.54358">
        <ele>954.2</ele>
        <time>2022-08-24T08:17:48Z</time>
      </trkpt>
      <trkpt lat="43.81782" lon="5.54367">
        <ele>954</ele>
        <time>2022-08-24T08:17:49Z</time>
      </trkpt>
      <trkpt lat="43.81781" lon="5.54377">
        <ele>953.5</ele>
        <time>2022-08-24T08:17:50Z</time>
      </trkpt>
      <trkpt lat="43.81778" lon="5.54387">
        <ele>953.1</ele>
        <time>2022-08-24T08:17:51Z</time>
      </trkpt>
      <trkpt lat="43.81775" lon="5.54397">
        <ele>951.9</ele>
        <time>2022-08-24T08:17:52Z</time>
      </trkpt>
      <trkpt lat="43.81772" lon="5.54405">
        <ele>950.8</ele>
        <time>2022-08-24T08:17:53Z</time>
      </trkpt>
      <trkpt lat="43.81769" lon="5.54411">
        <ele>949.9</ele>
        <time>2022-08-24T08:17:54Z</time>
      </trkpt>
      <trkpt lat="43.81767" lon="5.54417">
        <ele>949</ele>
        <time>2022-08-24T08:17:55Z</time>
      </trkpt>
      <trkpt lat="43.81765" lon="5.54423">
        <ele>948</ele>
        <time>2022-08-24T08:17:56Z</time>
      </trkpt>
      <trkpt lat="43.8176" lon="5.5443">
        <ele>946.8</ele>
        <time>2022-08-24T08:17:58Z</time>
      </trkpt>
      <trkpt lat="43.81757" lon="5.54439">
        <ele>945.2</ele>
        <time>2022-08-24T08:18:00Z</time>
      </trkpt>
      <trkpt lat="43.81757" lon="5.54446">
        <ele>944</ele>
        <time>2022-08-24T08:18:01Z</time>
      </trkpt>
      <trkpt lat="43.81761" lon="5.54464">
        <ele>940.8</ele>
        <time>2022-08-24T08:18:03Z</time>
      </trkpt>
      <trkpt lat="43.81759" lon="5.54471">
        <ele>939.5</ele>
        <time>2022-08-24T08:18:04Z</time>
      </trkpt>
      <trkpt lat="43.81757" lon="5.54479">
        <ele>939.3</ele>
        <time>2022-08-24T08:18:05Z</time>
      </trkpt>
      <trkpt lat="43.81753" lon="5.54487">
        <ele>939.5</ele>
        <time>2022-08-24T08:18:06Z</time>
      </trkpt>
      <trkpt lat="43.81749" lon="5.54492">
        <ele>939.7</ele>
        <time>2022-08-24T08:18:07Z</time>
      </trkpt>
      <trkpt lat="43.81744" lon="5.54495">
        <ele>939.8</ele>
        <time>2022-08-24T08:18:08Z</time>
      </trkpt>
      <trkpt lat="43.81739" lon="5.54497">
        <ele>939.8</ele>
        <time>2022-08-24T08:18:09Z</time>
      </trkpt>
      <trkpt lat="43.81733" lon="5.54497">
        <ele>939.8</ele>
        <time>2022-08-24T08:18:11Z</time>
      </trkpt>
      <trkpt lat="43.81726" lon="5.54497">
        <ele>939.8</ele>
        <time>2022-08-24T08:18:13Z</time>
      </trkpt>
      <trkpt lat="43.81719" lon="5.54498">
        <ele>939.8</ele>
        <time>2022-08-24T08:18:15Z</time>
      </trkpt>
      <trkpt lat="43.81712" lon="5.54499">
        <ele>939.9</ele>
        <time>2022-08-24T08:18:17Z</time>
      </trkpt>
      <trkpt lat="43.81706" lon="5.54502">
        <ele>940.6</ele>
        <time>2022-08-24T08:18:19Z</time>
      </trkpt>
      <trkpt lat="43.817" lon="5.54505">
        <ele>941.7</ele>
        <time>2022-08-24T08:18:21Z</time>
      </trkpt>
      <trkpt lat="43.81695" lon="5.54506">
        <ele>941.9</ele>
        <time>2022-08-24T08:18:23Z</time>
      </trkpt>
      <trkpt lat="43.81689" lon="5.54506">
        <ele>942.1</ele>
        <time>2022-08-24T08:18:25Z</time>
      </trkpt>
      <trkpt lat="43.81683" lon="5.54507">
        <ele>942.6</ele>
        <time>2022-08-24T08:18:27Z</time>
      </trkpt>
      <trkpt lat="43.81677" lon="5.54508">
        <ele>943.1</ele>
        <time>2022-08-24T08:18:29Z</time>
      </trkpt>
      <trkpt lat="43.8167" lon="5.5451">
        <ele>943.8</ele>
        <time>2022-08-24T08:18:31Z</time>
      </trkpt>
      <trkpt lat="43.81664" lon="5.54511">
        <ele>944.1</ele>
        <time>2022-08-24T08:18:33Z</time>
      </trkpt>
      <trkpt lat="43.81659" lon="5.54514">
        <ele>944.4</ele>
        <time>2022-08-24T08:18:35Z</time>
      </trkpt>
      <trkpt lat="43.81653" lon="5.54516">
        <ele>944.6</ele>
        <time>2022-08-24T08:18:37Z</time>
      </trkpt>
      <trkpt lat="43.81646" lon="5.54518">
        <ele>944.8</ele>
        <time>2022-08-24T08:18:39Z</time>
      </trkpt>
      <trkpt lat="43.81641" lon="5.54521">
        <ele>945.1</ele>
        <time>2022-08-24T08:18:41Z</time>
      </trkpt>
      <trkpt lat="43.81635" lon="5.54524">
        <ele>945.4</ele>
        <time>2022-08-24T08:18:43Z</time>
      </trkpt>
      <trkpt lat="43.8163" lon="5.54526">
        <ele>945.5</ele>
        <time>2022-08-24T08:18:45Z</time>
      </trkpt>
      <trkpt lat="43.81624" lon="5.54528">
        <ele>945.4</ele>
        <time>2022-08-24T08:18:47Z</time>
      </trkpt>
      <trkpt lat="43.81618" lon="5.54532">
        <ele>945.7</ele>
        <time>2022-08-24T08:18:49Z</time>
      </trkpt>
      <trkpt lat="43.81614" lon="5.54537">
        <ele>946.3</ele>
        <time>2022-08-24T08:18:51Z</time>
      </trkpt>
      <trkpt lat="43.81609" lon="5.54543">
        <ele>946.7</ele>
        <time>2022-08-24T08:18:53Z</time>
      </trkpt>
      <trkpt lat="43.81604" lon="5.54549">
        <ele>946.5</ele>
        <time>2022-08-24T08:18:55Z</time>
      </trkpt>
      <trkpt lat="43.816" lon="5.54557">
        <ele>946.6</ele>
        <time>2022-08-24T08:18:57Z</time>
      </trkpt>
      <trkpt lat="43.81596" lon="5.54565">
        <ele>947</ele>
        <time>2022-08-24T08:18:59Z</time>
      </trkpt>
      <trkpt lat="43.81593" lon="5.54574">
        <ele>947.7</ele>
        <time>2022-08-24T08:19:01Z</time>
      </trkpt>
      <trkpt lat="43.8159" lon="5.54584">
        <ele>948.3</ele>
        <time>2022-08-24T08:19:03Z</time>
      </trkpt>
      <trkpt lat="43.81587" lon="5.54594">
        <ele>948.3</ele>
        <time>2022-08-24T08:19:05Z</time>
      </trkpt>
      <trkpt lat="43.81583" lon="5.54604">
        <ele>948.1</ele>
        <time>2022-08-24T08:19:07Z</time>
      </trkpt>
      <trkpt lat="43.81582" lon="5.54616">
        <ele>948.4</ele>
        <time>2022-08-24T08:19:09Z</time>
      </trkpt>
      <trkpt lat="43.81581" lon="5.54628">
        <ele>948.2</ele>
        <time>2022-08-24T08:19:11Z</time>
      </trkpt>
      <trkpt lat="43.81581" lon="5.54634">
        <ele>948.4</ele>
        <time>2022-08-24T08:19:12Z</time>
      </trkpt>
      <trkpt lat="43.81582" lon="5.54645">
        <ele>949.3</ele>
        <time>2022-08-24T08:19:14Z</time>
      </trkpt>
      <trkpt lat="43.81584" lon="5.54651">
        <ele>950.2</ele>
        <time>2022-08-24T08:19:15Z</time>
      </trkpt>
      <trkpt lat="43.81585" lon="5.54663">
        <ele>950.7</ele>
        <time>2022-08-24T08:19:17Z</time>
      </trkpt>
      <trkpt lat="43.81588" lon="5.54675">
        <ele>951.1</ele>
        <time>2022-08-24T08:19:19Z</time>
      </trkpt>
      <trkpt lat="43.8159" lon="5.54681">
        <ele>951.5</ele>
        <time>2022-08-24T08:19:20Z</time>
      </trkpt>
      <trkpt lat="43.81592" lon="5.54693">
        <ele>951.3</ele>
        <time>2022-08-24T08:19:22Z</time>
      </trkpt>
      <trkpt lat="43.81593" lon="5.54705">
        <ele>951.1</ele>
        <time>2022-08-24T08:19:24Z</time>
      </trkpt>
      <trkpt lat="43.81593" lon="5.54717">
        <ele>950.5</ele>
        <time>2022-08-24T08:19:26Z</time>
      </trkpt>
      <trkpt lat="43.81592" lon="5.54724">
        <ele>950.2</ele>
        <time>2022-08-24T08:19:27Z</time>
      </trkpt>
      <trkpt lat="43.81592" lon="5.54731">
        <ele>950.4</ele>
        <time>2022-08-24T08:19:28Z</time>
      </trkpt>
      <trkpt lat="43.81592" lon="5.54738">
        <ele>950.5</ele>
        <time>2022-08-24T08:19:29Z</time>
      </trkpt>
      <trkpt lat="43.81591" lon="5.54745">
        <ele>950.5</ele>
        <time>2022-08-24T08:19:30Z</time>
      </trkpt>
      <trkpt lat="43.8159" lon="5.54752">
        <ele>950.6</ele>
        <time>2022-08-24T08:19:31Z</time>
      </trkpt>
      <trkpt lat="43.81587" lon="5.54758">
        <ele>950.7</ele>
        <time>2022-08-24T08:19:32Z</time>
      </trkpt>
      <trkpt lat="43.81585" lon="5.54765">
        <ele>950.9</ele>
        <time>2022-08-24T08:19:33Z</time>
      </trkpt>
      <trkpt lat="43.81582" lon="5.54771">
        <ele>950.9</ele>
        <time>2022-08-24T08:19:34Z</time>
      </trkpt>
      <trkpt lat="43.8158" lon="5.54778">
        <ele>950.8</ele>
        <time>2022-08-24T08:19:35Z</time>
      </trkpt>
      <trkpt lat="43.81578" lon="5.54784">
        <ele>951</ele>
        <time>2022-08-24T08:19:36Z</time>
      </trkpt>
      <trkpt lat="43.81575" lon="5.54796">
        <ele>951.1</ele>
        <time>2022-08-24T08:19:38Z</time>
      </trkpt>
      <trkpt lat="43.81574" lon="5.54803">
        <ele>951.5</ele>
        <time>2022-08-24T08:19:39Z</time>
      </trkpt>
      <trkpt lat="43.81571" lon="5.54809">
        <ele>951.3</ele>
        <time>2022-08-24T08:19:40Z</time>
      </trkpt>
      <trkpt lat="43.81572" lon="5.54817">
        <ele>951.8</ele>
        <time>2022-08-24T08:19:41Z</time>
      </trkpt>
      <trkpt lat="43.81571" lon="5.54824">
        <ele>952</ele>
        <time>2022-08-24T08:19:42Z</time>
      </trkpt>
      <trkpt lat="43.8157" lon="5.54831">
        <ele>952.2</ele>
        <time>2022-08-24T08:19:43Z</time>
      </trkpt>
      <trkpt lat="43.8157" lon="5.54837">
        <ele>952.2</ele>
        <time>2022-08-24T08:19:44Z</time>
      </trkpt>
      <trkpt lat="43.81569" lon="5.54845">
        <ele>952.1</ele>
        <time>2022-08-24T08:19:45Z</time>
      </trkpt>
      <trkpt lat="43.81569" lon="5.54852">
        <ele>952.4</ele>
        <time>2022-08-24T08:19:46Z</time>
      </trkpt>
      <trkpt lat="43.81568" lon="5.54858">
        <ele>952.5</ele>
        <time>2022-08-24T08:19:47Z</time>
      </trkpt>
      <trkpt lat="43.81568" lon="5.54865">
        <ele>952.6</ele>
        <time>2022-08-24T08:19:48Z</time>
      </trkpt>
      <trkpt lat="43.81566" lon="5.54872">
        <ele>952.3</ele>
        <time>2022-08-24T08:19:49Z</time>
      </trkpt>
      <trkpt lat="43.81566" lon="5.54878">
        <ele>952.3</ele>
        <time>2022-08-24T08:19:50Z</time>
      </trkpt>
      <trkpt lat="43.81565" lon="5.54885">
        <ele>952.3</ele>
        <time>2022-08-24T08:19:51Z</time>
      </trkpt>
      <trkpt lat="43.81566" lon="5.54893">
        <ele>952.8</ele>
        <time>2022-08-24T08:19:52Z</time>
      </trkpt>
      <trkpt lat="43.81565" lon="5.549">
        <ele>952.6</ele>
        <time>2022-08-24T08:19:53Z</time>
      </trkpt>
      <trkpt lat="43.81562" lon="5.54907">
        <ele>952.2</ele>
        <time>2022-08-24T08:19:54Z</time>
      </trkpt>
      <trkpt lat="43.81561" lon="5.54914">
        <ele>952.1</ele>
        <time>2022-08-24T08:19:55Z</time>
      </trkpt>
      <trkpt lat="43.81561" lon="5.54921">
        <ele>952.1</ele>
        <time>2022-08-24T08:19:56Z</time>
      </trkpt>
      <trkpt lat="43.8156" lon="5.54928">
        <ele>951.9</ele>
        <time>2022-08-24T08:19:57Z</time>
      </trkpt>
      <trkpt lat="43.81559" lon="5.54935">
        <ele>951.7</ele>
        <time>2022-08-24T08:19:58Z</time>
      </trkpt>
      <trkpt lat="43.81558" lon="5.54942">
        <ele>951.5</ele>
        <time>2022-08-24T08:19:59Z</time>
      </trkpt>
      <trkpt lat="43.81557" lon="5.54949">
        <ele>951.8</ele>
        <time>2022-08-24T08:20:00Z</time>
      </trkpt>
      <trkpt lat="43.81555" lon="5.54955">
        <ele>952</ele>
        <time>2022-08-24T08:20:01Z</time>
      </trkpt>
      <trkpt lat="43.81552" lon="5.54967">
        <ele>952.3</ele>
        <time>2022-08-24T08:20:03Z</time>
      </trkpt>
      <trkpt lat="43.8155" lon="5.54975">
        <ele>952.6</ele>
        <time>2022-08-24T08:20:04Z</time>
      </trkpt>
      <trkpt lat="43.81547" lon="5.54981">
        <ele>952.5</ele>
        <time>2022-08-24T08:20:05Z</time>
      </trkpt>
      <trkpt lat="43.81544" lon="5.54988">
        <ele>952.3</ele>
        <time>2022-08-24T08:20:06Z</time>
      </trkpt>
      <trkpt lat="43.81541" lon="5.54995">
        <ele>952.2</ele>
        <time>2022-08-24T08:20:07Z</time>
      </trkpt>
      <trkpt lat="43.81539" lon="5.55002">
        <ele>952.4</ele>
        <time>2022-08-24T08:20:08Z</time>
      </trkpt>
      <trkpt lat="43.81536" lon="5.55008">
        <ele>952.4</ele>
        <time>2022-08-24T08:20:09Z</time>
      </trkpt>
      <trkpt lat="43.81533" lon="5.55015">
        <ele>952.1</ele>
        <time>2022-08-24T08:20:10Z</time>
      </trkpt>
      <trkpt lat="43.81532" lon="5.55022">
        <ele>952.7</ele>
        <time>2022-08-24T08:20:11Z</time>
      </trkpt>
      <trkpt lat="43.81529" lon="5.55029">
        <ele>952.5</ele>
        <time>2022-08-24T08:20:12Z</time>
      </trkpt>
      <trkpt lat="43.81528" lon="5.55036">
        <ele>953.4</ele>
        <time>2022-08-24T08:20:13Z</time>
      </trkpt>
      <trkpt lat="43.81525" lon="5.55043">
        <ele>953.5</ele>
        <time>2022-08-24T08:20:14Z</time>
      </trkpt>
      <trkpt lat="43.81522" lon="5.55049">
        <ele>953.2</ele>
        <time>2022-08-24T08:20:15Z</time>
      </trkpt>
      <trkpt lat="43.81519" lon="5.55056">
        <ele>953.1</ele>
        <time>2022-08-24T08:20:16Z</time>
      </trkpt>
      <trkpt lat="43.81514" lon="5.55062">
        <ele>952.2</ele>
        <time>2022-08-24T08:20:17Z</time>
      </trkpt>
      <trkpt lat="43.81511" lon="5.55069">
        <ele>952.3</ele>
        <time>2022-08-24T08:20:18Z</time>
      </trkpt>
      <trkpt lat="43.81508" lon="5.55075">
        <ele>952.8</ele>
        <time>2022-08-24T08:20:19Z</time>
      </trkpt>
      <trkpt lat="43.81505" lon="5.55082">
        <ele>953.4</ele>
        <time>2022-08-24T08:20:20Z</time>
      </trkpt>
      <trkpt lat="43.81503" lon="5.55088">
        <ele>952.9</ele>
        <time>2022-08-24T08:20:21Z</time>
      </trkpt>
      <trkpt lat="43.815" lon="5.55094">
        <ele>952.4</ele>
        <time>2022-08-24T08:20:22Z</time>
      </trkpt>
      <trkpt lat="43.81497" lon="5.551">
        <ele>951.2</ele>
        <time>2022-08-24T08:20:23Z</time>
      </trkpt>
      <trkpt lat="43.81495" lon="5.55107">
        <ele>950.7</ele>
        <time>2022-08-24T08:20:24Z</time>
      </trkpt>
      <trkpt lat="43.81495" lon="5.55114">
        <ele>951</ele>
        <time>2022-08-24T08:20:25Z</time>
      </trkpt>
      <trkpt lat="43.81494" lon="5.55122">
        <ele>951.2</ele>
        <time>2022-08-24T08:20:26Z</time>
      </trkpt>
      <trkpt lat="43.81493" lon="5.55129">
        <ele>951.4</ele>
        <time>2022-08-24T08:20:27Z</time>
      </trkpt>
      <trkpt lat="43.81493" lon="5.55137">
        <ele>951.8</ele>
        <time>2022-08-24T08:20:28Z</time>
      </trkpt>
      <trkpt lat="43.81493" lon="5.55145">
        <ele>951.8</ele>
        <time>2022-08-24T08:20:29Z</time>
      </trkpt>
      <trkpt lat="43.81493" lon="5.55152">
        <ele>951.8</ele>
        <time>2022-08-24T08:20:30Z</time>
      </trkpt>
      <trkpt lat="43.81492" lon="5.5516">
        <ele>951.6</ele>
        <time>2022-08-24T08:20:31Z</time>
      </trkpt>
      <trkpt lat="43.81491" lon="5.55167">
        <ele>951.4</ele>
        <time>2022-08-24T08:20:32Z</time>
      </trkpt>
      <trkpt lat="43.81493" lon="5.55174">
        <ele>951.6</ele>
        <time>2022-08-24T08:20:33Z</time>
      </trkpt>
      <trkpt lat="43.81493" lon="5.55181">
        <ele>951.6</ele>
        <time>2022-08-24T08:20:34Z</time>
      </trkpt>
      <trkpt lat="43.81493" lon="5.55189">
        <ele>951.6</ele>
        <time>2022-08-24T08:20:35Z</time>
      </trkpt>
      <trkpt lat="43.81495" lon="5.55196">
        <ele>951.8</ele>
        <time>2022-08-24T08:20:36Z</time>
      </trkpt>
      <trkpt lat="43.81496" lon="5.55202">
        <ele>951.6</ele>
        <time>2022-08-24T08:20:37Z</time>
      </trkpt>
      <trkpt lat="43.81496" lon="5.5521">
        <ele>951.2</ele>
        <time>2022-08-24T08:20:38Z</time>
      </trkpt>
      <trkpt lat="43.81496" lon="5.55218">
        <ele>950.8</ele>
        <time>2022-08-24T08:20:39Z</time>
      </trkpt>
      <trkpt lat="43.81497" lon="5.55226">
        <ele>950.6</ele>
        <time>2022-08-24T08:20:40Z</time>
      </trkpt>
      <trkpt lat="43.81496" lon="5.55234">
        <ele>950.5</ele>
        <time>2022-08-24T08:20:41Z</time>
      </trkpt>
      <trkpt lat="43.81496" lon="5.55241">
        <ele>950.5</ele>
        <time>2022-08-24T08:20:42Z</time>
      </trkpt>
      <trkpt lat="43.81496" lon="5.5525">
        <ele>950.4</ele>
        <time>2022-08-24T08:20:43Z</time>
      </trkpt>
      <trkpt lat="43.81495" lon="5.55258">
        <ele>949.8</ele>
        <time>2022-08-24T08:20:44Z</time>
      </trkpt>
      <trkpt lat="43.81493" lon="5.55267">
        <ele>949</ele>
        <time>2022-08-24T08:20:45Z</time>
      </trkpt>
      <trkpt lat="43.81491" lon="5.55275">
        <ele>948.2</ele>
        <time>2022-08-24T08:20:46Z</time>
      </trkpt>
      <trkpt lat="43.81487" lon="5.55282">
        <ele>947.5</ele>
        <time>2022-08-24T08:20:47Z</time>
      </trkpt>
      <trkpt lat="43.81481" lon="5.5529">
        <ele>947.1</ele>
        <time>2022-08-24T08:20:48Z</time>
      </trkpt>
      <trkpt lat="43.81476" lon="5.55297">
        <ele>946.9</ele>
        <time>2022-08-24T08:20:49Z</time>
      </trkpt>
      <trkpt lat="43.81469" lon="5.55301">
        <ele>946.5</ele>
        <time>2022-08-24T08:20:50Z</time>
      </trkpt>
      <trkpt lat="43.81463" lon="5.55307">
        <ele>946.1</ele>
        <time>2022-08-24T08:20:51Z</time>
      </trkpt>
      <trkpt lat="43.81457" lon="5.55312">
        <ele>945.9</ele>
        <time>2022-08-24T08:20:52Z</time>
      </trkpt>
      <trkpt lat="43.81451" lon="5.55317">
        <ele>945.9</ele>
        <time>2022-08-24T08:20:53Z</time>
      </trkpt>
      <trkpt lat="43.81447" lon="5.55321">
        <ele>945.8</ele>
        <time>2022-08-24T08:20:54Z</time>
      </trkpt>
      <trkpt lat="43.81439" lon="5.55331">
        <ele>945.8</ele>
        <time>2022-08-24T08:20:56Z</time>
      </trkpt>
      <trkpt lat="43.81435" lon="5.55338">
        <ele>945.7</ele>
        <time>2022-08-24T08:20:57Z</time>
      </trkpt>
      <trkpt lat="43.81431" lon="5.55344">
        <ele>945.7</ele>
        <time>2022-08-24T08:20:58Z</time>
      </trkpt>
      <trkpt lat="43.81426" lon="5.5535">
        <ele>945.5</ele>
        <time>2022-08-24T08:20:59Z</time>
      </trkpt>
      <trkpt lat="43.81421" lon="5.55354">
        <ele>945</ele>
        <time>2022-08-24T08:21:00Z</time>
      </trkpt>
      <trkpt lat="43.81416" lon="5.55359">
        <ele>944.6</ele>
        <time>2022-08-24T08:21:01Z</time>
      </trkpt>
      <trkpt lat="43.81412" lon="5.55366">
        <ele>944.3</ele>
        <time>2022-08-24T08:21:02Z</time>
      </trkpt>
      <trkpt lat="43.81409" lon="5.55374">
        <ele>944.3</ele>
        <time>2022-08-24T08:21:03Z</time>
      </trkpt>
      <trkpt lat="43.81406" lon="5.55381">
        <ele>944.4</ele>
        <time>2022-08-24T08:21:04Z</time>
      </trkpt>
      <trkpt lat="43.81402" lon="5.55388">
        <ele>944.3</ele>
        <time>2022-08-24T08:21:05Z</time>
      </trkpt>
      <trkpt lat="43.81398" lon="5.55395">
        <ele>944</ele>
        <time>2022-08-24T08:21:06Z</time>
      </trkpt>
      <trkpt lat="43.81393" lon="5.55401">
        <ele>943.5</ele>
        <time>2022-08-24T08:21:07Z</time>
      </trkpt>
      <trkpt lat="43.81388" lon="5.55408">
        <ele>943.1</ele>
        <time>2022-08-24T08:21:08Z</time>
      </trkpt>
      <trkpt lat="43.81384" lon="5.55416">
        <ele>942.6</ele>
        <time>2022-08-24T08:21:09Z</time>
      </trkpt>
      <trkpt lat="43.81381" lon="5.55425">
        <ele>941.7</ele>
        <time>2022-08-24T08:21:10Z</time>
      </trkpt>
      <trkpt lat="43.81378" lon="5.55433">
        <ele>941</ele>
        <time>2022-08-24T08:21:11Z</time>
      </trkpt>
      <trkpt lat="43.81377" lon="5.55443">
        <ele>940.8</ele>
        <time>2022-08-24T08:21:12Z</time>
      </trkpt>
      <trkpt lat="43.81376" lon="5.55452">
        <ele>940.3</ele>
        <time>2022-08-24T08:21:13Z</time>
      </trkpt>
      <trkpt lat="43.81375" lon="5.55462">
        <ele>939.6</ele>
        <time>2022-08-24T08:21:14Z</time>
      </trkpt>
      <trkpt lat="43.81375" lon="5.55471">
        <ele>939</ele>
        <time>2022-08-24T08:21:15Z</time>
      </trkpt>
      <trkpt lat="43.81374" lon="5.55482">
        <ele>938.5</ele>
        <time>2022-08-24T08:21:16Z</time>
      </trkpt>
      <trkpt lat="43.81373" lon="5.55491">
        <ele>938.1</ele>
        <time>2022-08-24T08:21:17Z</time>
      </trkpt>
      <trkpt lat="43.81374" lon="5.55501">
        <ele>937.9</ele>
        <time>2022-08-24T08:21:18Z</time>
      </trkpt>
      <trkpt lat="43.81373" lon="5.55512">
        <ele>937.4</ele>
        <time>2022-08-24T08:21:19Z</time>
      </trkpt>
      <trkpt lat="43.81374" lon="5.55522">
        <ele>937.1</ele>
        <time>2022-08-24T08:21:20Z</time>
      </trkpt>
      <trkpt lat="43.81375" lon="5.55533">
        <ele>936.5</ele>
        <time>2022-08-24T08:21:21Z</time>
      </trkpt>
      <trkpt lat="43.81374" lon="5.55543">
        <ele>935.6</ele>
        <time>2022-08-24T08:21:22Z</time>
      </trkpt>
      <trkpt lat="43.81377" lon="5.55554">
        <ele>934.7</ele>
        <time>2022-08-24T08:21:23Z</time>
      </trkpt>
      <trkpt lat="43.8138" lon="5.55563">
        <ele>933.9</ele>
        <time>2022-08-24T08:21:24Z</time>
      </trkpt>
      <trkpt lat="43.81384" lon="5.55572">
        <ele>933.1</ele>
        <time>2022-08-24T08:21:25Z</time>
      </trkpt>
      <trkpt lat="43.8139" lon="5.5558">
        <ele>932.4</ele>
        <time>2022-08-24T08:21:26Z</time>
      </trkpt>
      <trkpt lat="43.81395" lon="5.55586">
        <ele>931.9</ele>
        <time>2022-08-24T08:21:27Z</time>
      </trkpt>
      <trkpt lat="43.81402" lon="5.55594">
        <ele>931.2</ele>
        <time>2022-08-24T08:21:28Z</time>
      </trkpt>
      <trkpt lat="43.81409" lon="5.556">
        <ele>930.5</ele>
        <time>2022-08-24T08:21:29Z</time>
      </trkpt>
      <trkpt lat="43.81418" lon="5.55605">
        <ele>929.9</ele>
        <time>2022-08-24T08:21:30Z</time>
      </trkpt>
      <trkpt lat="43.81427" lon="5.55607">
        <ele>929</ele>
        <time>2022-08-24T08:21:31Z</time>
      </trkpt>
      <trkpt lat="43.81437" lon="5.55612">
        <ele>927.5</ele>
        <time>2022-08-24T08:21:32Z</time>
      </trkpt>
      <trkpt lat="43.81445" lon="5.55615">
        <ele>926.5</ele>
        <time>2022-08-24T08:21:33Z</time>
      </trkpt>
      <trkpt lat="43.81455" lon="5.55616">
        <ele>925.9</ele>
        <time>2022-08-24T08:21:34Z</time>
      </trkpt>
      <trkpt lat="43.81465" lon="5.55619">
        <ele>925.1</ele>
        <time>2022-08-24T08:21:35Z</time>
      </trkpt>
      <trkpt lat="43.81475" lon="5.55623">
        <ele>924.1</ele>
        <time>2022-08-24T08:21:36Z</time>
      </trkpt>
      <trkpt lat="43.81485" lon="5.55626">
        <ele>922.7</ele>
        <time>2022-08-24T08:21:37Z</time>
      </trkpt>
      <trkpt lat="43.81497" lon="5.55624">
        <ele>922</ele>
        <time>2022-08-24T08:21:38Z</time>
      </trkpt>
      <trkpt lat="43.81506" lon="5.55625">
        <ele>921</ele>
        <time>2022-08-24T08:21:39Z</time>
      </trkpt>
      <trkpt lat="43.81517" lon="5.55626">
        <ele>919.9</ele>
        <time>2022-08-24T08:21:40Z</time>
      </trkpt>
      <trkpt lat="43.81529" lon="5.55623">
        <ele>919.1</ele>
        <time>2022-08-24T08:21:41Z</time>
      </trkpt>
      <trkpt lat="43.8154" lon="5.55624">
        <ele>918</ele>
        <time>2022-08-24T08:21:42Z</time>
      </trkpt>
      <trkpt lat="43.81552" lon="5.55623">
        <ele>917</ele>
        <time>2022-08-24T08:21:43Z</time>
      </trkpt>
      <trkpt lat="43.81562" lon="5.55622">
        <ele>915.9</ele>
        <time>2022-08-24T08:21:44Z</time>
      </trkpt>
      <trkpt lat="43.81573" lon="5.5562">
        <ele>914.5</ele>
        <time>2022-08-24T08:21:45Z</time>
      </trkpt>
      <trkpt lat="43.81575" lon="5.55614">
        <ele>914.9</ele>
        <time>2022-08-24T08:21:46Z</time>
      </trkpt>
      <trkpt lat="43.81578" lon="5.55609">
        <ele>915</ele>
        <time>2022-08-24T08:21:47Z</time>
      </trkpt>
      <trkpt lat="43.81584" lon="5.5561">
        <ele>914</ele>
        <time>2022-08-24T08:21:49Z</time>
      </trkpt>
      <trkpt lat="43.81586" lon="5.55619">
        <ele>912.6</ele>
        <time>2022-08-24T08:21:51Z</time>
      </trkpt>
      <trkpt lat="43.81584" lon="5.55631">
        <ele>911.8</ele>
        <time>2022-08-24T08:21:53Z</time>
      </trkpt>
      <trkpt lat="43.81579" lon="5.55638">
        <ele>911.7</ele>
        <time>2022-08-24T08:21:54Z</time>
      </trkpt>
      <trkpt lat="43.81576" lon="5.55646">
        <ele>911.1</ele>
        <time>2022-08-24T08:21:55Z</time>
      </trkpt>
      <trkpt lat="43.81574" lon="5.55654">
        <ele>910.3</ele>
        <time>2022-08-24T08:21:56Z</time>
      </trkpt>
      <trkpt lat="43.8157" lon="5.55661">
        <ele>909.7</ele>
        <time>2022-08-24T08:21:57Z</time>
      </trkpt>
      <trkpt lat="43.81568" lon="5.5567">
        <ele>908.7</ele>
        <time>2022-08-24T08:21:58Z</time>
      </trkpt>
      <trkpt lat="43.81565" lon="5.55678">
        <ele>907.7</ele>
        <time>2022-08-24T08:21:59Z</time>
      </trkpt>
      <trkpt lat="43.81561" lon="5.55688">
        <ele>906.5</ele>
        <time>2022-08-24T08:22:00Z</time>
      </trkpt>
      <trkpt lat="43.81558" lon="5.55697">
        <ele>905.4</ele>
        <time>2022-08-24T08:22:01Z</time>
      </trkpt>
      <trkpt lat="43.81553" lon="5.55708">
        <ele>904.3</ele>
        <time>2022-08-24T08:22:02Z</time>
      </trkpt>
      <trkpt lat="43.81549" lon="5.55717">
        <ele>903.4</ele>
        <time>2022-08-24T08:22:03Z</time>
      </trkpt>
      <trkpt lat="43.81545" lon="5.55728">
        <ele>902.3</ele>
        <time>2022-08-24T08:22:04Z</time>
      </trkpt>
      <trkpt lat="43.81541" lon="5.55739">
        <ele>901.1</ele>
        <time>2022-08-24T08:22:05Z</time>
      </trkpt>
      <trkpt lat="43.81537" lon="5.55751">
        <ele>899.9</ele>
        <time>2022-08-24T08:22:06Z</time>
      </trkpt>
      <trkpt lat="43.81533" lon="5.55762">
        <ele>898.8</ele>
        <time>2022-08-24T08:22:07Z</time>
      </trkpt>
      <trkpt lat="43.81529" lon="5.55773">
        <ele>897.5</ele>
        <time>2022-08-24T08:22:08Z</time>
      </trkpt>
      <trkpt lat="43.81524" lon="5.55785">
        <ele>896.5</ele>
        <time>2022-08-24T08:22:09Z</time>
      </trkpt>
      <trkpt lat="43.81518" lon="5.55796">
        <ele>895.7</ele>
        <time>2022-08-24T08:22:10Z</time>
      </trkpt>
      <trkpt lat="43.81514" lon="5.55808">
        <ele>894.7</ele>
        <time>2022-08-24T08:22:11Z</time>
      </trkpt>
      <trkpt lat="43.81509" lon="5.5582">
        <ele>894</ele>
        <time>2022-08-24T08:22:12Z</time>
      </trkpt>
      <trkpt lat="43.81504" lon="5.55832">
        <ele>893</ele>
        <time>2022-08-24T08:22:13Z</time>
      </trkpt>
      <trkpt lat="43.81499" lon="5.55844">
        <ele>891.9</ele>
        <time>2022-08-24T08:22:14Z</time>
      </trkpt>
      <trkpt lat="43.81495" lon="5.55856">
        <ele>890.7</ele>
        <time>2022-08-24T08:22:15Z</time>
      </trkpt>
      <trkpt lat="43.81492" lon="5.5587">
        <ele>889.6</ele>
        <time>2022-08-24T08:22:16Z</time>
      </trkpt>
      <trkpt lat="43.81488" lon="5.55882">
        <ele>888.6</ele>
        <time>2022-08-24T08:22:17Z</time>
      </trkpt>
      <trkpt lat="43.81482" lon="5.55893">
        <ele>887.7</ele>
        <time>2022-08-24T08:22:18Z</time>
      </trkpt>
      <trkpt lat="43.81476" lon="5.55904">
        <ele>887</ele>
        <time>2022-08-24T08:22:19Z</time>
      </trkpt>
      <trkpt lat="43.81471" lon="5.55915">
        <ele>886.1</ele>
        <time>2022-08-24T08:22:20Z</time>
      </trkpt>
      <trkpt lat="43.81464" lon="5.55926">
        <ele>885.6</ele>
        <time>2022-08-24T08:22:21Z</time>
      </trkpt>
      <trkpt lat="43.81458" lon="5.55935">
        <ele>885</ele>
        <time>2022-08-24T08:22:22Z</time>
      </trkpt>
      <trkpt lat="43.81452" lon="5.55945">
        <ele>884.2</ele>
        <time>2022-08-24T08:22:23Z</time>
      </trkpt>
      <trkpt lat="43.81446" lon="5.55955">
        <ele>883.3</ele>
        <time>2022-08-24T08:22:24Z</time>
      </trkpt>
      <trkpt lat="43.81441" lon="5.55965">
        <ele>882.6</ele>
        <time>2022-08-24T08:22:25Z</time>
      </trkpt>
      <trkpt lat="43.81435" lon="5.55975">
        <ele>882</ele>
        <time>2022-08-24T08:22:26Z</time>
      </trkpt>
      <trkpt lat="43.81429" lon="5.55985">
        <ele>881.5</ele>
        <time>2022-08-24T08:22:27Z</time>
      </trkpt>
      <trkpt lat="43.81422" lon="5.55994">
        <ele>881.1</ele>
        <time>2022-08-24T08:22:28Z</time>
      </trkpt>
      <trkpt lat="43.81415" lon="5.56002">
        <ele>881</ele>
        <time>2022-08-24T08:22:29Z</time>
      </trkpt>
      <trkpt lat="43.81409" lon="5.56011">
        <ele>881</ele>
        <time>2022-08-24T08:22:30Z</time>
      </trkpt>
      <trkpt lat="43.81404" lon="5.56018">
        <ele>881.1</ele>
        <time>2022-08-24T08:22:31Z</time>
      </trkpt>
      <trkpt lat="43.81397" lon="5.56026">
        <ele>881.4</ele>
        <time>2022-08-24T08:22:32Z</time>
      </trkpt>
      <trkpt lat="43.81392" lon="5.56033">
        <ele>881.6</ele>
        <time>2022-08-24T08:22:33Z</time>
      </trkpt>
      <trkpt lat="43.81387" lon="5.5604">
        <ele>881.5</ele>
        <time>2022-08-24T08:22:34Z</time>
      </trkpt>
      <trkpt lat="43.81384" lon="5.56047">
        <ele>881.2</ele>
        <time>2022-08-24T08:22:35Z</time>
      </trkpt>
      <trkpt lat="43.81379" lon="5.56053">
        <ele>881</ele>
        <time>2022-08-24T08:22:36Z</time>
      </trkpt>
      <trkpt lat="43.81373" lon="5.56063">
        <ele>881.2</ele>
        <time>2022-08-24T08:22:38Z</time>
      </trkpt>
      <trkpt lat="43.81369" lon="5.56071">
        <ele>881.4</ele>
        <time>2022-08-24T08:22:39Z</time>
      </trkpt>
      <trkpt lat="43.81367" lon="5.56077">
        <ele>881.6</ele>
        <time>2022-08-24T08:22:40Z</time>
      </trkpt>
      <trkpt lat="43.81364" lon="5.56085">
        <ele>881.9</ele>
        <time>2022-08-24T08:22:41Z</time>
      </trkpt>
      <trkpt lat="43.81362" lon="5.56094">
        <ele>882</ele>
        <time>2022-08-24T08:22:42Z</time>
      </trkpt>
      <trkpt lat="43.8136" lon="5.56102">
        <ele>881.9</ele>
        <time>2022-08-24T08:22:43Z</time>
      </trkpt>
      <trkpt lat="43.81358" lon="5.5611">
        <ele>881.8</ele>
        <time>2022-08-24T08:22:44Z</time>
      </trkpt>
      <trkpt lat="43.81355" lon="5.56116">
        <ele>881.3</ele>
        <time>2022-08-24T08:22:45Z</time>
      </trkpt>
      <trkpt lat="43.81355" lon="5.56126">
        <ele>880.6</ele>
        <time>2022-08-24T08:22:46Z</time>
      </trkpt>
      <trkpt lat="43.81352" lon="5.56134">
        <ele>880</ele>
        <time>2022-08-24T08:22:47Z</time>
      </trkpt>
      <trkpt lat="43.81348" lon="5.56143">
        <ele>879.1</ele>
        <time>2022-08-24T08:22:48Z</time>
      </trkpt>
      <trkpt lat="43.81344" lon="5.56152">
        <ele>878.3</ele>
        <time>2022-08-24T08:22:49Z</time>
      </trkpt>
      <trkpt lat="43.81339" lon="5.56161">
        <ele>877.5</ele>
        <time>2022-08-24T08:22:50Z</time>
      </trkpt>
      <trkpt lat="43.81334" lon="5.56169">
        <ele>876.7</ele>
        <time>2022-08-24T08:22:51Z</time>
      </trkpt>
      <trkpt lat="43.81328" lon="5.56177">
        <ele>875.6</ele>
        <time>2022-08-24T08:22:52Z</time>
      </trkpt>
      <trkpt lat="43.81322" lon="5.56186">
        <ele>874.4</ele>
        <time>2022-08-24T08:22:53Z</time>
      </trkpt>
      <trkpt lat="43.81316" lon="5.56196">
        <ele>873.2</ele>
        <time>2022-08-24T08:22:54Z</time>
      </trkpt>
      <trkpt lat="43.81308" lon="5.56205">
        <ele>871.9</ele>
        <time>2022-08-24T08:22:55Z</time>
      </trkpt>
      <trkpt lat="43.81302" lon="5.56216">
        <ele>870.5</ele>
        <time>2022-08-24T08:22:56Z</time>
      </trkpt>
      <trkpt lat="43.81295" lon="5.56227">
        <ele>869.3</ele>
        <time>2022-08-24T08:22:57Z</time>
      </trkpt>
      <trkpt lat="43.81289" lon="5.56238">
        <ele>868.3</ele>
        <time>2022-08-24T08:22:58Z</time>
      </trkpt>
      <trkpt lat="43.81283" lon="5.56249">
        <ele>867.3</ele>
        <time>2022-08-24T08:22:59Z</time>
      </trkpt>
      <trkpt lat="43.81276" lon="5.5626">
        <ele>865.8</ele>
        <time>2022-08-24T08:23:00Z</time>
      </trkpt>
      <trkpt lat="43.8127" lon="5.56272">
        <ele>864.3</ele>
        <time>2022-08-24T08:23:01Z</time>
      </trkpt>
      <trkpt lat="43.81263" lon="5.56284">
        <ele>863</ele>
        <time>2022-08-24T08:23:02Z</time>
      </trkpt>
      <trkpt lat="43.81257" lon="5.56293">
        <ele>862</ele>
        <time>2022-08-24T08:23:03Z</time>
      </trkpt>
      <trkpt lat="43.81251" lon="5.563">
        <ele>861.4</ele>
        <time>2022-08-24T08:23:04Z</time>
      </trkpt>
      <trkpt lat="43.81245" lon="5.56306">
        <ele>860.6</ele>
        <time>2022-08-24T08:23:05Z</time>
      </trkpt>
      <trkpt lat="43.81239" lon="5.56311">
        <ele>859.7</ele>
        <time>2022-08-24T08:23:06Z</time>
      </trkpt>
      <trkpt lat="43.81234" lon="5.5632">
        <ele>858.6</ele>
        <time>2022-08-24T08:23:08Z</time>
      </trkpt>
      <trkpt lat="43.81232" lon="5.56326">
        <ele>858</ele>
        <time>2022-08-24T08:23:09Z</time>
      </trkpt>
      <trkpt lat="43.81232" lon="5.56332">
        <ele>857.4</ele>
        <time>2022-08-24T08:23:10Z</time>
      </trkpt>
      <trkpt lat="43.81235" lon="5.56339">
        <ele>856.9</ele>
        <time>2022-08-24T08:23:11Z</time>
      </trkpt>
      <trkpt lat="43.81239" lon="5.56343">
        <ele>856.5</ele>
        <time>2022-08-24T08:23:12Z</time>
      </trkpt>
      <trkpt lat="43.81245" lon="5.56348">
        <ele>856.3</ele>
        <time>2022-08-24T08:23:13Z</time>
      </trkpt>
      <trkpt lat="43.8125" lon="5.56351">
        <ele>856.1</ele>
        <time>2022-08-24T08:23:14Z</time>
      </trkpt>
      <trkpt lat="43.81257" lon="5.56354">
        <ele>855.8</ele>
        <time>2022-08-24T08:23:15Z</time>
      </trkpt>
      <trkpt lat="43.81262" lon="5.56355">
        <ele>855.6</ele>
        <time>2022-08-24T08:23:16Z</time>
      </trkpt>
      <trkpt lat="43.81272" lon="5.56358">
        <ele>855.3</ele>
        <time>2022-08-24T08:23:18Z</time>
      </trkpt>
      <trkpt lat="43.81279" lon="5.5636">
        <ele>855.1</ele>
        <time>2022-08-24T08:23:19Z</time>
      </trkpt>
      <trkpt lat="43.81285" lon="5.56361">
        <ele>854.5</ele>
        <time>2022-08-24T08:23:20Z</time>
      </trkpt>
      <trkpt lat="43.81292" lon="5.5636">
        <ele>854.1</ele>
        <time>2022-08-24T08:23:22Z</time>
      </trkpt>
      <trkpt lat="43.81298" lon="5.56359">
        <ele>853.8</ele>
        <time>2022-08-24T08:23:23Z</time>
      </trkpt>
      <trkpt lat="43.81309" lon="5.5636">
        <ele>852.9</ele>
        <time>2022-08-24T08:23:25Z</time>
      </trkpt>
      <trkpt lat="43.81315" lon="5.56361">
        <ele>852.3</ele>
        <time>2022-08-24T08:23:26Z</time>
      </trkpt>
      <trkpt lat="43.81321" lon="5.56358">
        <ele>852.3</ele>
        <time>2022-08-24T08:23:27Z</time>
      </trkpt>
      <trkpt lat="43.81334" lon="5.56358">
        <ele>851.4</ele>
        <time>2022-08-24T08:23:29Z</time>
      </trkpt>
      <trkpt lat="43.81339" lon="5.56356">
        <ele>851.2</ele>
        <time>2022-08-24T08:23:30Z</time>
      </trkpt>
      <trkpt lat="43.81346" lon="5.56352">
        <ele>851.1</ele>
        <time>2022-08-24T08:23:31Z</time>
      </trkpt>
      <trkpt lat="43.81353" lon="5.56348">
        <ele>851.1</ele>
        <time>2022-08-24T08:23:32Z</time>
      </trkpt>
      <trkpt lat="43.81358" lon="5.56347">
        <ele>850.9</ele>
        <time>2022-08-24T08:23:33Z</time>
      </trkpt>
      <trkpt lat="43.81363" lon="5.56345">
        <ele>850.6</ele>
        <time>2022-08-24T08:23:34Z</time>
      </trkpt>
      <trkpt lat="43.8137" lon="5.56343">
        <ele>849.9</ele>
        <time>2022-08-24T08:23:35Z</time>
      </trkpt>
      <trkpt lat="43.81377" lon="5.56343">
        <ele>849</ele>
        <time>2022-08-24T08:23:36Z</time>
      </trkpt>
      <trkpt lat="43.81388" lon="5.56347">
        <ele>846.8</ele>
        <time>2022-08-24T08:23:37Z</time>
      </trkpt>
      <trkpt lat="43.81395" lon="5.56347">
        <ele>845.6</ele>
        <time>2022-08-24T08:23:38Z</time>
      </trkpt>
      <trkpt lat="43.81403" lon="5.56345">
        <ele>844.9</ele>
        <time>2022-08-24T08:23:39Z</time>
      </trkpt>
      <trkpt lat="43.81413" lon="5.56347">
        <ele>843.2</ele>
        <time>2022-08-24T08:23:40Z</time>
      </trkpt>
      <trkpt lat="43.81421" lon="5.56344">
        <ele>842.5</ele>
        <time>2022-08-24T08:23:41Z</time>
      </trkpt>
      <trkpt lat="43.81429" lon="5.56344">
        <ele>841.3</ele>
        <time>2022-08-24T08:23:42Z</time>
      </trkpt>
      <trkpt lat="43.8144" lon="5.56346">
        <ele>839.3</ele>
        <time>2022-08-24T08:23:43Z</time>
      </trkpt>
      <trkpt lat="43.8145" lon="5.56345">
        <ele>838.2</ele>
        <time>2022-08-24T08:23:44Z</time>
      </trkpt>
      <trkpt lat="43.81465" lon="5.56347">
        <ele>836.4</ele>
        <time>2022-08-24T08:23:45Z</time>
      </trkpt>
      <trkpt lat="43.81479" lon="5.56349">
        <ele>835.5</ele>
        <time>2022-08-24T08:23:46Z</time>
      </trkpt>
      <trkpt lat="43.81487" lon="5.56352">
        <ele>835.4</ele>
        <time>2022-08-24T08:23:47Z</time>
      </trkpt>
      <trkpt lat="43.81498" lon="5.56354">
        <ele>835.7</ele>
        <time>2022-08-24T08:23:48Z</time>
      </trkpt>
      <trkpt lat="43.81508" lon="5.56359">
        <ele>835.5</ele>
        <time>2022-08-24T08:23:49Z</time>
      </trkpt>
      <trkpt lat="43.81515" lon="5.56363">
        <ele>835.3</ele>
        <time>2022-08-24T08:23:50Z</time>
      </trkpt>
      <trkpt lat="43.81523" lon="5.56363">
        <ele>835.6</ele>
        <time>2022-08-24T08:23:51Z</time>
      </trkpt>
      <trkpt lat="43.81529" lon="5.56365">
        <ele>835.6</ele>
        <time>2022-08-24T08:23:52Z</time>
      </trkpt>
      <trkpt lat="43.81536" lon="5.56368">
        <ele>835.1</ele>
        <time>2022-08-24T08:23:53Z</time>
      </trkpt>
      <trkpt lat="43.81543" lon="5.56369">
        <ele>835</ele>
        <time>2022-08-24T08:23:54Z</time>
      </trkpt>
      <trkpt lat="43.8155" lon="5.56371">
        <ele>834.6</ele>
        <time>2022-08-24T08:23:55Z</time>
      </trkpt>
      <trkpt lat="43.81557" lon="5.56374">
        <ele>834</ele>
        <time>2022-08-24T08:23:56Z</time>
      </trkpt>
      <trkpt lat="43.81566" lon="5.56375">
        <ele>832.8</ele>
        <time>2022-08-24T08:23:57Z</time>
      </trkpt>
      <trkpt lat="43.81574" lon="5.56375">
        <ele>831.8</ele>
        <time>2022-08-24T08:23:58Z</time>
      </trkpt>
      <trkpt lat="43.81583" lon="5.56374">
        <ele>830.8</ele>
        <time>2022-08-24T08:23:59Z</time>
      </trkpt>
      <trkpt lat="43.81591" lon="5.56373">
        <ele>829.2</ele>
        <time>2022-08-24T08:24:00Z</time>
      </trkpt>
      <trkpt lat="43.816" lon="5.56371">
        <ele>827.6</ele>
        <time>2022-08-24T08:24:01Z</time>
      </trkpt>
      <trkpt lat="43.81612" lon="5.56365">
        <ele>826.1</ele>
        <time>2022-08-24T08:24:02Z</time>
      </trkpt>
      <trkpt lat="43.81622" lon="5.5636">
        <ele>824</ele>
        <time>2022-08-24T08:24:03Z</time>
      </trkpt>
      <trkpt lat="43.81634" lon="5.56355">
        <ele>821.7</ele>
        <time>2022-08-24T08:24:04Z</time>
      </trkpt>
      <trkpt lat="43.81644" lon="5.56349">
        <ele>820.1</ele>
        <time>2022-08-24T08:24:05Z</time>
      </trkpt>
      <trkpt lat="43.81654" lon="5.56344">
        <ele>818.1</ele>
        <time>2022-08-24T08:24:06Z</time>
      </trkpt>
      <trkpt lat="43.81662" lon="5.56338">
        <ele>816.5</ele>
        <time>2022-08-24T08:24:07Z</time>
      </trkpt>
      <trkpt lat="43.81673" lon="5.56333">
        <ele>814.1</ele>
        <time>2022-08-24T08:24:08Z</time>
      </trkpt>
      <trkpt lat="43.81685" lon="5.56326">
        <ele>812.3</ele>
        <time>2022-08-24T08:24:09Z</time>
      </trkpt>
      <trkpt lat="43.81696" lon="5.56317">
        <ele>811.2</ele>
        <time>2022-08-24T08:24:10Z</time>
      </trkpt>
      <trkpt lat="43.81706" lon="5.56307">
        <ele>810.5</ele>
        <time>2022-08-24T08:24:11Z</time>
      </trkpt>
      <trkpt lat="43.81715" lon="5.56298">
        <ele>809.6</ele>
        <time>2022-08-24T08:24:12Z</time>
      </trkpt>
      <trkpt lat="43.81725" lon="5.56289">
        <ele>809</ele>
        <time>2022-08-24T08:24:13Z</time>
      </trkpt>
      <trkpt lat="43.81735" lon="5.56282">
        <ele>807.9</ele>
        <time>2022-08-24T08:24:14Z</time>
      </trkpt>
      <trkpt lat="43.81746" lon="5.56276">
        <ele>806.5</ele>
        <time>2022-08-24T08:24:15Z</time>
      </trkpt>
      <trkpt lat="43.81757" lon="5.5627">
        <ele>805.1</ele>
        <time>2022-08-24T08:24:16Z</time>
      </trkpt>
      <trkpt lat="43.81766" lon="5.56263">
        <ele>804.4</ele>
        <time>2022-08-24T08:24:17Z</time>
      </trkpt>
      <trkpt lat="43.81776" lon="5.56256">
        <ele>803.5</ele>
        <time>2022-08-24T08:24:18Z</time>
      </trkpt>
      <trkpt lat="43.81786" lon="5.56247">
        <ele>802.8</ele>
        <time>2022-08-24T08:24:19Z</time>
      </trkpt>
      <trkpt lat="43.81792" lon="5.56239">
        <ele>802.3</ele>
        <time>2022-08-24T08:24:20Z</time>
      </trkpt>
      <trkpt lat="43.81801" lon="5.56234">
        <ele>800.7</ele>
        <time>2022-08-24T08:24:21Z</time>
      </trkpt>
      <trkpt lat="43.81805" lon="5.56228">
        <ele>799.9</ele>
        <time>2022-08-24T08:24:22Z</time>
      </trkpt>
      <trkpt lat="43.81809" lon="5.56222">
        <ele>800.6</ele>
        <time>2022-08-24T08:24:23Z</time>
      </trkpt>
      <trkpt lat="43.81813" lon="5.56226">
        <ele>800.9</ele>
        <time>2022-08-24T08:24:24Z</time>
      </trkpt>
      <trkpt lat="43.81819" lon="5.56231">
        <ele>801.1</ele>
        <time>2022-08-24T08:24:26Z</time>
      </trkpt>
      <trkpt lat="43.81827" lon="5.56233">
        <ele>801.8</ele>
        <time>2022-08-24T08:24:28Z</time>
      </trkpt>
      <trkpt lat="43.81831" lon="5.56228">
        <ele>802.9</ele>
        <time>2022-08-24T08:24:30Z</time>
      </trkpt>
      <trkpt lat="43.81836" lon="5.5622">
        <ele>804.6</ele>
        <time>2022-08-24T08:24:32Z</time>
      </trkpt>
      <trkpt lat="43.81842" lon="5.56215">
        <ele>805.6</ele>
        <time>2022-08-24T08:24:34Z</time>
      </trkpt>
      <trkpt lat="43.81846" lon="5.56211">
        <ele>806.2</ele>
        <time>2022-08-24T08:24:36Z</time>
      </trkpt>
      <trkpt lat="43.81854" lon="5.56212">
        <ele>806.2</ele>
        <time>2022-08-24T08:24:38Z</time>
      </trkpt>
      <trkpt lat="43.81858" lon="5.56216">
        <ele>806.1</ele>
        <time>2022-08-24T08:24:39Z</time>
      </trkpt>
      <trkpt lat="43.81861" lon="5.56225">
        <ele>806</ele>
        <time>2022-08-24T08:24:41Z</time>
      </trkpt>
      <trkpt lat="43.81863" lon="5.56235">
        <ele>806.8</ele>
        <time>2022-08-24T08:24:43Z</time>
      </trkpt>
      <trkpt lat="43.81864" lon="5.56244">
        <ele>807.4</ele>
        <time>2022-08-24T08:24:45Z</time>
      </trkpt>
      <trkpt lat="43.81865" lon="5.56252">
        <ele>808.1</ele>
        <time>2022-08-24T08:24:47Z</time>
      </trkpt>
      <trkpt lat="43.81865" lon="5.56262">
        <ele>808.7</ele>
        <time>2022-08-24T08:24:49Z</time>
      </trkpt>
      <trkpt lat="43.81865" lon="5.5627">
        <ele>809.4</ele>
        <time>2022-08-24T08:24:51Z</time>
      </trkpt>
      <trkpt lat="43.81865" lon="5.56279">
        <ele>809.9</ele>
        <time>2022-08-24T08:24:53Z</time>
      </trkpt>
      <trkpt lat="43.81865" lon="5.56285">
        <ele>810</ele>
        <time>2022-08-24T08:24:55Z</time>
      </trkpt>
      <trkpt lat="43.81864" lon="5.56292">
        <ele>810.2</ele>
        <time>2022-08-24T08:24:57Z</time>
      </trkpt>
      <trkpt lat="43.81862" lon="5.56299">
        <ele>809.9</ele>
        <time>2022-08-24T08:24:59Z</time>
      </trkpt>
      <trkpt lat="43.81861" lon="5.56306">
        <ele>809.9</ele>
        <time>2022-08-24T08:25:01Z</time>
      </trkpt>
      <trkpt lat="43.81861" lon="5.56314">
        <ele>810.6</ele>
        <time>2022-08-24T08:25:03Z</time>
      </trkpt>
      <trkpt lat="43.8186" lon="5.56323">
        <ele>811</ele>
        <time>2022-08-24T08:25:05Z</time>
      </trkpt>
      <trkpt lat="43.81861" lon="5.56331">
        <ele>811.7</ele>
        <time>2022-08-24T08:25:07Z</time>
      </trkpt>
      <trkpt lat="43.81862" lon="5.56339">
        <ele>812.7</ele>
        <time>2022-08-24T08:25:09Z</time>
      </trkpt>
      <trkpt lat="43.81862" lon="5.56346">
        <ele>813.7</ele>
        <time>2022-08-24T08:25:11Z</time>
      </trkpt>
      <trkpt lat="43.81862" lon="5.56355">
        <ele>814.6</ele>
        <time>2022-08-24T08:25:13Z</time>
      </trkpt>
      <trkpt lat="43.81862" lon="5.56363">
        <ele>815.4</ele>
        <time>2022-08-24T08:25:15Z</time>
      </trkpt>
      <trkpt lat="43.81862" lon="5.56371">
        <ele>815.9</ele>
        <time>2022-08-24T08:25:17Z</time>
      </trkpt>
      <trkpt lat="43.81862" lon="5.56379">
        <ele>816.5</ele>
        <time>2022-08-24T08:25:19Z</time>
      </trkpt>
      <trkpt lat="43.81861" lon="5.56386">
        <ele>816.7</ele>
        <time>2022-08-24T08:25:21Z</time>
      </trkpt>
      <trkpt lat="43.8186" lon="5.56394">
        <ele>817</ele>
        <time>2022-08-24T08:25:23Z</time>
      </trkpt>
      <trkpt lat="43.81858" lon="5.56402">
        <ele>817.1</ele>
        <time>2022-08-24T08:25:25Z</time>
      </trkpt>
      <trkpt lat="43.81855" lon="5.56411">
        <ele>817.1</ele>
        <time>2022-08-24T08:25:27Z</time>
      </trkpt>
      <trkpt lat="43.81852" lon="5.56418">
        <ele>816.7</ele>
        <time>2022-08-24T08:25:29Z</time>
      </trkpt>
      <trkpt lat="43.81846" lon="5.56426">
        <ele>815.9</ele>
        <time>2022-08-24T08:25:31Z</time>
      </trkpt>
      <trkpt lat="43.81844" lon="5.56433">
        <ele>815.8</ele>
        <time>2022-08-24T08:25:33Z</time>
      </trkpt>
      <trkpt lat="43.81842" lon="5.56442">
        <ele>816.1</ele>
        <time>2022-08-24T08:25:35Z</time>
      </trkpt>
      <trkpt lat="43.81844" lon="5.56453">
        <ele>817.3</ele>
        <time>2022-08-24T08:25:37Z</time>
      </trkpt>
      <trkpt lat="43.81846" lon="5.56459">
        <ele>818.2</ele>
        <time>2022-08-24T08:25:38Z</time>
      </trkpt>
      <trkpt lat="43.81849" lon="5.56468">
        <ele>819.5</ele>
        <time>2022-08-24T08:25:40Z</time>
      </trkpt>
      <trkpt lat="43.81851" lon="5.56478">
        <ele>820.7</ele>
        <time>2022-08-24T08:25:42Z</time>
      </trkpt>
      <trkpt lat="43.81852" lon="5.56487">
        <ele>821.4</ele>
        <time>2022-08-24T08:25:44Z</time>
      </trkpt>
      <trkpt lat="43.8185" lon="5.56494">
        <ele>821.2</ele>
        <time>2022-08-24T08:25:46Z</time>
      </trkpt>
      <trkpt lat="43.81846" lon="5.56502">
        <ele>820.7</ele>
        <time>2022-08-24T08:25:48Z</time>
      </trkpt>
      <trkpt lat="43.81845" lon="5.56511">
        <ele>820.9</ele>
        <time>2022-08-24T08:25:50Z</time>
      </trkpt>
      <trkpt lat="43.81846" lon="5.56523">
        <ele>821.6</ele>
        <time>2022-08-24T08:25:52Z</time>
      </trkpt>
      <trkpt lat="43.81847" lon="5.56533">
        <ele>822</ele>
        <time>2022-08-24T08:25:54Z</time>
      </trkpt>
      <trkpt lat="43.81849" lon="5.56543">
        <ele>822.4</ele>
        <time>2022-08-24T08:25:56Z</time>
      </trkpt>
      <trkpt lat="43.81852" lon="5.56553">
        <ele>823</ele>
        <time>2022-08-24T08:25:58Z</time>
      </trkpt>
      <trkpt lat="43.81856" lon="5.56563">
        <ele>823.7</ele>
        <time>2022-08-24T08:26:00Z</time>
      </trkpt>
      <trkpt lat="43.8186" lon="5.56572">
        <ele>824.3</ele>
        <time>2022-08-24T08:26:02Z</time>
      </trkpt>
      <trkpt lat="43.81865" lon="5.56581">
        <ele>824.5</ele>
        <time>2022-08-24T08:26:04Z</time>
      </trkpt>
      <trkpt lat="43.81871" lon="5.56589">
        <ele>824.8</ele>
        <time>2022-08-24T08:26:06Z</time>
      </trkpt>
      <trkpt lat="43.81878" lon="5.56594">
        <ele>825.5</ele>
        <time>2022-08-24T08:26:08Z</time>
      </trkpt>
      <trkpt lat="43.81885" lon="5.566">
        <ele>826</ele>
        <time>2022-08-24T08:26:10Z</time>
      </trkpt>
      <trkpt lat="43.81891" lon="5.56606">
        <ele>826.3</ele>
        <time>2022-08-24T08:26:12Z</time>
      </trkpt>
      <trkpt lat="43.81897" lon="5.56611">
        <ele>826.6</ele>
        <time>2022-08-24T08:26:14Z</time>
      </trkpt>
      <trkpt lat="43.81903" lon="5.56614">
        <ele>826.9</ele>
        <time>2022-08-24T08:26:16Z</time>
      </trkpt>
      <trkpt lat="43.8191" lon="5.56616">
        <ele>827.3</ele>
        <time>2022-08-24T08:26:18Z</time>
      </trkpt>
      <trkpt lat="43.81918" lon="5.56621">
        <ele>827.6</ele>
        <time>2022-08-24T08:26:20Z</time>
      </trkpt>
      <trkpt lat="43.81922" lon="5.56624">
        <ele>827.5</ele>
        <time>2022-08-24T08:26:21Z</time>
      </trkpt>
      <trkpt lat="43.81929" lon="5.56631">
        <ele>827.3</ele>
        <time>2022-08-24T08:26:23Z</time>
      </trkpt>
      <trkpt lat="43.81932" lon="5.56635">
        <ele>827.1</ele>
        <time>2022-08-24T08:26:24Z</time>
      </trkpt>
      <trkpt lat="43.81936" lon="5.5664">
        <ele>826.9</ele>
        <time>2022-08-24T08:26:25Z</time>
      </trkpt>
      <trkpt lat="43.81938" lon="5.56648">
        <ele>826.6</ele>
        <time>2022-08-24T08:26:26Z</time>
      </trkpt>
      <trkpt lat="43.8194" lon="5.56653">
        <ele>826.4</ele>
        <time>2022-08-24T08:26:27Z</time>
      </trkpt>
      <trkpt lat="43.81944" lon="5.5666">
        <ele>826.2</ele>
        <time>2022-08-24T08:26:28Z</time>
      </trkpt>
      <trkpt lat="43.81947" lon="5.56665">
        <ele>826</ele>
        <time>2022-08-24T08:26:29Z</time>
      </trkpt>
      <trkpt lat="43.81951" lon="5.56675">
        <ele>825.7</ele>
        <time>2022-08-24T08:26:31Z</time>
      </trkpt>
      <trkpt lat="43.81959" lon="5.56682">
        <ele>825.4</ele>
        <time>2022-08-24T08:26:32Z</time>
      </trkpt>
      <trkpt lat="43.81965" lon="5.56691">
        <ele>825.1</ele>
        <time>2022-08-24T08:26:34Z</time>
      </trkpt>
      <trkpt lat="43.81968" lon="5.56699">
        <ele>825.1</ele>
        <time>2022-08-24T08:26:35Z</time>
      </trkpt>
      <trkpt lat="43.8197" lon="5.56706">
        <ele>825.4</ele>
        <time>2022-08-24T08:26:36Z</time>
      </trkpt>
      <trkpt lat="43.81971" lon="5.56714">
        <ele>825.7</ele>
        <time>2022-08-24T08:26:37Z</time>
      </trkpt>
      <trkpt lat="43.81971" lon="5.56721">
        <ele>825.9</ele>
        <time>2022-08-24T08:26:38Z</time>
      </trkpt>
      <trkpt lat="43.81971" lon="5.56727">
        <ele>826.2</ele>
        <time>2022-08-24T08:26:39Z</time>
      </trkpt>
      <trkpt lat="43.8197" lon="5.56735">
        <ele>826.4</ele>
        <time>2022-08-24T08:26:40Z</time>
      </trkpt>
      <trkpt lat="43.81969" lon="5.56742">
        <ele>826.6</ele>
        <time>2022-08-24T08:26:41Z</time>
      </trkpt>
      <trkpt lat="43.81964" lon="5.56753">
        <ele>826.9</ele>
        <time>2022-08-24T08:26:43Z</time>
      </trkpt>
      <trkpt lat="43.8196" lon="5.56763">
        <ele>827.5</ele>
        <time>2022-08-24T08:26:45Z</time>
      </trkpt>
      <trkpt lat="43.81954" lon="5.56772">
        <ele>827.9</ele>
        <time>2022-08-24T08:26:47Z</time>
      </trkpt>
      <trkpt lat="43.81949" lon="5.5678">
        <ele>828.2</ele>
        <time>2022-08-24T08:26:49Z</time>
      </trkpt>
      <trkpt lat="43.81943" lon="5.56789">
        <ele>828.3</ele>
        <time>2022-08-24T08:26:51Z</time>
      </trkpt>
      <trkpt lat="43.81937" lon="5.56794">
        <ele>828.1</ele>
        <time>2022-08-24T08:26:53Z</time>
      </trkpt>
      <trkpt lat="43.81932" lon="5.56804">
        <ele>828</ele>
        <time>2022-08-24T08:26:55Z</time>
      </trkpt>
      <trkpt lat="43.81929" lon="5.56809">
        <ele>828.2</ele>
        <time>2022-08-24T08:26:56Z</time>
      </trkpt>
      <trkpt lat="43.81926" lon="5.5682">
        <ele>828.7</ele>
        <time>2022-08-24T08:26:58Z</time>
      </trkpt>
      <trkpt lat="43.81919" lon="5.56835">
        <ele>829.3</ele>
        <time>2022-08-24T08:27:01Z</time>
      </trkpt>
      <trkpt lat="43.81913" lon="5.56845">
        <ele>829.5</ele>
        <time>2022-08-24T08:27:03Z</time>
      </trkpt>
      <trkpt lat="43.8191" lon="5.56855">
        <ele>830</ele>
        <time>2022-08-24T08:27:05Z</time>
      </trkpt>
      <trkpt lat="43.81904" lon="5.56865">
        <ele>830.4</ele>
        <time>2022-08-24T08:27:07Z</time>
      </trkpt>
      <trkpt lat="43.81902" lon="5.56876">
        <ele>831</ele>
        <time>2022-08-24T08:27:09Z</time>
      </trkpt>
      <trkpt lat="43.81901" lon="5.56882">
        <ele>831.4</ele>
        <time>2022-08-24T08:27:10Z</time>
      </trkpt>
      <trkpt lat="43.81898" lon="5.56893">
        <ele>831.6</ele>
        <time>2022-08-24T08:27:12Z</time>
      </trkpt>
      <trkpt lat="43.81898" lon="5.56905">
        <ele>831.6</ele>
        <time>2022-08-24T08:27:14Z</time>
      </trkpt>
      <trkpt lat="43.81897" lon="5.56912">
        <ele>831.6</ele>
        <time>2022-08-24T08:27:15Z</time>
      </trkpt>
      <trkpt lat="43.81897" lon="5.56918">
        <ele>831.6</ele>
        <time>2022-08-24T08:27:16Z</time>
      </trkpt>
      <trkpt lat="43.81895" lon="5.56925">
        <ele>831.7</ele>
        <time>2022-08-24T08:27:17Z</time>
      </trkpt>
      <trkpt lat="43.81894" lon="5.56932">
        <ele>831.8</ele>
        <time>2022-08-24T08:27:18Z</time>
      </trkpt>
      <trkpt lat="43.81895" lon="5.56938">
        <ele>832.1</ele>
        <time>2022-08-24T08:27:19Z</time>
      </trkpt>
      <trkpt lat="43.81894" lon="5.56945">
        <ele>832.2</ele>
        <time>2022-08-24T08:27:20Z</time>
      </trkpt>
      <trkpt lat="43.81894" lon="5.56952">
        <ele>831.9</ele>
        <time>2022-08-24T08:27:21Z</time>
      </trkpt>
      <trkpt lat="43.81894" lon="5.56959">
        <ele>831.7</ele>
        <time>2022-08-24T08:27:22Z</time>
      </trkpt>
      <trkpt lat="43.81896" lon="5.56966">
        <ele>831.5</ele>
        <time>2022-08-24T08:27:23Z</time>
      </trkpt>
      <trkpt lat="43.81897" lon="5.56973">
        <ele>831.3</ele>
        <time>2022-08-24T08:27:24Z</time>
      </trkpt>
      <trkpt lat="43.81898" lon="5.56979">
        <ele>831.1</ele>
        <time>2022-08-24T08:27:25Z</time>
      </trkpt>
      <trkpt lat="43.819" lon="5.56985">
        <ele>830.9</ele>
        <time>2022-08-24T08:27:26Z</time>
      </trkpt>
      <trkpt lat="43.81904" lon="5.56996">
        <ele>830.7</ele>
        <time>2022-08-24T08:27:28Z</time>
      </trkpt>
      <trkpt lat="43.81908" lon="5.57002">
        <ele>830.6</ele>
        <time>2022-08-24T08:27:29Z</time>
      </trkpt>
      <trkpt lat="43.81916" lon="5.5701">
        <ele>830.6</ele>
        <time>2022-08-24T08:27:31Z</time>
      </trkpt>
      <trkpt lat="43.81921" lon="5.57014">
        <ele>830.5</ele>
        <time>2022-08-24T08:27:32Z</time>
      </trkpt>
      <trkpt lat="43.81926" lon="5.57024">
        <ele>830.1</ele>
        <time>2022-08-24T08:27:34Z</time>
      </trkpt>
      <trkpt lat="43.8193" lon="5.57031">
        <ele>829.8</ele>
        <time>2022-08-24T08:27:35Z</time>
      </trkpt>
      <trkpt lat="43.81932" lon="5.57039">
        <ele>829.4</ele>
        <time>2022-08-24T08:27:36Z</time>
      </trkpt>
      <trkpt lat="43.81936" lon="5.57043">
        <ele>829.1</ele>
        <time>2022-08-24T08:27:37Z</time>
      </trkpt>
      <trkpt lat="43.8194" lon="5.5705">
        <ele>828.5</ele>
        <time>2022-08-24T08:27:38Z</time>
      </trkpt>
      <trkpt lat="43.81945" lon="5.57057">
        <ele>827.8</ele>
        <time>2022-08-24T08:27:39Z</time>
      </trkpt>
      <trkpt lat="43.81951" lon="5.57063">
        <ele>827</ele>
        <time>2022-08-24T08:27:40Z</time>
      </trkpt>
      <trkpt lat="43.81958" lon="5.5707">
        <ele>826</ele>
        <time>2022-08-24T08:27:41Z</time>
      </trkpt>
      <trkpt lat="43.81965" lon="5.57079">
        <ele>824.9</ele>
        <time>2022-08-24T08:27:42Z</time>
      </trkpt>
      <trkpt lat="43.8197" lon="5.57087">
        <ele>824</ele>
        <time>2022-08-24T08:27:43Z</time>
      </trkpt>
      <trkpt lat="43.81975" lon="5.57096">
        <ele>822.8</ele>
        <time>2022-08-24T08:27:44Z</time>
      </trkpt>
      <trkpt lat="43.81981" lon="5.57105">
        <ele>821.6</ele>
        <time>2022-08-24T08:27:45Z</time>
      </trkpt>
      <trkpt lat="43.8199" lon="5.57113">
        <ele>820</ele>
        <time>2022-08-24T08:27:46Z</time>
      </trkpt>
      <trkpt lat="43.81998" lon="5.57121">
        <ele>818.5</ele>
        <time>2022-08-24T08:27:47Z</time>
      </trkpt>
      <trkpt lat="43.82007" lon="5.57127">
        <ele>817.2</ele>
        <time>2022-08-24T08:27:48Z</time>
      </trkpt>
      <trkpt lat="43.82018" lon="5.57131">
        <ele>815.8</ele>
        <time>2022-08-24T08:27:49Z</time>
      </trkpt>
      <trkpt lat="43.82027" lon="5.57134">
        <ele>814.6</ele>
        <time>2022-08-24T08:27:50Z</time>
      </trkpt>
      <trkpt lat="43.82039" lon="5.57134">
        <ele>813.4</ele>
        <time>2022-08-24T08:27:51Z</time>
      </trkpt>
      <trkpt lat="43.8205" lon="5.57136">
        <ele>811.9</ele>
        <time>2022-08-24T08:27:52Z</time>
      </trkpt>
      <trkpt lat="43.8206" lon="5.57138">
        <ele>810.6</ele>
        <time>2022-08-24T08:27:53Z</time>
      </trkpt>
      <trkpt lat="43.8207" lon="5.57142">
        <ele>809.2</ele>
        <time>2022-08-24T08:27:54Z</time>
      </trkpt>
      <trkpt lat="43.82081" lon="5.57146">
        <ele>807.8</ele>
        <time>2022-08-24T08:27:55Z</time>
      </trkpt>
      <trkpt lat="43.82092" lon="5.57149">
        <ele>806.5</ele>
        <time>2022-08-24T08:27:56Z</time>
      </trkpt>
      <trkpt lat="43.82104" lon="5.5715">
        <ele>805.3</ele>
        <time>2022-08-24T08:27:57Z</time>
      </trkpt>
      <trkpt lat="43.82113" lon="5.57152">
        <ele>804.4</ele>
        <time>2022-08-24T08:27:58Z</time>
      </trkpt>
      <trkpt lat="43.82122" lon="5.57154">
        <ele>803.5</ele>
        <time>2022-08-24T08:27:59Z</time>
      </trkpt>
      <trkpt lat="43.82133" lon="5.5716">
        <ele>802.1</ele>
        <time>2022-08-24T08:28:00Z</time>
      </trkpt>
      <trkpt lat="43.82143" lon="5.57166">
        <ele>800.7</ele>
        <time>2022-08-24T08:28:01Z</time>
      </trkpt>
      <trkpt lat="43.82154" lon="5.57172">
        <ele>799.7</ele>
        <time>2022-08-24T08:28:02Z</time>
      </trkpt>
      <trkpt lat="43.82166" lon="5.57176">
        <ele>798.7</ele>
        <time>2022-08-24T08:28:03Z</time>
      </trkpt>
      <trkpt lat="43.82175" lon="5.57178">
        <ele>798</ele>
        <time>2022-08-24T08:28:04Z</time>
      </trkpt>
      <trkpt lat="43.82186" lon="5.57183">
        <ele>797</ele>
        <time>2022-08-24T08:28:05Z</time>
      </trkpt>
      <trkpt lat="43.82196" lon="5.57187">
        <ele>796.2</ele>
        <time>2022-08-24T08:28:06Z</time>
      </trkpt>
      <trkpt lat="43.82208" lon="5.5719">
        <ele>795.7</ele>
        <time>2022-08-24T08:28:07Z</time>
      </trkpt>
      <trkpt lat="43.82216" lon="5.57194">
        <ele>795.3</ele>
        <time>2022-08-24T08:28:08Z</time>
      </trkpt>
      <trkpt lat="43.82227" lon="5.57198">
        <ele>794.5</ele>
        <time>2022-08-24T08:28:09Z</time>
      </trkpt>
      <trkpt lat="43.82235" lon="5.57203">
        <ele>793.8</ele>
        <time>2022-08-24T08:28:10Z</time>
      </trkpt>
      <trkpt lat="43.82248" lon="5.57209">
        <ele>792.6</ele>
        <time>2022-08-24T08:28:11Z</time>
      </trkpt>
      <trkpt lat="43.82256" lon="5.57215">
        <ele>792.1</ele>
        <time>2022-08-24T08:28:12Z</time>
      </trkpt>
      <trkpt lat="43.82267" lon="5.57221">
        <ele>791.4</ele>
        <time>2022-08-24T08:28:13Z</time>
      </trkpt>
      <trkpt lat="43.82277" lon="5.57227">
        <ele>791</ele>
        <time>2022-08-24T08:28:14Z</time>
      </trkpt>
      <trkpt lat="43.82287" lon="5.57233">
        <ele>790.9</ele>
        <time>2022-08-24T08:28:15Z</time>
      </trkpt>
      <trkpt lat="43.82292" lon="5.57239">
        <ele>790.7</ele>
        <time>2022-08-24T08:28:16Z</time>
      </trkpt>
      <trkpt lat="43.82298" lon="5.57248">
        <ele>790.3</ele>
        <time>2022-08-24T08:28:17Z</time>
      </trkpt>
      <trkpt lat="43.82307" lon="5.57254">
        <ele>789.8</ele>
        <time>2022-08-24T08:28:18Z</time>
      </trkpt>
      <trkpt lat="43.82315" lon="5.57258">
        <ele>789.1</ele>
        <time>2022-08-24T08:28:19Z</time>
      </trkpt>
      <trkpt lat="43.82323" lon="5.57261">
        <ele>788.4</ele>
        <time>2022-08-24T08:28:20Z</time>
      </trkpt>
      <trkpt lat="43.82329" lon="5.57265">
        <ele>787.8</ele>
        <time>2022-08-24T08:28:21Z</time>
      </trkpt>
      <trkpt lat="43.82335" lon="5.57268">
        <ele>787.3</ele>
        <time>2022-08-24T08:28:22Z</time>
      </trkpt>
      <trkpt lat="43.82343" lon="5.57272">
        <ele>786.9</ele>
        <time>2022-08-24T08:28:23Z</time>
      </trkpt>
      <trkpt lat="43.82349" lon="5.57276">
        <ele>786.5</ele>
        <time>2022-08-24T08:28:24Z</time>
      </trkpt>
      <trkpt lat="43.82359" lon="5.57281">
        <ele>786</ele>
        <time>2022-08-24T08:28:25Z</time>
      </trkpt>
      <trkpt lat="43.82368" lon="5.57284">
        <ele>785.3</ele>
        <time>2022-08-24T08:28:26Z</time>
      </trkpt>
      <trkpt lat="43.82377" lon="5.57289">
        <ele>784.4</ele>
        <time>2022-08-24T08:28:27Z</time>
      </trkpt>
      <trkpt lat="43.82386" lon="5.5729">
        <ele>783.8</ele>
        <time>2022-08-24T08:28:28Z</time>
      </trkpt>
      <trkpt lat="43.82393" lon="5.57289">
        <ele>783.4</ele>
        <time>2022-08-24T08:28:29Z</time>
      </trkpt>
      <trkpt lat="43.82402" lon="5.57288">
        <ele>782.7</ele>
        <time>2022-08-24T08:28:30Z</time>
      </trkpt>
      <trkpt lat="43.82412" lon="5.57287">
        <ele>782</ele>
        <time>2022-08-24T08:28:31Z</time>
      </trkpt>
      <trkpt lat="43.8242" lon="5.57286">
        <ele>781.5</ele>
        <time>2022-08-24T08:28:32Z</time>
      </trkpt>
      <trkpt lat="43.82427" lon="5.57285">
        <ele>781</ele>
        <time>2022-08-24T08:28:33Z</time>
      </trkpt>
      <trkpt lat="43.82436" lon="5.57284">
        <ele>780.4</ele>
        <time>2022-08-24T08:28:34Z</time>
      </trkpt>
      <trkpt lat="43.82444" lon="5.57283">
        <ele>779.8</ele>
        <time>2022-08-24T08:28:35Z</time>
      </trkpt>
      <trkpt lat="43.82453" lon="5.57283">
        <ele>779.1</ele>
        <time>2022-08-24T08:28:36Z</time>
      </trkpt>
      <trkpt lat="43.8246" lon="5.57284">
        <ele>778.5</ele>
        <time>2022-08-24T08:28:37Z</time>
      </trkpt>
      <trkpt lat="43.82468" lon="5.57287">
        <ele>777.7</ele>
        <time>2022-08-24T08:28:38Z</time>
      </trkpt>
      <trkpt lat="43.82482" lon="5.57289">
        <ele>776.2</ele>
        <time>2022-08-24T08:28:39Z</time>
      </trkpt>
      <trkpt lat="43.82493" lon="5.57293">
        <ele>774.7</ele>
        <time>2022-08-24T08:28:40Z</time>
      </trkpt>
      <trkpt lat="43.82504" lon="5.57299">
        <ele>773.2</ele>
        <time>2022-08-24T08:28:41Z</time>
      </trkpt>
      <trkpt lat="43.82514" lon="5.57303">
        <ele>772.2</ele>
        <time>2022-08-24T08:28:42Z</time>
      </trkpt>
      <trkpt lat="43.82525" lon="5.57308">
        <ele>770.9</ele>
        <time>2022-08-24T08:28:43Z</time>
      </trkpt>
      <trkpt lat="43.82536" lon="5.57314">
        <ele>769.6</ele>
        <time>2022-08-24T08:28:44Z</time>
      </trkpt>
      <trkpt lat="43.82544" lon="5.57319">
        <ele>768.7</ele>
        <time>2022-08-24T08:28:45Z</time>
      </trkpt>
      <trkpt lat="43.82551" lon="5.57322">
        <ele>768.1</ele>
        <time>2022-08-24T08:28:46Z</time>
      </trkpt>
      <trkpt lat="43.82558" lon="5.57324">
        <ele>767.7</ele>
        <time>2022-08-24T08:28:47Z</time>
      </trkpt>
      <trkpt lat="43.82561" lon="5.57318">
        <ele>768</ele>
        <time>2022-08-24T08:28:48Z</time>
      </trkpt>
      <trkpt lat="43.82566" lon="5.57315">
        <ele>768.1</ele>
        <time>2022-08-24T08:28:49Z</time>
      </trkpt>
      <trkpt lat="43.82566" lon="5.57309">
        <ele>768.5</ele>
        <time>2022-08-24T08:28:50Z</time>
      </trkpt>
      <trkpt lat="43.82569" lon="5.57302">
        <ele>768.7</ele>
        <time>2022-08-24T08:28:51Z</time>
      </trkpt>
      <trkpt lat="43.82573" lon="5.57293">
        <ele>769</ele>
        <time>2022-08-24T08:28:53Z</time>
      </trkpt>
      <trkpt lat="43.82572" lon="5.57287">
        <ele>769.3</ele>
        <time>2022-08-24T08:28:54Z</time>
      </trkpt>
      <trkpt lat="43.82572" lon="5.5728">
        <ele>769.7</ele>
        <time>2022-08-24T08:29:07Z</time>
      </trkpt>
      <trkpt lat="43.82574" lon="5.57274">
        <ele>769.8</ele>
        <time>2022-08-24T08:29:13Z</time>
      </trkpt>
      <trkpt lat="43.82575" lon="5.57265">
        <ele>770.1</ele>
        <time>2022-08-24T08:29:15Z</time>
      </trkpt>
      <trkpt lat="43.82577" lon="5.57254">
        <ele>770.3</ele>
        <time>2022-08-24T08:29:17Z</time>
      </trkpt>
      <trkpt lat="43.82581" lon="5.57245">
        <ele>770.4</ele>
        <time>2022-08-24T08:29:19Z</time>
      </trkpt>
      <trkpt lat="43.82586" lon="5.57239">
        <ele>770.3</ele>
        <time>2022-08-24T08:29:21Z</time>
      </trkpt>
      <trkpt lat="43.82591" lon="5.57236">
        <ele>770.1</ele>
        <time>2022-08-24T08:29:23Z</time>
      </trkpt>
      <trkpt lat="43.82599" lon="5.57235">
        <ele>769.7</ele>
        <time>2022-08-24T08:29:25Z</time>
      </trkpt>
      <trkpt lat="43.82604" lon="5.57235">
        <ele>769.4</ele>
        <time>2022-08-24T08:29:26Z</time>
      </trkpt>
      <trkpt lat="43.82615" lon="5.57236">
        <ele>768.7</ele>
        <time>2022-08-24T08:29:28Z</time>
      </trkpt>
      <trkpt lat="43.8262" lon="5.57236">
        <ele>768.4</ele>
        <time>2022-08-24T08:29:29Z</time>
      </trkpt>
      <trkpt lat="43.82625" lon="5.57236">
        <ele>768</ele>
        <time>2022-08-24T08:29:30Z</time>
      </trkpt>
      <trkpt lat="43.82633" lon="5.57237">
        <ele>767.4</ele>
        <time>2022-08-24T08:29:32Z</time>
      </trkpt>
      <trkpt lat="43.82638" lon="5.57239">
        <ele>767.1</ele>
        <time>2022-08-24T08:29:40Z</time>
      </trkpt>
      <trkpt lat="43.82639" lon="5.57231">
        <ele>767</ele>
        <time>2022-08-24T08:29:45Z</time>
      </trkpt>
      <trkpt lat="43.82635" lon="5.57228">
        <ele>767.3</ele>
        <time>2022-08-24T08:29:47Z</time>
      </trkpt>
      <trkpt lat="43.8263" lon="5.57222">
        <ele>767.6</ele>
        <time>2022-08-24T08:29:49Z</time>
      </trkpt>
      <trkpt lat="43.82631" lon="5.57211">
        <ele>767.7</ele>
        <time>2022-08-24T08:29:51Z</time>
      </trkpt>
      <trkpt lat="43.82636" lon="5.572">
        <ele>767.3</ele>
        <time>2022-08-24T08:29:53Z</time>
      </trkpt>
      <trkpt lat="43.82641" lon="5.57189">
        <ele>767</ele>
        <time>2022-08-24T08:29:55Z</time>
      </trkpt>
      <trkpt lat="43.82645" lon="5.57185">
        <ele>766.5</ele>
        <time>2022-08-24T08:29:56Z</time>
      </trkpt>
      <trkpt lat="43.82649" lon="5.57181">
        <ele>766</ele>
        <time>2022-08-24T08:29:57Z</time>
      </trkpt>
      <trkpt lat="43.82653" lon="5.57179">
        <ele>765.4</ele>
        <time>2022-08-24T08:29:58Z</time>
      </trkpt>
      <trkpt lat="43.82659" lon="5.57178">
        <ele>764.6</ele>
        <time>2022-08-24T08:29:59Z</time>
      </trkpt>
      <trkpt lat="43.82666" lon="5.57176">
        <ele>763.5</ele>
        <time>2022-08-24T08:30:00Z</time>
      </trkpt>
      <trkpt lat="43.82672" lon="5.57173">
        <ele>762.3</ele>
        <time>2022-08-24T08:30:01Z</time>
      </trkpt>
      <trkpt lat="43.82679" lon="5.57172">
        <ele>761</ele>
        <time>2022-08-24T08:30:02Z</time>
      </trkpt>
      <trkpt lat="43.82688" lon="5.57169">
        <ele>759.3</ele>
        <time>2022-08-24T08:30:03Z</time>
      </trkpt>
      <trkpt lat="43.82698" lon="5.57166">
        <ele>757.3</ele>
        <time>2022-08-24T08:30:04Z</time>
      </trkpt>
      <trkpt lat="43.8271" lon="5.57165">
        <ele>754.7</ele>
        <time>2022-08-24T08:30:05Z</time>
      </trkpt>
      <trkpt lat="43.82721" lon="5.57161">
        <ele>752.5</ele>
        <time>2022-08-24T08:30:06Z</time>
      </trkpt>
      <trkpt lat="43.82734" lon="5.57161">
        <ele>749.6</ele>
        <time>2022-08-24T08:30:07Z</time>
      </trkpt>
      <trkpt lat="43.8275" lon="5.57161">
        <ele>746.2</ele>
        <time>2022-08-24T08:30:08Z</time>
      </trkpt>
      <trkpt lat="43.82761" lon="5.57158">
        <ele>744.9</ele>
        <time>2022-08-24T08:30:09Z</time>
      </trkpt>
      <trkpt lat="43.82772" lon="5.57153">
        <ele>743.3</ele>
        <time>2022-08-24T08:30:10Z</time>
      </trkpt>
      <trkpt lat="43.82782" lon="5.57146">
        <ele>741.6</ele>
        <time>2022-08-24T08:30:11Z</time>
      </trkpt>
      <trkpt lat="43.82797" lon="5.57141">
        <ele>738.7</ele>
        <time>2022-08-24T08:30:12Z</time>
      </trkpt>
      <trkpt lat="43.82812" lon="5.57138">
        <ele>736.2</ele>
        <time>2022-08-24T08:30:13Z</time>
      </trkpt>
      <trkpt lat="43.82822" lon="5.57134">
        <ele>735</ele>
        <time>2022-08-24T08:30:14Z</time>
      </trkpt>
      <trkpt lat="43.82834" lon="5.57131">
        <ele>733.5</ele>
        <time>2022-08-24T08:30:15Z</time>
      </trkpt>
      <trkpt lat="43.82846" lon="5.57129">
        <ele>731.8</ele>
        <time>2022-08-24T08:30:16Z</time>
      </trkpt>
      <trkpt lat="43.82859" lon="5.57129">
        <ele>729.7</ele>
        <time>2022-08-24T08:30:17Z</time>
      </trkpt>
      <trkpt lat="43.82872" lon="5.57129">
        <ele>727.7</ele>
        <time>2022-08-24T08:30:18Z</time>
      </trkpt>
      <trkpt lat="43.82883" lon="5.57126">
        <ele>726.3</ele>
        <time>2022-08-24T08:30:19Z</time>
      </trkpt>
      <trkpt lat="43.82892" lon="5.57126">
        <ele>725.6</ele>
        <time>2022-08-24T08:30:20Z</time>
      </trkpt>
      <trkpt lat="43.82901" lon="5.57127">
        <ele>725.8</ele>
        <time>2022-08-24T08:30:21Z</time>
      </trkpt>
      <trkpt lat="43.8291" lon="5.57134">
        <ele>725.5</ele>
        <time>2022-08-24T08:30:23Z</time>
      </trkpt>
      <trkpt lat="43.82913" lon="5.57142">
        <ele>724.8</ele>
        <time>2022-08-24T08:30:24Z</time>
      </trkpt>
      <trkpt lat="43.82916" lon="5.57149">
        <ele>724</ele>
        <time>2022-08-24T08:30:25Z</time>
      </trkpt>
      <trkpt lat="43.8292" lon="5.57156">
        <ele>723.4</ele>
        <time>2022-08-24T08:30:26Z</time>
      </trkpt>
      <trkpt lat="43.82924" lon="5.57165">
        <ele>723</ele>
        <time>2022-08-24T08:30:27Z</time>
      </trkpt>
      <trkpt lat="43.82928" lon="5.57173">
        <ele>722.9</ele>
        <time>2022-08-24T08:30:28Z</time>
      </trkpt>
      <trkpt lat="43.82932" lon="5.57181">
        <ele>722.5</ele>
        <time>2022-08-24T08:30:29Z</time>
      </trkpt>
      <trkpt lat="43.82937" lon="5.57189">
        <ele>721.9</ele>
        <time>2022-08-24T08:30:30Z</time>
      </trkpt>
      <trkpt lat="43.82942" lon="5.57196">
        <ele>721</ele>
        <time>2022-08-24T08:30:31Z</time>
      </trkpt>
      <trkpt lat="43.82949" lon="5.57203">
        <ele>720.6</ele>
        <time>2022-08-24T08:30:32Z</time>
      </trkpt>
      <trkpt lat="43.82954" lon="5.57209">
        <ele>720.3</ele>
        <time>2022-08-24T08:30:33Z</time>
      </trkpt>
      <trkpt lat="43.82959" lon="5.57214">
        <ele>720.1</ele>
        <time>2022-08-24T08:30:34Z</time>
      </trkpt>
      <trkpt lat="43.82964" lon="5.57218">
        <ele>720</ele>
        <time>2022-08-24T08:30:35Z</time>
      </trkpt>
      <trkpt lat="43.82968" lon="5.57222">
        <ele>719.9</ele>
        <time>2022-08-24T08:30:36Z</time>
      </trkpt>
      <trkpt lat="43.82973" lon="5.57237">
        <ele>719.4</ele>
        <time>2022-08-24T08:30:38Z</time>
      </trkpt>
      <trkpt lat="43.82975" lon="5.57244">
        <ele>718.9</ele>
        <time>2022-08-24T08:30:39Z</time>
      </trkpt>
      <trkpt lat="43.82976" lon="5.57252">
        <ele>718.3</ele>
        <time>2022-08-24T08:30:40Z</time>
      </trkpt>
      <trkpt lat="43.82978" lon="5.57259">
        <ele>717.5</ele>
        <time>2022-08-24T08:30:41Z</time>
      </trkpt>
      <trkpt lat="43.82979" lon="5.57267">
        <ele>716.8</ele>
        <time>2022-08-24T08:30:42Z</time>
      </trkpt>
      <trkpt lat="43.8298" lon="5.57275">
        <ele>716.2</ele>
        <time>2022-08-24T08:30:43Z</time>
      </trkpt>
      <trkpt lat="43.82982" lon="5.57283">
        <ele>715.8</ele>
        <time>2022-08-24T08:30:44Z</time>
      </trkpt>
      <trkpt lat="43.82983" lon="5.57291">
        <ele>715.4</ele>
        <time>2022-08-24T08:30:45Z</time>
      </trkpt>
      <trkpt lat="43.82985" lon="5.573">
        <ele>715.2</ele>
        <time>2022-08-24T08:30:46Z</time>
      </trkpt>
      <trkpt lat="43.82987" lon="5.57309">
        <ele>715</ele>
        <time>2022-08-24T08:30:47Z</time>
      </trkpt>
      <trkpt lat="43.8299" lon="5.57317">
        <ele>714.8</ele>
        <time>2022-08-24T08:30:48Z</time>
      </trkpt>
      <trkpt lat="43.82993" lon="5.57326">
        <ele>714.8</ele>
        <time>2022-08-24T08:30:49Z</time>
      </trkpt>
      <trkpt lat="43.82995" lon="5.57334">
        <ele>714.6</ele>
        <time>2022-08-24T08:30:50Z</time>
      </trkpt>
      <trkpt lat="43.82999" lon="5.57342">
        <ele>714.6</ele>
        <time>2022-08-24T08:30:51Z</time>
      </trkpt>
      <trkpt lat="43.83004" lon="5.57349">
        <ele>714</ele>
        <time>2022-08-24T08:30:52Z</time>
      </trkpt>
      <trkpt lat="43.83004" lon="5.57361">
        <ele>713.6</ele>
        <time>2022-08-24T08:30:53Z</time>
      </trkpt>
      <trkpt lat="43.83007" lon="5.57368">
        <ele>712.6</ele>
        <time>2022-08-24T08:30:54Z</time>
      </trkpt>
      <trkpt lat="43.83009" lon="5.57378">
        <ele>711.7</ele>
        <time>2022-08-24T08:30:55Z</time>
      </trkpt>
      <trkpt lat="43.8301" lon="5.57387">
        <ele>710.8</ele>
        <time>2022-08-24T08:30:56Z</time>
      </trkpt>
      <trkpt lat="43.83012" lon="5.57397">
        <ele>709.8</ele>
        <time>2022-08-24T08:30:57Z</time>
      </trkpt>
      <trkpt lat="43.83013" lon="5.57407">
        <ele>708.8</ele>
        <time>2022-08-24T08:30:58Z</time>
      </trkpt>
      <trkpt lat="43.83015" lon="5.57418">
        <ele>708</ele>
        <time>2022-08-24T08:30:59Z</time>
      </trkpt>
      <trkpt lat="43.83017" lon="5.57427">
        <ele>707.9</ele>
        <time>2022-08-24T08:31:00Z</time>
      </trkpt>
      <trkpt lat="43.83019" lon="5.57437">
        <ele>707.6</ele>
        <time>2022-08-24T08:31:01Z</time>
      </trkpt>
      <trkpt lat="43.8302" lon="5.57448">
        <ele>707.4</ele>
        <time>2022-08-24T08:31:02Z</time>
      </trkpt>
      <trkpt lat="43.83018" lon="5.57456">
        <ele>707.1</ele>
        <time>2022-08-24T08:31:03Z</time>
      </trkpt>
      <trkpt lat="43.83018" lon="5.57467">
        <ele>707</ele>
        <time>2022-08-24T08:31:04Z</time>
      </trkpt>
      <trkpt lat="43.83019" lon="5.57476">
        <ele>707</ele>
        <time>2022-08-24T08:31:05Z</time>
      </trkpt>
      <trkpt lat="43.83022" lon="5.57484">
        <ele>707.3</ele>
        <time>2022-08-24T08:31:06Z</time>
      </trkpt>
      <trkpt lat="43.83026" lon="5.5749">
        <ele>707.7</ele>
        <time>2022-08-24T08:31:07Z</time>
      </trkpt>
      <trkpt lat="43.83026" lon="5.57499">
        <ele>707.7</ele>
        <time>2022-08-24T08:31:08Z</time>
      </trkpt>
      <trkpt lat="43.83025" lon="5.57508">
        <ele>707.9</ele>
        <time>2022-08-24T08:31:09Z</time>
      </trkpt>
      <trkpt lat="43.83025" lon="5.5752">
        <ele>708.3</ele>
        <time>2022-08-24T08:31:11Z</time>
      </trkpt>
      <trkpt lat="43.83024" lon="5.57527">
        <ele>708.6</ele>
        <time>2022-08-24T08:31:12Z</time>
      </trkpt>
      <trkpt lat="43.83025" lon="5.57534">
        <ele>708.8</ele>
        <time>2022-08-24T08:31:13Z</time>
      </trkpt>
      <trkpt lat="43.83024" lon="5.57541">
        <ele>708.6</ele>
        <time>2022-08-24T08:31:14Z</time>
      </trkpt>
      <trkpt lat="43.83024" lon="5.57548">
        <ele>708.7</ele>
        <time>2022-08-24T08:31:15Z</time>
      </trkpt>
      <trkpt lat="43.83024" lon="5.57554">
        <ele>708.7</ele>
        <time>2022-08-24T08:31:16Z</time>
      </trkpt>
      <trkpt lat="43.83027" lon="5.57561">
        <ele>709.1</ele>
        <time>2022-08-24T08:31:17Z</time>
      </trkpt>
      <trkpt lat="43.83027" lon="5.57569">
        <ele>709.4</ele>
        <time>2022-08-24T08:31:18Z</time>
      </trkpt>
      <trkpt lat="43.83027" lon="5.57576">
        <ele>709.7</ele>
        <time>2022-08-24T08:31:19Z</time>
      </trkpt>
      <trkpt lat="43.83027" lon="5.57583">
        <ele>709.9</ele>
        <time>2022-08-24T08:31:20Z</time>
      </trkpt>
      <trkpt lat="43.83026" lon="5.57589">
        <ele>710.1</ele>
        <time>2022-08-24T08:31:21Z</time>
      </trkpt>
      <trkpt lat="43.83025" lon="5.57595">
        <ele>710.3</ele>
        <time>2022-08-24T08:31:22Z</time>
      </trkpt>
      <trkpt lat="43.83025" lon="5.57608">
        <ele>710.8</ele>
        <time>2022-08-24T08:31:24Z</time>
      </trkpt>
      <trkpt lat="43.83025" lon="5.5762">
        <ele>711</ele>
        <time>2022-08-24T08:31:26Z</time>
      </trkpt>
      <trkpt lat="43.83026" lon="5.57627">
        <ele>711</ele>
        <time>2022-08-24T08:31:27Z</time>
      </trkpt>
      <trkpt lat="43.83025" lon="5.57634">
        <ele>711.1</ele>
        <time>2022-08-24T08:31:28Z</time>
      </trkpt>
      <trkpt lat="43.83026" lon="5.57641">
        <ele>711.1</ele>
        <time>2022-08-24T08:31:29Z</time>
      </trkpt>
      <trkpt lat="43.83026" lon="5.57648">
        <ele>711.1</ele>
        <time>2022-08-24T08:31:30Z</time>
      </trkpt>
      <trkpt lat="43.83025" lon="5.57654">
        <ele>711.1</ele>
        <time>2022-08-24T08:31:31Z</time>
      </trkpt>
      <trkpt lat="43.83025" lon="5.57661">
        <ele>711.1</ele>
        <time>2022-08-24T08:31:32Z</time>
      </trkpt>
      <trkpt lat="43.83024" lon="5.57668">
        <ele>711.1</ele>
        <time>2022-08-24T08:31:33Z</time>
      </trkpt>
      <trkpt lat="43.83023" lon="5.57674">
        <ele>711</ele>
        <time>2022-08-24T08:31:34Z</time>
      </trkpt>
      <trkpt lat="43.83023" lon="5.5768">
        <ele>710.8</ele>
        <time>2022-08-24T08:31:35Z</time>
      </trkpt>
      <trkpt lat="43.83021" lon="5.57687">
        <ele>710.7</ele>
        <time>2022-08-24T08:31:36Z</time>
      </trkpt>
      <trkpt lat="43.83019" lon="5.57692">
        <ele>710.7</ele>
        <time>2022-08-24T08:31:37Z</time>
      </trkpt>
      <trkpt lat="43.83017" lon="5.57698">
        <ele>710.6</ele>
        <time>2022-08-24T08:31:38Z</time>
      </trkpt>
      <trkpt lat="43.83016" lon="5.5771">
        <ele>710</ele>
        <time>2022-08-24T08:31:40Z</time>
      </trkpt>
      <trkpt lat="43.83015" lon="5.57722">
        <ele>709.4</ele>
        <time>2022-08-24T08:31:42Z</time>
      </trkpt>
      <trkpt lat="43.83014" lon="5.57735">
        <ele>708.8</ele>
        <time>2022-08-24T08:31:44Z</time>
      </trkpt>
      <trkpt lat="43.83015" lon="5.57742">
        <ele>708.4</ele>
        <time>2022-08-24T08:31:45Z</time>
      </trkpt>
      <trkpt lat="43.83014" lon="5.57749">
        <ele>708</ele>
        <time>2022-08-24T08:31:46Z</time>
      </trkpt>
      <trkpt lat="43.83013" lon="5.57756">
        <ele>707.9</ele>
        <time>2022-08-24T08:31:47Z</time>
      </trkpt>
      <trkpt lat="43.83011" lon="5.57762">
        <ele>707.8</ele>
        <time>2022-08-24T08:31:48Z</time>
      </trkpt>
      <trkpt lat="43.83009" lon="5.57769">
        <ele>707.7</ele>
        <time>2022-08-24T08:31:49Z</time>
      </trkpt>
      <trkpt lat="43.83007" lon="5.57776">
        <ele>707.6</ele>
        <time>2022-08-24T08:31:50Z</time>
      </trkpt>
      <trkpt lat="43.83006" lon="5.57782">
        <ele>707.4</ele>
        <time>2022-08-24T08:31:51Z</time>
      </trkpt>
      <trkpt lat="43.83002" lon="5.57787">
        <ele>707.5</ele>
        <time>2022-08-24T08:31:52Z</time>
      </trkpt>
      <trkpt lat="43.83" lon="5.57794">
        <ele>707.4</ele>
        <time>2022-08-24T08:31:53Z</time>
      </trkpt>
      <trkpt lat="43.82997" lon="5.578">
        <ele>706.7</ele>
        <time>2022-08-24T08:31:54Z</time>
      </trkpt>
      <trkpt lat="43.82996" lon="5.57807">
        <ele>706.1</ele>
        <time>2022-08-24T08:31:55Z</time>
      </trkpt>
      <trkpt lat="43.82993" lon="5.57813">
        <ele>705.4</ele>
        <time>2022-08-24T08:31:56Z</time>
      </trkpt>
      <trkpt lat="43.82992" lon="5.57821">
        <ele>704.8</ele>
        <time>2022-08-24T08:31:57Z</time>
      </trkpt>
      <trkpt lat="43.82991" lon="5.57828">
        <ele>704.2</ele>
        <time>2022-08-24T08:31:58Z</time>
      </trkpt>
      <trkpt lat="43.8299" lon="5.57834">
        <ele>703.9</ele>
        <time>2022-08-24T08:31:59Z</time>
      </trkpt>
      <trkpt lat="43.8299" lon="5.57841">
        <ele>703.8</ele>
        <time>2022-08-24T08:32:00Z</time>
      </trkpt>
      <trkpt lat="43.82989" lon="5.57848">
        <ele>703.7</ele>
        <time>2022-08-24T08:32:01Z</time>
      </trkpt>
      <trkpt lat="43.82987" lon="5.57855">
        <ele>703.5</ele>
        <time>2022-08-24T08:32:02Z</time>
      </trkpt>
      <trkpt lat="43.82984" lon="5.57861">
        <ele>703.4</ele>
        <time>2022-08-24T08:32:03Z</time>
      </trkpt>
      <trkpt lat="43.8298" lon="5.57868">
        <ele>703.1</ele>
        <time>2022-08-24T08:32:04Z</time>
      </trkpt>
      <trkpt lat="43.82977" lon="5.57874">
        <ele>702.9</ele>
        <time>2022-08-24T08:32:05Z</time>
      </trkpt>
      <trkpt lat="43.82975" lon="5.57881">
        <ele>702.9</ele>
        <time>2022-08-24T08:32:06Z</time>
      </trkpt>
      <trkpt lat="43.8297" lon="5.57887">
        <ele>702.6</ele>
        <time>2022-08-24T08:32:07Z</time>
      </trkpt>
      <trkpt lat="43.82968" lon="5.57894">
        <ele>702</ele>
        <time>2022-08-24T08:32:08Z</time>
      </trkpt>
      <trkpt lat="43.82967" lon="5.579">
        <ele>701.6</ele>
        <time>2022-08-24T08:32:09Z</time>
      </trkpt>
      <trkpt lat="43.82964" lon="5.57907">
        <ele>701.1</ele>
        <time>2022-08-24T08:32:10Z</time>
      </trkpt>
      <trkpt lat="43.8296" lon="5.57913">
        <ele>700.6</ele>
        <time>2022-08-24T08:32:11Z</time>
      </trkpt>
      <trkpt lat="43.82958" lon="5.57919">
        <ele>700.3</ele>
        <time>2022-08-24T08:32:12Z</time>
      </trkpt>
      <trkpt lat="43.82955" lon="5.57926">
        <ele>700</ele>
        <time>2022-08-24T08:32:13Z</time>
      </trkpt>
      <trkpt lat="43.82953" lon="5.57933">
        <ele>699.8</ele>
        <time>2022-08-24T08:32:14Z</time>
      </trkpt>
      <trkpt lat="43.82949" lon="5.57938">
        <ele>699.8</ele>
        <time>2022-08-24T08:32:15Z</time>
      </trkpt>
      <trkpt lat="43.82946" lon="5.57943">
        <ele>699.9</ele>
        <time>2022-08-24T08:32:16Z</time>
      </trkpt>
      <trkpt lat="43.82942" lon="5.57949">
        <ele>699.4</ele>
        <time>2022-08-24T08:32:17Z</time>
      </trkpt>
      <trkpt lat="43.82939" lon="5.57956">
        <ele>698.6</ele>
        <time>2022-08-24T08:32:18Z</time>
      </trkpt>
      <trkpt lat="43.82935" lon="5.57963">
        <ele>697.8</ele>
        <time>2022-08-24T08:32:19Z</time>
      </trkpt>
      <trkpt lat="43.82932" lon="5.57968">
        <ele>697.3</ele>
        <time>2022-08-24T08:32:20Z</time>
      </trkpt>
      <trkpt lat="43.8293" lon="5.57974">
        <ele>696.8</ele>
        <time>2022-08-24T08:32:21Z</time>
      </trkpt>
      <trkpt lat="43.82927" lon="5.57981">
        <ele>696.4</ele>
        <time>2022-08-24T08:32:22Z</time>
      </trkpt>
      <trkpt lat="43.82923" lon="5.57988">
        <ele>696.3</ele>
        <time>2022-08-24T08:32:23Z</time>
      </trkpt>
      <trkpt lat="43.82919" lon="5.57995">
        <ele>696.6</ele>
        <time>2022-08-24T08:32:24Z</time>
      </trkpt>
      <trkpt lat="43.82918" lon="5.58002">
        <ele>696.8</ele>
        <time>2022-08-24T08:32:25Z</time>
      </trkpt>
      <trkpt lat="43.82917" lon="5.58008">
        <ele>696.6</ele>
        <time>2022-08-24T08:32:27Z</time>
      </trkpt>
      <trkpt lat="43.82913" lon="5.58014">
        <ele>696.1</ele>
        <time>2022-08-24T08:32:31Z</time>
      </trkpt>
      <trkpt lat="43.82908" lon="5.5802">
        <ele>695.6</ele>
        <time>2022-08-24T08:32:33Z</time>
      </trkpt>
      <trkpt lat="43.82904" lon="5.58024">
        <ele>695.4</ele>
        <time>2022-08-24T08:32:34Z</time>
      </trkpt>
      <trkpt lat="43.82901" lon="5.58029">
        <ele>695.5</ele>
        <time>2022-08-24T08:32:35Z</time>
      </trkpt>
      <trkpt lat="43.82899" lon="5.58035">
        <ele>695.7</ele>
        <time>2022-08-24T08:32:36Z</time>
      </trkpt>
      <trkpt lat="43.82897" lon="5.58042">
        <ele>696.2</ele>
        <time>2022-08-24T08:32:37Z</time>
      </trkpt>
      <trkpt lat="43.82895" lon="5.58048">
        <ele>696.7</ele>
        <time>2022-08-24T08:32:38Z</time>
      </trkpt>
      <trkpt lat="43.82893" lon="5.5806">
        <ele>697.7</ele>
        <time>2022-08-24T08:32:40Z</time>
      </trkpt>
      <trkpt lat="43.8289" lon="5.58065">
        <ele>698.2</ele>
        <time>2022-08-24T08:32:41Z</time>
      </trkpt>
      <trkpt lat="43.82886" lon="5.58076">
        <ele>698.4</ele>
        <time>2022-08-24T08:32:43Z</time>
      </trkpt>
      <trkpt lat="43.82883" lon="5.58086">
        <ele>698.7</ele>
        <time>2022-08-24T08:32:45Z</time>
      </trkpt>
      <trkpt lat="43.82879" lon="5.58094">
        <ele>698.8</ele>
        <time>2022-08-24T08:32:47Z</time>
      </trkpt>
      <trkpt lat="43.82875" lon="5.58104">
        <ele>699.1</ele>
        <time>2022-08-24T08:32:49Z</time>
      </trkpt>
      <trkpt lat="43.82872" lon="5.58112">
        <ele>699.4</ele>
        <time>2022-08-24T08:32:51Z</time>
      </trkpt>
      <trkpt lat="43.82869" lon="5.58122">
        <ele>699.8</ele>
        <time>2022-08-24T08:32:53Z</time>
      </trkpt>
      <trkpt lat="43.82866" lon="5.58131">
        <ele>700.4</ele>
        <time>2022-08-24T08:32:55Z</time>
      </trkpt>
      <trkpt lat="43.82863" lon="5.58141">
        <ele>701.1</ele>
        <time>2022-08-24T08:32:57Z</time>
      </trkpt>
      <trkpt lat="43.8286" lon="5.5815">
        <ele>701.7</ele>
        <time>2022-08-24T08:32:59Z</time>
      </trkpt>
      <trkpt lat="43.82857" lon="5.58159">
        <ele>702.1</ele>
        <time>2022-08-24T08:33:01Z</time>
      </trkpt>
      <trkpt lat="43.82856" lon="5.58168">
        <ele>702.7</ele>
        <time>2022-08-24T08:33:03Z</time>
      </trkpt>
      <trkpt lat="43.82853" lon="5.58176">
        <ele>703</ele>
        <time>2022-08-24T08:39:23Z</time>
      </trkpt>
      <trkpt lat="43.82848" lon="5.58183">
        <ele>703.2</ele>
        <time>2022-08-24T08:39:32Z</time>
      </trkpt>
      <trkpt lat="43.82845" lon="5.5819">
        <ele>703.7</ele>
        <time>2022-08-24T08:39:34Z</time>
      </trkpt>
      <trkpt lat="43.82842" lon="5.58198">
        <ele>704.1</ele>
        <time>2022-08-24T08:39:36Z</time>
      </trkpt>
      <trkpt lat="43.82837" lon="5.58205">
        <ele>704.5</ele>
        <time>2022-08-24T08:39:38Z</time>
      </trkpt>
      <trkpt lat="43.82832" lon="5.5821">
        <ele>705</ele>
        <time>2022-08-24T08:39:40Z</time>
      </trkpt>
      <trkpt lat="43.82828" lon="5.58217">
        <ele>705.1</ele>
        <time>2022-08-24T08:39:42Z</time>
      </trkpt>
      <trkpt lat="43.82824" lon="5.58224">
        <ele>705.4</ele>
        <time>2022-08-24T08:39:44Z</time>
      </trkpt>
      <trkpt lat="43.82819" lon="5.58231">
        <ele>705.6</ele>
        <time>2022-08-24T08:39:46Z</time>
      </trkpt>
      <trkpt lat="43.82815" lon="5.58238">
        <ele>706</ele>
        <time>2022-08-24T08:39:48Z</time>
      </trkpt>
      <trkpt lat="43.8281" lon="5.58244">
        <ele>706.5</ele>
        <time>2022-08-24T08:39:50Z</time>
      </trkpt>
      <trkpt lat="43.82805" lon="5.58251">
        <ele>707</ele>
        <time>2022-08-24T08:39:52Z</time>
      </trkpt>
      <trkpt lat="43.828" lon="5.58258">
        <ele>707.1</ele>
        <time>2022-08-24T08:39:54Z</time>
      </trkpt>
      <trkpt lat="43.82795" lon="5.58264">
        <ele>707.4</ele>
        <time>2022-08-24T08:39:56Z</time>
      </trkpt>
      <trkpt lat="43.82791" lon="5.58271">
        <ele>707.9</ele>
        <time>2022-08-24T08:39:58Z</time>
      </trkpt>
      <trkpt lat="43.82787" lon="5.58278">
        <ele>708.6</ele>
        <time>2022-08-24T08:40:00Z</time>
      </trkpt>
      <trkpt lat="43.82782" lon="5.58284">
        <ele>708.9</ele>
        <time>2022-08-24T08:40:02Z</time>
      </trkpt>
      <trkpt lat="43.82779" lon="5.58292">
        <ele>709.5</ele>
        <time>2022-08-24T08:40:04Z</time>
      </trkpt>
      <trkpt lat="43.82774" lon="5.583">
        <ele>709.9</ele>
        <time>2022-08-24T08:40:06Z</time>
      </trkpt>
      <trkpt lat="43.82771" lon="5.58308">
        <ele>710.2</ele>
        <time>2022-08-24T08:40:08Z</time>
      </trkpt>
      <trkpt lat="43.82766" lon="5.58316">
        <ele>710.6</ele>
        <time>2022-08-24T08:40:10Z</time>
      </trkpt>
      <trkpt lat="43.82762" lon="5.58324">
        <ele>711</ele>
        <time>2022-08-24T08:40:12Z</time>
      </trkpt>
      <trkpt lat="43.82757" lon="5.58331">
        <ele>711.4</ele>
        <time>2022-08-24T08:40:14Z</time>
      </trkpt>
      <trkpt lat="43.82752" lon="5.58338">
        <ele>711.9</ele>
        <time>2022-08-24T08:40:16Z</time>
      </trkpt>
      <trkpt lat="43.82747" lon="5.58345">
        <ele>712</ele>
        <time>2022-08-24T08:40:18Z</time>
      </trkpt>
      <trkpt lat="43.82741" lon="5.58352">
        <ele>711.9</ele>
        <time>2022-08-24T08:40:20Z</time>
      </trkpt>
      <trkpt lat="43.82737" lon="5.58359">
        <ele>712.3</ele>
        <time>2022-08-24T08:40:22Z</time>
      </trkpt>
      <trkpt lat="43.82733" lon="5.58367">
        <ele>712.7</ele>
        <time>2022-08-24T08:40:24Z</time>
      </trkpt>
      <trkpt lat="43.82728" lon="5.58374">
        <ele>712.9</ele>
        <time>2022-08-24T08:40:26Z</time>
      </trkpt>
      <trkpt lat="43.82724" lon="5.58382">
        <ele>713.3</ele>
        <time>2022-08-24T08:40:28Z</time>
      </trkpt>
      <trkpt lat="43.8272" lon="5.58392">
        <ele>713.9</ele>
        <time>2022-08-24T08:40:30Z</time>
      </trkpt>
      <trkpt lat="43.82717" lon="5.58401">
        <ele>714.4</ele>
        <time>2022-08-24T08:40:32Z</time>
      </trkpt>
      <trkpt lat="43.82713" lon="5.58409">
        <ele>714.8</ele>
        <time>2022-08-24T08:40:34Z</time>
      </trkpt>
      <trkpt lat="43.82708" lon="5.58418">
        <ele>715.1</ele>
        <time>2022-08-24T08:40:36Z</time>
      </trkpt>
      <trkpt lat="43.82703" lon="5.58425">
        <ele>715.2</ele>
        <time>2022-08-24T08:40:38Z</time>
      </trkpt>
      <trkpt lat="43.82698" lon="5.58432">
        <ele>715.6</ele>
        <time>2022-08-24T08:40:40Z</time>
      </trkpt>
      <trkpt lat="43.82695" lon="5.5844">
        <ele>716.3</ele>
        <time>2022-08-24T08:40:42Z</time>
      </trkpt>
      <trkpt lat="43.82692" lon="5.58448">
        <ele>716.6</ele>
        <time>2022-08-24T08:40:44Z</time>
      </trkpt>
      <trkpt lat="43.82688" lon="5.58455">
        <ele>716.5</ele>
        <time>2022-08-24T08:40:46Z</time>
      </trkpt>
      <trkpt lat="43.82685" lon="5.58464">
        <ele>716.8</ele>
        <time>2022-08-24T08:40:48Z</time>
      </trkpt>
      <trkpt lat="43.82681" lon="5.58472">
        <ele>717.2</ele>
        <time>2022-08-24T08:40:50Z</time>
      </trkpt>
      <trkpt lat="43.82679" lon="5.58481">
        <ele>718</ele>
        <time>2022-08-24T08:40:52Z</time>
      </trkpt>
      <trkpt lat="43.82677" lon="5.58491">
        <ele>718.9</ele>
        <time>2022-08-24T08:40:54Z</time>
      </trkpt>
      <trkpt lat="43.82674" lon="5.585">
        <ele>719.6</ele>
        <time>2022-08-24T08:40:56Z</time>
      </trkpt>
      <trkpt lat="43.82672" lon="5.5851">
        <ele>720.1</ele>
        <time>2022-08-24T08:40:58Z</time>
      </trkpt>
      <trkpt lat="43.82669" lon="5.58519">
        <ele>720.5</ele>
        <time>2022-08-24T08:41:00Z</time>
      </trkpt>
      <trkpt lat="43.82669" lon="5.58529">
        <ele>721.4</ele>
        <time>2022-08-24T08:41:02Z</time>
      </trkpt>
      <trkpt lat="43.82668" lon="5.58538">
        <ele>721.7</ele>
        <time>2022-08-24T08:41:04Z</time>
      </trkpt>
      <trkpt lat="43.82668" lon="5.58547">
        <ele>721.8</ele>
        <time>2022-08-24T08:41:06Z</time>
      </trkpt>
      <trkpt lat="43.82667" lon="5.58556">
        <ele>722.1</ele>
        <time>2022-08-24T08:41:08Z</time>
      </trkpt>
      <trkpt lat="43.82667" lon="5.58566">
        <ele>722.8</ele>
        <time>2022-08-24T08:41:10Z</time>
      </trkpt>
      <trkpt lat="43.82666" lon="5.58575">
        <ele>723.3</ele>
        <time>2022-08-24T08:41:12Z</time>
      </trkpt>
      <trkpt lat="43.82666" lon="5.58585">
        <ele>723.8</ele>
        <time>2022-08-24T08:41:14Z</time>
      </trkpt>
      <trkpt lat="43.82666" lon="5.58594">
        <ele>724.1</ele>
        <time>2022-08-24T08:41:16Z</time>
      </trkpt>
      <trkpt lat="43.82666" lon="5.58604">
        <ele>724.4</ele>
        <time>2022-08-24T08:41:18Z</time>
      </trkpt>
      <trkpt lat="43.82665" lon="5.58613">
        <ele>724.6</ele>
        <time>2022-08-24T08:41:20Z</time>
      </trkpt>
      <trkpt lat="43.82663" lon="5.58623">
        <ele>725.1</ele>
        <time>2022-08-24T08:41:22Z</time>
      </trkpt>
      <trkpt lat="43.82661" lon="5.58631">
        <ele>725.3</ele>
        <time>2022-08-24T08:41:24Z</time>
      </trkpt>
      <trkpt lat="43.82657" lon="5.58639">
        <ele>725.3</ele>
        <time>2022-08-24T08:41:26Z</time>
      </trkpt>
      <trkpt lat="43.82654" lon="5.58647">
        <ele>726.1</ele>
        <time>2022-08-24T08:41:28Z</time>
      </trkpt>
      <trkpt lat="43.82649" lon="5.58654">
        <ele>726.6</ele>
        <time>2022-08-24T08:41:30Z</time>
      </trkpt>
      <trkpt lat="43.82644" lon="5.5866">
        <ele>727.1</ele>
        <time>2022-08-24T08:41:32Z</time>
      </trkpt>
      <trkpt lat="43.82638" lon="5.58665">
        <ele>727.6</ele>
        <time>2022-08-24T08:41:34Z</time>
      </trkpt>
      <trkpt lat="43.82632" lon="5.5867">
        <ele>728.1</ele>
        <time>2022-08-24T08:41:36Z</time>
      </trkpt>
      <trkpt lat="43.82626" lon="5.58674">
        <ele>728.5</ele>
        <time>2022-08-24T08:41:38Z</time>
      </trkpt>
      <trkpt lat="43.8262" lon="5.58678">
        <ele>728.9</ele>
        <time>2022-08-24T08:41:40Z</time>
      </trkpt>
      <trkpt lat="43.82613" lon="5.5868">
        <ele>729</ele>
        <time>2022-08-24T08:41:42Z</time>
      </trkpt>
      <trkpt lat="43.82606" lon="5.58682">
        <ele>729</ele>
        <time>2022-08-24T08:41:44Z</time>
      </trkpt>
      <trkpt lat="43.82599" lon="5.58685">
        <ele>729.1</ele>
        <time>2022-08-24T08:41:46Z</time>
      </trkpt>
      <trkpt lat="43.82592" lon="5.58687">
        <ele>729.3</ele>
        <time>2022-08-24T08:41:48Z</time>
      </trkpt>
      <trkpt lat="43.82585" lon="5.58691">
        <ele>730.2</ele>
        <time>2022-08-24T08:41:50Z</time>
      </trkpt>
      <trkpt lat="43.82578" lon="5.58696">
        <ele>730.8</ele>
        <time>2022-08-24T08:41:52Z</time>
      </trkpt>
      <trkpt lat="43.82571" lon="5.587">
        <ele>731.2</ele>
        <time>2022-08-24T08:41:54Z</time>
      </trkpt>
      <trkpt lat="43.82564" lon="5.58704">
        <ele>731.5</ele>
        <time>2022-08-24T08:41:56Z</time>
      </trkpt>
      <trkpt lat="43.82558" lon="5.58707">
        <ele>731.9</ele>
        <time>2022-08-24T08:41:58Z</time>
      </trkpt>
      <trkpt lat="43.82549" lon="5.58713">
        <ele>732.2</ele>
        <time>2022-08-24T08:42:01Z</time>
      </trkpt>
      <trkpt lat="43.82542" lon="5.58716">
        <ele>732.3</ele>
        <time>2022-08-24T08:42:03Z</time>
      </trkpt>
      <trkpt lat="43.82536" lon="5.58719">
        <ele>732.8</ele>
        <time>2022-08-24T08:42:05Z</time>
      </trkpt>
      <trkpt lat="43.8253" lon="5.58724">
        <ele>733.8</ele>
        <time>2022-08-24T08:42:07Z</time>
      </trkpt>
      <trkpt lat="43.82523" lon="5.5873">
        <ele>734.6</ele>
        <time>2022-08-24T08:42:09Z</time>
      </trkpt>
      <trkpt lat="43.82519" lon="5.58734">
        <ele>735</ele>
        <time>2022-08-24T08:42:11Z</time>
      </trkpt>
      <trkpt lat="43.82514" lon="5.5874">
        <ele>736.1</ele>
        <time>2022-08-24T08:42:13Z</time>
      </trkpt>
      <trkpt lat="43.82508" lon="5.58746">
        <ele>736.9</ele>
        <time>2022-08-24T08:42:15Z</time>
      </trkpt>
      <trkpt lat="43.82501" lon="5.58748">
        <ele>736.6</ele>
        <time>2022-08-24T08:42:17Z</time>
      </trkpt>
      <trkpt lat="43.82496" lon="5.58752">
        <ele>736.9</ele>
        <time>2022-08-24T08:42:19Z</time>
      </trkpt>
      <trkpt lat="43.8249" lon="5.58756">
        <ele>737.4</ele>
        <time>2022-08-24T08:42:21Z</time>
      </trkpt>
      <trkpt lat="43.82484" lon="5.58762">
        <ele>738.3</ele>
        <time>2022-08-24T08:42:23Z</time>
      </trkpt>
      <trkpt lat="43.82479" lon="5.58767">
        <ele>738.8</ele>
        <time>2022-08-24T08:42:25Z</time>
      </trkpt>
      <trkpt lat="43.82472" lon="5.5877">
        <ele>738.4</ele>
        <time>2022-08-24T08:42:27Z</time>
      </trkpt>
      <trkpt lat="43.82464" lon="5.58773">
        <ele>738.2</ele>
        <time>2022-08-24T08:42:29Z</time>
      </trkpt>
      <trkpt lat="43.82457" lon="5.58777">
        <ele>738.5</ele>
        <time>2022-08-24T08:42:31Z</time>
      </trkpt>
      <trkpt lat="43.82451" lon="5.58781">
        <ele>739</ele>
        <time>2022-08-24T08:42:33Z</time>
      </trkpt>
      <trkpt lat="43.82445" lon="5.58786">
        <ele>739.6</ele>
        <time>2022-08-24T08:42:35Z</time>
      </trkpt>
      <trkpt lat="43.8244" lon="5.58791">
        <ele>740.6</ele>
        <time>2022-08-24T08:42:37Z</time>
      </trkpt>
      <trkpt lat="43.82435" lon="5.58797">
        <ele>741.7</ele>
        <time>2022-08-24T08:42:39Z</time>
      </trkpt>
      <trkpt lat="43.82429" lon="5.58801">
        <ele>742.3</ele>
        <time>2022-08-24T08:42:41Z</time>
      </trkpt>
      <trkpt lat="43.82422" lon="5.58805">
        <ele>742.6</ele>
        <time>2022-08-24T08:42:43Z</time>
      </trkpt>
      <trkpt lat="43.82415" lon="5.58808">
        <ele>742.4</ele>
        <time>2022-08-24T08:42:45Z</time>
      </trkpt>
      <trkpt lat="43.82408" lon="5.58813">
        <ele>742.7</ele>
        <time>2022-08-24T08:42:47Z</time>
      </trkpt>
      <trkpt lat="43.824" lon="5.58816">
        <ele>742.3</ele>
        <time>2022-08-24T08:42:49Z</time>
      </trkpt>
      <trkpt lat="43.82393" lon="5.58818">
        <ele>742.2</ele>
        <time>2022-08-24T08:42:51Z</time>
      </trkpt>
      <trkpt lat="43.82387" lon="5.58822">
        <ele>742.5</ele>
        <time>2022-08-24T08:42:53Z</time>
      </trkpt>
      <trkpt lat="43.8238" lon="5.58826">
        <ele>743.2</ele>
        <time>2022-08-24T08:42:55Z</time>
      </trkpt>
      <trkpt lat="43.82374" lon="5.5883">
        <ele>744.1</ele>
        <time>2022-08-24T08:42:57Z</time>
      </trkpt>
      <trkpt lat="43.82369" lon="5.58835">
        <ele>744.8</ele>
        <time>2022-08-24T08:42:59Z</time>
      </trkpt>
      <trkpt lat="43.82362" lon="5.58839">
        <ele>745.3</ele>
        <time>2022-08-24T08:43:01Z</time>
      </trkpt>
      <trkpt lat="43.82354" lon="5.58842">
        <ele>745.8</ele>
        <time>2022-08-24T08:43:03Z</time>
      </trkpt>
      <trkpt lat="43.82346" lon="5.58844">
        <ele>746.1</ele>
        <time>2022-08-24T08:43:05Z</time>
      </trkpt>
      <trkpt lat="43.82339" lon="5.58846">
        <ele>746.3</ele>
        <time>2022-08-24T08:43:07Z</time>
      </trkpt>
      <trkpt lat="43.82332" lon="5.58847">
        <ele>746.5</ele>
        <time>2022-08-24T08:43:09Z</time>
      </trkpt>
      <trkpt lat="43.82324" lon="5.58847">
        <ele>746.7</ele>
        <time>2022-08-24T08:43:11Z</time>
      </trkpt>
      <trkpt lat="43.82317" lon="5.58847">
        <ele>746.7</ele>
        <time>2022-08-24T08:43:13Z</time>
      </trkpt>
      <trkpt lat="43.82311" lon="5.58846">
        <ele>746.6</ele>
        <time>2022-08-24T08:43:15Z</time>
      </trkpt>
      <trkpt lat="43.82304" lon="5.58844">
        <ele>746.2</ele>
        <time>2022-08-24T08:43:17Z</time>
      </trkpt>
      <trkpt lat="43.82297" lon="5.58844">
        <ele>745.7</ele>
        <time>2022-08-24T08:43:19Z</time>
      </trkpt>
      <trkpt lat="43.8229" lon="5.58845">
        <ele>745.4</ele>
        <time>2022-08-24T08:43:21Z</time>
      </trkpt>
      <trkpt lat="43.82283" lon="5.58849">
        <ele>745.6</ele>
        <time>2022-08-24T08:43:23Z</time>
      </trkpt>
      <trkpt lat="43.82279" lon="5.58858">
        <ele>746.6</ele>
        <time>2022-08-24T08:43:25Z</time>
      </trkpt>
      <trkpt lat="43.8228" lon="5.58869">
        <ele>745.7</ele>
        <time>2022-08-24T08:43:27Z</time>
      </trkpt>
      <trkpt lat="43.82284" lon="5.58878">
        <ele>744.8</ele>
        <time>2022-08-24T08:43:29Z</time>
      </trkpt>
      <trkpt lat="43.82289" lon="5.58886">
        <ele>745</ele>
        <time>2022-08-24T08:43:31Z</time>
      </trkpt>
      <trkpt lat="43.82296" lon="5.58893">
        <ele>745.4</ele>
        <time>2022-08-24T08:43:33Z</time>
      </trkpt>
      <trkpt lat="43.82303" lon="5.58896">
        <ele>746.6</ele>
        <time>2022-08-24T08:43:34Z</time>
      </trkpt>
      <trkpt lat="43.82306" lon="5.58899">
        <ele>746.4</ele>
        <time>2022-08-24T08:43:35Z</time>
      </trkpt>
      <trkpt lat="43.82311" lon="5.58902">
        <ele>745.8</ele>
        <time>2022-08-24T08:43:36Z</time>
      </trkpt>
      <trkpt lat="43.82316" lon="5.58907">
        <ele>744.7</ele>
        <time>2022-08-24T08:43:37Z</time>
      </trkpt>
      <trkpt lat="43.82322" lon="5.58912">
        <ele>744.2</ele>
        <time>2022-08-24T08:43:38Z</time>
      </trkpt>
      <trkpt lat="43.82328" lon="5.58915">
        <ele>744.3</ele>
        <time>2022-08-24T08:43:39Z</time>
      </trkpt>
      <trkpt lat="43.82334" lon="5.58919">
        <ele>744</ele>
        <time>2022-08-24T08:43:40Z</time>
      </trkpt>
      <trkpt lat="43.8234" lon="5.58924">
        <ele>742.8</ele>
        <time>2022-08-24T08:43:41Z</time>
      </trkpt>
      <trkpt lat="43.82346" lon="5.58928">
        <ele>741.9</ele>
        <time>2022-08-24T08:43:42Z</time>
      </trkpt>
      <trkpt lat="43.82353" lon="5.58933">
        <ele>741.4</ele>
        <time>2022-08-24T08:43:43Z</time>
      </trkpt>
      <trkpt lat="43.8236" lon="5.58938">
        <ele>741.2</ele>
        <time>2022-08-24T08:43:44Z</time>
      </trkpt>
      <trkpt lat="43.82367" lon="5.58942">
        <ele>741</ele>
        <time>2022-08-24T08:43:45Z</time>
      </trkpt>
      <trkpt lat="43.82371" lon="5.58947">
        <ele>740.1</ele>
        <time>2022-08-24T08:43:46Z</time>
      </trkpt>
      <trkpt lat="43.82378" lon="5.58953">
        <ele>739</ele>
        <time>2022-08-24T08:43:47Z</time>
      </trkpt>
      <trkpt lat="43.82387" lon="5.58958">
        <ele>738.5</ele>
        <time>2022-08-24T08:43:48Z</time>
      </trkpt>
      <trkpt lat="43.82394" lon="5.58962">
        <ele>738.1</ele>
        <time>2022-08-24T08:43:49Z</time>
      </trkpt>
      <trkpt lat="43.82402" lon="5.58967">
        <ele>737.7</ele>
        <time>2022-08-24T08:43:50Z</time>
      </trkpt>
      <trkpt lat="43.82408" lon="5.58972">
        <ele>737.2</ele>
        <time>2022-08-24T08:43:51Z</time>
      </trkpt>
      <trkpt lat="43.82416" lon="5.58978">
        <ele>736.5</ele>
        <time>2022-08-24T08:43:52Z</time>
      </trkpt>
      <trkpt lat="43.82423" lon="5.58984">
        <ele>736</ele>
        <time>2022-08-24T08:43:53Z</time>
      </trkpt>
      <trkpt lat="43.82429" lon="5.5899">
        <ele>735.3</ele>
        <time>2022-08-24T08:43:54Z</time>
      </trkpt>
      <trkpt lat="43.82436" lon="5.58996">
        <ele>734.9</ele>
        <time>2022-08-24T08:43:55Z</time>
      </trkpt>
      <trkpt lat="43.82443" lon="5.59003">
        <ele>734.1</ele>
        <time>2022-08-24T08:43:56Z</time>
      </trkpt>
      <trkpt lat="43.8245" lon="5.59009">
        <ele>733.7</ele>
        <time>2022-08-24T08:43:57Z</time>
      </trkpt>
      <trkpt lat="43.82457" lon="5.59016">
        <ele>733</ele>
        <time>2022-08-24T08:43:58Z</time>
      </trkpt>
      <trkpt lat="43.82464" lon="5.59024">
        <ele>732.5</ele>
        <time>2022-08-24T08:43:59Z</time>
      </trkpt>
      <trkpt lat="43.8247" lon="5.59031">
        <ele>731.6</ele>
        <time>2022-08-24T08:44:00Z</time>
      </trkpt>
      <trkpt lat="43.82477" lon="5.59039">
        <ele>730.6</ele>
        <time>2022-08-24T08:44:01Z</time>
      </trkpt>
      <trkpt lat="43.82484" lon="5.59045">
        <ele>730.1</ele>
        <time>2022-08-24T08:44:02Z</time>
      </trkpt>
      <trkpt lat="43.82492" lon="5.59051">
        <ele>729.6</ele>
        <time>2022-08-24T08:44:03Z</time>
      </trkpt>
      <trkpt lat="43.82499" lon="5.59059">
        <ele>728.8</ele>
        <time>2022-08-24T08:44:04Z</time>
      </trkpt>
      <trkpt lat="43.82506" lon="5.59067">
        <ele>727.6</ele>
        <time>2022-08-24T08:44:05Z</time>
      </trkpt>
      <trkpt lat="43.82513" lon="5.59075">
        <ele>726.7</ele>
        <time>2022-08-24T08:44:06Z</time>
      </trkpt>
      <trkpt lat="43.82521" lon="5.59083">
        <ele>725.8</ele>
        <time>2022-08-24T08:44:07Z</time>
      </trkpt>
      <trkpt lat="43.82527" lon="5.5909">
        <ele>725</ele>
        <time>2022-08-24T08:44:08Z</time>
      </trkpt>
      <trkpt lat="43.82534" lon="5.59097">
        <ele>724.4</ele>
        <time>2022-08-24T08:44:09Z</time>
      </trkpt>
      <trkpt lat="43.8254" lon="5.59105">
        <ele>723.7</ele>
        <time>2022-08-24T08:44:10Z</time>
      </trkpt>
      <trkpt lat="43.82547" lon="5.59113">
        <ele>723</ele>
        <time>2022-08-24T08:44:11Z</time>
      </trkpt>
      <trkpt lat="43.82554" lon="5.59121">
        <ele>722.2</ele>
        <time>2022-08-24T08:44:12Z</time>
      </trkpt>
      <trkpt lat="43.82562" lon="5.59127">
        <ele>721.6</ele>
        <time>2022-08-24T08:44:13Z</time>
      </trkpt>
      <trkpt lat="43.8257" lon="5.59133">
        <ele>721.1</ele>
        <time>2022-08-24T08:44:14Z</time>
      </trkpt>
      <trkpt lat="43.82579" lon="5.59138">
        <ele>720.8</ele>
        <time>2022-08-24T08:44:15Z</time>
      </trkpt>
      <trkpt lat="43.82587" lon="5.59143">
        <ele>720.3</ele>
        <time>2022-08-24T08:44:16Z</time>
      </trkpt>
      <trkpt lat="43.82595" lon="5.59148">
        <ele>719.4</ele>
        <time>2022-08-24T08:44:17Z</time>
      </trkpt>
      <trkpt lat="43.82605" lon="5.59153">
        <ele>718.7</ele>
        <time>2022-08-24T08:44:18Z</time>
      </trkpt>
      <trkpt lat="43.82615" lon="5.59156">
        <ele>718</ele>
        <time>2022-08-24T08:44:19Z</time>
      </trkpt>
      <trkpt lat="43.82625" lon="5.5916">
        <ele>716.9</ele>
        <time>2022-08-24T08:44:20Z</time>
      </trkpt>
      <trkpt lat="43.82635" lon="5.59163">
        <ele>716</ele>
        <time>2022-08-24T08:44:21Z</time>
      </trkpt>
      <trkpt lat="43.82644" lon="5.59165">
        <ele>715.4</ele>
        <time>2022-08-24T08:44:22Z</time>
      </trkpt>
      <trkpt lat="43.82652" lon="5.59166">
        <ele>715.1</ele>
        <time>2022-08-24T08:44:23Z</time>
      </trkpt>
      <trkpt lat="43.82662" lon="5.59166">
        <ele>715.3</ele>
        <time>2022-08-24T08:44:24Z</time>
      </trkpt>
      <trkpt lat="43.82671" lon="5.59167">
        <ele>714.8</ele>
        <time>2022-08-24T08:44:25Z</time>
      </trkpt>
      <trkpt lat="43.82681" lon="5.5917">
        <ele>714.1</ele>
        <time>2022-08-24T08:44:26Z</time>
      </trkpt>
      <trkpt lat="43.82692" lon="5.59175">
        <ele>712.9</ele>
        <time>2022-08-24T08:44:27Z</time>
      </trkpt>
      <trkpt lat="43.827" lon="5.59177">
        <ele>712.2</ele>
        <time>2022-08-24T08:44:28Z</time>
      </trkpt>
      <trkpt lat="43.82708" lon="5.59179">
        <ele>711.5</ele>
        <time>2022-08-24T08:44:29Z</time>
      </trkpt>
      <trkpt lat="43.82717" lon="5.5918">
        <ele>710.8</ele>
        <time>2022-08-24T08:44:30Z</time>
      </trkpt>
      <trkpt lat="43.82726" lon="5.59181">
        <ele>710.1</ele>
        <time>2022-08-24T08:44:31Z</time>
      </trkpt>
      <trkpt lat="43.82735" lon="5.59183">
        <ele>709.2</ele>
        <time>2022-08-24T08:44:32Z</time>
      </trkpt>
      <trkpt lat="43.82743" lon="5.59184">
        <ele>708.7</ele>
        <time>2022-08-24T08:44:33Z</time>
      </trkpt>
      <trkpt lat="43.82751" lon="5.59183">
        <ele>708.4</ele>
        <time>2022-08-24T08:44:34Z</time>
      </trkpt>
      <trkpt lat="43.82758" lon="5.59185">
        <ele>707.7</ele>
        <time>2022-08-24T08:44:35Z</time>
      </trkpt>
      <trkpt lat="43.82767" lon="5.59186">
        <ele>707.1</ele>
        <time>2022-08-24T08:44:36Z</time>
      </trkpt>
      <trkpt lat="43.82774" lon="5.59185">
        <ele>706.8</ele>
        <time>2022-08-24T08:44:37Z</time>
      </trkpt>
      <trkpt lat="43.82783" lon="5.59186">
        <ele>706.1</ele>
        <time>2022-08-24T08:44:38Z</time>
      </trkpt>
      <trkpt lat="43.82793" lon="5.59188">
        <ele>705</ele>
        <time>2022-08-24T08:44:39Z</time>
      </trkpt>
      <trkpt lat="43.82803" lon="5.59188">
        <ele>704.2</ele>
        <time>2022-08-24T08:44:40Z</time>
      </trkpt>
      <trkpt lat="43.82812" lon="5.59187">
        <ele>703.5</ele>
        <time>2022-08-24T08:44:41Z</time>
      </trkpt>
      <trkpt lat="43.8282" lon="5.59188">
        <ele>702.8</ele>
        <time>2022-08-24T08:44:42Z</time>
      </trkpt>
      <trkpt lat="43.82828" lon="5.59187">
        <ele>702.2</ele>
        <time>2022-08-24T08:44:43Z</time>
      </trkpt>
      <trkpt lat="43.82837" lon="5.59188">
        <ele>701.2</ele>
        <time>2022-08-24T08:44:44Z</time>
      </trkpt>
      <trkpt lat="43.82846" lon="5.59189">
        <ele>700.2</ele>
        <time>2022-08-24T08:44:45Z</time>
      </trkpt>
      <trkpt lat="43.82856" lon="5.5919">
        <ele>699.1</ele>
        <time>2022-08-24T08:44:46Z</time>
      </trkpt>
      <trkpt lat="43.82864" lon="5.59191">
        <ele>698.3</ele>
        <time>2022-08-24T08:44:47Z</time>
      </trkpt>
      <trkpt lat="43.82874" lon="5.59194">
        <ele>697.6</ele>
        <time>2022-08-24T08:44:48Z</time>
      </trkpt>
      <trkpt lat="43.82881" lon="5.59196">
        <ele>697.1</ele>
        <time>2022-08-24T08:44:49Z</time>
      </trkpt>
      <trkpt lat="43.82889" lon="5.592">
        <ele>696.5</ele>
        <time>2022-08-24T08:44:50Z</time>
      </trkpt>
      <trkpt lat="43.82896" lon="5.59204">
        <ele>695.8</ele>
        <time>2022-08-24T08:44:51Z</time>
      </trkpt>
      <trkpt lat="43.82904" lon="5.5921">
        <ele>695.1</ele>
        <time>2022-08-24T08:44:52Z</time>
      </trkpt>
      <trkpt lat="43.82912" lon="5.59215">
        <ele>694.6</ele>
        <time>2022-08-24T08:44:53Z</time>
      </trkpt>
      <trkpt lat="43.82922" lon="5.59221">
        <ele>693.7</ele>
        <time>2022-08-24T08:44:54Z</time>
      </trkpt>
      <trkpt lat="43.8293" lon="5.59225">
        <ele>692.8</ele>
        <time>2022-08-24T08:44:55Z</time>
      </trkpt>
      <trkpt lat="43.8294" lon="5.59228">
        <ele>691.9</ele>
        <time>2022-08-24T08:44:56Z</time>
      </trkpt>
      <trkpt lat="43.82949" lon="5.5923">
        <ele>690.9</ele>
        <time>2022-08-24T08:44:57Z</time>
      </trkpt>
      <trkpt lat="43.82958" lon="5.59231">
        <ele>689.9</ele>
        <time>2022-08-24T08:44:58Z</time>
      </trkpt>
      <trkpt lat="43.82968" lon="5.59229">
        <ele>689</ele>
        <time>2022-08-24T08:44:59Z</time>
      </trkpt>
      <trkpt lat="43.82978" lon="5.59226">
        <ele>688.2</ele>
        <time>2022-08-24T08:45:00Z</time>
      </trkpt>
      <trkpt lat="43.82988" lon="5.59224">
        <ele>687.3</ele>
        <time>2022-08-24T08:45:01Z</time>
      </trkpt>
      <trkpt lat="43.82998" lon="5.59223">
        <ele>686.2</ele>
        <time>2022-08-24T08:45:02Z</time>
      </trkpt>
      <trkpt lat="43.83006" lon="5.59225">
        <ele>685.8</ele>
        <time>2022-08-24T08:45:03Z</time>
      </trkpt>
      <trkpt lat="43.83015" lon="5.59229">
        <ele>685.5</ele>
        <time>2022-08-24T08:45:04Z</time>
      </trkpt>
      <trkpt lat="43.83024" lon="5.59235">
        <ele>685.1</ele>
        <time>2022-08-24T08:45:05Z</time>
      </trkpt>
      <trkpt lat="43.83033" lon="5.59241">
        <ele>684.8</ele>
        <time>2022-08-24T08:45:06Z</time>
      </trkpt>
      <trkpt lat="43.8304" lon="5.59247">
        <ele>684.5</ele>
        <time>2022-08-24T08:45:07Z</time>
      </trkpt>
      <trkpt lat="43.83046" lon="5.59256">
        <ele>684.3</ele>
        <time>2022-08-24T08:45:08Z</time>
      </trkpt>
      <trkpt lat="43.83052" lon="5.59264">
        <ele>684.1</ele>
        <time>2022-08-24T08:45:09Z</time>
      </trkpt>
      <trkpt lat="43.83057" lon="5.59273">
        <ele>683.9</ele>
        <time>2022-08-24T08:45:10Z</time>
      </trkpt>
      <trkpt lat="43.83059" lon="5.59283">
        <ele>683.6</ele>
        <time>2022-08-24T08:45:11Z</time>
      </trkpt>
      <trkpt lat="43.83061" lon="5.59292">
        <ele>683.5</ele>
        <time>2022-08-24T08:45:12Z</time>
      </trkpt>
      <trkpt lat="43.83062" lon="5.59301">
        <ele>683.3</ele>
        <time>2022-08-24T08:45:13Z</time>
      </trkpt>
      <trkpt lat="43.83062" lon="5.5931">
        <ele>683.1</ele>
        <time>2022-08-24T08:45:14Z</time>
      </trkpt>
      <trkpt lat="43.83062" lon="5.5932">
        <ele>682.8</ele>
        <time>2022-08-24T08:45:15Z</time>
      </trkpt>
      <trkpt lat="43.83061" lon="5.59327">
        <ele>682.6</ele>
        <time>2022-08-24T08:45:16Z</time>
      </trkpt>
      <trkpt lat="43.83061" lon="5.59337">
        <ele>682.5</ele>
        <time>2022-08-24T08:45:17Z</time>
      </trkpt>
      <trkpt lat="43.83058" lon="5.59344">
        <ele>682.7</ele>
        <time>2022-08-24T08:45:18Z</time>
      </trkpt>
      <trkpt lat="43.83056" lon="5.59351">
        <ele>682.9</ele>
        <time>2022-08-24T08:45:19Z</time>
      </trkpt>
      <trkpt lat="43.8305" lon="5.59359">
        <ele>683.2</ele>
        <time>2022-08-24T08:45:21Z</time>
      </trkpt>
      <trkpt lat="43.83043" lon="5.5936">
        <ele>683.4</ele>
        <time>2022-08-24T08:45:23Z</time>
      </trkpt>
      <trkpt lat="43.83039" lon="5.59358">
        <ele>683.6</ele>
        <time>2022-08-24T08:45:24Z</time>
      </trkpt>
      <trkpt lat="43.8303" lon="5.59357">
        <ele>683.9</ele>
        <time>2022-08-24T08:45:26Z</time>
      </trkpt>
      <trkpt lat="43.83022" lon="5.59355">
        <ele>683.8</ele>
        <time>2022-08-24T08:45:28Z</time>
      </trkpt>
      <trkpt lat="43.83017" lon="5.59355">
        <ele>683.7</ele>
        <time>2022-08-24T08:45:29Z</time>
      </trkpt>
      <trkpt lat="43.83013" lon="5.59355">
        <ele>683.6</ele>
        <time>2022-08-24T08:45:30Z</time>
      </trkpt>
      <trkpt lat="43.83008" lon="5.59356">
        <ele>683.4</ele>
        <time>2022-08-24T08:45:31Z</time>
      </trkpt>
      <trkpt lat="43.83001" lon="5.59355">
        <ele>683.2</ele>
        <time>2022-08-24T08:45:33Z</time>
      </trkpt>
      <trkpt lat="43.82991" lon="5.59356">
        <ele>682.6</ele>
        <time>2022-08-24T08:45:35Z</time>
      </trkpt>
      <trkpt lat="43.82986" lon="5.59357">
        <ele>682.2</ele>
        <time>2022-08-24T08:45:36Z</time>
      </trkpt>
      <trkpt lat="43.82981" lon="5.59358">
        <ele>681.8</ele>
        <time>2022-08-24T08:45:37Z</time>
      </trkpt>
      <trkpt lat="43.82974" lon="5.59362">
        <ele>681.1</ele>
        <time>2022-08-24T08:45:38Z</time>
      </trkpt>
      <trkpt lat="43.82969" lon="5.59366">
        <ele>680.9</ele>
        <time>2022-08-24T08:45:39Z</time>
      </trkpt>
      <trkpt lat="43.82964" lon="5.59371">
        <ele>680.6</ele>
        <time>2022-08-24T08:45:40Z</time>
      </trkpt>
      <trkpt lat="43.82959" lon="5.59376">
        <ele>680.3</ele>
        <time>2022-08-24T08:45:41Z</time>
      </trkpt>
      <trkpt lat="43.82953" lon="5.59379">
        <ele>679.8</ele>
        <time>2022-08-24T08:45:42Z</time>
      </trkpt>
      <trkpt lat="43.82945" lon="5.59383">
        <ele>679.3</ele>
        <time>2022-08-24T08:45:43Z</time>
      </trkpt>
      <trkpt lat="43.82938" lon="5.59386">
        <ele>678.5</ele>
        <time>2022-08-24T08:45:44Z</time>
      </trkpt>
      <trkpt lat="43.82932" lon="5.59386">
        <ele>677.8</ele>
        <time>2022-08-24T08:45:45Z</time>
      </trkpt>
      <trkpt lat="43.82924" lon="5.59386">
        <ele>677.2</ele>
        <time>2022-08-24T08:45:46Z</time>
      </trkpt>
      <trkpt lat="43.82917" lon="5.59386">
        <ele>676.5</ele>
        <time>2022-08-24T08:45:47Z</time>
      </trkpt>
      <trkpt lat="43.82909" lon="5.59385">
        <ele>676</ele>
        <time>2022-08-24T08:45:48Z</time>
      </trkpt>
      <trkpt lat="43.82901" lon="5.59387">
        <ele>675.2</ele>
        <time>2022-08-24T08:45:49Z</time>
      </trkpt>
      <trkpt lat="43.82893" lon="5.59388">
        <ele>674.5</ele>
        <time>2022-08-24T08:45:50Z</time>
      </trkpt>
      <trkpt lat="43.82885" lon="5.59389">
        <ele>673.8</ele>
        <time>2022-08-24T08:45:51Z</time>
      </trkpt>
      <trkpt lat="43.82877" lon="5.5939">
        <ele>673.4</ele>
        <time>2022-08-24T08:45:52Z</time>
      </trkpt>
      <trkpt lat="43.82869" lon="5.5939">
        <ele>672.7</ele>
        <time>2022-08-24T08:45:53Z</time>
      </trkpt>
      <trkpt lat="43.82861" lon="5.59391">
        <ele>672.3</ele>
        <time>2022-08-24T08:45:54Z</time>
      </trkpt>
      <trkpt lat="43.82853" lon="5.59393">
        <ele>671.6</ele>
        <time>2022-08-24T08:45:55Z</time>
      </trkpt>
      <trkpt lat="43.82845" lon="5.59393">
        <ele>670.9</ele>
        <time>2022-08-24T08:45:57Z</time>
      </trkpt>
      <trkpt lat="43.82838" lon="5.59396">
        <ele>670.5</ele>
        <time>2022-08-24T08:45:59Z</time>
      </trkpt>
      <trkpt lat="43.82835" lon="5.59403">
        <ele>671.3</ele>
        <time>2022-08-24T08:46:02Z</time>
      </trkpt>
      <trkpt lat="43.82836" lon="5.59411">
        <ele>672.5</ele>
        <time>2022-08-24T08:46:06Z</time>
      </trkpt>
      <trkpt lat="43.82837" lon="5.5942">
        <ele>673.8</ele>
        <time>2022-08-24T08:46:09Z</time>
      </trkpt>
      <trkpt lat="43.82836" lon="5.59426">
        <ele>674.3</ele>
        <time>2022-08-24T08:46:12Z</time>
      </trkpt>
      <trkpt lat="43.82835" lon="5.59434">
        <ele>675.1</ele>
        <time>2022-08-24T08:46:15Z</time>
      </trkpt>
      <trkpt lat="43.82839" lon="5.59439">
        <ele>676.2</ele>
        <time>2022-08-24T08:46:16Z</time>
      </trkpt>
      <trkpt lat="43.82838" lon="5.59446">
        <ele>676.9</ele>
        <time>2022-08-24T08:46:20Z</time>
      </trkpt>
      <trkpt lat="43.82839" lon="5.59455">
        <ele>678.4</ele>
        <time>2022-08-24T08:46:23Z</time>
      </trkpt>
      <trkpt lat="43.82837" lon="5.59462">
        <ele>679.1</ele>
        <time>2022-08-24T08:46:26Z</time>
      </trkpt>
      <trkpt lat="43.82837" lon="5.59469">
        <ele>679.9</ele>
        <time>2022-08-24T08:46:29Z</time>
      </trkpt>
      <trkpt lat="43.82835" lon="5.59476">
        <ele>680.5</ele>
        <time>2022-08-24T08:46:32Z</time>
      </trkpt>
      <trkpt lat="43.8283" lon="5.59479">
        <ele>681.2</ele>
        <time>2022-08-24T08:46:35Z</time>
      </trkpt>
      <trkpt lat="43.82827" lon="5.59483">
        <ele>682.1</ele>
        <time>2022-08-24T08:46:38Z</time>
      </trkpt>
      <trkpt lat="43.82824" lon="5.59491">
        <ele>683.4</ele>
        <time>2022-08-24T08:46:41Z</time>
      </trkpt>
      <trkpt lat="43.82821" lon="5.59499">
        <ele>684.6</ele>
        <time>2022-08-24T08:46:44Z</time>
      </trkpt>
      <trkpt lat="43.8282" lon="5.59507">
        <ele>685.7</ele>
        <time>2022-08-24T08:46:47Z</time>
      </trkpt>
      <trkpt lat="43.82819" lon="5.59515">
        <ele>686.7</ele>
        <time>2022-08-24T08:46:50Z</time>
      </trkpt>
      <trkpt lat="43.8282" lon="5.59524">
        <ele>687.5</ele>
        <time>2022-08-24T08:46:53Z</time>
      </trkpt>
      <trkpt lat="43.8282" lon="5.5953">
        <ele>688.2</ele>
        <time>2022-08-24T08:46:55Z</time>
      </trkpt>
      <trkpt lat="43.8282" lon="5.59538">
        <ele>689</ele>
        <time>2022-08-24T08:46:58Z</time>
      </trkpt>
      <trkpt lat="43.82818" lon="5.59545">
        <ele>690</ele>
        <time>2022-08-24T08:47:01Z</time>
      </trkpt>
      <trkpt lat="43.82815" lon="5.59553">
        <ele>691.1</ele>
        <time>2022-08-24T08:47:04Z</time>
      </trkpt>
      <trkpt lat="43.82812" lon="5.5956">
        <ele>691.9</ele>
        <time>2022-08-24T08:47:07Z</time>
      </trkpt>
      <trkpt lat="43.8281" lon="5.59568">
        <ele>692.7</ele>
        <time>2022-08-24T08:47:10Z</time>
      </trkpt>
      <trkpt lat="43.82808" lon="5.59575">
        <ele>693.4</ele>
        <time>2022-08-24T08:47:13Z</time>
      </trkpt>
      <trkpt lat="43.82807" lon="5.59583">
        <ele>694</ele>
        <time>2022-08-24T08:47:16Z</time>
      </trkpt>
      <trkpt lat="43.82805" lon="5.59591">
        <ele>694.6</ele>
        <time>2022-08-24T08:47:19Z</time>
      </trkpt>
      <trkpt lat="43.82802" lon="5.59599">
        <ele>695.9</ele>
        <time>2022-08-24T08:47:22Z</time>
      </trkpt>
      <trkpt lat="43.82798" lon="5.59607">
        <ele>697.3</ele>
        <time>2022-08-24T08:47:25Z</time>
      </trkpt>
      <trkpt lat="43.82795" lon="5.59612">
        <ele>698.4</ele>
        <time>2022-08-24T08:47:28Z</time>
      </trkpt>
      <trkpt lat="43.82793" lon="5.5962">
        <ele>699.3</ele>
        <time>2022-08-24T08:47:31Z</time>
      </trkpt>
      <trkpt lat="43.8279" lon="5.59628">
        <ele>700.2</ele>
        <time>2022-08-24T08:47:34Z</time>
      </trkpt>
      <trkpt lat="43.82785" lon="5.59634">
        <ele>701.4</ele>
        <time>2022-08-24T08:47:37Z</time>
      </trkpt>
      <trkpt lat="43.82781" lon="5.59637">
        <ele>702.4</ele>
        <time>2022-08-24T08:47:40Z</time>
      </trkpt>
      <trkpt lat="43.82777" lon="5.59643">
        <ele>703.1</ele>
        <time>2022-08-24T08:47:43Z</time>
      </trkpt>
      <trkpt lat="43.82775" lon="5.5965">
        <ele>703.7</ele>
        <time>2022-08-24T08:47:46Z</time>
      </trkpt>
      <trkpt lat="43.82772" lon="5.59657">
        <ele>704.4</ele>
        <time>2022-08-24T08:47:49Z</time>
      </trkpt>
      <trkpt lat="43.82769" lon="5.59663">
        <ele>705.3</ele>
        <time>2022-08-24T08:47:53Z</time>
      </trkpt>
      <trkpt lat="43.82766" lon="5.5967">
        <ele>706</ele>
        <time>2022-08-24T08:47:56Z</time>
      </trkpt>
      <trkpt lat="43.82763" lon="5.59675">
        <ele>706.9</ele>
        <time>2022-08-24T08:47:59Z</time>
      </trkpt>
      <trkpt lat="43.82759" lon="5.59679">
        <ele>708.1</ele>
        <time>2022-08-24T08:48:02Z</time>
      </trkpt>
      <trkpt lat="43.82752" lon="5.59681">
        <ele>709.5</ele>
        <time>2022-08-24T08:48:06Z</time>
      </trkpt>
      <trkpt lat="43.82747" lon="5.59678">
        <ele>710.6</ele>
        <time>2022-08-24T08:48:09Z</time>
      </trkpt>
      <trkpt lat="43.82743" lon="5.59674">
        <ele>711.6</ele>
        <time>2022-08-24T08:48:12Z</time>
      </trkpt>
      <trkpt lat="43.82739" lon="5.59671">
        <ele>712.5</ele>
        <time>2022-08-24T08:48:14Z</time>
      </trkpt>
      <trkpt lat="43.82734" lon="5.59665">
        <ele>713.4</ele>
        <time>2022-08-24T08:48:17Z</time>
      </trkpt>
      <trkpt lat="43.8273" lon="5.59661">
        <ele>714.3</ele>
        <time>2022-08-24T08:48:21Z</time>
      </trkpt>
      <trkpt lat="43.82726" lon="5.59658">
        <ele>715.2</ele>
        <time>2022-08-24T08:48:24Z</time>
      </trkpt>
      <trkpt lat="43.8272" lon="5.59657">
        <ele>716.5</ele>
        <time>2022-08-24T08:48:28Z</time>
      </trkpt>
      <trkpt lat="43.82714" lon="5.59654">
        <ele>717.6</ele>
        <time>2022-08-24T08:48:32Z</time>
      </trkpt>
      <trkpt lat="43.8271" lon="5.59651">
        <ele>718.4</ele>
        <time>2022-08-24T08:48:34Z</time>
      </trkpt>
      <trkpt lat="43.82705" lon="5.59649">
        <ele>719.3</ele>
        <time>2022-08-24T08:48:36Z</time>
      </trkpt>
      <trkpt lat="43.827" lon="5.59647">
        <ele>720.2</ele>
        <time>2022-08-24T08:48:38Z</time>
      </trkpt>
      <trkpt lat="43.82695" lon="5.59645">
        <ele>721</ele>
        <time>2022-08-24T08:48:40Z</time>
      </trkpt>
      <trkpt lat="43.8269" lon="5.59644">
        <ele>722</ele>
        <time>2022-08-24T08:48:42Z</time>
      </trkpt>
      <trkpt lat="43.82683" lon="5.59643">
        <ele>723.2</ele>
        <time>2022-08-24T08:48:45Z</time>
      </trkpt>
      <trkpt lat="43.82677" lon="5.59642">
        <ele>724.3</ele>
        <time>2022-08-24T08:48:48Z</time>
      </trkpt>
      <trkpt lat="43.82672" lon="5.59644">
        <ele>725.2</ele>
        <time>2022-08-24T08:48:50Z</time>
      </trkpt>
      <trkpt lat="43.82668" lon="5.59648">
        <ele>726.2</ele>
        <time>2022-08-24T08:48:53Z</time>
      </trkpt>
      <trkpt lat="43.82663" lon="5.59654">
        <ele>727</ele>
        <time>2022-08-24T08:48:56Z</time>
      </trkpt>
      <trkpt lat="43.8266" lon="5.5966">
        <ele>727.6</ele>
        <time>2022-08-24T08:48:59Z</time>
      </trkpt>
      <trkpt lat="43.82657" lon="5.59665">
        <ele>728.3</ele>
        <time>2022-08-24T08:49:02Z</time>
      </trkpt>
      <trkpt lat="43.82653" lon="5.5967">
        <ele>729</ele>
        <time>2022-08-24T08:49:05Z</time>
      </trkpt>
      <trkpt lat="43.82649" lon="5.59677">
        <ele>729.5</ele>
        <time>2022-08-24T08:49:08Z</time>
      </trkpt>
      <trkpt lat="43.82644" lon="5.59682">
        <ele>730.2</ele>
        <time>2022-08-24T08:49:11Z</time>
      </trkpt>
      <trkpt lat="43.82639" lon="5.59686">
        <ele>731</ele>
        <time>2022-08-24T08:49:14Z</time>
      </trkpt>
      <trkpt lat="43.82633" lon="5.5969">
        <ele>731.4</ele>
        <time>2022-08-24T08:49:17Z</time>
      </trkpt>
      <trkpt lat="43.8263" lon="5.59694">
        <ele>731.7</ele>
        <time>2022-08-24T08:49:19Z</time>
      </trkpt>
      <trkpt lat="43.82627" lon="5.597">
        <ele>732.3</ele>
        <time>2022-08-24T08:49:21Z</time>
      </trkpt>
      <trkpt lat="43.82624" lon="5.59707">
        <ele>733</ele>
        <time>2022-08-24T08:49:24Z</time>
      </trkpt>
      <trkpt lat="43.82621" lon="5.59714">
        <ele>733.7</ele>
        <time>2022-08-24T08:49:27Z</time>
      </trkpt>
      <trkpt lat="43.82618" lon="5.59721">
        <ele>734.4</ele>
        <time>2022-08-24T08:49:30Z</time>
      </trkpt>
      <trkpt lat="43.82614" lon="5.59727">
        <ele>735.5</ele>
        <time>2022-08-24T08:49:33Z</time>
      </trkpt>
      <trkpt lat="43.82611" lon="5.59732">
        <ele>736.4</ele>
        <time>2022-08-24T08:49:35Z</time>
      </trkpt>
      <trkpt lat="43.82608" lon="5.59738">
        <ele>737.2</ele>
        <time>2022-08-24T08:49:38Z</time>
      </trkpt>
      <trkpt lat="43.82606" lon="5.59745">
        <ele>738.3</ele>
        <time>2022-08-24T08:49:41Z</time>
      </trkpt>
      <trkpt lat="43.82605" lon="5.59754">
        <ele>739.5</ele>
        <time>2022-08-24T08:49:44Z</time>
      </trkpt>
      <trkpt lat="43.82606" lon="5.5976">
        <ele>740.5</ele>
        <time>2022-08-24T08:49:47Z</time>
      </trkpt>
      <trkpt lat="43.82606" lon="5.59767">
        <ele>741.5</ele>
        <time>2022-08-24T08:49:50Z</time>
      </trkpt>
      <trkpt lat="43.82607" lon="5.59775">
        <ele>742.7</ele>
        <time>2022-08-24T08:49:53Z</time>
      </trkpt>
      <trkpt lat="43.82606" lon="5.59783">
        <ele>744.1</ele>
        <time>2022-08-24T08:49:56Z</time>
      </trkpt>
      <trkpt lat="43.82605" lon="5.59792">
        <ele>745.7</ele>
        <time>2022-08-24T08:49:59Z</time>
      </trkpt>
      <trkpt lat="43.82602" lon="5.59799">
        <ele>747.1</ele>
        <time>2022-08-24T08:50:02Z</time>
      </trkpt>
      <trkpt lat="43.82596" lon="5.59804">
        <ele>748.3</ele>
        <time>2022-08-24T08:50:05Z</time>
      </trkpt>
      <trkpt lat="43.8259" lon="5.59812">
        <ele>750</ele>
        <time>2022-08-24T08:50:10Z</time>
      </trkpt>
      <trkpt lat="43.82585" lon="5.59813">
        <ele>750.6</ele>
        <time>2022-08-24T08:50:12Z</time>
      </trkpt>
      <trkpt lat="43.8258" lon="5.59817">
        <ele>751.4</ele>
        <time>2022-08-24T08:50:15Z</time>
      </trkpt>
      <trkpt lat="43.82578" lon="5.59824">
        <ele>752.8</ele>
        <time>2022-08-24T08:50:18Z</time>
      </trkpt>
      <trkpt lat="43.82576" lon="5.59832">
        <ele>754.5</ele>
        <time>2022-08-24T08:50:21Z</time>
      </trkpt>
      <trkpt lat="43.82577" lon="5.59841">
        <ele>756.3</ele>
        <time>2022-08-24T08:50:24Z</time>
      </trkpt>
      <trkpt lat="43.82576" lon="5.59849">
        <ele>758.2</ele>
        <time>2022-08-24T08:50:27Z</time>
      </trkpt>
      <trkpt lat="43.82578" lon="5.59855">
        <ele>759.5</ele>
        <time>2022-08-24T08:50:29Z</time>
      </trkpt>
      <trkpt lat="43.82579" lon="5.59863">
        <ele>761.2</ele>
        <time>2022-08-24T08:50:32Z</time>
      </trkpt>
      <trkpt lat="43.82578" lon="5.59871">
        <ele>762.7</ele>
        <time>2022-08-24T08:50:35Z</time>
      </trkpt>
      <trkpt lat="43.82577" lon="5.59878">
        <ele>763.9</ele>
        <time>2022-08-24T08:50:38Z</time>
      </trkpt>
      <trkpt lat="43.82574" lon="5.59885">
        <ele>765.2</ele>
        <time>2022-08-24T08:50:41Z</time>
      </trkpt>
      <trkpt lat="43.82574" lon="5.59892">
        <ele>766.4</ele>
        <time>2022-08-24T08:50:44Z</time>
      </trkpt>
      <trkpt lat="43.82575" lon="5.59898">
        <ele>767.5</ele>
        <time>2022-08-24T08:50:47Z</time>
      </trkpt>
      <trkpt lat="43.82576" lon="5.59906">
        <ele>768.8</ele>
        <time>2022-08-24T08:50:50Z</time>
      </trkpt>
      <trkpt lat="43.82576" lon="5.59914">
        <ele>770.1</ele>
        <time>2022-08-24T08:50:53Z</time>
      </trkpt>
      <trkpt lat="43.82576" lon="5.59922">
        <ele>771.3</ele>
        <time>2022-08-24T08:50:56Z</time>
      </trkpt>
      <trkpt lat="43.82574" lon="5.5993">
        <ele>772.4</ele>
        <time>2022-08-24T08:50:59Z</time>
      </trkpt>
      <trkpt lat="43.82573" lon="5.59939">
        <ele>773.6</ele>
        <time>2022-08-24T08:51:02Z</time>
      </trkpt>
      <trkpt lat="43.82572" lon="5.59947">
        <ele>774.6</ele>
        <time>2022-08-24T08:51:05Z</time>
      </trkpt>
      <trkpt lat="43.82571" lon="5.59955">
        <ele>775.2</ele>
        <time>2022-08-24T08:51:08Z</time>
      </trkpt>
      <trkpt lat="43.8257" lon="5.59963">
        <ele>775.8</ele>
        <time>2022-08-24T08:51:11Z</time>
      </trkpt>
      <trkpt lat="43.8257" lon="5.59969">
        <ele>776.3</ele>
        <time>2022-08-24T08:51:13Z</time>
      </trkpt>
      <trkpt lat="43.82571" lon="5.59979">
        <ele>776.4</ele>
        <time>2022-08-24T08:51:16Z</time>
      </trkpt>
      <trkpt lat="43.82571" lon="5.59985">
        <ele>776.2</ele>
        <time>2022-08-24T08:51:18Z</time>
      </trkpt>
      <trkpt lat="43.82573" lon="5.59993">
        <ele>776.3</ele>
        <time>2022-08-24T08:51:21Z</time>
      </trkpt>
      <trkpt lat="43.82576" lon="5.6">
        <ele>776.7</ele>
        <time>2022-08-24T08:51:24Z</time>
      </trkpt>
      <trkpt lat="43.82579" lon="5.60009">
        <ele>777</ele>
        <time>2022-08-24T08:51:27Z</time>
      </trkpt>
      <trkpt lat="43.82584" lon="5.60015">
        <ele>778</ele>
        <time>2022-08-24T08:51:30Z</time>
      </trkpt>
      <trkpt lat="43.82587" lon="5.6002">
        <ele>778</ele>
        <time>2022-08-24T08:51:32Z</time>
      </trkpt>
      <trkpt lat="43.8259" lon="5.60026">
        <ele>778.2</ele>
        <time>2022-08-24T08:51:34Z</time>
      </trkpt>
      <trkpt lat="43.82592" lon="5.60034">
        <ele>778.3</ele>
        <time>2022-08-24T08:51:36Z</time>
      </trkpt>
      <trkpt lat="43.82594" lon="5.60041">
        <ele>778.4</ele>
        <time>2022-08-24T08:51:38Z</time>
      </trkpt>
      <trkpt lat="43.82595" lon="5.60048">
        <ele>778.6</ele>
        <time>2022-08-24T08:51:40Z</time>
      </trkpt>
      <trkpt lat="43.82596" lon="5.60055">
        <ele>778.8</ele>
        <time>2022-08-24T08:51:42Z</time>
      </trkpt>
      <trkpt lat="43.82597" lon="5.60063">
        <ele>779</ele>
        <time>2022-08-24T08:51:44Z</time>
      </trkpt>
      <trkpt lat="43.82599" lon="5.60069">
        <ele>779.3</ele>
        <time>2022-08-24T08:51:46Z</time>
      </trkpt>
      <trkpt lat="43.82599" lon="5.60076">
        <ele>779.3</ele>
        <time>2022-08-24T08:51:48Z</time>
      </trkpt>
      <trkpt lat="43.82599" lon="5.60085">
        <ele>779.3</ele>
        <time>2022-08-24T08:51:50Z</time>
      </trkpt>
      <trkpt lat="43.82599" lon="5.60094">
        <ele>779.2</ele>
        <time>2022-08-24T08:51:52Z</time>
      </trkpt>
      <trkpt lat="43.82598" lon="5.60102">
        <ele>779.1</ele>
        <time>2022-08-24T08:51:54Z</time>
      </trkpt>
      <trkpt lat="43.82596" lon="5.6011">
        <ele>778.8</ele>
        <time>2022-08-24T08:51:56Z</time>
      </trkpt>
      <trkpt lat="43.82589" lon="5.60115">
        <ele>777.6</ele>
        <time>2022-08-24T08:51:58Z</time>
      </trkpt>
      <trkpt lat="43.82584" lon="5.60116">
        <ele>776.7</ele>
        <time>2022-08-24T08:51:59Z</time>
      </trkpt>
      <trkpt lat="43.82579" lon="5.60119">
        <ele>776.1</ele>
        <time>2022-08-24T08:52:00Z</time>
      </trkpt>
      <trkpt lat="43.82572" lon="5.60119">
        <ele>775.5</ele>
        <time>2022-08-24T08:52:01Z</time>
      </trkpt>
      <trkpt lat="43.82566" lon="5.6012">
        <ele>775.1</ele>
        <time>2022-08-24T08:52:02Z</time>
      </trkpt>
      <trkpt lat="43.82558" lon="5.60123">
        <ele>774.6</ele>
        <time>2022-08-24T08:52:03Z</time>
      </trkpt>
      <trkpt lat="43.82553" lon="5.60126">
        <ele>774.6</ele>
        <time>2022-08-24T08:52:04Z</time>
      </trkpt>
      <trkpt lat="43.82548" lon="5.60129">
        <ele>775.1</ele>
        <time>2022-08-24T08:52:05Z</time>
      </trkpt>
      <trkpt lat="43.82543" lon="5.6013">
        <ele>775.6</ele>
        <time>2022-08-24T08:52:06Z</time>
      </trkpt>
      <trkpt lat="43.82537" lon="5.60135">
        <ele>777</ele>
        <time>2022-08-24T08:52:08Z</time>
      </trkpt>
      <trkpt lat="43.82533" lon="5.6014">
        <ele>778.3</ele>
        <time>2022-08-24T08:52:10Z</time>
      </trkpt>
      <trkpt lat="43.82528" lon="5.60146">
        <ele>779</ele>
        <time>2022-08-24T08:52:12Z</time>
      </trkpt>
      <trkpt lat="43.82523" lon="5.60152">
        <ele>779.3</ele>
        <time>2022-08-24T08:52:14Z</time>
      </trkpt>
      <trkpt lat="43.82517" lon="5.60158">
        <ele>779.9</ele>
        <time>2022-08-24T08:52:16Z</time>
      </trkpt>
      <trkpt lat="43.82513" lon="5.60163">
        <ele>780.8</ele>
        <time>2022-08-24T08:52:18Z</time>
      </trkpt>
      <trkpt lat="43.82508" lon="5.60167">
        <ele>781.9</ele>
        <time>2022-08-24T08:52:20Z</time>
      </trkpt>
      <trkpt lat="43.82504" lon="5.60172">
        <ele>782.6</ele>
        <time>2022-08-24T08:52:22Z</time>
      </trkpt>
      <trkpt lat="43.825" lon="5.60178">
        <ele>783.4</ele>
        <time>2022-08-24T08:52:24Z</time>
      </trkpt>
      <trkpt lat="43.82496" lon="5.60186">
        <ele>783.3</ele>
        <time>2022-08-24T08:52:26Z</time>
      </trkpt>
      <trkpt lat="43.82494" lon="5.60194">
        <ele>783.5</ele>
        <time>2022-08-24T08:52:28Z</time>
      </trkpt>
      <trkpt lat="43.82492" lon="5.60203">
        <ele>783.3</ele>
        <time>2022-08-24T08:52:30Z</time>
      </trkpt>
      <trkpt lat="43.82491" lon="5.60213">
        <ele>783.1</ele>
        <time>2022-08-24T08:52:32Z</time>
      </trkpt>
      <trkpt lat="43.8249" lon="5.60224">
        <ele>783</ele>
        <time>2022-08-24T08:52:34Z</time>
      </trkpt>
      <trkpt lat="43.82488" lon="5.60233">
        <ele>782.8</ele>
        <time>2022-08-24T08:52:36Z</time>
      </trkpt>
      <trkpt lat="43.82486" lon="5.60242">
        <ele>782.6</ele>
        <time>2022-08-24T08:52:38Z</time>
      </trkpt>
      <trkpt lat="43.82484" lon="5.6025">
        <ele>782.4</ele>
        <time>2022-08-24T08:52:40Z</time>
      </trkpt>
      <trkpt lat="43.82481" lon="5.6026">
        <ele>781.9</ele>
        <time>2022-08-24T08:52:42Z</time>
      </trkpt>
      <trkpt lat="43.82479" lon="5.60273">
        <ele>781.4</ele>
        <time>2022-08-24T08:52:44Z</time>
      </trkpt>
      <trkpt lat="43.82478" lon="5.6028">
        <ele>781.1</ele>
        <time>2022-08-24T08:52:45Z</time>
      </trkpt>
      <trkpt lat="43.82476" lon="5.60287">
        <ele>780.6</ele>
        <time>2022-08-24T08:52:46Z</time>
      </trkpt>
      <trkpt lat="43.82476" lon="5.60294">
        <ele>780</ele>
        <time>2022-08-24T08:52:47Z</time>
      </trkpt>
      <trkpt lat="43.82474" lon="5.60302">
        <ele>779.4</ele>
        <time>2022-08-24T08:52:48Z</time>
      </trkpt>
      <trkpt lat="43.82472" lon="5.6031">
        <ele>778.6</ele>
        <time>2022-08-24T08:52:49Z</time>
      </trkpt>
      <trkpt lat="43.82472" lon="5.6032">
        <ele>778</ele>
        <time>2022-08-24T08:52:50Z</time>
      </trkpt>
      <trkpt lat="43.82472" lon="5.6033">
        <ele>777.2</ele>
        <time>2022-08-24T08:52:51Z</time>
      </trkpt>
      <trkpt lat="43.82473" lon="5.60341">
        <ele>776.5</ele>
        <time>2022-08-24T08:52:52Z</time>
      </trkpt>
      <trkpt lat="43.82474" lon="5.60353">
        <ele>775.7</ele>
        <time>2022-08-24T08:52:53Z</time>
      </trkpt>
      <trkpt lat="43.82476" lon="5.60364">
        <ele>775.1</ele>
        <time>2022-08-24T08:52:54Z</time>
      </trkpt>
      <trkpt lat="43.82478" lon="5.60375">
        <ele>774.4</ele>
        <time>2022-08-24T08:52:55Z</time>
      </trkpt>
      <trkpt lat="43.8248" lon="5.60388">
        <ele>773.6</ele>
        <time>2022-08-24T08:52:56Z</time>
      </trkpt>
      <trkpt lat="43.82481" lon="5.604">
        <ele>772.8</ele>
        <time>2022-08-24T08:52:57Z</time>
      </trkpt>
      <trkpt lat="43.82481" lon="5.60411">
        <ele>772.1</ele>
        <time>2022-08-24T08:52:58Z</time>
      </trkpt>
      <trkpt lat="43.82483" lon="5.60424">
        <ele>771.1</ele>
        <time>2022-08-24T08:52:59Z</time>
      </trkpt>
      <trkpt lat="43.82481" lon="5.60435">
        <ele>769.9</ele>
        <time>2022-08-24T08:53:00Z</time>
      </trkpt>
      <trkpt lat="43.82478" lon="5.60446">
        <ele>768.9</ele>
        <time>2022-08-24T08:53:01Z</time>
      </trkpt>
      <trkpt lat="43.82472" lon="5.60455">
        <ele>768.5</ele>
        <time>2022-08-24T08:53:02Z</time>
      </trkpt>
      <trkpt lat="43.82465" lon="5.60463">
        <ele>767.8</ele>
        <time>2022-08-24T08:53:03Z</time>
      </trkpt>
      <trkpt lat="43.82458" lon="5.6047">
        <ele>767</ele>
        <time>2022-08-24T08:53:04Z</time>
      </trkpt>
      <trkpt lat="43.82452" lon="5.60479">
        <ele>766</ele>
        <time>2022-08-24T08:53:05Z</time>
      </trkpt>
      <trkpt lat="43.82443" lon="5.60485">
        <ele>765</ele>
        <time>2022-08-24T08:53:06Z</time>
      </trkpt>
      <trkpt lat="43.82436" lon="5.60494">
        <ele>764</ele>
        <time>2022-08-24T08:53:07Z</time>
      </trkpt>
      <trkpt lat="43.82428" lon="5.60498">
        <ele>763.5</ele>
        <time>2022-08-24T08:53:08Z</time>
      </trkpt>
      <trkpt lat="43.8242" lon="5.60505">
        <ele>763</ele>
        <time>2022-08-24T08:53:09Z</time>
      </trkpt>
      <trkpt lat="43.82412" lon="5.6051">
        <ele>762.2</ele>
        <time>2022-08-24T08:53:10Z</time>
      </trkpt>
      <trkpt lat="43.82403" lon="5.60513">
        <ele>761.3</ele>
        <time>2022-08-24T08:53:11Z</time>
      </trkpt>
      <trkpt lat="43.82394" lon="5.60514">
        <ele>760.4</ele>
        <time>2022-08-24T08:53:12Z</time>
      </trkpt>
      <trkpt lat="43.82384" lon="5.60514">
        <ele>759.6</ele>
        <time>2022-08-24T08:53:13Z</time>
      </trkpt>
      <trkpt lat="43.82376" lon="5.60516">
        <ele>758.8</ele>
        <time>2022-08-24T08:53:14Z</time>
      </trkpt>
      <trkpt lat="43.82366" lon="5.60519">
        <ele>758.1</ele>
        <time>2022-08-24T08:53:15Z</time>
      </trkpt>
      <trkpt lat="43.82359" lon="5.60525">
        <ele>757.7</ele>
        <time>2022-08-24T08:53:16Z</time>
      </trkpt>
      <trkpt lat="43.82353" lon="5.60531">
        <ele>757.4</ele>
        <time>2022-08-24T08:53:17Z</time>
      </trkpt>
      <trkpt lat="43.82348" lon="5.6054">
        <ele>757.1</ele>
        <time>2022-08-24T08:53:18Z</time>
      </trkpt>
      <trkpt lat="43.82345" lon="5.60549">
        <ele>756.9</ele>
        <time>2022-08-24T08:53:19Z</time>
      </trkpt>
      <trkpt lat="43.82343" lon="5.60561">
        <ele>756.3</ele>
        <time>2022-08-24T08:53:20Z</time>
      </trkpt>
      <trkpt lat="43.82343" lon="5.60572">
        <ele>755.5</ele>
        <time>2022-08-24T08:53:21Z</time>
      </trkpt>
      <trkpt lat="43.82344" lon="5.60584">
        <ele>754.8</ele>
        <time>2022-08-24T08:53:22Z</time>
      </trkpt>
      <trkpt lat="43.82348" lon="5.60596">
        <ele>753.9</ele>
        <time>2022-08-24T08:53:23Z</time>
      </trkpt>
      <trkpt lat="43.82351" lon="5.60607">
        <ele>753</ele>
        <time>2022-08-24T08:53:24Z</time>
      </trkpt>
      <trkpt lat="43.82354" lon="5.60619">
        <ele>752.1</ele>
        <time>2022-08-24T08:53:25Z</time>
      </trkpt>
      <trkpt lat="43.82358" lon="5.6063">
        <ele>751.5</ele>
        <time>2022-08-24T08:53:26Z</time>
      </trkpt>
      <trkpt lat="43.82363" lon="5.6064">
        <ele>750.9</ele>
        <time>2022-08-24T08:53:27Z</time>
      </trkpt>
      <trkpt lat="43.8237" lon="5.60649">
        <ele>750.1</ele>
        <time>2022-08-24T08:53:28Z</time>
      </trkpt>
      <trkpt lat="43.82377" lon="5.60658">
        <ele>749.2</ele>
        <time>2022-08-24T08:53:29Z</time>
      </trkpt>
      <trkpt lat="43.82383" lon="5.60665">
        <ele>748.2</ele>
        <time>2022-08-24T08:53:30Z</time>
      </trkpt>
      <trkpt lat="43.82392" lon="5.6067">
        <ele>747.4</ele>
        <time>2022-08-24T08:53:31Z</time>
      </trkpt>
      <trkpt lat="43.82401" lon="5.60674">
        <ele>746.8</ele>
        <time>2022-08-24T08:53:32Z</time>
      </trkpt>
      <trkpt lat="43.8241" lon="5.60678">
        <ele>746</ele>
        <time>2022-08-24T08:53:33Z</time>
      </trkpt>
      <trkpt lat="43.8242" lon="5.60682">
        <ele>745.1</ele>
        <time>2022-08-24T08:53:34Z</time>
      </trkpt>
      <trkpt lat="43.82431" lon="5.60685">
        <ele>744</ele>
        <time>2022-08-24T08:53:35Z</time>
      </trkpt>
      <trkpt lat="43.82441" lon="5.60685">
        <ele>743.3</ele>
        <time>2022-08-24T08:53:36Z</time>
      </trkpt>
      <trkpt lat="43.82452" lon="5.60685">
        <ele>742.1</ele>
        <time>2022-08-24T08:53:37Z</time>
      </trkpt>
      <trkpt lat="43.82461" lon="5.60684">
        <ele>741.1</ele>
        <time>2022-08-24T08:53:38Z</time>
      </trkpt>
      <trkpt lat="43.82472" lon="5.60682">
        <ele>740.2</ele>
        <time>2022-08-24T08:53:39Z</time>
      </trkpt>
      <trkpt lat="43.82483" lon="5.60679">
        <ele>739.5</ele>
        <time>2022-08-24T08:53:40Z</time>
      </trkpt>
      <trkpt lat="43.82494" lon="5.60677">
        <ele>738.6</ele>
        <time>2022-08-24T08:53:41Z</time>
      </trkpt>
      <trkpt lat="43.82504" lon="5.60675">
        <ele>737.5</ele>
        <time>2022-08-24T08:53:42Z</time>
      </trkpt>
      <trkpt lat="43.82514" lon="5.60672">
        <ele>736.5</ele>
        <time>2022-08-24T08:53:43Z</time>
      </trkpt>
      <trkpt lat="43.82523" lon="5.60667">
        <ele>735.8</ele>
        <time>2022-08-24T08:53:44Z</time>
      </trkpt>
      <trkpt lat="43.82533" lon="5.60659">
        <ele>733.9</ele>
        <time>2022-08-24T08:53:45Z</time>
      </trkpt>
      <trkpt lat="43.82539" lon="5.60647">
        <ele>732.4</ele>
        <time>2022-08-24T08:53:46Z</time>
      </trkpt>
      <trkpt lat="43.8254" lon="5.60633">
        <ele>733.1</ele>
        <time>2022-08-24T08:53:47Z</time>
      </trkpt>
      <trkpt lat="43.82543" lon="5.6062">
        <ele>732.4</ele>
        <time>2022-08-24T08:53:48Z</time>
      </trkpt>
      <trkpt lat="43.82547" lon="5.60606">
        <ele>731.7</ele>
        <time>2022-08-24T08:53:49Z</time>
      </trkpt>
      <trkpt lat="43.8255" lon="5.60594">
        <ele>731.3</ele>
        <time>2022-08-24T08:53:50Z</time>
      </trkpt>
      <trkpt lat="43.82556" lon="5.60583">
        <ele>729.8</ele>
        <time>2022-08-24T08:53:51Z</time>
      </trkpt>
      <trkpt lat="43.82562" lon="5.60572">
        <ele>729.2</ele>
        <time>2022-08-24T08:53:52Z</time>
      </trkpt>
      <trkpt lat="43.8257" lon="5.60562">
        <ele>727.9</ele>
        <time>2022-08-24T08:53:53Z</time>
      </trkpt>
      <trkpt lat="43.82578" lon="5.60553">
        <ele>726.7</ele>
        <time>2022-08-24T08:53:54Z</time>
      </trkpt>
      <trkpt lat="43.82586" lon="5.60544">
        <ele>726.4</ele>
        <time>2022-08-24T08:53:55Z</time>
      </trkpt>
      <trkpt lat="43.82594" lon="5.60537">
        <ele>726.3</ele>
        <time>2022-08-24T08:53:56Z</time>
      </trkpt>
      <trkpt lat="43.82602" lon="5.60534">
        <ele>725.2</ele>
        <time>2022-08-24T08:53:57Z</time>
      </trkpt>
      <trkpt lat="43.8261" lon="5.60534">
        <ele>723.3</ele>
        <time>2022-08-24T08:53:58Z</time>
      </trkpt>
      <trkpt lat="43.82617" lon="5.60538">
        <ele>721.8</ele>
        <time>2022-08-24T08:53:59Z</time>
      </trkpt>
      <trkpt lat="43.82623" lon="5.6054">
        <ele>721.7</ele>
        <time>2022-08-24T08:54:00Z</time>
      </trkpt>
      <trkpt lat="43.82631" lon="5.60544">
        <ele>720.9</ele>
        <time>2022-08-24T08:54:01Z</time>
      </trkpt>
      <trkpt lat="43.82638" lon="5.6055">
        <ele>720.1</ele>
        <time>2022-08-24T08:54:02Z</time>
      </trkpt>
      <trkpt lat="43.82647" lon="5.60557">
        <ele>718.8</ele>
        <time>2022-08-24T08:54:03Z</time>
      </trkpt>
      <trkpt lat="43.82655" lon="5.60565">
        <ele>717.1</ele>
        <time>2022-08-24T08:54:04Z</time>
      </trkpt>
      <trkpt lat="43.82659" lon="5.60572">
        <ele>715.9</ele>
        <time>2022-08-24T08:54:05Z</time>
      </trkpt>
      <trkpt lat="43.82667" lon="5.60583">
        <ele>715.1</ele>
        <time>2022-08-24T08:54:06Z</time>
      </trkpt>
      <trkpt lat="43.82675" lon="5.60591">
        <ele>712.8</ele>
        <time>2022-08-24T08:54:07Z</time>
      </trkpt>
      <trkpt lat="43.82683" lon="5.60597">
        <ele>711.6</ele>
        <time>2022-08-24T08:54:08Z</time>
      </trkpt>
      <trkpt lat="43.82689" lon="5.60597">
        <ele>711.8</ele>
        <time>2022-08-24T08:54:09Z</time>
      </trkpt>
      <trkpt lat="43.82694" lon="5.60595">
        <ele>712.1</ele>
        <time>2022-08-24T08:54:10Z</time>
      </trkpt>
      <trkpt lat="43.82698" lon="5.60592">
        <ele>711.9</ele>
        <time>2022-08-24T08:54:11Z</time>
      </trkpt>
      <trkpt lat="43.82703" lon="5.60588">
        <ele>711.6</ele>
        <time>2022-08-24T08:54:12Z</time>
      </trkpt>
      <trkpt lat="43.82709" lon="5.60586">
        <ele>711</ele>
        <time>2022-08-24T08:54:13Z</time>
      </trkpt>
      <trkpt lat="43.82716" lon="5.60585">
        <ele>710.3</ele>
        <time>2022-08-24T08:54:14Z</time>
      </trkpt>
      <trkpt lat="43.82723" lon="5.60583">
        <ele>710.1</ele>
        <time>2022-08-24T08:54:15Z</time>
      </trkpt>
      <trkpt lat="43.82729" lon="5.60579">
        <ele>709.5</ele>
        <time>2022-08-24T08:54:16Z</time>
      </trkpt>
      <trkpt lat="43.82736" lon="5.60574">
        <ele>708.8</ele>
        <time>2022-08-24T08:54:17Z</time>
      </trkpt>
      <trkpt lat="43.82744" lon="5.60568">
        <ele>707.9</ele>
        <time>2022-08-24T08:54:18Z</time>
      </trkpt>
      <trkpt lat="43.8275" lon="5.6056">
        <ele>707.3</ele>
        <time>2022-08-24T08:54:19Z</time>
      </trkpt>
      <trkpt lat="43.82758" lon="5.60553">
        <ele>706.1</ele>
        <time>2022-08-24T08:54:20Z</time>
      </trkpt>
      <trkpt lat="43.82765" lon="5.60545">
        <ele>705</ele>
        <time>2022-08-24T08:54:21Z</time>
      </trkpt>
      <trkpt lat="43.82772" lon="5.60537">
        <ele>704.1</ele>
        <time>2022-08-24T08:54:22Z</time>
      </trkpt>
      <trkpt lat="43.82781" lon="5.60529">
        <ele>703</ele>
        <time>2022-08-24T08:54:23Z</time>
      </trkpt>
      <trkpt lat="43.82786" lon="5.60521">
        <ele>702.6</ele>
        <time>2022-08-24T08:54:24Z</time>
      </trkpt>
      <trkpt lat="43.82793" lon="5.60512">
        <ele>701.8</ele>
        <time>2022-08-24T08:54:25Z</time>
      </trkpt>
      <trkpt lat="43.828" lon="5.60504">
        <ele>701</ele>
        <time>2022-08-24T08:54:26Z</time>
      </trkpt>
      <trkpt lat="43.82809" lon="5.605">
        <ele>699.9</ele>
        <time>2022-08-24T08:54:27Z</time>
      </trkpt>
      <trkpt lat="43.82817" lon="5.60501">
        <ele>699.5</ele>
        <time>2022-08-24T08:54:28Z</time>
      </trkpt>
      <trkpt lat="43.82822" lon="5.60505">
        <ele>698.9</ele>
        <time>2022-08-24T08:54:29Z</time>
      </trkpt>
      <trkpt lat="43.82826" lon="5.60511">
        <ele>698.3</ele>
        <time>2022-08-24T08:54:30Z</time>
      </trkpt>
      <trkpt lat="43.82827" lon="5.60519">
        <ele>697.6</ele>
        <time>2022-08-24T08:54:31Z</time>
      </trkpt>
      <trkpt lat="43.82828" lon="5.60526">
        <ele>696.9</ele>
        <time>2022-08-24T08:54:32Z</time>
      </trkpt>
      <trkpt lat="43.82827" lon="5.60534">
        <ele>696.4</ele>
        <time>2022-08-24T08:54:33Z</time>
      </trkpt>
      <trkpt lat="43.82827" lon="5.60542">
        <ele>695.8</ele>
        <time>2022-08-24T08:54:34Z</time>
      </trkpt>
      <trkpt lat="43.82826" lon="5.6055">
        <ele>695.1</ele>
        <time>2022-08-24T08:54:35Z</time>
      </trkpt>
      <trkpt lat="43.82827" lon="5.60559">
        <ele>694.5</ele>
        <time>2022-08-24T08:54:36Z</time>
      </trkpt>
      <trkpt lat="43.82826" lon="5.60569">
        <ele>693.7</ele>
        <time>2022-08-24T08:54:37Z</time>
      </trkpt>
      <trkpt lat="43.82826" lon="5.60578">
        <ele>693.1</ele>
        <time>2022-08-24T08:54:38Z</time>
      </trkpt>
      <trkpt lat="43.82825" lon="5.60587">
        <ele>692.5</ele>
        <time>2022-08-24T08:54:39Z</time>
      </trkpt>
      <trkpt lat="43.82825" lon="5.60595">
        <ele>692.4</ele>
        <time>2022-08-24T08:54:40Z</time>
      </trkpt>
      <trkpt lat="43.82825" lon="5.60604">
        <ele>692.5</ele>
        <time>2022-08-24T08:54:41Z</time>
      </trkpt>
      <trkpt lat="43.82825" lon="5.60612">
        <ele>692.5</ele>
        <time>2022-08-24T08:54:42Z</time>
      </trkpt>
      <trkpt lat="43.82826" lon="5.6062">
        <ele>693.1</ele>
        <time>2022-08-24T08:54:43Z</time>
      </trkpt>
      <trkpt lat="43.82828" lon="5.60629">
        <ele>693.7</ele>
        <time>2022-08-24T08:54:44Z</time>
      </trkpt>
      <trkpt lat="43.8283" lon="5.60637">
        <ele>694.3</ele>
        <time>2022-08-24T08:54:45Z</time>
      </trkpt>
      <trkpt lat="43.82834" lon="5.60651">
        <ele>695.7</ele>
        <time>2022-08-24T08:54:47Z</time>
      </trkpt>
      <trkpt lat="43.82835" lon="5.60658">
        <ele>695.9</ele>
        <time>2022-08-24T08:54:48Z</time>
      </trkpt>
      <trkpt lat="43.82837" lon="5.60664">
        <ele>696</ele>
        <time>2022-08-24T08:54:49Z</time>
      </trkpt>
      <trkpt lat="43.82839" lon="5.60671">
        <ele>696.2</ele>
        <time>2022-08-24T08:54:50Z</time>
      </trkpt>
      <trkpt lat="43.82842" lon="5.60678">
        <ele>696.4</ele>
        <time>2022-08-24T08:54:51Z</time>
      </trkpt>
      <trkpt lat="43.82844" lon="5.60684">
        <ele>696.6</ele>
        <time>2022-08-24T08:54:52Z</time>
      </trkpt>
      <trkpt lat="43.82847" lon="5.6069">
        <ele>696.7</ele>
        <time>2022-08-24T08:54:53Z</time>
      </trkpt>
      <trkpt lat="43.82848" lon="5.60697">
        <ele>697.1</ele>
        <time>2022-08-24T08:54:54Z</time>
      </trkpt>
      <trkpt lat="43.82852" lon="5.6071">
        <ele>697.8</ele>
        <time>2022-08-24T08:54:56Z</time>
      </trkpt>
      <trkpt lat="43.82853" lon="5.60717">
        <ele>698.4</ele>
        <time>2022-08-24T08:54:57Z</time>
      </trkpt>
      <trkpt lat="43.82854" lon="5.60723">
        <ele>698.9</ele>
        <time>2022-08-24T08:54:58Z</time>
      </trkpt>
      <trkpt lat="43.82855" lon="5.60729">
        <ele>699.1</ele>
        <time>2022-08-24T08:54:59Z</time>
      </trkpt>
      <trkpt lat="43.82856" lon="5.60737">
        <ele>699.2</ele>
        <time>2022-08-24T08:55:00Z</time>
      </trkpt>
      <trkpt lat="43.82859" lon="5.60745">
        <ele>699</ele>
        <time>2022-08-24T08:55:01Z</time>
      </trkpt>
      <trkpt lat="43.8286" lon="5.60751">
        <ele>699.4</ele>
        <time>2022-08-24T08:55:02Z</time>
      </trkpt>
      <trkpt lat="43.82862" lon="5.60763">
        <ele>700.1</ele>
        <time>2022-08-24T08:55:04Z</time>
      </trkpt>
      <trkpt lat="43.82864" lon="5.60769">
        <ele>699.7</ele>
        <time>2022-08-24T08:55:05Z</time>
      </trkpt>
      <trkpt lat="43.82865" lon="5.60782">
        <ele>700.4</ele>
        <time>2022-08-24T08:55:07Z</time>
      </trkpt>
      <trkpt lat="43.82866" lon="5.60788">
        <ele>700.4</ele>
        <time>2022-08-24T08:55:08Z</time>
      </trkpt>
      <trkpt lat="43.82867" lon="5.60795">
        <ele>700.7</ele>
        <time>2022-08-24T08:55:09Z</time>
      </trkpt>
      <trkpt lat="43.82867" lon="5.60801">
        <ele>700.9</ele>
        <time>2022-08-24T08:55:10Z</time>
      </trkpt>
      <trkpt lat="43.82869" lon="5.60812">
        <ele>700.9</ele>
        <time>2022-08-24T08:55:12Z</time>
      </trkpt>
      <trkpt lat="43.82871" lon="5.60825">
        <ele>701</ele>
        <time>2022-08-24T08:55:14Z</time>
      </trkpt>
      <trkpt lat="43.82874" lon="5.60832">
        <ele>700.3</ele>
        <time>2022-08-24T08:55:15Z</time>
      </trkpt>
      <trkpt lat="43.82874" lon="5.60838">
        <ele>700.8</ele>
        <time>2022-08-24T08:55:16Z</time>
      </trkpt>
      <trkpt lat="43.82874" lon="5.60851">
        <ele>701.3</ele>
        <time>2022-08-24T08:55:18Z</time>
      </trkpt>
      <trkpt lat="43.82874" lon="5.60863">
        <ele>702</ele>
        <time>2022-08-24T08:55:20Z</time>
      </trkpt>
      <trkpt lat="43.82873" lon="5.60869">
        <ele>702.3</ele>
        <time>2022-08-24T08:55:21Z</time>
      </trkpt>
      <trkpt lat="43.82874" lon="5.60875">
        <ele>701.8</ele>
        <time>2022-08-24T08:55:22Z</time>
      </trkpt>
      <trkpt lat="43.82874" lon="5.60882">
        <ele>701.3</ele>
        <time>2022-08-24T08:55:23Z</time>
      </trkpt>
      <trkpt lat="43.82874" lon="5.60894">
        <ele>701.3</ele>
        <time>2022-08-24T08:55:25Z</time>
      </trkpt>
      <trkpt lat="43.82874" lon="5.60906">
        <ele>701.8</ele>
        <time>2022-08-24T08:55:27Z</time>
      </trkpt>
      <trkpt lat="43.82876" lon="5.60918">
        <ele>701.5</ele>
        <time>2022-08-24T08:55:29Z</time>
      </trkpt>
      <trkpt lat="43.82876" lon="5.60925">
        <ele>701.5</ele>
        <time>2022-08-24T08:55:30Z</time>
      </trkpt>
      <trkpt lat="43.82877" lon="5.60931">
        <ele>701.4</ele>
        <time>2022-08-24T08:55:31Z</time>
      </trkpt>
      <trkpt lat="43.82877" lon="5.60939">
        <ele>701.3</ele>
        <time>2022-08-24T08:55:32Z</time>
      </trkpt>
      <trkpt lat="43.82877" lon="5.60946">
        <ele>701.3</ele>
        <time>2022-08-24T08:55:33Z</time>
      </trkpt>
      <trkpt lat="43.82877" lon="5.60952">
        <ele>701.6</ele>
        <time>2022-08-24T08:55:34Z</time>
      </trkpt>
      <trkpt lat="43.82878" lon="5.60959">
        <ele>701.4</ele>
        <time>2022-08-24T08:55:35Z</time>
      </trkpt>
      <trkpt lat="43.82879" lon="5.60967">
        <ele>700.9</ele>
        <time>2022-08-24T08:55:36Z</time>
      </trkpt>
      <trkpt lat="43.82879" lon="5.60974">
        <ele>700.8</ele>
        <time>2022-08-24T08:55:37Z</time>
      </trkpt>
      <trkpt lat="43.8288" lon="5.6098">
        <ele>700.8</ele>
        <time>2022-08-24T08:55:38Z</time>
      </trkpt>
      <trkpt lat="43.8288" lon="5.60988">
        <ele>700.7</ele>
        <time>2022-08-24T08:55:39Z</time>
      </trkpt>
      <trkpt lat="43.8288" lon="5.60996">
        <ele>700.6</ele>
        <time>2022-08-24T08:55:40Z</time>
      </trkpt>
      <trkpt lat="43.82881" lon="5.61003">
        <ele>700.6</ele>
        <time>2022-08-24T08:55:41Z</time>
      </trkpt>
      <trkpt lat="43.82882" lon="5.6101">
        <ele>700.9</ele>
        <time>2022-08-24T08:55:42Z</time>
      </trkpt>
      <trkpt lat="43.82884" lon="5.61019">
        <ele>700.7</ele>
        <time>2022-08-24T08:55:43Z</time>
      </trkpt>
      <trkpt lat="43.82884" lon="5.61025">
        <ele>701.3</ele>
        <time>2022-08-24T08:55:44Z</time>
      </trkpt>
      <trkpt lat="43.82884" lon="5.61032">
        <ele>701.5</ele>
        <time>2022-08-24T08:55:45Z</time>
      </trkpt>
      <trkpt lat="43.82884" lon="5.61039">
        <ele>701.7</ele>
        <time>2022-08-24T08:55:46Z</time>
      </trkpt>
      <trkpt lat="43.82884" lon="5.61047">
        <ele>701.9</ele>
        <time>2022-08-24T08:55:47Z</time>
      </trkpt>
      <trkpt lat="43.82884" lon="5.61053">
        <ele>702.3</ele>
        <time>2022-08-24T08:55:48Z</time>
      </trkpt>
      <trkpt lat="43.82882" lon="5.6106">
        <ele>702.6</ele>
        <time>2022-08-24T08:55:49Z</time>
      </trkpt>
      <trkpt lat="43.82882" lon="5.61067">
        <ele>702.5</ele>
        <time>2022-08-24T08:55:50Z</time>
      </trkpt>
      <trkpt lat="43.82882" lon="5.61075">
        <ele>702.3</ele>
        <time>2022-08-24T08:55:51Z</time>
      </trkpt>
      <trkpt lat="43.82883" lon="5.61083">
        <ele>702.1</ele>
        <time>2022-08-24T08:55:52Z</time>
      </trkpt>
      <trkpt lat="43.82882" lon="5.6109">
        <ele>702.1</ele>
        <time>2022-08-24T08:55:53Z</time>
      </trkpt>
      <trkpt lat="43.82882" lon="5.61097">
        <ele>702.1</ele>
        <time>2022-08-24T08:55:54Z</time>
      </trkpt>
      <trkpt lat="43.82881" lon="5.61109">
        <ele>702.2</ele>
        <time>2022-08-24T08:55:56Z</time>
      </trkpt>
      <trkpt lat="43.8288" lon="5.61116">
        <ele>702.2</ele>
        <time>2022-08-24T08:55:57Z</time>
      </trkpt>
      <trkpt lat="43.82877" lon="5.61122">
        <ele>702.3</ele>
        <time>2022-08-24T08:55:58Z</time>
      </trkpt>
      <trkpt lat="43.82876" lon="5.61128">
        <ele>702.2</ele>
        <time>2022-08-24T08:55:59Z</time>
      </trkpt>
      <trkpt lat="43.82874" lon="5.61135">
        <ele>702.3</ele>
        <time>2022-08-24T08:56:00Z</time>
      </trkpt>
      <trkpt lat="43.82872" lon="5.61141">
        <ele>702.2</ele>
        <time>2022-08-24T08:56:01Z</time>
      </trkpt>
      <trkpt lat="43.8287" lon="5.61147">
        <ele>702.1</ele>
        <time>2022-08-24T08:56:02Z</time>
      </trkpt>
      <trkpt lat="43.82867" lon="5.61153">
        <ele>702.1</ele>
        <time>2022-08-24T08:56:03Z</time>
      </trkpt>
      <trkpt lat="43.82862" lon="5.61164">
        <ele>702.1</ele>
        <time>2022-08-24T08:56:05Z</time>
      </trkpt>
      <trkpt lat="43.82858" lon="5.6117">
        <ele>702.1</ele>
        <time>2022-08-24T08:56:06Z</time>
      </trkpt>
      <trkpt lat="43.82851" lon="5.6118">
        <ele>702.1</ele>
        <time>2022-08-24T08:56:08Z</time>
      </trkpt>
      <trkpt lat="43.82849" lon="5.61187">
        <ele>701.9</ele>
        <time>2022-08-24T08:56:09Z</time>
      </trkpt>
      <trkpt lat="43.82845" lon="5.61192">
        <ele>701.9</ele>
        <time>2022-08-24T08:56:10Z</time>
      </trkpt>
      <trkpt lat="43.82842" lon="5.61198">
        <ele>701.8</ele>
        <time>2022-08-24T08:56:11Z</time>
      </trkpt>
      <trkpt lat="43.8284" lon="5.61204">
        <ele>701.6</ele>
        <time>2022-08-24T08:56:12Z</time>
      </trkpt>
      <trkpt lat="43.82837" lon="5.6121">
        <ele>701.6</ele>
        <time>2022-08-24T08:56:13Z</time>
      </trkpt>
      <trkpt lat="43.82833" lon="5.61216">
        <ele>701.5</ele>
        <time>2022-08-24T08:56:14Z</time>
      </trkpt>
      <trkpt lat="43.8283" lon="5.61222">
        <ele>701.1</ele>
        <time>2022-08-24T08:56:15Z</time>
      </trkpt>
      <trkpt lat="43.82826" lon="5.61227">
        <ele>701.1</ele>
        <time>2022-08-24T08:56:16Z</time>
      </trkpt>
      <trkpt lat="43.82821" lon="5.61237">
        <ele>701.2</ele>
        <time>2022-08-24T08:56:18Z</time>
      </trkpt>
      <trkpt lat="43.82818" lon="5.61243">
        <ele>701.2</ele>
        <time>2022-08-24T08:56:19Z</time>
      </trkpt>
      <trkpt lat="43.82815" lon="5.6125">
        <ele>701.3</ele>
        <time>2022-08-24T08:56:20Z</time>
      </trkpt>
      <trkpt lat="43.82813" lon="5.61256">
        <ele>701.2</ele>
        <time>2022-08-24T08:56:21Z</time>
      </trkpt>
      <trkpt lat="43.8281" lon="5.61262">
        <ele>701.2</ele>
        <time>2022-08-24T08:56:22Z</time>
      </trkpt>
      <trkpt lat="43.82807" lon="5.61268">
        <ele>701.2</ele>
        <time>2022-08-24T08:56:23Z</time>
      </trkpt>
      <trkpt lat="43.82806" lon="5.61275">
        <ele>701</ele>
        <time>2022-08-24T08:56:24Z</time>
      </trkpt>
      <trkpt lat="43.82804" lon="5.61281">
        <ele>701</ele>
        <time>2022-08-24T08:56:25Z</time>
      </trkpt>
      <trkpt lat="43.82803" lon="5.61287">
        <ele>701</ele>
        <time>2022-08-24T08:56:26Z</time>
      </trkpt>
      <trkpt lat="43.82801" lon="5.61294">
        <ele>701.1</ele>
        <time>2022-08-24T08:56:27Z</time>
      </trkpt>
      <trkpt lat="43.82799" lon="5.61301">
        <ele>701.2</ele>
        <time>2022-08-24T08:56:28Z</time>
      </trkpt>
      <trkpt lat="43.82797" lon="5.61307">
        <ele>701.3</ele>
        <time>2022-08-24T08:56:29Z</time>
      </trkpt>
      <trkpt lat="43.82795" lon="5.61313">
        <ele>701.6</ele>
        <time>2022-08-24T08:56:30Z</time>
      </trkpt>
      <trkpt lat="43.82794" lon="5.61319">
        <ele>701.8</ele>
        <time>2022-08-24T08:56:31Z</time>
      </trkpt>
      <trkpt lat="43.82791" lon="5.6133">
        <ele>702.4</ele>
        <time>2022-08-24T08:56:33Z</time>
      </trkpt>
      <trkpt lat="43.82789" lon="5.61341">
        <ele>702.9</ele>
        <time>2022-08-24T08:56:35Z</time>
      </trkpt>
      <trkpt lat="43.82789" lon="5.61351">
        <ele>703.2</ele>
        <time>2022-08-24T08:56:37Z</time>
      </trkpt>
      <trkpt lat="43.82787" lon="5.6136">
        <ele>703.7</ele>
        <time>2022-08-24T08:56:39Z</time>
      </trkpt>
      <trkpt lat="43.82785" lon="5.6137">
        <ele>704.2</ele>
        <time>2022-08-24T08:56:41Z</time>
      </trkpt>
      <trkpt lat="43.82784" lon="5.61381">
        <ele>704.7</ele>
        <time>2022-08-24T08:56:43Z</time>
      </trkpt>
      <trkpt lat="43.82782" lon="5.61391">
        <ele>705.2</ele>
        <time>2022-08-24T08:56:45Z</time>
      </trkpt>
      <trkpt lat="43.82781" lon="5.614">
        <ele>705.3</ele>
        <time>2022-08-24T08:56:47Z</time>
      </trkpt>
      <trkpt lat="43.8278" lon="5.6141">
        <ele>705.6</ele>
        <time>2022-08-24T08:56:49Z</time>
      </trkpt>
      <trkpt lat="43.82777" lon="5.61419">
        <ele>706.1</ele>
        <time>2022-08-24T08:56:51Z</time>
      </trkpt>
      <trkpt lat="43.82775" lon="5.61428">
        <ele>706.6</ele>
        <time>2022-08-24T08:56:53Z</time>
      </trkpt>
      <trkpt lat="43.82773" lon="5.61437">
        <ele>706.9</ele>
        <time>2022-08-24T08:56:55Z</time>
      </trkpt>
      <trkpt lat="43.82771" lon="5.61445">
        <ele>707.5</ele>
        <time>2022-08-24T08:56:57Z</time>
      </trkpt>
      <trkpt lat="43.82768" lon="5.61455">
        <ele>708</ele>
        <time>2022-08-24T08:56:59Z</time>
      </trkpt>
      <trkpt lat="43.82765" lon="5.61465">
        <ele>708.4</ele>
        <time>2022-08-24T08:57:01Z</time>
      </trkpt>
      <trkpt lat="43.82763" lon="5.61475">
        <ele>708.7</ele>
        <time>2022-08-24T08:57:03Z</time>
      </trkpt>
      <trkpt lat="43.8276" lon="5.61484">
        <ele>709</ele>
        <time>2022-08-24T08:57:05Z</time>
      </trkpt>
      <trkpt lat="43.82756" lon="5.61492">
        <ele>709.8</ele>
        <time>2022-08-24T08:57:07Z</time>
      </trkpt>
      <trkpt lat="43.82751" lon="5.61499">
        <ele>710.8</ele>
        <time>2022-08-24T08:57:09Z</time>
      </trkpt>
      <trkpt lat="43.82747" lon="5.61507">
        <ele>711</ele>
        <time>2022-08-24T08:57:11Z</time>
      </trkpt>
      <trkpt lat="43.82741" lon="5.61513">
        <ele>711.4</ele>
        <time>2022-08-24T08:57:13Z</time>
      </trkpt>
      <trkpt lat="43.82735" lon="5.61519">
        <ele>711.8</ele>
        <time>2022-08-24T08:57:15Z</time>
      </trkpt>
      <trkpt lat="43.82729" lon="5.61523">
        <ele>712.3</ele>
        <time>2022-08-24T08:57:17Z</time>
      </trkpt>
      <trkpt lat="43.82722" lon="5.61528">
        <ele>713</ele>
        <time>2022-08-24T08:57:19Z</time>
      </trkpt>
      <trkpt lat="43.82717" lon="5.61533">
        <ele>713.5</ele>
        <time>2022-08-24T08:57:21Z</time>
      </trkpt>
      <trkpt lat="43.82712" lon="5.61539">
        <ele>714</ele>
        <time>2022-08-24T08:57:23Z</time>
      </trkpt>
      <trkpt lat="43.82705" lon="5.61542">
        <ele>714.7</ele>
        <time>2022-08-24T08:57:25Z</time>
      </trkpt>
      <trkpt lat="43.82699" lon="5.61545">
        <ele>715.2</ele>
        <time>2022-08-24T08:57:27Z</time>
      </trkpt>
      <trkpt lat="43.82691" lon="5.61547">
        <ele>715.8</ele>
        <time>2022-08-24T08:57:29Z</time>
      </trkpt>
      <trkpt lat="43.82684" lon="5.61549">
        <ele>716.1</ele>
        <time>2022-08-24T08:57:31Z</time>
      </trkpt>
      <trkpt lat="43.82678" lon="5.61553">
        <ele>716.3</ele>
        <time>2022-08-24T08:57:33Z</time>
      </trkpt>
      <trkpt lat="43.82672" lon="5.61558">
        <ele>716.5</ele>
        <time>2022-08-24T08:57:35Z</time>
      </trkpt>
      <trkpt lat="43.82667" lon="5.61562">
        <ele>716.7</ele>
        <time>2022-08-24T08:57:37Z</time>
      </trkpt>
      <trkpt lat="43.82661" lon="5.61567">
        <ele>716.6</ele>
        <time>2022-08-24T08:57:39Z</time>
      </trkpt>
      <trkpt lat="43.82654" lon="5.61572">
        <ele>716.8</ele>
        <time>2022-08-24T08:57:41Z</time>
      </trkpt>
      <trkpt lat="43.82648" lon="5.61575">
        <ele>717.1</ele>
        <time>2022-08-24T08:57:43Z</time>
      </trkpt>
      <trkpt lat="43.82641" lon="5.61578">
        <ele>717.5</ele>
        <time>2022-08-24T08:57:45Z</time>
      </trkpt>
      <trkpt lat="43.82634" lon="5.61582">
        <ele>717</ele>
        <time>2022-08-24T08:57:47Z</time>
      </trkpt>
      <trkpt lat="43.82627" lon="5.61586">
        <ele>716</ele>
        <time>2022-08-24T08:57:49Z</time>
      </trkpt>
      <trkpt lat="43.82619" lon="5.6159">
        <ele>715.3</ele>
        <time>2022-08-24T08:57:51Z</time>
      </trkpt>
      <trkpt lat="43.82612" lon="5.61596">
        <ele>715.3</ele>
        <time>2022-08-24T08:57:53Z</time>
      </trkpt>
      <trkpt lat="43.82606" lon="5.61603">
        <ele>714.1</ele>
        <time>2022-08-24T08:57:55Z</time>
      </trkpt>
      <trkpt lat="43.82599" lon="5.6161">
        <ele>712.6</ele>
        <time>2022-08-24T08:57:57Z</time>
      </trkpt>
      <trkpt lat="43.82597" lon="5.61616">
        <ele>712.3</ele>
        <time>2022-08-24T08:57:58Z</time>
      </trkpt>
      <trkpt lat="43.82594" lon="5.61621">
        <ele>712.1</ele>
        <time>2022-08-24T08:57:59Z</time>
      </trkpt>
      <trkpt lat="43.82591" lon="5.61631">
        <ele>712.2</ele>
        <time>2022-08-24T08:58:01Z</time>
      </trkpt>
      <trkpt lat="43.82589" lon="5.61642">
        <ele>712.8</ele>
        <time>2022-08-24T08:58:03Z</time>
      </trkpt>
      <trkpt lat="43.82587" lon="5.61649">
        <ele>712.8</ele>
        <time>2022-08-24T08:58:04Z</time>
      </trkpt>
      <trkpt lat="43.82586" lon="5.61657">
        <ele>713</ele>
        <time>2022-08-24T08:58:05Z</time>
      </trkpt>
      <trkpt lat="43.82584" lon="5.61665">
        <ele>713</ele>
        <time>2022-08-24T08:58:06Z</time>
      </trkpt>
      <trkpt lat="43.82582" lon="5.61672">
        <ele>712.5</ele>
        <time>2022-08-24T08:58:07Z</time>
      </trkpt>
      <trkpt lat="43.82579" lon="5.61681">
        <ele>711</ele>
        <time>2022-08-24T08:58:08Z</time>
      </trkpt>
      <trkpt lat="43.82576" lon="5.6169">
        <ele>709.6</ele>
        <time>2022-08-24T08:58:09Z</time>
      </trkpt>
      <trkpt lat="43.82575" lon="5.617">
        <ele>709.3</ele>
        <time>2022-08-24T08:58:10Z</time>
      </trkpt>
      <trkpt lat="43.82573" lon="5.61709">
        <ele>707.7</ele>
        <time>2022-08-24T08:58:11Z</time>
      </trkpt>
      <trkpt lat="43.82573" lon="5.61719">
        <ele>707.7</ele>
        <time>2022-08-24T08:58:12Z</time>
      </trkpt>
      <trkpt lat="43.82575" lon="5.61728">
        <ele>707.7</ele>
        <time>2022-08-24T08:58:13Z</time>
      </trkpt>
      <trkpt lat="43.82576" lon="5.61738">
        <ele>706.6</ele>
        <time>2022-08-24T08:58:14Z</time>
      </trkpt>
      <trkpt lat="43.82578" lon="5.61748">
        <ele>705.4</ele>
        <time>2022-08-24T08:58:15Z</time>
      </trkpt>
      <trkpt lat="43.82581" lon="5.61759">
        <ele>705.6</ele>
        <time>2022-08-24T08:58:16Z</time>
      </trkpt>
      <trkpt lat="43.82582" lon="5.61768">
        <ele>705.1</ele>
        <time>2022-08-24T08:58:17Z</time>
      </trkpt>
      <trkpt lat="43.82583" lon="5.61774">
        <ele>705.2</ele>
        <time>2022-08-24T08:58:18Z</time>
      </trkpt>
      <trkpt lat="43.82588" lon="5.61778">
        <ele>704.3</ele>
        <time>2022-08-24T08:58:20Z</time>
      </trkpt>
      <trkpt lat="43.82595" lon="5.61775">
        <ele>703.6</ele>
        <time>2022-08-24T08:58:22Z</time>
      </trkpt>
      <trkpt lat="43.82603" lon="5.61768">
        <ele>703.5</ele>
        <time>2022-08-24T08:58:24Z</time>
      </trkpt>
      <trkpt lat="43.82608" lon="5.61766">
        <ele>703.2</ele>
        <time>2022-08-24T08:58:25Z</time>
      </trkpt>
      <trkpt lat="43.82612" lon="5.61762">
        <ele>703</ele>
        <time>2022-08-24T08:58:26Z</time>
      </trkpt>
      <trkpt lat="43.82618" lon="5.61759">
        <ele>701.9</ele>
        <time>2022-08-24T08:58:27Z</time>
      </trkpt>
      <trkpt lat="43.82621" lon="5.61753">
        <ele>702</ele>
        <time>2022-08-24T08:58:28Z</time>
      </trkpt>
      <trkpt lat="43.82626" lon="5.61749">
        <ele>701.5</ele>
        <time>2022-08-24T08:58:29Z</time>
      </trkpt>
      <trkpt lat="43.82631" lon="5.61745">
        <ele>700.9</ele>
        <time>2022-08-24T08:58:30Z</time>
      </trkpt>
      <trkpt lat="43.82636" lon="5.61738">
        <ele>700.9</ele>
        <time>2022-08-24T08:58:31Z</time>
      </trkpt>
      <trkpt lat="43.82641" lon="5.61733">
        <ele>700.6</ele>
        <time>2022-08-24T08:58:32Z</time>
      </trkpt>
      <trkpt lat="43.82646" lon="5.61727">
        <ele>700</ele>
        <time>2022-08-24T08:58:33Z</time>
      </trkpt>
      <trkpt lat="43.82652" lon="5.61722">
        <ele>698.9</ele>
        <time>2022-08-24T08:58:34Z</time>
      </trkpt>
      <trkpt lat="43.8266" lon="5.61719">
        <ele>696.8</ele>
        <time>2022-08-24T08:58:35Z</time>
      </trkpt>
      <trkpt lat="43.82668" lon="5.61715">
        <ele>695.1</ele>
        <time>2022-08-24T08:58:36Z</time>
      </trkpt>
      <trkpt lat="43.82674" lon="5.6171">
        <ele>694.5</ele>
        <time>2022-08-24T08:58:37Z</time>
      </trkpt>
      <trkpt lat="43.82681" lon="5.61705">
        <ele>693.9</ele>
        <time>2022-08-24T08:58:38Z</time>
      </trkpt>
      <trkpt lat="43.8269" lon="5.61702">
        <ele>691.7</ele>
        <time>2022-08-24T08:58:39Z</time>
      </trkpt>
      <trkpt lat="43.82699" lon="5.61698">
        <ele>690.4</ele>
        <time>2022-08-24T08:58:40Z</time>
      </trkpt>
      <trkpt lat="43.82707" lon="5.6169">
        <ele>690.2</ele>
        <time>2022-08-24T08:58:41Z</time>
      </trkpt>
      <trkpt lat="43.82717" lon="5.61688">
        <ele>688.6</ele>
        <time>2022-08-24T08:58:42Z</time>
      </trkpt>
      <trkpt lat="43.82724" lon="5.61682">
        <ele>688.4</ele>
        <time>2022-08-24T08:58:43Z</time>
      </trkpt>
      <trkpt lat="43.82732" lon="5.61677">
        <ele>687.9</ele>
        <time>2022-08-24T08:58:44Z</time>
      </trkpt>
      <trkpt lat="43.82743" lon="5.61674">
        <ele>686.6</ele>
        <time>2022-08-24T08:58:45Z</time>
      </trkpt>
      <trkpt lat="43.82751" lon="5.6167">
        <ele>686</ele>
        <time>2022-08-24T08:58:46Z</time>
      </trkpt>
      <trkpt lat="43.82761" lon="5.61666">
        <ele>685.2</ele>
        <time>2022-08-24T08:58:47Z</time>
      </trkpt>
      <trkpt lat="43.82768" lon="5.61662">
        <ele>684.6</ele>
        <time>2022-08-24T08:58:48Z</time>
      </trkpt>
      <trkpt lat="43.82775" lon="5.61658">
        <ele>684.1</ele>
        <time>2022-08-24T08:58:49Z</time>
      </trkpt>
      <trkpt lat="43.82783" lon="5.61653">
        <ele>683.6</ele>
        <time>2022-08-24T08:58:50Z</time>
      </trkpt>
      <trkpt lat="43.82792" lon="5.6165">
        <ele>682.8</ele>
        <time>2022-08-24T08:58:51Z</time>
      </trkpt>
      <trkpt lat="43.82798" lon="5.61645">
        <ele>682.7</ele>
        <time>2022-08-24T08:58:52Z</time>
      </trkpt>
      <trkpt lat="43.82807" lon="5.61642">
        <ele>682.2</ele>
        <time>2022-08-24T08:58:53Z</time>
      </trkpt>
      <trkpt lat="43.82815" lon="5.61637">
        <ele>681.9</ele>
        <time>2022-08-24T08:58:54Z</time>
      </trkpt>
      <trkpt lat="43.82824" lon="5.61634">
        <ele>681</ele>
        <time>2022-08-24T08:58:55Z</time>
      </trkpt>
      <trkpt lat="43.82833" lon="5.61632">
        <ele>680.1</ele>
        <time>2022-08-24T08:58:56Z</time>
      </trkpt>
      <trkpt lat="43.82843" lon="5.61628">
        <ele>679.3</ele>
        <time>2022-08-24T08:58:57Z</time>
      </trkpt>
      <trkpt lat="43.8285" lon="5.61622">
        <ele>679.1</ele>
        <time>2022-08-24T08:58:58Z</time>
      </trkpt>
      <trkpt lat="43.82859" lon="5.61616">
        <ele>678.6</ele>
        <time>2022-08-24T08:58:59Z</time>
      </trkpt>
      <trkpt lat="43.82866" lon="5.61609">
        <ele>678.4</ele>
        <time>2022-08-24T08:59:00Z</time>
      </trkpt>
      <trkpt lat="43.82874" lon="5.61604">
        <ele>677.4</ele>
        <time>2022-08-24T08:59:01Z</time>
      </trkpt>
      <trkpt lat="43.82884" lon="5.61599">
        <ele>676.3</ele>
        <time>2022-08-24T08:59:02Z</time>
      </trkpt>
      <trkpt lat="43.82893" lon="5.61595">
        <ele>675.3</ele>
        <time>2022-08-24T08:59:03Z</time>
      </trkpt>
      <trkpt lat="43.82901" lon="5.61589">
        <ele>674.8</ele>
        <time>2022-08-24T08:59:04Z</time>
      </trkpt>
      <trkpt lat="43.82912" lon="5.61589">
        <ele>673.3</ele>
        <time>2022-08-24T08:59:05Z</time>
      </trkpt>
      <trkpt lat="43.82923" lon="5.61589">
        <ele>672.1</ele>
        <time>2022-08-24T08:59:06Z</time>
      </trkpt>
      <trkpt lat="43.82931" lon="5.61592">
        <ele>671.2</ele>
        <time>2022-08-24T08:59:07Z</time>
      </trkpt>
      <trkpt lat="43.82938" lon="5.61597">
        <ele>670.4</ele>
        <time>2022-08-24T08:59:08Z</time>
      </trkpt>
      <trkpt lat="43.82945" lon="5.61607">
        <ele>669.9</ele>
        <time>2022-08-24T08:59:09Z</time>
      </trkpt>
      <trkpt lat="43.82948" lon="5.61616">
        <ele>669.8</ele>
        <time>2022-08-24T08:59:10Z</time>
      </trkpt>
      <trkpt lat="43.8295" lon="5.61626">
        <ele>669.8</ele>
        <time>2022-08-24T08:59:11Z</time>
      </trkpt>
      <trkpt lat="43.82953" lon="5.61634">
        <ele>669.9</ele>
        <time>2022-08-24T08:59:12Z</time>
      </trkpt>
      <trkpt lat="43.82955" lon="5.61643">
        <ele>670.1</ele>
        <time>2022-08-24T08:59:13Z</time>
      </trkpt>
      <trkpt lat="43.82957" lon="5.61651">
        <ele>670.2</ele>
        <time>2022-08-24T08:59:14Z</time>
      </trkpt>
      <trkpt lat="43.82959" lon="5.61659">
        <ele>670.4</ele>
        <time>2022-08-24T08:59:15Z</time>
      </trkpt>
      <trkpt lat="43.82961" lon="5.61667">
        <ele>670.6</ele>
        <time>2022-08-24T08:59:16Z</time>
      </trkpt>
      <trkpt lat="43.82964" lon="5.61674">
        <ele>670.9</ele>
        <time>2022-08-24T08:59:17Z</time>
      </trkpt>
      <trkpt lat="43.82965" lon="5.6168">
        <ele>671.2</ele>
        <time>2022-08-24T08:59:18Z</time>
      </trkpt>
      <trkpt lat="43.82967" lon="5.61686">
        <ele>671.5</ele>
        <time>2022-08-24T08:59:19Z</time>
      </trkpt>
      <trkpt lat="43.82969" lon="5.61692">
        <ele>671.8</ele>
        <time>2022-08-24T08:59:20Z</time>
      </trkpt>
      <trkpt lat="43.8297" lon="5.61701">
        <ele>671.9</ele>
        <time>2022-08-24T08:59:22Z</time>
      </trkpt>
      <trkpt lat="43.82974" lon="5.61711">
        <ele>672</ele>
        <time>2022-08-24T08:59:24Z</time>
      </trkpt>
      <trkpt lat="43.82978" lon="5.61722">
        <ele>672</ele>
        <time>2022-08-24T08:59:26Z</time>
      </trkpt>
      <trkpt lat="43.82979" lon="5.61728">
        <ele>671.8</ele>
        <time>2022-08-24T08:59:27Z</time>
      </trkpt>
      <trkpt lat="43.82983" lon="5.61739">
        <ele>671.6</ele>
        <time>2022-08-24T08:59:29Z</time>
      </trkpt>
      <trkpt lat="43.82986" lon="5.6175">
        <ele>671.5</ele>
        <time>2022-08-24T08:59:31Z</time>
      </trkpt>
      <trkpt lat="43.82988" lon="5.61757">
        <ele>671.4</ele>
        <time>2022-08-24T08:59:32Z</time>
      </trkpt>
      <trkpt lat="43.82989" lon="5.61769">
        <ele>671.2</ele>
        <time>2022-08-24T08:59:34Z</time>
      </trkpt>
      <trkpt lat="43.8299" lon="5.61776">
        <ele>671</ele>
        <time>2022-08-24T08:59:35Z</time>
      </trkpt>
      <trkpt lat="43.82991" lon="5.61782">
        <ele>671.2</ele>
        <time>2022-08-24T08:59:36Z</time>
      </trkpt>
      <trkpt lat="43.82995" lon="5.61794">
        <ele>671.6</ele>
        <time>2022-08-24T08:59:38Z</time>
      </trkpt>
      <trkpt lat="43.83" lon="5.61804">
        <ele>671.9</ele>
        <time>2022-08-24T08:59:40Z</time>
      </trkpt>
      <trkpt lat="43.83004" lon="5.61813">
        <ele>672.4</ele>
        <time>2022-08-24T08:59:42Z</time>
      </trkpt>
      <trkpt lat="43.83006" lon="5.61821">
        <ele>672.8</ele>
        <time>2022-08-24T08:59:44Z</time>
      </trkpt>
      <trkpt lat="43.8301" lon="5.61828">
        <ele>673</ele>
        <time>2022-08-24T08:59:46Z</time>
      </trkpt>
      <trkpt lat="43.83013" lon="5.61837">
        <ele>673.3</ele>
        <time>2022-08-24T08:59:48Z</time>
      </trkpt>
      <trkpt lat="43.83017" lon="5.61847">
        <ele>673.7</ele>
        <time>2022-08-24T08:59:50Z</time>
      </trkpt>
      <trkpt lat="43.8302" lon="5.61857">
        <ele>674.2</ele>
        <time>2022-08-24T08:59:52Z</time>
      </trkpt>
      <trkpt lat="43.83023" lon="5.61866">
        <ele>674.8</ele>
        <time>2022-08-24T08:59:54Z</time>
      </trkpt>
      <trkpt lat="43.83025" lon="5.61875">
        <ele>675.2</ele>
        <time>2022-08-24T08:59:56Z</time>
      </trkpt>
      <trkpt lat="43.83027" lon="5.61884">
        <ele>675.7</ele>
        <time>2022-08-24T08:59:58Z</time>
      </trkpt>
      <trkpt lat="43.83029" lon="5.61892">
        <ele>676.1</ele>
        <time>2022-08-24T09:00:00Z</time>
      </trkpt>
      <trkpt lat="43.83032" lon="5.61902">
        <ele>676.7</ele>
        <time>2022-08-24T09:00:02Z</time>
      </trkpt>
      <trkpt lat="43.83034" lon="5.61912">
        <ele>677.2</ele>
        <time>2022-08-24T09:00:04Z</time>
      </trkpt>
      <trkpt lat="43.83038" lon="5.61921">
        <ele>677.2</ele>
        <time>2022-08-24T09:00:06Z</time>
      </trkpt>
      <trkpt lat="43.8304" lon="5.6193">
        <ele>677.3</ele>
        <time>2022-08-24T09:00:08Z</time>
      </trkpt>
      <trkpt lat="43.83042" lon="5.6194">
        <ele>677.6</ele>
        <time>2022-08-24T09:00:10Z</time>
      </trkpt>
      <trkpt lat="43.83044" lon="5.6195">
        <ele>677.8</ele>
        <time>2022-08-24T09:00:12Z</time>
      </trkpt>
      <trkpt lat="43.83046" lon="5.6196">
        <ele>677.8</ele>
        <time>2022-08-24T09:00:14Z</time>
      </trkpt>
      <trkpt lat="43.83048" lon="5.61971">
        <ele>678</ele>
        <time>2022-08-24T09:00:16Z</time>
      </trkpt>
      <trkpt lat="43.83049" lon="5.61982">
        <ele>678.1</ele>
        <time>2022-08-24T09:00:18Z</time>
      </trkpt>
      <trkpt lat="43.83049" lon="5.61993">
        <ele>678.5</ele>
        <time>2022-08-24T09:00:20Z</time>
      </trkpt>
      <trkpt lat="43.8305" lon="5.62004">
        <ele>678.4</ele>
        <time>2022-08-24T09:00:22Z</time>
      </trkpt>
      <trkpt lat="43.83051" lon="5.62016">
        <ele>678.1</ele>
        <time>2022-08-24T09:00:24Z</time>
      </trkpt>
      <trkpt lat="43.83051" lon="5.62023">
        <ele>678.1</ele>
        <time>2022-08-24T09:00:25Z</time>
      </trkpt>
      <trkpt lat="43.8305" lon="5.6203">
        <ele>678.3</ele>
        <time>2022-08-24T09:00:26Z</time>
      </trkpt>
      <trkpt lat="43.8305" lon="5.62037">
        <ele>677.7</ele>
        <time>2022-08-24T09:00:27Z</time>
      </trkpt>
      <trkpt lat="43.8305" lon="5.62044">
        <ele>677.3</ele>
        <time>2022-08-24T09:00:28Z</time>
      </trkpt>
      <trkpt lat="43.83049" lon="5.62052">
        <ele>676.9</ele>
        <time>2022-08-24T09:00:29Z</time>
      </trkpt>
      <trkpt lat="43.83049" lon="5.6206">
        <ele>676.5</ele>
        <time>2022-08-24T09:00:30Z</time>
      </trkpt>
      <trkpt lat="43.83048" lon="5.62067">
        <ele>676.3</ele>
        <time>2022-08-24T09:00:31Z</time>
      </trkpt>
      <trkpt lat="43.83047" lon="5.62076">
        <ele>676</ele>
        <time>2022-08-24T09:00:32Z</time>
      </trkpt>
      <trkpt lat="43.83046" lon="5.62085">
        <ele>675.8</ele>
        <time>2022-08-24T09:00:33Z</time>
      </trkpt>
      <trkpt lat="43.83044" lon="5.62094">
        <ele>675.8</ele>
        <time>2022-08-24T09:00:34Z</time>
      </trkpt>
      <trkpt lat="43.83045" lon="5.62103">
        <ele>675.3</ele>
        <time>2022-08-24T09:00:35Z</time>
      </trkpt>
      <trkpt lat="43.83045" lon="5.62112">
        <ele>675</ele>
        <time>2022-08-24T09:00:36Z</time>
      </trkpt>
      <trkpt lat="43.83046" lon="5.62121">
        <ele>674.8</ele>
        <time>2022-08-24T09:00:37Z</time>
      </trkpt>
      <trkpt lat="43.83046" lon="5.6213">
        <ele>674.8</ele>
        <time>2022-08-24T09:00:38Z</time>
      </trkpt>
      <trkpt lat="43.83047" lon="5.62139">
        <ele>674.5</ele>
        <time>2022-08-24T09:00:39Z</time>
      </trkpt>
      <trkpt lat="43.83048" lon="5.62147">
        <ele>674.1</ele>
        <time>2022-08-24T09:00:40Z</time>
      </trkpt>
      <trkpt lat="43.83049" lon="5.62156">
        <ele>673.9</ele>
        <time>2022-08-24T09:00:41Z</time>
      </trkpt>
      <trkpt lat="43.8305" lon="5.62163">
        <ele>673.6</ele>
        <time>2022-08-24T09:00:42Z</time>
      </trkpt>
      <trkpt lat="43.83051" lon="5.62172">
        <ele>673.5</ele>
        <time>2022-08-24T09:00:43Z</time>
      </trkpt>
      <trkpt lat="43.83053" lon="5.62179">
        <ele>673.2</ele>
        <time>2022-08-24T09:00:44Z</time>
      </trkpt>
      <trkpt lat="43.83054" lon="5.62187">
        <ele>673.1</ele>
        <time>2022-08-24T09:00:45Z</time>
      </trkpt>
      <trkpt lat="43.83054" lon="5.62195">
        <ele>673.3</ele>
        <time>2022-08-24T09:00:46Z</time>
      </trkpt>
      <trkpt lat="43.83056" lon="5.62204">
        <ele>672.7</ele>
        <time>2022-08-24T09:00:47Z</time>
      </trkpt>
      <trkpt lat="43.83057" lon="5.62213">
        <ele>672</ele>
        <time>2022-08-24T09:00:48Z</time>
      </trkpt>
      <trkpt lat="43.83058" lon="5.62222">
        <ele>671.4</ele>
        <time>2022-08-24T09:00:49Z</time>
      </trkpt>
      <trkpt lat="43.8306" lon="5.62232">
        <ele>670.8</ele>
        <time>2022-08-24T09:00:50Z</time>
      </trkpt>
      <trkpt lat="43.8306" lon="5.62241">
        <ele>670.6</ele>
        <time>2022-08-24T09:00:51Z</time>
      </trkpt>
      <trkpt lat="43.83061" lon="5.62251">
        <ele>670.2</ele>
        <time>2022-08-24T09:00:52Z</time>
      </trkpt>
      <trkpt lat="43.83061" lon="5.6226">
        <ele>670.2</ele>
        <time>2022-08-24T09:00:53Z</time>
      </trkpt>
      <trkpt lat="43.83062" lon="5.62269">
        <ele>670</ele>
        <time>2022-08-24T09:00:54Z</time>
      </trkpt>
      <trkpt lat="43.83064" lon="5.62278">
        <ele>669.6</ele>
        <time>2022-08-24T09:00:55Z</time>
      </trkpt>
      <trkpt lat="43.83065" lon="5.62287">
        <ele>669.6</ele>
        <time>2022-08-24T09:00:56Z</time>
      </trkpt>
      <trkpt lat="43.83067" lon="5.62295">
        <ele>669.2</ele>
        <time>2022-08-24T09:00:57Z</time>
      </trkpt>
      <trkpt lat="43.83067" lon="5.62304">
        <ele>669.4</ele>
        <time>2022-08-24T09:00:58Z</time>
      </trkpt>
      <trkpt lat="43.83069" lon="5.62313">
        <ele>669.1</ele>
        <time>2022-08-24T09:00:59Z</time>
      </trkpt>
      <trkpt lat="43.8307" lon="5.62321">
        <ele>668.8</ele>
        <time>2022-08-24T09:01:00Z</time>
      </trkpt>
      <trkpt lat="43.83072" lon="5.6233">
        <ele>668.7</ele>
        <time>2022-08-24T09:01:01Z</time>
      </trkpt>
      <trkpt lat="43.83073" lon="5.62339">
        <ele>668.4</ele>
        <time>2022-08-24T09:01:02Z</time>
      </trkpt>
      <trkpt lat="43.83073" lon="5.62349">
        <ele>668.3</ele>
        <time>2022-08-24T09:01:03Z</time>
      </trkpt>
      <trkpt lat="43.83074" lon="5.62356">
        <ele>668.1</ele>
        <time>2022-08-24T09:01:04Z</time>
      </trkpt>
      <trkpt lat="43.83075" lon="5.62365">
        <ele>667.8</ele>
        <time>2022-08-24T09:01:05Z</time>
      </trkpt>
      <trkpt lat="43.83076" lon="5.62374">
        <ele>667.3</ele>
        <time>2022-08-24T09:01:06Z</time>
      </trkpt>
      <trkpt lat="43.83076" lon="5.62383">
        <ele>667</ele>
        <time>2022-08-24T09:01:07Z</time>
      </trkpt>
      <trkpt lat="43.83076" lon="5.62392">
        <ele>666.6</ele>
        <time>2022-08-24T09:01:08Z</time>
      </trkpt>
      <trkpt lat="43.83076" lon="5.62401">
        <ele>666.3</ele>
        <time>2022-08-24T09:01:09Z</time>
      </trkpt>
      <trkpt lat="43.83076" lon="5.6241">
        <ele>665.9</ele>
        <time>2022-08-24T09:01:10Z</time>
      </trkpt>
      <trkpt lat="43.83076" lon="5.62419">
        <ele>665.5</ele>
        <time>2022-08-24T09:01:11Z</time>
      </trkpt>
      <trkpt lat="43.83077" lon="5.62427">
        <ele>665.3</ele>
        <time>2022-08-24T09:01:12Z</time>
      </trkpt>
      <trkpt lat="43.8308" lon="5.62438">
        <ele>665.1</ele>
        <time>2022-08-24T09:01:13Z</time>
      </trkpt>
      <trkpt lat="43.83078" lon="5.62446">
        <ele>665</ele>
        <time>2022-08-24T09:01:14Z</time>
      </trkpt>
      <trkpt lat="43.83079" lon="5.62454">
        <ele>664.9</ele>
        <time>2022-08-24T09:01:15Z</time>
      </trkpt>
      <trkpt lat="43.83079" lon="5.62461">
        <ele>664.8</ele>
        <time>2022-08-24T09:01:16Z</time>
      </trkpt>
      <trkpt lat="43.83081" lon="5.6247">
        <ele>664.8</ele>
        <time>2022-08-24T09:01:17Z</time>
      </trkpt>
      <trkpt lat="43.83081" lon="5.62477">
        <ele>664.8</ele>
        <time>2022-08-24T09:01:18Z</time>
      </trkpt>
      <trkpt lat="43.83083" lon="5.62487">
        <ele>664.9</ele>
        <time>2022-08-24T09:01:19Z</time>
      </trkpt>
      <trkpt lat="43.83082" lon="5.62495">
        <ele>664.9</ele>
        <time>2022-08-24T09:01:20Z</time>
      </trkpt>
      <trkpt lat="43.83083" lon="5.62502">
        <ele>665.1</ele>
        <time>2022-08-24T09:01:21Z</time>
      </trkpt>
      <trkpt lat="43.83084" lon="5.62509">
        <ele>665.6</ele>
        <time>2022-08-24T09:01:22Z</time>
      </trkpt>
      <trkpt lat="43.83085" lon="5.62517">
        <ele>666.2</ele>
        <time>2022-08-24T09:01:23Z</time>
      </trkpt>
      <trkpt lat="43.83085" lon="5.62524">
        <ele>666.7</ele>
        <time>2022-08-24T09:01:24Z</time>
      </trkpt>
      <trkpt lat="43.83086" lon="5.62531">
        <ele>667</ele>
        <time>2022-08-24T09:01:25Z</time>
      </trkpt>
      <trkpt lat="43.83088" lon="5.62543">
        <ele>667.2</ele>
        <time>2022-08-24T09:01:27Z</time>
      </trkpt>
      <trkpt lat="43.83089" lon="5.62551">
        <ele>667.3</ele>
        <time>2022-08-24T09:01:28Z</time>
      </trkpt>
      <trkpt lat="43.83089" lon="5.62559">
        <ele>667.4</ele>
        <time>2022-08-24T09:01:29Z</time>
      </trkpt>
      <trkpt lat="43.8309" lon="5.62566">
        <ele>667.6</ele>
        <time>2022-08-24T09:01:30Z</time>
      </trkpt>
      <trkpt lat="43.8309" lon="5.62574">
        <ele>667.7</ele>
        <time>2022-08-24T09:01:31Z</time>
      </trkpt>
      <trkpt lat="43.83091" lon="5.62582">
        <ele>667.9</ele>
        <time>2022-08-24T09:01:32Z</time>
      </trkpt>
      <trkpt lat="43.83093" lon="5.62589">
        <ele>667.8</ele>
        <time>2022-08-24T09:01:33Z</time>
      </trkpt>
      <trkpt lat="43.83093" lon="5.62595">
        <ele>667.6</ele>
        <time>2022-08-24T09:01:34Z</time>
      </trkpt>
      <trkpt lat="43.83094" lon="5.62602">
        <ele>667.5</ele>
        <time>2022-08-24T09:01:35Z</time>
      </trkpt>
      <trkpt lat="43.83096" lon="5.62609">
        <ele>667.4</ele>
        <time>2022-08-24T09:01:36Z</time>
      </trkpt>
      <trkpt lat="43.83096" lon="5.62616">
        <ele>666.9</ele>
        <time>2022-08-24T09:01:37Z</time>
      </trkpt>
      <trkpt lat="43.83097" lon="5.62623">
        <ele>666.4</ele>
        <time>2022-08-24T09:01:38Z</time>
      </trkpt>
      <trkpt lat="43.83098" lon="5.62631">
        <ele>665.8</ele>
        <time>2022-08-24T09:01:39Z</time>
      </trkpt>
      <trkpt lat="43.83099" lon="5.6264">
        <ele>665.1</ele>
        <time>2022-08-24T09:01:40Z</time>
      </trkpt>
      <trkpt lat="43.83099" lon="5.62648">
        <ele>664.5</ele>
        <time>2022-08-24T09:01:41Z</time>
      </trkpt>
      <trkpt lat="43.83102" lon="5.62657">
        <ele>664.1</ele>
        <time>2022-08-24T09:01:42Z</time>
      </trkpt>
      <trkpt lat="43.83102" lon="5.62665">
        <ele>663.5</ele>
        <time>2022-08-24T09:01:43Z</time>
      </trkpt>
      <trkpt lat="43.83104" lon="5.62675">
        <ele>663.3</ele>
        <time>2022-08-24T09:01:44Z</time>
      </trkpt>
      <trkpt lat="43.83106" lon="5.62687">
        <ele>663.4</ele>
        <time>2022-08-24T09:01:45Z</time>
      </trkpt>
      <trkpt lat="43.83109" lon="5.62697">
        <ele>663.5</ele>
        <time>2022-08-24T09:01:46Z</time>
      </trkpt>
      <trkpt lat="43.83109" lon="5.62707">
        <ele>663.7</ele>
        <time>2022-08-24T09:01:47Z</time>
      </trkpt>
      <trkpt lat="43.83109" lon="5.62717">
        <ele>663.7</ele>
        <time>2022-08-24T09:01:48Z</time>
      </trkpt>
      <trkpt lat="43.8311" lon="5.62726">
        <ele>663.9</ele>
        <time>2022-08-24T09:01:49Z</time>
      </trkpt>
      <trkpt lat="43.8311" lon="5.62733">
        <ele>664.2</ele>
        <time>2022-08-24T09:01:50Z</time>
      </trkpt>
      <trkpt lat="43.83109" lon="5.6274">
        <ele>664.4</ele>
        <time>2022-08-24T09:01:51Z</time>
      </trkpt>
      <trkpt lat="43.83106" lon="5.62745">
        <ele>664.6</ele>
        <time>2022-08-24T09:01:52Z</time>
      </trkpt>
      <trkpt lat="43.83104" lon="5.62751">
        <ele>664.8</ele>
        <time>2022-08-24T09:01:53Z</time>
      </trkpt>
      <trkpt lat="43.831" lon="5.6276">
        <ele>665.2</ele>
        <time>2022-08-24T09:01:55Z</time>
      </trkpt>
      <trkpt lat="43.83097" lon="5.62767">
        <ele>665.7</ele>
        <time>2022-08-24T09:01:57Z</time>
      </trkpt>
      <trkpt lat="43.83091" lon="5.62772">
        <ele>666.2</ele>
        <time>2022-08-24T09:01:59Z</time>
      </trkpt>
      <trkpt lat="43.83086" lon="5.62778">
        <ele>666.9</ele>
        <time>2022-08-24T09:02:01Z</time>
      </trkpt>
      <trkpt lat="43.8308" lon="5.62779">
        <ele>667.3</ele>
        <time>2022-08-24T09:02:03Z</time>
      </trkpt>
      <trkpt lat="43.83074" lon="5.62781">
        <ele>667.9</ele>
        <time>2022-08-24T09:02:05Z</time>
      </trkpt>
      <trkpt lat="43.83068" lon="5.62782">
        <ele>668.4</ele>
        <time>2022-08-24T09:02:07Z</time>
      </trkpt>
      <trkpt lat="43.83062" lon="5.62783">
        <ele>668.9</ele>
        <time>2022-08-24T09:02:09Z</time>
      </trkpt>
      <trkpt lat="43.83056" lon="5.62784">
        <ele>669.5</ele>
        <time>2022-08-24T09:02:11Z</time>
      </trkpt>
      <trkpt lat="43.83049" lon="5.62786">
        <ele>669.6</ele>
        <time>2022-08-24T09:02:13Z</time>
      </trkpt>
      <trkpt lat="43.83044" lon="5.62788">
        <ele>669.9</ele>
        <time>2022-08-24T09:02:15Z</time>
      </trkpt>
      <trkpt lat="43.83038" lon="5.62791">
        <ele>670.3</ele>
        <time>2022-08-24T09:02:17Z</time>
      </trkpt>
      <trkpt lat="43.83033" lon="5.62794">
        <ele>670.7</ele>
        <time>2022-08-24T09:02:19Z</time>
      </trkpt>
      <trkpt lat="43.83027" lon="5.62797">
        <ele>671</ele>
        <time>2022-08-24T09:02:21Z</time>
      </trkpt>
      <trkpt lat="43.83022" lon="5.62802">
        <ele>671.3</ele>
        <time>2022-08-24T09:02:23Z</time>
      </trkpt>
      <trkpt lat="43.83018" lon="5.62807">
        <ele>671.8</ele>
        <time>2022-08-24T09:02:25Z</time>
      </trkpt>
      <trkpt lat="43.83014" lon="5.62813">
        <ele>672.2</ele>
        <time>2022-08-24T09:02:27Z</time>
      </trkpt>
      <trkpt lat="43.83011" lon="5.62819">
        <ele>672.7</ele>
        <time>2022-08-24T09:02:29Z</time>
      </trkpt>
      <trkpt lat="43.83006" lon="5.62825">
        <ele>673.2</ele>
        <time>2022-08-24T09:02:31Z</time>
      </trkpt>
      <trkpt lat="43.83003" lon="5.6283">
        <ele>673.7</ele>
        <time>2022-08-24T09:02:33Z</time>
      </trkpt>
      <trkpt lat="43.82999" lon="5.62836">
        <ele>674.1</ele>
        <time>2022-08-24T09:02:35Z</time>
      </trkpt>
      <trkpt lat="43.82995" lon="5.6284">
        <ele>674.1</ele>
        <time>2022-08-24T09:02:37Z</time>
      </trkpt>
      <trkpt lat="43.82991" lon="5.62847">
        <ele>674.4</ele>
        <time>2022-08-24T09:02:39Z</time>
      </trkpt>
      <trkpt lat="43.82987" lon="5.62852">
        <ele>674.8</ele>
        <time>2022-08-24T09:02:41Z</time>
      </trkpt>
      <trkpt lat="43.82983" lon="5.62858">
        <ele>675.2</ele>
        <time>2022-08-24T09:02:43Z</time>
      </trkpt>
      <trkpt lat="43.82979" lon="5.62863">
        <ele>675.8</ele>
        <time>2022-08-24T09:02:45Z</time>
      </trkpt>
      <trkpt lat="43.82974" lon="5.6287">
        <ele>676.4</ele>
        <time>2022-08-24T09:02:47Z</time>
      </trkpt>
      <trkpt lat="43.8297" lon="5.62877">
        <ele>677</ele>
        <time>2022-08-24T09:02:49Z</time>
      </trkpt>
      <trkpt lat="43.82967" lon="5.62883">
        <ele>677.5</ele>
        <time>2022-08-24T09:02:51Z</time>
      </trkpt>
      <trkpt lat="43.82962" lon="5.62888">
        <ele>677.7</ele>
        <time>2022-08-24T09:02:53Z</time>
      </trkpt>
      <trkpt lat="43.82958" lon="5.62894">
        <ele>678.2</ele>
        <time>2022-08-24T09:02:55Z</time>
      </trkpt>
      <trkpt lat="43.82954" lon="5.62901">
        <ele>678.9</ele>
        <time>2022-08-24T09:02:57Z</time>
      </trkpt>
      <trkpt lat="43.82949" lon="5.62906">
        <ele>679.4</ele>
        <time>2022-08-24T09:02:59Z</time>
      </trkpt>
      <trkpt lat="43.82945" lon="5.62912">
        <ele>680.2</ele>
        <time>2022-08-24T09:03:01Z</time>
      </trkpt>
      <trkpt lat="43.82941" lon="5.62919">
        <ele>681</ele>
        <time>2022-08-24T09:03:03Z</time>
      </trkpt>
      <trkpt lat="43.82937" lon="5.62926">
        <ele>681.7</ele>
        <time>2022-08-24T09:03:05Z</time>
      </trkpt>
      <trkpt lat="43.82929" lon="5.62939">
        <ele>683.2</ele>
        <time>2022-08-24T09:03:09Z</time>
      </trkpt>
      <trkpt lat="43.82924" lon="5.62945">
        <ele>683.8</ele>
        <time>2022-08-24T09:03:11Z</time>
      </trkpt>
      <trkpt lat="43.82919" lon="5.6295">
        <ele>684.1</ele>
        <time>2022-08-24T09:03:13Z</time>
      </trkpt>
      <trkpt lat="43.82915" lon="5.62956">
        <ele>684.4</ele>
        <time>2022-08-24T09:03:15Z</time>
      </trkpt>
      <trkpt lat="43.8291" lon="5.62962">
        <ele>684.5</ele>
        <time>2022-08-24T09:03:17Z</time>
      </trkpt>
      <trkpt lat="43.82905" lon="5.62969">
        <ele>684.8</ele>
        <time>2022-08-24T09:03:19Z</time>
      </trkpt>
      <trkpt lat="43.82901" lon="5.62975">
        <ele>685.2</ele>
        <time>2022-08-24T09:03:21Z</time>
      </trkpt>
      <trkpt lat="43.82898" lon="5.62982">
        <ele>685.9</ele>
        <time>2022-08-24T09:03:23Z</time>
      </trkpt>
      <trkpt lat="43.82895" lon="5.62988">
        <ele>686.5</ele>
        <time>2022-08-24T09:03:25Z</time>
      </trkpt>
      <trkpt lat="43.82892" lon="5.62994">
        <ele>687.4</ele>
        <time>2022-08-24T09:03:27Z</time>
      </trkpt>
      <trkpt lat="43.82889" lon="5.63001">
        <ele>688.2</ele>
        <time>2022-08-24T09:03:29Z</time>
      </trkpt>
      <trkpt lat="43.82886" lon="5.63008">
        <ele>689.2</ele>
        <time>2022-08-24T09:03:31Z</time>
      </trkpt>
      <trkpt lat="43.82882" lon="5.63015">
        <ele>690.3</ele>
        <time>2022-08-24T09:03:33Z</time>
      </trkpt>
      <trkpt lat="43.8288" lon="5.63022">
        <ele>691.2</ele>
        <time>2022-08-24T09:03:35Z</time>
      </trkpt>
      <trkpt lat="43.82876" lon="5.63028">
        <ele>692</ele>
        <time>2022-08-24T09:03:37Z</time>
      </trkpt>
      <trkpt lat="43.82871" lon="5.63032">
        <ele>692.6</ele>
        <time>2022-08-24T09:03:39Z</time>
      </trkpt>
      <trkpt lat="43.82864" lon="5.63032">
        <ele>692.6</ele>
        <time>2022-08-24T09:03:41Z</time>
      </trkpt>
      <trkpt lat="43.82859" lon="5.63028">
        <ele>692.4</ele>
        <time>2022-08-24T09:03:43Z</time>
      </trkpt>
      <trkpt lat="43.82854" lon="5.63023">
        <ele>693</ele>
        <time>2022-08-24T09:03:45Z</time>
      </trkpt>
      <trkpt lat="43.82848" lon="5.63018">
        <ele>693.5</ele>
        <time>2022-08-24T09:03:47Z</time>
      </trkpt>
      <trkpt lat="43.82845" lon="5.63015">
        <ele>693.9</ele>
        <time>2022-08-24T09:03:49Z</time>
      </trkpt>
      <trkpt lat="43.82839" lon="5.63011">
        <ele>694.4</ele>
        <time>2022-08-24T09:03:51Z</time>
      </trkpt>
      <trkpt lat="43.82833" lon="5.63007">
        <ele>695.1</ele>
        <time>2022-08-24T09:03:53Z</time>
      </trkpt>
      <trkpt lat="43.82827" lon="5.63003">
        <ele>695.8</ele>
        <time>2022-08-24T09:03:55Z</time>
      </trkpt>
      <trkpt lat="43.82822" lon="5.62999">
        <ele>696.5</ele>
        <time>2022-08-24T09:03:57Z</time>
      </trkpt>
      <trkpt lat="43.82817" lon="5.62994">
        <ele>697.3</ele>
        <time>2022-08-24T09:03:59Z</time>
      </trkpt>
      <trkpt lat="43.82813" lon="5.62987">
        <ele>697.8</ele>
        <time>2022-08-24T09:04:01Z</time>
      </trkpt>
      <trkpt lat="43.82811" lon="5.62978">
        <ele>698</ele>
        <time>2022-08-24T09:04:03Z</time>
      </trkpt>
      <trkpt lat="43.82809" lon="5.6297">
        <ele>698.1</ele>
        <time>2022-08-24T09:04:05Z</time>
      </trkpt>
      <trkpt lat="43.82809" lon="5.62962">
        <ele>698.5</ele>
        <time>2022-08-24T09:04:07Z</time>
      </trkpt>
      <trkpt lat="43.82808" lon="5.62953">
        <ele>699.2</ele>
        <time>2022-08-24T09:04:09Z</time>
      </trkpt>
      <trkpt lat="43.82806" lon="5.62944">
        <ele>699.8</ele>
        <time>2022-08-24T09:04:11Z</time>
      </trkpt>
      <trkpt lat="43.82805" lon="5.62935">
        <ele>700.1</ele>
        <time>2022-08-24T09:04:13Z</time>
      </trkpt>
      <trkpt lat="43.82803" lon="5.62926">
        <ele>700.6</ele>
        <time>2022-08-24T09:04:15Z</time>
      </trkpt>
      <trkpt lat="43.82802" lon="5.62918">
        <ele>700.8</ele>
        <time>2022-08-24T09:04:17Z</time>
      </trkpt>
      <trkpt lat="43.828" lon="5.62908">
        <ele>701.2</ele>
        <time>2022-08-24T09:04:19Z</time>
      </trkpt>
      <trkpt lat="43.82798" lon="5.629">
        <ele>701.6</ele>
        <time>2022-08-24T09:04:21Z</time>
      </trkpt>
      <trkpt lat="43.82796" lon="5.62891">
        <ele>702.1</ele>
        <time>2022-08-24T09:04:23Z</time>
      </trkpt>
      <trkpt lat="43.82793" lon="5.62883">
        <ele>702.4</ele>
        <time>2022-08-24T09:04:25Z</time>
      </trkpt>
      <trkpt lat="43.8279" lon="5.62877">
        <ele>702.8</ele>
        <time>2022-08-24T09:04:27Z</time>
      </trkpt>
      <trkpt lat="43.82787" lon="5.62871">
        <ele>703.2</ele>
        <time>2022-08-24T09:04:29Z</time>
      </trkpt>
      <trkpt lat="43.82782" lon="5.62867">
        <ele>703.7</ele>
        <time>2022-08-24T09:04:31Z</time>
      </trkpt>
      <trkpt lat="43.82776" lon="5.62864">
        <ele>704.2</ele>
        <time>2022-08-24T09:04:33Z</time>
      </trkpt>
      <trkpt lat="43.82769" lon="5.62863">
        <ele>704.4</ele>
        <time>2022-08-24T09:04:35Z</time>
      </trkpt>
      <trkpt lat="43.82763" lon="5.62864">
        <ele>704.7</ele>
        <time>2022-08-24T09:04:37Z</time>
      </trkpt>
      <trkpt lat="43.82756" lon="5.62866">
        <ele>705.2</ele>
        <time>2022-08-24T09:04:39Z</time>
      </trkpt>
      <trkpt lat="43.8275" lon="5.62868">
        <ele>705.8</ele>
        <time>2022-08-24T09:04:41Z</time>
      </trkpt>
      <trkpt lat="43.82745" lon="5.62873">
        <ele>706.3</ele>
        <time>2022-08-24T09:04:43Z</time>
      </trkpt>
      <trkpt lat="43.82739" lon="5.62877">
        <ele>707</ele>
        <time>2022-08-24T09:04:45Z</time>
      </trkpt>
      <trkpt lat="43.82733" lon="5.62882">
        <ele>707.7</ele>
        <time>2022-08-24T09:04:47Z</time>
      </trkpt>
      <trkpt lat="43.82727" lon="5.62886">
        <ele>708.4</ele>
        <time>2022-08-24T09:04:49Z</time>
      </trkpt>
      <trkpt lat="43.82722" lon="5.6289">
        <ele>709.1</ele>
        <time>2022-08-24T09:04:51Z</time>
      </trkpt>
      <trkpt lat="43.82716" lon="5.62893">
        <ele>709.7</ele>
        <time>2022-08-24T09:04:53Z</time>
      </trkpt>
      <trkpt lat="43.8271" lon="5.62896">
        <ele>710.2</ele>
        <time>2022-08-24T09:04:55Z</time>
      </trkpt>
      <trkpt lat="43.82703" lon="5.62899">
        <ele>710.7</ele>
        <time>2022-08-24T09:04:57Z</time>
      </trkpt>
      <trkpt lat="43.82698" lon="5.629">
        <ele>711.1</ele>
        <time>2022-08-24T09:04:59Z</time>
      </trkpt>
      <trkpt lat="43.82692" lon="5.62902">
        <ele>711.6</ele>
        <time>2022-08-24T09:05:01Z</time>
      </trkpt>
      <trkpt lat="43.82686" lon="5.62902">
        <ele>712.2</ele>
        <time>2022-08-24T09:05:03Z</time>
      </trkpt>
      <trkpt lat="43.8268" lon="5.62903">
        <ele>712.8</ele>
        <time>2022-08-24T09:05:05Z</time>
      </trkpt>
      <trkpt lat="43.82674" lon="5.62902">
        <ele>713.3</ele>
        <time>2022-08-24T09:05:07Z</time>
      </trkpt>
      <trkpt lat="43.82667" lon="5.629">
        <ele>713.8</ele>
        <time>2022-08-24T09:05:09Z</time>
      </trkpt>
      <trkpt lat="43.82661" lon="5.62898">
        <ele>714.1</ele>
        <time>2022-08-24T09:05:11Z</time>
      </trkpt>
      <trkpt lat="43.82654" lon="5.62896">
        <ele>714.4</ele>
        <time>2022-08-24T09:05:13Z</time>
      </trkpt>
      <trkpt lat="43.82647" lon="5.62894">
        <ele>714.8</ele>
        <time>2022-08-24T09:05:15Z</time>
      </trkpt>
      <trkpt lat="43.82641" lon="5.62894">
        <ele>715.2</ele>
        <time>2022-08-24T09:05:17Z</time>
      </trkpt>
      <trkpt lat="43.82635" lon="5.62896">
        <ele>715.5</ele>
        <time>2022-08-24T09:05:19Z</time>
      </trkpt>
      <trkpt lat="43.82629" lon="5.62899">
        <ele>715.8</ele>
        <time>2022-08-24T09:05:21Z</time>
      </trkpt>
      <trkpt lat="43.82623" lon="5.62903">
        <ele>716.3</ele>
        <time>2022-08-24T09:05:23Z</time>
      </trkpt>
      <trkpt lat="43.82617" lon="5.62908">
        <ele>716.9</ele>
        <time>2022-08-24T09:05:25Z</time>
      </trkpt>
      <trkpt lat="43.82613" lon="5.62914">
        <ele>717.6</ele>
        <time>2022-08-24T09:05:27Z</time>
      </trkpt>
      <trkpt lat="43.8261" lon="5.62922">
        <ele>718.2</ele>
        <time>2022-08-24T09:05:29Z</time>
      </trkpt>
      <trkpt lat="43.82608" lon="5.62932">
        <ele>718.4</ele>
        <time>2022-08-24T09:05:31Z</time>
      </trkpt>
      <trkpt lat="43.82608" lon="5.62941">
        <ele>718.7</ele>
        <time>2022-08-24T09:05:33Z</time>
      </trkpt>
      <trkpt lat="43.82607" lon="5.62951">
        <ele>718.9</ele>
        <time>2022-08-24T09:05:35Z</time>
      </trkpt>
      <trkpt lat="43.82607" lon="5.6296">
        <ele>718.9</ele>
        <time>2022-08-24T09:05:37Z</time>
      </trkpt>
      <trkpt lat="43.82607" lon="5.6297">
        <ele>719</ele>
        <time>2022-08-24T09:05:39Z</time>
      </trkpt>
      <trkpt lat="43.82607" lon="5.62981">
        <ele>719</ele>
        <time>2022-08-24T09:05:41Z</time>
      </trkpt>
      <trkpt lat="43.82608" lon="5.62993">
        <ele>719</ele>
        <time>2022-08-24T09:05:43Z</time>
      </trkpt>
      <trkpt lat="43.82608" lon="5.63004">
        <ele>718.9</ele>
        <time>2022-08-24T09:05:45Z</time>
      </trkpt>
      <trkpt lat="43.82608" lon="5.63015">
        <ele>718.5</ele>
        <time>2022-08-24T09:05:47Z</time>
      </trkpt>
      <trkpt lat="43.82612" lon="5.63019">
        <ele>718.3</ele>
        <time>2022-08-24T09:05:48Z</time>
      </trkpt>
      <trkpt lat="43.82616" lon="5.63029">
        <ele>717.9</ele>
        <time>2022-08-24T09:05:50Z</time>
      </trkpt>
      <trkpt lat="43.8262" lon="5.63033">
        <ele>717.6</ele>
        <time>2022-08-24T09:05:51Z</time>
      </trkpt>
      <trkpt lat="43.82624" lon="5.63036">
        <ele>717.4</ele>
        <time>2022-08-24T09:05:52Z</time>
      </trkpt>
      <trkpt lat="43.82628" lon="5.63041">
        <ele>717</ele>
        <time>2022-08-24T09:05:53Z</time>
      </trkpt>
      <trkpt lat="43.82633" lon="5.63045">
        <ele>716.7</ele>
        <time>2022-08-24T09:05:54Z</time>
      </trkpt>
      <trkpt lat="43.82637" lon="5.63049">
        <ele>716.5</ele>
        <time>2022-08-24T09:05:55Z</time>
      </trkpt>
      <trkpt lat="43.82643" lon="5.63053">
        <ele>716.2</ele>
        <time>2022-08-24T09:05:56Z</time>
      </trkpt>
      <trkpt lat="43.82648" lon="5.63057">
        <ele>715.9</ele>
        <time>2022-08-24T09:05:57Z</time>
      </trkpt>
      <trkpt lat="43.82653" lon="5.6306">
        <ele>715.7</ele>
        <time>2022-08-24T09:05:58Z</time>
      </trkpt>
      <trkpt lat="43.82659" lon="5.63063">
        <ele>715.4</ele>
        <time>2022-08-24T09:05:59Z</time>
      </trkpt>
      <trkpt lat="43.82665" lon="5.63068">
        <ele>715.1</ele>
        <time>2022-08-24T09:06:00Z</time>
      </trkpt>
      <trkpt lat="43.82671" lon="5.63073">
        <ele>714.7</ele>
        <time>2022-08-24T09:06:01Z</time>
      </trkpt>
      <trkpt lat="43.82677" lon="5.63077">
        <ele>714.4</ele>
        <time>2022-08-24T09:06:02Z</time>
      </trkpt>
      <trkpt lat="43.82683" lon="5.63082">
        <ele>714.1</ele>
        <time>2022-08-24T09:06:03Z</time>
      </trkpt>
      <trkpt lat="43.82689" lon="5.63087">
        <ele>713.6</ele>
        <time>2022-08-24T09:06:04Z</time>
      </trkpt>
      <trkpt lat="43.82695" lon="5.63091">
        <ele>713.1</ele>
        <time>2022-08-24T09:06:05Z</time>
      </trkpt>
      <trkpt lat="43.82702" lon="5.63095">
        <ele>712.7</ele>
        <time>2022-08-24T09:06:06Z</time>
      </trkpt>
      <trkpt lat="43.82708" lon="5.63101">
        <ele>712.2</ele>
        <time>2022-08-24T09:06:07Z</time>
      </trkpt>
      <trkpt lat="43.82715" lon="5.63106">
        <ele>712</ele>
        <time>2022-08-24T09:06:08Z</time>
      </trkpt>
      <trkpt lat="43.82721" lon="5.63111">
        <ele>712</ele>
        <time>2022-08-24T09:06:09Z</time>
      </trkpt>
      <trkpt lat="43.82725" lon="5.63115">
        <ele>711.7</ele>
        <time>2022-08-24T09:06:10Z</time>
      </trkpt>
      <trkpt lat="43.82732" lon="5.6312">
        <ele>711.5</ele>
        <time>2022-08-24T09:06:11Z</time>
      </trkpt>
      <trkpt lat="43.82737" lon="5.63125">
        <ele>711.3</ele>
        <time>2022-08-24T09:06:12Z</time>
      </trkpt>
      <trkpt lat="43.82743" lon="5.6313">
        <ele>711.1</ele>
        <time>2022-08-24T09:06:13Z</time>
      </trkpt>
      <trkpt lat="43.82748" lon="5.63135">
        <ele>711.1</ele>
        <time>2022-08-24T09:06:14Z</time>
      </trkpt>
      <trkpt lat="43.82755" lon="5.63139">
        <ele>710.8</ele>
        <time>2022-08-24T09:06:15Z</time>
      </trkpt>
      <trkpt lat="43.8276" lon="5.63144">
        <ele>710.4</ele>
        <time>2022-08-24T09:06:16Z</time>
      </trkpt>
      <trkpt lat="43.82766" lon="5.63148">
        <ele>710.1</ele>
        <time>2022-08-24T09:06:17Z</time>
      </trkpt>
      <trkpt lat="43.82772" lon="5.63153">
        <ele>710</ele>
        <time>2022-08-24T09:06:18Z</time>
      </trkpt>
      <trkpt lat="43.82777" lon="5.63158">
        <ele>710</ele>
        <time>2022-08-24T09:06:19Z</time>
      </trkpt>
      <trkpt lat="43.82781" lon="5.63163">
        <ele>709.9</ele>
        <time>2022-08-24T09:06:20Z</time>
      </trkpt>
      <trkpt lat="43.82784" lon="5.63168">
        <ele>709.7</ele>
        <time>2022-08-24T09:06:21Z</time>
      </trkpt>
      <trkpt lat="43.82789" lon="5.63175">
        <ele>709.5</ele>
        <time>2022-08-24T09:06:22Z</time>
      </trkpt>
      <trkpt lat="43.82792" lon="5.63181">
        <ele>709.5</ele>
        <time>2022-08-24T09:06:23Z</time>
      </trkpt>
      <trkpt lat="43.82795" lon="5.63187">
        <ele>709.6</ele>
        <time>2022-08-24T09:06:24Z</time>
      </trkpt>
      <trkpt lat="43.82797" lon="5.63194">
        <ele>709.7</ele>
        <time>2022-08-24T09:06:25Z</time>
      </trkpt>
      <trkpt lat="43.828" lon="5.632">
        <ele>709.8</ele>
        <time>2022-08-24T09:06:26Z</time>
      </trkpt>
      <trkpt lat="43.82804" lon="5.63207">
        <ele>709.9</ele>
        <time>2022-08-24T09:06:27Z</time>
      </trkpt>
      <trkpt lat="43.82807" lon="5.63214">
        <ele>710</ele>
        <time>2022-08-24T09:06:28Z</time>
      </trkpt>
      <trkpt lat="43.82812" lon="5.63227">
        <ele>710.4</ele>
        <time>2022-08-24T09:06:30Z</time>
      </trkpt>
      <trkpt lat="43.82813" lon="5.63234">
        <ele>710.8</ele>
        <time>2022-08-24T09:06:31Z</time>
      </trkpt>
      <trkpt lat="43.82814" lon="5.63242">
        <ele>711.3</ele>
        <time>2022-08-24T09:06:32Z</time>
      </trkpt>
      <trkpt lat="43.82816" lon="5.63248">
        <ele>711.7</ele>
        <time>2022-08-24T09:06:33Z</time>
      </trkpt>
      <trkpt lat="43.82817" lon="5.63255">
        <ele>711.8</ele>
        <time>2022-08-24T09:06:34Z</time>
      </trkpt>
      <trkpt lat="43.82819" lon="5.63266">
        <ele>712</ele>
        <time>2022-08-24T09:06:36Z</time>
      </trkpt>
      <trkpt lat="43.8282" lon="5.63272">
        <ele>712</ele>
        <time>2022-08-24T09:06:37Z</time>
      </trkpt>
      <trkpt lat="43.82822" lon="5.63279">
        <ele>712.2</ele>
        <time>2022-08-24T09:06:38Z</time>
      </trkpt>
      <trkpt lat="43.82824" lon="5.63284">
        <ele>712.3</ele>
        <time>2022-08-24T09:06:39Z</time>
      </trkpt>
      <trkpt lat="43.82825" lon="5.63291">
        <ele>712.4</ele>
        <time>2022-08-24T09:06:40Z</time>
      </trkpt>
      <trkpt lat="43.82826" lon="5.63297">
        <ele>712.4</ele>
        <time>2022-08-24T09:06:41Z</time>
      </trkpt>
      <trkpt lat="43.82826" lon="5.63309">
        <ele>712.6</ele>
        <time>2022-08-24T09:06:43Z</time>
      </trkpt>
      <trkpt lat="43.82827" lon="5.63317">
        <ele>712.9</ele>
        <time>2022-08-24T09:06:44Z</time>
      </trkpt>
      <trkpt lat="43.82826" lon="5.63323">
        <ele>713.1</ele>
        <time>2022-08-24T09:06:45Z</time>
      </trkpt>
      <trkpt lat="43.82826" lon="5.6333">
        <ele>713.4</ele>
        <time>2022-08-24T09:06:46Z</time>
      </trkpt>
      <trkpt lat="43.82826" lon="5.6334">
        <ele>713.8</ele>
        <time>2022-08-24T09:06:48Z</time>
      </trkpt>
      <trkpt lat="43.82825" lon="5.63352">
        <ele>714.3</ele>
        <time>2022-08-24T09:06:50Z</time>
      </trkpt>
      <trkpt lat="43.82826" lon="5.63362">
        <ele>714.7</ele>
        <time>2022-08-24T09:06:52Z</time>
      </trkpt>
      <trkpt lat="43.82825" lon="5.63372">
        <ele>715.2</ele>
        <time>2022-08-24T09:06:54Z</time>
      </trkpt>
      <trkpt lat="43.82822" lon="5.63382">
        <ele>715.7</ele>
        <time>2022-08-24T09:06:56Z</time>
      </trkpt>
      <trkpt lat="43.82819" lon="5.63393">
        <ele>716.1</ele>
        <time>2022-08-24T09:06:58Z</time>
      </trkpt>
      <trkpt lat="43.82816" lon="5.63404">
        <ele>716.3</ele>
        <time>2022-08-24T09:07:00Z</time>
      </trkpt>
      <trkpt lat="43.82813" lon="5.63414">
        <ele>716.7</ele>
        <time>2022-08-24T09:07:02Z</time>
      </trkpt>
      <trkpt lat="43.82809" lon="5.63425">
        <ele>717.2</ele>
        <time>2022-08-24T09:07:04Z</time>
      </trkpt>
      <trkpt lat="43.82807" lon="5.63432">
        <ele>717.5</ele>
        <time>2022-08-24T09:07:05Z</time>
      </trkpt>
      <trkpt lat="43.82805" lon="5.63438">
        <ele>717.7</ele>
        <time>2022-08-24T09:07:06Z</time>
      </trkpt>
      <trkpt lat="43.82801" lon="5.63448">
        <ele>717.7</ele>
        <time>2022-08-24T09:07:08Z</time>
      </trkpt>
      <trkpt lat="43.82799" lon="5.63454">
        <ele>717.7</ele>
        <time>2022-08-24T09:07:09Z</time>
      </trkpt>
      <trkpt lat="43.82795" lon="5.63466">
        <ele>717.9</ele>
        <time>2022-08-24T09:07:11Z</time>
      </trkpt>
      <trkpt lat="43.82793" lon="5.63472">
        <ele>718.1</ele>
        <time>2022-08-24T09:07:12Z</time>
      </trkpt>
      <trkpt lat="43.8279" lon="5.63482">
        <ele>718</ele>
        <time>2022-08-24T09:07:14Z</time>
      </trkpt>
      <trkpt lat="43.82787" lon="5.63493">
        <ele>718.2</ele>
        <time>2022-08-24T09:07:16Z</time>
      </trkpt>
      <trkpt lat="43.82784" lon="5.63499">
        <ele>718.2</ele>
        <time>2022-08-24T09:07:17Z</time>
      </trkpt>
      <trkpt lat="43.82782" lon="5.63504">
        <ele>718.2</ele>
        <time>2022-08-24T09:07:18Z</time>
      </trkpt>
      <trkpt lat="43.82779" lon="5.63514">
        <ele>718.5</ele>
        <time>2022-08-24T09:07:20Z</time>
      </trkpt>
      <trkpt lat="43.82776" lon="5.6352">
        <ele>718.5</ele>
        <time>2022-08-24T09:07:21Z</time>
      </trkpt>
      <trkpt lat="43.82773" lon="5.63526">
        <ele>718.4</ele>
        <time>2022-08-24T09:07:22Z</time>
      </trkpt>
      <trkpt lat="43.82771" lon="5.63531">
        <ele>718.3</ele>
        <time>2022-08-24T09:07:23Z</time>
      </trkpt>
      <trkpt lat="43.82769" lon="5.63537">
        <ele>718.4</ele>
        <time>2022-08-24T09:07:24Z</time>
      </trkpt>
      <trkpt lat="43.82767" lon="5.63543">
        <ele>718.4</ele>
        <time>2022-08-24T09:07:25Z</time>
      </trkpt>
      <trkpt lat="43.82764" lon="5.63549">
        <ele>718.2</ele>
        <time>2022-08-24T09:07:26Z</time>
      </trkpt>
      <trkpt lat="43.82762" lon="5.63556">
        <ele>718.3</ele>
        <time>2022-08-24T09:07:27Z</time>
      </trkpt>
      <trkpt lat="43.8276" lon="5.63562">
        <ele>717.9</ele>
        <time>2022-08-24T09:07:28Z</time>
      </trkpt>
      <trkpt lat="43.82758" lon="5.63569">
        <ele>717.4</ele>
        <time>2022-08-24T09:07:29Z</time>
      </trkpt>
      <trkpt lat="43.82757" lon="5.63576">
        <ele>717</ele>
        <time>2022-08-24T09:07:30Z</time>
      </trkpt>
      <trkpt lat="43.82755" lon="5.63583">
        <ele>716.6</ele>
        <time>2022-08-24T09:07:31Z</time>
      </trkpt>
      <trkpt lat="43.82755" lon="5.63589">
        <ele>716.3</ele>
        <time>2022-08-24T09:07:32Z</time>
      </trkpt>
      <trkpt lat="43.82755" lon="5.63597">
        <ele>715.9</ele>
        <time>2022-08-24T09:07:33Z</time>
      </trkpt>
      <trkpt lat="43.82754" lon="5.63606">
        <ele>715.5</ele>
        <time>2022-08-24T09:07:34Z</time>
      </trkpt>
      <trkpt lat="43.82754" lon="5.63614">
        <ele>715.2</ele>
        <time>2022-08-24T09:07:35Z</time>
      </trkpt>
      <trkpt lat="43.82753" lon="5.63621">
        <ele>714.8</ele>
        <time>2022-08-24T09:07:36Z</time>
      </trkpt>
      <trkpt lat="43.82753" lon="5.6363">
        <ele>714.5</ele>
        <time>2022-08-24T09:07:37Z</time>
      </trkpt>
      <trkpt lat="43.82752" lon="5.63637">
        <ele>714.1</ele>
        <time>2022-08-24T09:07:38Z</time>
      </trkpt>
      <trkpt lat="43.82753" lon="5.63646">
        <ele>714</ele>
        <time>2022-08-24T09:07:39Z</time>
      </trkpt>
      <trkpt lat="43.82753" lon="5.63655">
        <ele>714</ele>
        <time>2022-08-24T09:07:40Z</time>
      </trkpt>
      <trkpt lat="43.82752" lon="5.63663">
        <ele>713.9</ele>
        <time>2022-08-24T09:07:41Z</time>
      </trkpt>
      <trkpt lat="43.8275" lon="5.63672">
        <ele>713.6</ele>
        <time>2022-08-24T09:07:42Z</time>
      </trkpt>
      <trkpt lat="43.82749" lon="5.63681">
        <ele>712.7</ele>
        <time>2022-08-24T09:07:43Z</time>
      </trkpt>
      <trkpt lat="43.82747" lon="5.6369">
        <ele>711.5</ele>
        <time>2022-08-24T09:07:44Z</time>
      </trkpt>
      <trkpt lat="43.82745" lon="5.637">
        <ele>710.7</ele>
        <time>2022-08-24T09:07:45Z</time>
      </trkpt>
      <trkpt lat="43.82745" lon="5.63711">
        <ele>710.1</ele>
        <time>2022-08-24T09:07:46Z</time>
      </trkpt>
      <trkpt lat="43.82744" lon="5.63722">
        <ele>709.5</ele>
        <time>2022-08-24T09:07:47Z</time>
      </trkpt>
      <trkpt lat="43.82743" lon="5.63734">
        <ele>708.3</ele>
        <time>2022-08-24T09:07:48Z</time>
      </trkpt>
      <trkpt lat="43.8274" lon="5.63744">
        <ele>707</ele>
        <time>2022-08-24T09:07:49Z</time>
      </trkpt>
      <trkpt lat="43.82739" lon="5.63755">
        <ele>706.2</ele>
        <time>2022-08-24T09:07:50Z</time>
      </trkpt>
      <trkpt lat="43.82739" lon="5.63766">
        <ele>705.9</ele>
        <time>2022-08-24T09:07:51Z</time>
      </trkpt>
      <trkpt lat="43.82739" lon="5.63777">
        <ele>705.6</ele>
        <time>2022-08-24T09:07:52Z</time>
      </trkpt>
      <trkpt lat="43.82739" lon="5.63788">
        <ele>705.5</ele>
        <time>2022-08-24T09:07:53Z</time>
      </trkpt>
      <trkpt lat="43.8274" lon="5.63798">
        <ele>705.6</ele>
        <time>2022-08-24T09:07:54Z</time>
      </trkpt>
      <trkpt lat="43.82744" lon="5.63808">
        <ele>706.3</ele>
        <time>2022-08-24T09:07:55Z</time>
      </trkpt>
      <trkpt lat="43.82745" lon="5.63819">
        <ele>706.3</ele>
        <time>2022-08-24T09:07:56Z</time>
      </trkpt>
      <trkpt lat="43.82745" lon="5.63828">
        <ele>706</ele>
        <time>2022-08-24T09:07:57Z</time>
      </trkpt>
      <trkpt lat="43.82746" lon="5.63838">
        <ele>705.8</ele>
        <time>2022-08-24T09:07:58Z</time>
      </trkpt>
      <trkpt lat="43.82747" lon="5.63847">
        <ele>705.8</ele>
        <time>2022-08-24T09:07:59Z</time>
      </trkpt>
      <trkpt lat="43.82749" lon="5.63856">
        <ele>705.9</ele>
        <time>2022-08-24T09:08:00Z</time>
      </trkpt>
      <trkpt lat="43.8275" lon="5.63867">
        <ele>705.8</ele>
        <time>2022-08-24T09:08:01Z</time>
      </trkpt>
      <trkpt lat="43.82751" lon="5.63876">
        <ele>705.3</ele>
        <time>2022-08-24T09:08:02Z</time>
      </trkpt>
      <trkpt lat="43.82753" lon="5.63884">
        <ele>704.9</ele>
        <time>2022-08-24T09:08:03Z</time>
      </trkpt>
      <trkpt lat="43.82754" lon="5.63893">
        <ele>704.3</ele>
        <time>2022-08-24T09:08:04Z</time>
      </trkpt>
      <trkpt lat="43.82755" lon="5.63903">
        <ele>703.5</ele>
        <time>2022-08-24T09:08:05Z</time>
      </trkpt>
      <trkpt lat="43.82756" lon="5.63911">
        <ele>702.9</ele>
        <time>2022-08-24T09:08:06Z</time>
      </trkpt>
      <trkpt lat="43.82756" lon="5.6392">
        <ele>702.3</ele>
        <time>2022-08-24T09:08:07Z</time>
      </trkpt>
      <trkpt lat="43.82757" lon="5.63929">
        <ele>701.8</ele>
        <time>2022-08-24T09:08:08Z</time>
      </trkpt>
      <trkpt lat="43.82756" lon="5.6394">
        <ele>701.3</ele>
        <time>2022-08-24T09:08:09Z</time>
      </trkpt>
      <trkpt lat="43.82757" lon="5.63949">
        <ele>700.7</ele>
        <time>2022-08-24T09:08:10Z</time>
      </trkpt>
      <trkpt lat="43.82758" lon="5.63958">
        <ele>700.1</ele>
        <time>2022-08-24T09:08:11Z</time>
      </trkpt>
      <trkpt lat="43.8276" lon="5.63969">
        <ele>699.6</ele>
        <time>2022-08-24T09:08:12Z</time>
      </trkpt>
      <trkpt lat="43.8276" lon="5.63977">
        <ele>699.3</ele>
        <time>2022-08-24T09:08:13Z</time>
      </trkpt>
      <trkpt lat="43.82759" lon="5.63986">
        <ele>699.3</ele>
        <time>2022-08-24T09:08:14Z</time>
      </trkpt>
      <trkpt lat="43.82758" lon="5.63996">
        <ele>699.4</ele>
        <time>2022-08-24T09:08:15Z</time>
      </trkpt>
      <trkpt lat="43.82755" lon="5.64004">
        <ele>699.8</ele>
        <time>2022-08-24T09:08:16Z</time>
      </trkpt>
      <trkpt lat="43.82753" lon="5.64012">
        <ele>700.1</ele>
        <time>2022-08-24T09:08:17Z</time>
      </trkpt>
      <trkpt lat="43.8275" lon="5.64019">
        <ele>700.7</ele>
        <time>2022-08-24T09:08:18Z</time>
      </trkpt>
      <trkpt lat="43.82748" lon="5.64025">
        <ele>700.7</ele>
        <time>2022-08-24T09:08:19Z</time>
      </trkpt>
      <trkpt lat="43.82745" lon="5.64031">
        <ele>700.7</ele>
        <time>2022-08-24T09:08:20Z</time>
      </trkpt>
      <trkpt lat="43.82742" lon="5.64037">
        <ele>700.7</ele>
        <time>2022-08-24T09:08:21Z</time>
      </trkpt>
      <trkpt lat="43.8274" lon="5.64043">
        <ele>700.9</ele>
        <time>2022-08-24T09:08:22Z</time>
      </trkpt>
      <trkpt lat="43.82737" lon="5.64048">
        <ele>701.1</ele>
        <time>2022-08-24T09:08:23Z</time>
      </trkpt>
      <trkpt lat="43.82733" lon="5.64054">
        <ele>701.5</ele>
        <time>2022-08-24T09:08:24Z</time>
      </trkpt>
      <trkpt lat="43.82731" lon="5.6406">
        <ele>701.9</ele>
        <time>2022-08-24T09:08:25Z</time>
      </trkpt>
      <trkpt lat="43.82723" lon="5.64069">
        <ele>702.5</ele>
        <time>2022-08-24T09:08:27Z</time>
      </trkpt>
      <trkpt lat="43.82719" lon="5.64074">
        <ele>702.2</ele>
        <time>2022-08-24T09:08:28Z</time>
      </trkpt>
      <trkpt lat="43.82716" lon="5.6408">
        <ele>701.9</ele>
        <time>2022-08-24T09:08:29Z</time>
      </trkpt>
      <trkpt lat="43.82712" lon="5.64087">
        <ele>701.7</ele>
        <time>2022-08-24T09:08:30Z</time>
      </trkpt>
      <trkpt lat="43.82709" lon="5.64093">
        <ele>701.6</ele>
        <time>2022-08-24T09:08:31Z</time>
      </trkpt>
      <trkpt lat="43.82705" lon="5.64099">
        <ele>701.4</ele>
        <time>2022-08-24T09:08:32Z</time>
      </trkpt>
      <trkpt lat="43.82702" lon="5.64104">
        <ele>701.4</ele>
        <time>2022-08-24T09:08:33Z</time>
      </trkpt>
      <trkpt lat="43.82699" lon="5.64111">
        <ele>701.5</ele>
        <time>2022-08-24T09:08:34Z</time>
      </trkpt>
      <trkpt lat="43.82696" lon="5.64118">
        <ele>701.1</ele>
        <time>2022-08-24T09:08:35Z</time>
      </trkpt>
      <trkpt lat="43.82694" lon="5.64126">
        <ele>700.8</ele>
        <time>2022-08-24T09:08:36Z</time>
      </trkpt>
      <trkpt lat="43.82692" lon="5.64133">
        <ele>700.6</ele>
        <time>2022-08-24T09:08:37Z</time>
      </trkpt>
      <trkpt lat="43.82689" lon="5.6414">
        <ele>700.2</ele>
        <time>2022-08-24T09:08:38Z</time>
      </trkpt>
      <trkpt lat="43.82686" lon="5.64146">
        <ele>699.7</ele>
        <time>2022-08-24T09:08:39Z</time>
      </trkpt>
      <trkpt lat="43.82684" lon="5.64153">
        <ele>699.2</ele>
        <time>2022-08-24T09:08:40Z</time>
      </trkpt>
      <trkpt lat="43.82681" lon="5.64162">
        <ele>698.7</ele>
        <time>2022-08-24T09:08:41Z</time>
      </trkpt>
      <trkpt lat="43.8268" lon="5.64169">
        <ele>698.2</ele>
        <time>2022-08-24T09:08:42Z</time>
      </trkpt>
      <trkpt lat="43.8268" lon="5.64176">
        <ele>697.8</ele>
        <time>2022-08-24T09:08:43Z</time>
      </trkpt>
      <trkpt lat="43.82679" lon="5.64183">
        <ele>697.4</ele>
        <time>2022-08-24T09:08:44Z</time>
      </trkpt>
      <trkpt lat="43.82679" lon="5.64191">
        <ele>697</ele>
        <time>2022-08-24T09:08:45Z</time>
      </trkpt>
      <trkpt lat="43.8268" lon="5.64199">
        <ele>696.4</ele>
        <time>2022-08-24T09:08:46Z</time>
      </trkpt>
      <trkpt lat="43.82681" lon="5.64207">
        <ele>695.9</ele>
        <time>2022-08-24T09:08:47Z</time>
      </trkpt>
      <trkpt lat="43.82682" lon="5.64216">
        <ele>695.4</ele>
        <time>2022-08-24T09:08:48Z</time>
      </trkpt>
      <trkpt lat="43.82684" lon="5.64226">
        <ele>694.7</ele>
        <time>2022-08-24T09:08:49Z</time>
      </trkpt>
      <trkpt lat="43.82686" lon="5.64234">
        <ele>694.1</ele>
        <time>2022-08-24T09:08:50Z</time>
      </trkpt>
      <trkpt lat="43.82688" lon="5.64243">
        <ele>693.4</ele>
        <time>2022-08-24T09:08:51Z</time>
      </trkpt>
      <trkpt lat="43.82694" lon="5.64245">
        <ele>694.4</ele>
        <time>2022-08-24T09:08:52Z</time>
      </trkpt>
      <trkpt lat="43.82699" lon="5.64247">
        <ele>694</ele>
        <time>2022-08-24T09:08:53Z</time>
      </trkpt>
      <trkpt lat="43.82704" lon="5.64245">
        <ele>693.9</ele>
        <time>2022-08-24T09:08:54Z</time>
      </trkpt>
      <trkpt lat="43.8271" lon="5.64242">
        <ele>693.9</ele>
        <time>2022-08-24T09:08:55Z</time>
      </trkpt>
      <trkpt lat="43.82715" lon="5.6424">
        <ele>693.8</ele>
        <time>2022-08-24T09:08:56Z</time>
      </trkpt>
      <trkpt lat="43.82721" lon="5.64237">
        <ele>694</ele>
        <time>2022-08-24T09:08:57Z</time>
      </trkpt>
      <trkpt lat="43.82727" lon="5.64231">
        <ele>693.5</ele>
        <time>2022-08-24T09:08:58Z</time>
      </trkpt>
      <trkpt lat="43.82733" lon="5.64226">
        <ele>693.2</ele>
        <time>2022-08-24T09:08:59Z</time>
      </trkpt>
      <trkpt lat="43.8274" lon="5.64221">
        <ele>692.3</ele>
        <time>2022-08-24T09:09:00Z</time>
      </trkpt>
      <trkpt lat="43.82747" lon="5.64214">
        <ele>691.9</ele>
        <time>2022-08-24T09:09:01Z</time>
      </trkpt>
      <trkpt lat="43.82753" lon="5.64207">
        <ele>691.5</ele>
        <time>2022-08-24T09:09:02Z</time>
      </trkpt>
      <trkpt lat="43.82759" lon="5.642">
        <ele>690.7</ele>
        <time>2022-08-24T09:09:03Z</time>
      </trkpt>
      <trkpt lat="43.82764" lon="5.64192">
        <ele>690.2</ele>
        <time>2022-08-24T09:09:04Z</time>
      </trkpt>
      <trkpt lat="43.82769" lon="5.64183">
        <ele>689.6</ele>
        <time>2022-08-24T09:09:05Z</time>
      </trkpt>
      <trkpt lat="43.82775" lon="5.64175">
        <ele>689</ele>
        <time>2022-08-24T09:09:06Z</time>
      </trkpt>
      <trkpt lat="43.82781" lon="5.64167">
        <ele>687.9</ele>
        <time>2022-08-24T09:09:07Z</time>
      </trkpt>
      <trkpt lat="43.82788" lon="5.64158">
        <ele>686.7</ele>
        <time>2022-08-24T09:09:08Z</time>
      </trkpt>
      <trkpt lat="43.82793" lon="5.6415">
        <ele>686</ele>
        <time>2022-08-24T09:09:09Z</time>
      </trkpt>
      <trkpt lat="43.82797" lon="5.64139">
        <ele>685.8</ele>
        <time>2022-08-24T09:09:10Z</time>
      </trkpt>
      <trkpt lat="43.82801" lon="5.64128">
        <ele>685</ele>
        <time>2022-08-24T09:09:11Z</time>
      </trkpt>
      <trkpt lat="43.82805" lon="5.64114">
        <ele>684.2</ele>
        <time>2022-08-24T09:09:12Z</time>
      </trkpt>
      <trkpt lat="43.82809" lon="5.64103">
        <ele>683.4</ele>
        <time>2022-08-24T09:09:13Z</time>
      </trkpt>
      <trkpt lat="43.82813" lon="5.64092">
        <ele>683</ele>
        <time>2022-08-24T09:09:14Z</time>
      </trkpt>
      <trkpt lat="43.82818" lon="5.64081">
        <ele>682.7</ele>
        <time>2022-08-24T09:09:15Z</time>
      </trkpt>
      <trkpt lat="43.82823" lon="5.64071">
        <ele>682.9</ele>
        <time>2022-08-24T09:09:16Z</time>
      </trkpt>
      <trkpt lat="43.82833" lon="5.64067">
        <ele>681.1</ele>
        <time>2022-08-24T09:09:17Z</time>
      </trkpt>
      <trkpt lat="43.82842" lon="5.64066">
        <ele>680.2</ele>
        <time>2022-08-24T09:09:18Z</time>
      </trkpt>
      <trkpt lat="43.82852" lon="5.64068">
        <ele>678.8</ele>
        <time>2022-08-24T09:09:19Z</time>
      </trkpt>
      <trkpt lat="43.82861" lon="5.64072">
        <ele>677</ele>
        <time>2022-08-24T09:09:20Z</time>
      </trkpt>
      <trkpt lat="43.82869" lon="5.64077">
        <ele>675.9</ele>
        <time>2022-08-24T09:09:21Z</time>
      </trkpt>
      <trkpt lat="43.82877" lon="5.64082">
        <ele>675.2</ele>
        <time>2022-08-24T09:09:22Z</time>
      </trkpt>
      <trkpt lat="43.82885" lon="5.64084">
        <ele>675</ele>
        <time>2022-08-24T09:09:23Z</time>
      </trkpt>
      <trkpt lat="43.82895" lon="5.64084">
        <ele>674.6</ele>
        <time>2022-08-24T09:09:24Z</time>
      </trkpt>
      <trkpt lat="43.82903" lon="5.64083">
        <ele>674</ele>
        <time>2022-08-24T09:09:25Z</time>
      </trkpt>
      <trkpt lat="43.82911" lon="5.64082">
        <ele>673.4</ele>
        <time>2022-08-24T09:09:26Z</time>
      </trkpt>
      <trkpt lat="43.82936" lon="5.64084">
        <ele>671.6</ele>
        <time>2022-08-24T09:09:29Z</time>
      </trkpt>
      <trkpt lat="43.82946" lon="5.64086">
        <ele>671</ele>
        <time>2022-08-24T09:09:30Z</time>
      </trkpt>
      <trkpt lat="43.82954" lon="5.64087">
        <ele>671</ele>
        <time>2022-08-24T09:09:31Z</time>
      </trkpt>
      <trkpt lat="43.82962" lon="5.64091">
        <ele>671</ele>
        <time>2022-08-24T09:09:32Z</time>
      </trkpt>
      <trkpt lat="43.82971" lon="5.64096">
        <ele>671</ele>
        <time>2022-08-24T09:09:33Z</time>
      </trkpt>
      <trkpt lat="43.82977" lon="5.64103">
        <ele>670.5</ele>
        <time>2022-08-24T09:09:34Z</time>
      </trkpt>
      <trkpt lat="43.82983" lon="5.6411">
        <ele>669.9</ele>
        <time>2022-08-24T09:09:35Z</time>
      </trkpt>
      <trkpt lat="43.82988" lon="5.64118">
        <ele>669.4</ele>
        <time>2022-08-24T09:09:36Z</time>
      </trkpt>
      <trkpt lat="43.82994" lon="5.64127">
        <ele>668.8</ele>
        <time>2022-08-24T09:09:37Z</time>
      </trkpt>
      <trkpt lat="43.82997" lon="5.64135">
        <ele>668.4</ele>
        <time>2022-08-24T09:09:38Z</time>
      </trkpt>
      <trkpt lat="43.83001" lon="5.64145">
        <ele>667.6</ele>
        <time>2022-08-24T09:09:39Z</time>
      </trkpt>
      <trkpt lat="43.83004" lon="5.64154">
        <ele>666.9</ele>
        <time>2022-08-24T09:09:40Z</time>
      </trkpt>
      <trkpt lat="43.83009" lon="5.64163">
        <ele>666</ele>
        <time>2022-08-24T09:09:41Z</time>
      </trkpt>
      <trkpt lat="43.83015" lon="5.64171">
        <ele>665.6</ele>
        <time>2022-08-24T09:09:42Z</time>
      </trkpt>
      <trkpt lat="43.83022" lon="5.64175">
        <ele>665</ele>
        <time>2022-08-24T09:09:43Z</time>
      </trkpt>
      <trkpt lat="43.83029" lon="5.64179">
        <ele>664.5</ele>
        <time>2022-08-24T09:09:44Z</time>
      </trkpt>
      <trkpt lat="43.83036" lon="5.64182">
        <ele>664.8</ele>
        <time>2022-08-24T09:09:45Z</time>
      </trkpt>
      <trkpt lat="43.83041" lon="5.64187">
        <ele>665.2</ele>
        <time>2022-08-24T09:09:46Z</time>
      </trkpt>
      <trkpt lat="43.83047" lon="5.64193">
        <ele>665.6</ele>
        <time>2022-08-24T09:09:47Z</time>
      </trkpt>
      <trkpt lat="43.83054" lon="5.642">
        <ele>665.2</ele>
        <time>2022-08-24T09:09:48Z</time>
      </trkpt>
      <trkpt lat="43.83058" lon="5.64203">
        <ele>664.6</ele>
        <time>2022-08-24T09:09:49Z</time>
      </trkpt>
      <trkpt lat="43.83062" lon="5.6421">
        <ele>663.6</ele>
        <time>2022-08-24T09:09:50Z</time>
      </trkpt>
      <trkpt lat="43.83066" lon="5.64217">
        <ele>662.9</ele>
        <time>2022-08-24T09:09:51Z</time>
      </trkpt>
      <trkpt lat="43.83071" lon="5.64223">
        <ele>662.5</ele>
        <time>2022-08-24T09:09:52Z</time>
      </trkpt>
      <trkpt lat="43.83076" lon="5.6423">
        <ele>661.8</ele>
        <time>2022-08-24T09:09:53Z</time>
      </trkpt>
      <trkpt lat="43.8308" lon="5.64236">
        <ele>661.3</ele>
        <time>2022-08-24T09:09:54Z</time>
      </trkpt>
      <trkpt lat="43.83085" lon="5.64247">
        <ele>660.3</ele>
        <time>2022-08-24T09:09:55Z</time>
      </trkpt>
      <trkpt lat="43.8309" lon="5.64254">
        <ele>659.1</ele>
        <time>2022-08-24T09:09:56Z</time>
      </trkpt>
      <trkpt lat="43.83101" lon="5.64271">
        <ele>657.5</ele>
        <time>2022-08-24T09:09:58Z</time>
      </trkpt>
      <trkpt lat="43.83106" lon="5.64282">
        <ele>657</ele>
        <time>2022-08-24T09:09:59Z</time>
      </trkpt>
      <trkpt lat="43.83109" lon="5.64292">
        <ele>656.8</ele>
        <time>2022-08-24T09:10:00Z</time>
      </trkpt>
      <trkpt lat="43.83115" lon="5.64301">
        <ele>655.9</ele>
        <time>2022-08-24T09:10:01Z</time>
      </trkpt>
      <trkpt lat="43.83119" lon="5.64311">
        <ele>655.1</ele>
        <time>2022-08-24T09:10:02Z</time>
      </trkpt>
      <trkpt lat="43.83124" lon="5.64322">
        <ele>654.8</ele>
        <time>2022-08-24T09:10:03Z</time>
      </trkpt>
      <trkpt lat="43.83126" lon="5.64332">
        <ele>655</ele>
        <time>2022-08-24T09:10:04Z</time>
      </trkpt>
      <trkpt lat="43.83129" lon="5.64342">
        <ele>655.5</ele>
        <time>2022-08-24T09:10:05Z</time>
      </trkpt>
      <trkpt lat="43.83131" lon="5.64351">
        <ele>656.1</ele>
        <time>2022-08-24T09:10:06Z</time>
      </trkpt>
      <trkpt lat="43.83133" lon="5.64358">
        <ele>656.6</ele>
        <time>2022-08-24T09:10:07Z</time>
      </trkpt>
      <trkpt lat="43.83135" lon="5.64364">
        <ele>656.9</ele>
        <time>2022-08-24T09:10:08Z</time>
      </trkpt>
      <trkpt lat="43.83135" lon="5.6437">
        <ele>656.9</ele>
        <time>2022-08-24T09:10:09Z</time>
      </trkpt>
      <trkpt lat="43.83137" lon="5.64378">
        <ele>656.9</ele>
        <time>2022-08-24T09:10:10Z</time>
      </trkpt>
      <trkpt lat="43.83139" lon="5.64385">
        <ele>657</ele>
        <time>2022-08-24T09:10:11Z</time>
      </trkpt>
      <trkpt lat="43.83142" lon="5.64392">
        <ele>657.3</ele>
        <time>2022-08-24T09:10:12Z</time>
      </trkpt>
      <trkpt lat="43.83143" lon="5.64399">
        <ele>657.6</ele>
        <time>2022-08-24T09:10:13Z</time>
      </trkpt>
      <trkpt lat="43.83146" lon="5.64406">
        <ele>658.1</ele>
        <time>2022-08-24T09:10:14Z</time>
      </trkpt>
      <trkpt lat="43.83147" lon="5.64413">
        <ele>658.6</ele>
        <time>2022-08-24T09:10:15Z</time>
      </trkpt>
      <trkpt lat="43.83148" lon="5.64421">
        <ele>659</ele>
        <time>2022-08-24T09:10:16Z</time>
      </trkpt>
      <trkpt lat="43.83148" lon="5.64428">
        <ele>659.1</ele>
        <time>2022-08-24T09:10:17Z</time>
      </trkpt>
      <trkpt lat="43.83147" lon="5.6444">
        <ele>659.1</ele>
        <time>2022-08-24T09:10:19Z</time>
      </trkpt>
      <trkpt lat="43.83148" lon="5.64448">
        <ele>659.5</ele>
        <time>2022-08-24T09:10:21Z</time>
      </trkpt>
      <trkpt lat="43.83148" lon="5.64454">
        <ele>659.9</ele>
        <time>2022-08-24T09:10:37Z</time>
      </trkpt>
      <trkpt lat="43.83147" lon="5.64463">
        <ele>660.3</ele>
        <time>2022-08-24T09:10:39Z</time>
      </trkpt>
      <trkpt lat="43.83146" lon="5.64474">
        <ele>660.8</ele>
        <time>2022-08-24T09:10:41Z</time>
      </trkpt>
      <trkpt lat="43.83146" lon="5.64483">
        <ele>661</ele>
        <time>2022-08-24T09:10:43Z</time>
      </trkpt>
      <trkpt lat="43.83145" lon="5.64493">
        <ele>661.2</ele>
        <time>2022-08-24T09:10:45Z</time>
      </trkpt>
      <trkpt lat="43.83144" lon="5.64505">
        <ele>661.6</ele>
        <time>2022-08-24T09:10:47Z</time>
      </trkpt>
      <trkpt lat="43.83144" lon="5.64516">
        <ele>662.1</ele>
        <time>2022-08-24T09:10:49Z</time>
      </trkpt>
      <trkpt lat="43.83143" lon="5.64528">
        <ele>662.7</ele>
        <time>2022-08-24T09:10:51Z</time>
      </trkpt>
      <trkpt lat="43.83143" lon="5.6454">
        <ele>663.5</ele>
        <time>2022-08-24T09:10:53Z</time>
      </trkpt>
      <trkpt lat="43.83144" lon="5.64551">
        <ele>664</ele>
        <time>2022-08-24T09:10:55Z</time>
      </trkpt>
      <trkpt lat="43.83146" lon="5.64557">
        <ele>664.1</ele>
        <time>2022-08-24T09:10:56Z</time>
      </trkpt>
      <trkpt lat="43.83148" lon="5.64563">
        <ele>664</ele>
        <time>2022-08-24T09:10:57Z</time>
      </trkpt>
      <trkpt lat="43.83152" lon="5.64568">
        <ele>663.8</ele>
        <time>2022-08-24T09:10:58Z</time>
      </trkpt>
      <trkpt lat="43.83157" lon="5.64573">
        <ele>663.4</ele>
        <time>2022-08-24T09:10:59Z</time>
      </trkpt>
      <trkpt lat="43.83162" lon="5.64578">
        <ele>663.1</ele>
        <time>2022-08-24T09:11:00Z</time>
      </trkpt>
      <trkpt lat="43.83168" lon="5.64584">
        <ele>662.7</ele>
        <time>2022-08-24T09:11:01Z</time>
      </trkpt>
      <trkpt lat="43.83176" lon="5.64586">
        <ele>661.4</ele>
        <time>2022-08-24T09:11:02Z</time>
      </trkpt>
      <trkpt lat="43.83183" lon="5.64593">
        <ele>660.7</ele>
        <time>2022-08-24T09:11:03Z</time>
      </trkpt>
      <trkpt lat="43.83188" lon="5.64601">
        <ele>660.3</ele>
        <time>2022-08-24T09:11:04Z</time>
      </trkpt>
      <trkpt lat="43.83193" lon="5.6461">
        <ele>660.2</ele>
        <time>2022-08-24T09:11:05Z</time>
      </trkpt>
      <trkpt lat="43.83196" lon="5.6462">
        <ele>659.3</ele>
        <time>2022-08-24T09:11:06Z</time>
      </trkpt>
      <trkpt lat="43.83199" lon="5.64631">
        <ele>658.3</ele>
        <time>2022-08-24T09:11:07Z</time>
      </trkpt>
      <trkpt lat="43.83201" lon="5.64641">
        <ele>657.6</ele>
        <time>2022-08-24T09:11:08Z</time>
      </trkpt>
      <trkpt lat="43.83204" lon="5.64651">
        <ele>656.9</ele>
        <time>2022-08-24T09:11:09Z</time>
      </trkpt>
      <trkpt lat="43.83207" lon="5.64662">
        <ele>656</ele>
        <time>2022-08-24T09:11:10Z</time>
      </trkpt>
      <trkpt lat="43.83209" lon="5.64674">
        <ele>655.1</ele>
        <time>2022-08-24T09:11:11Z</time>
      </trkpt>
      <trkpt lat="43.83209" lon="5.64685">
        <ele>654.3</ele>
        <time>2022-08-24T09:11:12Z</time>
      </trkpt>
      <trkpt lat="43.83209" lon="5.64697">
        <ele>653.6</ele>
        <time>2022-08-24T09:11:13Z</time>
      </trkpt>
      <trkpt lat="43.83207" lon="5.64709">
        <ele>652.7</ele>
        <time>2022-08-24T09:11:14Z</time>
      </trkpt>
      <trkpt lat="43.83203" lon="5.64719">
        <ele>652.6</ele>
        <time>2022-08-24T09:11:15Z</time>
      </trkpt>
      <trkpt lat="43.83197" lon="5.64726">
        <ele>652.5</ele>
        <time>2022-08-24T09:11:16Z</time>
      </trkpt>
      <trkpt lat="43.83192" lon="5.64733">
        <ele>652.5</ele>
        <time>2022-08-24T09:11:17Z</time>
      </trkpt>
      <trkpt lat="43.83189" lon="5.64742">
        <ele>651.6</ele>
        <time>2022-08-24T09:11:18Z</time>
      </trkpt>
      <trkpt lat="43.83186" lon="5.64753">
        <ele>650.8</ele>
        <time>2022-08-24T09:11:19Z</time>
      </trkpt>
      <trkpt lat="43.83188" lon="5.64763">
        <ele>649.5</ele>
        <time>2022-08-24T09:11:20Z</time>
      </trkpt>
      <trkpt lat="43.83189" lon="5.64773">
        <ele>648.6</ele>
        <time>2022-08-24T09:11:21Z</time>
      </trkpt>
      <trkpt lat="43.83189" lon="5.64784">
        <ele>647.4</ele>
        <time>2022-08-24T09:11:22Z</time>
      </trkpt>
      <trkpt lat="43.83189" lon="5.64795">
        <ele>646.1</ele>
        <time>2022-08-24T09:11:23Z</time>
      </trkpt>
      <trkpt lat="43.83186" lon="5.64805">
        <ele>645.4</ele>
        <time>2022-08-24T09:11:24Z</time>
      </trkpt>
      <trkpt lat="43.83182" lon="5.64815">
        <ele>645</ele>
        <time>2022-08-24T09:11:25Z</time>
      </trkpt>
      <trkpt lat="43.8318" lon="5.64825">
        <ele>644.3</ele>
        <time>2022-08-24T09:11:26Z</time>
      </trkpt>
      <trkpt lat="43.83174" lon="5.64833">
        <ele>644.7</ele>
        <time>2022-08-24T09:11:27Z</time>
      </trkpt>
      <trkpt lat="43.83172" lon="5.64846">
        <ele>643.5</ele>
        <time>2022-08-24T09:11:28Z</time>
      </trkpt>
      <trkpt lat="43.83171" lon="5.64856">
        <ele>642.7</ele>
        <time>2022-08-24T09:11:29Z</time>
      </trkpt>
      <trkpt lat="43.83171" lon="5.64868">
        <ele>641.5</ele>
        <time>2022-08-24T09:11:30Z</time>
      </trkpt>
      <trkpt lat="43.83172" lon="5.6488">
        <ele>640.5</ele>
        <time>2022-08-24T09:11:31Z</time>
      </trkpt>
      <trkpt lat="43.8317" lon="5.64893">
        <ele>639.8</ele>
        <time>2022-08-24T09:11:32Z</time>
      </trkpt>
      <trkpt lat="43.83167" lon="5.64905">
        <ele>638.6</ele>
        <time>2022-08-24T09:11:33Z</time>
      </trkpt>
      <trkpt lat="43.83164" lon="5.64917">
        <ele>637.4</ele>
        <time>2022-08-24T09:11:34Z</time>
      </trkpt>
      <trkpt lat="43.83161" lon="5.64929">
        <ele>636.7</ele>
        <time>2022-08-24T09:11:35Z</time>
      </trkpt>
      <trkpt lat="43.83158" lon="5.64943">
        <ele>635.8</ele>
        <time>2022-08-24T09:11:36Z</time>
      </trkpt>
      <trkpt lat="43.83155" lon="5.64955">
        <ele>634.9</ele>
        <time>2022-08-24T09:11:37Z</time>
      </trkpt>
      <trkpt lat="43.83154" lon="5.64968">
        <ele>633.7</ele>
        <time>2022-08-24T09:11:38Z</time>
      </trkpt>
      <trkpt lat="43.83152" lon="5.64981">
        <ele>632.5</ele>
        <time>2022-08-24T09:11:39Z</time>
      </trkpt>
      <trkpt lat="43.83149" lon="5.64993">
        <ele>631.5</ele>
        <time>2022-08-24T09:11:40Z</time>
      </trkpt>
      <trkpt lat="43.83146" lon="5.65006">
        <ele>630.3</ele>
        <time>2022-08-24T09:11:41Z</time>
      </trkpt>
      <trkpt lat="43.83143" lon="5.65016">
        <ele>629.7</ele>
        <time>2022-08-24T09:11:42Z</time>
      </trkpt>
      <trkpt lat="43.83138" lon="5.65025">
        <ele>629.2</ele>
        <time>2022-08-24T09:11:43Z</time>
      </trkpt>
      <trkpt lat="43.83134" lon="5.65034">
        <ele>628.3</ele>
        <time>2022-08-24T09:11:44Z</time>
      </trkpt>
      <trkpt lat="43.83132" lon="5.65047">
        <ele>627.3</ele>
        <time>2022-08-24T09:11:45Z</time>
      </trkpt>
      <trkpt lat="43.8313" lon="5.6506">
        <ele>626.5</ele>
        <time>2022-08-24T09:11:46Z</time>
      </trkpt>
      <trkpt lat="43.83125" lon="5.65068">
        <ele>626</ele>
        <time>2022-08-24T09:11:47Z</time>
      </trkpt>
      <trkpt lat="43.83121" lon="5.6508">
        <ele>625.7</ele>
        <time>2022-08-24T09:11:48Z</time>
      </trkpt>
      <trkpt lat="43.83115" lon="5.65088">
        <ele>626</ele>
        <time>2022-08-24T09:11:49Z</time>
      </trkpt>
      <trkpt lat="43.8311" lon="5.65094">
        <ele>626.4</ele>
        <time>2022-08-24T09:11:50Z</time>
      </trkpt>
      <trkpt lat="43.83104" lon="5.65098">
        <ele>626.7</ele>
        <time>2022-08-24T09:11:51Z</time>
      </trkpt>
      <trkpt lat="43.83099" lon="5.65102">
        <ele>626.9</ele>
        <time>2022-08-24T09:11:52Z</time>
      </trkpt>
      <trkpt lat="43.83094" lon="5.65102">
        <ele>627.1</ele>
        <time>2022-08-24T09:11:53Z</time>
      </trkpt>
      <trkpt lat="43.83088" lon="5.65103">
        <ele>627.3</ele>
        <time>2022-08-24T09:11:54Z</time>
      </trkpt>
      <trkpt lat="43.83083" lon="5.65106">
        <ele>627.6</ele>
        <time>2022-08-24T09:11:55Z</time>
      </trkpt>
      <trkpt lat="43.83076" lon="5.65108">
        <ele>628.3</ele>
        <time>2022-08-24T09:11:57Z</time>
      </trkpt>
      <trkpt lat="43.83071" lon="5.65109">
        <ele>628.6</ele>
        <time>2022-08-24T09:11:58Z</time>
      </trkpt>
      <trkpt lat="43.83066" lon="5.6511">
        <ele>629.1</ele>
        <time>2022-08-24T09:11:59Z</time>
      </trkpt>
      <trkpt lat="43.8306" lon="5.65112">
        <ele>629.7</ele>
        <time>2022-08-24T09:12:01Z</time>
      </trkpt>
      <trkpt lat="43.83051" lon="5.65115">
        <ele>630.6</ele>
        <time>2022-08-24T09:12:03Z</time>
      </trkpt>
      <trkpt lat="43.83046" lon="5.65116">
        <ele>630.9</ele>
        <time>2022-08-24T09:12:04Z</time>
      </trkpt>
      <trkpt lat="43.83038" lon="5.65118">
        <ele>631.7</ele>
        <time>2022-08-24T09:12:06Z</time>
      </trkpt>
      <trkpt lat="43.83033" lon="5.65117">
        <ele>631.8</ele>
        <time>2022-08-24T09:12:07Z</time>
      </trkpt>
      <trkpt lat="43.83025" lon="5.65119">
        <ele>632.4</ele>
        <time>2022-08-24T09:12:09Z</time>
      </trkpt>
      <trkpt lat="43.83018" lon="5.6512">
        <ele>633</ele>
        <time>2022-08-24T09:12:11Z</time>
      </trkpt>
      <trkpt lat="43.83011" lon="5.65122">
        <ele>633.5</ele>
        <time>2022-08-24T09:12:13Z</time>
      </trkpt>
      <trkpt lat="43.83003" lon="5.65123">
        <ele>634</ele>
        <time>2022-08-24T09:12:15Z</time>
      </trkpt>
      <trkpt lat="43.82996" lon="5.65127">
        <ele>634.4</ele>
        <time>2022-08-24T09:12:17Z</time>
      </trkpt>
      <trkpt lat="43.82989" lon="5.6513">
        <ele>634.6</ele>
        <time>2022-08-24T09:12:19Z</time>
      </trkpt>
      <trkpt lat="43.82983" lon="5.65135">
        <ele>635.1</ele>
        <time>2022-08-24T09:12:21Z</time>
      </trkpt>
      <trkpt lat="43.82977" lon="5.6514">
        <ele>635.7</ele>
        <time>2022-08-24T09:12:23Z</time>
      </trkpt>
      <trkpt lat="43.82971" lon="5.65144">
        <ele>636.3</ele>
        <time>2022-08-24T09:12:25Z</time>
      </trkpt>
      <trkpt lat="43.82965" lon="5.65149">
        <ele>636.7</ele>
        <time>2022-08-24T09:12:27Z</time>
      </trkpt>
      <trkpt lat="43.82958" lon="5.65152">
        <ele>636.7</ele>
        <time>2022-08-24T09:12:29Z</time>
      </trkpt>
      <trkpt lat="43.82952" lon="5.65154">
        <ele>636.7</ele>
        <time>2022-08-24T09:12:31Z</time>
      </trkpt>
      <trkpt lat="43.82946" lon="5.65158">
        <ele>636.9</ele>
        <time>2022-08-24T09:12:33Z</time>
      </trkpt>
      <trkpt lat="43.8294" lon="5.65163">
        <ele>637.5</ele>
        <time>2022-08-24T09:12:35Z</time>
      </trkpt>
      <trkpt lat="43.82936" lon="5.65169">
        <ele>638.4</ele>
        <time>2022-08-24T09:12:37Z</time>
      </trkpt>
      <trkpt lat="43.82932" lon="5.65176">
        <ele>639.6</ele>
        <time>2022-08-24T09:12:39Z</time>
      </trkpt>
      <trkpt lat="43.82928" lon="5.65184">
        <ele>640.9</ele>
        <time>2022-08-24T09:12:41Z</time>
      </trkpt>
      <trkpt lat="43.82923" lon="5.65191">
        <ele>641.9</ele>
        <time>2022-08-24T09:12:43Z</time>
      </trkpt>
      <trkpt lat="43.82918" lon="5.65197">
        <ele>642.6</ele>
        <time>2022-08-24T09:12:45Z</time>
      </trkpt>
      <trkpt lat="43.82913" lon="5.65205">
        <ele>643</ele>
        <time>2022-08-24T09:12:47Z</time>
      </trkpt>
      <trkpt lat="43.82908" lon="5.65212">
        <ele>643.1</ele>
        <time>2022-08-24T09:12:49Z</time>
      </trkpt>
      <trkpt lat="43.82904" lon="5.65221">
        <ele>643.5</ele>
        <time>2022-08-24T09:12:51Z</time>
      </trkpt>
      <trkpt lat="43.829" lon="5.6523">
        <ele>644.1</ele>
        <time>2022-08-24T09:12:53Z</time>
      </trkpt>
      <trkpt lat="43.82896" lon="5.65238">
        <ele>644.6</ele>
        <time>2022-08-24T09:12:55Z</time>
      </trkpt>
      <trkpt lat="43.82893" lon="5.65246">
        <ele>645.2</ele>
        <time>2022-08-24T09:12:57Z</time>
      </trkpt>
      <trkpt lat="43.82889" lon="5.65255">
        <ele>645.8</ele>
        <time>2022-08-24T09:12:59Z</time>
      </trkpt>
      <trkpt lat="43.82885" lon="5.65263">
        <ele>646.5</ele>
        <time>2022-08-24T09:13:01Z</time>
      </trkpt>
      <trkpt lat="43.8288" lon="5.6527">
        <ele>646.9</ele>
        <time>2022-08-24T09:13:03Z</time>
      </trkpt>
      <trkpt lat="43.82874" lon="5.65276">
        <ele>647</ele>
        <time>2022-08-24T09:13:05Z</time>
      </trkpt>
      <trkpt lat="43.8287" lon="5.65282">
        <ele>647.5</ele>
        <time>2022-08-24T09:13:07Z</time>
      </trkpt>
      <trkpt lat="43.82864" lon="5.65288">
        <ele>647.5</ele>
        <time>2022-08-24T09:13:09Z</time>
      </trkpt>
      <trkpt lat="43.82858" lon="5.65294">
        <ele>647.7</ele>
        <time>2022-08-24T09:13:11Z</time>
      </trkpt>
      <trkpt lat="43.82852" lon="5.653">
        <ele>648.4</ele>
        <time>2022-08-24T09:13:13Z</time>
      </trkpt>
      <trkpt lat="43.82846" lon="5.65305">
        <ele>648.8</ele>
        <time>2022-08-24T09:13:15Z</time>
      </trkpt>
      <trkpt lat="43.82839" lon="5.65309">
        <ele>649.1</ele>
        <time>2022-08-24T09:13:17Z</time>
      </trkpt>
      <trkpt lat="43.82833" lon="5.65314">
        <ele>649.5</ele>
        <time>2022-08-24T09:13:19Z</time>
      </trkpt>
      <trkpt lat="43.82827" lon="5.6532">
        <ele>650.1</ele>
        <time>2022-08-24T09:13:21Z</time>
      </trkpt>
      <trkpt lat="43.82822" lon="5.65326">
        <ele>650.7</ele>
        <time>2022-08-24T09:13:23Z</time>
      </trkpt>
      <trkpt lat="43.82816" lon="5.65332">
        <ele>650.9</ele>
        <time>2022-08-24T09:13:25Z</time>
      </trkpt>
      <trkpt lat="43.82809" lon="5.65337">
        <ele>651.1</ele>
        <time>2022-08-24T09:13:27Z</time>
      </trkpt>
      <trkpt lat="43.82804" lon="5.65342">
        <ele>651.5</ele>
        <time>2022-08-24T09:13:29Z</time>
      </trkpt>
      <trkpt lat="43.82798" lon="5.65349">
        <ele>652.2</ele>
        <time>2022-08-24T09:13:31Z</time>
      </trkpt>
      <trkpt lat="43.82792" lon="5.65354">
        <ele>652.5</ele>
        <time>2022-08-24T09:13:33Z</time>
      </trkpt>
      <trkpt lat="43.82786" lon="5.65359">
        <ele>652.6</ele>
        <time>2022-08-24T09:13:35Z</time>
      </trkpt>
      <trkpt lat="43.82778" lon="5.65363">
        <ele>652.5</ele>
        <time>2022-08-24T09:13:37Z</time>
      </trkpt>
      <trkpt lat="43.82771" lon="5.65367">
        <ele>653.3</ele>
        <time>2022-08-24T09:13:39Z</time>
      </trkpt>
      <trkpt lat="43.82764" lon="5.65369">
        <ele>653.7</ele>
        <time>2022-08-24T09:13:41Z</time>
      </trkpt>
      <trkpt lat="43.82757" lon="5.65373">
        <ele>654</ele>
        <time>2022-08-24T09:13:43Z</time>
      </trkpt>
      <trkpt lat="43.8275" lon="5.65377">
        <ele>654.2</ele>
        <time>2022-08-24T09:13:45Z</time>
      </trkpt>
      <trkpt lat="43.82744" lon="5.65382">
        <ele>654.7</ele>
        <time>2022-08-24T09:13:47Z</time>
      </trkpt>
      <trkpt lat="43.82737" lon="5.65385">
        <ele>655.2</ele>
        <time>2022-08-24T09:13:49Z</time>
      </trkpt>
      <trkpt lat="43.82731" lon="5.65388">
        <ele>655.7</ele>
        <time>2022-08-24T09:13:51Z</time>
      </trkpt>
      <trkpt lat="43.82724" lon="5.6539">
        <ele>656.1</ele>
        <time>2022-08-24T09:13:53Z</time>
      </trkpt>
      <trkpt lat="43.82717" lon="5.65391">
        <ele>656.6</ele>
        <time>2022-08-24T09:13:55Z</time>
      </trkpt>
      <trkpt lat="43.8271" lon="5.65392">
        <ele>657.1</ele>
        <time>2022-08-24T09:13:57Z</time>
      </trkpt>
      <trkpt lat="43.82703" lon="5.65392">
        <ele>657.5</ele>
        <time>2022-08-24T09:13:59Z</time>
      </trkpt>
      <trkpt lat="43.82696" lon="5.65391">
        <ele>658</ele>
        <time>2022-08-24T09:14:01Z</time>
      </trkpt>
      <trkpt lat="43.82688" lon="5.6539">
        <ele>658.5</ele>
        <time>2022-08-24T09:14:03Z</time>
      </trkpt>
      <trkpt lat="43.82681" lon="5.6539">
        <ele>659</ele>
        <time>2022-08-24T09:14:05Z</time>
      </trkpt>
      <trkpt lat="43.82673" lon="5.65387">
        <ele>659.5</ele>
        <time>2022-08-24T09:14:07Z</time>
      </trkpt>
      <trkpt lat="43.82669" lon="5.65386">
        <ele>659.8</ele>
        <time>2022-08-24T09:14:08Z</time>
      </trkpt>
      <trkpt lat="43.82661" lon="5.65385">
        <ele>660.6</ele>
        <time>2022-08-24T09:14:10Z</time>
      </trkpt>
      <trkpt lat="43.82654" lon="5.65385">
        <ele>661.4</ele>
        <time>2022-08-24T09:14:12Z</time>
      </trkpt>
      <trkpt lat="43.82647" lon="5.65387">
        <ele>662.2</ele>
        <time>2022-08-24T09:14:14Z</time>
      </trkpt>
      <trkpt lat="43.82639" lon="5.65388">
        <ele>663</ele>
        <time>2022-08-24T09:14:16Z</time>
      </trkpt>
      <trkpt lat="43.82631" lon="5.65387">
        <ele>663</ele>
        <time>2022-08-24T09:14:18Z</time>
      </trkpt>
      <trkpt lat="43.82621" lon="5.65384">
        <ele>662.8</ele>
        <time>2022-08-24T09:14:20Z</time>
      </trkpt>
      <trkpt lat="43.82616" lon="5.65384">
        <ele>662.7</ele>
        <time>2022-08-24T09:14:21Z</time>
      </trkpt>
      <trkpt lat="43.82611" lon="5.65384">
        <ele>662.6</ele>
        <time>2022-08-24T09:14:22Z</time>
      </trkpt>
      <trkpt lat="43.82605" lon="5.65383">
        <ele>662</ele>
        <time>2022-08-24T09:14:23Z</time>
      </trkpt>
      <trkpt lat="43.82599" lon="5.65384">
        <ele>661.5</ele>
        <time>2022-08-24T09:14:24Z</time>
      </trkpt>
      <trkpt lat="43.82592" lon="5.65383">
        <ele>660.9</ele>
        <time>2022-08-24T09:14:25Z</time>
      </trkpt>
      <trkpt lat="43.82585" lon="5.65383">
        <ele>660</ele>
        <time>2022-08-24T09:14:26Z</time>
      </trkpt>
      <trkpt lat="43.82577" lon="5.65382">
        <ele>658.8</ele>
        <time>2022-08-24T09:14:27Z</time>
      </trkpt>
      <trkpt lat="43.8257" lon="5.65381">
        <ele>657.5</ele>
        <time>2022-08-24T09:14:28Z</time>
      </trkpt>
      <trkpt lat="43.82562" lon="5.65383">
        <ele>656.8</ele>
        <time>2022-08-24T09:14:29Z</time>
      </trkpt>
      <trkpt lat="43.82555" lon="5.65385">
        <ele>656.2</ele>
        <time>2022-08-24T09:14:30Z</time>
      </trkpt>
      <trkpt lat="43.82547" lon="5.65385">
        <ele>655.7</ele>
        <time>2022-08-24T09:14:31Z</time>
      </trkpt>
      <trkpt lat="43.82539" lon="5.65385">
        <ele>655.4</ele>
        <time>2022-08-24T09:14:32Z</time>
      </trkpt>
      <trkpt lat="43.8253" lon="5.65384">
        <ele>654.6</ele>
        <time>2022-08-24T09:14:33Z</time>
      </trkpt>
      <trkpt lat="43.82521" lon="5.65382">
        <ele>653.4</ele>
        <time>2022-08-24T09:14:34Z</time>
      </trkpt>
      <trkpt lat="43.82513" lon="5.65381">
        <ele>652.6</ele>
        <time>2022-08-24T09:14:35Z</time>
      </trkpt>
      <trkpt lat="43.82504" lon="5.65381">
        <ele>651.9</ele>
        <time>2022-08-24T09:14:36Z</time>
      </trkpt>
      <trkpt lat="43.82495" lon="5.65379">
        <ele>650.5</ele>
        <time>2022-08-24T09:14:37Z</time>
      </trkpt>
      <trkpt lat="43.82484" lon="5.6538">
        <ele>649.2</ele>
        <time>2022-08-24T09:14:38Z</time>
      </trkpt>
      <trkpt lat="43.82476" lon="5.65383">
        <ele>648.9</ele>
        <time>2022-08-24T09:14:39Z</time>
      </trkpt>
      <trkpt lat="43.82467" lon="5.65385">
        <ele>648.5</ele>
        <time>2022-08-24T09:14:40Z</time>
      </trkpt>
      <trkpt lat="43.82458" lon="5.65389">
        <ele>647.9</ele>
        <time>2022-08-24T09:14:41Z</time>
      </trkpt>
      <trkpt lat="43.82449" lon="5.65392">
        <ele>647.6</ele>
        <time>2022-08-24T09:14:42Z</time>
      </trkpt>
      <trkpt lat="43.8244" lon="5.65397">
        <ele>647.6</ele>
        <time>2022-08-24T09:14:43Z</time>
      </trkpt>
      <trkpt lat="43.82431" lon="5.65401">
        <ele>647.3</ele>
        <time>2022-08-24T09:14:44Z</time>
      </trkpt>
      <trkpt lat="43.82421" lon="5.65403">
        <ele>646.2</ele>
        <time>2022-08-24T09:14:45Z</time>
      </trkpt>
      <trkpt lat="43.82411" lon="5.65404">
        <ele>644.9</ele>
        <time>2022-08-24T09:14:46Z</time>
      </trkpt>
      <trkpt lat="43.82401" lon="5.65404">
        <ele>643.4</ele>
        <time>2022-08-24T09:14:47Z</time>
      </trkpt>
      <trkpt lat="43.82391" lon="5.65405">
        <ele>642.2</ele>
        <time>2022-08-24T09:14:48Z</time>
      </trkpt>
      <trkpt lat="43.82381" lon="5.65407">
        <ele>640.2</ele>
        <time>2022-08-24T09:14:49Z</time>
      </trkpt>
      <trkpt lat="43.82372" lon="5.65414">
        <ele>639.5</ele>
        <time>2022-08-24T09:14:50Z</time>
      </trkpt>
      <trkpt lat="43.82364" lon="5.65419">
        <ele>639.2</ele>
        <time>2022-08-24T09:14:51Z</time>
      </trkpt>
      <trkpt lat="43.82354" lon="5.65424">
        <ele>638.5</ele>
        <time>2022-08-24T09:14:52Z</time>
      </trkpt>
      <trkpt lat="43.82344" lon="5.65429">
        <ele>637</ele>
        <time>2022-08-24T09:14:53Z</time>
      </trkpt>
      <trkpt lat="43.82335" lon="5.65431">
        <ele>634.9</ele>
        <time>2022-08-24T09:14:54Z</time>
      </trkpt>
      <trkpt lat="43.82325" lon="5.65433">
        <ele>633</ele>
        <time>2022-08-24T09:14:55Z</time>
      </trkpt>
      <trkpt lat="43.82314" lon="5.65435">
        <ele>631.3</ele>
        <time>2022-08-24T09:14:56Z</time>
      </trkpt>
      <trkpt lat="43.82303" lon="5.65441">
        <ele>630.5</ele>
        <time>2022-08-24T09:14:57Z</time>
      </trkpt>
      <trkpt lat="43.82293" lon="5.65447">
        <ele>630.2</ele>
        <time>2022-08-24T09:14:58Z</time>
      </trkpt>
      <trkpt lat="43.82284" lon="5.65454">
        <ele>629.7</ele>
        <time>2022-08-24T09:14:59Z</time>
      </trkpt>
      <trkpt lat="43.82275" lon="5.6546">
        <ele>628.8</ele>
        <time>2022-08-24T09:15:00Z</time>
      </trkpt>
      <trkpt lat="43.82266" lon="5.65466">
        <ele>628.4</ele>
        <time>2022-08-24T09:15:01Z</time>
      </trkpt>
      <trkpt lat="43.82258" lon="5.65472">
        <ele>628</ele>
        <time>2022-08-24T09:15:02Z</time>
      </trkpt>
      <trkpt lat="43.82249" lon="5.65478">
        <ele>627.6</ele>
        <time>2022-08-24T09:15:03Z</time>
      </trkpt>
      <trkpt lat="43.82242" lon="5.65485">
        <ele>627.5</ele>
        <time>2022-08-24T09:15:04Z</time>
      </trkpt>
      <trkpt lat="43.82235" lon="5.65491">
        <ele>627.4</ele>
        <time>2022-08-24T09:15:05Z</time>
      </trkpt>
      <trkpt lat="43.82224" lon="5.65495">
        <ele>626.5</ele>
        <time>2022-08-24T09:15:06Z</time>
      </trkpt>
      <trkpt lat="43.82216" lon="5.655">
        <ele>626.2</ele>
        <time>2022-08-24T09:15:07Z</time>
      </trkpt>
      <trkpt lat="43.82209" lon="5.65504">
        <ele>625.9</ele>
        <time>2022-08-24T09:15:08Z</time>
      </trkpt>
      <trkpt lat="43.82201" lon="5.6551">
        <ele>626</ele>
        <time>2022-08-24T09:15:09Z</time>
      </trkpt>
      <trkpt lat="43.82193" lon="5.65515">
        <ele>626.1</ele>
        <time>2022-08-24T09:15:10Z</time>
      </trkpt>
      <trkpt lat="43.82185" lon="5.65519">
        <ele>625.9</ele>
        <time>2022-08-24T09:15:11Z</time>
      </trkpt>
      <trkpt lat="43.82176" lon="5.65521">
        <ele>625.7</ele>
        <time>2022-08-24T09:15:12Z</time>
      </trkpt>
      <trkpt lat="43.82169" lon="5.65525">
        <ele>625.6</ele>
        <time>2022-08-24T09:15:13Z</time>
      </trkpt>
      <trkpt lat="43.82161" lon="5.65528">
        <ele>625.1</ele>
        <time>2022-08-24T09:15:14Z</time>
      </trkpt>
      <trkpt lat="43.82151" lon="5.6553">
        <ele>624.6</ele>
        <time>2022-08-24T09:15:15Z</time>
      </trkpt>
      <trkpt lat="43.82143" lon="5.65532">
        <ele>623.9</ele>
        <time>2022-08-24T09:15:16Z</time>
      </trkpt>
      <trkpt lat="43.82135" lon="5.65535">
        <ele>623.9</ele>
        <time>2022-08-24T09:15:17Z</time>
      </trkpt>
      <trkpt lat="43.82127" lon="5.65539">
        <ele>624.5</ele>
        <time>2022-08-24T09:15:18Z</time>
      </trkpt>
      <trkpt lat="43.82119" lon="5.6554">
        <ele>624</ele>
        <time>2022-08-24T09:15:19Z</time>
      </trkpt>
      <trkpt lat="43.8211" lon="5.65541">
        <ele>623.4</ele>
        <time>2022-08-24T09:15:20Z</time>
      </trkpt>
      <trkpt lat="43.82101" lon="5.65543">
        <ele>623.1</ele>
        <time>2022-08-24T09:15:21Z</time>
      </trkpt>
      <trkpt lat="43.82093" lon="5.65545">
        <ele>623</ele>
        <time>2022-08-24T09:15:22Z</time>
      </trkpt>
      <trkpt lat="43.82069" lon="5.65548">
        <ele>622.5</ele>
        <time>2022-08-24T09:15:25Z</time>
      </trkpt>
      <trkpt lat="43.82061" lon="5.65549">
        <ele>622.3</ele>
        <time>2022-08-24T09:15:26Z</time>
      </trkpt>
      <trkpt lat="43.82054" lon="5.65549">
        <ele>622</ele>
        <time>2022-08-24T09:15:27Z</time>
      </trkpt>
      <trkpt lat="43.82046" lon="5.65549">
        <ele>621.7</ele>
        <time>2022-08-24T09:15:28Z</time>
      </trkpt>
      <trkpt lat="43.82038" lon="5.6555">
        <ele>621.4</ele>
        <time>2022-08-24T09:15:29Z</time>
      </trkpt>
      <trkpt lat="43.82031" lon="5.65551">
        <ele>621.4</ele>
        <time>2022-08-24T09:15:30Z</time>
      </trkpt>
      <trkpt lat="43.82024" lon="5.65551">
        <ele>620.9</ele>
        <time>2022-08-24T09:15:31Z</time>
      </trkpt>
      <trkpt lat="43.82018" lon="5.6555">
        <ele>620.2</ele>
        <time>2022-08-24T09:15:32Z</time>
      </trkpt>
      <trkpt lat="43.82014" lon="5.65555">
        <ele>620.9</ele>
        <time>2022-08-24T09:15:33Z</time>
      </trkpt>
      <trkpt lat="43.82007" lon="5.65558">
        <ele>620.9</ele>
        <time>2022-08-24T09:15:34Z</time>
      </trkpt>
      <trkpt lat="43.82001" lon="5.65561">
        <ele>621</ele>
        <time>2022-08-24T09:15:35Z</time>
      </trkpt>
      <trkpt lat="43.81995" lon="5.65565">
        <ele>621.2</ele>
        <time>2022-08-24T09:15:36Z</time>
      </trkpt>
      <trkpt lat="43.81989" lon="5.65568">
        <ele>621.1</ele>
        <time>2022-08-24T09:15:37Z</time>
      </trkpt>
      <trkpt lat="43.81984" lon="5.65571">
        <ele>621.1</ele>
        <time>2022-08-24T09:15:38Z</time>
      </trkpt>
      <trkpt lat="43.81978" lon="5.65577">
        <ele>621.5</ele>
        <time>2022-08-24T09:15:39Z</time>
      </trkpt>
      <trkpt lat="43.81973" lon="5.6558">
        <ele>621.6</ele>
        <time>2022-08-24T09:15:40Z</time>
      </trkpt>
      <trkpt lat="43.81968" lon="5.65585">
        <ele>621.6</ele>
        <time>2022-08-24T09:15:41Z</time>
      </trkpt>
      <trkpt lat="43.81963" lon="5.65589">
        <ele>621.2</ele>
        <time>2022-08-24T09:15:42Z</time>
      </trkpt>
      <trkpt lat="43.81957" lon="5.65593">
        <ele>620.8</ele>
        <time>2022-08-24T09:15:43Z</time>
      </trkpt>
      <trkpt lat="43.81951" lon="5.65596">
        <ele>620.3</ele>
        <time>2022-08-24T09:15:44Z</time>
      </trkpt>
      <trkpt lat="43.81946" lon="5.65601">
        <ele>620.1</ele>
        <time>2022-08-24T09:15:45Z</time>
      </trkpt>
      <trkpt lat="43.81942" lon="5.65606">
        <ele>620.2</ele>
        <time>2022-08-24T09:15:46Z</time>
      </trkpt>
      <trkpt lat="43.81938" lon="5.65611">
        <ele>620.5</ele>
        <time>2022-08-24T09:15:47Z</time>
      </trkpt>
      <trkpt lat="43.81935" lon="5.65617">
        <ele>620.8</ele>
        <time>2022-08-24T09:15:48Z</time>
      </trkpt>
      <trkpt lat="43.81929" lon="5.65621">
        <ele>620.8</ele>
        <time>2022-08-24T09:15:49Z</time>
      </trkpt>
      <trkpt lat="43.81923" lon="5.65622">
        <ele>620.6</ele>
        <time>2022-08-24T09:15:50Z</time>
      </trkpt>
      <trkpt lat="43.81916" lon="5.65623">
        <ele>620.3</ele>
        <time>2022-08-24T09:15:51Z</time>
      </trkpt>
      <trkpt lat="43.81907" lon="5.65626">
        <ele>620.6</ele>
        <time>2022-08-24T09:15:53Z</time>
      </trkpt>
      <trkpt lat="43.81898" lon="5.6562">
        <ele>620.2</ele>
        <time>2022-08-24T09:15:55Z</time>
      </trkpt>
      <trkpt lat="43.81895" lon="5.65614">
        <ele>619.9</ele>
        <time>2022-08-24T09:15:56Z</time>
      </trkpt>
      <trkpt lat="43.8189" lon="5.65606">
        <ele>619.6</ele>
        <time>2022-08-24T09:15:57Z</time>
      </trkpt>
      <trkpt lat="43.81886" lon="5.65598">
        <ele>619.4</ele>
        <time>2022-08-24T09:15:58Z</time>
      </trkpt>
      <trkpt lat="43.81884" lon="5.65589">
        <ele>619.2</ele>
        <time>2022-08-24T09:15:59Z</time>
      </trkpt>
      <trkpt lat="43.81882" lon="5.65582">
        <ele>619</ele>
        <time>2022-08-24T09:16:00Z</time>
      </trkpt>
      <trkpt lat="43.8188" lon="5.65574">
        <ele>619.2</ele>
        <time>2022-08-24T09:16:01Z</time>
      </trkpt>
      <trkpt lat="43.81879" lon="5.65567">
        <ele>619.3</ele>
        <time>2022-08-24T09:16:02Z</time>
      </trkpt>
      <trkpt lat="43.81877" lon="5.65559">
        <ele>619.6</ele>
        <time>2022-08-24T09:16:03Z</time>
      </trkpt>
      <trkpt lat="43.81876" lon="5.65551">
        <ele>619.6</ele>
        <time>2022-08-24T09:16:04Z</time>
      </trkpt>
      <trkpt lat="43.81875" lon="5.65542">
        <ele>619.6</ele>
        <time>2022-08-24T09:16:05Z</time>
      </trkpt>
      <trkpt lat="43.81872" lon="5.65534">
        <ele>619.7</ele>
        <time>2022-08-24T09:16:06Z</time>
      </trkpt>
      <trkpt lat="43.81871" lon="5.65527">
        <ele>619.6</ele>
        <time>2022-08-24T09:16:07Z</time>
      </trkpt>
      <trkpt lat="43.81869" lon="5.65519">
        <ele>619.8</ele>
        <time>2022-08-24T09:16:08Z</time>
      </trkpt>
      <trkpt lat="43.81866" lon="5.65511">
        <ele>620.2</ele>
        <time>2022-08-24T09:16:09Z</time>
      </trkpt>
      <trkpt lat="43.81863" lon="5.65504">
        <ele>620.7</ele>
        <time>2022-08-24T09:16:10Z</time>
      </trkpt>
      <trkpt lat="43.81859" lon="5.65496">
        <ele>621.1</ele>
        <time>2022-08-24T09:16:11Z</time>
      </trkpt>
      <trkpt lat="43.81855" lon="5.65489">
        <ele>621.3</ele>
        <time>2022-08-24T09:16:12Z</time>
      </trkpt>
      <trkpt lat="43.81848" lon="5.65476">
        <ele>621.3</ele>
        <time>2022-08-24T09:16:14Z</time>
      </trkpt>
      <trkpt lat="43.81843" lon="5.6547">
        <ele>621.5</ele>
        <time>2022-08-24T09:16:15Z</time>
      </trkpt>
      <trkpt lat="43.81839" lon="5.65464">
        <ele>621.8</ele>
        <time>2022-08-24T09:16:16Z</time>
      </trkpt>
      <trkpt lat="43.81835" lon="5.65458">
        <ele>622.3</ele>
        <time>2022-08-24T09:16:17Z</time>
      </trkpt>
      <trkpt lat="43.81831" lon="5.65452">
        <ele>622.6</ele>
        <time>2022-08-24T09:16:18Z</time>
      </trkpt>
      <trkpt lat="43.81828" lon="5.65446">
        <ele>622.7</ele>
        <time>2022-08-24T09:16:19Z</time>
      </trkpt>
      <trkpt lat="43.81824" lon="5.65441">
        <ele>622.8</ele>
        <time>2022-08-24T09:16:20Z</time>
      </trkpt>
      <trkpt lat="43.8182" lon="5.65435">
        <ele>622.9</ele>
        <time>2022-08-24T09:16:21Z</time>
      </trkpt>
      <trkpt lat="43.81817" lon="5.65429">
        <ele>623</ele>
        <time>2022-08-24T09:16:22Z</time>
      </trkpt>
      <trkpt lat="43.81813" lon="5.65422">
        <ele>623.2</ele>
        <time>2022-08-24T09:16:23Z</time>
      </trkpt>
      <trkpt lat="43.8181" lon="5.65415">
        <ele>623.4</ele>
        <time>2022-08-24T09:16:24Z</time>
      </trkpt>
      <trkpt lat="43.81805" lon="5.65409">
        <ele>623.7</ele>
        <time>2022-08-24T09:16:25Z</time>
      </trkpt>
      <trkpt lat="43.81801" lon="5.65403">
        <ele>624</ele>
        <time>2022-08-24T09:16:26Z</time>
      </trkpt>
      <trkpt lat="43.81797" lon="5.65396">
        <ele>624.2</ele>
        <time>2022-08-24T09:16:27Z</time>
      </trkpt>
      <trkpt lat="43.81792" lon="5.65389">
        <ele>624.4</ele>
        <time>2022-08-24T09:16:28Z</time>
      </trkpt>
      <trkpt lat="43.81788" lon="5.65381">
        <ele>624.2</ele>
        <time>2022-08-24T09:16:29Z</time>
      </trkpt>
      <trkpt lat="43.81784" lon="5.65375">
        <ele>624.1</ele>
        <time>2022-08-24T09:16:30Z</time>
      </trkpt>
      <trkpt lat="43.81781" lon="5.65368">
        <ele>624.1</ele>
        <time>2022-08-24T09:16:31Z</time>
      </trkpt>
      <trkpt lat="43.81777" lon="5.65361">
        <ele>624.1</ele>
        <time>2022-08-24T09:16:32Z</time>
      </trkpt>
      <trkpt lat="43.81773" lon="5.65354">
        <ele>623.7</ele>
        <time>2022-08-24T09:16:33Z</time>
      </trkpt>
      <trkpt lat="43.8177" lon="5.65347">
        <ele>623.4</ele>
        <time>2022-08-24T09:16:34Z</time>
      </trkpt>
      <trkpt lat="43.81767" lon="5.65341">
        <ele>623</ele>
        <time>2022-08-24T09:16:35Z</time>
      </trkpt>
      <trkpt lat="43.81763" lon="5.65335">
        <ele>622.8</ele>
        <time>2022-08-24T09:16:36Z</time>
      </trkpt>
      <trkpt lat="43.8176" lon="5.65328">
        <ele>622.8</ele>
        <time>2022-08-24T09:16:37Z</time>
      </trkpt>
      <trkpt lat="43.81756" lon="5.6532">
        <ele>623.1</ele>
        <time>2022-08-24T09:16:38Z</time>
      </trkpt>
      <trkpt lat="43.81752" lon="5.65313">
        <ele>623.7</ele>
        <time>2022-08-24T09:16:39Z</time>
      </trkpt>
      <trkpt lat="43.81748" lon="5.65306">
        <ele>624.3</ele>
        <time>2022-08-24T09:16:40Z</time>
      </trkpt>
      <trkpt lat="43.81745" lon="5.653">
        <ele>624.2</ele>
        <time>2022-08-24T09:16:41Z</time>
      </trkpt>
      <trkpt lat="43.81741" lon="5.65294">
        <ele>624.2</ele>
        <time>2022-08-24T09:16:42Z</time>
      </trkpt>
      <trkpt lat="43.81737" lon="5.65287">
        <ele>624.2</ele>
        <time>2022-08-24T09:16:43Z</time>
      </trkpt>
      <trkpt lat="43.81734" lon="5.65281">
        <ele>624.2</ele>
        <time>2022-08-24T09:16:44Z</time>
      </trkpt>
      <trkpt lat="43.8173" lon="5.65273">
        <ele>624.4</ele>
        <time>2022-08-24T09:16:45Z</time>
      </trkpt>
      <trkpt lat="43.81727" lon="5.65267">
        <ele>624.7</ele>
        <time>2022-08-24T09:16:46Z</time>
      </trkpt>
      <trkpt lat="43.81724" lon="5.6526">
        <ele>625.1</ele>
        <time>2022-08-24T09:16:47Z</time>
      </trkpt>
      <trkpt lat="43.81721" lon="5.65253">
        <ele>625.3</ele>
        <time>2022-08-24T09:16:48Z</time>
      </trkpt>
      <trkpt lat="43.81718" lon="5.65246">
        <ele>625.4</ele>
        <time>2022-08-24T09:16:49Z</time>
      </trkpt>
      <trkpt lat="43.81714" lon="5.65241">
        <ele>625.4</ele>
        <time>2022-08-24T09:16:50Z</time>
      </trkpt>
      <trkpt lat="43.81709" lon="5.65236">
        <ele>625.5</ele>
        <time>2022-08-24T09:16:51Z</time>
      </trkpt>
      <trkpt lat="43.81705" lon="5.65231">
        <ele>625.7</ele>
        <time>2022-08-24T09:16:52Z</time>
      </trkpt>
      <trkpt lat="43.81699" lon="5.65228">
        <ele>626.1</ele>
        <time>2022-08-24T09:16:53Z</time>
      </trkpt>
      <trkpt lat="43.81694" lon="5.65224">
        <ele>626.3</ele>
        <time>2022-08-24T09:16:54Z</time>
      </trkpt>
      <trkpt lat="43.81688" lon="5.65222">
        <ele>626.2</ele>
        <time>2022-08-24T09:16:55Z</time>
      </trkpt>
      <trkpt lat="43.81683" lon="5.65219">
        <ele>626</ele>
        <time>2022-08-24T09:16:56Z</time>
      </trkpt>
      <trkpt lat="43.81678" lon="5.65216">
        <ele>625.9</ele>
        <time>2022-08-24T09:16:57Z</time>
      </trkpt>
      <trkpt lat="43.81673" lon="5.65212">
        <ele>625.8</ele>
        <time>2022-08-24T09:16:58Z</time>
      </trkpt>
      <trkpt lat="43.81667" lon="5.65208">
        <ele>625.9</ele>
        <time>2022-08-24T09:16:59Z</time>
      </trkpt>
      <trkpt lat="43.81662" lon="5.65204">
        <ele>626</ele>
        <time>2022-08-24T09:17:00Z</time>
      </trkpt>
      <trkpt lat="43.81657" lon="5.65199">
        <ele>626</ele>
        <time>2022-08-24T09:17:01Z</time>
      </trkpt>
      <trkpt lat="43.81651" lon="5.65193">
        <ele>626</ele>
        <time>2022-08-24T09:17:02Z</time>
      </trkpt>
      <trkpt lat="43.81647" lon="5.65188">
        <ele>625.9</ele>
        <time>2022-08-24T09:17:03Z</time>
      </trkpt>
      <trkpt lat="43.81641" lon="5.65183">
        <ele>626</ele>
        <time>2022-08-24T09:17:04Z</time>
      </trkpt>
      <trkpt lat="43.81636" lon="5.65177">
        <ele>626</ele>
        <time>2022-08-24T09:17:05Z</time>
      </trkpt>
      <trkpt lat="43.81631" lon="5.65172">
        <ele>626</ele>
        <time>2022-08-24T09:17:06Z</time>
      </trkpt>
      <trkpt lat="43.81627" lon="5.65167">
        <ele>625.9</ele>
        <time>2022-08-24T09:17:07Z</time>
      </trkpt>
      <trkpt lat="43.81622" lon="5.65162">
        <ele>626</ele>
        <time>2022-08-24T09:17:08Z</time>
      </trkpt>
      <trkpt lat="43.81618" lon="5.65158">
        <ele>626.1</ele>
        <time>2022-08-24T09:17:09Z</time>
      </trkpt>
      <trkpt lat="43.81612" lon="5.65153">
        <ele>626.4</ele>
        <time>2022-08-24T09:17:10Z</time>
      </trkpt>
      <trkpt lat="43.81608" lon="5.65148">
        <ele>626.5</ele>
        <time>2022-08-24T09:17:11Z</time>
      </trkpt>
      <trkpt lat="43.81603" lon="5.65143">
        <ele>626.5</ele>
        <time>2022-08-24T09:17:12Z</time>
      </trkpt>
      <trkpt lat="43.81598" lon="5.65137">
        <ele>626.4</ele>
        <time>2022-08-24T09:17:13Z</time>
      </trkpt>
      <trkpt lat="43.81593" lon="5.65133">
        <ele>626.4</ele>
        <time>2022-08-24T09:17:14Z</time>
      </trkpt>
      <trkpt lat="43.81588" lon="5.65128">
        <ele>626.6</ele>
        <time>2022-08-24T09:17:15Z</time>
      </trkpt>
      <trkpt lat="43.81584" lon="5.65121">
        <ele>627</ele>
        <time>2022-08-24T09:17:16Z</time>
      </trkpt>
      <trkpt lat="43.8158" lon="5.65115">
        <ele>627.1</ele>
        <time>2022-08-24T09:17:17Z</time>
      </trkpt>
      <trkpt lat="43.81576" lon="5.65108">
        <ele>627.1</ele>
        <time>2022-08-24T09:17:18Z</time>
      </trkpt>
      <trkpt lat="43.81574" lon="5.651">
        <ele>626.7</ele>
        <time>2022-08-24T09:17:19Z</time>
      </trkpt>
      <trkpt lat="43.81571" lon="5.65092">
        <ele>626.4</ele>
        <time>2022-08-24T09:17:20Z</time>
      </trkpt>
      <trkpt lat="43.81568" lon="5.65085">
        <ele>626.2</ele>
        <time>2022-08-24T09:17:21Z</time>
      </trkpt>
      <trkpt lat="43.81566" lon="5.65077">
        <ele>626.2</ele>
        <time>2022-08-24T09:17:22Z</time>
      </trkpt>
      <trkpt lat="43.81565" lon="5.65069">
        <ele>626.3</ele>
        <time>2022-08-24T09:17:23Z</time>
      </trkpt>
      <trkpt lat="43.81562" lon="5.65062">
        <ele>626.5</ele>
        <time>2022-08-24T09:17:24Z</time>
      </trkpt>
      <trkpt lat="43.81561" lon="5.65054">
        <ele>626.6</ele>
        <time>2022-08-24T09:17:25Z</time>
      </trkpt>
      <trkpt lat="43.81559" lon="5.65046">
        <ele>626.8</ele>
        <time>2022-08-24T09:17:26Z</time>
      </trkpt>
      <trkpt lat="43.81557" lon="5.65039">
        <ele>626.9</ele>
        <time>2022-08-24T09:17:27Z</time>
      </trkpt>
      <trkpt lat="43.81555" lon="5.65033">
        <ele>627.1</ele>
        <time>2022-08-24T09:17:28Z</time>
      </trkpt>
      <trkpt lat="43.81553" lon="5.65026">
        <ele>627.2</ele>
        <time>2022-08-24T09:17:29Z</time>
      </trkpt>
      <trkpt lat="43.8155" lon="5.65021">
        <ele>627.2</ele>
        <time>2022-08-24T09:17:30Z</time>
      </trkpt>
      <trkpt lat="43.81546" lon="5.65015">
        <ele>627.2</ele>
        <time>2022-08-24T09:17:31Z</time>
      </trkpt>
      <trkpt lat="43.81544" lon="5.6501">
        <ele>627.2</ele>
        <time>2022-08-24T09:17:32Z</time>
      </trkpt>
      <trkpt lat="43.81543" lon="5.65004">
        <ele>627</ele>
        <time>2022-08-24T09:17:33Z</time>
      </trkpt>
      <trkpt lat="43.81543" lon="5.64995">
        <ele>626.9</ele>
        <time>2022-08-24T09:17:34Z</time>
      </trkpt>
      <trkpt lat="43.81542" lon="5.64986">
        <ele>627</ele>
        <time>2022-08-24T09:17:35Z</time>
      </trkpt>
      <trkpt lat="43.81544" lon="5.64979">
        <ele>626.8</ele>
        <time>2022-08-24T09:17:36Z</time>
      </trkpt>
      <trkpt lat="43.81545" lon="5.64971">
        <ele>626.8</ele>
        <time>2022-08-24T09:17:37Z</time>
      </trkpt>
      <trkpt lat="43.81545" lon="5.64963">
        <ele>627.1</ele>
        <time>2022-08-24T09:17:38Z</time>
      </trkpt>
      <trkpt lat="43.81546" lon="5.64954">
        <ele>627.4</ele>
        <time>2022-08-24T09:17:39Z</time>
      </trkpt>
      <trkpt lat="43.81547" lon="5.64947">
        <ele>627.6</ele>
        <time>2022-08-24T09:17:40Z</time>
      </trkpt>
      <trkpt lat="43.81549" lon="5.6494">
        <ele>627.8</ele>
        <time>2022-08-24T09:17:41Z</time>
      </trkpt>
      <trkpt lat="43.81547" lon="5.64932">
        <ele>628.5</ele>
        <time>2022-08-24T09:17:42Z</time>
      </trkpt>
      <trkpt lat="43.81551" lon="5.6492">
        <ele>629.1</ele>
        <time>2022-08-24T09:17:44Z</time>
      </trkpt>
      <trkpt lat="43.81555" lon="5.64909">
        <ele>629.3</ele>
        <time>2022-08-24T09:17:46Z</time>
      </trkpt>
      <trkpt lat="43.8156" lon="5.64895">
        <ele>629.3</ele>
        <time>2022-08-24T09:17:48Z</time>
      </trkpt>
      <trkpt lat="43.81566" lon="5.64886">
        <ele>629.1</ele>
        <time>2022-08-24T09:17:50Z</time>
      </trkpt>
      <trkpt lat="43.81567" lon="5.6488">
        <ele>629.2</ele>
        <time>2022-08-24T09:17:51Z</time>
      </trkpt>
      <trkpt lat="43.8157" lon="5.64873">
        <ele>629.3</ele>
        <time>2022-08-24T09:17:52Z</time>
      </trkpt>
      <trkpt lat="43.81574" lon="5.64865">
        <ele>629.4</ele>
        <time>2022-08-24T09:17:53Z</time>
      </trkpt>
      <trkpt lat="43.81579" lon="5.64857">
        <ele>629.3</ele>
        <time>2022-08-24T09:17:54Z</time>
      </trkpt>
      <trkpt lat="43.81581" lon="5.64849">
        <ele>629.2</ele>
        <time>2022-08-24T09:17:55Z</time>
      </trkpt>
      <trkpt lat="43.81585" lon="5.64841">
        <ele>628.8</ele>
        <time>2022-08-24T09:17:56Z</time>
      </trkpt>
      <trkpt lat="43.81587" lon="5.64833">
        <ele>628.6</ele>
        <time>2022-08-24T09:17:57Z</time>
      </trkpt>
      <trkpt lat="43.81591" lon="5.64824">
        <ele>628.2</ele>
        <time>2022-08-24T09:17:58Z</time>
      </trkpt>
      <trkpt lat="43.81594" lon="5.64815">
        <ele>627.8</ele>
        <time>2022-08-24T09:17:59Z</time>
      </trkpt>
      <trkpt lat="43.81598" lon="5.64809">
        <ele>627.4</ele>
        <time>2022-08-24T09:18:00Z</time>
      </trkpt>
      <trkpt lat="43.81601" lon="5.648">
        <ele>627</ele>
        <time>2022-08-24T09:18:01Z</time>
      </trkpt>
      <trkpt lat="43.81605" lon="5.64791">
        <ele>626.5</ele>
        <time>2022-08-24T09:18:02Z</time>
      </trkpt>
      <trkpt lat="43.81609" lon="5.64785">
        <ele>626.2</ele>
        <time>2022-08-24T09:18:03Z</time>
      </trkpt>
      <trkpt lat="43.81613" lon="5.64776">
        <ele>625.7</ele>
        <time>2022-08-24T09:18:04Z</time>
      </trkpt>
      <trkpt lat="43.81616" lon="5.64766">
        <ele>624.6</ele>
        <time>2022-08-24T09:18:05Z</time>
      </trkpt>
      <trkpt lat="43.81619" lon="5.64757">
        <ele>623.6</ele>
        <time>2022-08-24T09:18:06Z</time>
      </trkpt>
      <trkpt lat="43.81622" lon="5.64746">
        <ele>622.8</ele>
        <time>2022-08-24T09:18:07Z</time>
      </trkpt>
      <trkpt lat="43.81627" lon="5.64738">
        <ele>622.3</ele>
        <time>2022-08-24T09:18:08Z</time>
      </trkpt>
      <trkpt lat="43.81634" lon="5.64728">
        <ele>622</ele>
        <time>2022-08-24T09:18:09Z</time>
      </trkpt>
      <trkpt lat="43.8164" lon="5.6472">
        <ele>621.9</ele>
        <time>2022-08-24T09:18:10Z</time>
      </trkpt>
      <trkpt lat="43.81645" lon="5.64713">
        <ele>621.4</ele>
        <time>2022-08-24T09:18:11Z</time>
      </trkpt>
      <trkpt lat="43.81651" lon="5.64703">
        <ele>621</ele>
        <time>2022-08-24T09:18:12Z</time>
      </trkpt>
      <trkpt lat="43.81656" lon="5.64694">
        <ele>620.8</ele>
        <time>2022-08-24T09:18:13Z</time>
      </trkpt>
      <trkpt lat="43.81662" lon="5.64687">
        <ele>620.6</ele>
        <time>2022-08-24T09:18:14Z</time>
      </trkpt>
      <trkpt lat="43.81668" lon="5.64679">
        <ele>620.4</ele>
        <time>2022-08-24T09:18:15Z</time>
      </trkpt>
      <trkpt lat="43.81674" lon="5.64671">
        <ele>619.7</ele>
        <time>2022-08-24T09:18:16Z</time>
      </trkpt>
      <trkpt lat="43.81681" lon="5.64665">
        <ele>619.1</ele>
        <time>2022-08-24T09:18:17Z</time>
      </trkpt>
      <trkpt lat="43.81689" lon="5.6466">
        <ele>618.3</ele>
        <time>2022-08-24T09:18:18Z</time>
      </trkpt>
      <trkpt lat="43.81697" lon="5.64657">
        <ele>617.2</ele>
        <time>2022-08-24T09:18:19Z</time>
      </trkpt>
      <trkpt lat="43.81703" lon="5.64649">
        <ele>616.8</ele>
        <time>2022-08-24T09:18:20Z</time>
      </trkpt>
      <trkpt lat="43.81709" lon="5.64641">
        <ele>616.3</ele>
        <time>2022-08-24T09:18:21Z</time>
      </trkpt>
      <trkpt lat="43.81717" lon="5.64636">
        <ele>615.2</ele>
        <time>2022-08-24T09:18:22Z</time>
      </trkpt>
      <trkpt lat="43.81725" lon="5.6463">
        <ele>614.7</ele>
        <time>2022-08-24T09:18:23Z</time>
      </trkpt>
      <trkpt lat="43.81732" lon="5.64624">
        <ele>614.4</ele>
        <time>2022-08-24T09:18:24Z</time>
      </trkpt>
      <trkpt lat="43.81739" lon="5.64618">
        <ele>613.9</ele>
        <time>2022-08-24T09:18:25Z</time>
      </trkpt>
      <trkpt lat="43.81747" lon="5.64612">
        <ele>613.3</ele>
        <time>2022-08-24T09:18:26Z</time>
      </trkpt>
      <trkpt lat="43.81756" lon="5.64607">
        <ele>612.5</ele>
        <time>2022-08-24T09:18:27Z</time>
      </trkpt>
      <trkpt lat="43.81764" lon="5.64603">
        <ele>611.9</ele>
        <time>2022-08-24T09:18:28Z</time>
      </trkpt>
      <trkpt lat="43.81772" lon="5.64598">
        <ele>611.2</ele>
        <time>2022-08-24T09:18:29Z</time>
      </trkpt>
      <trkpt lat="43.81781" lon="5.64594">
        <ele>610.3</ele>
        <time>2022-08-24T09:18:30Z</time>
      </trkpt>
      <trkpt lat="43.81791" lon="5.64592">
        <ele>609.1</ele>
        <time>2022-08-24T09:18:31Z</time>
      </trkpt>
      <trkpt lat="43.81801" lon="5.64586">
        <ele>608.4</ele>
        <time>2022-08-24T09:18:32Z</time>
      </trkpt>
      <trkpt lat="43.81811" lon="5.64582">
        <ele>607.1</ele>
        <time>2022-08-24T09:18:33Z</time>
      </trkpt>
      <trkpt lat="43.81819" lon="5.64574">
        <ele>606.8</ele>
        <time>2022-08-24T09:18:34Z</time>
      </trkpt>
      <trkpt lat="43.81827" lon="5.64567">
        <ele>606.7</ele>
        <time>2022-08-24T09:18:35Z</time>
      </trkpt>
      <trkpt lat="43.81848" lon="5.64545">
        <ele>605.4</ele>
        <time>2022-08-24T09:18:38Z</time>
      </trkpt>
      <trkpt lat="43.81849" lon="5.64534">
        <ele>606.4</ele>
        <time>2022-08-24T09:18:39Z</time>
      </trkpt>
      <trkpt lat="43.81851" lon="5.64523">
        <ele>606.1</ele>
        <time>2022-08-24T09:18:40Z</time>
      </trkpt>
      <trkpt lat="43.81851" lon="5.64513">
        <ele>605.7</ele>
        <time>2022-08-24T09:18:41Z</time>
      </trkpt>
      <trkpt lat="43.8185" lon="5.64502">
        <ele>606</ele>
        <time>2022-08-24T09:18:42Z</time>
      </trkpt>
      <trkpt lat="43.81848" lon="5.64492">
        <ele>605.8</ele>
        <time>2022-08-24T09:18:43Z</time>
      </trkpt>
      <trkpt lat="43.81846" lon="5.64482">
        <ele>605.5</ele>
        <time>2022-08-24T09:18:44Z</time>
      </trkpt>
      <trkpt lat="43.81843" lon="5.64471">
        <ele>605.5</ele>
        <time>2022-08-24T09:18:45Z</time>
      </trkpt>
      <trkpt lat="43.81843" lon="5.6446">
        <ele>605.4</ele>
        <time>2022-08-24T09:18:46Z</time>
      </trkpt>
      <trkpt lat="43.81845" lon="5.64449">
        <ele>604.4</ele>
        <time>2022-08-24T09:18:47Z</time>
      </trkpt>
      <trkpt lat="43.81849" lon="5.64438">
        <ele>603.4</ele>
        <time>2022-08-24T09:18:48Z</time>
      </trkpt>
      <trkpt lat="43.81854" lon="5.64429">
        <ele>602.4</ele>
        <time>2022-08-24T09:18:49Z</time>
      </trkpt>
      <trkpt lat="43.81856" lon="5.64417">
        <ele>603</ele>
        <time>2022-08-24T09:18:50Z</time>
      </trkpt>
      <trkpt lat="43.81858" lon="5.64406">
        <ele>603.3</ele>
        <time>2022-08-24T09:18:51Z</time>
      </trkpt>
      <trkpt lat="43.8186" lon="5.64395">
        <ele>603.9</ele>
        <time>2022-08-24T09:18:52Z</time>
      </trkpt>
      <trkpt lat="43.81865" lon="5.64388">
        <ele>602.6</ele>
        <time>2022-08-24T09:18:53Z</time>
      </trkpt>
      <trkpt lat="43.81867" lon="5.64376">
        <ele>602.2</ele>
        <time>2022-08-24T09:18:54Z</time>
      </trkpt>
      <trkpt lat="43.81868" lon="5.64366">
        <ele>601.8</ele>
        <time>2022-08-24T09:18:55Z</time>
      </trkpt>
      <trkpt lat="43.8187" lon="5.64356">
        <ele>601.6</ele>
        <time>2022-08-24T09:18:56Z</time>
      </trkpt>
      <trkpt lat="43.81873" lon="5.64346">
        <ele>601.5</ele>
        <time>2022-08-24T09:18:57Z</time>
      </trkpt>
      <trkpt lat="43.81875" lon="5.64337">
        <ele>601.4</ele>
        <time>2022-08-24T09:18:58Z</time>
      </trkpt>
      <trkpt lat="43.81876" lon="5.64328">
        <ele>601.6</ele>
        <time>2022-08-24T09:18:59Z</time>
      </trkpt>
      <trkpt lat="43.81877" lon="5.64318">
        <ele>601.5</ele>
        <time>2022-08-24T09:19:00Z</time>
      </trkpt>
      <trkpt lat="43.81877" lon="5.64308">
        <ele>601.9</ele>
        <time>2022-08-24T09:19:01Z</time>
      </trkpt>
      <trkpt lat="43.81878" lon="5.64299">
        <ele>602.3</ele>
        <time>2022-08-24T09:19:02Z</time>
      </trkpt>
      <trkpt lat="43.81879" lon="5.64291">
        <ele>602.6</ele>
        <time>2022-08-24T09:19:03Z</time>
      </trkpt>
      <trkpt lat="43.81879" lon="5.64282">
        <ele>603.4</ele>
        <time>2022-08-24T09:19:04Z</time>
      </trkpt>
      <trkpt lat="43.8188" lon="5.64274">
        <ele>603.5</ele>
        <time>2022-08-24T09:19:05Z</time>
      </trkpt>
      <trkpt lat="43.81879" lon="5.64267">
        <ele>603.9</ele>
        <time>2022-08-24T09:19:06Z</time>
      </trkpt>
      <trkpt lat="43.8188" lon="5.64259">
        <ele>604.2</ele>
        <time>2022-08-24T09:19:07Z</time>
      </trkpt>
      <trkpt lat="43.8188" lon="5.64251">
        <ele>604.5</ele>
        <time>2022-08-24T09:19:08Z</time>
      </trkpt>
      <trkpt lat="43.8188" lon="5.64244">
        <ele>604.8</ele>
        <time>2022-08-24T09:19:09Z</time>
      </trkpt>
      <trkpt lat="43.81879" lon="5.64237">
        <ele>605.2</ele>
        <time>2022-08-24T09:19:10Z</time>
      </trkpt>
      <trkpt lat="43.8188" lon="5.64229">
        <ele>605.3</ele>
        <time>2022-08-24T09:19:11Z</time>
      </trkpt>
      <trkpt lat="43.81879" lon="5.64222">
        <ele>605.8</ele>
        <time>2022-08-24T09:19:12Z</time>
      </trkpt>
      <trkpt lat="43.8188" lon="5.64215">
        <ele>605.8</ele>
        <time>2022-08-24T09:19:13Z</time>
      </trkpt>
      <trkpt lat="43.81879" lon="5.64208">
        <ele>606.5</ele>
        <time>2022-08-24T09:19:14Z</time>
      </trkpt>
      <trkpt lat="43.81878" lon="5.64196">
        <ele>607.2</ele>
        <time>2022-08-24T09:19:16Z</time>
      </trkpt>
      <trkpt lat="43.81877" lon="5.6419">
        <ele>607.7</ele>
        <time>2022-08-24T09:19:17Z</time>
      </trkpt>
      <trkpt lat="43.81874" lon="5.64178">
        <ele>608.9</ele>
        <time>2022-08-24T09:19:19Z</time>
      </trkpt>
      <trkpt lat="43.81873" lon="5.64172">
        <ele>609.5</ele>
        <time>2022-08-24T09:19:20Z</time>
      </trkpt>
      <trkpt lat="43.8187" lon="5.64163">
        <ele>610.5</ele>
        <time>2022-08-24T09:19:23Z</time>
      </trkpt>
      <trkpt lat="43.81867" lon="5.64157">
        <ele>611.6</ele>
        <time>2022-08-24T09:19:27Z</time>
      </trkpt>
      <trkpt lat="43.81866" lon="5.64152">
        <ele>612.2</ele>
        <time>2022-08-24T09:19:53Z</time>
      </trkpt>
      <trkpt lat="43.81865" lon="5.64152">
        <ele>612.3</ele>
        <time>2022-08-24T09:19:55Z</time>
      </trkpt>
      <trkpt lat="43.81861" lon="5.6415">
        <ele>614.1</ele>
        <time>2022-08-24T09:20:10Z</time>
      </trkpt>
      <trkpt lat="43.81861" lon="5.64145">
        <ele>614.1</ele>
        <time>2022-08-24T09:20:38Z</time>
      </trkpt>
      <trkpt lat="43.81862" lon="5.64138">
        <ele>613.5</ele>
        <time>2022-08-24T09:20:47Z</time>
      </trkpt>
      <trkpt lat="43.81861" lon="5.64131">
        <ele>614.2</ele>
        <time>2022-08-24T09:20:50Z</time>
      </trkpt>
      <trkpt lat="43.81858" lon="5.64118">
        <ele>615.8</ele>
        <time>2022-08-24T09:20:55Z</time>
      </trkpt>
      <trkpt lat="43.81858" lon="5.64111">
        <ele>615.7</ele>
        <time>2022-08-24T09:20:57Z</time>
      </trkpt>
      <trkpt lat="43.81858" lon="5.64104">
        <ele>615.7</ele>
        <time>2022-08-24T09:20:59Z</time>
      </trkpt>
      <trkpt lat="43.81857" lon="5.64097">
        <ele>616</ele>
        <time>2022-08-24T09:21:01Z</time>
      </trkpt>
      <trkpt lat="43.81855" lon="5.64089">
        <ele>616.9</ele>
        <time>2022-08-24T09:21:03Z</time>
      </trkpt>
      <trkpt lat="43.81853" lon="5.64081">
        <ele>617.6</ele>
        <time>2022-08-24T09:21:05Z</time>
      </trkpt>
      <trkpt lat="43.8185" lon="5.64073">
        <ele>618</ele>
        <time>2022-08-24T09:21:07Z</time>
      </trkpt>
      <trkpt lat="43.81847" lon="5.64065">
        <ele>618.4</ele>
        <time>2022-08-24T09:21:09Z</time>
      </trkpt>
      <trkpt lat="43.81842" lon="5.64056">
        <ele>619.2</ele>
        <time>2022-08-24T09:21:11Z</time>
      </trkpt>
      <trkpt lat="43.81837" lon="5.64048">
        <ele>620.1</ele>
        <time>2022-08-24T09:21:13Z</time>
      </trkpt>
      <trkpt lat="43.81831" lon="5.64041">
        <ele>620.7</ele>
        <time>2022-08-24T09:21:15Z</time>
      </trkpt>
      <trkpt lat="43.81827" lon="5.64034">
        <ele>621.2</ele>
        <time>2022-08-24T09:21:17Z</time>
      </trkpt>
      <trkpt lat="43.81823" lon="5.64028">
        <ele>621.6</ele>
        <time>2022-08-24T09:21:19Z</time>
      </trkpt>
      <trkpt lat="43.81819" lon="5.64021">
        <ele>621.8</ele>
        <time>2022-08-24T09:21:21Z</time>
      </trkpt>
      <trkpt lat="43.81814" lon="5.64013">
        <ele>622</ele>
        <time>2022-08-24T09:21:23Z</time>
      </trkpt>
      <trkpt lat="43.8181" lon="5.64006">
        <ele>622</ele>
        <time>2022-08-24T09:21:25Z</time>
      </trkpt>
      <trkpt lat="43.81806" lon="5.64">
        <ele>621.9</ele>
        <time>2022-08-24T09:21:27Z</time>
      </trkpt>
      <trkpt lat="43.81801" lon="5.63995">
        <ele>622.4</ele>
        <time>2022-08-24T09:21:29Z</time>
      </trkpt>
      <trkpt lat="43.81794" lon="5.63988">
        <ele>622.7</ele>
        <time>2022-08-24T09:21:31Z</time>
      </trkpt>
      <trkpt lat="43.81788" lon="5.63982">
        <ele>622.8</ele>
        <time>2022-08-24T09:21:33Z</time>
      </trkpt>
      <trkpt lat="43.81783" lon="5.63974">
        <ele>622.4</ele>
        <time>2022-08-24T09:21:35Z</time>
      </trkpt>
      <trkpt lat="43.81776" lon="5.63967">
        <ele>622.1</ele>
        <time>2022-08-24T09:21:37Z</time>
      </trkpt>
      <trkpt lat="43.81769" lon="5.63962">
        <ele>622.6</ele>
        <time>2022-08-24T09:21:39Z</time>
      </trkpt>
      <trkpt lat="43.81763" lon="5.63957">
        <ele>623</ele>
        <time>2022-08-24T09:21:41Z</time>
      </trkpt>
      <trkpt lat="43.81756" lon="5.63953">
        <ele>623.4</ele>
        <time>2022-08-24T09:21:43Z</time>
      </trkpt>
      <trkpt lat="43.81749" lon="5.63949">
        <ele>623.6</ele>
        <time>2022-08-24T09:21:45Z</time>
      </trkpt>
      <trkpt lat="43.81743" lon="5.63945">
        <ele>624.1</ele>
        <time>2022-08-24T09:21:47Z</time>
      </trkpt>
      <trkpt lat="43.81735" lon="5.63941">
        <ele>624.5</ele>
        <time>2022-08-24T09:21:49Z</time>
      </trkpt>
      <trkpt lat="43.81728" lon="5.63937">
        <ele>625.1</ele>
        <time>2022-08-24T09:21:51Z</time>
      </trkpt>
      <trkpt lat="43.8172" lon="5.63932">
        <ele>625.5</ele>
        <time>2022-08-24T09:21:53Z</time>
      </trkpt>
      <trkpt lat="43.81716" lon="5.63929">
        <ele>625.7</ele>
        <time>2022-08-24T09:21:54Z</time>
      </trkpt>
      <trkpt lat="43.81708" lon="5.63924">
        <ele>626</ele>
        <time>2022-08-24T09:21:56Z</time>
      </trkpt>
      <trkpt lat="43.81702" lon="5.63919">
        <ele>625.7</ele>
        <time>2022-08-24T09:21:58Z</time>
      </trkpt>
      <trkpt lat="43.81695" lon="5.63914">
        <ele>626.3</ele>
        <time>2022-08-24T09:22:00Z</time>
      </trkpt>
      <trkpt lat="43.81688" lon="5.63908">
        <ele>627.4</ele>
        <time>2022-08-24T09:22:02Z</time>
      </trkpt>
      <trkpt lat="43.81683" lon="5.63899">
        <ele>627.2</ele>
        <time>2022-08-24T09:22:04Z</time>
      </trkpt>
      <trkpt lat="43.81682" lon="5.63888">
        <ele>626</ele>
        <time>2022-08-24T09:22:06Z</time>
      </trkpt>
      <trkpt lat="43.81682" lon="5.63881">
        <ele>626.4</ele>
        <time>2022-08-24T09:22:07Z</time>
      </trkpt>
      <trkpt lat="43.81683" lon="5.63875">
        <ele>626.6</ele>
        <time>2022-08-24T09:22:08Z</time>
      </trkpt>
      <trkpt lat="43.81686" lon="5.63865">
        <ele>625.9</ele>
        <time>2022-08-24T09:22:10Z</time>
      </trkpt>
      <trkpt lat="43.81689" lon="5.63855">
        <ele>625.8</ele>
        <time>2022-08-24T09:22:12Z</time>
      </trkpt>
      <trkpt lat="43.8169" lon="5.63849">
        <ele>626.3</ele>
        <time>2022-08-24T09:22:13Z</time>
      </trkpt>
      <trkpt lat="43.81695" lon="5.63841">
        <ele>625.5</ele>
        <time>2022-08-24T09:22:15Z</time>
      </trkpt>
      <trkpt lat="43.81696" lon="5.63834">
        <ele>625.9</ele>
        <time>2022-08-24T09:22:16Z</time>
      </trkpt>
      <trkpt lat="43.81699" lon="5.63824">
        <ele>626.2</ele>
        <time>2022-08-24T09:22:18Z</time>
      </trkpt>
      <trkpt lat="43.81703" lon="5.63813">
        <ele>625.9</ele>
        <time>2022-08-24T09:22:20Z</time>
      </trkpt>
      <trkpt lat="43.81706" lon="5.63803">
        <ele>626.1</ele>
        <time>2022-08-24T09:22:22Z</time>
      </trkpt>
      <trkpt lat="43.81708" lon="5.63797">
        <ele>626.4</ele>
        <time>2022-08-24T09:22:23Z</time>
      </trkpt>
      <trkpt lat="43.81709" lon="5.63791">
        <ele>627.4</ele>
        <time>2022-08-24T09:22:24Z</time>
      </trkpt>
      <trkpt lat="43.81711" lon="5.63784">
        <ele>627.3</ele>
        <time>2022-08-24T09:22:25Z</time>
      </trkpt>
      <trkpt lat="43.81712" lon="5.63778">
        <ele>627.6</ele>
        <time>2022-08-24T09:22:26Z</time>
      </trkpt>
      <trkpt lat="43.81714" lon="5.63768">
        <ele>627.5</ele>
        <time>2022-08-24T09:22:28Z</time>
      </trkpt>
      <trkpt lat="43.81715" lon="5.63761">
        <ele>627.8</ele>
        <time>2022-08-24T09:22:29Z</time>
      </trkpt>
      <trkpt lat="43.81716" lon="5.63747">
        <ele>628</ele>
        <time>2022-08-24T09:22:31Z</time>
      </trkpt>
      <trkpt lat="43.81716" lon="5.63739">
        <ele>628.8</ele>
        <time>2022-08-24T09:22:32Z</time>
      </trkpt>
      <trkpt lat="43.81716" lon="5.63731">
        <ele>629.6</ele>
        <time>2022-08-24T09:22:33Z</time>
      </trkpt>
      <trkpt lat="43.81717" lon="5.63724">
        <ele>630</ele>
        <time>2022-08-24T09:22:34Z</time>
      </trkpt>
      <trkpt lat="43.81717" lon="5.6371">
        <ele>629.9</ele>
        <time>2022-08-24T09:22:36Z</time>
      </trkpt>
      <trkpt lat="43.81718" lon="5.63695">
        <ele>629.8</ele>
        <time>2022-08-24T09:22:38Z</time>
      </trkpt>
      <trkpt lat="43.81717" lon="5.63688">
        <ele>629.4</ele>
        <time>2022-08-24T09:22:39Z</time>
      </trkpt>
      <trkpt lat="43.81716" lon="5.63681">
        <ele>629.1</ele>
        <time>2022-08-24T09:22:40Z</time>
      </trkpt>
      <trkpt lat="43.81714" lon="5.63673">
        <ele>628.9</ele>
        <time>2022-08-24T09:22:41Z</time>
      </trkpt>
      <trkpt lat="43.81709" lon="5.63665">
        <ele>628.9</ele>
        <time>2022-08-24T09:22:42Z</time>
      </trkpt>
      <trkpt lat="43.81706" lon="5.63656">
        <ele>628</ele>
        <time>2022-08-24T09:22:43Z</time>
      </trkpt>
      <trkpt lat="43.81701" lon="5.6365">
        <ele>627.1</ele>
        <time>2022-08-24T09:22:44Z</time>
      </trkpt>
      <trkpt lat="43.81694" lon="5.63645">
        <ele>626.8</ele>
        <time>2022-08-24T09:22:45Z</time>
      </trkpt>
      <trkpt lat="43.81687" lon="5.63642">
        <ele>626.7</ele>
        <time>2022-08-24T09:22:46Z</time>
      </trkpt>
      <trkpt lat="43.81682" lon="5.63636">
        <ele>625.5</ele>
        <time>2022-08-24T09:22:47Z</time>
      </trkpt>
      <trkpt lat="43.81675" lon="5.63631">
        <ele>624.8</ele>
        <time>2022-08-24T09:22:48Z</time>
      </trkpt>
      <trkpt lat="43.81668" lon="5.63627">
        <ele>624.5</ele>
        <time>2022-08-24T09:22:49Z</time>
      </trkpt>
      <trkpt lat="43.81661" lon="5.63622">
        <ele>624</ele>
        <time>2022-08-24T09:22:50Z</time>
      </trkpt>
      <trkpt lat="43.81654" lon="5.63619">
        <ele>623.8</ele>
        <time>2022-08-24T09:22:51Z</time>
      </trkpt>
      <trkpt lat="43.81647" lon="5.63614">
        <ele>623.1</ele>
        <time>2022-08-24T09:22:52Z</time>
      </trkpt>
      <trkpt lat="43.8164" lon="5.63609">
        <ele>622.3</ele>
        <time>2022-08-24T09:22:53Z</time>
      </trkpt>
      <trkpt lat="43.81633" lon="5.63604">
        <ele>621.4</ele>
        <time>2022-08-24T09:22:54Z</time>
      </trkpt>
      <trkpt lat="43.81625" lon="5.63597">
        <ele>620.4</ele>
        <time>2022-08-24T09:22:55Z</time>
      </trkpt>
      <trkpt lat="43.81615" lon="5.63592">
        <ele>619.7</ele>
        <time>2022-08-24T09:22:56Z</time>
      </trkpt>
      <trkpt lat="43.81607" lon="5.63588">
        <ele>618.9</ele>
        <time>2022-08-24T09:22:57Z</time>
      </trkpt>
      <trkpt lat="43.81599" lon="5.63585">
        <ele>618.6</ele>
        <time>2022-08-24T09:22:58Z</time>
      </trkpt>
      <trkpt lat="43.8159" lon="5.63582">
        <ele>618.3</ele>
        <time>2022-08-24T09:22:59Z</time>
      </trkpt>
      <trkpt lat="43.8158" lon="5.6358">
        <ele>618.3</ele>
        <time>2022-08-24T09:23:00Z</time>
      </trkpt>
      <trkpt lat="43.81572" lon="5.63579">
        <ele>618.6</ele>
        <time>2022-08-24T09:23:01Z</time>
      </trkpt>
      <trkpt lat="43.81564" lon="5.63578">
        <ele>619.1</ele>
        <time>2022-08-24T09:23:02Z</time>
      </trkpt>
      <trkpt lat="43.81558" lon="5.63576">
        <ele>619.1</ele>
        <time>2022-08-24T09:23:03Z</time>
      </trkpt>
      <trkpt lat="43.81551" lon="5.63578">
        <ele>619.1</ele>
        <time>2022-08-24T09:23:04Z</time>
      </trkpt>
      <trkpt lat="43.81543" lon="5.63582">
        <ele>619.5</ele>
        <time>2022-08-24T09:23:05Z</time>
      </trkpt>
      <trkpt lat="43.81536" lon="5.63585">
        <ele>619.4</ele>
        <time>2022-08-24T09:23:06Z</time>
      </trkpt>
      <trkpt lat="43.81529" lon="5.63589">
        <ele>619.8</ele>
        <time>2022-08-24T09:23:07Z</time>
      </trkpt>
      <trkpt lat="43.81521" lon="5.63594">
        <ele>620.3</ele>
        <time>2022-08-24T09:23:09Z</time>
      </trkpt>
      <trkpt lat="43.81515" lon="5.63598">
        <ele>620.5</ele>
        <time>2022-08-24T09:23:10Z</time>
      </trkpt>
      <trkpt lat="43.81509" lon="5.63603">
        <ele>620.7</ele>
        <time>2022-08-24T09:23:11Z</time>
      </trkpt>
      <trkpt lat="43.81504" lon="5.63608">
        <ele>621</ele>
        <time>2022-08-24T09:23:12Z</time>
      </trkpt>
      <trkpt lat="43.815" lon="5.63612">
        <ele>621.1</ele>
        <time>2022-08-24T09:23:13Z</time>
      </trkpt>
      <trkpt lat="43.81495" lon="5.63617">
        <ele>620.8</ele>
        <time>2022-08-24T09:23:14Z</time>
      </trkpt>
      <trkpt lat="43.81491" lon="5.63622">
        <ele>621</ele>
        <time>2022-08-24T09:23:15Z</time>
      </trkpt>
      <trkpt lat="43.81487" lon="5.63629">
        <ele>621.7</ele>
        <time>2022-08-24T09:23:16Z</time>
      </trkpt>
      <trkpt lat="43.81482" lon="5.63636">
        <ele>621.8</ele>
        <time>2022-08-24T09:23:17Z</time>
      </trkpt>
      <trkpt lat="43.81478" lon="5.63643">
        <ele>621.9</ele>
        <time>2022-08-24T09:23:18Z</time>
      </trkpt>
      <trkpt lat="43.81475" lon="5.6365">
        <ele>622.4</ele>
        <time>2022-08-24T09:23:19Z</time>
      </trkpt>
      <trkpt lat="43.81472" lon="5.63656">
        <ele>622.7</ele>
        <time>2022-08-24T09:23:20Z</time>
      </trkpt>
      <trkpt lat="43.81467" lon="5.63666">
        <ele>622.7</ele>
        <time>2022-08-24T09:23:22Z</time>
      </trkpt>
      <trkpt lat="43.81464" lon="5.63673">
        <ele>623.5</ele>
        <time>2022-08-24T09:23:23Z</time>
      </trkpt>
      <trkpt lat="43.8146" lon="5.63679">
        <ele>623.4</ele>
        <time>2022-08-24T09:23:24Z</time>
      </trkpt>
      <trkpt lat="43.81457" lon="5.63686">
        <ele>624.2</ele>
        <time>2022-08-24T09:23:25Z</time>
      </trkpt>
      <trkpt lat="43.81455" lon="5.63693">
        <ele>624.9</ele>
        <time>2022-08-24T09:23:26Z</time>
      </trkpt>
      <trkpt lat="43.81452" lon="5.63702">
        <ele>626</ele>
        <time>2022-08-24T09:23:27Z</time>
      </trkpt>
      <trkpt lat="43.81449" lon="5.63708">
        <ele>625.9</ele>
        <time>2022-08-24T09:23:28Z</time>
      </trkpt>
      <trkpt lat="43.81445" lon="5.63714">
        <ele>625.5</ele>
        <time>2022-08-24T09:23:29Z</time>
      </trkpt>
      <trkpt lat="43.81442" lon="5.63721">
        <ele>625.7</ele>
        <time>2022-08-24T09:23:30Z</time>
      </trkpt>
      <trkpt lat="43.8144" lon="5.63727">
        <ele>626.5</ele>
        <time>2022-08-24T09:23:31Z</time>
      </trkpt>
      <trkpt lat="43.81437" lon="5.63733">
        <ele>626.7</ele>
        <time>2022-08-24T09:23:32Z</time>
      </trkpt>
      <trkpt lat="43.81434" lon="5.6374">
        <ele>626.7</ele>
        <time>2022-08-24T09:23:33Z</time>
      </trkpt>
      <trkpt lat="43.8143" lon="5.63746">
        <ele>626.6</ele>
        <time>2022-08-24T09:23:34Z</time>
      </trkpt>
      <trkpt lat="43.81428" lon="5.63754">
        <ele>627</ele>
        <time>2022-08-24T09:23:35Z</time>
      </trkpt>
      <trkpt lat="43.81426" lon="5.63761">
        <ele>627.6</ele>
        <time>2022-08-24T09:23:36Z</time>
      </trkpt>
      <trkpt lat="43.81423" lon="5.63767">
        <ele>628.1</ele>
        <time>2022-08-24T09:23:37Z</time>
      </trkpt>
      <trkpt lat="43.81419" lon="5.63772">
        <ele>628.1</ele>
        <time>2022-08-24T09:23:38Z</time>
      </trkpt>
      <trkpt lat="43.81415" lon="5.63777">
        <ele>628.2</ele>
        <time>2022-08-24T09:23:39Z</time>
      </trkpt>
      <trkpt lat="43.8141" lon="5.63782">
        <ele>628.1</ele>
        <time>2022-08-24T09:23:40Z</time>
      </trkpt>
      <trkpt lat="43.81405" lon="5.63786">
        <ele>627.6</ele>
        <time>2022-08-24T09:23:41Z</time>
      </trkpt>
      <trkpt lat="43.81401" lon="5.6379">
        <ele>627.8</ele>
        <time>2022-08-24T09:23:42Z</time>
      </trkpt>
      <trkpt lat="43.81394" lon="5.63798">
        <ele>627.7</ele>
        <time>2022-08-24T09:23:44Z</time>
      </trkpt>
      <trkpt lat="43.81389" lon="5.63802">
        <ele>627.1</ele>
        <time>2022-08-24T09:23:45Z</time>
      </trkpt>
      <trkpt lat="43.81383" lon="5.63809">
        <ele>629.1</ele>
        <time>2022-08-24T09:23:47Z</time>
      </trkpt>
      <trkpt lat="43.81378" lon="5.63809">
        <ele>628.8</ele>
        <time>2022-08-24T09:23:48Z</time>
      </trkpt>
      <trkpt lat="43.81373" lon="5.63809">
        <ele>628.8</ele>
        <time>2022-08-24T09:23:49Z</time>
      </trkpt>
      <trkpt lat="43.81367" lon="5.6381">
        <ele>628.9</ele>
        <time>2022-08-24T09:23:50Z</time>
      </trkpt>
      <trkpt lat="43.81361" lon="5.63813">
        <ele>629.3</ele>
        <time>2022-08-24T09:23:51Z</time>
      </trkpt>
      <trkpt lat="43.81356" lon="5.63817">
        <ele>628.7</ele>
        <time>2022-08-24T09:23:52Z</time>
      </trkpt>
      <trkpt lat="43.81351" lon="5.63826">
        <ele>628.8</ele>
        <time>2022-08-24T09:23:54Z</time>
      </trkpt>
      <trkpt lat="43.81348" lon="5.63833">
        <ele>629.1</ele>
        <time>2022-08-24T09:23:55Z</time>
      </trkpt>
      <trkpt lat="43.81345" lon="5.63839">
        <ele>629</ele>
        <time>2022-08-24T09:23:56Z</time>
      </trkpt>
      <trkpt lat="43.81344" lon="5.63845">
        <ele>629.1</ele>
        <time>2022-08-24T09:23:57Z</time>
      </trkpt>
      <trkpt lat="43.81343" lon="5.63852">
        <ele>629.5</ele>
        <time>2022-08-24T09:23:58Z</time>
      </trkpt>
      <trkpt lat="43.81343" lon="5.63859">
        <ele>630.2</ele>
        <time>2022-08-24T09:23:59Z</time>
      </trkpt>
      <trkpt lat="43.81342" lon="5.63867">
        <ele>630</ele>
        <time>2022-08-24T09:24:00Z</time>
      </trkpt>
      <trkpt lat="43.81342" lon="5.63874">
        <ele>630.2</ele>
        <time>2022-08-24T09:24:01Z</time>
      </trkpt>
      <trkpt lat="43.81343" lon="5.6388">
        <ele>630.4</ele>
        <time>2022-08-24T09:24:02Z</time>
      </trkpt>
      <trkpt lat="43.81346" lon="5.63891">
        <ele>631.5</ele>
        <time>2022-08-24T09:24:04Z</time>
      </trkpt>
      <trkpt lat="43.81347" lon="5.63898">
        <ele>631.8</ele>
        <time>2022-08-24T09:24:05Z</time>
      </trkpt>
      <trkpt lat="43.81348" lon="5.63905">
        <ele>631.8</ele>
        <time>2022-08-24T09:24:06Z</time>
      </trkpt>
      <trkpt lat="43.81347" lon="5.63912">
        <ele>631.4</ele>
        <time>2022-08-24T09:24:07Z</time>
      </trkpt>
      <trkpt lat="43.81345" lon="5.63919">
        <ele>631.1</ele>
        <time>2022-08-24T09:24:08Z</time>
      </trkpt>
      <trkpt lat="43.81342" lon="5.63925">
        <ele>631.1</ele>
        <time>2022-08-24T09:24:09Z</time>
      </trkpt>
      <trkpt lat="43.81339" lon="5.63932">
        <ele>631.3</ele>
        <time>2022-08-24T09:24:10Z</time>
      </trkpt>
      <trkpt lat="43.81335" lon="5.63937">
        <ele>631.1</ele>
        <time>2022-08-24T09:24:11Z</time>
      </trkpt>
      <trkpt lat="43.8133" lon="5.63941">
        <ele>631.3</ele>
        <time>2022-08-24T09:24:12Z</time>
      </trkpt>
      <trkpt lat="43.81325" lon="5.63943">
        <ele>631.4</ele>
        <time>2022-08-24T09:24:13Z</time>
      </trkpt>
      <trkpt lat="43.8132" lon="5.63944">
        <ele>631.4</ele>
        <time>2022-08-24T09:24:14Z</time>
      </trkpt>
      <trkpt lat="43.81315" lon="5.63944">
        <ele>631.3</ele>
        <time>2022-08-24T09:24:15Z</time>
      </trkpt>
      <trkpt lat="43.81309" lon="5.63944">
        <ele>630.9</ele>
        <time>2022-08-24T09:24:16Z</time>
      </trkpt>
      <trkpt lat="43.81303" lon="5.63945">
        <ele>631.2</ele>
        <time>2022-08-24T09:24:17Z</time>
      </trkpt>
      <trkpt lat="43.81298" lon="5.63944">
        <ele>631.4</ele>
        <time>2022-08-24T09:24:18Z</time>
      </trkpt>
      <trkpt lat="43.81293" lon="5.63943">
        <ele>631.7</ele>
        <time>2022-08-24T09:24:19Z</time>
      </trkpt>
      <trkpt lat="43.81287" lon="5.63942">
        <ele>631.8</ele>
        <time>2022-08-24T09:24:20Z</time>
      </trkpt>
      <trkpt lat="43.8128" lon="5.63941">
        <ele>632.1</ele>
        <time>2022-08-24T09:24:21Z</time>
      </trkpt>
      <trkpt lat="43.81274" lon="5.63937">
        <ele>632.2</ele>
        <time>2022-08-24T09:24:22Z</time>
      </trkpt>
      <trkpt lat="43.81269" lon="5.63933">
        <ele>632.3</ele>
        <time>2022-08-24T09:24:23Z</time>
      </trkpt>
      <trkpt lat="43.81265" lon="5.63929">
        <ele>632.3</ele>
        <time>2022-08-24T09:24:24Z</time>
      </trkpt>
      <trkpt lat="43.81261" lon="5.63925">
        <ele>632.6</ele>
        <time>2022-08-24T09:24:25Z</time>
      </trkpt>
      <trkpt lat="43.81257" lon="5.63921">
        <ele>632.9</ele>
        <time>2022-08-24T09:24:26Z</time>
      </trkpt>
      <trkpt lat="43.81249" lon="5.63912">
        <ele>633.8</ele>
        <time>2022-08-24T09:24:28Z</time>
      </trkpt>
      <trkpt lat="43.81246" lon="5.63905">
        <ele>634.1</ele>
        <time>2022-08-24T09:24:29Z</time>
      </trkpt>
      <trkpt lat="43.81242" lon="5.63898">
        <ele>634.8</ele>
        <time>2022-08-24T09:24:30Z</time>
      </trkpt>
      <trkpt lat="43.81241" lon="5.63891">
        <ele>634.9</ele>
        <time>2022-08-24T09:24:31Z</time>
      </trkpt>
      <trkpt lat="43.81239" lon="5.63883">
        <ele>634.9</ele>
        <time>2022-08-24T09:24:32Z</time>
      </trkpt>
      <trkpt lat="43.81232" lon="5.6386">
        <ele>634.9</ele>
        <time>2022-08-24T09:24:35Z</time>
      </trkpt>
      <trkpt lat="43.81229" lon="5.63851">
        <ele>634.4</ele>
        <time>2022-08-24T09:24:36Z</time>
      </trkpt>
      <trkpt lat="43.81226" lon="5.63844">
        <ele>633.8</ele>
        <time>2022-08-24T09:24:37Z</time>
      </trkpt>
      <trkpt lat="43.81223" lon="5.63836">
        <ele>633.2</ele>
        <time>2022-08-24T09:24:38Z</time>
      </trkpt>
      <trkpt lat="43.8122" lon="5.63828">
        <ele>633.2</ele>
        <time>2022-08-24T09:24:39Z</time>
      </trkpt>
      <trkpt lat="43.81217" lon="5.6382">
        <ele>632.8</ele>
        <time>2022-08-24T09:24:40Z</time>
      </trkpt>
      <trkpt lat="43.81214" lon="5.63811">
        <ele>632.7</ele>
        <time>2022-08-24T09:24:41Z</time>
      </trkpt>
      <trkpt lat="43.81214" lon="5.63804">
        <ele>632.1</ele>
        <time>2022-08-24T09:24:42Z</time>
      </trkpt>
      <trkpt lat="43.81213" lon="5.63795">
        <ele>632.5</ele>
        <time>2022-08-24T09:24:43Z</time>
      </trkpt>
      <trkpt lat="43.81213" lon="5.63786">
        <ele>632.6</ele>
        <time>2022-08-24T09:24:44Z</time>
      </trkpt>
      <trkpt lat="43.81213" lon="5.63777">
        <ele>632.7</ele>
        <time>2022-08-24T09:24:45Z</time>
      </trkpt>
      <trkpt lat="43.81212" lon="5.63767">
        <ele>632.8</ele>
        <time>2022-08-24T09:24:46Z</time>
      </trkpt>
      <trkpt lat="43.81212" lon="5.63759">
        <ele>632.4</ele>
        <time>2022-08-24T09:24:47Z</time>
      </trkpt>
      <trkpt lat="43.81212" lon="5.63751">
        <ele>632.2</ele>
        <time>2022-08-24T09:24:48Z</time>
      </trkpt>
      <trkpt lat="43.81212" lon="5.63742">
        <ele>631.9</ele>
        <time>2022-08-24T09:24:49Z</time>
      </trkpt>
      <trkpt lat="43.81212" lon="5.63734">
        <ele>631.6</ele>
        <time>2022-08-24T09:24:50Z</time>
      </trkpt>
      <trkpt lat="43.81212" lon="5.63724">
        <ele>631.2</ele>
        <time>2022-08-24T09:24:51Z</time>
      </trkpt>
      <trkpt lat="43.81212" lon="5.63714">
        <ele>630.8</ele>
        <time>2022-08-24T09:24:52Z</time>
      </trkpt>
      <trkpt lat="43.81213" lon="5.63706">
        <ele>630.1</ele>
        <time>2022-08-24T09:24:53Z</time>
      </trkpt>
      <trkpt lat="43.81214" lon="5.63695">
        <ele>629.5</ele>
        <time>2022-08-24T09:24:54Z</time>
      </trkpt>
      <trkpt lat="43.81214" lon="5.63685">
        <ele>629.1</ele>
        <time>2022-08-24T09:24:55Z</time>
      </trkpt>
      <trkpt lat="43.81215" lon="5.63674">
        <ele>628.3</ele>
        <time>2022-08-24T09:24:56Z</time>
      </trkpt>
      <trkpt lat="43.81216" lon="5.63663">
        <ele>627.8</ele>
        <time>2022-08-24T09:24:57Z</time>
      </trkpt>
      <trkpt lat="43.81216" lon="5.63653">
        <ele>627.7</ele>
        <time>2022-08-24T09:24:58Z</time>
      </trkpt>
      <trkpt lat="43.81217" lon="5.63644">
        <ele>627.5</ele>
        <time>2022-08-24T09:24:59Z</time>
      </trkpt>
      <trkpt lat="43.81216" lon="5.63634">
        <ele>627.4</ele>
        <time>2022-08-24T09:25:00Z</time>
      </trkpt>
      <trkpt lat="43.81219" lon="5.63623">
        <ele>626.1</ele>
        <time>2022-08-24T09:25:01Z</time>
      </trkpt>
      <trkpt lat="43.8122" lon="5.63613">
        <ele>625</ele>
        <time>2022-08-24T09:25:02Z</time>
      </trkpt>
      <trkpt lat="43.81221" lon="5.63603">
        <ele>624.9</ele>
        <time>2022-08-24T09:25:03Z</time>
      </trkpt>
      <trkpt lat="43.81222" lon="5.63594">
        <ele>624.7</ele>
        <time>2022-08-24T09:25:04Z</time>
      </trkpt>
      <trkpt lat="43.81226" lon="5.63585">
        <ele>624</ele>
        <time>2022-08-24T09:25:05Z</time>
      </trkpt>
      <trkpt lat="43.81228" lon="5.63574">
        <ele>623.6</ele>
        <time>2022-08-24T09:25:06Z</time>
      </trkpt>
      <trkpt lat="43.81228" lon="5.63562">
        <ele>623.8</ele>
        <time>2022-08-24T09:25:07Z</time>
      </trkpt>
      <trkpt lat="43.81229" lon="5.63552">
        <ele>624.2</ele>
        <time>2022-08-24T09:25:08Z</time>
      </trkpt>
      <trkpt lat="43.81233" lon="5.63543">
        <ele>623.9</ele>
        <time>2022-08-24T09:25:09Z</time>
      </trkpt>
      <trkpt lat="43.81235" lon="5.63534">
        <ele>623.9</ele>
        <time>2022-08-24T09:25:10Z</time>
      </trkpt>
      <trkpt lat="43.81238" lon="5.63526">
        <ele>623.4</ele>
        <time>2022-08-24T09:25:11Z</time>
      </trkpt>
      <trkpt lat="43.81241" lon="5.63518">
        <ele>623.2</ele>
        <time>2022-08-24T09:25:12Z</time>
      </trkpt>
      <trkpt lat="43.81241" lon="5.63507">
        <ele>623.7</ele>
        <time>2022-08-24T09:25:13Z</time>
      </trkpt>
      <trkpt lat="43.81242" lon="5.63498">
        <ele>623.8</ele>
        <time>2022-08-24T09:25:14Z</time>
      </trkpt>
      <trkpt lat="43.81244" lon="5.63488">
        <ele>623.4</ele>
        <time>2022-08-24T09:25:15Z</time>
      </trkpt>
      <trkpt lat="43.81244" lon="5.63479">
        <ele>623.3</ele>
        <time>2022-08-24T09:25:16Z</time>
      </trkpt>
      <trkpt lat="43.81243" lon="5.6347">
        <ele>623.7</ele>
        <time>2022-08-24T09:25:17Z</time>
      </trkpt>
      <trkpt lat="43.81242" lon="5.63463">
        <ele>623.8</ele>
        <time>2022-08-24T09:25:18Z</time>
      </trkpt>
      <trkpt lat="43.8124" lon="5.63454">
        <ele>624.3</ele>
        <time>2022-08-24T09:25:19Z</time>
      </trkpt>
      <trkpt lat="43.81239" lon="5.63447">
        <ele>624.4</ele>
        <time>2022-08-24T09:25:20Z</time>
      </trkpt>
      <trkpt lat="43.81237" lon="5.63441">
        <ele>624.8</ele>
        <time>2022-08-24T09:25:21Z</time>
      </trkpt>
      <trkpt lat="43.81236" lon="5.63434">
        <ele>625</ele>
        <time>2022-08-24T09:25:22Z</time>
      </trkpt>
      <trkpt lat="43.81234" lon="5.63426">
        <ele>625.1</ele>
        <time>2022-08-24T09:25:23Z</time>
      </trkpt>
      <trkpt lat="43.81234" lon="5.63418">
        <ele>624.9</ele>
        <time>2022-08-24T09:25:24Z</time>
      </trkpt>
      <trkpt lat="43.81234" lon="5.63411">
        <ele>625.2</ele>
        <time>2022-08-24T09:25:25Z</time>
      </trkpt>
      <trkpt lat="43.81237" lon="5.63405">
        <ele>625</ele>
        <time>2022-08-24T09:25:26Z</time>
      </trkpt>
      <trkpt lat="43.8124" lon="5.63398">
        <ele>624.5</ele>
        <time>2022-08-24T09:25:27Z</time>
      </trkpt>
      <trkpt lat="43.81242" lon="5.6339">
        <ele>624.3</ele>
        <time>2022-08-24T09:25:28Z</time>
      </trkpt>
      <trkpt lat="43.81245" lon="5.63383">
        <ele>624.2</ele>
        <time>2022-08-24T09:25:29Z</time>
      </trkpt>
      <trkpt lat="43.81249" lon="5.63375">
        <ele>624</ele>
        <time>2022-08-24T09:25:30Z</time>
      </trkpt>
      <trkpt lat="43.81253" lon="5.63368">
        <ele>623.7</ele>
        <time>2022-08-24T09:25:31Z</time>
      </trkpt>
      <trkpt lat="43.81255" lon="5.63361">
        <ele>624.3</ele>
        <time>2022-08-24T09:25:32Z</time>
      </trkpt>
      <trkpt lat="43.81257" lon="5.63353">
        <ele>624.2</ele>
        <time>2022-08-24T09:25:33Z</time>
      </trkpt>
      <trkpt lat="43.8126" lon="5.63346">
        <ele>623.8</ele>
        <time>2022-08-24T09:25:34Z</time>
      </trkpt>
      <trkpt lat="43.81262" lon="5.63339">
        <ele>623.4</ele>
        <time>2022-08-24T09:25:35Z</time>
      </trkpt>
      <trkpt lat="43.81264" lon="5.6333">
        <ele>623.3</ele>
        <time>2022-08-24T09:25:36Z</time>
      </trkpt>
      <trkpt lat="43.81265" lon="5.63322">
        <ele>623.6</ele>
        <time>2022-08-24T09:25:37Z</time>
      </trkpt>
      <trkpt lat="43.81268" lon="5.63316">
        <ele>622.8</ele>
        <time>2022-08-24T09:25:38Z</time>
      </trkpt>
      <trkpt lat="43.81267" lon="5.63307">
        <ele>624.4</ele>
        <time>2022-08-24T09:25:39Z</time>
      </trkpt>
      <trkpt lat="43.81269" lon="5.633">
        <ele>624.8</ele>
        <time>2022-08-24T09:25:40Z</time>
      </trkpt>
      <trkpt lat="43.81271" lon="5.63293">
        <ele>626</ele>
        <time>2022-08-24T09:25:41Z</time>
      </trkpt>
      <trkpt lat="43.81274" lon="5.63287">
        <ele>626.2</ele>
        <time>2022-08-24T09:25:42Z</time>
      </trkpt>
      <trkpt lat="43.81278" lon="5.63279">
        <ele>626.7</ele>
        <time>2022-08-24T09:25:43Z</time>
      </trkpt>
      <trkpt lat="43.81282" lon="5.63273">
        <ele>626.6</ele>
        <time>2022-08-24T09:25:44Z</time>
      </trkpt>
      <trkpt lat="43.81285" lon="5.63265">
        <ele>627.3</ele>
        <time>2022-08-24T09:25:45Z</time>
      </trkpt>
      <trkpt lat="43.81288" lon="5.63258">
        <ele>627.9</ele>
        <time>2022-08-24T09:25:46Z</time>
      </trkpt>
      <trkpt lat="43.81291" lon="5.63253">
        <ele>628.1</ele>
        <time>2022-08-24T09:25:47Z</time>
      </trkpt>
      <trkpt lat="43.81295" lon="5.63247">
        <ele>628</ele>
        <time>2022-08-24T09:25:48Z</time>
      </trkpt>
      <trkpt lat="43.81299" lon="5.63241">
        <ele>627.8</ele>
        <time>2022-08-24T09:25:49Z</time>
      </trkpt>
      <trkpt lat="43.81301" lon="5.63235">
        <ele>628.9</ele>
        <time>2022-08-24T09:25:50Z</time>
      </trkpt>
      <trkpt lat="43.81305" lon="5.63229">
        <ele>628.4</ele>
        <time>2022-08-24T09:25:51Z</time>
      </trkpt>
      <trkpt lat="43.81311" lon="5.63223">
        <ele>628.1</ele>
        <time>2022-08-24T09:25:52Z</time>
      </trkpt>
      <trkpt lat="43.81316" lon="5.63218">
        <ele>628.3</ele>
        <time>2022-08-24T09:25:53Z</time>
      </trkpt>
      <trkpt lat="43.81321" lon="5.63214">
        <ele>627.8</ele>
        <time>2022-08-24T09:25:54Z</time>
      </trkpt>
      <trkpt lat="43.81328" lon="5.63209">
        <ele>626.9</ele>
        <time>2022-08-24T09:25:55Z</time>
      </trkpt>
      <trkpt lat="43.81333" lon="5.63205">
        <ele>626.5</ele>
        <time>2022-08-24T09:25:56Z</time>
      </trkpt>
      <trkpt lat="43.81337" lon="5.632">
        <ele>626.5</ele>
        <time>2022-08-24T09:25:57Z</time>
      </trkpt>
      <trkpt lat="43.81343" lon="5.63195">
        <ele>626</ele>
        <time>2022-08-24T09:25:58Z</time>
      </trkpt>
      <trkpt lat="43.81349" lon="5.63191">
        <ele>625.5</ele>
        <time>2022-08-24T09:25:59Z</time>
      </trkpt>
      <trkpt lat="43.81355" lon="5.63185">
        <ele>625.4</ele>
        <time>2022-08-24T09:26:00Z</time>
      </trkpt>
      <trkpt lat="43.81359" lon="5.63181">
        <ele>625.7</ele>
        <time>2022-08-24T09:26:01Z</time>
      </trkpt>
      <trkpt lat="43.81363" lon="5.63173">
        <ele>626.1</ele>
        <time>2022-08-24T09:26:02Z</time>
      </trkpt>
      <trkpt lat="43.81368" lon="5.63167">
        <ele>626.1</ele>
        <time>2022-08-24T09:26:03Z</time>
      </trkpt>
      <trkpt lat="43.8137" lon="5.6316">
        <ele>626.9</ele>
        <time>2022-08-24T09:26:04Z</time>
      </trkpt>
      <trkpt lat="43.81373" lon="5.63154">
        <ele>627.4</ele>
        <time>2022-08-24T09:26:05Z</time>
      </trkpt>
      <trkpt lat="43.81378" lon="5.63148">
        <ele>627.2</ele>
        <time>2022-08-24T09:26:06Z</time>
      </trkpt>
      <trkpt lat="43.81381" lon="5.63144">
        <ele>627.3</ele>
        <time>2022-08-24T09:26:07Z</time>
      </trkpt>
      <trkpt lat="43.81384" lon="5.63136">
        <ele>628.3</ele>
        <time>2022-08-24T09:26:08Z</time>
      </trkpt>
      <trkpt lat="43.81389" lon="5.63128">
        <ele>628.2</ele>
        <time>2022-08-24T09:26:09Z</time>
      </trkpt>
      <trkpt lat="43.81393" lon="5.63121">
        <ele>628</ele>
        <time>2022-08-24T09:26:10Z</time>
      </trkpt>
      <trkpt lat="43.81396" lon="5.63116">
        <ele>627.7</ele>
        <time>2022-08-24T09:26:11Z</time>
      </trkpt>
      <trkpt lat="43.81399" lon="5.6311">
        <ele>627.3</ele>
        <time>2022-08-24T09:26:12Z</time>
      </trkpt>
      <trkpt lat="43.81401" lon="5.63104">
        <ele>626.5</ele>
        <time>2022-08-24T09:26:13Z</time>
      </trkpt>
      <trkpt lat="43.81402" lon="5.63097">
        <ele>626</ele>
        <time>2022-08-24T09:26:14Z</time>
      </trkpt>
      <trkpt lat="43.81404" lon="5.6309">
        <ele>625.6</ele>
        <time>2022-08-24T09:26:15Z</time>
      </trkpt>
      <trkpt lat="43.81403" lon="5.63084">
        <ele>626</ele>
        <time>2022-08-24T09:26:16Z</time>
      </trkpt>
      <trkpt lat="43.81401" lon="5.63077">
        <ele>625.4</ele>
        <time>2022-08-24T09:26:17Z</time>
      </trkpt>
      <trkpt lat="43.81398" lon="5.63073">
        <ele>625.2</ele>
        <time>2022-08-24T09:26:18Z</time>
      </trkpt>
      <trkpt lat="43.81393" lon="5.63073">
        <ele>625.6</ele>
        <time>2022-08-24T09:26:19Z</time>
      </trkpt>
      <trkpt lat="43.81387" lon="5.63073">
        <ele>625.5</ele>
        <time>2022-08-24T09:26:20Z</time>
      </trkpt>
      <trkpt lat="43.81382" lon="5.63076">
        <ele>625.5</ele>
        <time>2022-08-24T09:26:21Z</time>
      </trkpt>
      <trkpt lat="43.81377" lon="5.63079">
        <ele>625.4</ele>
        <time>2022-08-24T09:26:22Z</time>
      </trkpt>
      <trkpt lat="43.81373" lon="5.63085">
        <ele>626.4</ele>
        <time>2022-08-24T09:26:23Z</time>
      </trkpt>
      <trkpt lat="43.81365" lon="5.63085">
        <ele>625.3</ele>
        <time>2022-08-24T09:26:24Z</time>
      </trkpt>
      <trkpt lat="43.81359" lon="5.63087">
        <ele>624.6</ele>
        <time>2022-08-24T09:26:25Z</time>
      </trkpt>
      <trkpt lat="43.81353" lon="5.63091">
        <ele>624.2</ele>
        <time>2022-08-24T09:26:26Z</time>
      </trkpt>
      <trkpt lat="43.81347" lon="5.63095">
        <ele>624.2</ele>
        <time>2022-08-24T09:26:27Z</time>
      </trkpt>
      <trkpt lat="43.81339" lon="5.63098">
        <ele>623.5</ele>
        <time>2022-08-24T09:26:28Z</time>
      </trkpt>
      <trkpt lat="43.81331" lon="5.63101">
        <ele>623.2</ele>
        <time>2022-08-24T09:26:29Z</time>
      </trkpt>
      <trkpt lat="43.81324" lon="5.63103">
        <ele>623.6</ele>
        <time>2022-08-24T09:26:30Z</time>
      </trkpt>
      <trkpt lat="43.81317" lon="5.63104">
        <ele>623.6</ele>
        <time>2022-08-24T09:26:31Z</time>
      </trkpt>
      <trkpt lat="43.81307" lon="5.63098">
        <ele>621.2</ele>
        <time>2022-08-24T09:26:32Z</time>
      </trkpt>
      <trkpt lat="43.813" lon="5.63091">
        <ele>621.1</ele>
        <time>2022-08-24T09:26:33Z</time>
      </trkpt>
      <trkpt lat="43.81292" lon="5.63084">
        <ele>621.4</ele>
        <time>2022-08-24T09:26:34Z</time>
      </trkpt>
      <trkpt lat="43.81286" lon="5.63077">
        <ele>621.4</ele>
        <time>2022-08-24T09:26:35Z</time>
      </trkpt>
      <trkpt lat="43.8128" lon="5.63068">
        <ele>621</ele>
        <time>2022-08-24T09:26:36Z</time>
      </trkpt>
      <trkpt lat="43.81275" lon="5.6306">
        <ele>620.2</ele>
        <time>2022-08-24T09:26:37Z</time>
      </trkpt>
      <trkpt lat="43.8127" lon="5.63054">
        <ele>619.6</ele>
        <time>2022-08-24T09:26:38Z</time>
      </trkpt>
      <trkpt lat="43.81264" lon="5.63049">
        <ele>619.3</ele>
        <time>2022-08-24T09:26:39Z</time>
      </trkpt>
      <trkpt lat="43.81258" lon="5.63046">
        <ele>619.9</ele>
        <time>2022-08-24T09:26:40Z</time>
      </trkpt>
      <trkpt lat="43.81252" lon="5.63044">
        <ele>620.3</ele>
        <time>2022-08-24T09:26:41Z</time>
      </trkpt>
      <trkpt lat="43.81245" lon="5.63039">
        <ele>619.7</ele>
        <time>2022-08-24T09:26:42Z</time>
      </trkpt>
      <trkpt lat="43.81238" lon="5.63037">
        <ele>620</ele>
        <time>2022-08-24T09:26:43Z</time>
      </trkpt>
      <trkpt lat="43.8123" lon="5.63033">
        <ele>619.1</ele>
        <time>2022-08-24T09:26:44Z</time>
      </trkpt>
      <trkpt lat="43.81224" lon="5.63028">
        <ele>617.7</ele>
        <time>2022-08-24T09:26:45Z</time>
      </trkpt>
      <trkpt lat="43.81217" lon="5.63022">
        <ele>617</ele>
        <time>2022-08-24T09:26:46Z</time>
      </trkpt>
      <trkpt lat="43.8121" lon="5.63017">
        <ele>616.7</ele>
        <time>2022-08-24T09:26:47Z</time>
      </trkpt>
      <trkpt lat="43.81202" lon="5.63012">
        <ele>616.7</ele>
        <time>2022-08-24T09:26:48Z</time>
      </trkpt>
      <trkpt lat="43.81195" lon="5.63009">
        <ele>617.2</ele>
        <time>2022-08-24T09:26:49Z</time>
      </trkpt>
      <trkpt lat="43.81188" lon="5.63004">
        <ele>616.2</ele>
        <time>2022-08-24T09:26:50Z</time>
      </trkpt>
      <trkpt lat="43.81181" lon="5.62999">
        <ele>615.4</ele>
        <time>2022-08-24T09:26:51Z</time>
      </trkpt>
      <trkpt lat="43.81171" lon="5.62995">
        <ele>615.4</ele>
        <time>2022-08-24T09:26:52Z</time>
      </trkpt>
      <trkpt lat="43.81163" lon="5.6299">
        <ele>615</ele>
        <time>2022-08-24T09:26:53Z</time>
      </trkpt>
      <trkpt lat="43.81156" lon="5.62986">
        <ele>614.9</ele>
        <time>2022-08-24T09:26:54Z</time>
      </trkpt>
      <trkpt lat="43.81148" lon="5.62982">
        <ele>614.6</ele>
        <time>2022-08-24T09:26:55Z</time>
      </trkpt>
      <trkpt lat="43.81141" lon="5.62975">
        <ele>613</ele>
        <time>2022-08-24T09:26:56Z</time>
      </trkpt>
      <trkpt lat="43.81134" lon="5.62972">
        <ele>613.1</ele>
        <time>2022-08-24T09:26:57Z</time>
      </trkpt>
      <trkpt lat="43.81127" lon="5.62966">
        <ele>612.3</ele>
        <time>2022-08-24T09:26:58Z</time>
      </trkpt>
      <trkpt lat="43.8112" lon="5.62961">
        <ele>612</ele>
        <time>2022-08-24T09:26:59Z</time>
      </trkpt>
      <trkpt lat="43.81113" lon="5.62956">
        <ele>611.9</ele>
        <time>2022-08-24T09:27:00Z</time>
      </trkpt>
      <trkpt lat="43.81109" lon="5.62949">
        <ele>610.4</ele>
        <time>2022-08-24T09:27:01Z</time>
      </trkpt>
      <trkpt lat="43.81102" lon="5.62944">
        <ele>610.3</ele>
        <time>2022-08-24T09:27:02Z</time>
      </trkpt>
      <trkpt lat="43.81094" lon="5.62939">
        <ele>610.5</ele>
        <time>2022-08-24T09:27:03Z</time>
      </trkpt>
      <trkpt lat="43.81088" lon="5.62933">
        <ele>610.4</ele>
        <time>2022-08-24T09:27:04Z</time>
      </trkpt>
      <trkpt lat="43.81083" lon="5.62926">
        <ele>609.8</ele>
        <time>2022-08-24T09:27:05Z</time>
      </trkpt>
      <trkpt lat="43.81077" lon="5.62918">
        <ele>609</ele>
        <time>2022-08-24T09:27:06Z</time>
      </trkpt>
      <trkpt lat="43.81072" lon="5.6291">
        <ele>608.4</ele>
        <time>2022-08-24T09:27:07Z</time>
      </trkpt>
      <trkpt lat="43.81065" lon="5.62902">
        <ele>608.1</ele>
        <time>2022-08-24T09:27:08Z</time>
      </trkpt>
      <trkpt lat="43.8106" lon="5.62894">
        <ele>607.7</ele>
        <time>2022-08-24T09:27:09Z</time>
      </trkpt>
      <trkpt lat="43.81056" lon="5.62886">
        <ele>607.1</ele>
        <time>2022-08-24T09:27:10Z</time>
      </trkpt>
      <trkpt lat="43.81052" lon="5.62877">
        <ele>605.9</ele>
        <time>2022-08-24T09:27:11Z</time>
      </trkpt>
      <trkpt lat="43.81047" lon="5.62872">
        <ele>605.3</ele>
        <time>2022-08-24T09:27:12Z</time>
      </trkpt>
      <trkpt lat="43.81043" lon="5.62863">
        <ele>604.3</ele>
        <time>2022-08-24T09:27:13Z</time>
      </trkpt>
      <trkpt lat="43.81037" lon="5.62857">
        <ele>604.2</ele>
        <time>2022-08-24T09:27:14Z</time>
      </trkpt>
      <trkpt lat="43.81031" lon="5.62853">
        <ele>604.9</ele>
        <time>2022-08-24T09:27:15Z</time>
      </trkpt>
      <trkpt lat="43.81024" lon="5.62851">
        <ele>604.9</ele>
        <time>2022-08-24T09:27:16Z</time>
      </trkpt>
      <trkpt lat="43.81018" lon="5.62852">
        <ele>604.3</ele>
        <time>2022-08-24T09:27:17Z</time>
      </trkpt>
      <trkpt lat="43.81013" lon="5.62855">
        <ele>604</ele>
        <time>2022-08-24T09:27:18Z</time>
      </trkpt>
      <trkpt lat="43.81008" lon="5.6286">
        <ele>603.8</ele>
        <time>2022-08-24T09:27:19Z</time>
      </trkpt>
      <trkpt lat="43.81003" lon="5.62868">
        <ele>603.8</ele>
        <time>2022-08-24T09:27:20Z</time>
      </trkpt>
      <trkpt lat="43.80999" lon="5.62875">
        <ele>603.8</ele>
        <time>2022-08-24T09:27:21Z</time>
      </trkpt>
      <trkpt lat="43.80995" lon="5.62883">
        <ele>603.5</ele>
        <time>2022-08-24T09:27:22Z</time>
      </trkpt>
      <trkpt lat="43.8099" lon="5.6289">
        <ele>603</ele>
        <time>2022-08-24T09:27:23Z</time>
      </trkpt>
      <trkpt lat="43.80987" lon="5.62898">
        <ele>602.8</ele>
        <time>2022-08-24T09:27:24Z</time>
      </trkpt>
      <trkpt lat="43.80983" lon="5.62905">
        <ele>602.5</ele>
        <time>2022-08-24T09:27:25Z</time>
      </trkpt>
      <trkpt lat="43.8098" lon="5.62913">
        <ele>602.5</ele>
        <time>2022-08-24T09:27:26Z</time>
      </trkpt>
      <trkpt lat="43.80977" lon="5.6292">
        <ele>602.2</ele>
        <time>2022-08-24T09:27:27Z</time>
      </trkpt>
      <trkpt lat="43.80975" lon="5.62929">
        <ele>602.1</ele>
        <time>2022-08-24T09:27:28Z</time>
      </trkpt>
      <trkpt lat="43.80973" lon="5.62937">
        <ele>602</ele>
        <time>2022-08-24T09:27:29Z</time>
      </trkpt>
      <trkpt lat="43.80972" lon="5.62946">
        <ele>602</ele>
        <time>2022-08-24T09:27:30Z</time>
      </trkpt>
      <trkpt lat="43.80971" lon="5.62955">
        <ele>601.2</ele>
        <time>2022-08-24T09:27:31Z</time>
      </trkpt>
      <trkpt lat="43.80972" lon="5.62963">
        <ele>601</ele>
        <time>2022-08-24T09:27:32Z</time>
      </trkpt>
      <trkpt lat="43.80972" lon="5.62972">
        <ele>601</ele>
        <time>2022-08-24T09:27:33Z</time>
      </trkpt>
      <trkpt lat="43.80973" lon="5.6298">
        <ele>600.6</ele>
        <time>2022-08-24T09:27:34Z</time>
      </trkpt>
      <trkpt lat="43.80976" lon="5.62989">
        <ele>600.6</ele>
        <time>2022-08-24T09:27:35Z</time>
      </trkpt>
      <trkpt lat="43.80978" lon="5.62997">
        <ele>600.6</ele>
        <time>2022-08-24T09:27:36Z</time>
      </trkpt>
      <trkpt lat="43.80979" lon="5.63006">
        <ele>600.7</ele>
        <time>2022-08-24T09:27:37Z</time>
      </trkpt>
      <trkpt lat="43.80981" lon="5.63015">
        <ele>601.1</ele>
        <time>2022-08-24T09:27:38Z</time>
      </trkpt>
      <trkpt lat="43.80982" lon="5.63024">
        <ele>601.4</ele>
        <time>2022-08-24T09:27:39Z</time>
      </trkpt>
      <trkpt lat="43.80982" lon="5.63032">
        <ele>601.1</ele>
        <time>2022-08-24T09:27:40Z</time>
      </trkpt>
      <trkpt lat="43.80983" lon="5.63041">
        <ele>601.3</ele>
        <time>2022-08-24T09:27:41Z</time>
      </trkpt>
      <trkpt lat="43.80983" lon="5.63049">
        <ele>600.9</ele>
        <time>2022-08-24T09:27:42Z</time>
      </trkpt>
      <trkpt lat="43.80983" lon="5.63058">
        <ele>600.7</ele>
        <time>2022-08-24T09:27:43Z</time>
      </trkpt>
      <trkpt lat="43.80982" lon="5.63066">
        <ele>600.2</ele>
        <time>2022-08-24T09:27:44Z</time>
      </trkpt>
      <trkpt lat="43.80981" lon="5.63074">
        <ele>599.6</ele>
        <time>2022-08-24T09:27:45Z</time>
      </trkpt>
      <trkpt lat="43.80981" lon="5.63082">
        <ele>599.1</ele>
        <time>2022-08-24T09:27:46Z</time>
      </trkpt>
      <trkpt lat="43.8098" lon="5.6309">
        <ele>599.7</ele>
        <time>2022-08-24T09:27:47Z</time>
      </trkpt>
      <trkpt lat="43.80977" lon="5.63098">
        <ele>600.1</ele>
        <time>2022-08-24T09:27:48Z</time>
      </trkpt>
      <trkpt lat="43.80973" lon="5.63102">
        <ele>600.2</ele>
        <time>2022-08-24T09:27:49Z</time>
      </trkpt>
      <trkpt lat="43.80969" lon="5.63104">
        <ele>600.3</ele>
        <time>2022-08-24T09:27:50Z</time>
      </trkpt>
      <trkpt lat="43.80964" lon="5.63104">
        <ele>599.9</ele>
        <time>2022-08-24T09:27:51Z</time>
      </trkpt>
      <trkpt lat="43.80959" lon="5.63102">
        <ele>599.4</ele>
        <time>2022-08-24T09:27:52Z</time>
      </trkpt>
      <trkpt lat="43.80953" lon="5.63103">
        <ele>599.3</ele>
        <time>2022-08-24T09:27:53Z</time>
      </trkpt>
      <trkpt lat="43.80948" lon="5.63107">
        <ele>599.5</ele>
        <time>2022-08-24T09:27:54Z</time>
      </trkpt>
      <trkpt lat="43.80941" lon="5.63111">
        <ele>599.5</ele>
        <time>2022-08-24T09:27:55Z</time>
      </trkpt>
      <trkpt lat="43.80936" lon="5.63117">
        <ele>599.1</ele>
        <time>2022-08-24T09:27:56Z</time>
      </trkpt>
      <trkpt lat="43.80932" lon="5.63124">
        <ele>599.1</ele>
        <time>2022-08-24T09:27:57Z</time>
      </trkpt>
      <trkpt lat="43.80928" lon="5.63131">
        <ele>599</ele>
        <time>2022-08-24T09:27:58Z</time>
      </trkpt>
      <trkpt lat="43.80925" lon="5.6314">
        <ele>599.1</ele>
        <time>2022-08-24T09:27:59Z</time>
      </trkpt>
      <trkpt lat="43.80923" lon="5.63149">
        <ele>598.9</ele>
        <time>2022-08-24T09:28:00Z</time>
      </trkpt>
      <trkpt lat="43.80921" lon="5.63156">
        <ele>598.7</ele>
        <time>2022-08-24T09:28:01Z</time>
      </trkpt>
      <trkpt lat="43.80919" lon="5.63164">
        <ele>598.5</ele>
        <time>2022-08-24T09:28:02Z</time>
      </trkpt>
      <trkpt lat="43.80918" lon="5.63173">
        <ele>598.3</ele>
        <time>2022-08-24T09:28:03Z</time>
      </trkpt>
      <trkpt lat="43.80917" lon="5.63181">
        <ele>598.1</ele>
        <time>2022-08-24T09:28:04Z</time>
      </trkpt>
      <trkpt lat="43.80917" lon="5.63189">
        <ele>598.1</ele>
        <time>2022-08-24T09:28:05Z</time>
      </trkpt>
      <trkpt lat="43.80917" lon="5.63198">
        <ele>598.1</ele>
        <time>2022-08-24T09:28:06Z</time>
      </trkpt>
      <trkpt lat="43.80919" lon="5.63206">
        <ele>598.4</ele>
        <time>2022-08-24T09:28:07Z</time>
      </trkpt>
      <trkpt lat="43.80919" lon="5.63215">
        <ele>598.4</ele>
        <time>2022-08-24T09:28:08Z</time>
      </trkpt>
      <trkpt lat="43.80917" lon="5.63223">
        <ele>598.1</ele>
        <time>2022-08-24T09:28:09Z</time>
      </trkpt>
      <trkpt lat="43.80912" lon="5.63227">
        <ele>597.8</ele>
        <time>2022-08-24T09:28:10Z</time>
      </trkpt>
      <trkpt lat="43.80907" lon="5.63232">
        <ele>597.4</ele>
        <time>2022-08-24T09:28:11Z</time>
      </trkpt>
      <trkpt lat="43.80903" lon="5.63239">
        <ele>597.4</ele>
        <time>2022-08-24T09:28:12Z</time>
      </trkpt>
      <trkpt lat="43.80899" lon="5.63246">
        <ele>597.4</ele>
        <time>2022-08-24T09:28:13Z</time>
      </trkpt>
      <trkpt lat="43.80895" lon="5.63253">
        <ele>597.6</ele>
        <time>2022-08-24T09:28:14Z</time>
      </trkpt>
      <trkpt lat="43.80891" lon="5.63259">
        <ele>597.5</ele>
        <time>2022-08-24T09:28:15Z</time>
      </trkpt>
      <trkpt lat="43.80885" lon="5.63264">
        <ele>597.9</ele>
        <time>2022-08-24T09:28:16Z</time>
      </trkpt>
      <trkpt lat="43.8088" lon="5.63267">
        <ele>598.3</ele>
        <time>2022-08-24T09:28:17Z</time>
      </trkpt>
      <trkpt lat="43.80874" lon="5.63267">
        <ele>598.3</ele>
        <time>2022-08-24T09:28:18Z</time>
      </trkpt>
      <trkpt lat="43.80868" lon="5.63268">
        <ele>598.3</ele>
        <time>2022-08-24T09:28:19Z</time>
      </trkpt>
      <trkpt lat="43.80861" lon="5.63267">
        <ele>598</ele>
        <time>2022-08-24T09:28:20Z</time>
      </trkpt>
      <trkpt lat="43.80854" lon="5.63264">
        <ele>598</ele>
        <time>2022-08-24T09:28:21Z</time>
      </trkpt>
      <trkpt lat="43.80848" lon="5.63261">
        <ele>597.6</ele>
        <time>2022-08-24T09:28:22Z</time>
      </trkpt>
      <trkpt lat="43.80841" lon="5.63258">
        <ele>597.4</ele>
        <time>2022-08-24T09:28:23Z</time>
      </trkpt>
      <trkpt lat="43.80835" lon="5.63257">
        <ele>597.3</ele>
        <time>2022-08-24T09:28:24Z</time>
      </trkpt>
      <trkpt lat="43.80829" lon="5.63255">
        <ele>597.4</ele>
        <time>2022-08-24T09:28:25Z</time>
      </trkpt>
      <trkpt lat="43.80823" lon="5.63252">
        <ele>597.3</ele>
        <time>2022-08-24T09:28:26Z</time>
      </trkpt>
      <trkpt lat="43.80816" lon="5.6325">
        <ele>597.2</ele>
        <time>2022-08-24T09:28:27Z</time>
      </trkpt>
      <trkpt lat="43.80809" lon="5.63247">
        <ele>597.3</ele>
        <time>2022-08-24T09:28:28Z</time>
      </trkpt>
      <trkpt lat="43.80805" lon="5.63242">
        <ele>596.7</ele>
        <time>2022-08-24T09:28:29Z</time>
      </trkpt>
      <trkpt lat="43.808" lon="5.63235">
        <ele>596.7</ele>
        <time>2022-08-24T09:28:30Z</time>
      </trkpt>
      <trkpt lat="43.80796" lon="5.63227">
        <ele>596.5</ele>
        <time>2022-08-24T09:28:31Z</time>
      </trkpt>
      <trkpt lat="43.80793" lon="5.63218">
        <ele>595.8</ele>
        <time>2022-08-24T09:28:32Z</time>
      </trkpt>
      <trkpt lat="43.8079" lon="5.6321">
        <ele>595</ele>
        <time>2022-08-24T09:28:33Z</time>
      </trkpt>
      <trkpt lat="43.80787" lon="5.63204">
        <ele>594.5</ele>
        <time>2022-08-24T09:28:34Z</time>
      </trkpt>
      <trkpt lat="43.80782" lon="5.63197">
        <ele>593.8</ele>
        <time>2022-08-24T09:28:35Z</time>
      </trkpt>
      <trkpt lat="43.80777" lon="5.63191">
        <ele>593.6</ele>
        <time>2022-08-24T09:28:36Z</time>
      </trkpt>
      <trkpt lat="43.80771" lon="5.63184">
        <ele>593.8</ele>
        <time>2022-08-24T09:28:37Z</time>
      </trkpt>
      <trkpt lat="43.80765" lon="5.63177">
        <ele>593.6</ele>
        <time>2022-08-24T09:28:38Z</time>
      </trkpt>
      <trkpt lat="43.8076" lon="5.6317">
        <ele>593.1</ele>
        <time>2022-08-24T09:28:39Z</time>
      </trkpt>
      <trkpt lat="43.80754" lon="5.63166">
        <ele>593</ele>
        <time>2022-08-24T09:28:40Z</time>
      </trkpt>
      <trkpt lat="43.80748" lon="5.6316">
        <ele>592.6</ele>
        <time>2022-08-24T09:28:41Z</time>
      </trkpt>
      <trkpt lat="43.80742" lon="5.63154">
        <ele>592.3</ele>
        <time>2022-08-24T09:28:42Z</time>
      </trkpt>
      <trkpt lat="43.80735" lon="5.63149">
        <ele>592</ele>
        <time>2022-08-24T09:28:43Z</time>
      </trkpt>
      <trkpt lat="43.80729" lon="5.63143">
        <ele>591.4</ele>
        <time>2022-08-24T09:28:44Z</time>
      </trkpt>
      <trkpt lat="43.80722" lon="5.63137">
        <ele>590.4</ele>
        <time>2022-08-24T09:28:45Z</time>
      </trkpt>
      <trkpt lat="43.80714" lon="5.63132">
        <ele>590.4</ele>
        <time>2022-08-24T09:28:46Z</time>
      </trkpt>
      <trkpt lat="43.80709" lon="5.63127">
        <ele>590</ele>
        <time>2022-08-24T09:28:47Z</time>
      </trkpt>
      <trkpt lat="43.80702" lon="5.63121">
        <ele>589.3</ele>
        <time>2022-08-24T09:28:48Z</time>
      </trkpt>
      <trkpt lat="43.80695" lon="5.63115">
        <ele>588.3</ele>
        <time>2022-08-24T09:28:49Z</time>
      </trkpt>
      <trkpt lat="43.80688" lon="5.63112">
        <ele>588.3</ele>
        <time>2022-08-24T09:28:50Z</time>
      </trkpt>
      <trkpt lat="43.8068" lon="5.63108">
        <ele>588.2</ele>
        <time>2022-08-24T09:28:51Z</time>
      </trkpt>
      <trkpt lat="43.80672" lon="5.63103">
        <ele>587.5</ele>
        <time>2022-08-24T09:28:52Z</time>
      </trkpt>
      <trkpt lat="43.80664" lon="5.631">
        <ele>587.2</ele>
        <time>2022-08-24T09:28:53Z</time>
      </trkpt>
      <trkpt lat="43.80657" lon="5.63096">
        <ele>586.2</ele>
        <time>2022-08-24T09:28:54Z</time>
      </trkpt>
      <trkpt lat="43.8065" lon="5.63093">
        <ele>585.8</ele>
        <time>2022-08-24T09:28:55Z</time>
      </trkpt>
      <trkpt lat="43.80641" lon="5.63092">
        <ele>586</ele>
        <time>2022-08-24T09:28:56Z</time>
      </trkpt>
      <trkpt lat="43.80631" lon="5.63091">
        <ele>585.7</ele>
        <time>2022-08-24T09:28:57Z</time>
      </trkpt>
      <trkpt lat="43.80623" lon="5.6309">
        <ele>585.6</ele>
        <time>2022-08-24T09:28:58Z</time>
      </trkpt>
      <trkpt lat="43.80616" lon="5.63088">
        <ele>584.9</ele>
        <time>2022-08-24T09:28:59Z</time>
      </trkpt>
      <trkpt lat="43.80607" lon="5.63087">
        <ele>584.7</ele>
        <time>2022-08-24T09:29:00Z</time>
      </trkpt>
      <trkpt lat="43.80599" lon="5.63085">
        <ele>584.7</ele>
        <time>2022-08-24T09:29:01Z</time>
      </trkpt>
      <trkpt lat="43.8059" lon="5.63081">
        <ele>583.6</ele>
        <time>2022-08-24T09:29:02Z</time>
      </trkpt>
      <trkpt lat="43.80582" lon="5.63077">
        <ele>582.6</ele>
        <time>2022-08-24T09:29:03Z</time>
      </trkpt>
      <trkpt lat="43.80574" lon="5.63074">
        <ele>582.7</ele>
        <time>2022-08-24T09:29:04Z</time>
      </trkpt>
      <trkpt lat="43.80567" lon="5.63071">
        <ele>582.7</ele>
        <time>2022-08-24T09:29:05Z</time>
      </trkpt>
      <trkpt lat="43.80558" lon="5.63067">
        <ele>582.5</ele>
        <time>2022-08-24T09:29:06Z</time>
      </trkpt>
      <trkpt lat="43.80551" lon="5.63063">
        <ele>581.4</ele>
        <time>2022-08-24T09:29:07Z</time>
      </trkpt>
      <trkpt lat="43.80544" lon="5.63059">
        <ele>580.4</ele>
        <time>2022-08-24T09:29:08Z</time>
      </trkpt>
      <trkpt lat="43.80536" lon="5.63056">
        <ele>579.5</ele>
        <time>2022-08-24T09:29:09Z</time>
      </trkpt>
      <trkpt lat="43.80531" lon="5.63052">
        <ele>578.6</ele>
        <time>2022-08-24T09:29:10Z</time>
      </trkpt>
      <trkpt lat="43.80523" lon="5.63052">
        <ele>578.4</ele>
        <time>2022-08-24T09:29:11Z</time>
      </trkpt>
      <trkpt lat="43.80516" lon="5.63051">
        <ele>577.8</ele>
        <time>2022-08-24T09:29:12Z</time>
      </trkpt>
      <trkpt lat="43.80508" lon="5.63051">
        <ele>577.6</ele>
        <time>2022-08-24T09:29:13Z</time>
      </trkpt>
      <trkpt lat="43.80499" lon="5.63052">
        <ele>577.6</ele>
        <time>2022-08-24T09:29:14Z</time>
      </trkpt>
      <trkpt lat="43.80491" lon="5.63052">
        <ele>577.2</ele>
        <time>2022-08-24T09:29:15Z</time>
      </trkpt>
      <trkpt lat="43.80483" lon="5.63053">
        <ele>577.1</ele>
        <time>2022-08-24T09:29:16Z</time>
      </trkpt>
      <trkpt lat="43.80476" lon="5.6305">
        <ele>575.4</ele>
        <time>2022-08-24T09:29:17Z</time>
      </trkpt>
      <trkpt lat="43.80467" lon="5.63047">
        <ele>575</ele>
        <time>2022-08-24T09:29:18Z</time>
      </trkpt>
      <trkpt lat="43.8046" lon="5.63046">
        <ele>575.6</ele>
        <time>2022-08-24T09:29:19Z</time>
      </trkpt>
      <trkpt lat="43.80452" lon="5.63043">
        <ele>575.6</ele>
        <time>2022-08-24T09:29:20Z</time>
      </trkpt>
      <trkpt lat="43.80444" lon="5.63039">
        <ele>575.1</ele>
        <time>2022-08-24T09:29:21Z</time>
      </trkpt>
      <trkpt lat="43.80436" lon="5.63036">
        <ele>575</ele>
        <time>2022-08-24T09:29:22Z</time>
      </trkpt>
      <trkpt lat="43.80429" lon="5.63031">
        <ele>574</ele>
        <time>2022-08-24T09:29:23Z</time>
      </trkpt>
      <trkpt lat="43.80421" lon="5.63028">
        <ele>573.9</ele>
        <time>2022-08-24T09:29:24Z</time>
      </trkpt>
      <trkpt lat="43.80415" lon="5.63023">
        <ele>573.9</ele>
        <time>2022-08-24T09:29:25Z</time>
      </trkpt>
      <trkpt lat="43.80406" lon="5.63012">
        <ele>573.3</ele>
        <time>2022-08-24T09:29:27Z</time>
      </trkpt>
      <trkpt lat="43.804" lon="5.63002">
        <ele>572.3</ele>
        <time>2022-08-24T09:29:28Z</time>
      </trkpt>
      <trkpt lat="43.80394" lon="5.62994">
        <ele>571.9</ele>
        <time>2022-08-24T09:29:29Z</time>
      </trkpt>
      <trkpt lat="43.80389" lon="5.62987">
        <ele>571.5</ele>
        <time>2022-08-24T09:29:30Z</time>
      </trkpt>
      <trkpt lat="43.80383" lon="5.6298">
        <ele>570.9</ele>
        <time>2022-08-24T09:29:31Z</time>
      </trkpt>
      <trkpt lat="43.80376" lon="5.62973">
        <ele>570</ele>
        <time>2022-08-24T09:29:32Z</time>
      </trkpt>
      <trkpt lat="43.8037" lon="5.62967">
        <ele>568.7</ele>
        <time>2022-08-24T09:29:33Z</time>
      </trkpt>
      <trkpt lat="43.80364" lon="5.62961">
        <ele>567.7</ele>
        <time>2022-08-24T09:29:34Z</time>
      </trkpt>
      <trkpt lat="43.80358" lon="5.62958">
        <ele>567.3</ele>
        <time>2022-08-24T09:29:35Z</time>
      </trkpt>
      <trkpt lat="43.80351" lon="5.62956">
        <ele>566.9</ele>
        <time>2022-08-24T09:29:36Z</time>
      </trkpt>
      <trkpt lat="43.80344" lon="5.62954">
        <ele>566.9</ele>
        <time>2022-08-24T09:29:37Z</time>
      </trkpt>
      <trkpt lat="43.80339" lon="5.62953">
        <ele>566.9</ele>
        <time>2022-08-24T09:29:38Z</time>
      </trkpt>
      <trkpt lat="43.80333" lon="5.62952">
        <ele>567</ele>
        <time>2022-08-24T09:29:39Z</time>
      </trkpt>
      <trkpt lat="43.80327" lon="5.6295">
        <ele>567.2</ele>
        <time>2022-08-24T09:29:40Z</time>
      </trkpt>
      <trkpt lat="43.80319" lon="5.62946">
        <ele>567.1</ele>
        <time>2022-08-24T09:29:41Z</time>
      </trkpt>
      <trkpt lat="43.80314" lon="5.62942">
        <ele>566.8</ele>
        <time>2022-08-24T09:29:42Z</time>
      </trkpt>
      <trkpt lat="43.80308" lon="5.62936">
        <ele>566</ele>
        <time>2022-08-24T09:29:43Z</time>
      </trkpt>
      <trkpt lat="43.80303" lon="5.62932">
        <ele>566.1</ele>
        <time>2022-08-24T09:29:44Z</time>
      </trkpt>
      <trkpt lat="43.80299" lon="5.62926">
        <ele>566.2</ele>
        <time>2022-08-24T09:29:45Z</time>
      </trkpt>
      <trkpt lat="43.80294" lon="5.62918">
        <ele>565.8</ele>
        <time>2022-08-24T09:29:46Z</time>
      </trkpt>
      <trkpt lat="43.80292" lon="5.6291">
        <ele>564.7</ele>
        <time>2022-08-24T09:29:47Z</time>
      </trkpt>
      <trkpt lat="43.80289" lon="5.62901">
        <ele>563.9</ele>
        <time>2022-08-24T09:29:48Z</time>
      </trkpt>
      <trkpt lat="43.80287" lon="5.62893">
        <ele>562.5</ele>
        <time>2022-08-24T09:29:49Z</time>
      </trkpt>
      <trkpt lat="43.80285" lon="5.62885">
        <ele>561.5</ele>
        <time>2022-08-24T09:29:50Z</time>
      </trkpt>
      <trkpt lat="43.80281" lon="5.62879">
        <ele>560.9</ele>
        <time>2022-08-24T09:29:51Z</time>
      </trkpt>
      <trkpt lat="43.80277" lon="5.62873">
        <ele>560.5</ele>
        <time>2022-08-24T09:29:52Z</time>
      </trkpt>
      <trkpt lat="43.80271" lon="5.62866">
        <ele>559.6</ele>
        <time>2022-08-24T09:29:53Z</time>
      </trkpt>
      <trkpt lat="43.80265" lon="5.6286">
        <ele>559</ele>
        <time>2022-08-24T09:29:54Z</time>
      </trkpt>
      <trkpt lat="43.80259" lon="5.62857">
        <ele>559.2</ele>
        <time>2022-08-24T09:29:55Z</time>
      </trkpt>
      <trkpt lat="43.80252" lon="5.62854">
        <ele>559.4</ele>
        <time>2022-08-24T09:29:56Z</time>
      </trkpt>
      <trkpt lat="43.80246" lon="5.62853">
        <ele>559.5</ele>
        <time>2022-08-24T09:29:57Z</time>
      </trkpt>
      <trkpt lat="43.80239" lon="5.62852">
        <ele>559.1</ele>
        <time>2022-08-24T09:29:58Z</time>
      </trkpt>
      <trkpt lat="43.80232" lon="5.62852">
        <ele>559.3</ele>
        <time>2022-08-24T09:29:59Z</time>
      </trkpt>
      <trkpt lat="43.80225" lon="5.62855">
        <ele>559.7</ele>
        <time>2022-08-24T09:30:00Z</time>
      </trkpt>
      <trkpt lat="43.80219" lon="5.62859">
        <ele>559.8</ele>
        <time>2022-08-24T09:30:01Z</time>
      </trkpt>
      <trkpt lat="43.80213" lon="5.62863">
        <ele>559.1</ele>
        <time>2022-08-24T09:30:02Z</time>
      </trkpt>
      <trkpt lat="43.80207" lon="5.62869">
        <ele>558.5</ele>
        <time>2022-08-24T09:30:03Z</time>
      </trkpt>
      <trkpt lat="43.80204" lon="5.62877">
        <ele>558.2</ele>
        <time>2022-08-24T09:30:04Z</time>
      </trkpt>
      <trkpt lat="43.80201" lon="5.62885">
        <ele>557.9</ele>
        <time>2022-08-24T09:30:05Z</time>
      </trkpt>
      <trkpt lat="43.80199" lon="5.62895">
        <ele>557.7</ele>
        <time>2022-08-24T09:30:06Z</time>
      </trkpt>
      <trkpt lat="43.80197" lon="5.62904">
        <ele>557.3</ele>
        <time>2022-08-24T09:30:07Z</time>
      </trkpt>
      <trkpt lat="43.80195" lon="5.62913">
        <ele>557.1</ele>
        <time>2022-08-24T09:30:08Z</time>
      </trkpt>
      <trkpt lat="43.80193" lon="5.62922">
        <ele>556.7</ele>
        <time>2022-08-24T09:30:09Z</time>
      </trkpt>
      <trkpt lat="43.80191" lon="5.62931">
        <ele>556.3</ele>
        <time>2022-08-24T09:30:10Z</time>
      </trkpt>
      <trkpt lat="43.80189" lon="5.6294">
        <ele>555.8</ele>
        <time>2022-08-24T09:30:11Z</time>
      </trkpt>
      <trkpt lat="43.80187" lon="5.62949">
        <ele>555.5</ele>
        <time>2022-08-24T09:30:12Z</time>
      </trkpt>
      <trkpt lat="43.80184" lon="5.62959">
        <ele>555.2</ele>
        <time>2022-08-24T09:30:13Z</time>
      </trkpt>
      <trkpt lat="43.8018" lon="5.62967">
        <ele>554.6</ele>
        <time>2022-08-24T09:30:14Z</time>
      </trkpt>
      <trkpt lat="43.80178" lon="5.62976">
        <ele>554.3</ele>
        <time>2022-08-24T09:30:15Z</time>
      </trkpt>
      <trkpt lat="43.80174" lon="5.62986">
        <ele>554</ele>
        <time>2022-08-24T09:30:16Z</time>
      </trkpt>
      <trkpt lat="43.8017" lon="5.62994">
        <ele>553.3</ele>
        <time>2022-08-24T09:30:17Z</time>
      </trkpt>
      <trkpt lat="43.80166" lon="5.63002">
        <ele>553</ele>
        <time>2022-08-24T09:30:18Z</time>
      </trkpt>
      <trkpt lat="43.80163" lon="5.63011">
        <ele>553.1</ele>
        <time>2022-08-24T09:30:19Z</time>
      </trkpt>
      <trkpt lat="43.80158" lon="5.63018">
        <ele>552.5</ele>
        <time>2022-08-24T09:30:20Z</time>
      </trkpt>
      <trkpt lat="43.80156" lon="5.63028">
        <ele>552.9</ele>
        <time>2022-08-24T09:30:21Z</time>
      </trkpt>
      <trkpt lat="43.80153" lon="5.63036">
        <ele>552.5</ele>
        <time>2022-08-24T09:30:22Z</time>
      </trkpt>
      <trkpt lat="43.80151" lon="5.63045">
        <ele>552.3</ele>
        <time>2022-08-24T09:30:23Z</time>
      </trkpt>
      <trkpt lat="43.80148" lon="5.63053">
        <ele>551.7</ele>
        <time>2022-08-24T09:30:24Z</time>
      </trkpt>
      <trkpt lat="43.80145" lon="5.63062">
        <ele>551.5</ele>
        <time>2022-08-24T09:30:25Z</time>
      </trkpt>
      <trkpt lat="43.80143" lon="5.6307">
        <ele>551.2</ele>
        <time>2022-08-24T09:30:26Z</time>
      </trkpt>
      <trkpt lat="43.80141" lon="5.6308">
        <ele>551.3</ele>
        <time>2022-08-24T09:30:27Z</time>
      </trkpt>
      <trkpt lat="43.80139" lon="5.6309">
        <ele>550.7</ele>
        <time>2022-08-24T09:30:28Z</time>
      </trkpt>
      <trkpt lat="43.80137" lon="5.63099">
        <ele>549.7</ele>
        <time>2022-08-24T09:30:29Z</time>
      </trkpt>
      <trkpt lat="43.80134" lon="5.63109">
        <ele>548.7</ele>
        <time>2022-08-24T09:30:30Z</time>
      </trkpt>
      <trkpt lat="43.80132" lon="5.63119">
        <ele>548.3</ele>
        <time>2022-08-24T09:30:31Z</time>
      </trkpt>
      <trkpt lat="43.80129" lon="5.63129">
        <ele>548.1</ele>
        <time>2022-08-24T09:30:32Z</time>
      </trkpt>
      <trkpt lat="43.80126" lon="5.63139">
        <ele>547.8</ele>
        <time>2022-08-24T09:30:33Z</time>
      </trkpt>
      <trkpt lat="43.80124" lon="5.6315">
        <ele>547.3</ele>
        <time>2022-08-24T09:30:34Z</time>
      </trkpt>
      <trkpt lat="43.80122" lon="5.63161">
        <ele>546.7</ele>
        <time>2022-08-24T09:30:35Z</time>
      </trkpt>
      <trkpt lat="43.80121" lon="5.63172">
        <ele>546</ele>
        <time>2022-08-24T09:30:36Z</time>
      </trkpt>
      <trkpt lat="43.80119" lon="5.63182">
        <ele>545</ele>
        <time>2022-08-24T09:30:37Z</time>
      </trkpt>
      <trkpt lat="43.80119" lon="5.63191">
        <ele>544.6</ele>
        <time>2022-08-24T09:30:38Z</time>
      </trkpt>
      <trkpt lat="43.80121" lon="5.63199">
        <ele>544.4</ele>
        <time>2022-08-24T09:30:39Z</time>
      </trkpt>
      <trkpt lat="43.80123" lon="5.63209">
        <ele>543.4</ele>
        <time>2022-08-24T09:30:40Z</time>
      </trkpt>
      <trkpt lat="43.80127" lon="5.63218">
        <ele>543.4</ele>
        <time>2022-08-24T09:30:41Z</time>
      </trkpt>
      <trkpt lat="43.8013" lon="5.63226">
        <ele>543.6</ele>
        <time>2022-08-24T09:30:42Z</time>
      </trkpt>
      <trkpt lat="43.80133" lon="5.63234">
        <ele>543.5</ele>
        <time>2022-08-24T09:30:43Z</time>
      </trkpt>
      <trkpt lat="43.80136" lon="5.63242">
        <ele>543.3</ele>
        <time>2022-08-24T09:30:44Z</time>
      </trkpt>
      <trkpt lat="43.80138" lon="5.6325">
        <ele>542.6</ele>
        <time>2022-08-24T09:30:45Z</time>
      </trkpt>
      <trkpt lat="43.80141" lon="5.63257">
        <ele>542.3</ele>
        <time>2022-08-24T09:30:46Z</time>
      </trkpt>
      <trkpt lat="43.80148" lon="5.63261">
        <ele>543</ele>
        <time>2022-08-24T09:30:47Z</time>
      </trkpt>
      <trkpt lat="43.80154" lon="5.63264">
        <ele>543.7</ele>
        <time>2022-08-24T09:30:48Z</time>
      </trkpt>
      <trkpt lat="43.80157" lon="5.63271">
        <ele>542.8</ele>
        <time>2022-08-24T09:30:49Z</time>
      </trkpt>
      <trkpt lat="43.80158" lon="5.63279">
        <ele>541.7</ele>
        <time>2022-08-24T09:30:50Z</time>
      </trkpt>
      <trkpt lat="43.80156" lon="5.63286">
        <ele>542.4</ele>
        <time>2022-08-24T09:30:51Z</time>
      </trkpt>
      <trkpt lat="43.8015" lon="5.63292">
        <ele>542.3</ele>
        <time>2022-08-24T09:30:52Z</time>
      </trkpt>
      <trkpt lat="43.80146" lon="5.63297">
        <ele>542.2</ele>
        <time>2022-08-24T09:30:53Z</time>
      </trkpt>
      <trkpt lat="43.80139" lon="5.63301">
        <ele>541.4</ele>
        <time>2022-08-24T09:30:54Z</time>
      </trkpt>
      <trkpt lat="43.80132" lon="5.63303">
        <ele>541.8</ele>
        <time>2022-08-24T09:30:55Z</time>
      </trkpt>
      <trkpt lat="43.80125" lon="5.63304">
        <ele>542.1</ele>
        <time>2022-08-24T09:30:56Z</time>
      </trkpt>
      <trkpt lat="43.80118" lon="5.63303">
        <ele>541.9</ele>
        <time>2022-08-24T09:30:57Z</time>
      </trkpt>
      <trkpt lat="43.80111" lon="5.63294">
        <ele>539.2</ele>
        <time>2022-08-24T09:30:58Z</time>
      </trkpt>
      <trkpt lat="43.80105" lon="5.63288">
        <ele>538.3</ele>
        <time>2022-08-24T09:30:59Z</time>
      </trkpt>
      <trkpt lat="43.80098" lon="5.63282">
        <ele>537.4</ele>
        <time>2022-08-24T09:31:00Z</time>
      </trkpt>
      <trkpt lat="43.80092" lon="5.63275">
        <ele>536.8</ele>
        <time>2022-08-24T09:31:01Z</time>
      </trkpt>
      <trkpt lat="43.80085" lon="5.63271">
        <ele>536.8</ele>
        <time>2022-08-24T09:31:02Z</time>
      </trkpt>
      <trkpt lat="43.80077" lon="5.63268">
        <ele>536</ele>
        <time>2022-08-24T09:31:03Z</time>
      </trkpt>
      <trkpt lat="43.8007" lon="5.63266">
        <ele>535.6</ele>
        <time>2022-08-24T09:31:04Z</time>
      </trkpt>
      <trkpt lat="43.80062" lon="5.63266">
        <ele>535.7</ele>
        <time>2022-08-24T09:31:05Z</time>
      </trkpt>
      <trkpt lat="43.80055" lon="5.63262">
        <ele>534.9</ele>
        <time>2022-08-24T09:31:06Z</time>
      </trkpt>
      <trkpt lat="43.80047" lon="5.63264">
        <ele>534.2</ele>
        <time>2022-08-24T09:31:07Z</time>
      </trkpt>
      <trkpt lat="43.80039" lon="5.63264">
        <ele>533.1</ele>
        <time>2022-08-24T09:31:08Z</time>
      </trkpt>
      <trkpt lat="43.80032" lon="5.6327">
        <ele>533.3</ele>
        <time>2022-08-24T09:31:09Z</time>
      </trkpt>
      <trkpt lat="43.80026" lon="5.63276">
        <ele>533.4</ele>
        <time>2022-08-24T09:31:10Z</time>
      </trkpt>
      <trkpt lat="43.80019" lon="5.63279">
        <ele>532.6</ele>
        <time>2022-08-24T09:31:11Z</time>
      </trkpt>
      <trkpt lat="43.80013" lon="5.63282">
        <ele>531.8</ele>
        <time>2022-08-24T09:31:12Z</time>
      </trkpt>
      <trkpt lat="43.80007" lon="5.63289">
        <ele>531.6</ele>
        <time>2022-08-24T09:31:13Z</time>
      </trkpt>
      <trkpt lat="43.80001" lon="5.63294">
        <ele>531.1</ele>
        <time>2022-08-24T09:31:14Z</time>
      </trkpt>
      <trkpt lat="43.79997" lon="5.63303">
        <ele>531</ele>
        <time>2022-08-24T09:31:15Z</time>
      </trkpt>
      <trkpt lat="43.79992" lon="5.63311">
        <ele>530.7</ele>
        <time>2022-08-24T09:31:16Z</time>
      </trkpt>
      <trkpt lat="43.79988" lon="5.63318">
        <ele>530.5</ele>
        <time>2022-08-24T09:31:17Z</time>
      </trkpt>
      <trkpt lat="43.79986" lon="5.63327">
        <ele>531.2</ele>
        <time>2022-08-24T09:31:18Z</time>
      </trkpt>
      <trkpt lat="43.79981" lon="5.63334">
        <ele>531</ele>
        <time>2022-08-24T09:31:19Z</time>
      </trkpt>
      <trkpt lat="43.79977" lon="5.6334">
        <ele>530.4</ele>
        <time>2022-08-24T09:31:20Z</time>
      </trkpt>
      <trkpt lat="43.79973" lon="5.63349">
        <ele>529.6</ele>
        <time>2022-08-24T09:31:21Z</time>
      </trkpt>
      <trkpt lat="43.79969" lon="5.63355">
        <ele>529.4</ele>
        <time>2022-08-24T09:31:22Z</time>
      </trkpt>
      <trkpt lat="43.79965" lon="5.63362">
        <ele>529.2</ele>
        <time>2022-08-24T09:31:23Z</time>
      </trkpt>
      <trkpt lat="43.79961" lon="5.63369">
        <ele>529.1</ele>
        <time>2022-08-24T09:31:24Z</time>
      </trkpt>
      <trkpt lat="43.79957" lon="5.63378">
        <ele>528.9</ele>
        <time>2022-08-24T09:31:25Z</time>
      </trkpt>
      <trkpt lat="43.79954" lon="5.63386">
        <ele>528.6</ele>
        <time>2022-08-24T09:31:26Z</time>
      </trkpt>
      <trkpt lat="43.7995" lon="5.63395">
        <ele>527.9</ele>
        <time>2022-08-24T09:31:27Z</time>
      </trkpt>
      <trkpt lat="43.79946" lon="5.63404">
        <ele>526.8</ele>
        <time>2022-08-24T09:31:28Z</time>
      </trkpt>
      <trkpt lat="43.79943" lon="5.63415">
        <ele>525.7</ele>
        <time>2022-08-24T09:31:29Z</time>
      </trkpt>
      <trkpt lat="43.79941" lon="5.63426">
        <ele>524.7</ele>
        <time>2022-08-24T09:31:30Z</time>
      </trkpt>
      <trkpt lat="43.79939" lon="5.63436">
        <ele>523.8</ele>
        <time>2022-08-24T09:31:31Z</time>
      </trkpt>
      <trkpt lat="43.79937" lon="5.63449">
        <ele>522.9</ele>
        <time>2022-08-24T09:31:32Z</time>
      </trkpt>
      <trkpt lat="43.79937" lon="5.63461">
        <ele>522.5</ele>
        <time>2022-08-24T09:31:33Z</time>
      </trkpt>
      <trkpt lat="43.79935" lon="5.63473">
        <ele>521.5</ele>
        <time>2022-08-24T09:31:34Z</time>
      </trkpt>
      <trkpt lat="43.79932" lon="5.63485">
        <ele>520.7</ele>
        <time>2022-08-24T09:31:35Z</time>
      </trkpt>
      <trkpt lat="43.79928" lon="5.63497">
        <ele>519.6</ele>
        <time>2022-08-24T09:31:36Z</time>
      </trkpt>
      <trkpt lat="43.79926" lon="5.63509">
        <ele>519</ele>
        <time>2022-08-24T09:31:37Z</time>
      </trkpt>
      <trkpt lat="43.7992" lon="5.6352">
        <ele>517.2</ele>
        <time>2022-08-24T09:31:38Z</time>
      </trkpt>
      <trkpt lat="43.79917" lon="5.63532">
        <ele>516.4</ele>
        <time>2022-08-24T09:31:39Z</time>
      </trkpt>
      <trkpt lat="43.79912" lon="5.63544">
        <ele>515.6</ele>
        <time>2022-08-24T09:31:40Z</time>
      </trkpt>
      <trkpt lat="43.79907" lon="5.63553">
        <ele>514.4</ele>
        <time>2022-08-24T09:31:41Z</time>
      </trkpt>
      <trkpt lat="43.79903" lon="5.63567">
        <ele>513.5</ele>
        <time>2022-08-24T09:31:42Z</time>
      </trkpt>
      <trkpt lat="43.79899" lon="5.63578">
        <ele>512.8</ele>
        <time>2022-08-24T09:31:43Z</time>
      </trkpt>
      <trkpt lat="43.79893" lon="5.63589">
        <ele>511.9</ele>
        <time>2022-08-24T09:31:44Z</time>
      </trkpt>
      <trkpt lat="43.79886" lon="5.63601">
        <ele>510.9</ele>
        <time>2022-08-24T09:31:45Z</time>
      </trkpt>
      <trkpt lat="43.79881" lon="5.63614">
        <ele>510.3</ele>
        <time>2022-08-24T09:31:46Z</time>
      </trkpt>
      <trkpt lat="43.79876" lon="5.63627">
        <ele>509.2</ele>
        <time>2022-08-24T09:31:47Z</time>
      </trkpt>
      <trkpt lat="43.7987" lon="5.63638">
        <ele>507.8</ele>
        <time>2022-08-24T09:31:48Z</time>
      </trkpt>
      <trkpt lat="43.79864" lon="5.6365">
        <ele>506.7</ele>
        <time>2022-08-24T09:31:49Z</time>
      </trkpt>
      <trkpt lat="43.7986" lon="5.63662">
        <ele>506.2</ele>
        <time>2022-08-24T09:31:50Z</time>
      </trkpt>
      <trkpt lat="43.79856" lon="5.63675">
        <ele>505.3</ele>
        <time>2022-08-24T09:31:51Z</time>
      </trkpt>
      <trkpt lat="43.79853" lon="5.63688">
        <ele>504.5</ele>
        <time>2022-08-24T09:31:52Z</time>
      </trkpt>
      <trkpt lat="43.7985" lon="5.63702">
        <ele>503.5</ele>
        <time>2022-08-24T09:31:53Z</time>
      </trkpt>
      <trkpt lat="43.7985" lon="5.63716">
        <ele>502.5</ele>
        <time>2022-08-24T09:31:54Z</time>
      </trkpt>
      <trkpt lat="43.79848" lon="5.6373">
        <ele>501.7</ele>
        <time>2022-08-24T09:31:55Z</time>
      </trkpt>
      <trkpt lat="43.79844" lon="5.63743">
        <ele>500.8</ele>
        <time>2022-08-24T09:31:56Z</time>
      </trkpt>
      <trkpt lat="43.7984" lon="5.63755">
        <ele>499.9</ele>
        <time>2022-08-24T09:31:57Z</time>
      </trkpt>
      <trkpt lat="43.79836" lon="5.63766">
        <ele>499.1</ele>
        <time>2022-08-24T09:31:58Z</time>
      </trkpt>
      <trkpt lat="43.79831" lon="5.63778">
        <ele>498.3</ele>
        <time>2022-08-24T09:31:59Z</time>
      </trkpt>
      <trkpt lat="43.79829" lon="5.63791">
        <ele>497.3</ele>
        <time>2022-08-24T09:32:00Z</time>
      </trkpt>
      <trkpt lat="43.79829" lon="5.63806">
        <ele>496.9</ele>
        <time>2022-08-24T09:32:01Z</time>
      </trkpt>
      <trkpt lat="43.79829" lon="5.63818">
        <ele>495.7</ele>
        <time>2022-08-24T09:32:02Z</time>
      </trkpt>
      <trkpt lat="43.79829" lon="5.63833">
        <ele>494.2</ele>
        <time>2022-08-24T09:32:03Z</time>
      </trkpt>
      <trkpt lat="43.79828" lon="5.63847">
        <ele>493.9</ele>
        <time>2022-08-24T09:32:04Z</time>
      </trkpt>
      <trkpt lat="43.79825" lon="5.6386">
        <ele>493.2</ele>
        <time>2022-08-24T09:32:05Z</time>
      </trkpt>
      <trkpt lat="43.7982" lon="5.63873">
        <ele>492.6</ele>
        <time>2022-08-24T09:32:06Z</time>
      </trkpt>
      <trkpt lat="43.79814" lon="5.63884">
        <ele>491.3</ele>
        <time>2022-08-24T09:32:07Z</time>
      </trkpt>
      <trkpt lat="43.79807" lon="5.63895">
        <ele>490.1</ele>
        <time>2022-08-24T09:32:08Z</time>
      </trkpt>
      <trkpt lat="43.79799" lon="5.63905">
        <ele>489.5</ele>
        <time>2022-08-24T09:32:09Z</time>
      </trkpt>
      <trkpt lat="43.79791" lon="5.63915">
        <ele>488.6</ele>
        <time>2022-08-24T09:32:10Z</time>
      </trkpt>
      <trkpt lat="43.79781" lon="5.63921">
        <ele>487.3</ele>
        <time>2022-08-24T09:32:11Z</time>
      </trkpt>
      <trkpt lat="43.79771" lon="5.63928">
        <ele>486.6</ele>
        <time>2022-08-24T09:32:12Z</time>
      </trkpt>
      <trkpt lat="43.79762" lon="5.63933">
        <ele>485.7</ele>
        <time>2022-08-24T09:32:13Z</time>
      </trkpt>
      <trkpt lat="43.79752" lon="5.63936">
        <ele>484.4</ele>
        <time>2022-08-24T09:32:14Z</time>
      </trkpt>
      <trkpt lat="43.79741" lon="5.63939">
        <ele>482.9</ele>
        <time>2022-08-24T09:32:15Z</time>
      </trkpt>
      <trkpt lat="43.79731" lon="5.63944">
        <ele>481.6</ele>
        <time>2022-08-24T09:32:16Z</time>
      </trkpt>
      <trkpt lat="43.79721" lon="5.63948">
        <ele>480.4</ele>
        <time>2022-08-24T09:32:17Z</time>
      </trkpt>
      <trkpt lat="43.79709" lon="5.63952">
        <ele>479</ele>
        <time>2022-08-24T09:32:18Z</time>
      </trkpt>
      <trkpt lat="43.797" lon="5.63959">
        <ele>478.2</ele>
        <time>2022-08-24T09:32:19Z</time>
      </trkpt>
      <trkpt lat="43.7969" lon="5.63965">
        <ele>476.9</ele>
        <time>2022-08-24T09:32:20Z</time>
      </trkpt>
      <trkpt lat="43.7968" lon="5.63973">
        <ele>475.4</ele>
        <time>2022-08-24T09:32:21Z</time>
      </trkpt>
      <trkpt lat="43.7967" lon="5.63981">
        <ele>474.2</ele>
        <time>2022-08-24T09:32:22Z</time>
      </trkpt>
      <trkpt lat="43.79662" lon="5.63992">
        <ele>473.9</ele>
        <time>2022-08-24T09:32:23Z</time>
      </trkpt>
      <trkpt lat="43.79654" lon="5.64">
        <ele>473.2</ele>
        <time>2022-08-24T09:32:24Z</time>
      </trkpt>
      <trkpt lat="43.79645" lon="5.6401">
        <ele>472.1</ele>
        <time>2022-08-24T09:32:25Z</time>
      </trkpt>
      <trkpt lat="43.79638" lon="5.6402">
        <ele>470.6</ele>
        <time>2022-08-24T09:32:26Z</time>
      </trkpt>
      <trkpt lat="43.79631" lon="5.6403">
        <ele>469.7</ele>
        <time>2022-08-24T09:32:27Z</time>
      </trkpt>
      <trkpt lat="43.79624" lon="5.64041">
        <ele>468.9</ele>
        <time>2022-08-24T09:32:28Z</time>
      </trkpt>
      <trkpt lat="43.79618" lon="5.64053">
        <ele>467.8</ele>
        <time>2022-08-24T09:32:29Z</time>
      </trkpt>
      <trkpt lat="43.79612" lon="5.64065">
        <ele>466.6</ele>
        <time>2022-08-24T09:32:30Z</time>
      </trkpt>
      <trkpt lat="43.79607" lon="5.64078">
        <ele>466.1</ele>
        <time>2022-08-24T09:32:31Z</time>
      </trkpt>
      <trkpt lat="43.79603" lon="5.64091">
        <ele>466.2</ele>
        <time>2022-08-24T09:32:32Z</time>
      </trkpt>
      <trkpt lat="43.79598" lon="5.64101">
        <ele>465.9</ele>
        <time>2022-08-24T09:32:33Z</time>
      </trkpt>
      <trkpt lat="43.79593" lon="5.64108">
        <ele>465.3</ele>
        <time>2022-08-24T09:32:34Z</time>
      </trkpt>
      <trkpt lat="43.79588" lon="5.64113">
        <ele>464.1</ele>
        <time>2022-08-24T09:32:35Z</time>
      </trkpt>
      <trkpt lat="43.79581" lon="5.64112">
        <ele>462.8</ele>
        <time>2022-08-24T09:32:36Z</time>
      </trkpt>
      <trkpt lat="43.79576" lon="5.6411">
        <ele>462.2</ele>
        <time>2022-08-24T09:32:37Z</time>
      </trkpt>
      <trkpt lat="43.7957" lon="5.64105">
        <ele>461.6</ele>
        <time>2022-08-24T09:32:38Z</time>
      </trkpt>
      <trkpt lat="43.79563" lon="5.64106">
        <ele>460.9</ele>
        <time>2022-08-24T09:32:39Z</time>
      </trkpt>
      <trkpt lat="43.79557" lon="5.64102">
        <ele>460.5</ele>
        <time>2022-08-24T09:32:40Z</time>
      </trkpt>
      <trkpt lat="43.7955" lon="5.64098">
        <ele>460.5</ele>
        <time>2022-08-24T09:32:41Z</time>
      </trkpt>
      <trkpt lat="43.79543" lon="5.64097">
        <ele>460.8</ele>
        <time>2022-08-24T09:32:42Z</time>
      </trkpt>
      <trkpt lat="43.79536" lon="5.64096">
        <ele>460.9</ele>
        <time>2022-08-24T09:32:43Z</time>
      </trkpt>
      <trkpt lat="43.79528" lon="5.64097">
        <ele>461</ele>
        <time>2022-08-24T09:32:44Z</time>
      </trkpt>
      <trkpt lat="43.79522" lon="5.64099">
        <ele>460.4</ele>
        <time>2022-08-24T09:32:45Z</time>
      </trkpt>
      <trkpt lat="43.79514" lon="5.64102">
        <ele>459.7</ele>
        <time>2022-08-24T09:32:46Z</time>
      </trkpt>
      <trkpt lat="43.79506" lon="5.64104">
        <ele>459.1</ele>
        <time>2022-08-24T09:32:47Z</time>
      </trkpt>
      <trkpt lat="43.79499" lon="5.64106">
        <ele>458.5</ele>
        <time>2022-08-24T09:32:48Z</time>
      </trkpt>
      <trkpt lat="43.79491" lon="5.64109">
        <ele>457.8</ele>
        <time>2022-08-24T09:32:49Z</time>
      </trkpt>
      <trkpt lat="43.79483" lon="5.64111">
        <ele>457.4</ele>
        <time>2022-08-24T09:32:50Z</time>
      </trkpt>
      <trkpt lat="43.79475" lon="5.64114">
        <ele>457</ele>
        <time>2022-08-24T09:32:51Z</time>
      </trkpt>
      <trkpt lat="43.79467" lon="5.64116">
        <ele>456.5</ele>
        <time>2022-08-24T09:32:52Z</time>
      </trkpt>
      <trkpt lat="43.79459" lon="5.64117">
        <ele>455.7</ele>
        <time>2022-08-24T09:32:53Z</time>
      </trkpt>
      <trkpt lat="43.79451" lon="5.64119">
        <ele>455</ele>
        <time>2022-08-24T09:32:54Z</time>
      </trkpt>
      <trkpt lat="43.79442" lon="5.64117">
        <ele>454.4</ele>
        <time>2022-08-24T09:32:55Z</time>
      </trkpt>
      <trkpt lat="43.79433" lon="5.64117">
        <ele>454</ele>
        <time>2022-08-24T09:32:56Z</time>
      </trkpt>
      <trkpt lat="43.79425" lon="5.64114">
        <ele>453.9</ele>
        <time>2022-08-24T09:32:57Z</time>
      </trkpt>
      <trkpt lat="43.79416" lon="5.64111">
        <ele>453.9</ele>
        <time>2022-08-24T09:32:58Z</time>
      </trkpt>
      <trkpt lat="43.79408" lon="5.64108">
        <ele>452.7</ele>
        <time>2022-08-24T09:32:59Z</time>
      </trkpt>
      <trkpt lat="43.79384" lon="5.64092">
        <ele>451</ele>
        <time>2022-08-24T09:33:02Z</time>
      </trkpt>
      <trkpt lat="43.79376" lon="5.64087">
        <ele>450.8</ele>
        <time>2022-08-24T09:33:03Z</time>
      </trkpt>
      <trkpt lat="43.79368" lon="5.64083">
        <ele>450.5</ele>
        <time>2022-08-24T09:33:04Z</time>
      </trkpt>
      <trkpt lat="43.79361" lon="5.64077">
        <ele>450.2</ele>
        <time>2022-08-24T09:33:05Z</time>
      </trkpt>
      <trkpt lat="43.79353" lon="5.64072">
        <ele>450.1</ele>
        <time>2022-08-24T09:33:06Z</time>
      </trkpt>
      <trkpt lat="43.79346" lon="5.64067">
        <ele>450.1</ele>
        <time>2022-08-24T09:33:07Z</time>
      </trkpt>
      <trkpt lat="43.79338" lon="5.64061">
        <ele>450</ele>
        <time>2022-08-24T09:33:08Z</time>
      </trkpt>
      <trkpt lat="43.7933" lon="5.64055">
        <ele>449.7</ele>
        <time>2022-08-24T09:33:09Z</time>
      </trkpt>
      <trkpt lat="43.79323" lon="5.6405">
        <ele>449</ele>
        <time>2022-08-24T09:33:10Z</time>
      </trkpt>
      <trkpt lat="43.79315" lon="5.64045">
        <ele>448.5</ele>
        <time>2022-08-24T09:33:11Z</time>
      </trkpt>
      <trkpt lat="43.79308" lon="5.64039">
        <ele>448.3</ele>
        <time>2022-08-24T09:33:12Z</time>
      </trkpt>
      <trkpt lat="43.793" lon="5.64034">
        <ele>448.5</ele>
        <time>2022-08-24T09:33:13Z</time>
      </trkpt>
      <trkpt lat="43.79292" lon="5.64029">
        <ele>448.9</ele>
        <time>2022-08-24T09:33:14Z</time>
      </trkpt>
      <trkpt lat="43.79284" lon="5.64023">
        <ele>449.4</ele>
        <time>2022-08-24T09:33:15Z</time>
      </trkpt>
      <trkpt lat="43.79277" lon="5.64018">
        <ele>450.1</ele>
        <time>2022-08-24T09:33:16Z</time>
      </trkpt>
      <trkpt lat="43.7927" lon="5.64012">
        <ele>450.3</ele>
        <time>2022-08-24T09:33:17Z</time>
      </trkpt>
      <trkpt lat="43.79263" lon="5.64007">
        <ele>450.3</ele>
        <time>2022-08-24T09:33:18Z</time>
      </trkpt>
      <trkpt lat="43.79257" lon="5.64002">
        <ele>450.3</ele>
        <time>2022-08-24T09:33:19Z</time>
      </trkpt>
      <trkpt lat="43.7925" lon="5.63997">
        <ele>450.4</ele>
        <time>2022-08-24T09:33:20Z</time>
      </trkpt>
      <trkpt lat="43.79244" lon="5.63992">
        <ele>450.4</ele>
        <time>2022-08-24T09:33:21Z</time>
      </trkpt>
      <trkpt lat="43.79236" lon="5.63987">
        <ele>450.2</ele>
        <time>2022-08-24T09:33:22Z</time>
      </trkpt>
      <trkpt lat="43.79231" lon="5.63981">
        <ele>450.2</ele>
        <time>2022-08-24T09:33:23Z</time>
      </trkpt>
      <trkpt lat="43.79224" lon="5.63976">
        <ele>449.9</ele>
        <time>2022-08-24T09:33:24Z</time>
      </trkpt>
      <trkpt lat="43.79218" lon="5.6397">
        <ele>449.7</ele>
        <time>2022-08-24T09:33:25Z</time>
      </trkpt>
      <trkpt lat="43.79212" lon="5.63965">
        <ele>449.3</ele>
        <time>2022-08-24T09:33:26Z</time>
      </trkpt>
      <trkpt lat="43.79206" lon="5.6396">
        <ele>448.9</ele>
        <time>2022-08-24T09:33:27Z</time>
      </trkpt>
      <trkpt lat="43.792" lon="5.63955">
        <ele>448.8</ele>
        <time>2022-08-24T09:33:28Z</time>
      </trkpt>
      <trkpt lat="43.79194" lon="5.63949">
        <ele>448.4</ele>
        <time>2022-08-24T09:33:29Z</time>
      </trkpt>
      <trkpt lat="43.79189" lon="5.63945">
        <ele>448.3</ele>
        <time>2022-08-24T09:33:30Z</time>
      </trkpt>
      <trkpt lat="43.79183" lon="5.63941">
        <ele>448.2</ele>
        <time>2022-08-24T09:33:31Z</time>
      </trkpt>
      <trkpt lat="43.79177" lon="5.63936">
        <ele>448.2</ele>
        <time>2022-08-24T09:33:32Z</time>
      </trkpt>
      <trkpt lat="43.79171" lon="5.63933">
        <ele>448.1</ele>
        <time>2022-08-24T09:33:33Z</time>
      </trkpt>
      <trkpt lat="43.79166" lon="5.63929">
        <ele>448.2</ele>
        <time>2022-08-24T09:33:34Z</time>
      </trkpt>
      <trkpt lat="43.79161" lon="5.63924">
        <ele>448.4</ele>
        <time>2022-08-24T09:33:35Z</time>
      </trkpt>
      <trkpt lat="43.79156" lon="5.63919">
        <ele>448.5</ele>
        <time>2022-08-24T09:33:36Z</time>
      </trkpt>
      <trkpt lat="43.79151" lon="5.63915">
        <ele>448.5</ele>
        <time>2022-08-24T09:33:37Z</time>
      </trkpt>
      <trkpt lat="43.79146" lon="5.63909">
        <ele>448.6</ele>
        <time>2022-08-24T09:33:38Z</time>
      </trkpt>
      <trkpt lat="43.79142" lon="5.63902">
        <ele>448.9</ele>
        <time>2022-08-24T09:33:39Z</time>
      </trkpt>
      <trkpt lat="43.79136" lon="5.63896">
        <ele>448.8</ele>
        <time>2022-08-24T09:33:40Z</time>
      </trkpt>
      <trkpt lat="43.79131" lon="5.63891">
        <ele>448.6</ele>
        <time>2022-08-24T09:33:41Z</time>
      </trkpt>
      <trkpt lat="43.79125" lon="5.63887">
        <ele>448.4</ele>
        <time>2022-08-24T09:33:42Z</time>
      </trkpt>
      <trkpt lat="43.79119" lon="5.63883">
        <ele>448.5</ele>
        <time>2022-08-24T09:33:43Z</time>
      </trkpt>
      <trkpt lat="43.79114" lon="5.63879">
        <ele>448.7</ele>
        <time>2022-08-24T09:33:44Z</time>
      </trkpt>
      <trkpt lat="43.79108" lon="5.63876">
        <ele>448.8</ele>
        <time>2022-08-24T09:33:45Z</time>
      </trkpt>
      <trkpt lat="43.79102" lon="5.63874">
        <ele>448.5</ele>
        <time>2022-08-24T09:33:46Z</time>
      </trkpt>
      <trkpt lat="43.79096" lon="5.63871">
        <ele>448</ele>
        <time>2022-08-24T09:33:47Z</time>
      </trkpt>
      <trkpt lat="43.7909" lon="5.63869">
        <ele>447.3</ele>
        <time>2022-08-24T09:33:48Z</time>
      </trkpt>
      <trkpt lat="43.79066" lon="5.63864">
        <ele>446.5</ele>
        <time>2022-08-24T09:36:12Z</time>
      </trkpt>
      <trkpt lat="43.79055" lon="5.63865">
        <ele>446.2</ele>
        <time>2022-08-24T09:36:14Z</time>
      </trkpt>
      <trkpt lat="43.79049" lon="5.63864">
        <ele>445.9</ele>
        <time>2022-08-24T09:36:15Z</time>
      </trkpt>
      <trkpt lat="43.79044" lon="5.63864">
        <ele>445.5</ele>
        <time>2022-08-24T09:36:16Z</time>
      </trkpt>
      <trkpt lat="43.79039" lon="5.63865">
        <ele>444.9</ele>
        <time>2022-08-24T09:36:17Z</time>
      </trkpt>
      <trkpt lat="43.79032" lon="5.63867">
        <ele>444</ele>
        <time>2022-08-24T09:36:18Z</time>
      </trkpt>
      <trkpt lat="43.79024" lon="5.63865">
        <ele>443.9</ele>
        <time>2022-08-24T09:36:19Z</time>
      </trkpt>
      <trkpt lat="43.79018" lon="5.63866">
        <ele>443.2</ele>
        <time>2022-08-24T09:36:20Z</time>
      </trkpt>
      <trkpt lat="43.7901" lon="5.63866">
        <ele>442.7</ele>
        <time>2022-08-24T09:36:21Z</time>
      </trkpt>
      <trkpt lat="43.79003" lon="5.63866">
        <ele>442.2</ele>
        <time>2022-08-24T09:36:22Z</time>
      </trkpt>
      <trkpt lat="43.78996" lon="5.63866">
        <ele>441.7</ele>
        <time>2022-08-24T09:36:23Z</time>
      </trkpt>
      <trkpt lat="43.78988" lon="5.63866">
        <ele>440.9</ele>
        <time>2022-08-24T09:36:24Z</time>
      </trkpt>
      <trkpt lat="43.78979" lon="5.63865">
        <ele>440.3</ele>
        <time>2022-08-24T09:36:25Z</time>
      </trkpt>
      <trkpt lat="43.7897" lon="5.63865">
        <ele>439.9</ele>
        <time>2022-08-24T09:36:26Z</time>
      </trkpt>
      <trkpt lat="43.78962" lon="5.63863">
        <ele>439.9</ele>
        <time>2022-08-24T09:36:27Z</time>
      </trkpt>
      <trkpt lat="43.78955" lon="5.63858">
        <ele>439.7</ele>
        <time>2022-08-24T09:36:28Z</time>
      </trkpt>
      <trkpt lat="43.78947" lon="5.63849">
        <ele>438.9</ele>
        <time>2022-08-24T09:36:29Z</time>
      </trkpt>
      <trkpt lat="43.78941" lon="5.63838">
        <ele>438.1</ele>
        <time>2022-08-24T09:36:30Z</time>
      </trkpt>
      <trkpt lat="43.78936" lon="5.63827">
        <ele>437.4</ele>
        <time>2022-08-24T09:36:31Z</time>
      </trkpt>
      <trkpt lat="43.78934" lon="5.63814">
        <ele>436.6</ele>
        <time>2022-08-24T09:36:32Z</time>
      </trkpt>
      <trkpt lat="43.78933" lon="5.63801">
        <ele>435.9</ele>
        <time>2022-08-24T09:36:33Z</time>
      </trkpt>
      <trkpt lat="43.78934" lon="5.63788">
        <ele>434.9</ele>
        <time>2022-08-24T09:36:34Z</time>
      </trkpt>
      <trkpt lat="43.78935" lon="5.63774">
        <ele>434.2</ele>
        <time>2022-08-24T09:36:35Z</time>
      </trkpt>
      <trkpt lat="43.78937" lon="5.63762">
        <ele>433.7</ele>
        <time>2022-08-24T09:36:36Z</time>
      </trkpt>
      <trkpt lat="43.7894" lon="5.63749">
        <ele>433.5</ele>
        <time>2022-08-24T09:36:37Z</time>
      </trkpt>
      <trkpt lat="43.78943" lon="5.63736">
        <ele>433.4</ele>
        <time>2022-08-24T09:36:38Z</time>
      </trkpt>
      <trkpt lat="43.78946" lon="5.63723">
        <ele>433.1</ele>
        <time>2022-08-24T09:36:39Z</time>
      </trkpt>
      <trkpt lat="43.78946" lon="5.63709">
        <ele>432.6</ele>
        <time>2022-08-24T09:36:40Z</time>
      </trkpt>
      <trkpt lat="43.78945" lon="5.63695">
        <ele>432.1</ele>
        <time>2022-08-24T09:36:41Z</time>
      </trkpt>
      <trkpt lat="43.78943" lon="5.63681">
        <ele>431.4</ele>
        <time>2022-08-24T09:36:42Z</time>
      </trkpt>
      <trkpt lat="43.78939" lon="5.63669">
        <ele>430.7</ele>
        <time>2022-08-24T09:36:43Z</time>
      </trkpt>
      <trkpt lat="43.78935" lon="5.63657">
        <ele>430</ele>
        <time>2022-08-24T09:36:44Z</time>
      </trkpt>
      <trkpt lat="43.7893" lon="5.63646">
        <ele>429.2</ele>
        <time>2022-08-24T09:36:45Z</time>
      </trkpt>
      <trkpt lat="43.78924" lon="5.63635">
        <ele>428.5</ele>
        <time>2022-08-24T09:36:46Z</time>
      </trkpt>
      <trkpt lat="43.78917" lon="5.63625">
        <ele>428</ele>
        <time>2022-08-24T09:36:47Z</time>
      </trkpt>
      <trkpt lat="43.7891" lon="5.63618">
        <ele>427.7</ele>
        <time>2022-08-24T09:36:48Z</time>
      </trkpt>
      <trkpt lat="43.78902" lon="5.63612">
        <ele>427.4</ele>
        <time>2022-08-24T09:36:49Z</time>
      </trkpt>
      <trkpt lat="43.78893" lon="5.63608">
        <ele>427.3</ele>
        <time>2022-08-24T09:36:50Z</time>
      </trkpt>
      <trkpt lat="43.78884" lon="5.63604">
        <ele>427</ele>
        <time>2022-08-24T09:36:51Z</time>
      </trkpt>
      <trkpt lat="43.78875" lon="5.63602">
        <ele>426.6</ele>
        <time>2022-08-24T09:36:52Z</time>
      </trkpt>
      <trkpt lat="43.78865" lon="5.63601">
        <ele>426.2</ele>
        <time>2022-08-24T09:36:53Z</time>
      </trkpt>
      <trkpt lat="43.78856" lon="5.63601">
        <ele>425.9</ele>
        <time>2022-08-24T09:36:54Z</time>
      </trkpt>
      <trkpt lat="43.78848" lon="5.63604">
        <ele>425.5</ele>
        <time>2022-08-24T09:36:55Z</time>
      </trkpt>
      <trkpt lat="43.78839" lon="5.63608">
        <ele>425.2</ele>
        <time>2022-08-24T09:36:56Z</time>
      </trkpt>
      <trkpt lat="43.7883" lon="5.63611">
        <ele>424.9</ele>
        <time>2022-08-24T09:36:57Z</time>
      </trkpt>
      <trkpt lat="43.78821" lon="5.63615">
        <ele>424.3</ele>
        <time>2022-08-24T09:36:58Z</time>
      </trkpt>
      <trkpt lat="43.78812" lon="5.63618">
        <ele>423.9</ele>
        <time>2022-08-24T09:36:59Z</time>
      </trkpt>
      <trkpt lat="43.78803" lon="5.63621">
        <ele>423.6</ele>
        <time>2022-08-24T09:37:00Z</time>
      </trkpt>
      <trkpt lat="43.78795" lon="5.63624">
        <ele>423.4</ele>
        <time>2022-08-24T09:37:01Z</time>
      </trkpt>
      <trkpt lat="43.78787" lon="5.63626">
        <ele>423.1</ele>
        <time>2022-08-24T09:37:02Z</time>
      </trkpt>
      <trkpt lat="43.78779" lon="5.63628">
        <ele>422.8</ele>
        <time>2022-08-24T09:37:03Z</time>
      </trkpt>
      <trkpt lat="43.7877" lon="5.63629">
        <ele>422.4</ele>
        <time>2022-08-24T09:37:04Z</time>
      </trkpt>
      <trkpt lat="43.78762" lon="5.63629">
        <ele>422.1</ele>
        <time>2022-08-24T09:37:05Z</time>
      </trkpt>
      <trkpt lat="43.78753" lon="5.6363">
        <ele>421.7</ele>
        <time>2022-08-24T09:37:06Z</time>
      </trkpt>
      <trkpt lat="43.78744" lon="5.63631">
        <ele>421.2</ele>
        <time>2022-08-24T09:37:07Z</time>
      </trkpt>
      <trkpt lat="43.78735" lon="5.63629">
        <ele>420.8</ele>
        <time>2022-08-24T09:37:08Z</time>
      </trkpt>
      <trkpt lat="43.78726" lon="5.63628">
        <ele>420.4</ele>
        <time>2022-08-24T09:37:09Z</time>
      </trkpt>
      <trkpt lat="43.78717" lon="5.63625">
        <ele>420.3</ele>
        <time>2022-08-24T09:37:10Z</time>
      </trkpt>
      <trkpt lat="43.78708" lon="5.63623">
        <ele>420.1</ele>
        <time>2022-08-24T09:37:11Z</time>
      </trkpt>
      <trkpt lat="43.787" lon="5.6362">
        <ele>419.9</ele>
        <time>2022-08-24T09:37:12Z</time>
      </trkpt>
      <trkpt lat="43.78691" lon="5.63616">
        <ele>419.5</ele>
        <time>2022-08-24T09:37:13Z</time>
      </trkpt>
      <trkpt lat="43.78682" lon="5.6361">
        <ele>418.8</ele>
        <time>2022-08-24T09:37:14Z</time>
      </trkpt>
      <trkpt lat="43.78675" lon="5.63604">
        <ele>418.5</ele>
        <time>2022-08-24T09:37:15Z</time>
      </trkpt>
      <trkpt lat="43.78667" lon="5.63595">
        <ele>418.2</ele>
        <time>2022-08-24T09:37:16Z</time>
      </trkpt>
      <trkpt lat="43.7866" lon="5.63587">
        <ele>418</ele>
        <time>2022-08-24T09:37:17Z</time>
      </trkpt>
      <trkpt lat="43.78653" lon="5.63579">
        <ele>417.7</ele>
        <time>2022-08-24T09:37:18Z</time>
      </trkpt>
      <trkpt lat="43.78647" lon="5.63571">
        <ele>417.1</ele>
        <time>2022-08-24T09:37:19Z</time>
      </trkpt>
      <trkpt lat="43.78639" lon="5.63563">
        <ele>416</ele>
        <time>2022-08-24T09:37:20Z</time>
      </trkpt>
      <trkpt lat="43.78631" lon="5.63556">
        <ele>415.4</ele>
        <time>2022-08-24T09:37:21Z</time>
      </trkpt>
      <trkpt lat="43.78624" lon="5.63548">
        <ele>415.1</ele>
        <time>2022-08-24T09:37:22Z</time>
      </trkpt>
      <trkpt lat="43.78617" lon="5.63541">
        <ele>414.8</ele>
        <time>2022-08-24T09:37:23Z</time>
      </trkpt>
      <trkpt lat="43.78611" lon="5.63533">
        <ele>414.8</ele>
        <time>2022-08-24T09:37:24Z</time>
      </trkpt>
      <trkpt lat="43.78604" lon="5.63525">
        <ele>414.3</ele>
        <time>2022-08-24T09:37:25Z</time>
      </trkpt>
      <trkpt lat="43.78595" lon="5.63516">
        <ele>413.5</ele>
        <time>2022-08-24T09:37:26Z</time>
      </trkpt>
      <trkpt lat="43.78588" lon="5.63508">
        <ele>413.1</ele>
        <time>2022-08-24T09:37:27Z</time>
      </trkpt>
      <trkpt lat="43.78582" lon="5.63498">
        <ele>412.8</ele>
        <time>2022-08-24T09:37:28Z</time>
      </trkpt>
      <trkpt lat="43.78577" lon="5.63487">
        <ele>412.2</ele>
        <time>2022-08-24T09:37:29Z</time>
      </trkpt>
      <trkpt lat="43.78576" lon="5.63474">
        <ele>412</ele>
        <time>2022-08-24T09:37:30Z</time>
      </trkpt>
      <trkpt lat="43.78576" lon="5.63462">
        <ele>411.6</ele>
        <time>2022-08-24T09:37:31Z</time>
      </trkpt>
      <trkpt lat="43.78578" lon="5.63449">
        <ele>411.2</ele>
        <time>2022-08-24T09:37:32Z</time>
      </trkpt>
      <trkpt lat="43.78582" lon="5.63439">
        <ele>410.6</ele>
        <time>2022-08-24T09:37:33Z</time>
      </trkpt>
      <trkpt lat="43.78588" lon="5.63428">
        <ele>409.7</ele>
        <time>2022-08-24T09:37:34Z</time>
      </trkpt>
      <trkpt lat="43.78593" lon="5.63416">
        <ele>409</ele>
        <time>2022-08-24T09:37:35Z</time>
      </trkpt>
      <trkpt lat="43.786" lon="5.63409">
        <ele>408.9</ele>
        <time>2022-08-24T09:37:36Z</time>
      </trkpt>
      <trkpt lat="43.78606" lon="5.63399">
        <ele>408.9</ele>
        <time>2022-08-24T09:37:37Z</time>
      </trkpt>
      <trkpt lat="43.78613" lon="5.6339">
        <ele>409</ele>
        <time>2022-08-24T09:37:38Z</time>
      </trkpt>
      <trkpt lat="43.7862" lon="5.63383">
        <ele>408.5</ele>
        <time>2022-08-24T09:37:39Z</time>
      </trkpt>
      <trkpt lat="43.78627" lon="5.63376">
        <ele>408.2</ele>
        <time>2022-08-24T09:37:40Z</time>
      </trkpt>
      <trkpt lat="43.78634" lon="5.6337">
        <ele>408.1</ele>
        <time>2022-08-24T09:37:41Z</time>
      </trkpt>
      <trkpt lat="43.78642" lon="5.63362">
        <ele>408.2</ele>
        <time>2022-08-24T09:37:42Z</time>
      </trkpt>
      <trkpt lat="43.78649" lon="5.63354">
        <ele>408</ele>
        <time>2022-08-24T09:37:43Z</time>
      </trkpt>
    </trkseg>
  </trk>
</gpx>